<?xml version="1.0" encoding="UTF-8" standalone="no" ?>
<gpx xmlns="http://www.topografix.com/GPX/1/1" xmlns:xsi="http://www.w3.org/2001/XMLSchema-instance" xsi:schemaLocation="http://www.topografix.com/GPX/1/1 http://www.topografix.com/GPX/1/1/gpx.xsd" version="1.1" creator="VisuGPX - https://www.visugpx.com">
  <metadata>
    <name>2023-04-10 08:44:24 [Suunto App]</name>
  </metadata>
  <trk>
    <name><![CDATA[2023-04-10 08:44:24 [Suunto App]_1]]></name>
    <trkseg>
      <trkpt lat="45.45377" lon="5.62606">
        <ele>499.3</ele>
        <time>2023-04-10T06:44:24Z</time>
      </trkpt>
      <trkpt lat="45.45378" lon="5.62609">
        <ele>506</ele>
        <time>2023-04-10T06:44:25Z</time>
      </trkpt>
      <trkpt lat="45.4538" lon="5.62609">
        <ele>506</ele>
        <time>2023-04-10T06:44:26Z</time>
      </trkpt>
      <trkpt lat="45.45383" lon="5.62609">
        <ele>506</ele>
        <time>2023-04-10T06:44:27Z</time>
      </trkpt>
      <trkpt lat="45.45386" lon="5.62609">
        <ele>506</ele>
        <time>2023-04-10T06:44:28Z</time>
      </trkpt>
      <trkpt lat="45.4539" lon="5.62609">
        <ele>506</ele>
        <time>2023-04-10T06:44:29Z</time>
      </trkpt>
      <trkpt lat="45.45394" lon="5.62609">
        <ele>506</ele>
        <time>2023-04-10T06:44:30Z</time>
      </trkpt>
      <trkpt lat="45.45398" lon="5.62609">
        <ele>506</ele>
        <time>2023-04-10T06:44:31Z</time>
      </trkpt>
      <trkpt lat="45.45402" lon="5.62608">
        <ele>506</ele>
        <time>2023-04-10T06:44:32Z</time>
      </trkpt>
      <trkpt lat="45.45407" lon="5.62608">
        <ele>506</ele>
        <time>2023-04-10T06:44:33Z</time>
      </trkpt>
      <trkpt lat="45.45412" lon="5.62608">
        <ele>506</ele>
        <time>2023-04-10T06:44:34Z</time>
      </trkpt>
      <trkpt lat="45.45417" lon="5.62609">
        <ele>506</ele>
        <time>2023-04-10T06:44:35Z</time>
      </trkpt>
      <trkpt lat="45.45421" lon="5.62613">
        <ele>506</ele>
        <time>2023-04-10T06:44:36Z</time>
      </trkpt>
      <trkpt lat="45.45425" lon="5.62621">
        <ele>506</ele>
        <time>2023-04-10T06:44:37Z</time>
      </trkpt>
      <trkpt lat="45.45426" lon="5.6263">
        <ele>506</ele>
        <time>2023-04-10T06:44:38Z</time>
      </trkpt>
      <trkpt lat="45.45428" lon="5.6264">
        <ele>506</ele>
        <time>2023-04-10T06:44:39Z</time>
      </trkpt>
      <trkpt lat="45.45429" lon="5.6265">
        <ele>505</ele>
        <time>2023-04-10T06:44:40Z</time>
      </trkpt>
      <trkpt lat="45.45431" lon="5.6266">
        <ele>504</ele>
        <time>2023-04-10T06:44:41Z</time>
      </trkpt>
      <trkpt lat="45.45433" lon="5.6267">
        <ele>504</ele>
        <time>2023-04-10T06:44:42Z</time>
      </trkpt>
      <trkpt lat="45.45437" lon="5.62692">
        <ele>504</ele>
        <time>2023-04-10T06:44:43Z</time>
      </trkpt>
      <trkpt lat="45.4544" lon="5.62703">
        <ele>504</ele>
        <time>2023-04-10T06:44:45Z</time>
      </trkpt>
      <trkpt lat="45.45442" lon="5.62714">
        <ele>503</ele>
        <time>2023-04-10T06:44:46Z</time>
      </trkpt>
      <trkpt lat="45.45445" lon="5.62726">
        <ele>502</ele>
        <time>2023-04-10T06:44:47Z</time>
      </trkpt>
      <trkpt lat="45.45446" lon="5.6274">
        <ele>501</ele>
        <time>2023-04-10T06:44:48Z</time>
      </trkpt>
      <trkpt lat="45.45445" lon="5.62753">
        <ele>501</ele>
        <time>2023-04-10T06:44:49Z</time>
      </trkpt>
      <trkpt lat="45.45444" lon="5.62767">
        <ele>500</ele>
        <time>2023-04-10T06:44:50Z</time>
      </trkpt>
      <trkpt lat="45.45441" lon="5.62781">
        <ele>499</ele>
        <time>2023-04-10T06:44:51Z</time>
      </trkpt>
      <trkpt lat="45.45438" lon="5.62795">
        <ele>499</ele>
        <time>2023-04-10T06:44:52Z</time>
      </trkpt>
      <trkpt lat="45.45435" lon="5.62809">
        <ele>498</ele>
        <time>2023-04-10T06:44:53Z</time>
      </trkpt>
      <trkpt lat="45.45431" lon="5.62823">
        <ele>498</ele>
        <time>2023-04-10T06:44:54Z</time>
      </trkpt>
      <trkpt lat="45.45428" lon="5.62837">
        <ele>496</ele>
        <time>2023-04-10T06:44:55Z</time>
      </trkpt>
      <trkpt lat="45.45424" lon="5.62851">
        <ele>495</ele>
        <time>2023-04-10T06:44:56Z</time>
      </trkpt>
      <trkpt lat="45.45421" lon="5.62865">
        <ele>494</ele>
        <time>2023-04-10T06:44:57Z</time>
      </trkpt>
      <trkpt lat="45.45417" lon="5.62879">
        <ele>493</ele>
        <time>2023-04-10T06:44:58Z</time>
      </trkpt>
      <trkpt lat="45.45415" lon="5.62894">
        <ele>492</ele>
        <time>2023-04-10T06:44:59Z</time>
      </trkpt>
      <trkpt lat="45.45414" lon="5.62909">
        <ele>492</ele>
        <time>2023-04-10T06:45:00Z</time>
      </trkpt>
      <trkpt lat="45.45414" lon="5.62924">
        <ele>491</ele>
        <time>2023-04-10T06:45:01Z</time>
      </trkpt>
      <trkpt lat="45.45409" lon="5.62955">
        <ele>490</ele>
        <time>2023-04-10T06:45:02Z</time>
      </trkpt>
      <trkpt lat="45.45404" lon="5.62969">
        <ele>487</ele>
        <time>2023-04-10T06:45:04Z</time>
      </trkpt>
      <trkpt lat="45.45398" lon="5.62982">
        <ele>487</ele>
        <time>2023-04-10T06:45:05Z</time>
      </trkpt>
      <trkpt lat="45.4539" lon="5.62993">
        <ele>486</ele>
        <time>2023-04-10T06:45:06Z</time>
      </trkpt>
      <trkpt lat="45.4538" lon="5.62999">
        <ele>485</ele>
        <time>2023-04-10T06:45:07Z</time>
      </trkpt>
      <trkpt lat="45.4537" lon="5.63001">
        <ele>484</ele>
        <time>2023-04-10T06:45:08Z</time>
      </trkpt>
      <trkpt lat="45.45359" lon="5.62997">
        <ele>482</ele>
        <time>2023-04-10T06:45:09Z</time>
      </trkpt>
      <trkpt lat="45.45348" lon="5.62991">
        <ele>481</ele>
        <time>2023-04-10T06:45:10Z</time>
      </trkpt>
      <trkpt lat="45.45338" lon="5.62985">
        <ele>481</ele>
        <time>2023-04-10T06:45:11Z</time>
      </trkpt>
      <trkpt lat="45.45328" lon="5.62979">
        <ele>480</ele>
        <time>2023-04-10T06:45:12Z</time>
      </trkpt>
      <trkpt lat="45.45318" lon="5.62974">
        <ele>479</ele>
        <time>2023-04-10T06:45:13Z</time>
      </trkpt>
      <trkpt lat="45.45309" lon="5.62972">
        <ele>478</ele>
        <time>2023-04-10T06:45:14Z</time>
      </trkpt>
      <trkpt lat="45.45301" lon="5.62974">
        <ele>477</ele>
        <time>2023-04-10T06:45:15Z</time>
      </trkpt>
      <trkpt lat="45.45295" lon="5.62981">
        <ele>476</ele>
        <time>2023-04-10T06:45:16Z</time>
      </trkpt>
      <trkpt lat="45.45293" lon="5.62991">
        <ele>475</ele>
        <time>2023-04-10T06:45:17Z</time>
      </trkpt>
      <trkpt lat="45.45295" lon="5.63002">
        <ele>475</ele>
        <time>2023-04-10T06:45:18Z</time>
      </trkpt>
      <trkpt lat="45.45301" lon="5.63011">
        <ele>475</ele>
        <time>2023-04-10T06:45:19Z</time>
      </trkpt>
      <trkpt lat="45.45308" lon="5.63017">
        <ele>474</ele>
        <time>2023-04-10T06:45:20Z</time>
      </trkpt>
      <trkpt lat="45.45323" lon="5.63032">
        <ele>474</ele>
        <time>2023-04-10T06:45:21Z</time>
      </trkpt>
      <trkpt lat="45.4533" lon="5.63042">
        <ele>472</ele>
        <time>2023-04-10T06:45:23Z</time>
      </trkpt>
      <trkpt lat="45.45337" lon="5.63053">
        <ele>472</ele>
        <time>2023-04-10T06:45:24Z</time>
      </trkpt>
      <trkpt lat="45.45343" lon="5.63064">
        <ele>470</ele>
        <time>2023-04-10T06:45:25Z</time>
      </trkpt>
      <trkpt lat="45.4535" lon="5.63076">
        <ele>469</ele>
        <time>2023-04-10T06:45:26Z</time>
      </trkpt>
      <trkpt lat="45.45358" lon="5.63086">
        <ele>469</ele>
        <time>2023-04-10T06:45:27Z</time>
      </trkpt>
      <trkpt lat="45.45367" lon="5.63094">
        <ele>468</ele>
        <time>2023-04-10T06:45:28Z</time>
      </trkpt>
      <trkpt lat="45.45378" lon="5.63099">
        <ele>467</ele>
        <time>2023-04-10T06:45:29Z</time>
      </trkpt>
      <trkpt lat="45.45389" lon="5.63104">
        <ele>466</ele>
        <time>2023-04-10T06:45:30Z</time>
      </trkpt>
      <trkpt lat="45.454" lon="5.6311">
        <ele>465</ele>
        <time>2023-04-10T06:45:31Z</time>
      </trkpt>
      <trkpt lat="45.45411" lon="5.63117">
        <ele>464</ele>
        <time>2023-04-10T06:45:32Z</time>
      </trkpt>
      <trkpt lat="45.45421" lon="5.63124">
        <ele>463</ele>
        <time>2023-04-10T06:45:33Z</time>
      </trkpt>
      <trkpt lat="45.4543" lon="5.6313">
        <ele>462</ele>
        <time>2023-04-10T06:45:34Z</time>
      </trkpt>
      <trkpt lat="45.45436" lon="5.63135">
        <ele>461</ele>
        <time>2023-04-10T06:45:35Z</time>
      </trkpt>
      <trkpt lat="45.4544" lon="5.63142">
        <ele>460</ele>
        <time>2023-04-10T06:45:36Z</time>
      </trkpt>
      <trkpt lat="45.45441" lon="5.63149">
        <ele>459</ele>
        <time>2023-04-10T06:45:37Z</time>
      </trkpt>
      <trkpt lat="45.45438" lon="5.63156">
        <ele>459</ele>
        <time>2023-04-10T06:45:38Z</time>
      </trkpt>
      <trkpt lat="45.45434" lon="5.63162">
        <ele>458</ele>
        <time>2023-04-10T06:45:39Z</time>
      </trkpt>
      <trkpt lat="45.45424" lon="5.63174">
        <ele>458</ele>
        <time>2023-04-10T06:45:40Z</time>
      </trkpt>
      <trkpt lat="45.45418" lon="5.6318">
        <ele>457</ele>
        <time>2023-04-10T06:45:42Z</time>
      </trkpt>
      <trkpt lat="45.45411" lon="5.63185">
        <ele>457</ele>
        <time>2023-04-10T06:45:43Z</time>
      </trkpt>
      <trkpt lat="45.45405" lon="5.6319">
        <ele>457</ele>
        <time>2023-04-10T06:45:44Z</time>
      </trkpt>
      <trkpt lat="45.45397" lon="5.63194">
        <ele>457</ele>
        <time>2023-04-10T06:45:45Z</time>
      </trkpt>
      <trkpt lat="45.45389" lon="5.63197">
        <ele>457</ele>
        <time>2023-04-10T06:45:46Z</time>
      </trkpt>
      <trkpt lat="45.4538" lon="5.63201">
        <ele>456</ele>
        <time>2023-04-10T06:45:47Z</time>
      </trkpt>
      <trkpt lat="45.45372" lon="5.63204">
        <ele>456</ele>
        <time>2023-04-10T06:45:48Z</time>
      </trkpt>
      <trkpt lat="45.45362" lon="5.63207">
        <ele>456</ele>
        <time>2023-04-10T06:45:49Z</time>
      </trkpt>
      <trkpt lat="45.45353" lon="5.63211">
        <ele>455</ele>
        <time>2023-04-10T06:45:50Z</time>
      </trkpt>
      <trkpt lat="45.45343" lon="5.63212">
        <ele>455</ele>
        <time>2023-04-10T06:45:51Z</time>
      </trkpt>
      <trkpt lat="45.45334" lon="5.63209">
        <ele>454</ele>
        <time>2023-04-10T06:45:52Z</time>
      </trkpt>
      <trkpt lat="45.45324" lon="5.63204">
        <ele>453</ele>
        <time>2023-04-10T06:45:53Z</time>
      </trkpt>
      <trkpt lat="45.45314" lon="5.63196">
        <ele>452</ele>
        <time>2023-04-10T06:45:54Z</time>
      </trkpt>
      <trkpt lat="45.45305" lon="5.63188">
        <ele>451</ele>
        <time>2023-04-10T06:45:55Z</time>
      </trkpt>
      <trkpt lat="45.45295" lon="5.63179">
        <ele>450</ele>
        <time>2023-04-10T06:45:56Z</time>
      </trkpt>
      <trkpt lat="45.45286" lon="5.63171">
        <ele>450</ele>
        <time>2023-04-10T06:45:57Z</time>
      </trkpt>
      <trkpt lat="45.45277" lon="5.63162">
        <ele>450</ele>
        <time>2023-04-10T06:45:58Z</time>
      </trkpt>
      <trkpt lat="45.45268" lon="5.63152">
        <ele>449</ele>
        <time>2023-04-10T06:45:59Z</time>
      </trkpt>
      <trkpt lat="45.4526" lon="5.63142">
        <ele>448</ele>
        <time>2023-04-10T06:46:00Z</time>
      </trkpt>
      <trkpt lat="45.45252" lon="5.6313">
        <ele>447</ele>
        <time>2023-04-10T06:46:01Z</time>
      </trkpt>
      <trkpt lat="45.45244" lon="5.63118">
        <ele>447</ele>
        <time>2023-04-10T06:46:02Z</time>
      </trkpt>
      <trkpt lat="45.45236" lon="5.63107">
        <ele>446</ele>
        <time>2023-04-10T06:46:03Z</time>
      </trkpt>
      <trkpt lat="45.45228" lon="5.63097">
        <ele>446</ele>
        <time>2023-04-10T06:46:04Z</time>
      </trkpt>
      <trkpt lat="45.4522" lon="5.63088">
        <ele>446</ele>
        <time>2023-04-10T06:46:05Z</time>
      </trkpt>
      <trkpt lat="45.45212" lon="5.63079">
        <ele>445</ele>
        <time>2023-04-10T06:46:06Z</time>
      </trkpt>
      <trkpt lat="45.45203" lon="5.63072">
        <ele>444</ele>
        <time>2023-04-10T06:46:07Z</time>
      </trkpt>
      <trkpt lat="45.45195" lon="5.63065">
        <ele>444</ele>
        <time>2023-04-10T06:46:08Z</time>
      </trkpt>
      <trkpt lat="45.45186" lon="5.6306">
        <ele>444</ele>
        <time>2023-04-10T06:46:09Z</time>
      </trkpt>
      <trkpt lat="45.45177" lon="5.63055">
        <ele>444</ele>
        <time>2023-04-10T06:46:10Z</time>
      </trkpt>
      <trkpt lat="45.45167" lon="5.63051">
        <ele>444</ele>
        <time>2023-04-10T06:46:11Z</time>
      </trkpt>
      <trkpt lat="45.45158" lon="5.63047">
        <ele>444</ele>
        <time>2023-04-10T06:46:12Z</time>
      </trkpt>
      <trkpt lat="45.45149" lon="5.63043">
        <ele>444</ele>
        <time>2023-04-10T06:46:13Z</time>
      </trkpt>
      <trkpt lat="45.4514" lon="5.63039">
        <ele>444</ele>
        <time>2023-04-10T06:46:14Z</time>
      </trkpt>
      <trkpt lat="45.45131" lon="5.63035">
        <ele>444</ele>
        <time>2023-04-10T06:46:15Z</time>
      </trkpt>
      <trkpt lat="45.45122" lon="5.63032">
        <ele>443</ele>
        <time>2023-04-10T06:46:16Z</time>
      </trkpt>
      <trkpt lat="45.45113" lon="5.63028">
        <ele>442</ele>
        <time>2023-04-10T06:46:17Z</time>
      </trkpt>
      <trkpt lat="45.45097" lon="5.63026">
        <ele>442</ele>
        <time>2023-04-10T06:46:18Z</time>
      </trkpt>
      <trkpt lat="45.45091" lon="5.63031">
        <ele>440</ele>
        <time>2023-04-10T06:46:20Z</time>
      </trkpt>
      <trkpt lat="45.45088" lon="5.63039">
        <ele>440</ele>
        <time>2023-04-10T06:46:21Z</time>
      </trkpt>
      <trkpt lat="45.45087" lon="5.63049">
        <ele>439</ele>
        <time>2023-04-10T06:46:22Z</time>
      </trkpt>
      <trkpt lat="45.45087" lon="5.63058">
        <ele>438</ele>
        <time>2023-04-10T06:46:23Z</time>
      </trkpt>
      <trkpt lat="45.45085" lon="5.63065">
        <ele>438</ele>
        <time>2023-04-10T06:46:24Z</time>
      </trkpt>
      <trkpt lat="45.45081" lon="5.63068">
        <ele>437</ele>
        <time>2023-04-10T06:46:25Z</time>
      </trkpt>
      <trkpt lat="45.45077" lon="5.63071">
        <ele>436</ele>
        <time>2023-04-10T06:46:26Z</time>
      </trkpt>
      <trkpt lat="45.45072" lon="5.63076">
        <ele>436</ele>
        <time>2023-04-10T06:46:27Z</time>
      </trkpt>
      <trkpt lat="45.45066" lon="5.63084">
        <ele>435</ele>
        <time>2023-04-10T06:46:28Z</time>
      </trkpt>
      <trkpt lat="45.45061" lon="5.63093">
        <ele>434</ele>
        <time>2023-04-10T06:46:29Z</time>
      </trkpt>
      <trkpt lat="45.45053" lon="5.63102">
        <ele>433</ele>
        <time>2023-04-10T06:46:30Z</time>
      </trkpt>
      <trkpt lat="45.45045" lon="5.6311">
        <ele>432</ele>
        <time>2023-04-10T06:46:31Z</time>
      </trkpt>
      <trkpt lat="45.45037" lon="5.63118">
        <ele>432</ele>
        <time>2023-04-10T06:46:32Z</time>
      </trkpt>
      <trkpt lat="45.45029" lon="5.63127">
        <ele>431</ele>
        <time>2023-04-10T06:46:33Z</time>
      </trkpt>
      <trkpt lat="45.45021" lon="5.63136">
        <ele>430</ele>
        <time>2023-04-10T06:46:34Z</time>
      </trkpt>
      <trkpt lat="45.45013" lon="5.63146">
        <ele>429</ele>
        <time>2023-04-10T06:46:35Z</time>
      </trkpt>
      <trkpt lat="45.45004" lon="5.63155">
        <ele>428</ele>
        <time>2023-04-10T06:46:36Z</time>
      </trkpt>
      <trkpt lat="45.44987" lon="5.63172">
        <ele>426</ele>
        <time>2023-04-10T06:46:37Z</time>
      </trkpt>
      <trkpt lat="45.44978" lon="5.63181">
        <ele>424</ele>
        <time>2023-04-10T06:46:39Z</time>
      </trkpt>
      <trkpt lat="45.4497" lon="5.63188">
        <ele>423</ele>
        <time>2023-04-10T06:46:40Z</time>
      </trkpt>
      <trkpt lat="45.44963" lon="5.63194">
        <ele>423</ele>
        <time>2023-04-10T06:46:41Z</time>
      </trkpt>
      <trkpt lat="45.44958" lon="5.63199">
        <ele>422</ele>
        <time>2023-04-10T06:46:42Z</time>
      </trkpt>
      <trkpt lat="45.44954" lon="5.63202">
        <ele>422</ele>
        <time>2023-04-10T06:46:43Z</time>
      </trkpt>
      <trkpt lat="45.4495" lon="5.63205">
        <ele>422</ele>
        <time>2023-04-10T06:46:44Z</time>
      </trkpt>
      <trkpt lat="45.44945" lon="5.63208">
        <ele>422</ele>
        <time>2023-04-10T06:46:45Z</time>
      </trkpt>
      <trkpt lat="45.4494" lon="5.63212">
        <ele>422</ele>
        <time>2023-04-10T06:46:46Z</time>
      </trkpt>
      <trkpt lat="45.44934" lon="5.63216">
        <ele>422</ele>
        <time>2023-04-10T06:46:47Z</time>
      </trkpt>
      <trkpt lat="45.44927" lon="5.63222">
        <ele>422</ele>
        <time>2023-04-10T06:46:48Z</time>
      </trkpt>
      <trkpt lat="45.44921" lon="5.63229">
        <ele>422</ele>
        <time>2023-04-10T06:46:49Z</time>
      </trkpt>
      <trkpt lat="45.44914" lon="5.63236">
        <ele>421</ele>
        <time>2023-04-10T06:46:50Z</time>
      </trkpt>
      <trkpt lat="45.44906" lon="5.63244">
        <ele>420</ele>
        <time>2023-04-10T06:46:51Z</time>
      </trkpt>
      <trkpt lat="45.44898" lon="5.63252">
        <ele>420</ele>
        <time>2023-04-10T06:46:52Z</time>
      </trkpt>
      <trkpt lat="45.44891" lon="5.63259">
        <ele>419</ele>
        <time>2023-04-10T06:46:53Z</time>
      </trkpt>
      <trkpt lat="45.44883" lon="5.63267">
        <ele>418</ele>
        <time>2023-04-10T06:46:54Z</time>
      </trkpt>
      <trkpt lat="45.44876" lon="5.63274">
        <ele>418</ele>
        <time>2023-04-10T06:46:55Z</time>
      </trkpt>
      <trkpt lat="45.4486" lon="5.63285">
        <ele>417</ele>
        <time>2023-04-10T06:46:56Z</time>
      </trkpt>
      <trkpt lat="45.44852" lon="5.6329">
        <ele>417</ele>
        <time>2023-04-10T06:46:57Z</time>
      </trkpt>
      <trkpt lat="45.44844" lon="5.63295">
        <ele>416</ele>
        <time>2023-04-10T06:46:59Z</time>
      </trkpt>
      <trkpt lat="45.44836" lon="5.633">
        <ele>415</ele>
        <time>2023-04-10T06:47:00Z</time>
      </trkpt>
      <trkpt lat="45.44828" lon="5.63304">
        <ele>415</ele>
        <time>2023-04-10T06:47:01Z</time>
      </trkpt>
      <trkpt lat="45.4482" lon="5.63309">
        <ele>415</ele>
        <time>2023-04-10T06:47:02Z</time>
      </trkpt>
      <trkpt lat="45.44813" lon="5.63314">
        <ele>415</ele>
        <time>2023-04-10T06:47:03Z</time>
      </trkpt>
      <trkpt lat="45.44806" lon="5.63319">
        <ele>415</ele>
        <time>2023-04-10T06:47:04Z</time>
      </trkpt>
      <trkpt lat="45.44799" lon="5.63323">
        <ele>415</ele>
        <time>2023-04-10T06:47:05Z</time>
      </trkpt>
      <trkpt lat="45.44792" lon="5.63327">
        <ele>416</ele>
        <time>2023-04-10T06:47:06Z</time>
      </trkpt>
      <trkpt lat="45.44785" lon="5.63331">
        <ele>416</ele>
        <time>2023-04-10T06:47:07Z</time>
      </trkpt>
      <trkpt lat="45.44778" lon="5.63335">
        <ele>416</ele>
        <time>2023-04-10T06:47:08Z</time>
      </trkpt>
      <trkpt lat="45.44771" lon="5.63339">
        <ele>416</ele>
        <time>2023-04-10T06:47:09Z</time>
      </trkpt>
      <trkpt lat="45.44765" lon="5.63343">
        <ele>416</ele>
        <time>2023-04-10T06:47:10Z</time>
      </trkpt>
      <trkpt lat="45.44758" lon="5.63347">
        <ele>416</ele>
        <time>2023-04-10T06:47:11Z</time>
      </trkpt>
      <trkpt lat="45.44752" lon="5.63352">
        <ele>416</ele>
        <time>2023-04-10T06:47:12Z</time>
      </trkpt>
      <trkpt lat="45.44745" lon="5.63356">
        <ele>416</ele>
        <time>2023-04-10T06:47:13Z</time>
      </trkpt>
      <trkpt lat="45.44739" lon="5.6336">
        <ele>416</ele>
        <time>2023-04-10T06:47:14Z</time>
      </trkpt>
      <trkpt lat="45.44726" lon="5.63368">
        <ele>416</ele>
        <time>2023-04-10T06:47:15Z</time>
      </trkpt>
      <trkpt lat="45.44719" lon="5.63372">
        <ele>416</ele>
        <time>2023-04-10T06:47:17Z</time>
      </trkpt>
      <trkpt lat="45.44713" lon="5.63376">
        <ele>416</ele>
        <time>2023-04-10T06:47:18Z</time>
      </trkpt>
      <trkpt lat="45.44707" lon="5.6338">
        <ele>416</ele>
        <time>2023-04-10T06:47:19Z</time>
      </trkpt>
      <trkpt lat="45.44701" lon="5.63384">
        <ele>416</ele>
        <time>2023-04-10T06:47:20Z</time>
      </trkpt>
      <trkpt lat="45.44695" lon="5.63388">
        <ele>416</ele>
        <time>2023-04-10T06:47:21Z</time>
      </trkpt>
      <trkpt lat="45.44689" lon="5.63392">
        <ele>416</ele>
        <time>2023-04-10T06:47:22Z</time>
      </trkpt>
      <trkpt lat="45.44683" lon="5.63396">
        <ele>416</ele>
        <time>2023-04-10T06:47:23Z</time>
      </trkpt>
      <trkpt lat="45.44678" lon="5.634">
        <ele>416</ele>
        <time>2023-04-10T06:47:24Z</time>
      </trkpt>
      <trkpt lat="45.44672" lon="5.63405">
        <ele>416</ele>
        <time>2023-04-10T06:47:25Z</time>
      </trkpt>
      <trkpt lat="45.44666" lon="5.63408">
        <ele>417</ele>
        <time>2023-04-10T06:47:26Z</time>
      </trkpt>
      <trkpt lat="45.4466" lon="5.63409">
        <ele>417</ele>
        <time>2023-04-10T06:47:27Z</time>
      </trkpt>
      <trkpt lat="45.44654" lon="5.63406">
        <ele>417</ele>
        <time>2023-04-10T06:47:28Z</time>
      </trkpt>
      <trkpt lat="45.4465" lon="5.634">
        <ele>417</ele>
        <time>2023-04-10T06:47:29Z</time>
      </trkpt>
      <trkpt lat="45.44648" lon="5.63392">
        <ele>417</ele>
        <time>2023-04-10T06:47:30Z</time>
      </trkpt>
      <trkpt lat="45.44647" lon="5.63383">
        <ele>416</ele>
        <time>2023-04-10T06:47:31Z</time>
      </trkpt>
      <trkpt lat="45.44649" lon="5.63374">
        <ele>416</ele>
        <time>2023-04-10T06:47:32Z</time>
      </trkpt>
      <trkpt lat="45.44651" lon="5.63366">
        <ele>416</ele>
        <time>2023-04-10T06:47:33Z</time>
      </trkpt>
      <trkpt lat="45.44654" lon="5.63349">
        <ele>416</ele>
        <time>2023-04-10T06:47:34Z</time>
      </trkpt>
      <trkpt lat="45.44654" lon="5.6334">
        <ele>416</ele>
        <time>2023-04-10T06:47:36Z</time>
      </trkpt>
      <trkpt lat="45.44654" lon="5.63332">
        <ele>416</ele>
        <time>2023-04-10T06:47:37Z</time>
      </trkpt>
      <trkpt lat="45.44652" lon="5.63324">
        <ele>417</ele>
        <time>2023-04-10T06:47:38Z</time>
      </trkpt>
      <trkpt lat="45.4465" lon="5.63317">
        <ele>417</ele>
        <time>2023-04-10T06:47:39Z</time>
      </trkpt>
      <trkpt lat="45.44647" lon="5.6331">
        <ele>417</ele>
        <time>2023-04-10T06:47:40Z</time>
      </trkpt>
      <trkpt lat="45.44645" lon="5.63303">
        <ele>417</ele>
        <time>2023-04-10T06:47:41Z</time>
      </trkpt>
      <trkpt lat="45.44642" lon="5.63296">
        <ele>417</ele>
        <time>2023-04-10T06:47:42Z</time>
      </trkpt>
      <trkpt lat="45.4464" lon="5.63289">
        <ele>417</ele>
        <time>2023-04-10T06:47:43Z</time>
      </trkpt>
      <trkpt lat="45.44637" lon="5.63282">
        <ele>417</ele>
        <time>2023-04-10T06:47:44Z</time>
      </trkpt>
      <trkpt lat="45.44635" lon="5.63275">
        <ele>418</ele>
        <time>2023-04-10T06:47:45Z</time>
      </trkpt>
      <trkpt lat="45.44632" lon="5.63269">
        <ele>418</ele>
        <time>2023-04-10T06:47:46Z</time>
      </trkpt>
      <trkpt lat="45.44629" lon="5.63263">
        <ele>418</ele>
        <time>2023-04-10T06:47:47Z</time>
      </trkpt>
      <trkpt lat="45.44625" lon="5.63258">
        <ele>418</ele>
        <time>2023-04-10T06:47:48Z</time>
      </trkpt>
      <trkpt lat="45.44622" lon="5.63253">
        <ele>418</ele>
        <time>2023-04-10T06:47:49Z</time>
      </trkpt>
      <trkpt lat="45.44618" lon="5.63248">
        <ele>417</ele>
        <time>2023-04-10T06:47:50Z</time>
      </trkpt>
      <trkpt lat="45.44614" lon="5.63243">
        <ele>418</ele>
        <time>2023-04-10T06:47:51Z</time>
      </trkpt>
      <trkpt lat="45.44611" lon="5.63238">
        <ele>418</ele>
        <time>2023-04-10T06:47:52Z</time>
      </trkpt>
      <trkpt lat="45.44604" lon="5.63228">
        <ele>418</ele>
        <time>2023-04-10T06:47:53Z</time>
      </trkpt>
      <trkpt lat="45.446" lon="5.63223">
        <ele>418</ele>
        <time>2023-04-10T06:47:55Z</time>
      </trkpt>
      <trkpt lat="45.44597" lon="5.63218">
        <ele>418</ele>
        <time>2023-04-10T06:47:56Z</time>
      </trkpt>
      <trkpt lat="45.44593" lon="5.63213">
        <ele>418</ele>
        <time>2023-04-10T06:47:57Z</time>
      </trkpt>
      <trkpt lat="45.4459" lon="5.63208">
        <ele>419</ele>
        <time>2023-04-10T06:47:58Z</time>
      </trkpt>
      <trkpt lat="45.44586" lon="5.63203">
        <ele>419</ele>
        <time>2023-04-10T06:47:59Z</time>
      </trkpt>
      <trkpt lat="45.44583" lon="5.63198">
        <ele>419</ele>
        <time>2023-04-10T06:48:00Z</time>
      </trkpt>
      <trkpt lat="45.44579" lon="5.63193">
        <ele>419</ele>
        <time>2023-04-10T06:48:01Z</time>
      </trkpt>
      <trkpt lat="45.44576" lon="5.63188">
        <ele>419</ele>
        <time>2023-04-10T06:48:02Z</time>
      </trkpt>
      <trkpt lat="45.44572" lon="5.63183">
        <ele>419</ele>
        <time>2023-04-10T06:48:03Z</time>
      </trkpt>
      <trkpt lat="45.44569" lon="5.63178">
        <ele>419</ele>
        <time>2023-04-10T06:48:04Z</time>
      </trkpt>
      <trkpt lat="45.44566" lon="5.63173">
        <ele>419</ele>
        <time>2023-04-10T06:48:05Z</time>
      </trkpt>
      <trkpt lat="45.44562" lon="5.63168">
        <ele>419</ele>
        <time>2023-04-10T06:48:06Z</time>
      </trkpt>
      <trkpt lat="45.44559" lon="5.63163">
        <ele>419</ele>
        <time>2023-04-10T06:48:07Z</time>
      </trkpt>
      <trkpt lat="45.44555" lon="5.63158">
        <ele>419</ele>
        <time>2023-04-10T06:48:08Z</time>
      </trkpt>
      <trkpt lat="45.44552" lon="5.63154">
        <ele>419</ele>
        <time>2023-04-10T06:48:09Z</time>
      </trkpt>
      <trkpt lat="45.44548" lon="5.6315">
        <ele>419</ele>
        <time>2023-04-10T06:48:10Z</time>
      </trkpt>
      <trkpt lat="45.44545" lon="5.63146">
        <ele>420</ele>
        <time>2023-04-10T06:48:11Z</time>
      </trkpt>
      <trkpt lat="45.44537" lon="5.63138">
        <ele>420</ele>
        <time>2023-04-10T06:48:12Z</time>
      </trkpt>
      <trkpt lat="45.44533" lon="5.63135">
        <ele>420</ele>
        <time>2023-04-10T06:48:14Z</time>
      </trkpt>
      <trkpt lat="45.44529" lon="5.63131">
        <ele>420</ele>
        <time>2023-04-10T06:48:15Z</time>
      </trkpt>
      <trkpt lat="45.44526" lon="5.63126">
        <ele>420</ele>
        <time>2023-04-10T06:48:16Z</time>
      </trkpt>
      <trkpt lat="45.44524" lon="5.63121">
        <ele>420</ele>
        <time>2023-04-10T06:48:17Z</time>
      </trkpt>
      <trkpt lat="45.44521" lon="5.63116">
        <ele>420</ele>
        <time>2023-04-10T06:48:18Z</time>
      </trkpt>
      <trkpt lat="45.44519" lon="5.63111">
        <ele>420</ele>
        <time>2023-04-10T06:48:19Z</time>
      </trkpt>
      <trkpt lat="45.44516" lon="5.63105">
        <ele>420</ele>
        <time>2023-04-10T06:48:20Z</time>
      </trkpt>
      <trkpt lat="45.44514" lon="5.631">
        <ele>420</ele>
        <time>2023-04-10T06:48:21Z</time>
      </trkpt>
      <trkpt lat="45.44512" lon="5.63094">
        <ele>420</ele>
        <time>2023-04-10T06:48:22Z</time>
      </trkpt>
      <trkpt lat="45.4451" lon="5.63088">
        <ele>420</ele>
        <time>2023-04-10T06:48:23Z</time>
      </trkpt>
      <trkpt lat="45.44509" lon="5.63082">
        <ele>420</ele>
        <time>2023-04-10T06:48:24Z</time>
      </trkpt>
      <trkpt lat="45.44507" lon="5.63077">
        <ele>420</ele>
        <time>2023-04-10T06:48:25Z</time>
      </trkpt>
      <trkpt lat="45.44506" lon="5.63071">
        <ele>420</ele>
        <time>2023-04-10T06:48:26Z</time>
      </trkpt>
      <trkpt lat="45.44505" lon="5.63065">
        <ele>420</ele>
        <time>2023-04-10T06:48:27Z</time>
      </trkpt>
      <trkpt lat="45.44504" lon="5.63059">
        <ele>420</ele>
        <time>2023-04-10T06:48:28Z</time>
      </trkpt>
      <trkpt lat="45.44503" lon="5.63052">
        <ele>420</ele>
        <time>2023-04-10T06:48:29Z</time>
      </trkpt>
      <trkpt lat="45.44502" lon="5.63047">
        <ele>420</ele>
        <time>2023-04-10T06:48:30Z</time>
      </trkpt>
      <trkpt lat="45.44501" lon="5.63035">
        <ele>420</ele>
        <time>2023-04-10T06:48:31Z</time>
      </trkpt>
      <trkpt lat="45.44501" lon="5.6303">
        <ele>420</ele>
        <time>2023-04-10T06:48:33Z</time>
      </trkpt>
      <trkpt lat="45.445" lon="5.63024">
        <ele>420</ele>
        <time>2023-04-10T06:48:34Z</time>
      </trkpt>
      <trkpt lat="45.445" lon="5.63019">
        <ele>420</ele>
        <time>2023-04-10T06:48:35Z</time>
      </trkpt>
      <trkpt lat="45.44498" lon="5.63012">
        <ele>420</ele>
        <time>2023-04-10T06:48:36Z</time>
      </trkpt>
      <trkpt lat="45.44497" lon="5.63005">
        <ele>420</ele>
        <time>2023-04-10T06:48:37Z</time>
      </trkpt>
      <trkpt lat="45.44497" lon="5.62998">
        <ele>421</ele>
        <time>2023-04-10T06:48:38Z</time>
      </trkpt>
      <trkpt lat="45.44497" lon="5.62991">
        <ele>421</ele>
        <time>2023-04-10T06:48:39Z</time>
      </trkpt>
      <trkpt lat="45.44496" lon="5.62984">
        <ele>421</ele>
        <time>2023-04-10T06:48:40Z</time>
      </trkpt>
      <trkpt lat="45.44496" lon="5.62977">
        <ele>421</ele>
        <time>2023-04-10T06:48:41Z</time>
      </trkpt>
      <trkpt lat="45.44495" lon="5.62971">
        <ele>421</ele>
        <time>2023-04-10T06:48:42Z</time>
      </trkpt>
      <trkpt lat="45.44495" lon="5.62964">
        <ele>421</ele>
        <time>2023-04-10T06:48:43Z</time>
      </trkpt>
      <trkpt lat="45.44494" lon="5.62957">
        <ele>421</ele>
        <time>2023-04-10T06:48:44Z</time>
      </trkpt>
      <trkpt lat="45.44494" lon="5.62951">
        <ele>421</ele>
        <time>2023-04-10T06:48:45Z</time>
      </trkpt>
      <trkpt lat="45.44493" lon="5.62944">
        <ele>421</ele>
        <time>2023-04-10T06:48:46Z</time>
      </trkpt>
      <trkpt lat="45.44492" lon="5.62938">
        <ele>421</ele>
        <time>2023-04-10T06:48:47Z</time>
      </trkpt>
      <trkpt lat="45.44492" lon="5.62933">
        <ele>421</ele>
        <time>2023-04-10T06:48:48Z</time>
      </trkpt>
      <trkpt lat="45.44491" lon="5.62926">
        <ele>421</ele>
        <time>2023-04-10T06:48:49Z</time>
      </trkpt>
      <trkpt lat="45.4449" lon="5.62914">
        <ele>421</ele>
        <time>2023-04-10T06:48:50Z</time>
      </trkpt>
      <trkpt lat="45.44489" lon="5.62908">
        <ele>421</ele>
        <time>2023-04-10T06:48:52Z</time>
      </trkpt>
      <trkpt lat="45.44488" lon="5.62902">
        <ele>421</ele>
        <time>2023-04-10T06:48:53Z</time>
      </trkpt>
      <trkpt lat="45.44487" lon="5.62896">
        <ele>421</ele>
        <time>2023-04-10T06:48:54Z</time>
      </trkpt>
      <trkpt lat="45.44487" lon="5.6289">
        <ele>421</ele>
        <time>2023-04-10T06:48:55Z</time>
      </trkpt>
      <trkpt lat="45.44486" lon="5.62884">
        <ele>421</ele>
        <time>2023-04-10T06:48:56Z</time>
      </trkpt>
      <trkpt lat="45.44484" lon="5.62873">
        <ele>421</ele>
        <time>2023-04-10T06:48:57Z</time>
      </trkpt>
      <trkpt lat="45.44483" lon="5.62868">
        <ele>421</ele>
        <time>2023-04-10T06:48:59Z</time>
      </trkpt>
      <trkpt lat="45.44482" lon="5.62863">
        <ele>422</ele>
        <time>2023-04-10T06:49:00Z</time>
      </trkpt>
      <trkpt lat="45.44481" lon="5.62859">
        <ele>422</ele>
        <time>2023-04-10T06:49:01Z</time>
      </trkpt>
      <trkpt lat="45.4448" lon="5.62854">
        <ele>422</ele>
        <time>2023-04-10T06:49:02Z</time>
      </trkpt>
      <trkpt lat="45.44479" lon="5.6285">
        <ele>422</ele>
        <time>2023-04-10T06:49:03Z</time>
      </trkpt>
      <trkpt lat="45.44477" lon="5.62844">
        <ele>422</ele>
        <time>2023-04-10T06:49:04Z</time>
      </trkpt>
      <trkpt lat="45.44476" lon="5.62838">
        <ele>422</ele>
        <time>2023-04-10T06:49:05Z</time>
      </trkpt>
      <trkpt lat="45.44475" lon="5.62833">
        <ele>422</ele>
        <time>2023-04-10T06:49:06Z</time>
      </trkpt>
      <trkpt lat="45.44474" lon="5.62828">
        <ele>422</ele>
        <time>2023-04-10T06:49:07Z</time>
      </trkpt>
      <trkpt lat="45.44473" lon="5.62822">
        <ele>423</ele>
        <time>2023-04-10T06:49:08Z</time>
      </trkpt>
      <trkpt lat="45.44472" lon="5.62808">
        <ele>423</ele>
        <time>2023-04-10T06:49:09Z</time>
      </trkpt>
      <trkpt lat="45.44472" lon="5.62803">
        <ele>423</ele>
        <time>2023-04-10T06:49:11Z</time>
      </trkpt>
      <trkpt lat="45.4447" lon="5.62798">
        <ele>423</ele>
        <time>2023-04-10T06:49:12Z</time>
      </trkpt>
      <trkpt lat="45.44468" lon="5.62794">
        <ele>423</ele>
        <time>2023-04-10T06:49:13Z</time>
      </trkpt>
      <trkpt lat="45.44464" lon="5.62794">
        <ele>423</ele>
        <time>2023-04-10T06:49:14Z</time>
      </trkpt>
      <trkpt lat="45.4446" lon="5.62794">
        <ele>423</ele>
        <time>2023-04-10T06:49:15Z</time>
      </trkpt>
      <trkpt lat="45.44456" lon="5.62795">
        <ele>423</ele>
        <time>2023-04-10T06:49:16Z</time>
      </trkpt>
      <trkpt lat="45.44452" lon="5.62796">
        <ele>423</ele>
        <time>2023-04-10T06:49:17Z</time>
      </trkpt>
      <trkpt lat="45.44448" lon="5.62797">
        <ele>423</ele>
        <time>2023-04-10T06:49:18Z</time>
      </trkpt>
      <trkpt lat="45.44444" lon="5.62799">
        <ele>423</ele>
        <time>2023-04-10T06:49:19Z</time>
      </trkpt>
      <trkpt lat="45.44439" lon="5.62799">
        <ele>423</ele>
        <time>2023-04-10T06:49:20Z</time>
      </trkpt>
      <trkpt lat="45.44435" lon="5.62799">
        <ele>423</ele>
        <time>2023-04-10T06:49:21Z</time>
      </trkpt>
      <trkpt lat="45.44431" lon="5.628">
        <ele>423</ele>
        <time>2023-04-10T06:49:22Z</time>
      </trkpt>
      <trkpt lat="45.44426" lon="5.62801">
        <ele>423</ele>
        <time>2023-04-10T06:49:23Z</time>
      </trkpt>
      <trkpt lat="45.44421" lon="5.62801">
        <ele>423</ele>
        <time>2023-04-10T06:49:24Z</time>
      </trkpt>
      <trkpt lat="45.44416" lon="5.628">
        <ele>423</ele>
        <time>2023-04-10T06:49:25Z</time>
      </trkpt>
      <trkpt lat="45.44411" lon="5.62799">
        <ele>423</ele>
        <time>2023-04-10T06:49:26Z</time>
      </trkpt>
      <trkpt lat="45.44407" lon="5.62797">
        <ele>422</ele>
        <time>2023-04-10T06:49:27Z</time>
      </trkpt>
      <trkpt lat="45.444" lon="5.62797">
        <ele>422</ele>
        <time>2023-04-10T06:49:28Z</time>
      </trkpt>
      <trkpt lat="45.44395" lon="5.62797">
        <ele>422</ele>
        <time>2023-04-10T06:49:30Z</time>
      </trkpt>
      <trkpt lat="45.4439" lon="5.62794">
        <ele>422</ele>
        <time>2023-04-10T06:49:31Z</time>
      </trkpt>
      <trkpt lat="45.44386" lon="5.6279">
        <ele>422</ele>
        <time>2023-04-10T06:49:32Z</time>
      </trkpt>
      <trkpt lat="45.44382" lon="5.62786">
        <ele>422</ele>
        <time>2023-04-10T06:49:33Z</time>
      </trkpt>
      <trkpt lat="45.44378" lon="5.62781">
        <ele>422</ele>
        <time>2023-04-10T06:49:34Z</time>
      </trkpt>
      <trkpt lat="45.44375" lon="5.62777">
        <ele>422</ele>
        <time>2023-04-10T06:49:35Z</time>
      </trkpt>
      <trkpt lat="45.44372" lon="5.6277">
        <ele>423</ele>
        <time>2023-04-10T06:49:36Z</time>
      </trkpt>
      <trkpt lat="45.44371" lon="5.62764">
        <ele>423</ele>
        <time>2023-04-10T06:49:37Z</time>
      </trkpt>
      <trkpt lat="45.44369" lon="5.6275">
        <ele>423</ele>
        <time>2023-04-10T06:49:39Z</time>
      </trkpt>
      <trkpt lat="45.4437" lon="5.62742">
        <ele>423</ele>
        <time>2023-04-10T06:49:40Z</time>
      </trkpt>
      <trkpt lat="45.44372" lon="5.62735">
        <ele>423</ele>
        <time>2023-04-10T06:49:41Z</time>
      </trkpt>
      <trkpt lat="45.44373" lon="5.62727">
        <ele>423</ele>
        <time>2023-04-10T06:49:42Z</time>
      </trkpt>
      <trkpt lat="45.44374" lon="5.6272">
        <ele>423</ele>
        <time>2023-04-10T06:49:43Z</time>
      </trkpt>
      <trkpt lat="45.44375" lon="5.62713">
        <ele>423</ele>
        <time>2023-04-10T06:49:44Z</time>
      </trkpt>
      <trkpt lat="45.44376" lon="5.62706">
        <ele>424</ele>
        <time>2023-04-10T06:49:45Z</time>
      </trkpt>
      <trkpt lat="45.44377" lon="5.62699">
        <ele>424</ele>
        <time>2023-04-10T06:49:46Z</time>
      </trkpt>
      <trkpt lat="45.44379" lon="5.62686">
        <ele>424</ele>
        <time>2023-04-10T06:49:47Z</time>
      </trkpt>
      <trkpt lat="45.4438" lon="5.62681">
        <ele>423</ele>
        <time>2023-04-10T06:49:49Z</time>
      </trkpt>
      <trkpt lat="45.4438" lon="5.62675">
        <ele>423</ele>
        <time>2023-04-10T06:49:50Z</time>
      </trkpt>
      <trkpt lat="45.4438" lon="5.6267">
        <ele>424</ele>
        <time>2023-04-10T06:49:51Z</time>
      </trkpt>
      <trkpt lat="45.44381" lon="5.62662">
        <ele>424</ele>
        <time>2023-04-10T06:49:52Z</time>
      </trkpt>
      <trkpt lat="45.44382" lon="5.62655">
        <ele>424</ele>
        <time>2023-04-10T06:49:53Z</time>
      </trkpt>
      <trkpt lat="45.44384" lon="5.62648">
        <ele>424</ele>
        <time>2023-04-10T06:49:54Z</time>
      </trkpt>
      <trkpt lat="45.44385" lon="5.62641">
        <ele>424</ele>
        <time>2023-04-10T06:49:55Z</time>
      </trkpt>
      <trkpt lat="45.44385" lon="5.62635">
        <ele>424</ele>
        <time>2023-04-10T06:49:56Z</time>
      </trkpt>
      <trkpt lat="45.44386" lon="5.62629">
        <ele>424</ele>
        <time>2023-04-10T06:49:57Z</time>
      </trkpt>
      <trkpt lat="45.44387" lon="5.62623">
        <ele>424</ele>
        <time>2023-04-10T06:49:58Z</time>
      </trkpt>
      <trkpt lat="45.44387" lon="5.62617">
        <ele>424</ele>
        <time>2023-04-10T06:49:59Z</time>
      </trkpt>
      <trkpt lat="45.44387" lon="5.62611">
        <ele>424</ele>
        <time>2023-04-10T06:50:00Z</time>
      </trkpt>
      <trkpt lat="45.44388" lon="5.62605">
        <ele>425</ele>
        <time>2023-04-10T06:50:01Z</time>
      </trkpt>
      <trkpt lat="45.44388" lon="5.62599">
        <ele>425</ele>
        <time>2023-04-10T06:50:02Z</time>
      </trkpt>
      <trkpt lat="45.44389" lon="5.62587">
        <ele>425</ele>
        <time>2023-04-10T06:50:04Z</time>
      </trkpt>
      <trkpt lat="45.4439" lon="5.6258">
        <ele>425</ele>
        <time>2023-04-10T06:50:05Z</time>
      </trkpt>
      <trkpt lat="45.44392" lon="5.62567">
        <ele>425</ele>
        <time>2023-04-10T06:50:06Z</time>
      </trkpt>
      <trkpt lat="45.44393" lon="5.62561">
        <ele>425</ele>
        <time>2023-04-10T06:50:08Z</time>
      </trkpt>
      <trkpt lat="45.44394" lon="5.62555">
        <ele>425</ele>
        <time>2023-04-10T06:50:09Z</time>
      </trkpt>
      <trkpt lat="45.44395" lon="5.6255">
        <ele>425</ele>
        <time>2023-04-10T06:50:10Z</time>
      </trkpt>
      <trkpt lat="45.44396" lon="5.62544">
        <ele>426</ele>
        <time>2023-04-10T06:50:11Z</time>
      </trkpt>
      <trkpt lat="45.44397" lon="5.62539">
        <ele>426</ele>
        <time>2023-04-10T06:50:12Z</time>
      </trkpt>
      <trkpt lat="45.44398" lon="5.62533">
        <ele>426</ele>
        <time>2023-04-10T06:50:13Z</time>
      </trkpt>
      <trkpt lat="45.44398" lon="5.62528">
        <ele>426</ele>
        <time>2023-04-10T06:50:14Z</time>
      </trkpt>
      <trkpt lat="45.44398" lon="5.62522">
        <ele>426</ele>
        <time>2023-04-10T06:50:15Z</time>
      </trkpt>
      <trkpt lat="45.44398" lon="5.62518">
        <ele>426</ele>
        <time>2023-04-10T06:50:16Z</time>
      </trkpt>
      <trkpt lat="45.44399" lon="5.62511">
        <ele>426</ele>
        <time>2023-04-10T06:50:17Z</time>
      </trkpt>
      <trkpt lat="45.44399" lon="5.62505">
        <ele>426</ele>
        <time>2023-04-10T06:50:18Z</time>
      </trkpt>
      <trkpt lat="45.44399" lon="5.62499">
        <ele>426</ele>
        <time>2023-04-10T06:50:19Z</time>
      </trkpt>
      <trkpt lat="45.44399" lon="5.62493">
        <ele>426</ele>
        <time>2023-04-10T06:50:20Z</time>
      </trkpt>
      <trkpt lat="45.44398" lon="5.62487">
        <ele>426</ele>
        <time>2023-04-10T06:50:21Z</time>
      </trkpt>
      <trkpt lat="45.44398" lon="5.62469">
        <ele>426</ele>
        <time>2023-04-10T06:50:24Z</time>
      </trkpt>
      <trkpt lat="45.44396" lon="5.62451">
        <ele>426</ele>
        <time>2023-04-10T06:50:27Z</time>
      </trkpt>
      <trkpt lat="45.44394" lon="5.62433">
        <ele>426</ele>
        <time>2023-04-10T06:50:30Z</time>
      </trkpt>
      <trkpt lat="45.44391" lon="5.62417">
        <ele>426</ele>
        <time>2023-04-10T06:50:33Z</time>
      </trkpt>
      <trkpt lat="45.44389" lon="5.62399">
        <ele>426</ele>
        <time>2023-04-10T06:50:36Z</time>
      </trkpt>
      <trkpt lat="45.44387" lon="5.62386">
        <ele>426</ele>
        <time>2023-04-10T06:50:38Z</time>
      </trkpt>
      <trkpt lat="45.44382" lon="5.62369">
        <ele>426</ele>
        <time>2023-04-10T06:50:41Z</time>
      </trkpt>
      <trkpt lat="45.4438" lon="5.62355">
        <ele>428</ele>
        <time>2023-04-10T06:50:43Z</time>
      </trkpt>
      <trkpt lat="45.44377" lon="5.62345">
        <ele>429</ele>
        <time>2023-04-10T06:50:44Z</time>
      </trkpt>
      <trkpt lat="45.44376" lon="5.62339">
        <ele>429</ele>
        <time>2023-04-10T06:50:46Z</time>
      </trkpt>
      <trkpt lat="45.44374" lon="5.62334">
        <ele>429</ele>
        <time>2023-04-10T06:50:47Z</time>
      </trkpt>
      <trkpt lat="45.44372" lon="5.62329">
        <ele>429</ele>
        <time>2023-04-10T06:50:48Z</time>
      </trkpt>
      <trkpt lat="45.44371" lon="5.62324">
        <ele>429</ele>
        <time>2023-04-10T06:50:49Z</time>
      </trkpt>
      <trkpt lat="45.4437" lon="5.62318">
        <ele>429</ele>
        <time>2023-04-10T06:50:50Z</time>
      </trkpt>
      <trkpt lat="45.44368" lon="5.62313">
        <ele>429</ele>
        <time>2023-04-10T06:50:51Z</time>
      </trkpt>
      <trkpt lat="45.44368" lon="5.62307">
        <ele>429</ele>
        <time>2023-04-10T06:50:52Z</time>
      </trkpt>
      <trkpt lat="45.44367" lon="5.62302">
        <ele>429</ele>
        <time>2023-04-10T06:50:53Z</time>
      </trkpt>
      <trkpt lat="45.44367" lon="5.62297">
        <ele>429</ele>
        <time>2023-04-10T06:50:54Z</time>
      </trkpt>
      <trkpt lat="45.44368" lon="5.62292">
        <ele>430</ele>
        <time>2023-04-10T06:50:55Z</time>
      </trkpt>
      <trkpt lat="45.4437" lon="5.62283">
        <ele>430</ele>
        <time>2023-04-10T06:50:57Z</time>
      </trkpt>
      <trkpt lat="45.44373" lon="5.6227">
        <ele>430</ele>
        <time>2023-04-10T06:51:00Z</time>
      </trkpt>
      <trkpt lat="45.44376" lon="5.62253">
        <ele>430</ele>
        <time>2023-04-10T06:51:03Z</time>
      </trkpt>
      <trkpt lat="45.44378" lon="5.62236">
        <ele>431</ele>
        <time>2023-04-10T06:51:06Z</time>
      </trkpt>
      <trkpt lat="45.4438" lon="5.62217">
        <ele>431</ele>
        <time>2023-04-10T06:51:09Z</time>
      </trkpt>
      <trkpt lat="45.44381" lon="5.62204">
        <ele>431</ele>
        <time>2023-04-10T06:51:11Z</time>
      </trkpt>
      <trkpt lat="45.4438" lon="5.62191">
        <ele>431</ele>
        <time>2023-04-10T06:51:13Z</time>
      </trkpt>
      <trkpt lat="45.44377" lon="5.62174">
        <ele>431</ele>
        <time>2023-04-10T06:51:16Z</time>
      </trkpt>
      <trkpt lat="45.44372" lon="5.6216">
        <ele>432</ele>
        <time>2023-04-10T06:51:19Z</time>
      </trkpt>
      <trkpt lat="45.44369" lon="5.62158">
        <ele>432</ele>
        <time>2023-04-10T06:51:20Z</time>
      </trkpt>
      <trkpt lat="45.44366" lon="5.62158">
        <ele>432</ele>
        <time>2023-04-10T06:51:21Z</time>
      </trkpt>
      <trkpt lat="45.44358" lon="5.62159">
        <ele>432</ele>
        <time>2023-04-10T06:51:22Z</time>
      </trkpt>
      <trkpt lat="45.44355" lon="5.62159">
        <ele>433</ele>
        <time>2023-04-10T06:51:24Z</time>
      </trkpt>
      <trkpt lat="45.44351" lon="5.62159">
        <ele>433</ele>
        <time>2023-04-10T06:51:25Z</time>
      </trkpt>
      <trkpt lat="45.44347" lon="5.62158">
        <ele>433</ele>
        <time>2023-04-10T06:51:26Z</time>
      </trkpt>
      <trkpt lat="45.44343" lon="5.62157">
        <ele>433</ele>
        <time>2023-04-10T06:51:27Z</time>
      </trkpt>
      <trkpt lat="45.4434" lon="5.62156">
        <ele>433</ele>
        <time>2023-04-10T06:51:28Z</time>
      </trkpt>
      <trkpt lat="45.44336" lon="5.62154">
        <ele>433</ele>
        <time>2023-04-10T06:51:29Z</time>
      </trkpt>
      <trkpt lat="45.44333" lon="5.62153">
        <ele>433</ele>
        <time>2023-04-10T06:51:30Z</time>
      </trkpt>
      <trkpt lat="45.4433" lon="5.62152">
        <ele>433</ele>
        <time>2023-04-10T06:51:31Z</time>
      </trkpt>
      <trkpt lat="45.44326" lon="5.6215">
        <ele>434</ele>
        <time>2023-04-10T06:51:32Z</time>
      </trkpt>
      <trkpt lat="45.44323" lon="5.62149">
        <ele>434</ele>
        <time>2023-04-10T06:51:33Z</time>
      </trkpt>
      <trkpt lat="45.4432" lon="5.62148">
        <ele>434</ele>
        <time>2023-04-10T06:51:34Z</time>
      </trkpt>
      <trkpt lat="45.44317" lon="5.62147">
        <ele>434</ele>
        <time>2023-04-10T06:51:35Z</time>
      </trkpt>
      <trkpt lat="45.44315" lon="5.62146">
        <ele>434</ele>
        <time>2023-04-10T06:51:36Z</time>
      </trkpt>
      <trkpt lat="45.44312" lon="5.62145">
        <ele>434</ele>
        <time>2023-04-10T06:51:37Z</time>
      </trkpt>
      <trkpt lat="45.44309" lon="5.62143">
        <ele>434</ele>
        <time>2023-04-10T06:51:38Z</time>
      </trkpt>
      <trkpt lat="45.44306" lon="5.62142">
        <ele>435</ele>
        <time>2023-04-10T06:51:39Z</time>
      </trkpt>
      <trkpt lat="45.44303" lon="5.62141">
        <ele>435</ele>
        <time>2023-04-10T06:51:40Z</time>
      </trkpt>
      <trkpt lat="45.44297" lon="5.62138">
        <ele>435</ele>
        <time>2023-04-10T06:51:41Z</time>
      </trkpt>
      <trkpt lat="45.44294" lon="5.62136">
        <ele>435</ele>
        <time>2023-04-10T06:51:43Z</time>
      </trkpt>
      <trkpt lat="45.4429" lon="5.62135">
        <ele>435</ele>
        <time>2023-04-10T06:51:44Z</time>
      </trkpt>
      <trkpt lat="45.44287" lon="5.62134">
        <ele>435</ele>
        <time>2023-04-10T06:51:45Z</time>
      </trkpt>
      <trkpt lat="45.44284" lon="5.62133">
        <ele>436</ele>
        <time>2023-04-10T06:51:46Z</time>
      </trkpt>
      <trkpt lat="45.4428" lon="5.62132">
        <ele>436</ele>
        <time>2023-04-10T06:51:47Z</time>
      </trkpt>
      <trkpt lat="45.44276" lon="5.62132">
        <ele>436</ele>
        <time>2023-04-10T06:51:48Z</time>
      </trkpt>
      <trkpt lat="45.44273" lon="5.62131">
        <ele>437</ele>
        <time>2023-04-10T06:51:49Z</time>
      </trkpt>
      <trkpt lat="45.4427" lon="5.6213">
        <ele>437</ele>
        <time>2023-04-10T06:51:50Z</time>
      </trkpt>
      <trkpt lat="45.44266" lon="5.6213">
        <ele>437</ele>
        <time>2023-04-10T06:51:51Z</time>
      </trkpt>
      <trkpt lat="45.44263" lon="5.62129">
        <ele>437</ele>
        <time>2023-04-10T06:51:52Z</time>
      </trkpt>
      <trkpt lat="45.44259" lon="5.62128">
        <ele>437</ele>
        <time>2023-04-10T06:51:53Z</time>
      </trkpt>
      <trkpt lat="45.44256" lon="5.62127">
        <ele>437</ele>
        <time>2023-04-10T06:51:54Z</time>
      </trkpt>
      <trkpt lat="45.44253" lon="5.62126">
        <ele>438</ele>
        <time>2023-04-10T06:51:55Z</time>
      </trkpt>
      <trkpt lat="45.4425" lon="5.62125">
        <ele>438</ele>
        <time>2023-04-10T06:51:56Z</time>
      </trkpt>
      <trkpt lat="45.44247" lon="5.62124">
        <ele>438</ele>
        <time>2023-04-10T06:51:57Z</time>
      </trkpt>
      <trkpt lat="45.44244" lon="5.62122">
        <ele>438</ele>
        <time>2023-04-10T06:51:58Z</time>
      </trkpt>
      <trkpt lat="45.44241" lon="5.62121">
        <ele>438</ele>
        <time>2023-04-10T06:51:59Z</time>
      </trkpt>
      <trkpt lat="45.44236" lon="5.6212">
        <ele>438</ele>
        <time>2023-04-10T06:52:00Z</time>
      </trkpt>
      <trkpt lat="45.44233" lon="5.62119">
        <ele>439</ele>
        <time>2023-04-10T06:52:02Z</time>
      </trkpt>
      <trkpt lat="45.4423" lon="5.62118">
        <ele>439</ele>
        <time>2023-04-10T06:52:03Z</time>
      </trkpt>
      <trkpt lat="45.44227" lon="5.62117">
        <ele>439</ele>
        <time>2023-04-10T06:52:04Z</time>
      </trkpt>
      <trkpt lat="45.44225" lon="5.62116">
        <ele>440</ele>
        <time>2023-04-10T06:52:05Z</time>
      </trkpt>
      <trkpt lat="45.44222" lon="5.62115">
        <ele>440</ele>
        <time>2023-04-10T06:52:06Z</time>
      </trkpt>
      <trkpt lat="45.4422" lon="5.62114">
        <ele>440</ele>
        <time>2023-04-10T06:52:07Z</time>
      </trkpt>
      <trkpt lat="45.44217" lon="5.62113">
        <ele>441</ele>
        <time>2023-04-10T06:52:08Z</time>
      </trkpt>
      <trkpt lat="45.44215" lon="5.62112">
        <ele>441</ele>
        <time>2023-04-10T06:52:09Z</time>
      </trkpt>
      <trkpt lat="45.44212" lon="5.62111">
        <ele>441</ele>
        <time>2023-04-10T06:52:10Z</time>
      </trkpt>
      <trkpt lat="45.44207" lon="5.62111">
        <ele>442</ele>
        <time>2023-04-10T06:52:11Z</time>
      </trkpt>
      <trkpt lat="45.44205" lon="5.62111">
        <ele>442</ele>
        <time>2023-04-10T06:52:13Z</time>
      </trkpt>
      <trkpt lat="45.44202" lon="5.62112">
        <ele>443</ele>
        <time>2023-04-10T06:52:14Z</time>
      </trkpt>
      <trkpt lat="45.44199" lon="5.62112">
        <ele>443</ele>
        <time>2023-04-10T06:52:15Z</time>
      </trkpt>
      <trkpt lat="45.44197" lon="5.62112">
        <ele>443</ele>
        <time>2023-04-10T06:52:16Z</time>
      </trkpt>
      <trkpt lat="45.44194" lon="5.62114">
        <ele>443</ele>
        <time>2023-04-10T06:52:17Z</time>
      </trkpt>
      <trkpt lat="45.44191" lon="5.62115">
        <ele>444</ele>
        <time>2023-04-10T06:52:18Z</time>
      </trkpt>
      <trkpt lat="45.44184" lon="5.62116">
        <ele>444</ele>
        <time>2023-04-10T06:52:19Z</time>
      </trkpt>
      <trkpt lat="45.44181" lon="5.62117">
        <ele>444</ele>
        <time>2023-04-10T06:52:21Z</time>
      </trkpt>
      <trkpt lat="45.44177" lon="5.62116">
        <ele>445</ele>
        <time>2023-04-10T06:52:22Z</time>
      </trkpt>
      <trkpt lat="45.44173" lon="5.62117">
        <ele>445</ele>
        <time>2023-04-10T06:52:23Z</time>
      </trkpt>
      <trkpt lat="45.44169" lon="5.62118">
        <ele>445</ele>
        <time>2023-04-10T06:52:24Z</time>
      </trkpt>
      <trkpt lat="45.44165" lon="5.62119">
        <ele>445</ele>
        <time>2023-04-10T06:52:25Z</time>
      </trkpt>
      <trkpt lat="45.44162" lon="5.62121">
        <ele>445</ele>
        <time>2023-04-10T06:52:26Z</time>
      </trkpt>
      <trkpt lat="45.44158" lon="5.62122">
        <ele>445</ele>
        <time>2023-04-10T06:52:27Z</time>
      </trkpt>
      <trkpt lat="45.44154" lon="5.62124">
        <ele>445</ele>
        <time>2023-04-10T06:52:28Z</time>
      </trkpt>
      <trkpt lat="45.44151" lon="5.62125">
        <ele>445</ele>
        <time>2023-04-10T06:52:29Z</time>
      </trkpt>
      <trkpt lat="45.44147" lon="5.62127">
        <ele>445</ele>
        <time>2023-04-10T06:52:30Z</time>
      </trkpt>
      <trkpt lat="45.44144" lon="5.62129">
        <ele>445</ele>
        <time>2023-04-10T06:52:31Z</time>
      </trkpt>
      <trkpt lat="45.4414" lon="5.62131">
        <ele>445</ele>
        <time>2023-04-10T06:52:32Z</time>
      </trkpt>
      <trkpt lat="45.44137" lon="5.62132">
        <ele>446</ele>
        <time>2023-04-10T06:52:33Z</time>
      </trkpt>
      <trkpt lat="45.44134" lon="5.62134">
        <ele>446</ele>
        <time>2023-04-10T06:52:34Z</time>
      </trkpt>
      <trkpt lat="45.4413" lon="5.62134">
        <ele>446</ele>
        <time>2023-04-10T06:52:35Z</time>
      </trkpt>
      <trkpt lat="45.44126" lon="5.62135">
        <ele>446</ele>
        <time>2023-04-10T06:52:36Z</time>
      </trkpt>
      <trkpt lat="45.44123" lon="5.62136">
        <ele>446</ele>
        <time>2023-04-10T06:52:37Z</time>
      </trkpt>
      <trkpt lat="45.44115" lon="5.62137">
        <ele>447</ele>
        <time>2023-04-10T06:52:38Z</time>
      </trkpt>
      <trkpt lat="45.44111" lon="5.62137">
        <ele>447</ele>
        <time>2023-04-10T06:52:40Z</time>
      </trkpt>
      <trkpt lat="45.44107" lon="5.62138">
        <ele>447</ele>
        <time>2023-04-10T06:52:41Z</time>
      </trkpt>
      <trkpt lat="45.44104" lon="5.62138">
        <ele>447</ele>
        <time>2023-04-10T06:52:42Z</time>
      </trkpt>
      <trkpt lat="45.441" lon="5.62138">
        <ele>447</ele>
        <time>2023-04-10T06:52:43Z</time>
      </trkpt>
      <trkpt lat="45.44096" lon="5.62138">
        <ele>447</ele>
        <time>2023-04-10T06:52:44Z</time>
      </trkpt>
      <trkpt lat="45.44093" lon="5.62138">
        <ele>447</ele>
        <time>2023-04-10T06:52:45Z</time>
      </trkpt>
      <trkpt lat="45.44089" lon="5.62137">
        <ele>448</ele>
        <time>2023-04-10T06:52:46Z</time>
      </trkpt>
      <trkpt lat="45.44086" lon="5.62136">
        <ele>448</ele>
        <time>2023-04-10T06:52:47Z</time>
      </trkpt>
      <trkpt lat="45.44082" lon="5.62136">
        <ele>448</ele>
        <time>2023-04-10T06:52:48Z</time>
      </trkpt>
      <trkpt lat="45.44079" lon="5.62135">
        <ele>448</ele>
        <time>2023-04-10T06:52:49Z</time>
      </trkpt>
      <trkpt lat="45.44076" lon="5.62134">
        <ele>448</ele>
        <time>2023-04-10T06:52:50Z</time>
      </trkpt>
      <trkpt lat="45.44072" lon="5.62132">
        <ele>448</ele>
        <time>2023-04-10T06:52:51Z</time>
      </trkpt>
      <trkpt lat="45.44069" lon="5.62131">
        <ele>449</ele>
        <time>2023-04-10T06:52:52Z</time>
      </trkpt>
      <trkpt lat="45.44065" lon="5.6213">
        <ele>449</ele>
        <time>2023-04-10T06:52:53Z</time>
      </trkpt>
      <trkpt lat="45.44062" lon="5.62129">
        <ele>449</ele>
        <time>2023-04-10T06:52:54Z</time>
      </trkpt>
      <trkpt lat="45.44058" lon="5.62128">
        <ele>449</ele>
        <time>2023-04-10T06:52:55Z</time>
      </trkpt>
      <trkpt lat="45.44055" lon="5.62126">
        <ele>450</ele>
        <time>2023-04-10T06:52:56Z</time>
      </trkpt>
      <trkpt lat="45.44047" lon="5.62124">
        <ele>450</ele>
        <time>2023-04-10T06:52:57Z</time>
      </trkpt>
      <trkpt lat="45.44044" lon="5.62122">
        <ele>450</ele>
        <time>2023-04-10T06:52:59Z</time>
      </trkpt>
      <trkpt lat="45.4404" lon="5.62121">
        <ele>450</ele>
        <time>2023-04-10T06:53:00Z</time>
      </trkpt>
      <trkpt lat="45.44036" lon="5.62119">
        <ele>450</ele>
        <time>2023-04-10T06:53:01Z</time>
      </trkpt>
      <trkpt lat="45.44033" lon="5.62118">
        <ele>450</ele>
        <time>2023-04-10T06:53:02Z</time>
      </trkpt>
      <trkpt lat="45.44029" lon="5.62117">
        <ele>451</ele>
        <time>2023-04-10T06:53:03Z</time>
      </trkpt>
      <trkpt lat="45.44025" lon="5.62116">
        <ele>451</ele>
        <time>2023-04-10T06:53:04Z</time>
      </trkpt>
      <trkpt lat="45.44021" lon="5.62115">
        <ele>451</ele>
        <time>2023-04-10T06:53:05Z</time>
      </trkpt>
      <trkpt lat="45.44017" lon="5.62113">
        <ele>451</ele>
        <time>2023-04-10T06:53:06Z</time>
      </trkpt>
      <trkpt lat="45.44013" lon="5.62112">
        <ele>451</ele>
        <time>2023-04-10T06:53:07Z</time>
      </trkpt>
      <trkpt lat="45.4401" lon="5.62111">
        <ele>451</ele>
        <time>2023-04-10T06:53:08Z</time>
      </trkpt>
      <trkpt lat="45.44006" lon="5.6211">
        <ele>451</ele>
        <time>2023-04-10T06:53:09Z</time>
      </trkpt>
      <trkpt lat="45.44002" lon="5.62109">
        <ele>451</ele>
        <time>2023-04-10T06:53:10Z</time>
      </trkpt>
      <trkpt lat="45.43999" lon="5.6211">
        <ele>451</ele>
        <time>2023-04-10T06:53:11Z</time>
      </trkpt>
      <trkpt lat="45.43996" lon="5.6211">
        <ele>451</ele>
        <time>2023-04-10T06:53:12Z</time>
      </trkpt>
      <trkpt lat="45.43993" lon="5.62112">
        <ele>451</ele>
        <time>2023-04-10T06:53:13Z</time>
      </trkpt>
      <trkpt lat="45.4399" lon="5.62114">
        <ele>451</ele>
        <time>2023-04-10T06:53:14Z</time>
      </trkpt>
      <trkpt lat="45.43988" lon="5.62117">
        <ele>451</ele>
        <time>2023-04-10T06:53:15Z</time>
      </trkpt>
      <trkpt lat="45.43985" lon="5.62122">
        <ele>452</ele>
        <time>2023-04-10T06:53:16Z</time>
      </trkpt>
      <trkpt lat="45.43983" lon="5.62125">
        <ele>452</ele>
        <time>2023-04-10T06:53:18Z</time>
      </trkpt>
      <trkpt lat="45.43982" lon="5.62127">
        <ele>453</ele>
        <time>2023-04-10T06:53:19Z</time>
      </trkpt>
      <trkpt lat="45.4398" lon="5.6213">
        <ele>453</ele>
        <time>2023-04-10T06:53:20Z</time>
      </trkpt>
      <trkpt lat="45.43979" lon="5.62132">
        <ele>453</ele>
        <time>2023-04-10T06:53:21Z</time>
      </trkpt>
      <trkpt lat="45.43977" lon="5.62135">
        <ele>454</ele>
        <time>2023-04-10T06:53:22Z</time>
      </trkpt>
      <trkpt lat="45.43976" lon="5.62137">
        <ele>454</ele>
        <time>2023-04-10T06:53:23Z</time>
      </trkpt>
      <trkpt lat="45.43974" lon="5.6214">
        <ele>455</ele>
        <time>2023-04-10T06:53:24Z</time>
      </trkpt>
      <trkpt lat="45.43973" lon="5.62142">
        <ele>455</ele>
        <time>2023-04-10T06:53:25Z</time>
      </trkpt>
      <trkpt lat="45.43971" lon="5.62145">
        <ele>455</ele>
        <time>2023-04-10T06:53:26Z</time>
      </trkpt>
      <trkpt lat="45.4397" lon="5.62147">
        <ele>456</ele>
        <time>2023-04-10T06:53:27Z</time>
      </trkpt>
      <trkpt lat="45.43968" lon="5.62149">
        <ele>456</ele>
        <time>2023-04-10T06:53:28Z</time>
      </trkpt>
      <trkpt lat="45.43967" lon="5.62151">
        <ele>456</ele>
        <time>2023-04-10T06:53:29Z</time>
      </trkpt>
      <trkpt lat="45.43966" lon="5.62153">
        <ele>456</ele>
        <time>2023-04-10T06:53:30Z</time>
      </trkpt>
      <trkpt lat="45.43964" lon="5.62155">
        <ele>457</ele>
        <time>2023-04-10T06:53:31Z</time>
      </trkpt>
      <trkpt lat="45.43962" lon="5.62159">
        <ele>457</ele>
        <time>2023-04-10T06:53:32Z</time>
      </trkpt>
      <trkpt lat="45.4396" lon="5.62162">
        <ele>457</ele>
        <time>2023-04-10T06:53:34Z</time>
      </trkpt>
      <trkpt lat="45.43957" lon="5.62166">
        <ele>457</ele>
        <time>2023-04-10T06:53:35Z</time>
      </trkpt>
      <trkpt lat="45.43956" lon="5.62168">
        <ele>458</ele>
        <time>2023-04-10T06:53:37Z</time>
      </trkpt>
      <trkpt lat="45.43954" lon="5.62171">
        <ele>459</ele>
        <time>2023-04-10T06:53:38Z</time>
      </trkpt>
      <trkpt lat="45.43953" lon="5.62174">
        <ele>459</ele>
        <time>2023-04-10T06:53:39Z</time>
      </trkpt>
      <trkpt lat="45.43951" lon="5.62176">
        <ele>459</ele>
        <time>2023-04-10T06:53:40Z</time>
      </trkpt>
      <trkpt lat="45.4395" lon="5.62178">
        <ele>459</ele>
        <time>2023-04-10T06:53:41Z</time>
      </trkpt>
      <trkpt lat="45.43948" lon="5.6218">
        <ele>460</ele>
        <time>2023-04-10T06:53:42Z</time>
      </trkpt>
      <trkpt lat="45.43947" lon="5.62183">
        <ele>460</ele>
        <time>2023-04-10T06:53:43Z</time>
      </trkpt>
      <trkpt lat="45.43945" lon="5.62185">
        <ele>461</ele>
        <time>2023-04-10T06:53:44Z</time>
      </trkpt>
      <trkpt lat="45.43944" lon="5.62188">
        <ele>461</ele>
        <time>2023-04-10T06:53:45Z</time>
      </trkpt>
      <trkpt lat="45.43943" lon="5.6219">
        <ele>461</ele>
        <time>2023-04-10T06:53:46Z</time>
      </trkpt>
      <trkpt lat="45.43941" lon="5.62192">
        <ele>462</ele>
        <time>2023-04-10T06:53:47Z</time>
      </trkpt>
      <trkpt lat="45.4394" lon="5.62194">
        <ele>462</ele>
        <time>2023-04-10T06:53:48Z</time>
      </trkpt>
      <trkpt lat="45.43938" lon="5.62196">
        <ele>462</ele>
        <time>2023-04-10T06:53:49Z</time>
      </trkpt>
      <trkpt lat="45.43937" lon="5.62199">
        <ele>463</ele>
        <time>2023-04-10T06:53:50Z</time>
      </trkpt>
      <trkpt lat="45.43935" lon="5.62201">
        <ele>463</ele>
        <time>2023-04-10T06:53:51Z</time>
      </trkpt>
      <trkpt lat="45.43934" lon="5.62203">
        <ele>463</ele>
        <time>2023-04-10T06:53:52Z</time>
      </trkpt>
      <trkpt lat="45.43932" lon="5.62205">
        <ele>463</ele>
        <time>2023-04-10T06:53:53Z</time>
      </trkpt>
      <trkpt lat="45.43929" lon="5.62211">
        <ele>463</ele>
        <time>2023-04-10T06:53:54Z</time>
      </trkpt>
      <trkpt lat="45.43927" lon="5.62213">
        <ele>463</ele>
        <time>2023-04-10T06:53:56Z</time>
      </trkpt>
      <trkpt lat="45.43926" lon="5.62215">
        <ele>464</ele>
        <time>2023-04-10T06:53:57Z</time>
      </trkpt>
      <trkpt lat="45.43924" lon="5.62218">
        <ele>465</ele>
        <time>2023-04-10T06:53:58Z</time>
      </trkpt>
      <trkpt lat="45.43923" lon="5.6222">
        <ele>465</ele>
        <time>2023-04-10T06:53:59Z</time>
      </trkpt>
      <trkpt lat="45.43921" lon="5.62223">
        <ele>465</ele>
        <time>2023-04-10T06:54:00Z</time>
      </trkpt>
      <trkpt lat="45.4392" lon="5.62225">
        <ele>466</ele>
        <time>2023-04-10T06:54:01Z</time>
      </trkpt>
      <trkpt lat="45.43918" lon="5.62228">
        <ele>467</ele>
        <time>2023-04-10T06:54:02Z</time>
      </trkpt>
      <trkpt lat="45.43917" lon="5.6223">
        <ele>467</ele>
        <time>2023-04-10T06:54:03Z</time>
      </trkpt>
      <trkpt lat="45.43915" lon="5.62232">
        <ele>467</ele>
        <time>2023-04-10T06:54:04Z</time>
      </trkpt>
      <trkpt lat="45.43914" lon="5.62234">
        <ele>468</ele>
        <time>2023-04-10T06:54:05Z</time>
      </trkpt>
      <trkpt lat="45.43913" lon="5.62237">
        <ele>468</ele>
        <time>2023-04-10T06:54:06Z</time>
      </trkpt>
      <trkpt lat="45.43911" lon="5.62239">
        <ele>468</ele>
        <time>2023-04-10T06:54:07Z</time>
      </trkpt>
      <trkpt lat="45.4391" lon="5.62242">
        <ele>468</ele>
        <time>2023-04-10T06:54:08Z</time>
      </trkpt>
      <trkpt lat="45.43908" lon="5.62244">
        <ele>468</ele>
        <time>2023-04-10T06:54:09Z</time>
      </trkpt>
      <trkpt lat="45.43907" lon="5.62246">
        <ele>468</ele>
        <time>2023-04-10T06:54:10Z</time>
      </trkpt>
      <trkpt lat="45.43905" lon="5.62248">
        <ele>469</ele>
        <time>2023-04-10T06:54:11Z</time>
      </trkpt>
      <trkpt lat="45.43904" lon="5.62251">
        <ele>469</ele>
        <time>2023-04-10T06:54:12Z</time>
      </trkpt>
      <trkpt lat="45.43901" lon="5.62255">
        <ele>469</ele>
        <time>2023-04-10T06:54:13Z</time>
      </trkpt>
      <trkpt lat="45.43899" lon="5.62257">
        <ele>469</ele>
        <time>2023-04-10T06:54:15Z</time>
      </trkpt>
      <trkpt lat="45.43898" lon="5.6226">
        <ele>470</ele>
        <time>2023-04-10T06:54:16Z</time>
      </trkpt>
      <trkpt lat="45.43896" lon="5.62262">
        <ele>470</ele>
        <time>2023-04-10T06:54:17Z</time>
      </trkpt>
      <trkpt lat="45.43894" lon="5.62265">
        <ele>471</ele>
        <time>2023-04-10T06:54:18Z</time>
      </trkpt>
      <trkpt lat="45.43893" lon="5.62267">
        <ele>471</ele>
        <time>2023-04-10T06:54:19Z</time>
      </trkpt>
      <trkpt lat="45.43891" lon="5.62269">
        <ele>471</ele>
        <time>2023-04-10T06:54:20Z</time>
      </trkpt>
      <trkpt lat="45.4389" lon="5.62271">
        <ele>471</ele>
        <time>2023-04-10T06:54:21Z</time>
      </trkpt>
      <trkpt lat="45.43888" lon="5.62274">
        <ele>472</ele>
        <time>2023-04-10T06:54:22Z</time>
      </trkpt>
      <trkpt lat="45.43887" lon="5.62276">
        <ele>472</ele>
        <time>2023-04-10T06:54:23Z</time>
      </trkpt>
      <trkpt lat="45.43886" lon="5.62278">
        <ele>472</ele>
        <time>2023-04-10T06:54:24Z</time>
      </trkpt>
      <trkpt lat="45.43885" lon="5.62281">
        <ele>472</ele>
        <time>2023-04-10T06:54:25Z</time>
      </trkpt>
      <trkpt lat="45.43884" lon="5.62284">
        <ele>473</ele>
        <time>2023-04-10T06:54:26Z</time>
      </trkpt>
      <trkpt lat="45.43884" lon="5.62287">
        <ele>474</ele>
        <time>2023-04-10T06:54:27Z</time>
      </trkpt>
      <trkpt lat="45.43884" lon="5.62289">
        <ele>474</ele>
        <time>2023-04-10T06:54:28Z</time>
      </trkpt>
      <trkpt lat="45.43884" lon="5.62292">
        <ele>474</ele>
        <time>2023-04-10T06:54:29Z</time>
      </trkpt>
      <trkpt lat="45.43885" lon="5.62295">
        <ele>474</ele>
        <time>2023-04-10T06:54:30Z</time>
      </trkpt>
      <trkpt lat="45.43886" lon="5.62299">
        <ele>474</ele>
        <time>2023-04-10T06:54:31Z</time>
      </trkpt>
      <trkpt lat="45.43887" lon="5.62303">
        <ele>475</ele>
        <time>2023-04-10T06:54:32Z</time>
      </trkpt>
      <trkpt lat="45.43888" lon="5.62306">
        <ele>475</ele>
        <time>2023-04-10T06:54:33Z</time>
      </trkpt>
      <trkpt lat="45.4389" lon="5.6231">
        <ele>475</ele>
        <time>2023-04-10T06:54:34Z</time>
      </trkpt>
      <trkpt lat="45.43892" lon="5.62314">
        <ele>475</ele>
        <time>2023-04-10T06:54:35Z</time>
      </trkpt>
      <trkpt lat="45.43894" lon="5.62317">
        <ele>475</ele>
        <time>2023-04-10T06:54:36Z</time>
      </trkpt>
      <trkpt lat="45.43896" lon="5.62321">
        <ele>475</ele>
        <time>2023-04-10T06:54:37Z</time>
      </trkpt>
      <trkpt lat="45.43898" lon="5.62324">
        <ele>475</ele>
        <time>2023-04-10T06:54:38Z</time>
      </trkpt>
      <trkpt lat="45.439" lon="5.62327">
        <ele>475</ele>
        <time>2023-04-10T06:54:39Z</time>
      </trkpt>
      <trkpt lat="45.43902" lon="5.6233">
        <ele>475</ele>
        <time>2023-04-10T06:54:40Z</time>
      </trkpt>
      <trkpt lat="45.43904" lon="5.62334">
        <ele>475</ele>
        <time>2023-04-10T06:54:41Z</time>
      </trkpt>
      <trkpt lat="45.43906" lon="5.62338">
        <ele>476</ele>
        <time>2023-04-10T06:54:42Z</time>
      </trkpt>
      <trkpt lat="45.43908" lon="5.62341">
        <ele>476</ele>
        <time>2023-04-10T06:54:43Z</time>
      </trkpt>
      <trkpt lat="45.43911" lon="5.62345">
        <ele>476</ele>
        <time>2023-04-10T06:54:44Z</time>
      </trkpt>
      <trkpt lat="45.43913" lon="5.6235">
        <ele>476</ele>
        <time>2023-04-10T06:54:45Z</time>
      </trkpt>
      <trkpt lat="45.43915" lon="5.62354">
        <ele>476</ele>
        <time>2023-04-10T06:54:46Z</time>
      </trkpt>
      <trkpt lat="45.43918" lon="5.62359">
        <ele>476</ele>
        <time>2023-04-10T06:54:47Z</time>
      </trkpt>
      <trkpt lat="45.4392" lon="5.62364">
        <ele>476</ele>
        <time>2023-04-10T06:54:48Z</time>
      </trkpt>
      <trkpt lat="45.43923" lon="5.62369">
        <ele>476</ele>
        <time>2023-04-10T06:54:49Z</time>
      </trkpt>
      <trkpt lat="45.43926" lon="5.62374">
        <ele>476</ele>
        <time>2023-04-10T06:54:50Z</time>
      </trkpt>
      <trkpt lat="45.43931" lon="5.62384">
        <ele>477</ele>
        <time>2023-04-10T06:54:51Z</time>
      </trkpt>
      <trkpt lat="45.43933" lon="5.6239">
        <ele>476</ele>
        <time>2023-04-10T06:54:53Z</time>
      </trkpt>
      <trkpt lat="45.43936" lon="5.62395">
        <ele>477</ele>
        <time>2023-04-10T06:54:54Z</time>
      </trkpt>
      <trkpt lat="45.43939" lon="5.62401">
        <ele>477</ele>
        <time>2023-04-10T06:54:55Z</time>
      </trkpt>
      <trkpt lat="45.43941" lon="5.62406">
        <ele>477</ele>
        <time>2023-04-10T06:54:56Z</time>
      </trkpt>
      <trkpt lat="45.43944" lon="5.62412">
        <ele>477</ele>
        <time>2023-04-10T06:54:57Z</time>
      </trkpt>
      <trkpt lat="45.43946" lon="5.62419">
        <ele>477</ele>
        <time>2023-04-10T06:54:58Z</time>
      </trkpt>
      <trkpt lat="45.43948" lon="5.62426">
        <ele>477</ele>
        <time>2023-04-10T06:54:59Z</time>
      </trkpt>
      <trkpt lat="45.43951" lon="5.62433">
        <ele>477</ele>
        <time>2023-04-10T06:55:00Z</time>
      </trkpt>
      <trkpt lat="45.43953" lon="5.62441">
        <ele>477</ele>
        <time>2023-04-10T06:55:01Z</time>
      </trkpt>
      <trkpt lat="45.43955" lon="5.62449">
        <ele>477</ele>
        <time>2023-04-10T06:55:02Z</time>
      </trkpt>
      <trkpt lat="45.43957" lon="5.62457">
        <ele>477</ele>
        <time>2023-04-10T06:55:03Z</time>
      </trkpt>
      <trkpt lat="45.43958" lon="5.62466">
        <ele>477</ele>
        <time>2023-04-10T06:55:04Z</time>
      </trkpt>
      <trkpt lat="45.4396" lon="5.62475">
        <ele>476</ele>
        <time>2023-04-10T06:55:05Z</time>
      </trkpt>
      <trkpt lat="45.43961" lon="5.62484">
        <ele>475</ele>
        <time>2023-04-10T06:55:06Z</time>
      </trkpt>
      <trkpt lat="45.43962" lon="5.62493">
        <ele>475</ele>
        <time>2023-04-10T06:55:07Z</time>
      </trkpt>
      <trkpt lat="45.43964" lon="5.62502">
        <ele>475</ele>
        <time>2023-04-10T06:55:08Z</time>
      </trkpt>
      <trkpt lat="45.43965" lon="5.62511">
        <ele>475</ele>
        <time>2023-04-10T06:55:09Z</time>
      </trkpt>
      <trkpt lat="45.43967" lon="5.62528">
        <ele>475</ele>
        <time>2023-04-10T06:55:10Z</time>
      </trkpt>
      <trkpt lat="45.43968" lon="5.62537">
        <ele>475</ele>
        <time>2023-04-10T06:55:12Z</time>
      </trkpt>
      <trkpt lat="45.4397" lon="5.62546">
        <ele>475</ele>
        <time>2023-04-10T06:55:13Z</time>
      </trkpt>
      <trkpt lat="45.43971" lon="5.62555">
        <ele>475</ele>
        <time>2023-04-10T06:55:14Z</time>
      </trkpt>
      <trkpt lat="45.43972" lon="5.62563">
        <ele>474</ele>
        <time>2023-04-10T06:55:15Z</time>
      </trkpt>
      <trkpt lat="45.43973" lon="5.62572">
        <ele>473</ele>
        <time>2023-04-10T06:55:16Z</time>
      </trkpt>
      <trkpt lat="45.43974" lon="5.6258">
        <ele>474</ele>
        <time>2023-04-10T06:55:17Z</time>
      </trkpt>
      <trkpt lat="45.43975" lon="5.62589">
        <ele>475</ele>
        <time>2023-04-10T06:55:18Z</time>
      </trkpt>
      <trkpt lat="45.43976" lon="5.62597">
        <ele>475</ele>
        <time>2023-04-10T06:55:19Z</time>
      </trkpt>
      <trkpt lat="45.43976" lon="5.62605">
        <ele>475</ele>
        <time>2023-04-10T06:55:20Z</time>
      </trkpt>
      <trkpt lat="45.43977" lon="5.62613">
        <ele>475</ele>
        <time>2023-04-10T06:55:21Z</time>
      </trkpt>
      <trkpt lat="45.43978" lon="5.6262">
        <ele>475</ele>
        <time>2023-04-10T06:55:22Z</time>
      </trkpt>
      <trkpt lat="45.43979" lon="5.62628">
        <ele>475</ele>
        <time>2023-04-10T06:55:23Z</time>
      </trkpt>
      <trkpt lat="45.4398" lon="5.62635">
        <ele>475</ele>
        <time>2023-04-10T06:55:24Z</time>
      </trkpt>
      <trkpt lat="45.43981" lon="5.62642">
        <ele>474</ele>
        <time>2023-04-10T06:55:25Z</time>
      </trkpt>
      <trkpt lat="45.43982" lon="5.62648">
        <ele>475</ele>
        <time>2023-04-10T06:55:26Z</time>
      </trkpt>
      <trkpt lat="45.43984" lon="5.62655">
        <ele>475</ele>
        <time>2023-04-10T06:55:27Z</time>
      </trkpt>
      <trkpt lat="45.43985" lon="5.62661">
        <ele>475</ele>
        <time>2023-04-10T06:55:28Z</time>
      </trkpt>
      <trkpt lat="45.43988" lon="5.62679">
        <ele>475</ele>
        <time>2023-04-10T06:55:29Z</time>
      </trkpt>
      <trkpt lat="45.4399" lon="5.62691">
        <ele>475</ele>
        <time>2023-04-10T06:55:31Z</time>
      </trkpt>
      <trkpt lat="45.43991" lon="5.62703">
        <ele>474</ele>
        <time>2023-04-10T06:55:32Z</time>
      </trkpt>
      <trkpt lat="45.43993" lon="5.62715">
        <ele>474</ele>
        <time>2023-04-10T06:55:33Z</time>
      </trkpt>
      <trkpt lat="45.43997" lon="5.62742">
        <ele>473</ele>
        <time>2023-04-10T06:55:34Z</time>
      </trkpt>
      <trkpt lat="45.44" lon="5.62757">
        <ele>473</ele>
        <time>2023-04-10T06:55:36Z</time>
      </trkpt>
      <trkpt lat="45.44003" lon="5.62771">
        <ele>472</ele>
        <time>2023-04-10T06:55:37Z</time>
      </trkpt>
      <trkpt lat="45.44005" lon="5.62786">
        <ele>470</ele>
        <time>2023-04-10T06:55:38Z</time>
      </trkpt>
      <trkpt lat="45.44008" lon="5.62801">
        <ele>469</ele>
        <time>2023-04-10T06:55:39Z</time>
      </trkpt>
      <trkpt lat="45.44011" lon="5.62815">
        <ele>469</ele>
        <time>2023-04-10T06:55:40Z</time>
      </trkpt>
      <trkpt lat="45.44013" lon="5.62829">
        <ele>469</ele>
        <time>2023-04-10T06:55:41Z</time>
      </trkpt>
      <trkpt lat="45.44016" lon="5.62843">
        <ele>469</ele>
        <time>2023-04-10T06:55:42Z</time>
      </trkpt>
      <trkpt lat="45.44019" lon="5.62856">
        <ele>468</ele>
        <time>2023-04-10T06:55:43Z</time>
      </trkpt>
      <trkpt lat="45.44021" lon="5.62868">
        <ele>468</ele>
        <time>2023-04-10T06:55:44Z</time>
      </trkpt>
      <trkpt lat="45.44024" lon="5.62881">
        <ele>468</ele>
        <time>2023-04-10T06:55:45Z</time>
      </trkpt>
      <trkpt lat="45.44027" lon="5.62893">
        <ele>467</ele>
        <time>2023-04-10T06:55:46Z</time>
      </trkpt>
      <trkpt lat="45.4403" lon="5.62905">
        <ele>467</ele>
        <time>2023-04-10T06:55:47Z</time>
      </trkpt>
      <trkpt lat="45.44037" lon="5.62927">
        <ele>467</ele>
        <time>2023-04-10T06:55:48Z</time>
      </trkpt>
      <trkpt lat="45.4404" lon="5.62938">
        <ele>467</ele>
        <time>2023-04-10T06:55:50Z</time>
      </trkpt>
      <trkpt lat="45.44045" lon="5.62948">
        <ele>467</ele>
        <time>2023-04-10T06:55:51Z</time>
      </trkpt>
      <trkpt lat="45.44048" lon="5.62957">
        <ele>467</ele>
        <time>2023-04-10T06:55:52Z</time>
      </trkpt>
      <trkpt lat="45.44052" lon="5.62966">
        <ele>467</ele>
        <time>2023-04-10T06:55:53Z</time>
      </trkpt>
      <trkpt lat="45.44056" lon="5.62974">
        <ele>467</ele>
        <time>2023-04-10T06:55:54Z</time>
      </trkpt>
      <trkpt lat="45.4406" lon="5.62982">
        <ele>467</ele>
        <time>2023-04-10T06:55:55Z</time>
      </trkpt>
      <trkpt lat="45.44064" lon="5.62989">
        <ele>468</ele>
        <time>2023-04-10T06:55:56Z</time>
      </trkpt>
      <trkpt lat="45.44067" lon="5.62995">
        <ele>468</ele>
        <time>2023-04-10T06:55:57Z</time>
      </trkpt>
      <trkpt lat="45.4407" lon="5.63001">
        <ele>468</ele>
        <time>2023-04-10T06:55:58Z</time>
      </trkpt>
      <trkpt lat="45.44072" lon="5.63006">
        <ele>469</ele>
        <time>2023-04-10T06:55:59Z</time>
      </trkpt>
      <trkpt lat="45.44074" lon="5.63011">
        <ele>469</ele>
        <time>2023-04-10T06:56:00Z</time>
      </trkpt>
      <trkpt lat="45.44076" lon="5.63015">
        <ele>469</ele>
        <time>2023-04-10T06:56:01Z</time>
      </trkpt>
      <trkpt lat="45.44079" lon="5.6302">
        <ele>470</ele>
        <time>2023-04-10T06:56:02Z</time>
      </trkpt>
      <trkpt lat="45.44081" lon="5.63024">
        <ele>471</ele>
        <time>2023-04-10T06:56:03Z</time>
      </trkpt>
      <trkpt lat="45.44083" lon="5.63028">
        <ele>471</ele>
        <time>2023-04-10T06:56:04Z</time>
      </trkpt>
      <trkpt lat="45.44084" lon="5.63033">
        <ele>472</ele>
        <time>2023-04-10T06:56:05Z</time>
      </trkpt>
      <trkpt lat="45.44086" lon="5.63037">
        <ele>472</ele>
        <time>2023-04-10T06:56:06Z</time>
      </trkpt>
      <trkpt lat="45.44088" lon="5.63041">
        <ele>472</ele>
        <time>2023-04-10T06:56:07Z</time>
      </trkpt>
      <trkpt lat="45.4409" lon="5.63046">
        <ele>473</ele>
        <time>2023-04-10T06:56:08Z</time>
      </trkpt>
      <trkpt lat="45.44092" lon="5.6305">
        <ele>474</ele>
        <time>2023-04-10T06:56:09Z</time>
      </trkpt>
      <trkpt lat="45.44094" lon="5.63054">
        <ele>474</ele>
        <time>2023-04-10T06:56:10Z</time>
      </trkpt>
      <trkpt lat="45.44097" lon="5.63059">
        <ele>474</ele>
        <time>2023-04-10T06:56:11Z</time>
      </trkpt>
      <trkpt lat="45.44099" lon="5.63064">
        <ele>475</ele>
        <time>2023-04-10T06:56:12Z</time>
      </trkpt>
      <trkpt lat="45.44102" lon="5.63068">
        <ele>475</ele>
        <time>2023-04-10T06:56:13Z</time>
      </trkpt>
      <trkpt lat="45.44105" lon="5.63074">
        <ele>475</ele>
        <time>2023-04-10T06:56:14Z</time>
      </trkpt>
      <trkpt lat="45.44108" lon="5.63079">
        <ele>475</ele>
        <time>2023-04-10T06:56:15Z</time>
      </trkpt>
      <trkpt lat="45.44111" lon="5.63084">
        <ele>475</ele>
        <time>2023-04-10T06:56:16Z</time>
      </trkpt>
      <trkpt lat="45.44115" lon="5.6309">
        <ele>475</ele>
        <time>2023-04-10T06:56:17Z</time>
      </trkpt>
      <trkpt lat="45.44118" lon="5.63095">
        <ele>475</ele>
        <time>2023-04-10T06:56:18Z</time>
      </trkpt>
      <trkpt lat="45.44121" lon="5.63101">
        <ele>475</ele>
        <time>2023-04-10T06:56:19Z</time>
      </trkpt>
      <trkpt lat="45.44125" lon="5.63107">
        <ele>475</ele>
        <time>2023-04-10T06:56:20Z</time>
      </trkpt>
      <trkpt lat="45.44128" lon="5.63113">
        <ele>475</ele>
        <time>2023-04-10T06:56:21Z</time>
      </trkpt>
      <trkpt lat="45.44131" lon="5.63118">
        <ele>475</ele>
        <time>2023-04-10T06:56:22Z</time>
      </trkpt>
      <trkpt lat="45.44135" lon="5.63124">
        <ele>475</ele>
        <time>2023-04-10T06:56:23Z</time>
      </trkpt>
      <trkpt lat="45.44138" lon="5.6313">
        <ele>475</ele>
        <time>2023-04-10T06:56:24Z</time>
      </trkpt>
      <trkpt lat="45.44142" lon="5.63136">
        <ele>475</ele>
        <time>2023-04-10T06:56:25Z</time>
      </trkpt>
      <trkpt lat="45.44149" lon="5.63149">
        <ele>475</ele>
        <time>2023-04-10T06:56:26Z</time>
      </trkpt>
      <trkpt lat="45.44153" lon="5.63155">
        <ele>476</ele>
        <time>2023-04-10T06:56:28Z</time>
      </trkpt>
      <trkpt lat="45.44156" lon="5.63161">
        <ele>476</ele>
        <time>2023-04-10T06:56:29Z</time>
      </trkpt>
      <trkpt lat="45.4416" lon="5.63167">
        <ele>476</ele>
        <time>2023-04-10T06:56:30Z</time>
      </trkpt>
      <trkpt lat="45.44164" lon="5.63173">
        <ele>476</ele>
        <time>2023-04-10T06:56:31Z</time>
      </trkpt>
      <trkpt lat="45.44168" lon="5.6318">
        <ele>476</ele>
        <time>2023-04-10T06:56:32Z</time>
      </trkpt>
      <trkpt lat="45.44172" lon="5.63186">
        <ele>476</ele>
        <time>2023-04-10T06:56:33Z</time>
      </trkpt>
      <trkpt lat="45.44175" lon="5.63192">
        <ele>476</ele>
        <time>2023-04-10T06:56:34Z</time>
      </trkpt>
      <trkpt lat="45.44179" lon="5.63198">
        <ele>476</ele>
        <time>2023-04-10T06:56:35Z</time>
      </trkpt>
      <trkpt lat="45.44183" lon="5.63204">
        <ele>475</ele>
        <time>2023-04-10T06:56:36Z</time>
      </trkpt>
      <trkpt lat="45.44187" lon="5.6321">
        <ele>475</ele>
        <time>2023-04-10T06:56:37Z</time>
      </trkpt>
      <trkpt lat="45.4419" lon="5.63216">
        <ele>475</ele>
        <time>2023-04-10T06:56:38Z</time>
      </trkpt>
      <trkpt lat="45.44194" lon="5.63222">
        <ele>475</ele>
        <time>2023-04-10T06:56:39Z</time>
      </trkpt>
      <trkpt lat="45.44197" lon="5.63228">
        <ele>476</ele>
        <time>2023-04-10T06:56:40Z</time>
      </trkpt>
      <trkpt lat="45.44201" lon="5.63234">
        <ele>476</ele>
        <time>2023-04-10T06:56:41Z</time>
      </trkpt>
      <trkpt lat="45.44204" lon="5.63239">
        <ele>476</ele>
        <time>2023-04-10T06:56:42Z</time>
      </trkpt>
      <trkpt lat="45.44207" lon="5.63244">
        <ele>476</ele>
        <time>2023-04-10T06:56:43Z</time>
      </trkpt>
      <trkpt lat="45.4421" lon="5.6325">
        <ele>476</ele>
        <time>2023-04-10T06:56:44Z</time>
      </trkpt>
      <trkpt lat="45.44217" lon="5.63259">
        <ele>476</ele>
        <time>2023-04-10T06:56:45Z</time>
      </trkpt>
      <trkpt lat="45.4422" lon="5.63264">
        <ele>477</ele>
        <time>2023-04-10T06:56:47Z</time>
      </trkpt>
      <trkpt lat="45.44224" lon="5.6327">
        <ele>477</ele>
        <time>2023-04-10T06:56:48Z</time>
      </trkpt>
      <trkpt lat="45.44227" lon="5.63275">
        <ele>477</ele>
        <time>2023-04-10T06:56:49Z</time>
      </trkpt>
      <trkpt lat="45.4423" lon="5.63281">
        <ele>477</ele>
        <time>2023-04-10T06:56:50Z</time>
      </trkpt>
      <trkpt lat="45.44233" lon="5.63287">
        <ele>477</ele>
        <time>2023-04-10T06:56:51Z</time>
      </trkpt>
      <trkpt lat="45.44237" lon="5.63293">
        <ele>477</ele>
        <time>2023-04-10T06:56:52Z</time>
      </trkpt>
      <trkpt lat="45.44239" lon="5.633">
        <ele>477</ele>
        <time>2023-04-10T06:56:53Z</time>
      </trkpt>
      <trkpt lat="45.44242" lon="5.63307">
        <ele>477</ele>
        <time>2023-04-10T06:56:54Z</time>
      </trkpt>
      <trkpt lat="45.44244" lon="5.63313">
        <ele>477</ele>
        <time>2023-04-10T06:56:55Z</time>
      </trkpt>
      <trkpt lat="45.44247" lon="5.6332">
        <ele>477</ele>
        <time>2023-04-10T06:56:56Z</time>
      </trkpt>
      <trkpt lat="45.44249" lon="5.63327">
        <ele>477</ele>
        <time>2023-04-10T06:56:57Z</time>
      </trkpt>
      <trkpt lat="45.44252" lon="5.63334">
        <ele>477</ele>
        <time>2023-04-10T06:56:58Z</time>
      </trkpt>
      <trkpt lat="45.44255" lon="5.63341">
        <ele>477</ele>
        <time>2023-04-10T06:56:59Z</time>
      </trkpt>
      <trkpt lat="45.44258" lon="5.63348">
        <ele>477</ele>
        <time>2023-04-10T06:57:00Z</time>
      </trkpt>
      <trkpt lat="45.4426" lon="5.63355">
        <ele>477</ele>
        <time>2023-04-10T06:57:01Z</time>
      </trkpt>
      <trkpt lat="45.44262" lon="5.63362">
        <ele>477</ele>
        <time>2023-04-10T06:57:02Z</time>
      </trkpt>
      <trkpt lat="45.44264" lon="5.6337">
        <ele>477</ele>
        <time>2023-04-10T06:57:03Z</time>
      </trkpt>
      <trkpt lat="45.44267" lon="5.63385">
        <ele>477</ele>
        <time>2023-04-10T06:57:04Z</time>
      </trkpt>
      <trkpt lat="45.44269" lon="5.63393">
        <ele>477</ele>
        <time>2023-04-10T06:57:06Z</time>
      </trkpt>
      <trkpt lat="45.44271" lon="5.634">
        <ele>477</ele>
        <time>2023-04-10T06:57:07Z</time>
      </trkpt>
      <trkpt lat="45.44273" lon="5.63408">
        <ele>477</ele>
        <time>2023-04-10T06:57:08Z</time>
      </trkpt>
      <trkpt lat="45.44275" lon="5.63415">
        <ele>477</ele>
        <time>2023-04-10T06:57:09Z</time>
      </trkpt>
      <trkpt lat="45.44277" lon="5.63422">
        <ele>477</ele>
        <time>2023-04-10T06:57:10Z</time>
      </trkpt>
      <trkpt lat="45.44279" lon="5.63429">
        <ele>477</ele>
        <time>2023-04-10T06:57:11Z</time>
      </trkpt>
      <trkpt lat="45.44281" lon="5.63437">
        <ele>477</ele>
        <time>2023-04-10T06:57:12Z</time>
      </trkpt>
      <trkpt lat="45.44282" lon="5.63444">
        <ele>477</ele>
        <time>2023-04-10T06:57:13Z</time>
      </trkpt>
      <trkpt lat="45.44286" lon="5.63459">
        <ele>477</ele>
        <time>2023-04-10T06:57:14Z</time>
      </trkpt>
      <trkpt lat="45.44287" lon="5.63466">
        <ele>478</ele>
        <time>2023-04-10T06:57:16Z</time>
      </trkpt>
      <trkpt lat="45.44288" lon="5.63474">
        <ele>478</ele>
        <time>2023-04-10T06:57:17Z</time>
      </trkpt>
      <trkpt lat="45.44289" lon="5.63481">
        <ele>478</ele>
        <time>2023-04-10T06:57:18Z</time>
      </trkpt>
      <trkpt lat="45.4429" lon="5.63488">
        <ele>478</ele>
        <time>2023-04-10T06:57:19Z</time>
      </trkpt>
      <trkpt lat="45.44292" lon="5.63495">
        <ele>478</ele>
        <time>2023-04-10T06:57:20Z</time>
      </trkpt>
      <trkpt lat="45.44292" lon="5.63502">
        <ele>479</ele>
        <time>2023-04-10T06:57:21Z</time>
      </trkpt>
      <trkpt lat="45.44293" lon="5.63508">
        <ele>479</ele>
        <time>2023-04-10T06:57:22Z</time>
      </trkpt>
      <trkpt lat="45.44295" lon="5.63521">
        <ele>479</ele>
        <time>2023-04-10T06:57:23Z</time>
      </trkpt>
      <trkpt lat="45.44296" lon="5.63528">
        <ele>479</ele>
        <time>2023-04-10T06:57:25Z</time>
      </trkpt>
      <trkpt lat="45.44298" lon="5.63536">
        <ele>479</ele>
        <time>2023-04-10T06:57:26Z</time>
      </trkpt>
      <trkpt lat="45.44299" lon="5.63544">
        <ele>479</ele>
        <time>2023-04-10T06:57:27Z</time>
      </trkpt>
      <trkpt lat="45.443" lon="5.63553">
        <ele>479</ele>
        <time>2023-04-10T06:57:28Z</time>
      </trkpt>
      <trkpt lat="45.44302" lon="5.63562">
        <ele>479</ele>
        <time>2023-04-10T06:57:29Z</time>
      </trkpt>
      <trkpt lat="45.44303" lon="5.63571">
        <ele>479</ele>
        <time>2023-04-10T06:57:30Z</time>
      </trkpt>
      <trkpt lat="45.44305" lon="5.6358">
        <ele>479</ele>
        <time>2023-04-10T06:57:31Z</time>
      </trkpt>
      <trkpt lat="45.44306" lon="5.6359">
        <ele>479</ele>
        <time>2023-04-10T06:57:32Z</time>
      </trkpt>
      <trkpt lat="45.44308" lon="5.63599">
        <ele>479</ele>
        <time>2023-04-10T06:57:33Z</time>
      </trkpt>
      <trkpt lat="45.44311" lon="5.63607">
        <ele>478</ele>
        <time>2023-04-10T06:57:34Z</time>
      </trkpt>
      <trkpt lat="45.44314" lon="5.63615">
        <ele>477</ele>
        <time>2023-04-10T06:57:35Z</time>
      </trkpt>
      <trkpt lat="45.44317" lon="5.63623">
        <ele>477</ele>
        <time>2023-04-10T06:57:36Z</time>
      </trkpt>
      <trkpt lat="45.44322" lon="5.63629">
        <ele>477</ele>
        <time>2023-04-10T06:57:37Z</time>
      </trkpt>
      <trkpt lat="45.44326" lon="5.63636">
        <ele>477</ele>
        <time>2023-04-10T06:57:38Z</time>
      </trkpt>
      <trkpt lat="45.44332" lon="5.63641">
        <ele>477</ele>
        <time>2023-04-10T06:57:39Z</time>
      </trkpt>
      <trkpt lat="45.44337" lon="5.63647">
        <ele>477</ele>
        <time>2023-04-10T06:57:40Z</time>
      </trkpt>
      <trkpt lat="45.44342" lon="5.63651">
        <ele>477</ele>
        <time>2023-04-10T06:57:41Z</time>
      </trkpt>
      <trkpt lat="45.44355" lon="5.63658">
        <ele>477</ele>
        <time>2023-04-10T06:57:42Z</time>
      </trkpt>
      <trkpt lat="45.44361" lon="5.63659">
        <ele>477</ele>
        <time>2023-04-10T06:57:44Z</time>
      </trkpt>
      <trkpt lat="45.44368" lon="5.63659">
        <ele>477</ele>
        <time>2023-04-10T06:57:45Z</time>
      </trkpt>
      <trkpt lat="45.44374" lon="5.63658">
        <ele>477</ele>
        <time>2023-04-10T06:57:46Z</time>
      </trkpt>
      <trkpt lat="45.44381" lon="5.63656">
        <ele>477</ele>
        <time>2023-04-10T06:57:47Z</time>
      </trkpt>
      <trkpt lat="45.44388" lon="5.63654">
        <ele>477</ele>
        <time>2023-04-10T06:57:48Z</time>
      </trkpt>
      <trkpt lat="45.44396" lon="5.63653">
        <ele>477</ele>
        <time>2023-04-10T06:57:49Z</time>
      </trkpt>
      <trkpt lat="45.44404" lon="5.63653">
        <ele>476</ele>
        <time>2023-04-10T06:57:50Z</time>
      </trkpt>
      <trkpt lat="45.44411" lon="5.63655">
        <ele>476</ele>
        <time>2023-04-10T06:57:51Z</time>
      </trkpt>
      <trkpt lat="45.44419" lon="5.63659">
        <ele>476</ele>
        <time>2023-04-10T06:57:52Z</time>
      </trkpt>
      <trkpt lat="45.44426" lon="5.63665">
        <ele>476</ele>
        <time>2023-04-10T06:57:53Z</time>
      </trkpt>
      <trkpt lat="45.44433" lon="5.63671">
        <ele>475</ele>
        <time>2023-04-10T06:57:54Z</time>
      </trkpt>
      <trkpt lat="45.44439" lon="5.63677">
        <ele>475</ele>
        <time>2023-04-10T06:57:55Z</time>
      </trkpt>
      <trkpt lat="45.44446" lon="5.63683">
        <ele>475</ele>
        <time>2023-04-10T06:57:56Z</time>
      </trkpt>
      <trkpt lat="45.44452" lon="5.63689">
        <ele>475</ele>
        <time>2023-04-10T06:57:57Z</time>
      </trkpt>
      <trkpt lat="45.44458" lon="5.63696">
        <ele>474</ele>
        <time>2023-04-10T06:57:58Z</time>
      </trkpt>
      <trkpt lat="45.44463" lon="5.63703">
        <ele>474</ele>
        <time>2023-04-10T06:57:59Z</time>
      </trkpt>
      <trkpt lat="45.44467" lon="5.6371">
        <ele>474</ele>
        <time>2023-04-10T06:58:00Z</time>
      </trkpt>
      <trkpt lat="45.44475" lon="5.63724">
        <ele>474</ele>
        <time>2023-04-10T06:58:01Z</time>
      </trkpt>
      <trkpt lat="45.44478" lon="5.63731">
        <ele>475</ele>
        <time>2023-04-10T06:58:03Z</time>
      </trkpt>
      <trkpt lat="45.44481" lon="5.63737">
        <ele>475</ele>
        <time>2023-04-10T06:58:04Z</time>
      </trkpt>
      <trkpt lat="45.44483" lon="5.63743">
        <ele>475</ele>
        <time>2023-04-10T06:58:05Z</time>
      </trkpt>
      <trkpt lat="45.44485" lon="5.63748">
        <ele>476</ele>
        <time>2023-04-10T06:58:06Z</time>
      </trkpt>
      <trkpt lat="45.44487" lon="5.63753">
        <ele>476</ele>
        <time>2023-04-10T06:58:07Z</time>
      </trkpt>
      <trkpt lat="45.4449" lon="5.63757">
        <ele>476</ele>
        <time>2023-04-10T06:58:08Z</time>
      </trkpt>
      <trkpt lat="45.44492" lon="5.63761">
        <ele>477</ele>
        <time>2023-04-10T06:58:09Z</time>
      </trkpt>
      <trkpt lat="45.44494" lon="5.63764">
        <ele>477</ele>
        <time>2023-04-10T06:58:10Z</time>
      </trkpt>
      <trkpt lat="45.44497" lon="5.63767">
        <ele>478</ele>
        <time>2023-04-10T06:58:11Z</time>
      </trkpt>
      <trkpt lat="45.445" lon="5.63769">
        <ele>478</ele>
        <time>2023-04-10T06:58:12Z</time>
      </trkpt>
      <trkpt lat="45.44503" lon="5.63772">
        <ele>479</ele>
        <time>2023-04-10T06:58:13Z</time>
      </trkpt>
      <trkpt lat="45.44505" lon="5.63775">
        <ele>479</ele>
        <time>2023-04-10T06:58:14Z</time>
      </trkpt>
      <trkpt lat="45.44508" lon="5.63778">
        <ele>479</ele>
        <time>2023-04-10T06:58:15Z</time>
      </trkpt>
      <trkpt lat="45.44511" lon="5.63781">
        <ele>479</ele>
        <time>2023-04-10T06:58:16Z</time>
      </trkpt>
      <trkpt lat="45.44514" lon="5.63784">
        <ele>479</ele>
        <time>2023-04-10T06:58:17Z</time>
      </trkpt>
      <trkpt lat="45.44517" lon="5.63787">
        <ele>480</ele>
        <time>2023-04-10T06:58:18Z</time>
      </trkpt>
      <trkpt lat="45.44521" lon="5.63791">
        <ele>480</ele>
        <time>2023-04-10T06:58:19Z</time>
      </trkpt>
      <trkpt lat="45.4453" lon="5.63798">
        <ele>480</ele>
        <time>2023-04-10T06:58:20Z</time>
      </trkpt>
      <trkpt lat="45.44534" lon="5.63802">
        <ele>480</ele>
        <time>2023-04-10T06:58:22Z</time>
      </trkpt>
      <trkpt lat="45.44539" lon="5.63806">
        <ele>480</ele>
        <time>2023-04-10T06:58:23Z</time>
      </trkpt>
      <trkpt lat="45.44543" lon="5.6381">
        <ele>480</ele>
        <time>2023-04-10T06:58:24Z</time>
      </trkpt>
      <trkpt lat="45.44547" lon="5.63815">
        <ele>480</ele>
        <time>2023-04-10T06:58:25Z</time>
      </trkpt>
      <trkpt lat="45.44551" lon="5.6382">
        <ele>480</ele>
        <time>2023-04-10T06:58:26Z</time>
      </trkpt>
      <trkpt lat="45.44554" lon="5.63825">
        <ele>480</ele>
        <time>2023-04-10T06:58:27Z</time>
      </trkpt>
      <trkpt lat="45.44557" lon="5.6383">
        <ele>480</ele>
        <time>2023-04-10T06:58:28Z</time>
      </trkpt>
      <trkpt lat="45.44561" lon="5.63835">
        <ele>480</ele>
        <time>2023-04-10T06:58:29Z</time>
      </trkpt>
      <trkpt lat="45.44564" lon="5.6384">
        <ele>481</ele>
        <time>2023-04-10T06:58:30Z</time>
      </trkpt>
      <trkpt lat="45.44568" lon="5.63845">
        <ele>481</ele>
        <time>2023-04-10T06:58:31Z</time>
      </trkpt>
      <trkpt lat="45.44571" lon="5.6385">
        <ele>481</ele>
        <time>2023-04-10T06:58:32Z</time>
      </trkpt>
      <trkpt lat="45.44575" lon="5.63855">
        <ele>481</ele>
        <time>2023-04-10T06:58:33Z</time>
      </trkpt>
      <trkpt lat="45.44578" lon="5.6386">
        <ele>481</ele>
        <time>2023-04-10T06:58:34Z</time>
      </trkpt>
      <trkpt lat="45.44582" lon="5.63865">
        <ele>481</ele>
        <time>2023-04-10T06:58:35Z</time>
      </trkpt>
      <trkpt lat="45.44586" lon="5.6387">
        <ele>481</ele>
        <time>2023-04-10T06:58:36Z</time>
      </trkpt>
      <trkpt lat="45.44589" lon="5.63875">
        <ele>481</ele>
        <time>2023-04-10T06:58:37Z</time>
      </trkpt>
      <trkpt lat="45.44593" lon="5.63879">
        <ele>481</ele>
        <time>2023-04-10T06:58:38Z</time>
      </trkpt>
      <trkpt lat="45.44601" lon="5.63888">
        <ele>481</ele>
        <time>2023-04-10T06:58:39Z</time>
      </trkpt>
      <trkpt lat="45.44605" lon="5.63893">
        <ele>481</ele>
        <time>2023-04-10T06:58:41Z</time>
      </trkpt>
      <trkpt lat="45.4461" lon="5.63898">
        <ele>481</ele>
        <time>2023-04-10T06:58:42Z</time>
      </trkpt>
      <trkpt lat="45.44614" lon="5.63903">
        <ele>481</ele>
        <time>2023-04-10T06:58:43Z</time>
      </trkpt>
      <trkpt lat="45.44619" lon="5.63908">
        <ele>481</ele>
        <time>2023-04-10T06:58:44Z</time>
      </trkpt>
      <trkpt lat="45.44624" lon="5.63914">
        <ele>481</ele>
        <time>2023-04-10T06:58:45Z</time>
      </trkpt>
      <trkpt lat="45.44629" lon="5.6392">
        <ele>481</ele>
        <time>2023-04-10T06:58:46Z</time>
      </trkpt>
      <trkpt lat="45.44635" lon="5.63927">
        <ele>481</ele>
        <time>2023-04-10T06:58:47Z</time>
      </trkpt>
      <trkpt lat="45.44641" lon="5.63934">
        <ele>480</ele>
        <time>2023-04-10T06:58:48Z</time>
      </trkpt>
      <trkpt lat="45.44646" lon="5.63941">
        <ele>480</ele>
        <time>2023-04-10T06:58:49Z</time>
      </trkpt>
      <trkpt lat="45.44652" lon="5.63948">
        <ele>479</ele>
        <time>2023-04-10T06:58:50Z</time>
      </trkpt>
      <trkpt lat="45.44658" lon="5.63955">
        <ele>479</ele>
        <time>2023-04-10T06:58:51Z</time>
      </trkpt>
      <trkpt lat="45.44664" lon="5.63962">
        <ele>479</ele>
        <time>2023-04-10T06:58:52Z</time>
      </trkpt>
      <trkpt lat="45.4467" lon="5.63968">
        <ele>478</ele>
        <time>2023-04-10T06:58:53Z</time>
      </trkpt>
      <trkpt lat="45.44676" lon="5.63973">
        <ele>478</ele>
        <time>2023-04-10T06:58:54Z</time>
      </trkpt>
      <trkpt lat="45.44682" lon="5.63978">
        <ele>478</ele>
        <time>2023-04-10T06:58:55Z</time>
      </trkpt>
      <trkpt lat="45.44688" lon="5.63983">
        <ele>478</ele>
        <time>2023-04-10T06:58:56Z</time>
      </trkpt>
      <trkpt lat="45.44699" lon="5.63993">
        <ele>478</ele>
        <time>2023-04-10T06:58:57Z</time>
      </trkpt>
      <trkpt lat="45.44705" lon="5.63998">
        <ele>478</ele>
        <time>2023-04-10T06:58:58Z</time>
      </trkpt>
      <trkpt lat="45.44711" lon="5.64003">
        <ele>478</ele>
        <time>2023-04-10T06:59:00Z</time>
      </trkpt>
      <trkpt lat="45.44717" lon="5.64008">
        <ele>478</ele>
        <time>2023-04-10T06:59:01Z</time>
      </trkpt>
      <trkpt lat="45.44723" lon="5.64015">
        <ele>478</ele>
        <time>2023-04-10T06:59:02Z</time>
      </trkpt>
      <trkpt lat="45.44728" lon="5.64024">
        <ele>478</ele>
        <time>2023-04-10T06:59:03Z</time>
      </trkpt>
      <trkpt lat="45.44732" lon="5.64032">
        <ele>477</ele>
        <time>2023-04-10T06:59:04Z</time>
      </trkpt>
      <trkpt lat="45.44736" lon="5.64042">
        <ele>477</ele>
        <time>2023-04-10T06:59:05Z</time>
      </trkpt>
      <trkpt lat="45.4474" lon="5.64051">
        <ele>477</ele>
        <time>2023-04-10T06:59:06Z</time>
      </trkpt>
      <trkpt lat="45.44745" lon="5.6406">
        <ele>477</ele>
        <time>2023-04-10T06:59:07Z</time>
      </trkpt>
      <trkpt lat="45.4475" lon="5.64068">
        <ele>477</ele>
        <time>2023-04-10T06:59:08Z</time>
      </trkpt>
      <trkpt lat="45.44756" lon="5.64075">
        <ele>477</ele>
        <time>2023-04-10T06:59:09Z</time>
      </trkpt>
      <trkpt lat="45.44761" lon="5.64081">
        <ele>477</ele>
        <time>2023-04-10T06:59:10Z</time>
      </trkpt>
      <trkpt lat="45.44765" lon="5.64088">
        <ele>477</ele>
        <time>2023-04-10T06:59:11Z</time>
      </trkpt>
      <trkpt lat="45.44769" lon="5.64095">
        <ele>476</ele>
        <time>2023-04-10T06:59:12Z</time>
      </trkpt>
      <trkpt lat="45.44773" lon="5.64101">
        <ele>476</ele>
        <time>2023-04-10T06:59:13Z</time>
      </trkpt>
      <trkpt lat="45.44776" lon="5.64108">
        <ele>477</ele>
        <time>2023-04-10T06:59:14Z</time>
      </trkpt>
      <trkpt lat="45.44783" lon="5.64122">
        <ele>477</ele>
        <time>2023-04-10T06:59:15Z</time>
      </trkpt>
      <trkpt lat="45.44791" lon="5.64136">
        <ele>477</ele>
        <time>2023-04-10T06:59:17Z</time>
      </trkpt>
      <trkpt lat="45.44795" lon="5.64143">
        <ele>477</ele>
        <time>2023-04-10T06:59:19Z</time>
      </trkpt>
      <trkpt lat="45.44799" lon="5.6415">
        <ele>477</ele>
        <time>2023-04-10T06:59:20Z</time>
      </trkpt>
      <trkpt lat="45.44803" lon="5.64156">
        <ele>477</ele>
        <time>2023-04-10T06:59:21Z</time>
      </trkpt>
      <trkpt lat="45.44807" lon="5.64161">
        <ele>477</ele>
        <time>2023-04-10T06:59:22Z</time>
      </trkpt>
      <trkpt lat="45.44811" lon="5.64167">
        <ele>477</ele>
        <time>2023-04-10T06:59:23Z</time>
      </trkpt>
      <trkpt lat="45.44815" lon="5.64173">
        <ele>477</ele>
        <time>2023-04-10T06:59:24Z</time>
      </trkpt>
      <trkpt lat="45.44818" lon="5.64179">
        <ele>477</ele>
        <time>2023-04-10T06:59:25Z</time>
      </trkpt>
      <trkpt lat="45.44821" lon="5.64186">
        <ele>477</ele>
        <time>2023-04-10T06:59:26Z</time>
      </trkpt>
      <trkpt lat="45.44824" lon="5.64194">
        <ele>477</ele>
        <time>2023-04-10T06:59:27Z</time>
      </trkpt>
      <trkpt lat="45.44825" lon="5.64203">
        <ele>477</ele>
        <time>2023-04-10T06:59:28Z</time>
      </trkpt>
      <trkpt lat="45.44826" lon="5.64213">
        <ele>477</ele>
        <time>2023-04-10T06:59:29Z</time>
      </trkpt>
      <trkpt lat="45.44826" lon="5.64224">
        <ele>477</ele>
        <time>2023-04-10T06:59:30Z</time>
      </trkpt>
      <trkpt lat="45.44827" lon="5.64235">
        <ele>477</ele>
        <time>2023-04-10T06:59:31Z</time>
      </trkpt>
      <trkpt lat="45.44827" lon="5.64246">
        <ele>477</ele>
        <time>2023-04-10T06:59:32Z</time>
      </trkpt>
      <trkpt lat="45.44827" lon="5.64257">
        <ele>476</ele>
        <time>2023-04-10T06:59:33Z</time>
      </trkpt>
      <trkpt lat="45.44828" lon="5.64268">
        <ele>475</ele>
        <time>2023-04-10T06:59:34Z</time>
      </trkpt>
      <trkpt lat="45.4483" lon="5.64278">
        <ele>475</ele>
        <time>2023-04-10T06:59:35Z</time>
      </trkpt>
      <trkpt lat="45.44835" lon="5.64295">
        <ele>475</ele>
        <time>2023-04-10T06:59:36Z</time>
      </trkpt>
      <trkpt lat="45.44838" lon="5.64302">
        <ele>475</ele>
        <time>2023-04-10T06:59:38Z</time>
      </trkpt>
      <trkpt lat="45.44841" lon="5.64308">
        <ele>476</ele>
        <time>2023-04-10T06:59:39Z</time>
      </trkpt>
      <trkpt lat="45.44842" lon="5.64313">
        <ele>477</ele>
        <time>2023-04-10T06:59:40Z</time>
      </trkpt>
      <trkpt lat="45.44844" lon="5.64318">
        <ele>477</ele>
        <time>2023-04-10T06:59:41Z</time>
      </trkpt>
      <trkpt lat="45.44846" lon="5.64323">
        <ele>477</ele>
        <time>2023-04-10T06:59:42Z</time>
      </trkpt>
      <trkpt lat="45.44847" lon="5.64328">
        <ele>478</ele>
        <time>2023-04-10T06:59:43Z</time>
      </trkpt>
      <trkpt lat="45.44849" lon="5.64333">
        <ele>479</ele>
        <time>2023-04-10T06:59:44Z</time>
      </trkpt>
      <trkpt lat="45.44851" lon="5.64338">
        <ele>480</ele>
        <time>2023-04-10T06:59:45Z</time>
      </trkpt>
      <trkpt lat="45.44853" lon="5.64343">
        <ele>480</ele>
        <time>2023-04-10T06:59:46Z</time>
      </trkpt>
      <trkpt lat="45.44855" lon="5.64349">
        <ele>480</ele>
        <time>2023-04-10T06:59:47Z</time>
      </trkpt>
      <trkpt lat="45.44857" lon="5.64355">
        <ele>480</ele>
        <time>2023-04-10T06:59:48Z</time>
      </trkpt>
      <trkpt lat="45.44859" lon="5.6436">
        <ele>480</ele>
        <time>2023-04-10T06:59:49Z</time>
      </trkpt>
      <trkpt lat="45.44862" lon="5.64366">
        <ele>480</ele>
        <time>2023-04-10T06:59:50Z</time>
      </trkpt>
      <trkpt lat="45.44864" lon="5.64372">
        <ele>480</ele>
        <time>2023-04-10T06:59:51Z</time>
      </trkpt>
      <trkpt lat="45.44866" lon="5.64378">
        <ele>481</ele>
        <time>2023-04-10T06:59:52Z</time>
      </trkpt>
      <trkpt lat="45.44868" lon="5.64385">
        <ele>481</ele>
        <time>2023-04-10T06:59:53Z</time>
      </trkpt>
      <trkpt lat="45.4487" lon="5.64391">
        <ele>481</ele>
        <time>2023-04-10T06:59:54Z</time>
      </trkpt>
      <trkpt lat="45.44874" lon="5.64403">
        <ele>482</ele>
        <time>2023-04-10T06:59:55Z</time>
      </trkpt>
      <trkpt lat="45.44878" lon="5.64408">
        <ele>482</ele>
        <time>2023-04-10T06:59:57Z</time>
      </trkpt>
      <trkpt lat="45.44881" lon="5.64412">
        <ele>482</ele>
        <time>2023-04-10T06:59:58Z</time>
      </trkpt>
      <trkpt lat="45.44886" lon="5.64415">
        <ele>482</ele>
        <time>2023-04-10T06:59:59Z</time>
      </trkpt>
      <trkpt lat="45.44891" lon="5.64417">
        <ele>482</ele>
        <time>2023-04-10T07:00:00Z</time>
      </trkpt>
      <trkpt lat="45.44896" lon="5.6442">
        <ele>482</ele>
        <time>2023-04-10T07:00:01Z</time>
      </trkpt>
      <trkpt lat="45.449" lon="5.64424">
        <ele>482</ele>
        <time>2023-04-10T07:00:02Z</time>
      </trkpt>
      <trkpt lat="45.44902" lon="5.6443">
        <ele>482</ele>
        <time>2023-04-10T07:00:03Z</time>
      </trkpt>
      <trkpt lat="45.44903" lon="5.64436">
        <ele>482</ele>
        <time>2023-04-10T07:00:04Z</time>
      </trkpt>
      <trkpt lat="45.44903" lon="5.64441">
        <ele>482</ele>
        <time>2023-04-10T07:00:05Z</time>
      </trkpt>
      <trkpt lat="45.44903" lon="5.64446">
        <ele>482</ele>
        <time>2023-04-10T07:00:06Z</time>
      </trkpt>
      <trkpt lat="45.44903" lon="5.64451">
        <ele>483</ele>
        <time>2023-04-10T07:00:07Z</time>
      </trkpt>
      <trkpt lat="45.44903" lon="5.64455">
        <ele>483</ele>
        <time>2023-04-10T07:00:08Z</time>
      </trkpt>
      <trkpt lat="45.44903" lon="5.64459">
        <ele>484</ele>
        <time>2023-04-10T07:00:09Z</time>
      </trkpt>
      <trkpt lat="45.44904" lon="5.64463">
        <ele>484</ele>
        <time>2023-04-10T07:00:10Z</time>
      </trkpt>
      <trkpt lat="45.44905" lon="5.64467">
        <ele>484</ele>
        <time>2023-04-10T07:00:11Z</time>
      </trkpt>
      <trkpt lat="45.44906" lon="5.64471">
        <ele>484</ele>
        <time>2023-04-10T07:00:12Z</time>
      </trkpt>
      <trkpt lat="45.44907" lon="5.64474">
        <ele>485</ele>
        <time>2023-04-10T07:00:13Z</time>
      </trkpt>
      <trkpt lat="45.44909" lon="5.64478">
        <ele>485</ele>
        <time>2023-04-10T07:00:14Z</time>
      </trkpt>
      <trkpt lat="45.4491" lon="5.64481">
        <ele>486</ele>
        <time>2023-04-10T07:00:15Z</time>
      </trkpt>
      <trkpt lat="45.44912" lon="5.64484">
        <ele>486</ele>
        <time>2023-04-10T07:00:16Z</time>
      </trkpt>
      <trkpt lat="45.44914" lon="5.64487">
        <ele>487</ele>
        <time>2023-04-10T07:00:17Z</time>
      </trkpt>
      <trkpt lat="45.44917" lon="5.64489">
        <ele>487</ele>
        <time>2023-04-10T07:00:18Z</time>
      </trkpt>
      <trkpt lat="45.44919" lon="5.64491">
        <ele>487</ele>
        <time>2023-04-10T07:00:19Z</time>
      </trkpt>
      <trkpt lat="45.44922" lon="5.64493">
        <ele>487</ele>
        <time>2023-04-10T07:00:20Z</time>
      </trkpt>
      <trkpt lat="45.44925" lon="5.64495">
        <ele>487</ele>
        <time>2023-04-10T07:00:21Z</time>
      </trkpt>
      <trkpt lat="45.44928" lon="5.64498">
        <ele>487</ele>
        <time>2023-04-10T07:00:22Z</time>
      </trkpt>
      <trkpt lat="45.44931" lon="5.645">
        <ele>487</ele>
        <time>2023-04-10T07:00:23Z</time>
      </trkpt>
      <trkpt lat="45.44935" lon="5.64503">
        <ele>488</ele>
        <time>2023-04-10T07:00:24Z</time>
      </trkpt>
      <trkpt lat="45.44939" lon="5.64506">
        <ele>488</ele>
        <time>2023-04-10T07:00:25Z</time>
      </trkpt>
      <trkpt lat="45.44942" lon="5.6451">
        <ele>488</ele>
        <time>2023-04-10T07:00:26Z</time>
      </trkpt>
      <trkpt lat="45.44947" lon="5.64513">
        <ele>488</ele>
        <time>2023-04-10T07:00:27Z</time>
      </trkpt>
      <trkpt lat="45.44951" lon="5.64516">
        <ele>488</ele>
        <time>2023-04-10T07:00:28Z</time>
      </trkpt>
      <trkpt lat="45.44956" lon="5.64519">
        <ele>488</ele>
        <time>2023-04-10T07:00:29Z</time>
      </trkpt>
      <trkpt lat="45.4496" lon="5.64522">
        <ele>488</ele>
        <time>2023-04-10T07:00:30Z</time>
      </trkpt>
      <trkpt lat="45.44964" lon="5.64525">
        <ele>488</ele>
        <time>2023-04-10T07:00:31Z</time>
      </trkpt>
      <trkpt lat="45.44969" lon="5.64528">
        <ele>488</ele>
        <time>2023-04-10T07:00:32Z</time>
      </trkpt>
      <trkpt lat="45.44978" lon="5.64534">
        <ele>488</ele>
        <time>2023-04-10T07:00:33Z</time>
      </trkpt>
      <trkpt lat="45.44983" lon="5.64538">
        <ele>488</ele>
        <time>2023-04-10T07:00:35Z</time>
      </trkpt>
      <trkpt lat="45.44988" lon="5.64541">
        <ele>488</ele>
        <time>2023-04-10T07:00:36Z</time>
      </trkpt>
      <trkpt lat="45.44993" lon="5.64545">
        <ele>488</ele>
        <time>2023-04-10T07:00:37Z</time>
      </trkpt>
      <trkpt lat="45.44998" lon="5.6455">
        <ele>488</ele>
        <time>2023-04-10T07:00:38Z</time>
      </trkpt>
      <trkpt lat="45.45002" lon="5.64554">
        <ele>488</ele>
        <time>2023-04-10T07:00:39Z</time>
      </trkpt>
      <trkpt lat="45.45007" lon="5.64559">
        <ele>488</ele>
        <time>2023-04-10T07:00:40Z</time>
      </trkpt>
      <trkpt lat="45.45012" lon="5.64565">
        <ele>488</ele>
        <time>2023-04-10T07:00:41Z</time>
      </trkpt>
      <trkpt lat="45.45016" lon="5.6457">
        <ele>488</ele>
        <time>2023-04-10T07:00:42Z</time>
      </trkpt>
      <trkpt lat="45.45021" lon="5.64575">
        <ele>488</ele>
        <time>2023-04-10T07:00:43Z</time>
      </trkpt>
      <trkpt lat="45.45025" lon="5.6458">
        <ele>488</ele>
        <time>2023-04-10T07:00:44Z</time>
      </trkpt>
      <trkpt lat="45.45028" lon="5.64585">
        <ele>488</ele>
        <time>2023-04-10T07:00:45Z</time>
      </trkpt>
      <trkpt lat="45.45032" lon="5.6459">
        <ele>489</ele>
        <time>2023-04-10T07:00:46Z</time>
      </trkpt>
      <trkpt lat="45.45036" lon="5.64595">
        <ele>489</ele>
        <time>2023-04-10T07:00:47Z</time>
      </trkpt>
      <trkpt lat="45.45039" lon="5.64599">
        <ele>489</ele>
        <time>2023-04-10T07:00:48Z</time>
      </trkpt>
      <trkpt lat="45.45043" lon="5.64603">
        <ele>489</ele>
        <time>2023-04-10T07:00:49Z</time>
      </trkpt>
      <trkpt lat="45.45047" lon="5.64607">
        <ele>490</ele>
        <time>2023-04-10T07:00:50Z</time>
      </trkpt>
      <trkpt lat="45.45051" lon="5.64611">
        <ele>490</ele>
        <time>2023-04-10T07:00:51Z</time>
      </trkpt>
      <trkpt lat="45.45061" lon="5.64617">
        <ele>490</ele>
        <time>2023-04-10T07:00:52Z</time>
      </trkpt>
      <trkpt lat="45.45066" lon="5.6462">
        <ele>490</ele>
        <time>2023-04-10T07:00:54Z</time>
      </trkpt>
      <trkpt lat="45.45071" lon="5.64623">
        <ele>490</ele>
        <time>2023-04-10T07:00:55Z</time>
      </trkpt>
      <trkpt lat="45.45076" lon="5.64626">
        <ele>490</ele>
        <time>2023-04-10T07:00:56Z</time>
      </trkpt>
      <trkpt lat="45.45082" lon="5.64629">
        <ele>490</ele>
        <time>2023-04-10T07:00:57Z</time>
      </trkpt>
      <trkpt lat="45.45088" lon="5.64632">
        <ele>490</ele>
        <time>2023-04-10T07:00:58Z</time>
      </trkpt>
      <trkpt lat="45.45094" lon="5.64636">
        <ele>490</ele>
        <time>2023-04-10T07:00:59Z</time>
      </trkpt>
      <trkpt lat="45.45101" lon="5.64639">
        <ele>489</ele>
        <time>2023-04-10T07:01:00Z</time>
      </trkpt>
      <trkpt lat="45.45107" lon="5.64643">
        <ele>489</ele>
        <time>2023-04-10T07:01:01Z</time>
      </trkpt>
      <trkpt lat="45.45119" lon="5.64651">
        <ele>489</ele>
        <time>2023-04-10T07:01:02Z</time>
      </trkpt>
      <trkpt lat="45.45125" lon="5.64655">
        <ele>489</ele>
        <time>2023-04-10T07:01:04Z</time>
      </trkpt>
      <trkpt lat="45.4513" lon="5.64658">
        <ele>489</ele>
        <time>2023-04-10T07:01:05Z</time>
      </trkpt>
      <trkpt lat="45.45136" lon="5.64662">
        <ele>489</ele>
        <time>2023-04-10T07:01:06Z</time>
      </trkpt>
      <trkpt lat="45.45141" lon="5.64665">
        <ele>489</ele>
        <time>2023-04-10T07:01:07Z</time>
      </trkpt>
      <trkpt lat="45.45146" lon="5.64667">
        <ele>488</ele>
        <time>2023-04-10T07:01:08Z</time>
      </trkpt>
      <trkpt lat="45.45151" lon="5.6467">
        <ele>488</ele>
        <time>2023-04-10T07:01:09Z</time>
      </trkpt>
      <trkpt lat="45.45156" lon="5.64672">
        <ele>488</ele>
        <time>2023-04-10T07:01:10Z</time>
      </trkpt>
      <trkpt lat="45.45164" lon="5.64676">
        <ele>489</ele>
        <time>2023-04-10T07:01:11Z</time>
      </trkpt>
      <trkpt lat="45.45168" lon="5.64677">
        <ele>489</ele>
        <time>2023-04-10T07:01:13Z</time>
      </trkpt>
      <trkpt lat="45.45172" lon="5.64678">
        <ele>490</ele>
        <time>2023-04-10T07:01:14Z</time>
      </trkpt>
      <trkpt lat="45.45175" lon="5.64679">
        <ele>490</ele>
        <time>2023-04-10T07:01:15Z</time>
      </trkpt>
      <trkpt lat="45.45179" lon="5.64679">
        <ele>491</ele>
        <time>2023-04-10T07:01:16Z</time>
      </trkpt>
      <trkpt lat="45.45183" lon="5.64678">
        <ele>491</ele>
        <time>2023-04-10T07:01:17Z</time>
      </trkpt>
      <trkpt lat="45.45186" lon="5.64677">
        <ele>491</ele>
        <time>2023-04-10T07:01:18Z</time>
      </trkpt>
      <trkpt lat="45.4519" lon="5.64675">
        <ele>491</ele>
        <time>2023-04-10T07:01:19Z</time>
      </trkpt>
      <trkpt lat="45.45193" lon="5.64672">
        <ele>491</ele>
        <time>2023-04-10T07:01:20Z</time>
      </trkpt>
      <trkpt lat="45.45197" lon="5.64669">
        <ele>491</ele>
        <time>2023-04-10T07:01:21Z</time>
      </trkpt>
      <trkpt lat="45.45201" lon="5.64665">
        <ele>491</ele>
        <time>2023-04-10T07:01:22Z</time>
      </trkpt>
      <trkpt lat="45.45206" lon="5.64662">
        <ele>491</ele>
        <time>2023-04-10T07:01:23Z</time>
      </trkpt>
      <trkpt lat="45.45212" lon="5.6466">
        <ele>491</ele>
        <time>2023-04-10T07:01:24Z</time>
      </trkpt>
      <trkpt lat="45.45218" lon="5.64658">
        <ele>491</ele>
        <time>2023-04-10T07:01:25Z</time>
      </trkpt>
      <trkpt lat="45.45225" lon="5.64658">
        <ele>491</ele>
        <time>2023-04-10T07:01:26Z</time>
      </trkpt>
      <trkpt lat="45.45231" lon="5.64659">
        <ele>490</ele>
        <time>2023-04-10T07:01:27Z</time>
      </trkpt>
      <trkpt lat="45.45238" lon="5.64661">
        <ele>490</ele>
        <time>2023-04-10T07:01:28Z</time>
      </trkpt>
      <trkpt lat="45.45244" lon="5.64662">
        <ele>490</ele>
        <time>2023-04-10T07:01:29Z</time>
      </trkpt>
      <trkpt lat="45.45256" lon="5.64666">
        <ele>490</ele>
        <time>2023-04-10T07:01:30Z</time>
      </trkpt>
      <trkpt lat="45.45262" lon="5.64669">
        <ele>490</ele>
        <time>2023-04-10T07:01:32Z</time>
      </trkpt>
      <trkpt lat="45.45267" lon="5.64671">
        <ele>490</ele>
        <time>2023-04-10T07:01:33Z</time>
      </trkpt>
      <trkpt lat="45.45273" lon="5.64673">
        <ele>490</ele>
        <time>2023-04-10T07:01:34Z</time>
      </trkpt>
      <trkpt lat="45.45277" lon="5.64675">
        <ele>490</ele>
        <time>2023-04-10T07:01:35Z</time>
      </trkpt>
      <trkpt lat="45.45281" lon="5.64678">
        <ele>490</ele>
        <time>2023-04-10T07:01:36Z</time>
      </trkpt>
      <trkpt lat="45.45284" lon="5.6468">
        <ele>491</ele>
        <time>2023-04-10T07:01:37Z</time>
      </trkpt>
      <trkpt lat="45.45287" lon="5.64683">
        <ele>491</ele>
        <time>2023-04-10T07:01:38Z</time>
      </trkpt>
      <trkpt lat="45.4529" lon="5.64687">
        <ele>492</ele>
        <time>2023-04-10T07:01:39Z</time>
      </trkpt>
      <trkpt lat="45.45293" lon="5.64691">
        <ele>492</ele>
        <time>2023-04-10T07:01:40Z</time>
      </trkpt>
      <trkpt lat="45.45296" lon="5.64695">
        <ele>492</ele>
        <time>2023-04-10T07:01:41Z</time>
      </trkpt>
      <trkpt lat="45.45298" lon="5.64699">
        <ele>492</ele>
        <time>2023-04-10T07:01:42Z</time>
      </trkpt>
      <trkpt lat="45.45301" lon="5.64704">
        <ele>492</ele>
        <time>2023-04-10T07:01:43Z</time>
      </trkpt>
      <trkpt lat="45.45303" lon="5.64708">
        <ele>492</ele>
        <time>2023-04-10T07:01:44Z</time>
      </trkpt>
      <trkpt lat="45.45306" lon="5.64712">
        <ele>493</ele>
        <time>2023-04-10T07:01:45Z</time>
      </trkpt>
      <trkpt lat="45.45308" lon="5.64716">
        <ele>493</ele>
        <time>2023-04-10T07:01:46Z</time>
      </trkpt>
      <trkpt lat="45.4531" lon="5.6472">
        <ele>493</ele>
        <time>2023-04-10T07:01:47Z</time>
      </trkpt>
      <trkpt lat="45.45312" lon="5.64725">
        <ele>494</ele>
        <time>2023-04-10T07:01:48Z</time>
      </trkpt>
      <trkpt lat="45.45314" lon="5.64729">
        <ele>495</ele>
        <time>2023-04-10T07:01:49Z</time>
      </trkpt>
      <trkpt lat="45.45315" lon="5.64733">
        <ele>495</ele>
        <time>2023-04-10T07:01:50Z</time>
      </trkpt>
      <trkpt lat="45.45317" lon="5.64738">
        <ele>495</ele>
        <time>2023-04-10T07:01:51Z</time>
      </trkpt>
      <trkpt lat="45.45318" lon="5.64742">
        <ele>495</ele>
        <time>2023-04-10T07:01:52Z</time>
      </trkpt>
      <trkpt lat="45.45319" lon="5.64747">
        <ele>495</ele>
        <time>2023-04-10T07:01:53Z</time>
      </trkpt>
      <trkpt lat="45.4532" lon="5.64752">
        <ele>496</ele>
        <time>2023-04-10T07:01:54Z</time>
      </trkpt>
      <trkpt lat="45.45321" lon="5.64757">
        <ele>496</ele>
        <time>2023-04-10T07:01:55Z</time>
      </trkpt>
      <trkpt lat="45.45323" lon="5.64762">
        <ele>496</ele>
        <time>2023-04-10T07:01:56Z</time>
      </trkpt>
      <trkpt lat="45.45324" lon="5.64766">
        <ele>496</ele>
        <time>2023-04-10T07:01:57Z</time>
      </trkpt>
      <trkpt lat="45.45326" lon="5.64771">
        <ele>496</ele>
        <time>2023-04-10T07:01:58Z</time>
      </trkpt>
      <trkpt lat="45.45327" lon="5.64775">
        <ele>496</ele>
        <time>2023-04-10T07:01:59Z</time>
      </trkpt>
      <trkpt lat="45.45329" lon="5.64779">
        <ele>496</ele>
        <time>2023-04-10T07:02:00Z</time>
      </trkpt>
      <trkpt lat="45.45331" lon="5.64783">
        <ele>497</ele>
        <time>2023-04-10T07:02:01Z</time>
      </trkpt>
      <trkpt lat="45.45332" lon="5.64787">
        <ele>497</ele>
        <time>2023-04-10T07:02:02Z</time>
      </trkpt>
      <trkpt lat="45.45334" lon="5.64792">
        <ele>498</ele>
        <time>2023-04-10T07:02:03Z</time>
      </trkpt>
      <trkpt lat="45.45336" lon="5.64796">
        <ele>498</ele>
        <time>2023-04-10T07:02:04Z</time>
      </trkpt>
      <trkpt lat="45.45338" lon="5.648">
        <ele>498</ele>
        <time>2023-04-10T07:02:05Z</time>
      </trkpt>
      <trkpt lat="45.4534" lon="5.64804">
        <ele>498</ele>
        <time>2023-04-10T07:02:06Z</time>
      </trkpt>
      <trkpt lat="45.45341" lon="5.64809">
        <ele>499</ele>
        <time>2023-04-10T07:02:07Z</time>
      </trkpt>
      <trkpt lat="45.45343" lon="5.64813">
        <ele>499</ele>
        <time>2023-04-10T07:02:08Z</time>
      </trkpt>
      <trkpt lat="45.45345" lon="5.64817">
        <ele>499</ele>
        <time>2023-04-10T07:02:09Z</time>
      </trkpt>
      <trkpt lat="45.45347" lon="5.64822">
        <ele>499</ele>
        <time>2023-04-10T07:02:10Z</time>
      </trkpt>
      <trkpt lat="45.45348" lon="5.64826">
        <ele>499</ele>
        <time>2023-04-10T07:02:11Z</time>
      </trkpt>
      <trkpt lat="45.4535" lon="5.64831">
        <ele>499</ele>
        <time>2023-04-10T07:02:12Z</time>
      </trkpt>
      <trkpt lat="45.45351" lon="5.64835">
        <ele>499</ele>
        <time>2023-04-10T07:02:13Z</time>
      </trkpt>
      <trkpt lat="45.45352" lon="5.64838">
        <ele>500</ele>
        <time>2023-04-10T07:02:14Z</time>
      </trkpt>
      <trkpt lat="45.45353" lon="5.64842">
        <ele>500</ele>
        <time>2023-04-10T07:02:15Z</time>
      </trkpt>
      <trkpt lat="45.45354" lon="5.64845">
        <ele>500</ele>
        <time>2023-04-10T07:02:16Z</time>
      </trkpt>
      <trkpt lat="45.45356" lon="5.64848">
        <ele>500</ele>
        <time>2023-04-10T07:02:17Z</time>
      </trkpt>
      <trkpt lat="45.45357" lon="5.64855">
        <ele>500</ele>
        <time>2023-04-10T07:02:18Z</time>
      </trkpt>
      <trkpt lat="45.45358" lon="5.64858">
        <ele>501</ele>
        <time>2023-04-10T07:02:20Z</time>
      </trkpt>
      <trkpt lat="45.45359" lon="5.64861">
        <ele>501</ele>
        <time>2023-04-10T07:02:21Z</time>
      </trkpt>
      <trkpt lat="45.4536" lon="5.64864">
        <ele>502</ele>
        <time>2023-04-10T07:02:22Z</time>
      </trkpt>
      <trkpt lat="45.4536" lon="5.64867">
        <ele>502</ele>
        <time>2023-04-10T07:02:23Z</time>
      </trkpt>
      <trkpt lat="45.4536" lon="5.6487">
        <ele>503</ele>
        <time>2023-04-10T07:02:24Z</time>
      </trkpt>
      <trkpt lat="45.45359" lon="5.64873">
        <ele>503</ele>
        <time>2023-04-10T07:02:25Z</time>
      </trkpt>
      <trkpt lat="45.45357" lon="5.64875">
        <ele>503</ele>
        <time>2023-04-10T07:02:26Z</time>
      </trkpt>
      <trkpt lat="45.45355" lon="5.64876">
        <ele>504</ele>
        <time>2023-04-10T07:02:27Z</time>
      </trkpt>
      <trkpt lat="45.45353" lon="5.64877">
        <ele>504</ele>
        <time>2023-04-10T07:02:28Z</time>
      </trkpt>
      <trkpt lat="45.45351" lon="5.64878">
        <ele>505</ele>
        <time>2023-04-10T07:02:29Z</time>
      </trkpt>
      <trkpt lat="45.4535" lon="5.6488">
        <ele>505</ele>
        <time>2023-04-10T07:02:30Z</time>
      </trkpt>
      <trkpt lat="45.45348" lon="5.64882">
        <ele>505</ele>
        <time>2023-04-10T07:02:31Z</time>
      </trkpt>
      <trkpt lat="45.45348" lon="5.64884">
        <ele>505</ele>
        <time>2023-04-10T07:02:32Z</time>
      </trkpt>
      <trkpt lat="45.45348" lon="5.64887">
        <ele>506</ele>
        <time>2023-04-10T07:02:33Z</time>
      </trkpt>
      <trkpt lat="45.45348" lon="5.6489">
        <ele>507</ele>
        <time>2023-04-10T07:02:34Z</time>
      </trkpt>
      <trkpt lat="45.45349" lon="5.64892">
        <ele>507</ele>
        <time>2023-04-10T07:02:35Z</time>
      </trkpt>
      <trkpt lat="45.4535" lon="5.64895">
        <ele>507</ele>
        <time>2023-04-10T07:02:36Z</time>
      </trkpt>
      <trkpt lat="45.45351" lon="5.64897">
        <ele>507</ele>
        <time>2023-04-10T07:02:37Z</time>
      </trkpt>
      <trkpt lat="45.45352" lon="5.649">
        <ele>507</ele>
        <time>2023-04-10T07:02:38Z</time>
      </trkpt>
      <trkpt lat="45.45353" lon="5.64902">
        <ele>507</ele>
        <time>2023-04-10T07:02:39Z</time>
      </trkpt>
      <trkpt lat="45.45354" lon="5.64905">
        <ele>507</ele>
        <time>2023-04-10T07:02:40Z</time>
      </trkpt>
      <trkpt lat="45.45355" lon="5.64907">
        <ele>508</ele>
        <time>2023-04-10T07:02:41Z</time>
      </trkpt>
      <trkpt lat="45.45357" lon="5.6491">
        <ele>508</ele>
        <time>2023-04-10T07:02:42Z</time>
      </trkpt>
      <trkpt lat="45.45358" lon="5.64912">
        <ele>508</ele>
        <time>2023-04-10T07:02:43Z</time>
      </trkpt>
      <trkpt lat="45.45359" lon="5.64915">
        <ele>509</ele>
        <time>2023-04-10T07:02:44Z</time>
      </trkpt>
      <trkpt lat="45.45359" lon="5.64917">
        <ele>509</ele>
        <time>2023-04-10T07:02:45Z</time>
      </trkpt>
      <trkpt lat="45.45358" lon="5.64923">
        <ele>510</ele>
        <time>2023-04-10T07:02:46Z</time>
      </trkpt>
      <trkpt lat="45.45357" lon="5.64925">
        <ele>510</ele>
        <time>2023-04-10T07:02:48Z</time>
      </trkpt>
      <trkpt lat="45.45355" lon="5.64927">
        <ele>510</ele>
        <time>2023-04-10T07:02:49Z</time>
      </trkpt>
      <trkpt lat="45.45353" lon="5.64928">
        <ele>510</ele>
        <time>2023-04-10T07:02:50Z</time>
      </trkpt>
      <trkpt lat="45.45351" lon="5.64928">
        <ele>510</ele>
        <time>2023-04-10T07:02:51Z</time>
      </trkpt>
      <trkpt lat="45.45349" lon="5.64928">
        <ele>511</ele>
        <time>2023-04-10T07:02:52Z</time>
      </trkpt>
      <trkpt lat="45.45347" lon="5.64927">
        <ele>511</ele>
        <time>2023-04-10T07:02:53Z</time>
      </trkpt>
      <trkpt lat="45.45345" lon="5.64926">
        <ele>512</ele>
        <time>2023-04-10T07:02:54Z</time>
      </trkpt>
      <trkpt lat="45.45343" lon="5.64925">
        <ele>512</ele>
        <time>2023-04-10T07:02:55Z</time>
      </trkpt>
      <trkpt lat="45.45341" lon="5.64924">
        <ele>513</ele>
        <time>2023-04-10T07:02:56Z</time>
      </trkpt>
      <trkpt lat="45.4534" lon="5.64924">
        <ele>513</ele>
        <time>2023-04-10T07:02:57Z</time>
      </trkpt>
      <trkpt lat="45.45336" lon="5.64923">
        <ele>513</ele>
        <time>2023-04-10T07:02:59Z</time>
      </trkpt>
      <trkpt lat="45.45334" lon="5.64923">
        <ele>513</ele>
        <time>2023-04-10T07:03:00Z</time>
      </trkpt>
      <trkpt lat="45.45332" lon="5.64922">
        <ele>513</ele>
        <time>2023-04-10T07:03:01Z</time>
      </trkpt>
      <trkpt lat="45.45331" lon="5.64922">
        <ele>513</ele>
        <time>2023-04-10T07:03:02Z</time>
      </trkpt>
      <trkpt lat="45.45327" lon="5.64921">
        <ele>514</ele>
        <time>2023-04-10T07:03:04Z</time>
      </trkpt>
      <trkpt lat="45.45324" lon="5.6492">
        <ele>514</ele>
        <time>2023-04-10T07:03:05Z</time>
      </trkpt>
      <trkpt lat="45.45322" lon="5.6492">
        <ele>515</ele>
        <time>2023-04-10T07:03:07Z</time>
      </trkpt>
      <trkpt lat="45.4532" lon="5.64919">
        <ele>514</ele>
        <time>2023-04-10T07:03:08Z</time>
      </trkpt>
      <trkpt lat="45.45317" lon="5.64918">
        <ele>515</ele>
        <time>2023-04-10T07:03:10Z</time>
      </trkpt>
      <trkpt lat="45.45313" lon="5.64916">
        <ele>515</ele>
        <time>2023-04-10T07:03:12Z</time>
      </trkpt>
      <trkpt lat="45.4531" lon="5.64915">
        <ele>516</ele>
        <time>2023-04-10T07:03:14Z</time>
      </trkpt>
      <trkpt lat="45.45307" lon="5.64915">
        <ele>517</ele>
        <time>2023-04-10T07:03:16Z</time>
      </trkpt>
      <trkpt lat="45.45303" lon="5.64914">
        <ele>517</ele>
        <time>2023-04-10T07:03:18Z</time>
      </trkpt>
      <trkpt lat="45.453" lon="5.64913">
        <ele>518</ele>
        <time>2023-04-10T07:03:20Z</time>
      </trkpt>
      <trkpt lat="45.45297" lon="5.64912">
        <ele>518</ele>
        <time>2023-04-10T07:03:22Z</time>
      </trkpt>
      <trkpt lat="45.45293" lon="5.64912">
        <ele>519</ele>
        <time>2023-04-10T07:03:24Z</time>
      </trkpt>
      <trkpt lat="45.4529" lon="5.64911">
        <ele>519</ele>
        <time>2023-04-10T07:03:26Z</time>
      </trkpt>
      <trkpt lat="45.45286" lon="5.64911">
        <ele>519</ele>
        <time>2023-04-10T07:03:28Z</time>
      </trkpt>
      <trkpt lat="45.45283" lon="5.64912">
        <ele>520</ele>
        <time>2023-04-10T07:03:30Z</time>
      </trkpt>
      <trkpt lat="45.4528" lon="5.64913">
        <ele>521</ele>
        <time>2023-04-10T07:03:32Z</time>
      </trkpt>
      <trkpt lat="45.45277" lon="5.64914">
        <ele>521</ele>
        <time>2023-04-10T07:03:34Z</time>
      </trkpt>
      <trkpt lat="45.45274" lon="5.64915">
        <ele>522</ele>
        <time>2023-04-10T07:03:36Z</time>
      </trkpt>
      <trkpt lat="45.45271" lon="5.64916">
        <ele>522</ele>
        <time>2023-04-10T07:03:38Z</time>
      </trkpt>
      <trkpt lat="45.45268" lon="5.64916">
        <ele>523</ele>
        <time>2023-04-10T07:03:40Z</time>
      </trkpt>
      <trkpt lat="45.45266" lon="5.64917">
        <ele>524</ele>
        <time>2023-04-10T07:03:42Z</time>
      </trkpt>
      <trkpt lat="45.45263" lon="5.64918">
        <ele>524</ele>
        <time>2023-04-10T07:03:43Z</time>
      </trkpt>
      <trkpt lat="45.45261" lon="5.64919">
        <ele>524</ele>
        <time>2023-04-10T07:03:46Z</time>
      </trkpt>
      <trkpt lat="45.45257" lon="5.64919">
        <ele>524</ele>
        <time>2023-04-10T07:03:48Z</time>
      </trkpt>
      <trkpt lat="45.45255" lon="5.64919">
        <ele>524</ele>
        <time>2023-04-10T07:03:49Z</time>
      </trkpt>
      <trkpt lat="45.45253" lon="5.64919">
        <ele>524</ele>
        <time>2023-04-10T07:03:50Z</time>
      </trkpt>
      <trkpt lat="45.4525" lon="5.6492">
        <ele>524</ele>
        <time>2023-04-10T07:03:52Z</time>
      </trkpt>
      <trkpt lat="45.45247" lon="5.6492">
        <ele>526</ele>
        <time>2023-04-10T07:03:54Z</time>
      </trkpt>
      <trkpt lat="45.45243" lon="5.6492">
        <ele>526</ele>
        <time>2023-04-10T07:03:56Z</time>
      </trkpt>
      <trkpt lat="45.45241" lon="5.6492">
        <ele>527</ele>
        <time>2023-04-10T07:03:57Z</time>
      </trkpt>
      <trkpt lat="45.45239" lon="5.6492">
        <ele>528</ele>
        <time>2023-04-10T07:03:59Z</time>
      </trkpt>
      <trkpt lat="45.45236" lon="5.6492">
        <ele>528</ele>
        <time>2023-04-10T07:04:01Z</time>
      </trkpt>
      <trkpt lat="45.45233" lon="5.64921">
        <ele>528</ele>
        <time>2023-04-10T07:04:02Z</time>
      </trkpt>
      <trkpt lat="45.4523" lon="5.64921">
        <ele>529</ele>
        <time>2023-04-10T07:04:05Z</time>
      </trkpt>
      <trkpt lat="45.45227" lon="5.64921">
        <ele>530</ele>
        <time>2023-04-10T07:04:07Z</time>
      </trkpt>
      <trkpt lat="45.45225" lon="5.64921">
        <ele>530</ele>
        <time>2023-04-10T07:04:09Z</time>
      </trkpt>
      <trkpt lat="45.45222" lon="5.64922">
        <ele>531</ele>
        <time>2023-04-10T07:04:11Z</time>
      </trkpt>
      <trkpt lat="45.45219" lon="5.64922">
        <ele>531</ele>
        <time>2023-04-10T07:04:12Z</time>
      </trkpt>
      <trkpt lat="45.45215" lon="5.64922">
        <ele>533</ele>
        <time>2023-04-10T07:04:15Z</time>
      </trkpt>
      <trkpt lat="45.45212" lon="5.64923">
        <ele>533</ele>
        <time>2023-04-10T07:04:17Z</time>
      </trkpt>
      <trkpt lat="45.45209" lon="5.64924">
        <ele>533</ele>
        <time>2023-04-10T07:04:19Z</time>
      </trkpt>
      <trkpt lat="45.45206" lon="5.64925">
        <ele>534</ele>
        <time>2023-04-10T07:04:21Z</time>
      </trkpt>
      <trkpt lat="45.45203" lon="5.64926">
        <ele>534</ele>
        <time>2023-04-10T07:04:23Z</time>
      </trkpt>
      <trkpt lat="45.452" lon="5.64928">
        <ele>535</ele>
        <time>2023-04-10T07:04:25Z</time>
      </trkpt>
      <trkpt lat="45.45197" lon="5.6493">
        <ele>535</ele>
        <time>2023-04-10T07:04:27Z</time>
      </trkpt>
      <trkpt lat="45.45194" lon="5.64933">
        <ele>536</ele>
        <time>2023-04-10T07:04:29Z</time>
      </trkpt>
      <trkpt lat="45.45191" lon="5.64936">
        <ele>537</ele>
        <time>2023-04-10T07:04:31Z</time>
      </trkpt>
      <trkpt lat="45.45188" lon="5.64938">
        <ele>536</ele>
        <time>2023-04-10T07:04:33Z</time>
      </trkpt>
      <trkpt lat="45.45185" lon="5.6494">
        <ele>536</ele>
        <time>2023-04-10T07:04:35Z</time>
      </trkpt>
      <trkpt lat="45.45182" lon="5.64942">
        <ele>537</ele>
        <time>2023-04-10T07:04:37Z</time>
      </trkpt>
      <trkpt lat="45.45181" lon="5.64943">
        <ele>537</ele>
        <time>2023-04-10T07:04:38Z</time>
      </trkpt>
      <trkpt lat="45.45179" lon="5.64944">
        <ele>537</ele>
        <time>2023-04-10T07:04:39Z</time>
      </trkpt>
      <trkpt lat="45.45175" lon="5.64944">
        <ele>537</ele>
        <time>2023-04-10T07:04:40Z</time>
      </trkpt>
      <trkpt lat="45.45173" lon="5.64943">
        <ele>538</ele>
        <time>2023-04-10T07:04:42Z</time>
      </trkpt>
      <trkpt lat="45.45171" lon="5.64943">
        <ele>538</ele>
        <time>2023-04-10T07:04:43Z</time>
      </trkpt>
      <trkpt lat="45.45169" lon="5.64942">
        <ele>538</ele>
        <time>2023-04-10T07:04:44Z</time>
      </trkpt>
      <trkpt lat="45.45167" lon="5.64941">
        <ele>538</ele>
        <time>2023-04-10T07:04:45Z</time>
      </trkpt>
      <trkpt lat="45.45165" lon="5.64939">
        <ele>539</ele>
        <time>2023-04-10T07:04:46Z</time>
      </trkpt>
      <trkpt lat="45.45164" lon="5.64938">
        <ele>539</ele>
        <time>2023-04-10T07:04:47Z</time>
      </trkpt>
      <trkpt lat="45.45162" lon="5.64936">
        <ele>539</ele>
        <time>2023-04-10T07:04:48Z</time>
      </trkpt>
      <trkpt lat="45.4516" lon="5.64935">
        <ele>539</ele>
        <time>2023-04-10T07:04:49Z</time>
      </trkpt>
      <trkpt lat="45.45159" lon="5.64933">
        <ele>540</ele>
        <time>2023-04-10T07:04:50Z</time>
      </trkpt>
      <trkpt lat="45.45157" lon="5.64932">
        <ele>540</ele>
        <time>2023-04-10T07:04:51Z</time>
      </trkpt>
      <trkpt lat="45.45155" lon="5.64931">
        <ele>541</ele>
        <time>2023-04-10T07:04:52Z</time>
      </trkpt>
      <trkpt lat="45.45154" lon="5.64929">
        <ele>541</ele>
        <time>2023-04-10T07:04:53Z</time>
      </trkpt>
      <trkpt lat="45.45152" lon="5.64928">
        <ele>541</ele>
        <time>2023-04-10T07:04:54Z</time>
      </trkpt>
      <trkpt lat="45.4515" lon="5.64927">
        <ele>541</ele>
        <time>2023-04-10T07:04:55Z</time>
      </trkpt>
      <trkpt lat="45.45149" lon="5.64926">
        <ele>541</ele>
        <time>2023-04-10T07:04:56Z</time>
      </trkpt>
      <trkpt lat="45.45146" lon="5.64924">
        <ele>542</ele>
        <time>2023-04-10T07:04:58Z</time>
      </trkpt>
      <trkpt lat="45.45143" lon="5.64922">
        <ele>542</ele>
        <time>2023-04-10T07:04:59Z</time>
      </trkpt>
      <trkpt lat="45.4514" lon="5.6492">
        <ele>543</ele>
        <time>2023-04-10T07:05:02Z</time>
      </trkpt>
      <trkpt lat="45.45137" lon="5.64919">
        <ele>544</ele>
        <time>2023-04-10T07:05:04Z</time>
      </trkpt>
      <trkpt lat="45.45134" lon="5.64917">
        <ele>544</ele>
        <time>2023-04-10T07:05:06Z</time>
      </trkpt>
      <trkpt lat="45.4513" lon="5.64916">
        <ele>544</ele>
        <time>2023-04-10T07:05:08Z</time>
      </trkpt>
      <trkpt lat="45.45127" lon="5.64915">
        <ele>544</ele>
        <time>2023-04-10T07:05:10Z</time>
      </trkpt>
      <trkpt lat="45.45125" lon="5.64913">
        <ele>545</ele>
        <time>2023-04-10T07:05:12Z</time>
      </trkpt>
      <trkpt lat="45.45122" lon="5.64912">
        <ele>546</ele>
        <time>2023-04-10T07:05:14Z</time>
      </trkpt>
      <trkpt lat="45.45119" lon="5.64911">
        <ele>547</ele>
        <time>2023-04-10T07:05:16Z</time>
      </trkpt>
      <trkpt lat="45.45117" lon="5.6491">
        <ele>548</ele>
        <time>2023-04-10T07:05:18Z</time>
      </trkpt>
      <trkpt lat="45.45115" lon="5.64909">
        <ele>549</ele>
        <time>2023-04-10T07:05:20Z</time>
      </trkpt>
      <trkpt lat="45.45112" lon="5.64909">
        <ele>549</ele>
        <time>2023-04-10T07:05:22Z</time>
      </trkpt>
      <trkpt lat="45.45109" lon="5.64909">
        <ele>550</ele>
        <time>2023-04-10T07:05:24Z</time>
      </trkpt>
      <trkpt lat="45.45107" lon="5.64909">
        <ele>550</ele>
        <time>2023-04-10T07:05:26Z</time>
      </trkpt>
      <trkpt lat="45.45104" lon="5.64909">
        <ele>551</ele>
        <time>2023-04-10T07:05:28Z</time>
      </trkpt>
      <trkpt lat="45.45101" lon="5.6491">
        <ele>551</ele>
        <time>2023-04-10T07:05:30Z</time>
      </trkpt>
      <trkpt lat="45.45098" lon="5.6491">
        <ele>552</ele>
        <time>2023-04-10T07:05:32Z</time>
      </trkpt>
      <trkpt lat="45.45096" lon="5.6491">
        <ele>552</ele>
        <time>2023-04-10T07:05:34Z</time>
      </trkpt>
      <trkpt lat="45.45093" lon="5.64909">
        <ele>552</ele>
        <time>2023-04-10T07:05:36Z</time>
      </trkpt>
      <trkpt lat="45.4509" lon="5.64909">
        <ele>553</ele>
        <time>2023-04-10T07:05:37Z</time>
      </trkpt>
      <trkpt lat="45.45088" lon="5.64908">
        <ele>554</ele>
        <time>2023-04-10T07:05:40Z</time>
      </trkpt>
      <trkpt lat="45.45085" lon="5.64907">
        <ele>554</ele>
        <time>2023-04-10T07:05:42Z</time>
      </trkpt>
      <trkpt lat="45.45082" lon="5.64906">
        <ele>555</ele>
        <time>2023-04-10T07:05:44Z</time>
      </trkpt>
      <trkpt lat="45.4508" lon="5.64906">
        <ele>556</ele>
        <time>2023-04-10T07:05:46Z</time>
      </trkpt>
      <trkpt lat="45.45077" lon="5.64906">
        <ele>557</ele>
        <time>2023-04-10T07:05:48Z</time>
      </trkpt>
      <trkpt lat="45.45074" lon="5.64905">
        <ele>558</ele>
        <time>2023-04-10T07:05:50Z</time>
      </trkpt>
      <trkpt lat="45.45071" lon="5.64905">
        <ele>558</ele>
        <time>2023-04-10T07:05:52Z</time>
      </trkpt>
      <trkpt lat="45.45068" lon="5.64904">
        <ele>559</ele>
        <time>2023-04-10T07:05:54Z</time>
      </trkpt>
      <trkpt lat="45.45066" lon="5.64904">
        <ele>560</ele>
        <time>2023-04-10T07:05:56Z</time>
      </trkpt>
      <trkpt lat="45.45063" lon="5.64903">
        <ele>560</ele>
        <time>2023-04-10T07:05:58Z</time>
      </trkpt>
      <trkpt lat="45.45061" lon="5.64903">
        <ele>560</ele>
        <time>2023-04-10T07:06:00Z</time>
      </trkpt>
      <trkpt lat="45.45058" lon="5.64902">
        <ele>560</ele>
        <time>2023-04-10T07:06:02Z</time>
      </trkpt>
      <trkpt lat="45.45056" lon="5.64902">
        <ele>561</ele>
        <time>2023-04-10T07:06:04Z</time>
      </trkpt>
      <trkpt lat="45.45053" lon="5.64901">
        <ele>562</ele>
        <time>2023-04-10T07:06:06Z</time>
      </trkpt>
      <trkpt lat="45.45051" lon="5.64901">
        <ele>563</ele>
        <time>2023-04-10T07:06:08Z</time>
      </trkpt>
      <trkpt lat="45.45048" lon="5.64901">
        <ele>563</ele>
        <time>2023-04-10T07:06:10Z</time>
      </trkpt>
      <trkpt lat="45.45046" lon="5.64901">
        <ele>564</ele>
        <time>2023-04-10T07:06:12Z</time>
      </trkpt>
      <trkpt lat="45.45044" lon="5.64901">
        <ele>565</ele>
        <time>2023-04-10T07:06:14Z</time>
      </trkpt>
      <trkpt lat="45.45041" lon="5.64901">
        <ele>565</ele>
        <time>2023-04-10T07:06:15Z</time>
      </trkpt>
      <trkpt lat="45.45038" lon="5.64901">
        <ele>566</ele>
        <time>2023-04-10T07:06:18Z</time>
      </trkpt>
      <trkpt lat="45.45036" lon="5.64902">
        <ele>566</ele>
        <time>2023-04-10T07:06:20Z</time>
      </trkpt>
      <trkpt lat="45.45033" lon="5.64903">
        <ele>567</ele>
        <time>2023-04-10T07:06:22Z</time>
      </trkpt>
      <trkpt lat="45.45031" lon="5.64906">
        <ele>567</ele>
        <time>2023-04-10T07:06:24Z</time>
      </trkpt>
      <trkpt lat="45.45029" lon="5.64908">
        <ele>567</ele>
        <time>2023-04-10T07:06:26Z</time>
      </trkpt>
      <trkpt lat="45.45026" lon="5.6491">
        <ele>568</ele>
        <time>2023-04-10T07:06:28Z</time>
      </trkpt>
      <trkpt lat="45.45022" lon="5.64913">
        <ele>568</ele>
        <time>2023-04-10T07:06:30Z</time>
      </trkpt>
      <trkpt lat="45.4502" lon="5.64914">
        <ele>568</ele>
        <time>2023-04-10T07:06:31Z</time>
      </trkpt>
      <trkpt lat="45.45018" lon="5.64916">
        <ele>568</ele>
        <time>2023-04-10T07:06:32Z</time>
      </trkpt>
      <trkpt lat="45.45015" lon="5.64917">
        <ele>568</ele>
        <time>2023-04-10T07:06:33Z</time>
      </trkpt>
      <trkpt lat="45.4501" lon="5.64918">
        <ele>569</ele>
        <time>2023-04-10T07:06:34Z</time>
      </trkpt>
      <trkpt lat="45.45008" lon="5.64919">
        <ele>569</ele>
        <time>2023-04-10T07:06:36Z</time>
      </trkpt>
      <trkpt lat="45.45005" lon="5.6492">
        <ele>569</ele>
        <time>2023-04-10T07:06:37Z</time>
      </trkpt>
      <trkpt lat="45.45003" lon="5.6492">
        <ele>569</ele>
        <time>2023-04-10T07:06:38Z</time>
      </trkpt>
      <trkpt lat="45.45" lon="5.6492">
        <ele>569</ele>
        <time>2023-04-10T07:06:39Z</time>
      </trkpt>
      <trkpt lat="45.44998" lon="5.6492">
        <ele>569</ele>
        <time>2023-04-10T07:06:40Z</time>
      </trkpt>
      <trkpt lat="45.44995" lon="5.64918">
        <ele>569</ele>
        <time>2023-04-10T07:06:41Z</time>
      </trkpt>
      <trkpt lat="45.44993" lon="5.64917">
        <ele>570</ele>
        <time>2023-04-10T07:06:42Z</time>
      </trkpt>
      <trkpt lat="45.44991" lon="5.64915">
        <ele>570</ele>
        <time>2023-04-10T07:06:43Z</time>
      </trkpt>
      <trkpt lat="45.44989" lon="5.64913">
        <ele>570</ele>
        <time>2023-04-10T07:06:44Z</time>
      </trkpt>
      <trkpt lat="45.44987" lon="5.64911">
        <ele>570</ele>
        <time>2023-04-10T07:06:45Z</time>
      </trkpt>
      <trkpt lat="45.44985" lon="5.6491">
        <ele>570</ele>
        <time>2023-04-10T07:06:46Z</time>
      </trkpt>
      <trkpt lat="45.44983" lon="5.64908">
        <ele>571</ele>
        <time>2023-04-10T07:06:47Z</time>
      </trkpt>
      <trkpt lat="45.44981" lon="5.64905">
        <ele>571</ele>
        <time>2023-04-10T07:06:49Z</time>
      </trkpt>
      <trkpt lat="45.44979" lon="5.64902">
        <ele>571</ele>
        <time>2023-04-10T07:06:51Z</time>
      </trkpt>
      <trkpt lat="45.44976" lon="5.64898">
        <ele>571</ele>
        <time>2023-04-10T07:06:53Z</time>
      </trkpt>
      <trkpt lat="45.44974" lon="5.64896">
        <ele>572</ele>
        <time>2023-04-10T07:06:55Z</time>
      </trkpt>
      <trkpt lat="45.44972" lon="5.64894">
        <ele>573</ele>
        <time>2023-04-10T07:06:56Z</time>
      </trkpt>
      <trkpt lat="45.44971" lon="5.64893">
        <ele>573</ele>
        <time>2023-04-10T07:06:57Z</time>
      </trkpt>
      <trkpt lat="45.44968" lon="5.6489">
        <ele>573</ele>
        <time>2023-04-10T07:06:59Z</time>
      </trkpt>
      <trkpt lat="45.44966" lon="5.64888">
        <ele>573</ele>
        <time>2023-04-10T07:07:00Z</time>
      </trkpt>
      <trkpt lat="45.44965" lon="5.64887">
        <ele>573</ele>
        <time>2023-04-10T07:07:01Z</time>
      </trkpt>
      <trkpt lat="45.44963" lon="5.64885">
        <ele>573</ele>
        <time>2023-04-10T07:07:02Z</time>
      </trkpt>
      <trkpt lat="45.44961" lon="5.64884">
        <ele>573</ele>
        <time>2023-04-10T07:07:03Z</time>
      </trkpt>
      <trkpt lat="45.4496" lon="5.64882">
        <ele>573</ele>
        <time>2023-04-10T07:07:04Z</time>
      </trkpt>
      <trkpt lat="45.44956" lon="5.6488">
        <ele>573</ele>
        <time>2023-04-10T07:07:06Z</time>
      </trkpt>
      <trkpt lat="45.44955" lon="5.64879">
        <ele>573</ele>
        <time>2023-04-10T07:07:07Z</time>
      </trkpt>
      <trkpt lat="45.44951" lon="5.64876">
        <ele>574</ele>
        <time>2023-04-10T07:07:09Z</time>
      </trkpt>
      <trkpt lat="45.44948" lon="5.64875">
        <ele>574</ele>
        <time>2023-04-10T07:07:11Z</time>
      </trkpt>
      <trkpt lat="45.44946" lon="5.64873">
        <ele>575</ele>
        <time>2023-04-10T07:07:12Z</time>
      </trkpt>
      <trkpt lat="45.44942" lon="5.64872">
        <ele>576</ele>
        <time>2023-04-10T07:07:15Z</time>
      </trkpt>
      <trkpt lat="45.44939" lon="5.6487">
        <ele>576</ele>
        <time>2023-04-10T07:07:17Z</time>
      </trkpt>
      <trkpt lat="45.44937" lon="5.64869">
        <ele>576</ele>
        <time>2023-04-10T07:07:18Z</time>
      </trkpt>
      <trkpt lat="45.44935" lon="5.64869">
        <ele>576</ele>
        <time>2023-04-10T07:07:19Z</time>
      </trkpt>
      <trkpt lat="45.44932" lon="5.64867">
        <ele>576</ele>
        <time>2023-04-10T07:07:21Z</time>
      </trkpt>
      <trkpt lat="45.4493" lon="5.64867">
        <ele>576</ele>
        <time>2023-04-10T07:07:22Z</time>
      </trkpt>
      <trkpt lat="45.44928" lon="5.64867">
        <ele>577</ele>
        <time>2023-04-10T07:07:23Z</time>
      </trkpt>
      <trkpt lat="45.44926" lon="5.64867">
        <ele>577</ele>
        <time>2023-04-10T07:07:24Z</time>
      </trkpt>
      <trkpt lat="45.44924" lon="5.64867">
        <ele>577</ele>
        <time>2023-04-10T07:07:25Z</time>
      </trkpt>
      <trkpt lat="45.44922" lon="5.64867">
        <ele>578</ele>
        <time>2023-04-10T07:07:26Z</time>
      </trkpt>
      <trkpt lat="45.4492" lon="5.64868">
        <ele>578</ele>
        <time>2023-04-10T07:07:27Z</time>
      </trkpt>
      <trkpt lat="45.44918" lon="5.64868">
        <ele>578</ele>
        <time>2023-04-10T07:07:28Z</time>
      </trkpt>
      <trkpt lat="45.44914" lon="5.64869">
        <ele>578</ele>
        <time>2023-04-10T07:07:30Z</time>
      </trkpt>
      <trkpt lat="45.44909" lon="5.64872">
        <ele>578</ele>
        <time>2023-04-10T07:07:31Z</time>
      </trkpt>
      <trkpt lat="45.44907" lon="5.64873">
        <ele>579</ele>
        <time>2023-04-10T07:07:33Z</time>
      </trkpt>
      <trkpt lat="45.44905" lon="5.64875">
        <ele>579</ele>
        <time>2023-04-10T07:07:34Z</time>
      </trkpt>
      <trkpt lat="45.44902" lon="5.64876">
        <ele>579</ele>
        <time>2023-04-10T07:07:35Z</time>
      </trkpt>
      <trkpt lat="45.449" lon="5.64878">
        <ele>579</ele>
        <time>2023-04-10T07:07:36Z</time>
      </trkpt>
      <trkpt lat="45.44897" lon="5.64879">
        <ele>579</ele>
        <time>2023-04-10T07:07:37Z</time>
      </trkpt>
      <trkpt lat="45.44895" lon="5.64881">
        <ele>579</ele>
        <time>2023-04-10T07:07:38Z</time>
      </trkpt>
      <trkpt lat="45.44892" lon="5.64882">
        <ele>579</ele>
        <time>2023-04-10T07:07:39Z</time>
      </trkpt>
      <trkpt lat="45.4489" lon="5.64883">
        <ele>580</ele>
        <time>2023-04-10T07:07:40Z</time>
      </trkpt>
      <trkpt lat="45.44887" lon="5.64884">
        <ele>580</ele>
        <time>2023-04-10T07:07:41Z</time>
      </trkpt>
      <trkpt lat="45.44884" lon="5.64885">
        <ele>580</ele>
        <time>2023-04-10T07:07:42Z</time>
      </trkpt>
      <trkpt lat="45.44881" lon="5.64886">
        <ele>580</ele>
        <time>2023-04-10T07:07:43Z</time>
      </trkpt>
      <trkpt lat="45.44879" lon="5.64887">
        <ele>580</ele>
        <time>2023-04-10T07:07:44Z</time>
      </trkpt>
      <trkpt lat="45.44876" lon="5.64888">
        <ele>580</ele>
        <time>2023-04-10T07:07:45Z</time>
      </trkpt>
      <trkpt lat="45.44874" lon="5.64889">
        <ele>580</ele>
        <time>2023-04-10T07:07:46Z</time>
      </trkpt>
      <trkpt lat="45.44871" lon="5.6489">
        <ele>580</ele>
        <time>2023-04-10T07:07:47Z</time>
      </trkpt>
      <trkpt lat="45.44868" lon="5.6489">
        <ele>580</ele>
        <time>2023-04-10T07:07:48Z</time>
      </trkpt>
      <trkpt lat="45.44866" lon="5.6489">
        <ele>580</ele>
        <time>2023-04-10T07:07:49Z</time>
      </trkpt>
      <trkpt lat="45.44861" lon="5.64889">
        <ele>581</ele>
        <time>2023-04-10T07:07:50Z</time>
      </trkpt>
      <trkpt lat="45.44858" lon="5.64888">
        <ele>581</ele>
        <time>2023-04-10T07:07:52Z</time>
      </trkpt>
      <trkpt lat="45.44856" lon="5.64888">
        <ele>581</ele>
        <time>2023-04-10T07:07:53Z</time>
      </trkpt>
      <trkpt lat="45.44853" lon="5.64887">
        <ele>581</ele>
        <time>2023-04-10T07:07:54Z</time>
      </trkpt>
      <trkpt lat="45.44851" lon="5.64886">
        <ele>581</ele>
        <time>2023-04-10T07:07:55Z</time>
      </trkpt>
      <trkpt lat="45.44849" lon="5.64885">
        <ele>581</ele>
        <time>2023-04-10T07:07:56Z</time>
      </trkpt>
      <trkpt lat="45.44847" lon="5.64884">
        <ele>581</ele>
        <time>2023-04-10T07:07:57Z</time>
      </trkpt>
      <trkpt lat="45.44846" lon="5.64883">
        <ele>581</ele>
        <time>2023-04-10T07:07:58Z</time>
      </trkpt>
      <trkpt lat="45.44844" lon="5.64883">
        <ele>581</ele>
        <time>2023-04-10T07:07:59Z</time>
      </trkpt>
      <trkpt lat="45.4484" lon="5.64881">
        <ele>582</ele>
        <time>2023-04-10T07:08:01Z</time>
      </trkpt>
      <trkpt lat="45.44837" lon="5.6488">
        <ele>583</ele>
        <time>2023-04-10T07:08:03Z</time>
      </trkpt>
      <trkpt lat="45.44834" lon="5.64878">
        <ele>583</ele>
        <time>2023-04-10T07:08:04Z</time>
      </trkpt>
      <trkpt lat="45.44831" lon="5.64877">
        <ele>583</ele>
        <time>2023-04-10T07:08:07Z</time>
      </trkpt>
      <trkpt lat="45.44828" lon="5.64877">
        <ele>583</ele>
        <time>2023-04-10T07:08:09Z</time>
      </trkpt>
      <trkpt lat="45.44825" lon="5.64876">
        <ele>585</ele>
        <time>2023-04-10T07:08:11Z</time>
      </trkpt>
      <trkpt lat="45.44822" lon="5.64875">
        <ele>586</ele>
        <time>2023-04-10T07:08:13Z</time>
      </trkpt>
      <trkpt lat="45.44819" lon="5.64874">
        <ele>586</ele>
        <time>2023-04-10T07:08:15Z</time>
      </trkpt>
      <trkpt lat="45.44817" lon="5.64873">
        <ele>586</ele>
        <time>2023-04-10T07:08:17Z</time>
      </trkpt>
      <trkpt lat="45.44814" lon="5.64872">
        <ele>587</ele>
        <time>2023-04-10T07:08:19Z</time>
      </trkpt>
      <trkpt lat="45.44812" lon="5.6487">
        <ele>588</ele>
        <time>2023-04-10T07:08:21Z</time>
      </trkpt>
      <trkpt lat="45.44809" lon="5.64868">
        <ele>590</ele>
        <time>2023-04-10T07:08:23Z</time>
      </trkpt>
      <trkpt lat="45.44807" lon="5.64866">
        <ele>590</ele>
        <time>2023-04-10T07:08:25Z</time>
      </trkpt>
      <trkpt lat="45.44804" lon="5.64865">
        <ele>590</ele>
        <time>2023-04-10T07:08:27Z</time>
      </trkpt>
      <trkpt lat="45.44801" lon="5.64865">
        <ele>590</ele>
        <time>2023-04-10T07:08:28Z</time>
      </trkpt>
      <trkpt lat="45.44798" lon="5.64865">
        <ele>591</ele>
        <time>2023-04-10T07:08:31Z</time>
      </trkpt>
      <trkpt lat="45.44795" lon="5.64864">
        <ele>591</ele>
        <time>2023-04-10T07:08:32Z</time>
      </trkpt>
      <trkpt lat="45.44793" lon="5.64862">
        <ele>591</ele>
        <time>2023-04-10T07:08:35Z</time>
      </trkpt>
      <trkpt lat="45.44791" lon="5.64861">
        <ele>592</ele>
        <time>2023-04-10T07:08:36Z</time>
      </trkpt>
      <trkpt lat="45.44788" lon="5.6486">
        <ele>592</ele>
        <time>2023-04-10T07:08:38Z</time>
      </trkpt>
      <trkpt lat="45.44786" lon="5.64858">
        <ele>593</ele>
        <time>2023-04-10T07:08:40Z</time>
      </trkpt>
      <trkpt lat="45.44784" lon="5.64858">
        <ele>594</ele>
        <time>2023-04-10T07:08:41Z</time>
      </trkpt>
      <trkpt lat="45.44782" lon="5.64858">
        <ele>594</ele>
        <time>2023-04-10T07:08:42Z</time>
      </trkpt>
      <trkpt lat="45.4478" lon="5.64857">
        <ele>595</ele>
        <time>2023-04-10T07:08:43Z</time>
      </trkpt>
      <trkpt lat="45.44777" lon="5.64855">
        <ele>595</ele>
        <time>2023-04-10T07:08:45Z</time>
      </trkpt>
      <trkpt lat="45.44774" lon="5.64853">
        <ele>596</ele>
        <time>2023-04-10T07:08:47Z</time>
      </trkpt>
      <trkpt lat="45.44771" lon="5.64851">
        <ele>597</ele>
        <time>2023-04-10T07:08:49Z</time>
      </trkpt>
      <trkpt lat="45.44768" lon="5.6485">
        <ele>597</ele>
        <time>2023-04-10T07:08:51Z</time>
      </trkpt>
      <trkpt lat="45.44765" lon="5.64848">
        <ele>598</ele>
        <time>2023-04-10T07:08:53Z</time>
      </trkpt>
      <trkpt lat="45.44763" lon="5.64845">
        <ele>599</ele>
        <time>2023-04-10T07:08:55Z</time>
      </trkpt>
      <trkpt lat="45.44761" lon="5.64843">
        <ele>599</ele>
        <time>2023-04-10T07:08:57Z</time>
      </trkpt>
      <trkpt lat="45.44758" lon="5.64841">
        <ele>599</ele>
        <time>2023-04-10T07:08:59Z</time>
      </trkpt>
      <trkpt lat="45.44755" lon="5.64837">
        <ele>599</ele>
        <time>2023-04-10T07:09:01Z</time>
      </trkpt>
      <trkpt lat="45.44754" lon="5.64835">
        <ele>599</ele>
        <time>2023-04-10T07:09:02Z</time>
      </trkpt>
      <trkpt lat="45.44752" lon="5.64834">
        <ele>599</ele>
        <time>2023-04-10T07:09:03Z</time>
      </trkpt>
      <trkpt lat="45.4475" lon="5.64831">
        <ele>599</ele>
        <time>2023-04-10T07:09:05Z</time>
      </trkpt>
      <trkpt lat="45.44748" lon="5.64827">
        <ele>599</ele>
        <time>2023-04-10T07:09:06Z</time>
      </trkpt>
      <trkpt lat="45.44746" lon="5.64825">
        <ele>600</ele>
        <time>2023-04-10T07:09:08Z</time>
      </trkpt>
      <trkpt lat="45.44745" lon="5.64822">
        <ele>600</ele>
        <time>2023-04-10T07:09:09Z</time>
      </trkpt>
      <trkpt lat="45.44743" lon="5.6482">
        <ele>600</ele>
        <time>2023-04-10T07:09:10Z</time>
      </trkpt>
      <trkpt lat="45.44742" lon="5.64818">
        <ele>600</ele>
        <time>2023-04-10T07:09:11Z</time>
      </trkpt>
      <trkpt lat="45.4474" lon="5.64816">
        <ele>601</ele>
        <time>2023-04-10T07:09:12Z</time>
      </trkpt>
      <trkpt lat="45.44738" lon="5.64814">
        <ele>602</ele>
        <time>2023-04-10T07:09:14Z</time>
      </trkpt>
      <trkpt lat="45.44735" lon="5.64811">
        <ele>602</ele>
        <time>2023-04-10T07:09:16Z</time>
      </trkpt>
      <trkpt lat="45.44732" lon="5.64808">
        <ele>603</ele>
        <time>2023-04-10T07:09:18Z</time>
      </trkpt>
      <trkpt lat="45.4473" lon="5.64807">
        <ele>603</ele>
        <time>2023-04-10T07:09:19Z</time>
      </trkpt>
      <trkpt lat="45.44728" lon="5.64803">
        <ele>603</ele>
        <time>2023-04-10T07:09:21Z</time>
      </trkpt>
      <trkpt lat="45.44727" lon="5.64802">
        <ele>603</ele>
        <time>2023-04-10T07:09:22Z</time>
      </trkpt>
      <trkpt lat="45.44725" lon="5.648">
        <ele>604</ele>
        <time>2023-04-10T07:09:23Z</time>
      </trkpt>
      <trkpt lat="45.44723" lon="5.64798">
        <ele>604</ele>
        <time>2023-04-10T07:09:24Z</time>
      </trkpt>
      <trkpt lat="45.44721" lon="5.64796">
        <ele>604</ele>
        <time>2023-04-10T07:09:25Z</time>
      </trkpt>
      <trkpt lat="45.44719" lon="5.64793">
        <ele>604</ele>
        <time>2023-04-10T07:09:27Z</time>
      </trkpt>
      <trkpt lat="45.44717" lon="5.64792">
        <ele>604</ele>
        <time>2023-04-10T07:09:28Z</time>
      </trkpt>
      <trkpt lat="45.44714" lon="5.64789">
        <ele>604</ele>
        <time>2023-04-10T07:09:30Z</time>
      </trkpt>
      <trkpt lat="45.44712" lon="5.64788">
        <ele>604</ele>
        <time>2023-04-10T07:09:31Z</time>
      </trkpt>
      <trkpt lat="45.44709" lon="5.64785">
        <ele>605</ele>
        <time>2023-04-10T07:09:33Z</time>
      </trkpt>
      <trkpt lat="45.44707" lon="5.64784">
        <ele>605</ele>
        <time>2023-04-10T07:09:34Z</time>
      </trkpt>
      <trkpt lat="45.44705" lon="5.64782">
        <ele>605</ele>
        <time>2023-04-10T07:09:35Z</time>
      </trkpt>
      <trkpt lat="45.44703" lon="5.64781">
        <ele>605</ele>
        <time>2023-04-10T07:09:36Z</time>
      </trkpt>
      <trkpt lat="45.44701" lon="5.6478">
        <ele>605</ele>
        <time>2023-04-10T07:09:37Z</time>
      </trkpt>
      <trkpt lat="45.447" lon="5.64778">
        <ele>605</ele>
        <time>2023-04-10T07:09:38Z</time>
      </trkpt>
      <trkpt lat="45.44697" lon="5.64775">
        <ele>606</ele>
        <time>2023-04-10T07:09:40Z</time>
      </trkpt>
      <trkpt lat="45.44696" lon="5.64773">
        <ele>606</ele>
        <time>2023-04-10T07:09:41Z</time>
      </trkpt>
      <trkpt lat="45.44693" lon="5.64771">
        <ele>607</ele>
        <time>2023-04-10T07:09:43Z</time>
      </trkpt>
      <trkpt lat="45.44689" lon="5.64767">
        <ele>607</ele>
        <time>2023-04-10T07:09:44Z</time>
      </trkpt>
      <trkpt lat="45.44687" lon="5.64765">
        <ele>608</ele>
        <time>2023-04-10T07:09:46Z</time>
      </trkpt>
      <trkpt lat="45.44686" lon="5.64763">
        <ele>608</ele>
        <time>2023-04-10T07:09:47Z</time>
      </trkpt>
      <trkpt lat="45.44684" lon="5.64762">
        <ele>608</ele>
        <time>2023-04-10T07:09:48Z</time>
      </trkpt>
      <trkpt lat="45.44682" lon="5.6476">
        <ele>608</ele>
        <time>2023-04-10T07:09:49Z</time>
      </trkpt>
      <trkpt lat="45.44681" lon="5.64758">
        <ele>608</ele>
        <time>2023-04-10T07:09:50Z</time>
      </trkpt>
      <trkpt lat="45.44679" lon="5.64757">
        <ele>608</ele>
        <time>2023-04-10T07:09:51Z</time>
      </trkpt>
      <trkpt lat="45.44676" lon="5.64754">
        <ele>608</ele>
        <time>2023-04-10T07:09:53Z</time>
      </trkpt>
      <trkpt lat="45.44674" lon="5.64752">
        <ele>608</ele>
        <time>2023-04-10T07:09:54Z</time>
      </trkpt>
      <trkpt lat="45.44672" lon="5.64751">
        <ele>608</ele>
        <time>2023-04-10T07:09:55Z</time>
      </trkpt>
      <trkpt lat="45.4467" lon="5.64749">
        <ele>608</ele>
        <time>2023-04-10T07:09:56Z</time>
      </trkpt>
      <trkpt lat="45.44668" lon="5.64748">
        <ele>608</ele>
        <time>2023-04-10T07:09:57Z</time>
      </trkpt>
      <trkpt lat="45.44666" lon="5.64746">
        <ele>608</ele>
        <time>2023-04-10T07:09:58Z</time>
      </trkpt>
      <trkpt lat="45.44664" lon="5.64744">
        <ele>608</ele>
        <time>2023-04-10T07:09:59Z</time>
      </trkpt>
      <trkpt lat="45.4466" lon="5.64741">
        <ele>609</ele>
        <time>2023-04-10T07:10:00Z</time>
      </trkpt>
      <trkpt lat="45.44658" lon="5.6474">
        <ele>609</ele>
        <time>2023-04-10T07:10:02Z</time>
      </trkpt>
      <trkpt lat="45.44657" lon="5.64739">
        <ele>609</ele>
        <time>2023-04-10T07:10:03Z</time>
      </trkpt>
      <trkpt lat="45.44654" lon="5.64736">
        <ele>610</ele>
        <time>2023-04-10T07:10:05Z</time>
      </trkpt>
      <trkpt lat="45.44652" lon="5.64735">
        <ele>610</ele>
        <time>2023-04-10T07:10:06Z</time>
      </trkpt>
      <trkpt lat="45.4465" lon="5.64734">
        <ele>610</ele>
        <time>2023-04-10T07:10:07Z</time>
      </trkpt>
      <trkpt lat="45.44648" lon="5.64732">
        <ele>610</ele>
        <time>2023-04-10T07:10:08Z</time>
      </trkpt>
      <trkpt lat="45.44646" lon="5.64731">
        <ele>610</ele>
        <time>2023-04-10T07:10:09Z</time>
      </trkpt>
      <trkpt lat="45.44643" lon="5.64728">
        <ele>611</ele>
        <time>2023-04-10T07:10:11Z</time>
      </trkpt>
      <trkpt lat="45.44641" lon="5.64726">
        <ele>611</ele>
        <time>2023-04-10T07:10:13Z</time>
      </trkpt>
      <trkpt lat="45.4464" lon="5.64724">
        <ele>612</ele>
        <time>2023-04-10T07:10:15Z</time>
      </trkpt>
      <trkpt lat="45.44637" lon="5.64721">
        <ele>613</ele>
        <time>2023-04-10T07:10:17Z</time>
      </trkpt>
      <trkpt lat="45.44634" lon="5.6472">
        <ele>613</ele>
        <time>2023-04-10T07:10:19Z</time>
      </trkpt>
      <trkpt lat="45.44631" lon="5.64719">
        <ele>614</ele>
        <time>2023-04-10T07:10:21Z</time>
      </trkpt>
      <trkpt lat="45.44629" lon="5.64718">
        <ele>614</ele>
        <time>2023-04-10T07:10:22Z</time>
      </trkpt>
      <trkpt lat="45.44626" lon="5.64716">
        <ele>614</ele>
        <time>2023-04-10T07:10:24Z</time>
      </trkpt>
      <trkpt lat="45.44623" lon="5.64713">
        <ele>615</ele>
        <time>2023-04-10T07:10:26Z</time>
      </trkpt>
      <trkpt lat="45.44621" lon="5.64712">
        <ele>615</ele>
        <time>2023-04-10T07:10:27Z</time>
      </trkpt>
      <trkpt lat="45.44619" lon="5.64711">
        <ele>615</ele>
        <time>2023-04-10T07:10:28Z</time>
      </trkpt>
      <trkpt lat="45.44617" lon="5.64711">
        <ele>615</ele>
        <time>2023-04-10T07:10:29Z</time>
      </trkpt>
      <trkpt lat="45.44615" lon="5.6471">
        <ele>616</ele>
        <time>2023-04-10T07:10:30Z</time>
      </trkpt>
      <trkpt lat="45.44613" lon="5.6471">
        <ele>616</ele>
        <time>2023-04-10T07:10:31Z</time>
      </trkpt>
      <trkpt lat="45.44611" lon="5.6471">
        <ele>616</ele>
        <time>2023-04-10T07:10:32Z</time>
      </trkpt>
      <trkpt lat="45.44609" lon="5.6471">
        <ele>616</ele>
        <time>2023-04-10T07:10:33Z</time>
      </trkpt>
      <trkpt lat="45.44606" lon="5.64711">
        <ele>616</ele>
        <time>2023-04-10T07:10:34Z</time>
      </trkpt>
      <trkpt lat="45.44604" lon="5.64711">
        <ele>617</ele>
        <time>2023-04-10T07:10:35Z</time>
      </trkpt>
      <trkpt lat="45.44602" lon="5.6471">
        <ele>617</ele>
        <time>2023-04-10T07:10:36Z</time>
      </trkpt>
      <trkpt lat="45.44599" lon="5.64709">
        <ele>617</ele>
        <time>2023-04-10T07:10:38Z</time>
      </trkpt>
      <trkpt lat="45.44596" lon="5.64708">
        <ele>617</ele>
        <time>2023-04-10T07:10:40Z</time>
      </trkpt>
      <trkpt lat="45.44593" lon="5.64708">
        <ele>618</ele>
        <time>2023-04-10T07:10:41Z</time>
      </trkpt>
      <trkpt lat="45.4459" lon="5.64708">
        <ele>618</ele>
        <time>2023-04-10T07:10:44Z</time>
      </trkpt>
      <trkpt lat="45.44587" lon="5.64708">
        <ele>619</ele>
        <time>2023-04-10T07:10:46Z</time>
      </trkpt>
      <trkpt lat="45.44585" lon="5.64708">
        <ele>620</ele>
        <time>2023-04-10T07:10:48Z</time>
      </trkpt>
      <trkpt lat="45.44582" lon="5.64708">
        <ele>620</ele>
        <time>2023-04-10T07:10:50Z</time>
      </trkpt>
      <trkpt lat="45.44579" lon="5.64709">
        <ele>621</ele>
        <time>2023-04-10T07:10:52Z</time>
      </trkpt>
      <trkpt lat="45.44576" lon="5.64709">
        <ele>622</ele>
        <time>2023-04-10T07:10:54Z</time>
      </trkpt>
      <trkpt lat="45.44572" lon="5.64708">
        <ele>622</ele>
        <time>2023-04-10T07:10:56Z</time>
      </trkpt>
      <trkpt lat="45.4457" lon="5.64708">
        <ele>623</ele>
        <time>2023-04-10T07:10:57Z</time>
      </trkpt>
      <trkpt lat="45.44568" lon="5.64708">
        <ele>624</ele>
        <time>2023-04-10T07:10:58Z</time>
      </trkpt>
      <trkpt lat="45.44566" lon="5.64707">
        <ele>624</ele>
        <time>2023-04-10T07:10:59Z</time>
      </trkpt>
      <trkpt lat="45.44562" lon="5.64708">
        <ele>624</ele>
        <time>2023-04-10T07:11:00Z</time>
      </trkpt>
      <trkpt lat="45.4456" lon="5.64708">
        <ele>624</ele>
        <time>2023-04-10T07:11:02Z</time>
      </trkpt>
      <trkpt lat="45.44557" lon="5.64708">
        <ele>624</ele>
        <time>2023-04-10T07:11:03Z</time>
      </trkpt>
      <trkpt lat="45.44555" lon="5.64708">
        <ele>624</ele>
        <time>2023-04-10T07:11:04Z</time>
      </trkpt>
      <trkpt lat="45.44553" lon="5.64707">
        <ele>625</ele>
        <time>2023-04-10T07:11:05Z</time>
      </trkpt>
      <trkpt lat="45.44551" lon="5.64707">
        <ele>625</ele>
        <time>2023-04-10T07:11:06Z</time>
      </trkpt>
      <trkpt lat="45.44549" lon="5.64706">
        <ele>625</ele>
        <time>2023-04-10T07:11:07Z</time>
      </trkpt>
      <trkpt lat="45.44545" lon="5.64705">
        <ele>626</ele>
        <time>2023-04-10T07:11:09Z</time>
      </trkpt>
      <trkpt lat="45.44543" lon="5.64704">
        <ele>626</ele>
        <time>2023-04-10T07:11:10Z</time>
      </trkpt>
      <trkpt lat="45.44541" lon="5.64702">
        <ele>626</ele>
        <time>2023-04-10T07:11:11Z</time>
      </trkpt>
      <trkpt lat="45.4454" lon="5.64701">
        <ele>626</ele>
        <time>2023-04-10T07:11:12Z</time>
      </trkpt>
      <trkpt lat="45.44537" lon="5.64699">
        <ele>626</ele>
        <time>2023-04-10T07:11:14Z</time>
      </trkpt>
      <trkpt lat="45.44535" lon="5.64697">
        <ele>626</ele>
        <time>2023-04-10T07:11:15Z</time>
      </trkpt>
      <trkpt lat="45.44534" lon="5.64696">
        <ele>626</ele>
        <time>2023-04-10T07:11:16Z</time>
      </trkpt>
      <trkpt lat="45.44532" lon="5.64694">
        <ele>626</ele>
        <time>2023-04-10T07:11:17Z</time>
      </trkpt>
      <trkpt lat="45.4453" lon="5.64693">
        <ele>626</ele>
        <time>2023-04-10T07:11:18Z</time>
      </trkpt>
      <trkpt lat="45.44525" lon="5.6469">
        <ele>626</ele>
        <time>2023-04-10T07:11:19Z</time>
      </trkpt>
      <trkpt lat="45.44524" lon="5.64688">
        <ele>627</ele>
        <time>2023-04-10T07:11:21Z</time>
      </trkpt>
      <trkpt lat="45.44522" lon="5.64686">
        <ele>627</ele>
        <time>2023-04-10T07:11:22Z</time>
      </trkpt>
      <trkpt lat="45.4452" lon="5.64683">
        <ele>627</ele>
        <time>2023-04-10T07:11:23Z</time>
      </trkpt>
      <trkpt lat="45.44519" lon="5.64681">
        <ele>627</ele>
        <time>2023-04-10T07:11:24Z</time>
      </trkpt>
      <trkpt lat="45.44517" lon="5.64679">
        <ele>627</ele>
        <time>2023-04-10T07:11:25Z</time>
      </trkpt>
      <trkpt lat="45.44516" lon="5.64676">
        <ele>627</ele>
        <time>2023-04-10T07:11:26Z</time>
      </trkpt>
      <trkpt lat="45.44514" lon="5.64673">
        <ele>628</ele>
        <time>2023-04-10T07:11:27Z</time>
      </trkpt>
      <trkpt lat="45.44513" lon="5.6467">
        <ele>628</ele>
        <time>2023-04-10T07:11:28Z</time>
      </trkpt>
      <trkpt lat="45.44511" lon="5.64667">
        <ele>628</ele>
        <time>2023-04-10T07:11:29Z</time>
      </trkpt>
      <trkpt lat="45.44509" lon="5.64663">
        <ele>628</ele>
        <time>2023-04-10T07:11:30Z</time>
      </trkpt>
      <trkpt lat="45.44507" lon="5.6466">
        <ele>628</ele>
        <time>2023-04-10T07:11:31Z</time>
      </trkpt>
      <trkpt lat="45.44505" lon="5.64656">
        <ele>628</ele>
        <time>2023-04-10T07:11:32Z</time>
      </trkpt>
      <trkpt lat="45.44503" lon="5.64652">
        <ele>628</ele>
        <time>2023-04-10T07:11:33Z</time>
      </trkpt>
      <trkpt lat="45.44501" lon="5.64648">
        <ele>628</ele>
        <time>2023-04-10T07:11:34Z</time>
      </trkpt>
      <trkpt lat="45.44499" lon="5.64645">
        <ele>629</ele>
        <time>2023-04-10T07:11:35Z</time>
      </trkpt>
      <trkpt lat="45.44497" lon="5.64643">
        <ele>629</ele>
        <time>2023-04-10T07:11:36Z</time>
      </trkpt>
      <trkpt lat="45.44495" lon="5.6464">
        <ele>629</ele>
        <time>2023-04-10T07:11:37Z</time>
      </trkpt>
      <trkpt lat="45.4449" lon="5.64634">
        <ele>628</ele>
        <time>2023-04-10T07:11:38Z</time>
      </trkpt>
      <trkpt lat="45.44488" lon="5.64631">
        <ele>628</ele>
        <time>2023-04-10T07:11:40Z</time>
      </trkpt>
      <trkpt lat="45.44486" lon="5.64628">
        <ele>628</ele>
        <time>2023-04-10T07:11:41Z</time>
      </trkpt>
      <trkpt lat="45.44484" lon="5.64626">
        <ele>628</ele>
        <time>2023-04-10T07:11:42Z</time>
      </trkpt>
      <trkpt lat="45.44482" lon="5.64623">
        <ele>628</ele>
        <time>2023-04-10T07:11:43Z</time>
      </trkpt>
      <trkpt lat="45.4448" lon="5.6462">
        <ele>628</ele>
        <time>2023-04-10T07:11:44Z</time>
      </trkpt>
      <trkpt lat="45.44478" lon="5.64618">
        <ele>628</ele>
        <time>2023-04-10T07:11:45Z</time>
      </trkpt>
      <trkpt lat="45.44476" lon="5.64615">
        <ele>628</ele>
        <time>2023-04-10T07:11:46Z</time>
      </trkpt>
      <trkpt lat="45.44474" lon="5.64612">
        <ele>630</ele>
        <time>2023-04-10T07:11:48Z</time>
      </trkpt>
      <trkpt lat="45.44472" lon="5.6461">
        <ele>630</ele>
        <time>2023-04-10T07:11:49Z</time>
      </trkpt>
      <trkpt lat="45.4447" lon="5.64608">
        <ele>630</ele>
        <time>2023-04-10T07:11:50Z</time>
      </trkpt>
      <trkpt lat="45.44468" lon="5.64606">
        <ele>630</ele>
        <time>2023-04-10T07:11:51Z</time>
      </trkpt>
      <trkpt lat="45.44466" lon="5.64603">
        <ele>630</ele>
        <time>2023-04-10T07:11:52Z</time>
      </trkpt>
      <trkpt lat="45.44464" lon="5.646">
        <ele>630</ele>
        <time>2023-04-10T07:11:53Z</time>
      </trkpt>
      <trkpt lat="45.44462" lon="5.64597">
        <ele>630</ele>
        <time>2023-04-10T07:11:54Z</time>
      </trkpt>
      <trkpt lat="45.4446" lon="5.64594">
        <ele>631</ele>
        <time>2023-04-10T07:11:55Z</time>
      </trkpt>
      <trkpt lat="45.44458" lon="5.64592">
        <ele>631</ele>
        <time>2023-04-10T07:11:56Z</time>
      </trkpt>
      <trkpt lat="45.44455" lon="5.64588">
        <ele>630</ele>
        <time>2023-04-10T07:11:57Z</time>
      </trkpt>
      <trkpt lat="45.44454" lon="5.64585">
        <ele>630</ele>
        <time>2023-04-10T07:11:59Z</time>
      </trkpt>
      <trkpt lat="45.44453" lon="5.64583">
        <ele>630</ele>
        <time>2023-04-10T07:12:00Z</time>
      </trkpt>
      <trkpt lat="45.44452" lon="5.6458">
        <ele>631</ele>
        <time>2023-04-10T07:12:01Z</time>
      </trkpt>
      <trkpt lat="45.44451" lon="5.64577">
        <ele>631</ele>
        <time>2023-04-10T07:12:02Z</time>
      </trkpt>
      <trkpt lat="45.4445" lon="5.64575">
        <ele>631</ele>
        <time>2023-04-10T07:12:03Z</time>
      </trkpt>
      <trkpt lat="45.44449" lon="5.64572">
        <ele>631</ele>
        <time>2023-04-10T07:12:04Z</time>
      </trkpt>
      <trkpt lat="45.44448" lon="5.64569">
        <ele>631</ele>
        <time>2023-04-10T07:12:05Z</time>
      </trkpt>
      <trkpt lat="45.44447" lon="5.64566">
        <ele>631</ele>
        <time>2023-04-10T07:12:06Z</time>
      </trkpt>
      <trkpt lat="45.44446" lon="5.64562">
        <ele>631</ele>
        <time>2023-04-10T07:12:07Z</time>
      </trkpt>
      <trkpt lat="45.44445" lon="5.64559">
        <ele>631</ele>
        <time>2023-04-10T07:12:08Z</time>
      </trkpt>
      <trkpt lat="45.44444" lon="5.64556">
        <ele>632</ele>
        <time>2023-04-10T07:12:09Z</time>
      </trkpt>
      <trkpt lat="45.44443" lon="5.64553">
        <ele>632</ele>
        <time>2023-04-10T07:12:10Z</time>
      </trkpt>
      <trkpt lat="45.44439" lon="5.64547">
        <ele>633</ele>
        <time>2023-04-10T07:12:12Z</time>
      </trkpt>
      <trkpt lat="45.44436" lon="5.64543">
        <ele>633</ele>
        <time>2023-04-10T07:12:13Z</time>
      </trkpt>
      <trkpt lat="45.44434" lon="5.64539">
        <ele>633</ele>
        <time>2023-04-10T07:12:14Z</time>
      </trkpt>
      <trkpt lat="45.44432" lon="5.64534">
        <ele>633</ele>
        <time>2023-04-10T07:12:15Z</time>
      </trkpt>
      <trkpt lat="45.44429" lon="5.64527">
        <ele>633</ele>
        <time>2023-04-10T07:12:16Z</time>
      </trkpt>
      <trkpt lat="45.44427" lon="5.64524">
        <ele>633</ele>
        <time>2023-04-10T07:12:18Z</time>
      </trkpt>
      <trkpt lat="45.44425" lon="5.6452">
        <ele>633</ele>
        <time>2023-04-10T07:12:19Z</time>
      </trkpt>
      <trkpt lat="45.44423" lon="5.64516">
        <ele>633</ele>
        <time>2023-04-10T07:12:20Z</time>
      </trkpt>
      <trkpt lat="45.44422" lon="5.64512">
        <ele>633</ele>
        <time>2023-04-10T07:12:21Z</time>
      </trkpt>
      <trkpt lat="45.44419" lon="5.64509">
        <ele>633</ele>
        <time>2023-04-10T07:12:22Z</time>
      </trkpt>
      <trkpt lat="45.44417" lon="5.64506">
        <ele>633</ele>
        <time>2023-04-10T07:12:23Z</time>
      </trkpt>
      <trkpt lat="45.44415" lon="5.64502">
        <ele>633</ele>
        <time>2023-04-10T07:12:24Z</time>
      </trkpt>
      <trkpt lat="45.44413" lon="5.64499">
        <ele>633</ele>
        <time>2023-04-10T07:12:25Z</time>
      </trkpt>
      <trkpt lat="45.44411" lon="5.64496">
        <ele>633</ele>
        <time>2023-04-10T07:12:26Z</time>
      </trkpt>
      <trkpt lat="45.44408" lon="5.64493">
        <ele>633</ele>
        <time>2023-04-10T07:12:27Z</time>
      </trkpt>
      <trkpt lat="45.44406" lon="5.64491">
        <ele>633</ele>
        <time>2023-04-10T07:12:28Z</time>
      </trkpt>
      <trkpt lat="45.44404" lon="5.64488">
        <ele>634</ele>
        <time>2023-04-10T07:12:29Z</time>
      </trkpt>
      <trkpt lat="45.44401" lon="5.64486">
        <ele>634</ele>
        <time>2023-04-10T07:12:30Z</time>
      </trkpt>
      <trkpt lat="45.44399" lon="5.64483">
        <ele>635</ele>
        <time>2023-04-10T07:12:31Z</time>
      </trkpt>
      <trkpt lat="45.44397" lon="5.6448">
        <ele>635</ele>
        <time>2023-04-10T07:12:32Z</time>
      </trkpt>
      <trkpt lat="45.44394" lon="5.64477">
        <ele>635</ele>
        <time>2023-04-10T07:12:33Z</time>
      </trkpt>
      <trkpt lat="45.44393" lon="5.64474">
        <ele>635</ele>
        <time>2023-04-10T07:12:34Z</time>
      </trkpt>
      <trkpt lat="45.44388" lon="5.6447">
        <ele>635</ele>
        <time>2023-04-10T07:12:35Z</time>
      </trkpt>
      <trkpt lat="45.44387" lon="5.64467">
        <ele>635</ele>
        <time>2023-04-10T07:12:37Z</time>
      </trkpt>
      <trkpt lat="45.44385" lon="5.64465">
        <ele>635</ele>
        <time>2023-04-10T07:12:38Z</time>
      </trkpt>
      <trkpt lat="45.44384" lon="5.64462">
        <ele>635</ele>
        <time>2023-04-10T07:12:39Z</time>
      </trkpt>
      <trkpt lat="45.44382" lon="5.64459">
        <ele>635</ele>
        <time>2023-04-10T07:12:40Z</time>
      </trkpt>
      <trkpt lat="45.44381" lon="5.64457">
        <ele>635</ele>
        <time>2023-04-10T07:12:41Z</time>
      </trkpt>
      <trkpt lat="45.44379" lon="5.64455">
        <ele>635</ele>
        <time>2023-04-10T07:12:42Z</time>
      </trkpt>
      <trkpt lat="45.44377" lon="5.64453">
        <ele>636</ele>
        <time>2023-04-10T07:12:43Z</time>
      </trkpt>
      <trkpt lat="45.44375" lon="5.64452">
        <ele>636</ele>
        <time>2023-04-10T07:12:44Z</time>
      </trkpt>
      <trkpt lat="45.44373" lon="5.6445">
        <ele>637</ele>
        <time>2023-04-10T07:12:45Z</time>
      </trkpt>
      <trkpt lat="45.44371" lon="5.64449">
        <ele>637</ele>
        <time>2023-04-10T07:12:46Z</time>
      </trkpt>
      <trkpt lat="45.4437" lon="5.64447">
        <ele>637</ele>
        <time>2023-04-10T07:12:47Z</time>
      </trkpt>
      <trkpt lat="45.44368" lon="5.64446">
        <ele>637</ele>
        <time>2023-04-10T07:12:48Z</time>
      </trkpt>
      <trkpt lat="45.44366" lon="5.64445">
        <ele>637</ele>
        <time>2023-04-10T07:12:49Z</time>
      </trkpt>
      <trkpt lat="45.44364" lon="5.64444">
        <ele>638</ele>
        <time>2023-04-10T07:12:50Z</time>
      </trkpt>
      <trkpt lat="45.44363" lon="5.64442">
        <ele>638</ele>
        <time>2023-04-10T07:12:51Z</time>
      </trkpt>
      <trkpt lat="45.44361" lon="5.64441">
        <ele>638</ele>
        <time>2023-04-10T07:12:52Z</time>
      </trkpt>
      <trkpt lat="45.44359" lon="5.6444">
        <ele>639</ele>
        <time>2023-04-10T07:12:53Z</time>
      </trkpt>
      <trkpt lat="45.44357" lon="5.6444">
        <ele>639</ele>
        <time>2023-04-10T07:12:54Z</time>
      </trkpt>
      <trkpt lat="45.44354" lon="5.6444">
        <ele>639</ele>
        <time>2023-04-10T07:12:56Z</time>
      </trkpt>
      <trkpt lat="45.44352" lon="5.64439">
        <ele>640</ele>
        <time>2023-04-10T07:12:57Z</time>
      </trkpt>
      <trkpt lat="45.4435" lon="5.64439">
        <ele>640</ele>
        <time>2023-04-10T07:12:58Z</time>
      </trkpt>
      <trkpt lat="45.44347" lon="5.64439">
        <ele>640</ele>
        <time>2023-04-10T07:13:00Z</time>
      </trkpt>
      <trkpt lat="45.44344" lon="5.64439">
        <ele>641</ele>
        <time>2023-04-10T07:13:02Z</time>
      </trkpt>
      <trkpt lat="45.44341" lon="5.64439">
        <ele>642</ele>
        <time>2023-04-10T07:13:04Z</time>
      </trkpt>
      <trkpt lat="45.44338" lon="5.6444">
        <ele>642</ele>
        <time>2023-04-10T07:13:06Z</time>
      </trkpt>
      <trkpt lat="45.44335" lon="5.6444">
        <ele>642</ele>
        <time>2023-04-10T07:13:08Z</time>
      </trkpt>
      <trkpt lat="45.44332" lon="5.6444">
        <ele>643</ele>
        <time>2023-04-10T07:13:10Z</time>
      </trkpt>
      <trkpt lat="45.44329" lon="5.64441">
        <ele>643</ele>
        <time>2023-04-10T07:13:12Z</time>
      </trkpt>
      <trkpt lat="45.44326" lon="5.64441">
        <ele>643</ele>
        <time>2023-04-10T07:13:13Z</time>
      </trkpt>
      <trkpt lat="45.44324" lon="5.64442">
        <ele>644</ele>
        <time>2023-04-10T07:13:16Z</time>
      </trkpt>
      <trkpt lat="45.44321" lon="5.64443">
        <ele>644</ele>
        <time>2023-04-10T07:13:18Z</time>
      </trkpt>
      <trkpt lat="45.44319" lon="5.64444">
        <ele>644</ele>
        <time>2023-04-10T07:13:20Z</time>
      </trkpt>
      <trkpt lat="45.44317" lon="5.64445">
        <ele>645</ele>
        <time>2023-04-10T07:13:22Z</time>
      </trkpt>
      <trkpt lat="45.44314" lon="5.64447">
        <ele>645</ele>
        <time>2023-04-10T07:13:24Z</time>
      </trkpt>
      <trkpt lat="45.44312" lon="5.64448">
        <ele>646</ele>
        <time>2023-04-10T07:13:26Z</time>
      </trkpt>
      <trkpt lat="45.44309" lon="5.6445">
        <ele>646</ele>
        <time>2023-04-10T07:13:28Z</time>
      </trkpt>
      <trkpt lat="45.44307" lon="5.64452">
        <ele>646</ele>
        <time>2023-04-10T07:13:30Z</time>
      </trkpt>
      <trkpt lat="45.44304" lon="5.64453">
        <ele>647</ele>
        <time>2023-04-10T07:13:32Z</time>
      </trkpt>
      <trkpt lat="45.44302" lon="5.64455">
        <ele>648</ele>
        <time>2023-04-10T07:13:34Z</time>
      </trkpt>
      <trkpt lat="45.44299" lon="5.64456">
        <ele>648</ele>
        <time>2023-04-10T07:13:36Z</time>
      </trkpt>
      <trkpt lat="45.44296" lon="5.64458">
        <ele>649</ele>
        <time>2023-04-10T07:13:38Z</time>
      </trkpt>
      <trkpt lat="45.44294" lon="5.64459">
        <ele>649</ele>
        <time>2023-04-10T07:13:40Z</time>
      </trkpt>
      <trkpt lat="45.44291" lon="5.6446">
        <ele>648</ele>
        <time>2023-04-10T07:13:42Z</time>
      </trkpt>
      <trkpt lat="45.44288" lon="5.64461">
        <ele>648</ele>
        <time>2023-04-10T07:13:44Z</time>
      </trkpt>
      <trkpt lat="45.44285" lon="5.64462">
        <ele>650</ele>
        <time>2023-04-10T07:13:46Z</time>
      </trkpt>
      <trkpt lat="45.44283" lon="5.64462">
        <ele>650</ele>
        <time>2023-04-10T07:13:48Z</time>
      </trkpt>
      <trkpt lat="45.44281" lon="5.64462">
        <ele>651</ele>
        <time>2023-04-10T07:13:50Z</time>
      </trkpt>
      <trkpt lat="45.44278" lon="5.64463">
        <ele>651</ele>
        <time>2023-04-10T07:13:51Z</time>
      </trkpt>
      <trkpt lat="45.44276" lon="5.64463">
        <ele>651</ele>
        <time>2023-04-10T07:13:54Z</time>
      </trkpt>
      <trkpt lat="45.44274" lon="5.64463">
        <ele>652</ele>
        <time>2023-04-10T07:13:56Z</time>
      </trkpt>
      <trkpt lat="45.44271" lon="5.64464">
        <ele>652</ele>
        <time>2023-04-10T07:13:58Z</time>
      </trkpt>
      <trkpt lat="45.44269" lon="5.64463">
        <ele>653</ele>
        <time>2023-04-10T07:14:00Z</time>
      </trkpt>
      <trkpt lat="45.44266" lon="5.64463">
        <ele>653</ele>
        <time>2023-04-10T07:14:02Z</time>
      </trkpt>
      <trkpt lat="45.44264" lon="5.64463">
        <ele>654</ele>
        <time>2023-04-10T07:14:04Z</time>
      </trkpt>
      <trkpt lat="45.44261" lon="5.64464">
        <ele>654</ele>
        <time>2023-04-10T07:14:06Z</time>
      </trkpt>
      <trkpt lat="45.44258" lon="5.64464">
        <ele>655</ele>
        <time>2023-04-10T07:14:08Z</time>
      </trkpt>
      <trkpt lat="45.44256" lon="5.64464">
        <ele>655</ele>
        <time>2023-04-10T07:14:10Z</time>
      </trkpt>
      <trkpt lat="45.44253" lon="5.64464">
        <ele>655</ele>
        <time>2023-04-10T07:14:12Z</time>
      </trkpt>
      <trkpt lat="45.44251" lon="5.64464">
        <ele>656</ele>
        <time>2023-04-10T07:14:14Z</time>
      </trkpt>
      <trkpt lat="45.44249" lon="5.64464">
        <ele>656</ele>
        <time>2023-04-10T07:14:16Z</time>
      </trkpt>
      <trkpt lat="45.44246" lon="5.64464">
        <ele>657</ele>
        <time>2023-04-10T07:14:18Z</time>
      </trkpt>
      <trkpt lat="45.44244" lon="5.64463">
        <ele>657</ele>
        <time>2023-04-10T07:14:20Z</time>
      </trkpt>
      <trkpt lat="45.44241" lon="5.64463">
        <ele>658</ele>
        <time>2023-04-10T07:14:22Z</time>
      </trkpt>
      <trkpt lat="45.44239" lon="5.64463">
        <ele>659</ele>
        <time>2023-04-10T07:14:24Z</time>
      </trkpt>
      <trkpt lat="45.44235" lon="5.64463">
        <ele>660</ele>
        <time>2023-04-10T07:14:26Z</time>
      </trkpt>
      <trkpt lat="45.44233" lon="5.64462">
        <ele>661</ele>
        <time>2023-04-10T07:14:28Z</time>
      </trkpt>
      <trkpt lat="45.4423" lon="5.64462">
        <ele>661</ele>
        <time>2023-04-10T07:14:29Z</time>
      </trkpt>
      <trkpt lat="45.44228" lon="5.64461">
        <ele>662</ele>
        <time>2023-04-10T07:14:32Z</time>
      </trkpt>
      <trkpt lat="45.44225" lon="5.6446">
        <ele>662</ele>
        <time>2023-04-10T07:14:34Z</time>
      </trkpt>
      <trkpt lat="45.44223" lon="5.64459">
        <ele>662</ele>
        <time>2023-04-10T07:14:36Z</time>
      </trkpt>
      <trkpt lat="45.4422" lon="5.64458">
        <ele>662</ele>
        <time>2023-04-10T07:14:38Z</time>
      </trkpt>
      <trkpt lat="45.44218" lon="5.64457">
        <ele>663</ele>
        <time>2023-04-10T07:14:40Z</time>
      </trkpt>
      <trkpt lat="45.44215" lon="5.64456">
        <ele>663</ele>
        <time>2023-04-10T07:14:42Z</time>
      </trkpt>
      <trkpt lat="45.44213" lon="5.64455">
        <ele>663</ele>
        <time>2023-04-10T07:14:44Z</time>
      </trkpt>
      <trkpt lat="45.4421" lon="5.64453">
        <ele>664</ele>
        <time>2023-04-10T07:14:46Z</time>
      </trkpt>
      <trkpt lat="45.44207" lon="5.64451">
        <ele>664</ele>
        <time>2023-04-10T07:14:48Z</time>
      </trkpt>
      <trkpt lat="45.44205" lon="5.6445">
        <ele>666</ele>
        <time>2023-04-10T07:14:50Z</time>
      </trkpt>
      <trkpt lat="45.44202" lon="5.64448">
        <ele>666</ele>
        <time>2023-04-10T07:14:52Z</time>
      </trkpt>
      <trkpt lat="45.442" lon="5.64446">
        <ele>666</ele>
        <time>2023-04-10T07:14:54Z</time>
      </trkpt>
      <trkpt lat="45.44198" lon="5.64444">
        <ele>667</ele>
        <time>2023-04-10T07:14:56Z</time>
      </trkpt>
      <trkpt lat="45.44195" lon="5.64442">
        <ele>667</ele>
        <time>2023-04-10T07:14:58Z</time>
      </trkpt>
      <trkpt lat="45.44193" lon="5.64439">
        <ele>668</ele>
        <time>2023-04-10T07:14:59Z</time>
      </trkpt>
      <trkpt lat="45.44191" lon="5.64437">
        <ele>668</ele>
        <time>2023-04-10T07:15:02Z</time>
      </trkpt>
      <trkpt lat="45.44189" lon="5.64435">
        <ele>668</ele>
        <time>2023-04-10T07:15:04Z</time>
      </trkpt>
      <trkpt lat="45.44187" lon="5.64432">
        <ele>668</ele>
        <time>2023-04-10T07:15:06Z</time>
      </trkpt>
      <trkpt lat="45.44186" lon="5.64429">
        <ele>669</ele>
        <time>2023-04-10T07:15:07Z</time>
      </trkpt>
      <trkpt lat="45.44184" lon="5.64427">
        <ele>669</ele>
        <time>2023-04-10T07:15:10Z</time>
      </trkpt>
      <trkpt lat="45.44182" lon="5.64425">
        <ele>669</ele>
        <time>2023-04-10T07:15:12Z</time>
      </trkpt>
      <trkpt lat="45.4418" lon="5.64422">
        <ele>670</ele>
        <time>2023-04-10T07:15:14Z</time>
      </trkpt>
      <trkpt lat="45.44179" lon="5.64419">
        <ele>671</ele>
        <time>2023-04-10T07:15:16Z</time>
      </trkpt>
      <trkpt lat="45.44177" lon="5.64417">
        <ele>671</ele>
        <time>2023-04-10T07:15:18Z</time>
      </trkpt>
      <trkpt lat="45.44175" lon="5.64414">
        <ele>672</ele>
        <time>2023-04-10T07:15:20Z</time>
      </trkpt>
      <trkpt lat="45.44173" lon="5.64411">
        <ele>673</ele>
        <time>2023-04-10T07:15:22Z</time>
      </trkpt>
      <trkpt lat="45.44171" lon="5.64408">
        <ele>673</ele>
        <time>2023-04-10T07:15:24Z</time>
      </trkpt>
      <trkpt lat="45.4417" lon="5.64406">
        <ele>674</ele>
        <time>2023-04-10T07:15:26Z</time>
      </trkpt>
      <trkpt lat="45.44168" lon="5.64403">
        <ele>675</ele>
        <time>2023-04-10T07:15:28Z</time>
      </trkpt>
      <trkpt lat="45.44166" lon="5.64401">
        <ele>675</ele>
        <time>2023-04-10T07:15:30Z</time>
      </trkpt>
      <trkpt lat="45.44165" lon="5.64399">
        <ele>675</ele>
        <time>2023-04-10T07:15:32Z</time>
      </trkpt>
      <trkpt lat="45.44163" lon="5.64396">
        <ele>675</ele>
        <time>2023-04-10T07:15:34Z</time>
      </trkpt>
      <trkpt lat="45.44161" lon="5.64394">
        <ele>676</ele>
        <time>2023-04-10T07:15:36Z</time>
      </trkpt>
      <trkpt lat="45.4416" lon="5.64392">
        <ele>676</ele>
        <time>2023-04-10T07:15:38Z</time>
      </trkpt>
      <trkpt lat="45.44158" lon="5.64389">
        <ele>677</ele>
        <time>2023-04-10T07:15:40Z</time>
      </trkpt>
      <trkpt lat="45.44156" lon="5.64387">
        <ele>677</ele>
        <time>2023-04-10T07:15:42Z</time>
      </trkpt>
      <trkpt lat="45.44154" lon="5.64384">
        <ele>678</ele>
        <time>2023-04-10T07:15:44Z</time>
      </trkpt>
      <trkpt lat="45.44152" lon="5.64382">
        <ele>678</ele>
        <time>2023-04-10T07:15:45Z</time>
      </trkpt>
      <trkpt lat="45.4415" lon="5.6438">
        <ele>678</ele>
        <time>2023-04-10T07:15:48Z</time>
      </trkpt>
      <trkpt lat="45.44147" lon="5.64377">
        <ele>679</ele>
        <time>2023-04-10T07:15:50Z</time>
      </trkpt>
      <trkpt lat="45.44145" lon="5.64375">
        <ele>679</ele>
        <time>2023-04-10T07:15:52Z</time>
      </trkpt>
      <trkpt lat="45.44142" lon="5.64372">
        <ele>679</ele>
        <time>2023-04-10T07:15:54Z</time>
      </trkpt>
      <trkpt lat="45.44139" lon="5.64369">
        <ele>680</ele>
        <time>2023-04-10T07:15:56Z</time>
      </trkpt>
      <trkpt lat="45.44137" lon="5.64368">
        <ele>680</ele>
        <time>2023-04-10T07:15:57Z</time>
      </trkpt>
      <trkpt lat="45.44136" lon="5.64367">
        <ele>680</ele>
        <time>2023-04-10T07:15:58Z</time>
      </trkpt>
      <trkpt lat="45.44134" lon="5.64365">
        <ele>680</ele>
        <time>2023-04-10T07:15:59Z</time>
      </trkpt>
      <trkpt lat="45.44133" lon="5.64363">
        <ele>680</ele>
        <time>2023-04-10T07:16:00Z</time>
      </trkpt>
      <trkpt lat="45.44131" lon="5.64361">
        <ele>680</ele>
        <time>2023-04-10T07:16:01Z</time>
      </trkpt>
      <trkpt lat="45.44128" lon="5.64357">
        <ele>680</ele>
        <time>2023-04-10T07:16:02Z</time>
      </trkpt>
      <trkpt lat="45.44124" lon="5.64353">
        <ele>681</ele>
        <time>2023-04-10T07:16:04Z</time>
      </trkpt>
      <trkpt lat="45.44123" lon="5.64351">
        <ele>680</ele>
        <time>2023-04-10T07:16:06Z</time>
      </trkpt>
      <trkpt lat="45.44121" lon="5.64349">
        <ele>680</ele>
        <time>2023-04-10T07:16:07Z</time>
      </trkpt>
      <trkpt lat="45.44119" lon="5.64347">
        <ele>680</ele>
        <time>2023-04-10T07:16:08Z</time>
      </trkpt>
      <trkpt lat="45.44118" lon="5.64345">
        <ele>680</ele>
        <time>2023-04-10T07:16:09Z</time>
      </trkpt>
      <trkpt lat="45.44116" lon="5.64343">
        <ele>681</ele>
        <time>2023-04-10T07:16:10Z</time>
      </trkpt>
      <trkpt lat="45.44114" lon="5.64341">
        <ele>681</ele>
        <time>2023-04-10T07:16:11Z</time>
      </trkpt>
      <trkpt lat="45.44113" lon="5.64338">
        <ele>681</ele>
        <time>2023-04-10T07:16:12Z</time>
      </trkpt>
      <trkpt lat="45.44111" lon="5.64336">
        <ele>681</ele>
        <time>2023-04-10T07:16:13Z</time>
      </trkpt>
      <trkpt lat="45.4411" lon="5.64334">
        <ele>681</ele>
        <time>2023-04-10T07:16:14Z</time>
      </trkpt>
      <trkpt lat="45.44108" lon="5.64333">
        <ele>681</ele>
        <time>2023-04-10T07:16:15Z</time>
      </trkpt>
      <trkpt lat="45.44107" lon="5.64331">
        <ele>682</ele>
        <time>2023-04-10T07:16:16Z</time>
      </trkpt>
      <trkpt lat="45.44106" lon="5.64329">
        <ele>682</ele>
        <time>2023-04-10T07:16:17Z</time>
      </trkpt>
      <trkpt lat="45.44105" lon="5.64326">
        <ele>682</ele>
        <time>2023-04-10T07:16:18Z</time>
      </trkpt>
      <trkpt lat="45.44103" lon="5.64324">
        <ele>682</ele>
        <time>2023-04-10T07:16:19Z</time>
      </trkpt>
      <trkpt lat="45.44102" lon="5.64322">
        <ele>682</ele>
        <time>2023-04-10T07:16:20Z</time>
      </trkpt>
      <trkpt lat="45.441" lon="5.64318">
        <ele>683</ele>
        <time>2023-04-10T07:16:22Z</time>
      </trkpt>
      <trkpt lat="45.44097" lon="5.64316">
        <ele>683</ele>
        <time>2023-04-10T07:16:23Z</time>
      </trkpt>
      <trkpt lat="45.44095" lon="5.64313">
        <ele>684</ele>
        <time>2023-04-10T07:16:26Z</time>
      </trkpt>
      <trkpt lat="45.44093" lon="5.64311">
        <ele>684</ele>
        <time>2023-04-10T07:16:27Z</time>
      </trkpt>
      <trkpt lat="45.4409" lon="5.64309">
        <ele>684</ele>
        <time>2023-04-10T07:16:29Z</time>
      </trkpt>
      <trkpt lat="45.44087" lon="5.64306">
        <ele>685</ele>
        <time>2023-04-10T07:16:31Z</time>
      </trkpt>
      <trkpt lat="45.44085" lon="5.64304">
        <ele>685</ele>
        <time>2023-04-10T07:16:33Z</time>
      </trkpt>
      <trkpt lat="45.44082" lon="5.64301">
        <ele>686</ele>
        <time>2023-04-10T07:16:35Z</time>
      </trkpt>
      <trkpt lat="45.44079" lon="5.64298">
        <ele>686</ele>
        <time>2023-04-10T07:16:37Z</time>
      </trkpt>
      <trkpt lat="45.44077" lon="5.64295">
        <ele>686</ele>
        <time>2023-04-10T07:16:39Z</time>
      </trkpt>
      <trkpt lat="45.44074" lon="5.64291">
        <ele>687</ele>
        <time>2023-04-10T07:16:41Z</time>
      </trkpt>
      <trkpt lat="45.44071" lon="5.64287">
        <ele>687</ele>
        <time>2023-04-10T07:16:42Z</time>
      </trkpt>
      <trkpt lat="45.4407" lon="5.64286">
        <ele>688</ele>
        <time>2023-04-10T07:16:44Z</time>
      </trkpt>
      <trkpt lat="45.44069" lon="5.64284">
        <ele>688</ele>
        <time>2023-04-10T07:16:45Z</time>
      </trkpt>
      <trkpt lat="45.44068" lon="5.64282">
        <ele>689</ele>
        <time>2023-04-10T07:16:46Z</time>
      </trkpt>
      <trkpt lat="45.44066" lon="5.6428">
        <ele>689</ele>
        <time>2023-04-10T07:16:47Z</time>
      </trkpt>
      <trkpt lat="45.44064" lon="5.64277">
        <ele>690</ele>
        <time>2023-04-10T07:16:49Z</time>
      </trkpt>
      <trkpt lat="45.44063" lon="5.64275">
        <ele>690</ele>
        <time>2023-04-10T07:16:50Z</time>
      </trkpt>
      <trkpt lat="45.44061" lon="5.64273">
        <ele>691</ele>
        <time>2023-04-10T07:16:51Z</time>
      </trkpt>
      <trkpt lat="45.44059" lon="5.64269">
        <ele>691</ele>
        <time>2023-04-10T07:16:53Z</time>
      </trkpt>
      <trkpt lat="45.44057" lon="5.64266">
        <ele>691</ele>
        <time>2023-04-10T07:16:55Z</time>
      </trkpt>
      <trkpt lat="45.44054" lon="5.64262">
        <ele>693</ele>
        <time>2023-04-10T07:16:57Z</time>
      </trkpt>
      <trkpt lat="45.44052" lon="5.64259">
        <ele>693</ele>
        <time>2023-04-10T07:16:59Z</time>
      </trkpt>
      <trkpt lat="45.44049" lon="5.64256">
        <ele>693</ele>
        <time>2023-04-10T07:17:01Z</time>
      </trkpt>
      <trkpt lat="45.44046" lon="5.64254">
        <ele>693</ele>
        <time>2023-04-10T07:17:03Z</time>
      </trkpt>
      <trkpt lat="45.44044" lon="5.64251">
        <ele>693</ele>
        <time>2023-04-10T07:17:05Z</time>
      </trkpt>
      <trkpt lat="45.44041" lon="5.64248">
        <ele>693</ele>
        <time>2023-04-10T07:17:07Z</time>
      </trkpt>
      <trkpt lat="45.44038" lon="5.64245">
        <ele>694</ele>
        <time>2023-04-10T07:17:09Z</time>
      </trkpt>
      <trkpt lat="45.44036" lon="5.64242">
        <ele>694</ele>
        <time>2023-04-10T07:17:11Z</time>
      </trkpt>
      <trkpt lat="45.44032" lon="5.6424">
        <ele>695</ele>
        <time>2023-04-10T07:17:13Z</time>
      </trkpt>
      <trkpt lat="45.4403" lon="5.64237">
        <ele>695</ele>
        <time>2023-04-10T07:17:15Z</time>
      </trkpt>
      <trkpt lat="45.44027" lon="5.64234">
        <ele>695</ele>
        <time>2023-04-10T07:17:17Z</time>
      </trkpt>
      <trkpt lat="45.44025" lon="5.64232">
        <ele>696</ele>
        <time>2023-04-10T07:17:19Z</time>
      </trkpt>
      <trkpt lat="45.44022" lon="5.64229">
        <ele>696</ele>
        <time>2023-04-10T07:17:20Z</time>
      </trkpt>
      <trkpt lat="45.44019" lon="5.64227">
        <ele>697</ele>
        <time>2023-04-10T07:17:23Z</time>
      </trkpt>
      <trkpt lat="45.44017" lon="5.64225">
        <ele>698</ele>
        <time>2023-04-10T07:17:24Z</time>
      </trkpt>
      <trkpt lat="45.44015" lon="5.64224">
        <ele>698</ele>
        <time>2023-04-10T07:17:25Z</time>
      </trkpt>
      <trkpt lat="45.44014" lon="5.64223">
        <ele>698</ele>
        <time>2023-04-10T07:17:26Z</time>
      </trkpt>
      <trkpt lat="45.44012" lon="5.64221">
        <ele>698</ele>
        <time>2023-04-10T07:17:27Z</time>
      </trkpt>
      <trkpt lat="45.44011" lon="5.64219">
        <ele>698</ele>
        <time>2023-04-10T07:17:28Z</time>
      </trkpt>
      <trkpt lat="45.44008" lon="5.64217">
        <ele>699</ele>
        <time>2023-04-10T07:17:30Z</time>
      </trkpt>
      <trkpt lat="45.44005" lon="5.64214">
        <ele>699</ele>
        <time>2023-04-10T07:17:32Z</time>
      </trkpt>
      <trkpt lat="45.44002" lon="5.64211">
        <ele>699</ele>
        <time>2023-04-10T07:17:34Z</time>
      </trkpt>
      <trkpt lat="45.43999" lon="5.64209">
        <ele>700</ele>
        <time>2023-04-10T07:17:36Z</time>
      </trkpt>
      <trkpt lat="45.43996" lon="5.64206">
        <ele>701</ele>
        <time>2023-04-10T07:17:38Z</time>
      </trkpt>
      <trkpt lat="45.43995" lon="5.64205">
        <ele>701</ele>
        <time>2023-04-10T07:17:39Z</time>
      </trkpt>
      <trkpt lat="45.43992" lon="5.64202">
        <ele>701</ele>
        <time>2023-04-10T07:17:41Z</time>
      </trkpt>
      <trkpt lat="45.43989" lon="5.64199">
        <ele>701</ele>
        <time>2023-04-10T07:17:43Z</time>
      </trkpt>
      <trkpt lat="45.43986" lon="5.64196">
        <ele>702</ele>
        <time>2023-04-10T07:17:45Z</time>
      </trkpt>
      <trkpt lat="45.43984" lon="5.64195">
        <ele>702</ele>
        <time>2023-04-10T07:17:46Z</time>
      </trkpt>
      <trkpt lat="45.43981" lon="5.64192">
        <ele>702</ele>
        <time>2023-04-10T07:17:48Z</time>
      </trkpt>
      <trkpt lat="45.43978" lon="5.6419">
        <ele>704</ele>
        <time>2023-04-10T07:17:50Z</time>
      </trkpt>
      <trkpt lat="45.43975" lon="5.64187">
        <ele>704</ele>
        <time>2023-04-10T07:17:52Z</time>
      </trkpt>
      <trkpt lat="45.43972" lon="5.64185">
        <ele>705</ele>
        <time>2023-04-10T07:17:54Z</time>
      </trkpt>
      <trkpt lat="45.43969" lon="5.64182">
        <ele>705</ele>
        <time>2023-04-10T07:17:56Z</time>
      </trkpt>
      <trkpt lat="45.43967" lon="5.6418">
        <ele>705</ele>
        <time>2023-04-10T07:17:58Z</time>
      </trkpt>
      <trkpt lat="45.43964" lon="5.64178">
        <ele>705</ele>
        <time>2023-04-10T07:18:00Z</time>
      </trkpt>
      <trkpt lat="45.4396" lon="5.64176">
        <ele>706</ele>
        <time>2023-04-10T07:18:02Z</time>
      </trkpt>
      <trkpt lat="45.43958" lon="5.64173">
        <ele>706</ele>
        <time>2023-04-10T07:18:04Z</time>
      </trkpt>
      <trkpt lat="45.43955" lon="5.6417">
        <ele>707</ele>
        <time>2023-04-10T07:18:06Z</time>
      </trkpt>
      <trkpt lat="45.43952" lon="5.64169">
        <ele>708</ele>
        <time>2023-04-10T07:18:08Z</time>
      </trkpt>
      <trkpt lat="45.43948" lon="5.64167">
        <ele>708</ele>
        <time>2023-04-10T07:18:10Z</time>
      </trkpt>
      <trkpt lat="45.43945" lon="5.64165">
        <ele>709</ele>
        <time>2023-04-10T07:18:12Z</time>
      </trkpt>
      <trkpt lat="45.43942" lon="5.64163">
        <ele>710</ele>
        <time>2023-04-10T07:18:14Z</time>
      </trkpt>
      <trkpt lat="45.43939" lon="5.64161">
        <ele>710</ele>
        <time>2023-04-10T07:18:16Z</time>
      </trkpt>
      <trkpt lat="45.43937" lon="5.6416">
        <ele>710</ele>
        <time>2023-04-10T07:18:17Z</time>
      </trkpt>
      <trkpt lat="45.43934" lon="5.64158">
        <ele>710</ele>
        <time>2023-04-10T07:18:20Z</time>
      </trkpt>
      <trkpt lat="45.43932" lon="5.64156">
        <ele>710</ele>
        <time>2023-04-10T07:18:22Z</time>
      </trkpt>
      <trkpt lat="45.4393" lon="5.64155">
        <ele>711</ele>
        <time>2023-04-10T07:18:24Z</time>
      </trkpt>
      <trkpt lat="45.43927" lon="5.64154">
        <ele>711</ele>
        <time>2023-04-10T07:18:26Z</time>
      </trkpt>
      <trkpt lat="45.43924" lon="5.64153">
        <ele>711</ele>
        <time>2023-04-10T07:18:28Z</time>
      </trkpt>
      <trkpt lat="45.43922" lon="5.64151">
        <ele>711</ele>
        <time>2023-04-10T07:18:30Z</time>
      </trkpt>
      <trkpt lat="45.43919" lon="5.6415">
        <ele>712</ele>
        <time>2023-04-10T07:18:32Z</time>
      </trkpt>
      <trkpt lat="45.43917" lon="5.64149">
        <ele>713</ele>
        <time>2023-04-10T07:18:34Z</time>
      </trkpt>
      <trkpt lat="45.43914" lon="5.64148">
        <ele>713</ele>
        <time>2023-04-10T07:18:36Z</time>
      </trkpt>
      <trkpt lat="45.43911" lon="5.64147">
        <ele>714</ele>
        <time>2023-04-10T07:18:38Z</time>
      </trkpt>
      <trkpt lat="45.43907" lon="5.64146">
        <ele>715</ele>
        <time>2023-04-10T07:18:40Z</time>
      </trkpt>
      <trkpt lat="45.43904" lon="5.64145">
        <ele>715</ele>
        <time>2023-04-10T07:18:42Z</time>
      </trkpt>
      <trkpt lat="45.43901" lon="5.64144">
        <ele>716</ele>
        <time>2023-04-10T07:18:44Z</time>
      </trkpt>
      <trkpt lat="45.43897" lon="5.64143">
        <ele>716</ele>
        <time>2023-04-10T07:18:46Z</time>
      </trkpt>
      <trkpt lat="45.43894" lon="5.64141">
        <ele>717</ele>
        <time>2023-04-10T07:18:48Z</time>
      </trkpt>
      <trkpt lat="45.43891" lon="5.6414">
        <ele>717</ele>
        <time>2023-04-10T07:18:50Z</time>
      </trkpt>
      <trkpt lat="45.43888" lon="5.64139">
        <ele>717</ele>
        <time>2023-04-10T07:18:52Z</time>
      </trkpt>
      <trkpt lat="45.43884" lon="5.64137">
        <ele>718</ele>
        <time>2023-04-10T07:18:54Z</time>
      </trkpt>
      <trkpt lat="45.43881" lon="5.64136">
        <ele>717</ele>
        <time>2023-04-10T07:18:55Z</time>
      </trkpt>
      <trkpt lat="45.43878" lon="5.64136">
        <ele>718</ele>
        <time>2023-04-10T07:18:58Z</time>
      </trkpt>
      <trkpt lat="45.43874" lon="5.64135">
        <ele>718</ele>
        <time>2023-04-10T07:19:00Z</time>
      </trkpt>
      <trkpt lat="45.43871" lon="5.64134">
        <ele>719</ele>
        <time>2023-04-10T07:19:02Z</time>
      </trkpt>
      <trkpt lat="45.43868" lon="5.64133">
        <ele>719</ele>
        <time>2023-04-10T07:19:04Z</time>
      </trkpt>
      <trkpt lat="45.43864" lon="5.64133">
        <ele>720</ele>
        <time>2023-04-10T07:19:06Z</time>
      </trkpt>
      <trkpt lat="45.43861" lon="5.64133">
        <ele>721</ele>
        <time>2023-04-10T07:19:08Z</time>
      </trkpt>
      <trkpt lat="45.43858" lon="5.64133">
        <ele>721</ele>
        <time>2023-04-10T07:19:10Z</time>
      </trkpt>
      <trkpt lat="45.43855" lon="5.64133">
        <ele>721</ele>
        <time>2023-04-10T07:19:12Z</time>
      </trkpt>
      <trkpt lat="45.43851" lon="5.64133">
        <ele>722</ele>
        <time>2023-04-10T07:19:14Z</time>
      </trkpt>
      <trkpt lat="45.43848" lon="5.64132">
        <ele>722</ele>
        <time>2023-04-10T07:19:16Z</time>
      </trkpt>
      <trkpt lat="45.43845" lon="5.64132">
        <ele>722</ele>
        <time>2023-04-10T07:19:18Z</time>
      </trkpt>
      <trkpt lat="45.43841" lon="5.64131">
        <ele>723</ele>
        <time>2023-04-10T07:19:20Z</time>
      </trkpt>
      <trkpt lat="45.43838" lon="5.6413">
        <ele>723</ele>
        <time>2023-04-10T07:19:22Z</time>
      </trkpt>
      <trkpt lat="45.43834" lon="5.64129">
        <ele>724</ele>
        <time>2023-04-10T07:19:24Z</time>
      </trkpt>
      <trkpt lat="45.43831" lon="5.64128">
        <ele>724</ele>
        <time>2023-04-10T07:19:26Z</time>
      </trkpt>
      <trkpt lat="45.43827" lon="5.64127">
        <ele>724</ele>
        <time>2023-04-10T07:19:28Z</time>
      </trkpt>
      <trkpt lat="45.43824" lon="5.64126">
        <ele>724</ele>
        <time>2023-04-10T07:19:30Z</time>
      </trkpt>
      <trkpt lat="45.43821" lon="5.64125">
        <ele>725</ele>
        <time>2023-04-10T07:19:32Z</time>
      </trkpt>
      <trkpt lat="45.43818" lon="5.64124">
        <ele>725</ele>
        <time>2023-04-10T07:19:33Z</time>
      </trkpt>
      <trkpt lat="45.43815" lon="5.64123">
        <ele>725</ele>
        <time>2023-04-10T07:19:36Z</time>
      </trkpt>
      <trkpt lat="45.43812" lon="5.64121">
        <ele>726</ele>
        <time>2023-04-10T07:19:38Z</time>
      </trkpt>
      <trkpt lat="45.43809" lon="5.64121">
        <ele>726</ele>
        <time>2023-04-10T07:19:40Z</time>
      </trkpt>
      <trkpt lat="45.43807" lon="5.6412">
        <ele>726</ele>
        <time>2023-04-10T07:19:42Z</time>
      </trkpt>
      <trkpt lat="45.43805" lon="5.64119">
        <ele>726</ele>
        <time>2023-04-10T07:19:44Z</time>
      </trkpt>
      <trkpt lat="45.43805" lon="5.64116">
        <ele>726</ele>
        <time>2023-04-10T07:19:49Z</time>
      </trkpt>
      <trkpt lat="45.43804" lon="5.64113">
        <ele>726</ele>
        <time>2023-04-10T07:19:53Z</time>
      </trkpt>
      <trkpt lat="45.43804" lon="5.64113">
        <ele>726</ele>
        <time>2023-04-10T07:19:56Z</time>
      </trkpt>
      <trkpt lat="45.43797" lon="5.64113">
        <ele>724</ele>
        <time>2023-04-10T07:22:37Z</time>
      </trkpt>
      <trkpt lat="45.4379" lon="5.64108">
        <ele>724</ele>
        <time>2023-04-10T07:22:38Z</time>
      </trkpt>
      <trkpt lat="45.43785" lon="5.64105">
        <ele>724</ele>
        <time>2023-04-10T07:22:40Z</time>
      </trkpt>
      <trkpt lat="45.4378" lon="5.64101">
        <ele>723</ele>
        <time>2023-04-10T07:22:41Z</time>
      </trkpt>
      <trkpt lat="45.43773" lon="5.64097">
        <ele>722</ele>
        <time>2023-04-10T07:22:42Z</time>
      </trkpt>
      <trkpt lat="45.43766" lon="5.64093">
        <ele>722</ele>
        <time>2023-04-10T07:22:43Z</time>
      </trkpt>
      <trkpt lat="45.4376" lon="5.64087">
        <ele>722</ele>
        <time>2023-04-10T07:22:44Z</time>
      </trkpt>
      <trkpt lat="45.43752" lon="5.64081">
        <ele>722</ele>
        <time>2023-04-10T07:22:45Z</time>
      </trkpt>
      <trkpt lat="45.43745" lon="5.64075">
        <ele>721</ele>
        <time>2023-04-10T07:22:46Z</time>
      </trkpt>
      <trkpt lat="45.43737" lon="5.64069">
        <ele>721</ele>
        <time>2023-04-10T07:22:47Z</time>
      </trkpt>
      <trkpt lat="45.43729" lon="5.64065">
        <ele>720</ele>
        <time>2023-04-10T07:22:48Z</time>
      </trkpt>
      <trkpt lat="45.43721" lon="5.64062">
        <ele>719</ele>
        <time>2023-04-10T07:22:49Z</time>
      </trkpt>
      <trkpt lat="45.43712" lon="5.64061">
        <ele>718</ele>
        <time>2023-04-10T07:22:50Z</time>
      </trkpt>
      <trkpt lat="45.43704" lon="5.64062">
        <ele>718</ele>
        <time>2023-04-10T07:22:51Z</time>
      </trkpt>
      <trkpt lat="45.43695" lon="5.64063">
        <ele>718</ele>
        <time>2023-04-10T07:22:52Z</time>
      </trkpt>
      <trkpt lat="45.43686" lon="5.64064">
        <ele>717</ele>
        <time>2023-04-10T07:22:53Z</time>
      </trkpt>
      <trkpt lat="45.43676" lon="5.64066">
        <ele>717</ele>
        <time>2023-04-10T07:22:54Z</time>
      </trkpt>
      <trkpt lat="45.43666" lon="5.64067">
        <ele>716</ele>
        <time>2023-04-10T07:22:55Z</time>
      </trkpt>
      <trkpt lat="45.43656" lon="5.64068">
        <ele>716</ele>
        <time>2023-04-10T07:22:56Z</time>
      </trkpt>
      <trkpt lat="45.43635" lon="5.64073">
        <ele>714</ele>
        <time>2023-04-10T07:22:57Z</time>
      </trkpt>
      <trkpt lat="45.43624" lon="5.64079">
        <ele>712</ele>
        <time>2023-04-10T07:22:59Z</time>
      </trkpt>
      <trkpt lat="45.43614" lon="5.64087">
        <ele>711</ele>
        <time>2023-04-10T07:23:00Z</time>
      </trkpt>
      <trkpt lat="45.43604" lon="5.64096">
        <ele>711</ele>
        <time>2023-04-10T07:23:01Z</time>
      </trkpt>
      <trkpt lat="45.43594" lon="5.64107">
        <ele>709</ele>
        <time>2023-04-10T07:23:02Z</time>
      </trkpt>
      <trkpt lat="45.43584" lon="5.64118">
        <ele>707</ele>
        <time>2023-04-10T07:23:03Z</time>
      </trkpt>
      <trkpt lat="45.43573" lon="5.64128">
        <ele>706</ele>
        <time>2023-04-10T07:23:04Z</time>
      </trkpt>
      <trkpt lat="45.43562" lon="5.64135">
        <ele>704</ele>
        <time>2023-04-10T07:23:05Z</time>
      </trkpt>
      <trkpt lat="45.43552" lon="5.64142">
        <ele>703</ele>
        <time>2023-04-10T07:23:06Z</time>
      </trkpt>
      <trkpt lat="45.43541" lon="5.64149">
        <ele>700</ele>
        <time>2023-04-10T07:23:07Z</time>
      </trkpt>
      <trkpt lat="45.4353" lon="5.6416">
        <ele>698</ele>
        <time>2023-04-10T07:23:08Z</time>
      </trkpt>
      <trkpt lat="45.43518" lon="5.64172">
        <ele>696</ele>
        <time>2023-04-10T07:23:09Z</time>
      </trkpt>
      <trkpt lat="45.43506" lon="5.64183">
        <ele>694</ele>
        <time>2023-04-10T07:23:10Z</time>
      </trkpt>
      <trkpt lat="45.43492" lon="5.64193">
        <ele>693</ele>
        <time>2023-04-10T07:23:11Z</time>
      </trkpt>
      <trkpt lat="45.4348" lon="5.642">
        <ele>692</ele>
        <time>2023-04-10T07:23:12Z</time>
      </trkpt>
      <trkpt lat="45.4347" lon="5.6421">
        <ele>689</ele>
        <time>2023-04-10T07:23:13Z</time>
      </trkpt>
      <trkpt lat="45.43462" lon="5.64222">
        <ele>686</ele>
        <time>2023-04-10T07:23:14Z</time>
      </trkpt>
      <trkpt lat="45.43457" lon="5.64237">
        <ele>685</ele>
        <time>2023-04-10T07:23:15Z</time>
      </trkpt>
      <trkpt lat="45.43453" lon="5.64253">
        <ele>684</ele>
        <time>2023-04-10T07:23:16Z</time>
      </trkpt>
      <trkpt lat="45.4345" lon="5.64269">
        <ele>683</ele>
        <time>2023-04-10T07:23:17Z</time>
      </trkpt>
      <trkpt lat="45.43446" lon="5.64284">
        <ele>683</ele>
        <time>2023-04-10T07:23:18Z</time>
      </trkpt>
      <trkpt lat="45.43441" lon="5.64298">
        <ele>683</ele>
        <time>2023-04-10T07:23:19Z</time>
      </trkpt>
      <trkpt lat="45.43436" lon="5.64311">
        <ele>683</ele>
        <time>2023-04-10T07:23:20Z</time>
      </trkpt>
      <trkpt lat="45.4343" lon="5.64323">
        <ele>682</ele>
        <time>2023-04-10T07:23:21Z</time>
      </trkpt>
      <trkpt lat="45.43426" lon="5.64335">
        <ele>682</ele>
        <time>2023-04-10T07:23:22Z</time>
      </trkpt>
      <trkpt lat="45.43422" lon="5.64348">
        <ele>681</ele>
        <time>2023-04-10T07:23:23Z</time>
      </trkpt>
      <trkpt lat="45.43419" lon="5.6436">
        <ele>681</ele>
        <time>2023-04-10T07:23:24Z</time>
      </trkpt>
      <trkpt lat="45.43416" lon="5.64369">
        <ele>681</ele>
        <time>2023-04-10T07:23:25Z</time>
      </trkpt>
      <trkpt lat="45.43411" lon="5.64374">
        <ele>680</ele>
        <time>2023-04-10T07:23:26Z</time>
      </trkpt>
      <trkpt lat="45.43405" lon="5.64377">
        <ele>680</ele>
        <time>2023-04-10T07:23:27Z</time>
      </trkpt>
      <trkpt lat="45.43399" lon="5.64377">
        <ele>680</ele>
        <time>2023-04-10T07:23:28Z</time>
      </trkpt>
      <trkpt lat="45.43394" lon="5.64376">
        <ele>680</ele>
        <time>2023-04-10T07:23:29Z</time>
      </trkpt>
      <trkpt lat="45.43389" lon="5.64376">
        <ele>680</ele>
        <time>2023-04-10T07:23:30Z</time>
      </trkpt>
      <trkpt lat="45.43384" lon="5.64375">
        <ele>680</ele>
        <time>2023-04-10T07:23:31Z</time>
      </trkpt>
      <trkpt lat="45.43376" lon="5.64373">
        <ele>680</ele>
        <time>2023-04-10T07:23:32Z</time>
      </trkpt>
      <trkpt lat="45.43372" lon="5.64373">
        <ele>680</ele>
        <time>2023-04-10T07:23:34Z</time>
      </trkpt>
      <trkpt lat="45.43364" lon="5.64371">
        <ele>681</ele>
        <time>2023-04-10T07:23:35Z</time>
      </trkpt>
      <trkpt lat="45.43361" lon="5.64369">
        <ele>682</ele>
        <time>2023-04-10T07:23:37Z</time>
      </trkpt>
      <trkpt lat="45.43359" lon="5.64367">
        <ele>682</ele>
        <time>2023-04-10T07:23:38Z</time>
      </trkpt>
      <trkpt lat="45.43357" lon="5.64366">
        <ele>682</ele>
        <time>2023-04-10T07:23:39Z</time>
      </trkpt>
      <trkpt lat="45.43355" lon="5.64364">
        <ele>682</ele>
        <time>2023-04-10T07:23:40Z</time>
      </trkpt>
      <trkpt lat="45.43353" lon="5.64362">
        <ele>683</ele>
        <time>2023-04-10T07:23:41Z</time>
      </trkpt>
      <trkpt lat="45.43351" lon="5.6436">
        <ele>683</ele>
        <time>2023-04-10T07:23:42Z</time>
      </trkpt>
      <trkpt lat="45.43349" lon="5.64359">
        <ele>683</ele>
        <time>2023-04-10T07:23:43Z</time>
      </trkpt>
      <trkpt lat="45.43347" lon="5.64357">
        <ele>683</ele>
        <time>2023-04-10T07:23:44Z</time>
      </trkpt>
      <trkpt lat="45.43345" lon="5.64355">
        <ele>684</ele>
        <time>2023-04-10T07:23:45Z</time>
      </trkpt>
      <trkpt lat="45.43343" lon="5.64353">
        <ele>684</ele>
        <time>2023-04-10T07:23:46Z</time>
      </trkpt>
      <trkpt lat="45.43341" lon="5.64352">
        <ele>685</ele>
        <time>2023-04-10T07:23:47Z</time>
      </trkpt>
      <trkpt lat="45.43339" lon="5.6435">
        <ele>685</ele>
        <time>2023-04-10T07:23:48Z</time>
      </trkpt>
      <trkpt lat="45.43337" lon="5.64349">
        <ele>685</ele>
        <time>2023-04-10T07:23:49Z</time>
      </trkpt>
      <trkpt lat="45.43335" lon="5.64347">
        <ele>685</ele>
        <time>2023-04-10T07:23:50Z</time>
      </trkpt>
      <trkpt lat="45.43334" lon="5.64345">
        <ele>686</ele>
        <time>2023-04-10T07:23:51Z</time>
      </trkpt>
      <trkpt lat="45.43333" lon="5.64343">
        <ele>686</ele>
        <time>2023-04-10T07:23:52Z</time>
      </trkpt>
      <trkpt lat="45.43331" lon="5.64342">
        <ele>686</ele>
        <time>2023-04-10T07:23:53Z</time>
      </trkpt>
      <trkpt lat="45.43328" lon="5.64338">
        <ele>686</ele>
        <time>2023-04-10T07:23:54Z</time>
      </trkpt>
      <trkpt lat="45.43326" lon="5.64336">
        <ele>688</ele>
        <time>2023-04-10T07:23:56Z</time>
      </trkpt>
      <trkpt lat="45.43324" lon="5.64334">
        <ele>688</ele>
        <time>2023-04-10T07:23:57Z</time>
      </trkpt>
      <trkpt lat="45.43322" lon="5.64331">
        <ele>689</ele>
        <time>2023-04-10T07:23:59Z</time>
      </trkpt>
      <trkpt lat="45.4332" lon="5.64328">
        <ele>690</ele>
        <time>2023-04-10T07:24:00Z</time>
      </trkpt>
      <trkpt lat="45.43318" lon="5.64326">
        <ele>690</ele>
        <time>2023-04-10T07:24:01Z</time>
      </trkpt>
      <trkpt lat="45.43317" lon="5.64323">
        <ele>690</ele>
        <time>2023-04-10T07:24:02Z</time>
      </trkpt>
      <trkpt lat="45.43315" lon="5.64322">
        <ele>690</ele>
        <time>2023-04-10T07:24:03Z</time>
      </trkpt>
      <trkpt lat="45.43312" lon="5.64322">
        <ele>690</ele>
        <time>2023-04-10T07:24:05Z</time>
      </trkpt>
      <trkpt lat="45.43306" lon="5.64319">
        <ele>691</ele>
        <time>2023-04-10T07:24:07Z</time>
      </trkpt>
      <trkpt lat="45.43303" lon="5.64316">
        <ele>692</ele>
        <time>2023-04-10T07:24:10Z</time>
      </trkpt>
      <trkpt lat="45.43302" lon="5.64315">
        <ele>692</ele>
        <time>2023-04-10T07:24:11Z</time>
      </trkpt>
      <trkpt lat="45.433" lon="5.64314">
        <ele>692</ele>
        <time>2023-04-10T07:24:12Z</time>
      </trkpt>
      <trkpt lat="45.43296" lon="5.64312">
        <ele>692</ele>
        <time>2023-04-10T07:24:13Z</time>
      </trkpt>
      <trkpt lat="45.43294" lon="5.64311">
        <ele>693</ele>
        <time>2023-04-10T07:24:15Z</time>
      </trkpt>
      <trkpt lat="45.43293" lon="5.6431">
        <ele>693</ele>
        <time>2023-04-10T07:24:16Z</time>
      </trkpt>
      <trkpt lat="45.43289" lon="5.64308">
        <ele>694</ele>
        <time>2023-04-10T07:24:18Z</time>
      </trkpt>
      <trkpt lat="45.43287" lon="5.64307">
        <ele>694</ele>
        <time>2023-04-10T07:24:20Z</time>
      </trkpt>
      <trkpt lat="45.43284" lon="5.64305">
        <ele>694</ele>
        <time>2023-04-10T07:24:22Z</time>
      </trkpt>
      <trkpt lat="45.43282" lon="5.64303">
        <ele>695</ele>
        <time>2023-04-10T07:24:24Z</time>
      </trkpt>
      <trkpt lat="45.4328" lon="5.64301">
        <ele>695</ele>
        <time>2023-04-10T07:24:26Z</time>
      </trkpt>
      <trkpt lat="45.43278" lon="5.64298">
        <ele>695</ele>
        <time>2023-04-10T07:24:28Z</time>
      </trkpt>
      <trkpt lat="45.43276" lon="5.64295">
        <ele>696</ele>
        <time>2023-04-10T07:24:30Z</time>
      </trkpt>
      <trkpt lat="45.43274" lon="5.64293">
        <ele>696</ele>
        <time>2023-04-10T07:24:32Z</time>
      </trkpt>
      <trkpt lat="45.43272" lon="5.64289">
        <ele>697</ele>
        <time>2023-04-10T07:24:34Z</time>
      </trkpt>
      <trkpt lat="45.4327" lon="5.64287">
        <ele>697</ele>
        <time>2023-04-10T07:24:36Z</time>
      </trkpt>
      <trkpt lat="45.43268" lon="5.64283">
        <ele>698</ele>
        <time>2023-04-10T07:24:38Z</time>
      </trkpt>
      <trkpt lat="45.43266" lon="5.6428">
        <ele>698</ele>
        <time>2023-04-10T07:24:40Z</time>
      </trkpt>
      <trkpt lat="45.43264" lon="5.64277">
        <ele>699</ele>
        <time>2023-04-10T07:24:42Z</time>
      </trkpt>
      <trkpt lat="45.43262" lon="5.64274">
        <ele>700</ele>
        <time>2023-04-10T07:24:44Z</time>
      </trkpt>
      <trkpt lat="45.4326" lon="5.64272">
        <ele>700</ele>
        <time>2023-04-10T07:24:46Z</time>
      </trkpt>
      <trkpt lat="45.43258" lon="5.6427">
        <ele>700</ele>
        <time>2023-04-10T07:24:48Z</time>
      </trkpt>
      <trkpt lat="45.43256" lon="5.64267">
        <ele>700</ele>
        <time>2023-04-10T07:24:50Z</time>
      </trkpt>
      <trkpt lat="45.43254" lon="5.64263">
        <ele>700</ele>
        <time>2023-04-10T07:24:51Z</time>
      </trkpt>
      <trkpt lat="45.43252" lon="5.6426">
        <ele>701</ele>
        <time>2023-04-10T07:24:54Z</time>
      </trkpt>
      <trkpt lat="45.43251" lon="5.64258">
        <ele>701</ele>
        <time>2023-04-10T07:24:55Z</time>
      </trkpt>
      <trkpt lat="45.43249" lon="5.64254">
        <ele>701</ele>
        <time>2023-04-10T07:24:57Z</time>
      </trkpt>
      <trkpt lat="45.43247" lon="5.64251">
        <ele>702</ele>
        <time>2023-04-10T07:24:59Z</time>
      </trkpt>
      <trkpt lat="45.43245" lon="5.64247">
        <ele>702</ele>
        <time>2023-04-10T07:25:01Z</time>
      </trkpt>
      <trkpt lat="45.43242" lon="5.64244">
        <ele>702</ele>
        <time>2023-04-10T07:25:03Z</time>
      </trkpt>
      <trkpt lat="45.43241" lon="5.64241">
        <ele>703</ele>
        <time>2023-04-10T07:25:05Z</time>
      </trkpt>
      <trkpt lat="45.43239" lon="5.64238">
        <ele>703</ele>
        <time>2023-04-10T07:25:07Z</time>
      </trkpt>
      <trkpt lat="45.43238" lon="5.64236">
        <ele>703</ele>
        <time>2023-04-10T07:25:08Z</time>
      </trkpt>
      <trkpt lat="45.43236" lon="5.64234">
        <ele>703</ele>
        <time>2023-04-10T07:25:09Z</time>
      </trkpt>
      <trkpt lat="45.43235" lon="5.64232">
        <ele>703</ele>
        <time>2023-04-10T07:25:10Z</time>
      </trkpt>
      <trkpt lat="45.43233" lon="5.64228">
        <ele>703</ele>
        <time>2023-04-10T07:25:12Z</time>
      </trkpt>
      <trkpt lat="45.43231" lon="5.64225">
        <ele>703</ele>
        <time>2023-04-10T07:25:14Z</time>
      </trkpt>
      <trkpt lat="45.43229" lon="5.64221">
        <ele>703</ele>
        <time>2023-04-10T07:25:16Z</time>
      </trkpt>
      <trkpt lat="45.43226" lon="5.64217">
        <ele>704</ele>
        <time>2023-04-10T07:25:18Z</time>
      </trkpt>
      <trkpt lat="45.43225" lon="5.64215">
        <ele>704</ele>
        <time>2023-04-10T07:25:19Z</time>
      </trkpt>
      <trkpt lat="45.43224" lon="5.64213">
        <ele>704</ele>
        <time>2023-04-10T07:25:20Z</time>
      </trkpt>
      <trkpt lat="45.43223" lon="5.64211">
        <ele>704</ele>
        <time>2023-04-10T07:25:21Z</time>
      </trkpt>
      <trkpt lat="45.43221" lon="5.64208">
        <ele>704</ele>
        <time>2023-04-10T07:25:22Z</time>
      </trkpt>
      <trkpt lat="45.4322" lon="5.64205">
        <ele>704</ele>
        <time>2023-04-10T07:25:23Z</time>
      </trkpt>
      <trkpt lat="45.43218" lon="5.64202">
        <ele>705</ele>
        <time>2023-04-10T07:25:24Z</time>
      </trkpt>
      <trkpt lat="45.43217" lon="5.642">
        <ele>705</ele>
        <time>2023-04-10T07:25:25Z</time>
      </trkpt>
      <trkpt lat="45.43215" lon="5.64197">
        <ele>705</ele>
        <time>2023-04-10T07:25:26Z</time>
      </trkpt>
      <trkpt lat="45.43214" lon="5.64194">
        <ele>705</ele>
        <time>2023-04-10T07:25:27Z</time>
      </trkpt>
      <trkpt lat="45.43212" lon="5.64191">
        <ele>705</ele>
        <time>2023-04-10T07:25:28Z</time>
      </trkpt>
      <trkpt lat="45.43211" lon="5.64188">
        <ele>705</ele>
        <time>2023-04-10T07:25:29Z</time>
      </trkpt>
      <trkpt lat="45.43209" lon="5.64186">
        <ele>705</ele>
        <time>2023-04-10T07:25:30Z</time>
      </trkpt>
      <trkpt lat="45.43208" lon="5.64183">
        <ele>705</ele>
        <time>2023-04-10T07:25:31Z</time>
      </trkpt>
      <trkpt lat="45.43206" lon="5.64181">
        <ele>706</ele>
        <time>2023-04-10T07:25:32Z</time>
      </trkpt>
      <trkpt lat="45.43204" lon="5.64178">
        <ele>706</ele>
        <time>2023-04-10T07:25:33Z</time>
      </trkpt>
      <trkpt lat="45.43202" lon="5.64176">
        <ele>706</ele>
        <time>2023-04-10T07:25:34Z</time>
      </trkpt>
      <trkpt lat="45.43201" lon="5.64173">
        <ele>706</ele>
        <time>2023-04-10T07:25:35Z</time>
      </trkpt>
      <trkpt lat="45.432" lon="5.64171">
        <ele>706</ele>
        <time>2023-04-10T07:25:36Z</time>
      </trkpt>
      <trkpt lat="45.43199" lon="5.64168">
        <ele>706</ele>
        <time>2023-04-10T07:25:37Z</time>
      </trkpt>
      <trkpt lat="45.43197" lon="5.64165">
        <ele>707</ele>
        <time>2023-04-10T07:25:38Z</time>
      </trkpt>
      <trkpt lat="45.43196" lon="5.64162">
        <ele>707</ele>
        <time>2023-04-10T07:25:39Z</time>
      </trkpt>
      <trkpt lat="45.43194" lon="5.6416">
        <ele>707</ele>
        <time>2023-04-10T07:25:40Z</time>
      </trkpt>
      <trkpt lat="45.43193" lon="5.64158">
        <ele>707</ele>
        <time>2023-04-10T07:25:41Z</time>
      </trkpt>
      <trkpt lat="45.43191" lon="5.64155">
        <ele>708</ele>
        <time>2023-04-10T07:25:42Z</time>
      </trkpt>
      <trkpt lat="45.43189" lon="5.64153">
        <ele>708</ele>
        <time>2023-04-10T07:25:43Z</time>
      </trkpt>
      <trkpt lat="45.43188" lon="5.64151">
        <ele>708</ele>
        <time>2023-04-10T07:25:44Z</time>
      </trkpt>
      <trkpt lat="45.43186" lon="5.64149">
        <ele>708</ele>
        <time>2023-04-10T07:25:45Z</time>
      </trkpt>
      <trkpt lat="45.43185" lon="5.64146">
        <ele>708</ele>
        <time>2023-04-10T07:25:46Z</time>
      </trkpt>
      <trkpt lat="45.43183" lon="5.64144">
        <ele>708</ele>
        <time>2023-04-10T07:25:47Z</time>
      </trkpt>
      <trkpt lat="45.4318" lon="5.6414">
        <ele>708</ele>
        <time>2023-04-10T07:25:48Z</time>
      </trkpt>
      <trkpt lat="45.43178" lon="5.64139">
        <ele>709</ele>
        <time>2023-04-10T07:25:50Z</time>
      </trkpt>
      <trkpt lat="45.43176" lon="5.64136">
        <ele>709</ele>
        <time>2023-04-10T07:25:51Z</time>
      </trkpt>
      <trkpt lat="45.43175" lon="5.64134">
        <ele>709</ele>
        <time>2023-04-10T07:25:52Z</time>
      </trkpt>
      <trkpt lat="45.43173" lon="5.64132">
        <ele>709</ele>
        <time>2023-04-10T07:25:53Z</time>
      </trkpt>
      <trkpt lat="45.43171" lon="5.64131">
        <ele>710</ele>
        <time>2023-04-10T07:25:54Z</time>
      </trkpt>
      <trkpt lat="45.4317" lon="5.64129">
        <ele>710</ele>
        <time>2023-04-10T07:25:55Z</time>
      </trkpt>
      <trkpt lat="45.43168" lon="5.64127">
        <ele>710</ele>
        <time>2023-04-10T07:25:56Z</time>
      </trkpt>
      <trkpt lat="45.43166" lon="5.64125">
        <ele>711</ele>
        <time>2023-04-10T07:25:57Z</time>
      </trkpt>
      <trkpt lat="45.43164" lon="5.64124">
        <ele>711</ele>
        <time>2023-04-10T07:25:58Z</time>
      </trkpt>
      <trkpt lat="45.43162" lon="5.64122">
        <ele>711</ele>
        <time>2023-04-10T07:25:59Z</time>
      </trkpt>
      <trkpt lat="45.43158" lon="5.64119">
        <ele>711</ele>
        <time>2023-04-10T07:26:00Z</time>
      </trkpt>
      <trkpt lat="45.43157" lon="5.64118">
        <ele>711</ele>
        <time>2023-04-10T07:26:02Z</time>
      </trkpt>
      <trkpt lat="45.43155" lon="5.64116">
        <ele>711</ele>
        <time>2023-04-10T07:26:03Z</time>
      </trkpt>
      <trkpt lat="45.43153" lon="5.64115">
        <ele>711</ele>
        <time>2023-04-10T07:26:04Z</time>
      </trkpt>
      <trkpt lat="45.43151" lon="5.64113">
        <ele>712</ele>
        <time>2023-04-10T07:26:05Z</time>
      </trkpt>
      <trkpt lat="45.43149" lon="5.64112">
        <ele>712</ele>
        <time>2023-04-10T07:26:06Z</time>
      </trkpt>
      <trkpt lat="45.43146" lon="5.64108">
        <ele>712</ele>
        <time>2023-04-10T07:26:07Z</time>
      </trkpt>
      <trkpt lat="45.43144" lon="5.64107">
        <ele>713</ele>
        <time>2023-04-10T07:26:09Z</time>
      </trkpt>
      <trkpt lat="45.43142" lon="5.64106">
        <ele>713</ele>
        <time>2023-04-10T07:26:10Z</time>
      </trkpt>
      <trkpt lat="45.4314" lon="5.64105">
        <ele>713</ele>
        <time>2023-04-10T07:26:11Z</time>
      </trkpt>
      <trkpt lat="45.43137" lon="5.64104">
        <ele>713</ele>
        <time>2023-04-10T07:26:12Z</time>
      </trkpt>
      <trkpt lat="45.43135" lon="5.64104">
        <ele>713</ele>
        <time>2023-04-10T07:26:13Z</time>
      </trkpt>
      <trkpt lat="45.43133" lon="5.64104">
        <ele>713</ele>
        <time>2023-04-10T07:26:14Z</time>
      </trkpt>
      <trkpt lat="45.43131" lon="5.64104">
        <ele>713</ele>
        <time>2023-04-10T07:26:15Z</time>
      </trkpt>
      <trkpt lat="45.43129" lon="5.64104">
        <ele>714</ele>
        <time>2023-04-10T07:26:16Z</time>
      </trkpt>
      <trkpt lat="45.43127" lon="5.64104">
        <ele>714</ele>
        <time>2023-04-10T07:26:17Z</time>
      </trkpt>
      <trkpt lat="45.43125" lon="5.64105">
        <ele>714</ele>
        <time>2023-04-10T07:26:18Z</time>
      </trkpt>
      <trkpt lat="45.43123" lon="5.64105">
        <ele>715</ele>
        <time>2023-04-10T07:26:19Z</time>
      </trkpt>
      <trkpt lat="45.43121" lon="5.64106">
        <ele>715</ele>
        <time>2023-04-10T07:26:20Z</time>
      </trkpt>
      <trkpt lat="45.43118" lon="5.64107">
        <ele>715</ele>
        <time>2023-04-10T07:26:21Z</time>
      </trkpt>
      <trkpt lat="45.43116" lon="5.64109">
        <ele>715</ele>
        <time>2023-04-10T07:26:22Z</time>
      </trkpt>
      <trkpt lat="45.43113" lon="5.64111">
        <ele>715</ele>
        <time>2023-04-10T07:26:23Z</time>
      </trkpt>
      <trkpt lat="45.43111" lon="5.64113">
        <ele>715</ele>
        <time>2023-04-10T07:26:24Z</time>
      </trkpt>
      <trkpt lat="45.43108" lon="5.64116">
        <ele>715</ele>
        <time>2023-04-10T07:26:25Z</time>
      </trkpt>
      <trkpt lat="45.43102" lon="5.64122">
        <ele>715</ele>
        <time>2023-04-10T07:26:26Z</time>
      </trkpt>
      <trkpt lat="45.43099" lon="5.64125">
        <ele>715</ele>
        <time>2023-04-10T07:26:28Z</time>
      </trkpt>
      <trkpt lat="45.43096" lon="5.64128">
        <ele>715</ele>
        <time>2023-04-10T07:26:29Z</time>
      </trkpt>
      <trkpt lat="45.43093" lon="5.64131">
        <ele>715</ele>
        <time>2023-04-10T07:26:30Z</time>
      </trkpt>
      <trkpt lat="45.4309" lon="5.64134">
        <ele>715</ele>
        <time>2023-04-10T07:26:31Z</time>
      </trkpt>
      <trkpt lat="45.43087" lon="5.64138">
        <ele>715</ele>
        <time>2023-04-10T07:26:32Z</time>
      </trkpt>
      <trkpt lat="45.43085" lon="5.64141">
        <ele>715</ele>
        <time>2023-04-10T07:26:33Z</time>
      </trkpt>
      <trkpt lat="45.43082" lon="5.64144">
        <ele>716</ele>
        <time>2023-04-10T07:26:34Z</time>
      </trkpt>
      <trkpt lat="45.4308" lon="5.64148">
        <ele>716</ele>
        <time>2023-04-10T07:26:35Z</time>
      </trkpt>
      <trkpt lat="45.43078" lon="5.64151">
        <ele>716</ele>
        <time>2023-04-10T07:26:36Z</time>
      </trkpt>
      <trkpt lat="45.43075" lon="5.64155">
        <ele>716</ele>
        <time>2023-04-10T07:26:37Z</time>
      </trkpt>
      <trkpt lat="45.43072" lon="5.64158">
        <ele>717</ele>
        <time>2023-04-10T07:26:38Z</time>
      </trkpt>
      <trkpt lat="45.4307" lon="5.64161">
        <ele>717</ele>
        <time>2023-04-10T07:26:39Z</time>
      </trkpt>
      <trkpt lat="45.43067" lon="5.64164">
        <ele>717</ele>
        <time>2023-04-10T07:26:40Z</time>
      </trkpt>
      <trkpt lat="45.43063" lon="5.64166">
        <ele>717</ele>
        <time>2023-04-10T07:26:41Z</time>
      </trkpt>
      <trkpt lat="45.4306" lon="5.64168">
        <ele>717</ele>
        <time>2023-04-10T07:26:42Z</time>
      </trkpt>
      <trkpt lat="45.43057" lon="5.64169">
        <ele>717</ele>
        <time>2023-04-10T07:26:43Z</time>
      </trkpt>
      <trkpt lat="45.43053" lon="5.64169">
        <ele>717</ele>
        <time>2023-04-10T07:26:44Z</time>
      </trkpt>
      <trkpt lat="45.43047" lon="5.64165">
        <ele>717</ele>
        <time>2023-04-10T07:26:45Z</time>
      </trkpt>
      <trkpt lat="45.43044" lon="5.64163">
        <ele>718</ele>
        <time>2023-04-10T07:26:47Z</time>
      </trkpt>
      <trkpt lat="45.43042" lon="5.6416">
        <ele>718</ele>
        <time>2023-04-10T07:26:48Z</time>
      </trkpt>
      <trkpt lat="45.43039" lon="5.64156">
        <ele>718</ele>
        <time>2023-04-10T07:26:49Z</time>
      </trkpt>
      <trkpt lat="45.43038" lon="5.64151">
        <ele>719</ele>
        <time>2023-04-10T07:26:50Z</time>
      </trkpt>
      <trkpt lat="45.43036" lon="5.64147">
        <ele>719</ele>
        <time>2023-04-10T07:26:51Z</time>
      </trkpt>
      <trkpt lat="45.43035" lon="5.64142">
        <ele>719</ele>
        <time>2023-04-10T07:26:52Z</time>
      </trkpt>
      <trkpt lat="45.43035" lon="5.64137">
        <ele>720</ele>
        <time>2023-04-10T07:26:53Z</time>
      </trkpt>
      <trkpt lat="45.43034" lon="5.64132">
        <ele>720</ele>
        <time>2023-04-10T07:26:54Z</time>
      </trkpt>
      <trkpt lat="45.43034" lon="5.64127">
        <ele>720</ele>
        <time>2023-04-10T07:26:55Z</time>
      </trkpt>
      <trkpt lat="45.43033" lon="5.64122">
        <ele>720</ele>
        <time>2023-04-10T07:26:56Z</time>
      </trkpt>
      <trkpt lat="45.43033" lon="5.64117">
        <ele>720</ele>
        <time>2023-04-10T07:26:57Z</time>
      </trkpt>
      <trkpt lat="45.43032" lon="5.64111">
        <ele>720</ele>
        <time>2023-04-10T07:26:58Z</time>
      </trkpt>
      <trkpt lat="45.43032" lon="5.64106">
        <ele>720</ele>
        <time>2023-04-10T07:26:59Z</time>
      </trkpt>
      <trkpt lat="45.43032" lon="5.641">
        <ele>720</ele>
        <time>2023-04-10T07:27:00Z</time>
      </trkpt>
      <trkpt lat="45.43032" lon="5.64095">
        <ele>720</ele>
        <time>2023-04-10T07:27:01Z</time>
      </trkpt>
      <trkpt lat="45.43031" lon="5.64089">
        <ele>720</ele>
        <time>2023-04-10T07:27:02Z</time>
      </trkpt>
      <trkpt lat="45.43031" lon="5.64084">
        <ele>720</ele>
        <time>2023-04-10T07:27:03Z</time>
      </trkpt>
      <trkpt lat="45.4303" lon="5.64074">
        <ele>721</ele>
        <time>2023-04-10T07:27:04Z</time>
      </trkpt>
      <trkpt lat="45.4303" lon="5.64069">
        <ele>721</ele>
        <time>2023-04-10T07:27:06Z</time>
      </trkpt>
      <trkpt lat="45.43029" lon="5.64063">
        <ele>721</ele>
        <time>2023-04-10T07:27:07Z</time>
      </trkpt>
      <trkpt lat="45.43029" lon="5.64058">
        <ele>721</ele>
        <time>2023-04-10T07:27:08Z</time>
      </trkpt>
      <trkpt lat="45.43028" lon="5.64053">
        <ele>721</ele>
        <time>2023-04-10T07:27:09Z</time>
      </trkpt>
      <trkpt lat="45.43028" lon="5.64048">
        <ele>721</ele>
        <time>2023-04-10T07:27:10Z</time>
      </trkpt>
      <trkpt lat="45.43027" lon="5.64043">
        <ele>721</ele>
        <time>2023-04-10T07:27:11Z</time>
      </trkpt>
      <trkpt lat="45.43026" lon="5.64038">
        <ele>721</ele>
        <time>2023-04-10T07:27:12Z</time>
      </trkpt>
      <trkpt lat="45.43025" lon="5.64033">
        <ele>721</ele>
        <time>2023-04-10T07:27:13Z</time>
      </trkpt>
      <trkpt lat="45.43023" lon="5.64028">
        <ele>721</ele>
        <time>2023-04-10T07:27:14Z</time>
      </trkpt>
      <trkpt lat="45.43022" lon="5.64023">
        <ele>721</ele>
        <time>2023-04-10T07:27:15Z</time>
      </trkpt>
      <trkpt lat="45.4302" lon="5.64018">
        <ele>721</ele>
        <time>2023-04-10T07:27:16Z</time>
      </trkpt>
      <trkpt lat="45.43019" lon="5.64013">
        <ele>721</ele>
        <time>2023-04-10T07:27:17Z</time>
      </trkpt>
      <trkpt lat="45.43018" lon="5.64008">
        <ele>722</ele>
        <time>2023-04-10T07:27:18Z</time>
      </trkpt>
      <trkpt lat="45.43016" lon="5.64003">
        <ele>722</ele>
        <time>2023-04-10T07:27:19Z</time>
      </trkpt>
      <trkpt lat="45.43015" lon="5.63998">
        <ele>722</ele>
        <time>2023-04-10T07:27:20Z</time>
      </trkpt>
      <trkpt lat="45.43013" lon="5.63993">
        <ele>722</ele>
        <time>2023-04-10T07:27:21Z</time>
      </trkpt>
      <trkpt lat="45.43011" lon="5.63989">
        <ele>722</ele>
        <time>2023-04-10T07:27:22Z</time>
      </trkpt>
      <trkpt lat="45.43008" lon="5.63979">
        <ele>722</ele>
        <time>2023-04-10T07:27:23Z</time>
      </trkpt>
      <trkpt lat="45.43007" lon="5.63974">
        <ele>723</ele>
        <time>2023-04-10T07:27:25Z</time>
      </trkpt>
      <trkpt lat="45.43005" lon="5.63969">
        <ele>722</ele>
        <time>2023-04-10T07:27:26Z</time>
      </trkpt>
      <trkpt lat="45.43004" lon="5.63964">
        <ele>722</ele>
        <time>2023-04-10T07:27:27Z</time>
      </trkpt>
      <trkpt lat="45.43002" lon="5.63959">
        <ele>722</ele>
        <time>2023-04-10T07:27:28Z</time>
      </trkpt>
      <trkpt lat="45.43001" lon="5.63954">
        <ele>722</ele>
        <time>2023-04-10T07:27:29Z</time>
      </trkpt>
      <trkpt lat="45.42999" lon="5.63949">
        <ele>722</ele>
        <time>2023-04-10T07:27:30Z</time>
      </trkpt>
      <trkpt lat="45.42998" lon="5.63945">
        <ele>722</ele>
        <time>2023-04-10T07:27:31Z</time>
      </trkpt>
      <trkpt lat="45.42996" lon="5.6394">
        <ele>723</ele>
        <time>2023-04-10T07:27:32Z</time>
      </trkpt>
      <trkpt lat="45.42995" lon="5.63935">
        <ele>723</ele>
        <time>2023-04-10T07:27:33Z</time>
      </trkpt>
      <trkpt lat="45.42993" lon="5.6393">
        <ele>723</ele>
        <time>2023-04-10T07:27:34Z</time>
      </trkpt>
      <trkpt lat="45.42992" lon="5.63925">
        <ele>723</ele>
        <time>2023-04-10T07:27:35Z</time>
      </trkpt>
      <trkpt lat="45.4299" lon="5.6392">
        <ele>724</ele>
        <time>2023-04-10T07:27:36Z</time>
      </trkpt>
      <trkpt lat="45.42988" lon="5.63916">
        <ele>724</ele>
        <time>2023-04-10T07:27:37Z</time>
      </trkpt>
      <trkpt lat="45.42987" lon="5.63911">
        <ele>724</ele>
        <time>2023-04-10T07:27:38Z</time>
      </trkpt>
      <trkpt lat="45.42985" lon="5.63907">
        <ele>724</ele>
        <time>2023-04-10T07:27:39Z</time>
      </trkpt>
      <trkpt lat="45.42983" lon="5.63902">
        <ele>724</ele>
        <time>2023-04-10T07:27:40Z</time>
      </trkpt>
      <trkpt lat="45.42981" lon="5.63898">
        <ele>724</ele>
        <time>2023-04-10T07:27:41Z</time>
      </trkpt>
      <trkpt lat="45.42976" lon="5.63891">
        <ele>724</ele>
        <time>2023-04-10T07:27:42Z</time>
      </trkpt>
      <trkpt lat="45.42973" lon="5.63887">
        <ele>725</ele>
        <time>2023-04-10T07:27:44Z</time>
      </trkpt>
      <trkpt lat="45.4297" lon="5.63884">
        <ele>725</ele>
        <time>2023-04-10T07:27:45Z</time>
      </trkpt>
      <trkpt lat="45.42967" lon="5.63881">
        <ele>725</ele>
        <time>2023-04-10T07:27:46Z</time>
      </trkpt>
      <trkpt lat="45.42964" lon="5.63879">
        <ele>725</ele>
        <time>2023-04-10T07:27:47Z</time>
      </trkpt>
      <trkpt lat="45.4296" lon="5.63878">
        <ele>725</ele>
        <time>2023-04-10T07:27:48Z</time>
      </trkpt>
      <trkpt lat="45.42957" lon="5.63877">
        <ele>725</ele>
        <time>2023-04-10T07:27:49Z</time>
      </trkpt>
      <trkpt lat="45.42953" lon="5.63876">
        <ele>725</ele>
        <time>2023-04-10T07:27:50Z</time>
      </trkpt>
      <trkpt lat="45.42949" lon="5.63876">
        <ele>725</ele>
        <time>2023-04-10T07:27:51Z</time>
      </trkpt>
      <trkpt lat="45.42944" lon="5.63876">
        <ele>726</ele>
        <time>2023-04-10T07:27:52Z</time>
      </trkpt>
      <trkpt lat="45.4294" lon="5.63876">
        <ele>726</ele>
        <time>2023-04-10T07:27:53Z</time>
      </trkpt>
      <trkpt lat="45.42935" lon="5.63877">
        <ele>726</ele>
        <time>2023-04-10T07:27:54Z</time>
      </trkpt>
      <trkpt lat="45.42931" lon="5.63877">
        <ele>726</ele>
        <time>2023-04-10T07:27:55Z</time>
      </trkpt>
      <trkpt lat="45.42927" lon="5.63879">
        <ele>726</ele>
        <time>2023-04-10T07:27:56Z</time>
      </trkpt>
      <trkpt lat="45.42922" lon="5.6388">
        <ele>727</ele>
        <time>2023-04-10T07:27:57Z</time>
      </trkpt>
      <trkpt lat="45.42918" lon="5.63882">
        <ele>727</ele>
        <time>2023-04-10T07:27:58Z</time>
      </trkpt>
      <trkpt lat="45.42913" lon="5.63883">
        <ele>727</ele>
        <time>2023-04-10T07:27:59Z</time>
      </trkpt>
      <trkpt lat="45.42909" lon="5.63885">
        <ele>727</ele>
        <time>2023-04-10T07:28:00Z</time>
      </trkpt>
      <trkpt lat="45.42904" lon="5.63886">
        <ele>727</ele>
        <time>2023-04-10T07:28:01Z</time>
      </trkpt>
      <trkpt lat="45.42899" lon="5.63888">
        <ele>727</ele>
        <time>2023-04-10T07:28:02Z</time>
      </trkpt>
      <trkpt lat="45.42895" lon="5.63889">
        <ele>727</ele>
        <time>2023-04-10T07:28:03Z</time>
      </trkpt>
      <trkpt lat="45.4289" lon="5.6389">
        <ele>726</ele>
        <time>2023-04-10T07:28:04Z</time>
      </trkpt>
      <trkpt lat="45.42885" lon="5.63892">
        <ele>726</ele>
        <time>2023-04-10T07:28:05Z</time>
      </trkpt>
      <trkpt lat="45.4288" lon="5.63893">
        <ele>727</ele>
        <time>2023-04-10T07:28:06Z</time>
      </trkpt>
      <trkpt lat="45.42875" lon="5.63895">
        <ele>727</ele>
        <time>2023-04-10T07:28:07Z</time>
      </trkpt>
      <trkpt lat="45.4287" lon="5.63897">
        <ele>727</ele>
        <time>2023-04-10T07:28:08Z</time>
      </trkpt>
      <trkpt lat="45.42865" lon="5.63898">
        <ele>726</ele>
        <time>2023-04-10T07:28:09Z</time>
      </trkpt>
      <trkpt lat="45.4286" lon="5.639">
        <ele>727</ele>
        <time>2023-04-10T07:28:10Z</time>
      </trkpt>
      <trkpt lat="45.42855" lon="5.63902">
        <ele>727</ele>
        <time>2023-04-10T07:28:11Z</time>
      </trkpt>
      <trkpt lat="45.4285" lon="5.63903">
        <ele>727</ele>
        <time>2023-04-10T07:28:12Z</time>
      </trkpt>
      <trkpt lat="45.42845" lon="5.63905">
        <ele>727</ele>
        <time>2023-04-10T07:28:13Z</time>
      </trkpt>
      <trkpt lat="45.4284" lon="5.63907">
        <ele>727</ele>
        <time>2023-04-10T07:28:14Z</time>
      </trkpt>
      <trkpt lat="45.42835" lon="5.63909">
        <ele>727</ele>
        <time>2023-04-10T07:28:15Z</time>
      </trkpt>
      <trkpt lat="45.4283" lon="5.63911">
        <ele>727</ele>
        <time>2023-04-10T07:28:16Z</time>
      </trkpt>
      <trkpt lat="45.42825" lon="5.63912">
        <ele>727</ele>
        <time>2023-04-10T07:28:17Z</time>
      </trkpt>
      <trkpt lat="45.4282" lon="5.63914">
        <ele>727</ele>
        <time>2023-04-10T07:28:18Z</time>
      </trkpt>
      <trkpt lat="45.42814" lon="5.63915">
        <ele>727</ele>
        <time>2023-04-10T07:28:19Z</time>
      </trkpt>
      <trkpt lat="45.42804" lon="5.63917">
        <ele>727</ele>
        <time>2023-04-10T07:28:20Z</time>
      </trkpt>
      <trkpt lat="45.42799" lon="5.63917">
        <ele>727</ele>
        <time>2023-04-10T07:28:22Z</time>
      </trkpt>
      <trkpt lat="45.42793" lon="5.63916">
        <ele>728</ele>
        <time>2023-04-10T07:28:23Z</time>
      </trkpt>
      <trkpt lat="45.42788" lon="5.63915">
        <ele>728</ele>
        <time>2023-04-10T07:28:24Z</time>
      </trkpt>
      <trkpt lat="45.42784" lon="5.63912">
        <ele>728</ele>
        <time>2023-04-10T07:28:25Z</time>
      </trkpt>
      <trkpt lat="45.42779" lon="5.63909">
        <ele>728</ele>
        <time>2023-04-10T07:28:26Z</time>
      </trkpt>
      <trkpt lat="45.42774" lon="5.63906">
        <ele>728</ele>
        <time>2023-04-10T07:28:27Z</time>
      </trkpt>
      <trkpt lat="45.4277" lon="5.63901">
        <ele>728</ele>
        <time>2023-04-10T07:28:28Z</time>
      </trkpt>
      <trkpt lat="45.42766" lon="5.63897">
        <ele>728</ele>
        <time>2023-04-10T07:28:29Z</time>
      </trkpt>
      <trkpt lat="45.42762" lon="5.63892">
        <ele>728</ele>
        <time>2023-04-10T07:28:30Z</time>
      </trkpt>
      <trkpt lat="45.42758" lon="5.63887">
        <ele>728</ele>
        <time>2023-04-10T07:28:31Z</time>
      </trkpt>
      <trkpt lat="45.42754" lon="5.63883">
        <ele>728</ele>
        <time>2023-04-10T07:28:32Z</time>
      </trkpt>
      <trkpt lat="45.4275" lon="5.63878">
        <ele>728</ele>
        <time>2023-04-10T07:28:33Z</time>
      </trkpt>
      <trkpt lat="45.42746" lon="5.63873">
        <ele>728</ele>
        <time>2023-04-10T07:28:34Z</time>
      </trkpt>
      <trkpt lat="45.42742" lon="5.63869">
        <ele>728</ele>
        <time>2023-04-10T07:28:35Z</time>
      </trkpt>
      <trkpt lat="45.42738" lon="5.63864">
        <ele>729</ele>
        <time>2023-04-10T07:28:36Z</time>
      </trkpt>
      <trkpt lat="45.42734" lon="5.63859">
        <ele>729</ele>
        <time>2023-04-10T07:28:37Z</time>
      </trkpt>
      <trkpt lat="45.4273" lon="5.63855">
        <ele>729</ele>
        <time>2023-04-10T07:28:38Z</time>
      </trkpt>
      <trkpt lat="45.42726" lon="5.6385">
        <ele>729</ele>
        <time>2023-04-10T07:28:39Z</time>
      </trkpt>
      <trkpt lat="45.42722" lon="5.63846">
        <ele>729</ele>
        <time>2023-04-10T07:28:40Z</time>
      </trkpt>
      <trkpt lat="45.42718" lon="5.63841">
        <ele>729</ele>
        <time>2023-04-10T07:28:41Z</time>
      </trkpt>
      <trkpt lat="45.42714" lon="5.63836">
        <ele>729</ele>
        <time>2023-04-10T07:28:42Z</time>
      </trkpt>
      <trkpt lat="45.4271" lon="5.63831">
        <ele>729</ele>
        <time>2023-04-10T07:28:43Z</time>
      </trkpt>
      <trkpt lat="45.42705" lon="5.63827">
        <ele>729</ele>
        <time>2023-04-10T07:28:44Z</time>
      </trkpt>
      <trkpt lat="45.42701" lon="5.63822">
        <ele>729</ele>
        <time>2023-04-10T07:28:45Z</time>
      </trkpt>
      <trkpt lat="45.42696" lon="5.63818">
        <ele>729</ele>
        <time>2023-04-10T07:28:46Z</time>
      </trkpt>
      <trkpt lat="45.42692" lon="5.63814">
        <ele>729</ele>
        <time>2023-04-10T07:28:47Z</time>
      </trkpt>
      <trkpt lat="45.42687" lon="5.63811">
        <ele>729</ele>
        <time>2023-04-10T07:28:48Z</time>
      </trkpt>
      <trkpt lat="45.42682" lon="5.63808">
        <ele>729</ele>
        <time>2023-04-10T07:28:49Z</time>
      </trkpt>
      <trkpt lat="45.42677" lon="5.63806">
        <ele>729</ele>
        <time>2023-04-10T07:28:50Z</time>
      </trkpt>
      <trkpt lat="45.42673" lon="5.63806">
        <ele>729</ele>
        <time>2023-04-10T07:28:51Z</time>
      </trkpt>
      <trkpt lat="45.42668" lon="5.63807">
        <ele>730</ele>
        <time>2023-04-10T07:28:52Z</time>
      </trkpt>
      <trkpt lat="45.42663" lon="5.63809">
        <ele>730</ele>
        <time>2023-04-10T07:28:53Z</time>
      </trkpt>
      <trkpt lat="45.42658" lon="5.63812">
        <ele>730</ele>
        <time>2023-04-10T07:28:54Z</time>
      </trkpt>
      <trkpt lat="45.42653" lon="5.63815">
        <ele>729</ele>
        <time>2023-04-10T07:28:55Z</time>
      </trkpt>
      <trkpt lat="45.42648" lon="5.63818">
        <ele>729</ele>
        <time>2023-04-10T07:28:56Z</time>
      </trkpt>
      <trkpt lat="45.42643" lon="5.63821">
        <ele>729</ele>
        <time>2023-04-10T07:28:57Z</time>
      </trkpt>
      <trkpt lat="45.42638" lon="5.63823">
        <ele>729</ele>
        <time>2023-04-10T07:28:58Z</time>
      </trkpt>
      <trkpt lat="45.42633" lon="5.63825">
        <ele>729</ele>
        <time>2023-04-10T07:28:59Z</time>
      </trkpt>
      <trkpt lat="45.42627" lon="5.63824">
        <ele>729</ele>
        <time>2023-04-10T07:29:00Z</time>
      </trkpt>
      <trkpt lat="45.42622" lon="5.63822">
        <ele>729</ele>
        <time>2023-04-10T07:29:01Z</time>
      </trkpt>
      <trkpt lat="45.42618" lon="5.63819">
        <ele>729</ele>
        <time>2023-04-10T07:29:02Z</time>
      </trkpt>
      <trkpt lat="45.42614" lon="5.63813">
        <ele>729</ele>
        <time>2023-04-10T07:29:03Z</time>
      </trkpt>
      <trkpt lat="45.4261" lon="5.63808">
        <ele>729</ele>
        <time>2023-04-10T07:29:04Z</time>
      </trkpt>
      <trkpt lat="45.42607" lon="5.63801">
        <ele>729</ele>
        <time>2023-04-10T07:29:05Z</time>
      </trkpt>
      <trkpt lat="45.42604" lon="5.63795">
        <ele>729</ele>
        <time>2023-04-10T07:29:06Z</time>
      </trkpt>
      <trkpt lat="45.42601" lon="5.63788">
        <ele>729</ele>
        <time>2023-04-10T07:29:07Z</time>
      </trkpt>
      <trkpt lat="45.42598" lon="5.6378">
        <ele>729</ele>
        <time>2023-04-10T07:29:08Z</time>
      </trkpt>
      <trkpt lat="45.42595" lon="5.63773">
        <ele>729</ele>
        <time>2023-04-10T07:29:09Z</time>
      </trkpt>
      <trkpt lat="45.42593" lon="5.63766">
        <ele>729</ele>
        <time>2023-04-10T07:29:10Z</time>
      </trkpt>
      <trkpt lat="45.42591" lon="5.63758">
        <ele>729</ele>
        <time>2023-04-10T07:29:11Z</time>
      </trkpt>
      <trkpt lat="45.42589" lon="5.63751">
        <ele>729</ele>
        <time>2023-04-10T07:29:12Z</time>
      </trkpt>
      <trkpt lat="45.42587" lon="5.63743">
        <ele>729</ele>
        <time>2023-04-10T07:29:13Z</time>
      </trkpt>
      <trkpt lat="45.42586" lon="5.63735">
        <ele>729</ele>
        <time>2023-04-10T07:29:14Z</time>
      </trkpt>
      <trkpt lat="45.42584" lon="5.63727">
        <ele>728</ele>
        <time>2023-04-10T07:29:15Z</time>
      </trkpt>
      <trkpt lat="45.42583" lon="5.63719">
        <ele>728</ele>
        <time>2023-04-10T07:29:16Z</time>
      </trkpt>
      <trkpt lat="45.42581" lon="5.63711">
        <ele>728</ele>
        <time>2023-04-10T07:29:17Z</time>
      </trkpt>
      <trkpt lat="45.42579" lon="5.63702">
        <ele>728</ele>
        <time>2023-04-10T07:29:18Z</time>
      </trkpt>
      <trkpt lat="45.42577" lon="5.63693">
        <ele>728</ele>
        <time>2023-04-10T07:29:19Z</time>
      </trkpt>
      <trkpt lat="45.42576" lon="5.63683">
        <ele>728</ele>
        <time>2023-04-10T07:29:20Z</time>
      </trkpt>
      <trkpt lat="45.42574" lon="5.63674">
        <ele>728</ele>
        <time>2023-04-10T07:29:21Z</time>
      </trkpt>
      <trkpt lat="45.42572" lon="5.63664">
        <ele>728</ele>
        <time>2023-04-10T07:29:22Z</time>
      </trkpt>
      <trkpt lat="45.42571" lon="5.63655">
        <ele>727</ele>
        <time>2023-04-10T07:29:23Z</time>
      </trkpt>
      <trkpt lat="45.42569" lon="5.63645">
        <ele>727</ele>
        <time>2023-04-10T07:29:24Z</time>
      </trkpt>
      <trkpt lat="45.42567" lon="5.63636">
        <ele>727</ele>
        <time>2023-04-10T07:29:25Z</time>
      </trkpt>
      <trkpt lat="45.42566" lon="5.63627">
        <ele>727</ele>
        <time>2023-04-10T07:29:26Z</time>
      </trkpt>
      <trkpt lat="45.42564" lon="5.63617">
        <ele>727</ele>
        <time>2023-04-10T07:29:27Z</time>
      </trkpt>
      <trkpt lat="45.42564" lon="5.63606">
        <ele>726</ele>
        <time>2023-04-10T07:29:28Z</time>
      </trkpt>
      <trkpt lat="45.42566" lon="5.63596">
        <ele>726</ele>
        <time>2023-04-10T07:29:29Z</time>
      </trkpt>
      <trkpt lat="45.42569" lon="5.63586">
        <ele>726</ele>
        <time>2023-04-10T07:29:30Z</time>
      </trkpt>
      <trkpt lat="45.42572" lon="5.63577">
        <ele>725</ele>
        <time>2023-04-10T07:29:31Z</time>
      </trkpt>
      <trkpt lat="45.42575" lon="5.63568">
        <ele>725</ele>
        <time>2023-04-10T07:29:32Z</time>
      </trkpt>
      <trkpt lat="45.42578" lon="5.6356">
        <ele>725</ele>
        <time>2023-04-10T07:29:33Z</time>
      </trkpt>
      <trkpt lat="45.42579" lon="5.63553">
        <ele>726</ele>
        <time>2023-04-10T07:29:34Z</time>
      </trkpt>
      <trkpt lat="45.42579" lon="5.63546">
        <ele>726</ele>
        <time>2023-04-10T07:29:35Z</time>
      </trkpt>
      <trkpt lat="45.4258" lon="5.6354">
        <ele>727</ele>
        <time>2023-04-10T07:29:36Z</time>
      </trkpt>
      <trkpt lat="45.4258" lon="5.63535">
        <ele>727</ele>
        <time>2023-04-10T07:29:37Z</time>
      </trkpt>
      <trkpt lat="45.4258" lon="5.63531">
        <ele>727</ele>
        <time>2023-04-10T07:29:38Z</time>
      </trkpt>
      <trkpt lat="45.4258" lon="5.63527">
        <ele>727</ele>
        <time>2023-04-10T07:29:39Z</time>
      </trkpt>
      <trkpt lat="45.4258" lon="5.63523">
        <ele>727</ele>
        <time>2023-04-10T07:29:40Z</time>
      </trkpt>
      <trkpt lat="45.4258" lon="5.6352">
        <ele>727</ele>
        <time>2023-04-10T07:29:41Z</time>
      </trkpt>
      <trkpt lat="45.4258" lon="5.63515">
        <ele>728</ele>
        <time>2023-04-10T07:29:42Z</time>
      </trkpt>
      <trkpt lat="45.4258" lon="5.63511">
        <ele>728</ele>
        <time>2023-04-10T07:29:43Z</time>
      </trkpt>
      <trkpt lat="45.4258" lon="5.63508">
        <ele>729</ele>
        <time>2023-04-10T07:29:44Z</time>
      </trkpt>
      <trkpt lat="45.4258" lon="5.63505">
        <ele>729</ele>
        <time>2023-04-10T07:29:45Z</time>
      </trkpt>
      <trkpt lat="45.4258" lon="5.635">
        <ele>729</ele>
        <time>2023-04-10T07:29:46Z</time>
      </trkpt>
      <trkpt lat="45.4258" lon="5.63496">
        <ele>729</ele>
        <time>2023-04-10T07:29:47Z</time>
      </trkpt>
      <trkpt lat="45.4258" lon="5.63492">
        <ele>730</ele>
        <time>2023-04-10T07:29:48Z</time>
      </trkpt>
      <trkpt lat="45.4258" lon="5.63488">
        <ele>730</ele>
        <time>2023-04-10T07:29:49Z</time>
      </trkpt>
      <trkpt lat="45.4258" lon="5.63484">
        <ele>731</ele>
        <time>2023-04-10T07:29:50Z</time>
      </trkpt>
      <trkpt lat="45.4258" lon="5.6348">
        <ele>731</ele>
        <time>2023-04-10T07:29:51Z</time>
      </trkpt>
      <trkpt lat="45.4258" lon="5.63476">
        <ele>731</ele>
        <time>2023-04-10T07:29:52Z</time>
      </trkpt>
      <trkpt lat="45.42579" lon="5.63473">
        <ele>731</ele>
        <time>2023-04-10T07:29:53Z</time>
      </trkpt>
      <trkpt lat="45.42579" lon="5.63469">
        <ele>732</ele>
        <time>2023-04-10T07:29:54Z</time>
      </trkpt>
      <trkpt lat="45.42579" lon="5.63462">
        <ele>733</ele>
        <time>2023-04-10T07:29:55Z</time>
      </trkpt>
      <trkpt lat="45.42578" lon="5.63458">
        <ele>733</ele>
        <time>2023-04-10T07:29:57Z</time>
      </trkpt>
      <trkpt lat="45.42578" lon="5.63455">
        <ele>734</ele>
        <time>2023-04-10T07:29:58Z</time>
      </trkpt>
      <trkpt lat="45.42577" lon="5.63447">
        <ele>734</ele>
        <time>2023-04-10T07:29:59Z</time>
      </trkpt>
      <trkpt lat="45.42577" lon="5.63443">
        <ele>735</ele>
        <time>2023-04-10T07:30:01Z</time>
      </trkpt>
      <trkpt lat="45.42577" lon="5.63439">
        <ele>735</ele>
        <time>2023-04-10T07:30:02Z</time>
      </trkpt>
      <trkpt lat="45.42576" lon="5.63435">
        <ele>735</ele>
        <time>2023-04-10T07:30:03Z</time>
      </trkpt>
      <trkpt lat="45.42576" lon="5.63431">
        <ele>734</ele>
        <time>2023-04-10T07:30:04Z</time>
      </trkpt>
      <trkpt lat="45.42576" lon="5.63427">
        <ele>735</ele>
        <time>2023-04-10T07:30:05Z</time>
      </trkpt>
      <trkpt lat="45.42575" lon="5.63423">
        <ele>736</ele>
        <time>2023-04-10T07:30:06Z</time>
      </trkpt>
      <trkpt lat="45.42575" lon="5.6342">
        <ele>736</ele>
        <time>2023-04-10T07:30:07Z</time>
      </trkpt>
      <trkpt lat="45.42575" lon="5.63417">
        <ele>736</ele>
        <time>2023-04-10T07:30:08Z</time>
      </trkpt>
      <trkpt lat="45.42575" lon="5.63413">
        <ele>736</ele>
        <time>2023-04-10T07:30:09Z</time>
      </trkpt>
      <trkpt lat="45.42575" lon="5.6341">
        <ele>737</ele>
        <time>2023-04-10T07:30:10Z</time>
      </trkpt>
      <trkpt lat="45.42576" lon="5.63407">
        <ele>737</ele>
        <time>2023-04-10T07:30:11Z</time>
      </trkpt>
      <trkpt lat="45.42576" lon="5.63403">
        <ele>737</ele>
        <time>2023-04-10T07:30:12Z</time>
      </trkpt>
      <trkpt lat="45.42576" lon="5.634">
        <ele>737</ele>
        <time>2023-04-10T07:30:13Z</time>
      </trkpt>
      <trkpt lat="45.42576" lon="5.63397">
        <ele>737</ele>
        <time>2023-04-10T07:30:14Z</time>
      </trkpt>
      <trkpt lat="45.42577" lon="5.63394">
        <ele>738</ele>
        <time>2023-04-10T07:30:15Z</time>
      </trkpt>
      <trkpt lat="45.42577" lon="5.63391">
        <ele>738</ele>
        <time>2023-04-10T07:30:16Z</time>
      </trkpt>
      <trkpt lat="45.42577" lon="5.63388">
        <ele>739</ele>
        <time>2023-04-10T07:30:17Z</time>
      </trkpt>
      <trkpt lat="45.42578" lon="5.63385">
        <ele>739</ele>
        <time>2023-04-10T07:30:18Z</time>
      </trkpt>
      <trkpt lat="45.42578" lon="5.63381">
        <ele>740</ele>
        <time>2023-04-10T07:30:19Z</time>
      </trkpt>
      <trkpt lat="45.42579" lon="5.63378">
        <ele>740</ele>
        <time>2023-04-10T07:30:20Z</time>
      </trkpt>
      <trkpt lat="45.42579" lon="5.63375">
        <ele>740</ele>
        <time>2023-04-10T07:30:21Z</time>
      </trkpt>
      <trkpt lat="45.4258" lon="5.63372">
        <ele>740</ele>
        <time>2023-04-10T07:30:22Z</time>
      </trkpt>
      <trkpt lat="45.42581" lon="5.63369">
        <ele>740</ele>
        <time>2023-04-10T07:30:23Z</time>
      </trkpt>
      <trkpt lat="45.42581" lon="5.63366">
        <ele>741</ele>
        <time>2023-04-10T07:30:24Z</time>
      </trkpt>
      <trkpt lat="45.42582" lon="5.63363">
        <ele>741</ele>
        <time>2023-04-10T07:30:25Z</time>
      </trkpt>
      <trkpt lat="45.42583" lon="5.6336">
        <ele>741</ele>
        <time>2023-04-10T07:30:26Z</time>
      </trkpt>
      <trkpt lat="45.42584" lon="5.63357">
        <ele>741</ele>
        <time>2023-04-10T07:30:27Z</time>
      </trkpt>
      <trkpt lat="45.42584" lon="5.63355">
        <ele>741</ele>
        <time>2023-04-10T07:30:28Z</time>
      </trkpt>
      <trkpt lat="45.42585" lon="5.63352">
        <ele>741</ele>
        <time>2023-04-10T07:30:29Z</time>
      </trkpt>
      <trkpt lat="45.42585" lon="5.63349">
        <ele>741</ele>
        <time>2023-04-10T07:30:30Z</time>
      </trkpt>
      <trkpt lat="45.42585" lon="5.63346">
        <ele>741</ele>
        <time>2023-04-10T07:30:31Z</time>
      </trkpt>
      <trkpt lat="45.42584" lon="5.63343">
        <ele>742</ele>
        <time>2023-04-10T07:30:32Z</time>
      </trkpt>
      <trkpt lat="45.42582" lon="5.63338">
        <ele>742</ele>
        <time>2023-04-10T07:30:33Z</time>
      </trkpt>
      <trkpt lat="45.4258" lon="5.63335">
        <ele>743</ele>
        <time>2023-04-10T07:30:35Z</time>
      </trkpt>
      <trkpt lat="45.42579" lon="5.63333">
        <ele>743</ele>
        <time>2023-04-10T07:30:36Z</time>
      </trkpt>
      <trkpt lat="45.42577" lon="5.6333">
        <ele>743</ele>
        <time>2023-04-10T07:30:37Z</time>
      </trkpt>
      <trkpt lat="45.42576" lon="5.63328">
        <ele>743</ele>
        <time>2023-04-10T07:30:38Z</time>
      </trkpt>
      <trkpt lat="45.42574" lon="5.63325">
        <ele>744</ele>
        <time>2023-04-10T07:30:39Z</time>
      </trkpt>
      <trkpt lat="45.42573" lon="5.63322">
        <ele>744</ele>
        <time>2023-04-10T07:30:40Z</time>
      </trkpt>
      <trkpt lat="45.42572" lon="5.63319">
        <ele>744</ele>
        <time>2023-04-10T07:30:41Z</time>
      </trkpt>
      <trkpt lat="45.42572" lon="5.63316">
        <ele>744</ele>
        <time>2023-04-10T07:30:42Z</time>
      </trkpt>
      <trkpt lat="45.42571" lon="5.63311">
        <ele>744</ele>
        <time>2023-04-10T07:30:44Z</time>
      </trkpt>
      <trkpt lat="45.4257" lon="5.63309">
        <ele>744</ele>
        <time>2023-04-10T07:30:45Z</time>
      </trkpt>
      <trkpt lat="45.4257" lon="5.63306">
        <ele>745</ele>
        <time>2023-04-10T07:30:46Z</time>
      </trkpt>
      <trkpt lat="45.4257" lon="5.63303">
        <ele>745</ele>
        <time>2023-04-10T07:30:47Z</time>
      </trkpt>
      <trkpt lat="45.42569" lon="5.633">
        <ele>746</ele>
        <time>2023-04-10T07:30:48Z</time>
      </trkpt>
      <trkpt lat="45.42569" lon="5.63298">
        <ele>747</ele>
        <time>2023-04-10T07:30:49Z</time>
      </trkpt>
      <trkpt lat="45.42569" lon="5.63293">
        <ele>747</ele>
        <time>2023-04-10T07:30:51Z</time>
      </trkpt>
      <trkpt lat="45.42568" lon="5.63286">
        <ele>747</ele>
        <time>2023-04-10T07:30:52Z</time>
      </trkpt>
      <trkpt lat="45.42568" lon="5.63281">
        <ele>748</ele>
        <time>2023-04-10T07:30:55Z</time>
      </trkpt>
      <trkpt lat="45.42567" lon="5.63278">
        <ele>748</ele>
        <time>2023-04-10T07:30:56Z</time>
      </trkpt>
      <trkpt lat="45.42563" lon="5.63265">
        <ele>748</ele>
        <time>2023-04-10T07:31:00Z</time>
      </trkpt>
      <trkpt lat="45.42561" lon="5.63255">
        <ele>748</ele>
        <time>2023-04-10T07:31:02Z</time>
      </trkpt>
      <trkpt lat="45.42561" lon="5.63253">
        <ele>749</ele>
        <time>2023-04-10T07:31:04Z</time>
      </trkpt>
      <trkpt lat="45.42559" lon="5.6325">
        <ele>749</ele>
        <time>2023-04-10T07:31:05Z</time>
      </trkpt>
      <trkpt lat="45.42557" lon="5.63241">
        <ele>750</ele>
        <time>2023-04-10T07:31:07Z</time>
      </trkpt>
      <trkpt lat="45.42556" lon="5.63238">
        <ele>750</ele>
        <time>2023-04-10T07:31:09Z</time>
      </trkpt>
      <trkpt lat="45.42554" lon="5.63235">
        <ele>751</ele>
        <time>2023-04-10T07:31:10Z</time>
      </trkpt>
      <trkpt lat="45.42553" lon="5.63233">
        <ele>751</ele>
        <time>2023-04-10T07:31:11Z</time>
      </trkpt>
      <trkpt lat="45.42552" lon="5.63228">
        <ele>751</ele>
        <time>2023-04-10T07:31:13Z</time>
      </trkpt>
      <trkpt lat="45.4255" lon="5.63223">
        <ele>751</ele>
        <time>2023-04-10T07:31:15Z</time>
      </trkpt>
      <trkpt lat="45.42549" lon="5.63221">
        <ele>752</ele>
        <time>2023-04-10T07:31:16Z</time>
      </trkpt>
      <trkpt lat="45.42547" lon="5.63219">
        <ele>753</ele>
        <time>2023-04-10T07:31:17Z</time>
      </trkpt>
      <trkpt lat="45.42546" lon="5.63216">
        <ele>753</ele>
        <time>2023-04-10T07:31:18Z</time>
      </trkpt>
      <trkpt lat="45.42543" lon="5.63211">
        <ele>754</ele>
        <time>2023-04-10T07:31:20Z</time>
      </trkpt>
      <trkpt lat="45.42541" lon="5.63208">
        <ele>754</ele>
        <time>2023-04-10T07:31:21Z</time>
      </trkpt>
      <trkpt lat="45.42539" lon="5.63201">
        <ele>754</ele>
        <time>2023-04-10T07:31:23Z</time>
      </trkpt>
      <trkpt lat="45.42539" lon="5.63198">
        <ele>755</ele>
        <time>2023-04-10T07:31:24Z</time>
      </trkpt>
      <trkpt lat="45.42539" lon="5.63195">
        <ele>755</ele>
        <time>2023-04-10T07:31:25Z</time>
      </trkpt>
      <trkpt lat="45.42538" lon="5.63192">
        <ele>755</ele>
        <time>2023-04-10T07:31:26Z</time>
      </trkpt>
      <trkpt lat="45.42537" lon="5.63189">
        <ele>756</ele>
        <time>2023-04-10T07:31:27Z</time>
      </trkpt>
      <trkpt lat="45.42536" lon="5.63186">
        <ele>756</ele>
        <time>2023-04-10T07:31:28Z</time>
      </trkpt>
      <trkpt lat="45.42535" lon="5.63183">
        <ele>756</ele>
        <time>2023-04-10T07:31:29Z</time>
      </trkpt>
      <trkpt lat="45.42535" lon="5.6318">
        <ele>756</ele>
        <time>2023-04-10T07:31:30Z</time>
      </trkpt>
      <trkpt lat="45.42534" lon="5.63178">
        <ele>756</ele>
        <time>2023-04-10T07:31:31Z</time>
      </trkpt>
      <trkpt lat="45.42533" lon="5.63175">
        <ele>756</ele>
        <time>2023-04-10T07:31:32Z</time>
      </trkpt>
      <trkpt lat="45.42532" lon="5.63172">
        <ele>756</ele>
        <time>2023-04-10T07:31:33Z</time>
      </trkpt>
      <trkpt lat="45.42531" lon="5.63169">
        <ele>756</ele>
        <time>2023-04-10T07:31:34Z</time>
      </trkpt>
      <trkpt lat="45.4253" lon="5.63167">
        <ele>757</ele>
        <time>2023-04-10T07:31:35Z</time>
      </trkpt>
      <trkpt lat="45.42529" lon="5.63164">
        <ele>757</ele>
        <time>2023-04-10T07:31:36Z</time>
      </trkpt>
      <trkpt lat="45.42528" lon="5.63162">
        <ele>757</ele>
        <time>2023-04-10T07:31:37Z</time>
      </trkpt>
      <trkpt lat="45.42526" lon="5.6316">
        <ele>757</ele>
        <time>2023-04-10T07:31:38Z</time>
      </trkpt>
      <trkpt lat="45.42525" lon="5.63157">
        <ele>757</ele>
        <time>2023-04-10T07:31:39Z</time>
      </trkpt>
      <trkpt lat="45.42523" lon="5.63155">
        <ele>757</ele>
        <time>2023-04-10T07:31:40Z</time>
      </trkpt>
      <trkpt lat="45.42522" lon="5.63153">
        <ele>757</ele>
        <time>2023-04-10T07:31:41Z</time>
      </trkpt>
      <trkpt lat="45.42521" lon="5.63152">
        <ele>758</ele>
        <time>2023-04-10T07:31:42Z</time>
      </trkpt>
      <trkpt lat="45.42518" lon="5.63149">
        <ele>758</ele>
        <time>2023-04-10T07:31:44Z</time>
      </trkpt>
      <trkpt lat="45.42506" lon="5.63141">
        <ele>760</ele>
        <time>2023-04-10T07:31:49Z</time>
      </trkpt>
      <trkpt lat="45.42503" lon="5.63139">
        <ele>760</ele>
        <time>2023-04-10T07:31:51Z</time>
      </trkpt>
      <trkpt lat="45.425" lon="5.63137">
        <ele>760</ele>
        <time>2023-04-10T07:31:52Z</time>
      </trkpt>
      <trkpt lat="45.42497" lon="5.63135">
        <ele>760</ele>
        <time>2023-04-10T07:31:53Z</time>
      </trkpt>
      <trkpt lat="45.42494" lon="5.63133">
        <ele>760</ele>
        <time>2023-04-10T07:31:54Z</time>
      </trkpt>
      <trkpt lat="45.42491" lon="5.63129">
        <ele>760</ele>
        <time>2023-04-10T07:31:55Z</time>
      </trkpt>
      <trkpt lat="45.42486" lon="5.63117">
        <ele>760</ele>
        <time>2023-04-10T07:31:58Z</time>
      </trkpt>
      <trkpt lat="45.42483" lon="5.63107">
        <ele>760</ele>
        <time>2023-04-10T07:32:00Z</time>
      </trkpt>
      <trkpt lat="45.42482" lon="5.63103">
        <ele>760</ele>
        <time>2023-04-10T07:32:01Z</time>
      </trkpt>
      <trkpt lat="45.42481" lon="5.63099">
        <ele>760</ele>
        <time>2023-04-10T07:32:02Z</time>
      </trkpt>
      <trkpt lat="45.4248" lon="5.63095">
        <ele>761</ele>
        <time>2023-04-10T07:32:03Z</time>
      </trkpt>
      <trkpt lat="45.42479" lon="5.6309">
        <ele>762</ele>
        <time>2023-04-10T07:32:04Z</time>
      </trkpt>
      <trkpt lat="45.42478" lon="5.63086">
        <ele>762</ele>
        <time>2023-04-10T07:32:05Z</time>
      </trkpt>
      <trkpt lat="45.42477" lon="5.63082">
        <ele>762</ele>
        <time>2023-04-10T07:32:06Z</time>
      </trkpt>
      <trkpt lat="45.42476" lon="5.63078">
        <ele>762</ele>
        <time>2023-04-10T07:32:07Z</time>
      </trkpt>
      <trkpt lat="45.42474" lon="5.63074">
        <ele>762</ele>
        <time>2023-04-10T07:32:08Z</time>
      </trkpt>
      <trkpt lat="45.42474" lon="5.6307">
        <ele>762</ele>
        <time>2023-04-10T07:32:09Z</time>
      </trkpt>
      <trkpt lat="45.42472" lon="5.63066">
        <ele>762</ele>
        <time>2023-04-10T07:32:10Z</time>
      </trkpt>
      <trkpt lat="45.42471" lon="5.63063">
        <ele>762</ele>
        <time>2023-04-10T07:32:11Z</time>
      </trkpt>
      <trkpt lat="45.42471" lon="5.63059">
        <ele>763</ele>
        <time>2023-04-10T07:32:12Z</time>
      </trkpt>
      <trkpt lat="45.4247" lon="5.63055">
        <ele>763</ele>
        <time>2023-04-10T07:32:13Z</time>
      </trkpt>
      <trkpt lat="45.42469" lon="5.63052">
        <ele>763</ele>
        <time>2023-04-10T07:32:14Z</time>
      </trkpt>
      <trkpt lat="45.42468" lon="5.63048">
        <ele>763</ele>
        <time>2023-04-10T07:32:15Z</time>
      </trkpt>
      <trkpt lat="45.42467" lon="5.63043">
        <ele>763</ele>
        <time>2023-04-10T07:32:16Z</time>
      </trkpt>
      <trkpt lat="45.42465" lon="5.63039">
        <ele>763</ele>
        <time>2023-04-10T07:32:17Z</time>
      </trkpt>
      <trkpt lat="45.42464" lon="5.63034">
        <ele>763</ele>
        <time>2023-04-10T07:32:18Z</time>
      </trkpt>
      <trkpt lat="45.42462" lon="5.6303">
        <ele>763</ele>
        <time>2023-04-10T07:32:19Z</time>
      </trkpt>
      <trkpt lat="45.4246" lon="5.63026">
        <ele>763</ele>
        <time>2023-04-10T07:32:20Z</time>
      </trkpt>
      <trkpt lat="45.42458" lon="5.63022">
        <ele>764</ele>
        <time>2023-04-10T07:32:21Z</time>
      </trkpt>
      <trkpt lat="45.42457" lon="5.63018">
        <ele>764</ele>
        <time>2023-04-10T07:32:22Z</time>
      </trkpt>
      <trkpt lat="45.42454" lon="5.63014">
        <ele>764</ele>
        <time>2023-04-10T07:32:23Z</time>
      </trkpt>
      <trkpt lat="45.42452" lon="5.6301">
        <ele>764</ele>
        <time>2023-04-10T07:32:24Z</time>
      </trkpt>
      <trkpt lat="45.4245" lon="5.63006">
        <ele>764</ele>
        <time>2023-04-10T07:32:25Z</time>
      </trkpt>
      <trkpt lat="45.42448" lon="5.63003">
        <ele>765</ele>
        <time>2023-04-10T07:32:26Z</time>
      </trkpt>
      <trkpt lat="45.42445" lon="5.62999">
        <ele>765</ele>
        <time>2023-04-10T07:32:27Z</time>
      </trkpt>
      <trkpt lat="45.42441" lon="5.62991">
        <ele>765</ele>
        <time>2023-04-10T07:32:29Z</time>
      </trkpt>
      <trkpt lat="45.42439" lon="5.62987">
        <ele>765</ele>
        <time>2023-04-10T07:32:30Z</time>
      </trkpt>
      <trkpt lat="45.42437" lon="5.62983">
        <ele>765</ele>
        <time>2023-04-10T07:32:31Z</time>
      </trkpt>
      <trkpt lat="45.42435" lon="5.62979">
        <ele>765</ele>
        <time>2023-04-10T07:32:32Z</time>
      </trkpt>
      <trkpt lat="45.42434" lon="5.62975">
        <ele>765</ele>
        <time>2023-04-10T07:32:33Z</time>
      </trkpt>
      <trkpt lat="45.42432" lon="5.62972">
        <ele>765</ele>
        <time>2023-04-10T07:32:34Z</time>
      </trkpt>
      <trkpt lat="45.42431" lon="5.62969">
        <ele>765</ele>
        <time>2023-04-10T07:32:35Z</time>
      </trkpt>
      <trkpt lat="45.42429" lon="5.62965">
        <ele>765</ele>
        <time>2023-04-10T07:32:37Z</time>
      </trkpt>
      <trkpt lat="45.42428" lon="5.62962">
        <ele>766</ele>
        <time>2023-04-10T07:32:38Z</time>
      </trkpt>
      <trkpt lat="45.42427" lon="5.6296">
        <ele>766</ele>
        <time>2023-04-10T07:32:39Z</time>
      </trkpt>
      <trkpt lat="45.42425" lon="5.62957">
        <ele>766</ele>
        <time>2023-04-10T07:32:40Z</time>
      </trkpt>
      <trkpt lat="45.42424" lon="5.62955">
        <ele>767</ele>
        <time>2023-04-10T07:32:41Z</time>
      </trkpt>
      <trkpt lat="45.42422" lon="5.62952">
        <ele>767</ele>
        <time>2023-04-10T07:32:42Z</time>
      </trkpt>
      <trkpt lat="45.42415" lon="5.62933">
        <ele>767</ele>
        <time>2023-04-10T07:32:46Z</time>
      </trkpt>
      <trkpt lat="45.42412" lon="5.62917">
        <ele>767</ele>
        <time>2023-04-10T07:32:51Z</time>
      </trkpt>
      <trkpt lat="45.42411" lon="5.62913">
        <ele>767</ele>
        <time>2023-04-10T07:32:52Z</time>
      </trkpt>
      <trkpt lat="45.4241" lon="5.6291">
        <ele>767</ele>
        <time>2023-04-10T07:32:53Z</time>
      </trkpt>
      <trkpt lat="45.42409" lon="5.62906">
        <ele>767</ele>
        <time>2023-04-10T07:32:54Z</time>
      </trkpt>
      <trkpt lat="45.42408" lon="5.62903">
        <ele>767</ele>
        <time>2023-04-10T07:32:55Z</time>
      </trkpt>
      <trkpt lat="45.42406" lon="5.62899">
        <ele>768</ele>
        <time>2023-04-10T07:32:56Z</time>
      </trkpt>
      <trkpt lat="45.42405" lon="5.62896">
        <ele>768</ele>
        <time>2023-04-10T07:32:57Z</time>
      </trkpt>
      <trkpt lat="45.42404" lon="5.62893">
        <ele>768</ele>
        <time>2023-04-10T07:32:58Z</time>
      </trkpt>
      <trkpt lat="45.42403" lon="5.6289">
        <ele>768</ele>
        <time>2023-04-10T07:32:59Z</time>
      </trkpt>
      <trkpt lat="45.42401" lon="5.62886">
        <ele>769</ele>
        <time>2023-04-10T07:33:00Z</time>
      </trkpt>
      <trkpt lat="45.424" lon="5.62882">
        <ele>769</ele>
        <time>2023-04-10T07:33:01Z</time>
      </trkpt>
      <trkpt lat="45.42399" lon="5.62879">
        <ele>769</ele>
        <time>2023-04-10T07:33:02Z</time>
      </trkpt>
      <trkpt lat="45.42397" lon="5.62875">
        <ele>769</ele>
        <time>2023-04-10T07:33:03Z</time>
      </trkpt>
      <trkpt lat="45.42395" lon="5.62872">
        <ele>769</ele>
        <time>2023-04-10T07:33:04Z</time>
      </trkpt>
      <trkpt lat="45.42394" lon="5.62868">
        <ele>769</ele>
        <time>2023-04-10T07:33:05Z</time>
      </trkpt>
      <trkpt lat="45.42392" lon="5.62864">
        <ele>769</ele>
        <time>2023-04-10T07:33:06Z</time>
      </trkpt>
      <trkpt lat="45.42389" lon="5.62859">
        <ele>769</ele>
        <time>2023-04-10T07:33:07Z</time>
      </trkpt>
      <trkpt lat="45.42387" lon="5.62855">
        <ele>769</ele>
        <time>2023-04-10T07:33:08Z</time>
      </trkpt>
      <trkpt lat="45.42385" lon="5.62852">
        <ele>769</ele>
        <time>2023-04-10T07:33:09Z</time>
      </trkpt>
      <trkpt lat="45.42382" lon="5.62848">
        <ele>769</ele>
        <time>2023-04-10T07:33:10Z</time>
      </trkpt>
      <trkpt lat="45.4238" lon="5.62844">
        <ele>769</ele>
        <time>2023-04-10T07:33:11Z</time>
      </trkpt>
      <trkpt lat="45.42378" lon="5.62839">
        <ele>769</ele>
        <time>2023-04-10T07:33:12Z</time>
      </trkpt>
      <trkpt lat="45.42377" lon="5.62835">
        <ele>769</ele>
        <time>2023-04-10T07:33:13Z</time>
      </trkpt>
      <trkpt lat="45.42375" lon="5.62831">
        <ele>769</ele>
        <time>2023-04-10T07:33:14Z</time>
      </trkpt>
      <trkpt lat="45.42374" lon="5.62827">
        <ele>769</ele>
        <time>2023-04-10T07:33:15Z</time>
      </trkpt>
      <trkpt lat="45.42372" lon="5.62822">
        <ele>768</ele>
        <time>2023-04-10T07:33:16Z</time>
      </trkpt>
      <trkpt lat="45.42371" lon="5.62818">
        <ele>768</ele>
        <time>2023-04-10T07:33:17Z</time>
      </trkpt>
      <trkpt lat="45.4237" lon="5.62813">
        <ele>768</ele>
        <time>2023-04-10T07:33:18Z</time>
      </trkpt>
      <trkpt lat="45.42369" lon="5.6281">
        <ele>768</ele>
        <time>2023-04-10T07:33:19Z</time>
      </trkpt>
      <trkpt lat="45.42367" lon="5.62807">
        <ele>768</ele>
        <time>2023-04-10T07:33:20Z</time>
      </trkpt>
      <trkpt lat="45.42366" lon="5.62804">
        <ele>768</ele>
        <time>2023-04-10T07:33:21Z</time>
      </trkpt>
      <trkpt lat="45.42364" lon="5.62801">
        <ele>768</ele>
        <time>2023-04-10T07:33:22Z</time>
      </trkpt>
      <trkpt lat="45.42363" lon="5.62798">
        <ele>768</ele>
        <time>2023-04-10T07:33:23Z</time>
      </trkpt>
      <trkpt lat="45.42362" lon="5.62795">
        <ele>768</ele>
        <time>2023-04-10T07:33:24Z</time>
      </trkpt>
      <trkpt lat="45.42361" lon="5.62793">
        <ele>768</ele>
        <time>2023-04-10T07:33:25Z</time>
      </trkpt>
      <trkpt lat="45.4236" lon="5.6279">
        <ele>769</ele>
        <time>2023-04-10T07:33:26Z</time>
      </trkpt>
      <trkpt lat="45.42359" lon="5.62788">
        <ele>769</ele>
        <time>2023-04-10T07:33:27Z</time>
      </trkpt>
      <trkpt lat="45.42358" lon="5.62785">
        <ele>769</ele>
        <time>2023-04-10T07:33:28Z</time>
      </trkpt>
      <trkpt lat="45.42356" lon="5.62782">
        <ele>769</ele>
        <time>2023-04-10T07:33:29Z</time>
      </trkpt>
      <trkpt lat="45.42355" lon="5.6278">
        <ele>770</ele>
        <time>2023-04-10T07:33:30Z</time>
      </trkpt>
      <trkpt lat="45.42354" lon="5.62777">
        <ele>770</ele>
        <time>2023-04-10T07:33:31Z</time>
      </trkpt>
      <trkpt lat="45.42353" lon="5.62775">
        <ele>770</ele>
        <time>2023-04-10T07:33:32Z</time>
      </trkpt>
      <trkpt lat="45.42352" lon="5.62771">
        <ele>771</ele>
        <time>2023-04-10T07:33:34Z</time>
      </trkpt>
      <trkpt lat="45.4235" lon="5.62767">
        <ele>771</ele>
        <time>2023-04-10T07:33:36Z</time>
      </trkpt>
      <trkpt lat="45.42348" lon="5.62763">
        <ele>773</ele>
        <time>2023-04-10T07:33:38Z</time>
      </trkpt>
      <trkpt lat="45.42346" lon="5.62759">
        <ele>774</ele>
        <time>2023-04-10T07:33:40Z</time>
      </trkpt>
      <trkpt lat="45.42344" lon="5.62756">
        <ele>774</ele>
        <time>2023-04-10T07:33:42Z</time>
      </trkpt>
      <trkpt lat="45.42342" lon="5.62755">
        <ele>774</ele>
        <time>2023-04-10T07:33:44Z</time>
      </trkpt>
      <trkpt lat="45.42338" lon="5.62753">
        <ele>774</ele>
        <time>2023-04-10T07:33:46Z</time>
      </trkpt>
      <trkpt lat="45.42336" lon="5.62752">
        <ele>775</ele>
        <time>2023-04-10T07:33:47Z</time>
      </trkpt>
      <trkpt lat="45.42334" lon="5.62752">
        <ele>775</ele>
        <time>2023-04-10T07:33:48Z</time>
      </trkpt>
      <trkpt lat="45.42332" lon="5.62751">
        <ele>775</ele>
        <time>2023-04-10T07:33:49Z</time>
      </trkpt>
      <trkpt lat="45.42331" lon="5.62748">
        <ele>776</ele>
        <time>2023-04-10T07:33:53Z</time>
      </trkpt>
      <trkpt lat="45.42329" lon="5.62744">
        <ele>776</ele>
        <time>2023-04-10T07:33:55Z</time>
      </trkpt>
      <trkpt lat="45.42327" lon="5.62741">
        <ele>776</ele>
        <time>2023-04-10T07:33:57Z</time>
      </trkpt>
      <trkpt lat="45.42321" lon="5.62732">
        <ele>778</ele>
        <time>2023-04-10T07:34:01Z</time>
      </trkpt>
      <trkpt lat="45.42319" lon="5.62728">
        <ele>778</ele>
        <time>2023-04-10T07:34:03Z</time>
      </trkpt>
      <trkpt lat="45.42318" lon="5.62726">
        <ele>779</ele>
        <time>2023-04-10T07:34:04Z</time>
      </trkpt>
      <trkpt lat="45.42315" lon="5.62722">
        <ele>779</ele>
        <time>2023-04-10T07:34:06Z</time>
      </trkpt>
      <trkpt lat="45.42314" lon="5.6272">
        <ele>779</ele>
        <time>2023-04-10T07:34:07Z</time>
      </trkpt>
      <trkpt lat="45.42312" lon="5.62718">
        <ele>779</ele>
        <time>2023-04-10T07:34:08Z</time>
      </trkpt>
      <trkpt lat="45.42311" lon="5.62715">
        <ele>780</ele>
        <time>2023-04-10T07:34:10Z</time>
      </trkpt>
      <trkpt lat="45.42309" lon="5.62712">
        <ele>780</ele>
        <time>2023-04-10T07:34:12Z</time>
      </trkpt>
      <trkpt lat="45.42307" lon="5.6271">
        <ele>780</ele>
        <time>2023-04-10T07:34:13Z</time>
      </trkpt>
      <trkpt lat="45.42305" lon="5.62706">
        <ele>781</ele>
        <time>2023-04-10T07:34:15Z</time>
      </trkpt>
      <trkpt lat="45.42303" lon="5.62702">
        <ele>781</ele>
        <time>2023-04-10T07:34:18Z</time>
      </trkpt>
      <trkpt lat="45.42302" lon="5.627">
        <ele>781</ele>
        <time>2023-04-10T07:34:19Z</time>
      </trkpt>
      <trkpt lat="45.423" lon="5.62697">
        <ele>781</ele>
        <time>2023-04-10T07:34:20Z</time>
      </trkpt>
      <trkpt lat="45.42297" lon="5.62693">
        <ele>781</ele>
        <time>2023-04-10T07:34:21Z</time>
      </trkpt>
      <trkpt lat="45.42296" lon="5.6269">
        <ele>781</ele>
        <time>2023-04-10T07:34:23Z</time>
      </trkpt>
      <trkpt lat="45.42294" lon="5.62687">
        <ele>781</ele>
        <time>2023-04-10T07:34:24Z</time>
      </trkpt>
      <trkpt lat="45.42292" lon="5.62684">
        <ele>781</ele>
        <time>2023-04-10T07:34:25Z</time>
      </trkpt>
      <trkpt lat="45.42291" lon="5.6268">
        <ele>782</ele>
        <time>2023-04-10T07:34:26Z</time>
      </trkpt>
      <trkpt lat="45.42289" lon="5.62677">
        <ele>782</ele>
        <time>2023-04-10T07:34:27Z</time>
      </trkpt>
      <trkpt lat="45.42288" lon="5.62674">
        <ele>782</ele>
        <time>2023-04-10T07:34:28Z</time>
      </trkpt>
      <trkpt lat="45.42287" lon="5.62672">
        <ele>782</ele>
        <time>2023-04-10T07:34:29Z</time>
      </trkpt>
      <trkpt lat="45.42286" lon="5.6267">
        <ele>782</ele>
        <time>2023-04-10T07:34:30Z</time>
      </trkpt>
      <trkpt lat="45.42285" lon="5.62668">
        <ele>782</ele>
        <time>2023-04-10T07:34:31Z</time>
      </trkpt>
      <trkpt lat="45.42284" lon="5.62665">
        <ele>782</ele>
        <time>2023-04-10T07:34:32Z</time>
      </trkpt>
      <trkpt lat="45.42283" lon="5.62663">
        <ele>783</ele>
        <time>2023-04-10T07:34:33Z</time>
      </trkpt>
      <trkpt lat="45.42282" lon="5.6266">
        <ele>783</ele>
        <time>2023-04-10T07:34:34Z</time>
      </trkpt>
      <trkpt lat="45.4228" lon="5.62658">
        <ele>783</ele>
        <time>2023-04-10T07:34:35Z</time>
      </trkpt>
      <trkpt lat="45.42279" lon="5.62655">
        <ele>783</ele>
        <time>2023-04-10T07:34:37Z</time>
      </trkpt>
      <trkpt lat="45.42277" lon="5.62652">
        <ele>783</ele>
        <time>2023-04-10T07:34:39Z</time>
      </trkpt>
      <trkpt lat="45.42276" lon="5.62646">
        <ele>784</ele>
        <time>2023-04-10T07:34:40Z</time>
      </trkpt>
      <trkpt lat="45.42275" lon="5.62644">
        <ele>784</ele>
        <time>2023-04-10T07:34:42Z</time>
      </trkpt>
      <trkpt lat="45.42274" lon="5.62641">
        <ele>784</ele>
        <time>2023-04-10T07:34:43Z</time>
      </trkpt>
      <trkpt lat="45.42272" lon="5.62638">
        <ele>784</ele>
        <time>2023-04-10T07:34:44Z</time>
      </trkpt>
      <trkpt lat="45.4227" lon="5.62636">
        <ele>785</ele>
        <time>2023-04-10T07:34:45Z</time>
      </trkpt>
      <trkpt lat="45.42268" lon="5.62633">
        <ele>785</ele>
        <time>2023-04-10T07:34:46Z</time>
      </trkpt>
      <trkpt lat="45.42266" lon="5.62631">
        <ele>785</ele>
        <time>2023-04-10T07:34:47Z</time>
      </trkpt>
      <trkpt lat="45.42261" lon="5.62622">
        <ele>785</ele>
        <time>2023-04-10T07:34:52Z</time>
      </trkpt>
      <trkpt lat="45.42262" lon="5.62619">
        <ele>784</ele>
        <time>2023-04-10T07:34:56Z</time>
      </trkpt>
      <trkpt lat="45.42263" lon="5.62618">
        <ele>784</ele>
        <time>2023-04-10T07:35:02Z</time>
      </trkpt>
      <trkpt lat="45.42253" lon="5.62605">
        <ele>784</ele>
        <time>2023-04-10T07:36:00Z</time>
      </trkpt>
      <trkpt lat="45.42249" lon="5.62601">
        <ele>784</ele>
        <time>2023-04-10T07:36:02Z</time>
      </trkpt>
      <trkpt lat="45.4224" lon="5.62595">
        <ele>784</ele>
        <time>2023-04-10T07:36:05Z</time>
      </trkpt>
      <trkpt lat="45.42232" lon="5.62584">
        <ele>784</ele>
        <time>2023-04-10T07:36:09Z</time>
      </trkpt>
      <trkpt lat="45.42228" lon="5.6257">
        <ele>784</ele>
        <time>2023-04-10T07:36:12Z</time>
      </trkpt>
      <trkpt lat="45.42224" lon="5.62557">
        <ele>784</ele>
        <time>2023-04-10T07:36:15Z</time>
      </trkpt>
      <trkpt lat="45.42219" lon="5.62547">
        <ele>784</ele>
        <time>2023-04-10T07:36:17Z</time>
      </trkpt>
      <trkpt lat="45.42212" lon="5.62537">
        <ele>784</ele>
        <time>2023-04-10T07:36:19Z</time>
      </trkpt>
      <trkpt lat="45.42203" lon="5.62527">
        <ele>784</ele>
        <time>2023-04-10T07:36:22Z</time>
      </trkpt>
      <trkpt lat="45.42195" lon="5.6252">
        <ele>784</ele>
        <time>2023-04-10T07:36:25Z</time>
      </trkpt>
      <trkpt lat="45.42187" lon="5.62509">
        <ele>784</ele>
        <time>2023-04-10T07:36:28Z</time>
      </trkpt>
      <trkpt lat="45.4218" lon="5.62501">
        <ele>784</ele>
        <time>2023-04-10T07:36:31Z</time>
      </trkpt>
      <trkpt lat="45.4217" lon="5.62491">
        <ele>784</ele>
        <time>2023-04-10T07:36:35Z</time>
      </trkpt>
      <trkpt lat="45.42161" lon="5.62478">
        <ele>783</ele>
        <time>2023-04-10T07:36:38Z</time>
      </trkpt>
      <trkpt lat="45.42156" lon="5.62466">
        <ele>783</ele>
        <time>2023-04-10T07:36:40Z</time>
      </trkpt>
      <trkpt lat="45.42152" lon="5.62455">
        <ele>783</ele>
        <time>2023-04-10T07:36:42Z</time>
      </trkpt>
      <trkpt lat="45.42142" lon="5.62445">
        <ele>782</ele>
        <time>2023-04-10T07:36:46Z</time>
      </trkpt>
      <trkpt lat="45.42131" lon="5.62439">
        <ele>782</ele>
        <time>2023-04-10T07:36:49Z</time>
      </trkpt>
      <trkpt lat="45.42126" lon="5.62427">
        <ele>781</ele>
        <time>2023-04-10T07:36:52Z</time>
      </trkpt>
      <trkpt lat="45.42118" lon="5.62415">
        <ele>780</ele>
        <time>2023-04-10T07:36:56Z</time>
      </trkpt>
      <trkpt lat="45.4211" lon="5.62405">
        <ele>780</ele>
        <time>2023-04-10T07:36:58Z</time>
      </trkpt>
      <trkpt lat="45.42099" lon="5.62403">
        <ele>781</ele>
        <time>2023-04-10T07:37:02Z</time>
      </trkpt>
      <trkpt lat="45.42088" lon="5.62402">
        <ele>781</ele>
        <time>2023-04-10T07:37:05Z</time>
      </trkpt>
      <trkpt lat="45.42078" lon="5.624">
        <ele>782</ele>
        <time>2023-04-10T07:37:08Z</time>
      </trkpt>
      <trkpt lat="45.42068" lon="5.624">
        <ele>783</ele>
        <time>2023-04-10T07:37:12Z</time>
      </trkpt>
      <trkpt lat="45.42061" lon="5.6239">
        <ele>783</ele>
        <time>2023-04-10T07:37:17Z</time>
      </trkpt>
      <trkpt lat="45.42052" lon="5.62387">
        <ele>785</ele>
        <time>2023-04-10T07:37:21Z</time>
      </trkpt>
      <trkpt lat="45.42046" lon="5.62376">
        <ele>785</ele>
        <time>2023-04-10T07:37:25Z</time>
      </trkpt>
      <trkpt lat="45.42037" lon="5.62368">
        <ele>787</ele>
        <time>2023-04-10T07:37:29Z</time>
      </trkpt>
      <trkpt lat="45.42031" lon="5.62356">
        <ele>787</ele>
        <time>2023-04-10T07:37:34Z</time>
      </trkpt>
      <trkpt lat="45.42029" lon="5.6235">
        <ele>787</ele>
        <time>2023-04-10T07:37:35Z</time>
      </trkpt>
      <trkpt lat="45.42026" lon="5.62345">
        <ele>786</ele>
        <time>2023-04-10T07:37:36Z</time>
      </trkpt>
      <trkpt lat="45.42023" lon="5.62342">
        <ele>786</ele>
        <time>2023-04-10T07:37:37Z</time>
      </trkpt>
      <trkpt lat="45.42019" lon="5.6234">
        <ele>786</ele>
        <time>2023-04-10T07:37:38Z</time>
      </trkpt>
      <trkpt lat="45.42009" lon="5.62336">
        <ele>786</ele>
        <time>2023-04-10T07:37:40Z</time>
      </trkpt>
      <trkpt lat="45.42005" lon="5.62334">
        <ele>786</ele>
        <time>2023-04-10T07:37:41Z</time>
      </trkpt>
      <trkpt lat="45.41999" lon="5.62332">
        <ele>786</ele>
        <time>2023-04-10T07:37:42Z</time>
      </trkpt>
      <trkpt lat="45.41995" lon="5.62331">
        <ele>785</ele>
        <time>2023-04-10T07:37:43Z</time>
      </trkpt>
      <trkpt lat="45.4199" lon="5.62329">
        <ele>784</ele>
        <time>2023-04-10T07:37:44Z</time>
      </trkpt>
      <trkpt lat="45.41981" lon="5.62326">
        <ele>784</ele>
        <time>2023-04-10T07:37:46Z</time>
      </trkpt>
      <trkpt lat="45.41975" lon="5.62326">
        <ele>784</ele>
        <time>2023-04-10T07:37:47Z</time>
      </trkpt>
      <trkpt lat="45.41959" lon="5.62328">
        <ele>784</ele>
        <time>2023-04-10T07:37:49Z</time>
      </trkpt>
      <trkpt lat="45.41952" lon="5.62327">
        <ele>784</ele>
        <time>2023-04-10T07:37:50Z</time>
      </trkpt>
      <trkpt lat="45.41946" lon="5.62328">
        <ele>784</ele>
        <time>2023-04-10T07:37:51Z</time>
      </trkpt>
      <trkpt lat="45.41941" lon="5.6233">
        <ele>784</ele>
        <time>2023-04-10T07:37:52Z</time>
      </trkpt>
      <trkpt lat="45.41934" lon="5.62338">
        <ele>784</ele>
        <time>2023-04-10T07:37:55Z</time>
      </trkpt>
      <trkpt lat="45.41926" lon="5.62347">
        <ele>785</ele>
        <time>2023-04-10T07:37:59Z</time>
      </trkpt>
      <trkpt lat="45.41917" lon="5.62352">
        <ele>785</ele>
        <time>2023-04-10T07:38:02Z</time>
      </trkpt>
      <trkpt lat="45.41906" lon="5.62357">
        <ele>785</ele>
        <time>2023-04-10T07:38:06Z</time>
      </trkpt>
      <trkpt lat="45.41897" lon="5.62358">
        <ele>785</ele>
        <time>2023-04-10T07:38:09Z</time>
      </trkpt>
      <trkpt lat="45.4189" lon="5.62369">
        <ele>785</ele>
        <time>2023-04-10T07:38:12Z</time>
      </trkpt>
      <trkpt lat="45.41882" lon="5.62379">
        <ele>786</ele>
        <time>2023-04-10T07:38:16Z</time>
      </trkpt>
      <trkpt lat="45.41872" lon="5.62387">
        <ele>787</ele>
        <time>2023-04-10T07:38:20Z</time>
      </trkpt>
      <trkpt lat="45.41863" lon="5.62393">
        <ele>788</ele>
        <time>2023-04-10T07:38:24Z</time>
      </trkpt>
      <trkpt lat="45.41861" lon="5.62399">
        <ele>789</ele>
        <time>2023-04-10T07:38:29Z</time>
      </trkpt>
      <trkpt lat="45.4186" lon="5.62402">
        <ele>790</ele>
        <time>2023-04-10T07:38:31Z</time>
      </trkpt>
      <trkpt lat="45.4186" lon="5.62405">
        <ele>790</ele>
        <time>2023-04-10T07:38:33Z</time>
      </trkpt>
      <trkpt lat="45.41859" lon="5.62409">
        <ele>792</ele>
        <time>2023-04-10T07:38:35Z</time>
      </trkpt>
      <trkpt lat="45.41857" lon="5.62413">
        <ele>792</ele>
        <time>2023-04-10T07:38:37Z</time>
      </trkpt>
      <trkpt lat="45.41856" lon="5.62418">
        <ele>792</ele>
        <time>2023-04-10T07:38:39Z</time>
      </trkpt>
      <trkpt lat="45.41855" lon="5.62422">
        <ele>792</ele>
        <time>2023-04-10T07:38:40Z</time>
      </trkpt>
      <trkpt lat="45.41855" lon="5.62426">
        <ele>792</ele>
        <time>2023-04-10T07:38:41Z</time>
      </trkpt>
      <trkpt lat="45.41856" lon="5.62431">
        <ele>792</ele>
        <time>2023-04-10T07:38:42Z</time>
      </trkpt>
      <trkpt lat="45.41856" lon="5.62435">
        <ele>792</ele>
        <time>2023-04-10T07:38:43Z</time>
      </trkpt>
      <trkpt lat="45.41857" lon="5.62439">
        <ele>792</ele>
        <time>2023-04-10T07:38:44Z</time>
      </trkpt>
      <trkpt lat="45.41858" lon="5.62443">
        <ele>792</ele>
        <time>2023-04-10T07:38:45Z</time>
      </trkpt>
      <trkpt lat="45.4186" lon="5.62451">
        <ele>791</ele>
        <time>2023-04-10T07:38:47Z</time>
      </trkpt>
      <trkpt lat="45.41861" lon="5.62454">
        <ele>791</ele>
        <time>2023-04-10T07:38:48Z</time>
      </trkpt>
      <trkpt lat="45.41864" lon="5.6246">
        <ele>791</ele>
        <time>2023-04-10T07:38:50Z</time>
      </trkpt>
      <trkpt lat="45.41866" lon="5.62464">
        <ele>791</ele>
        <time>2023-04-10T07:38:51Z</time>
      </trkpt>
      <trkpt lat="45.41869" lon="5.62478">
        <ele>791</ele>
        <time>2023-04-10T07:38:54Z</time>
      </trkpt>
      <trkpt lat="45.41874" lon="5.62495">
        <ele>791</ele>
        <time>2023-04-10T07:38:57Z</time>
      </trkpt>
      <trkpt lat="45.41877" lon="5.62512">
        <ele>790</ele>
        <time>2023-04-10T07:39:00Z</time>
      </trkpt>
      <trkpt lat="45.4188" lon="5.62527">
        <ele>791</ele>
        <time>2023-04-10T07:39:03Z</time>
      </trkpt>
      <trkpt lat="45.41885" lon="5.62541">
        <ele>791</ele>
        <time>2023-04-10T07:39:06Z</time>
      </trkpt>
      <trkpt lat="45.41891" lon="5.62556">
        <ele>791</ele>
        <time>2023-04-10T07:39:10Z</time>
      </trkpt>
      <trkpt lat="45.41896" lon="5.6257">
        <ele>791</ele>
        <time>2023-04-10T07:39:13Z</time>
      </trkpt>
      <trkpt lat="45.419" lon="5.62584">
        <ele>791</ele>
        <time>2023-04-10T07:39:16Z</time>
      </trkpt>
      <trkpt lat="45.41904" lon="5.62595">
        <ele>791</ele>
        <time>2023-04-10T07:39:19Z</time>
      </trkpt>
      <trkpt lat="45.41908" lon="5.62608">
        <ele>791</ele>
        <time>2023-04-10T07:39:22Z</time>
      </trkpt>
      <trkpt lat="45.4191" lon="5.6262">
        <ele>792</ele>
        <time>2023-04-10T07:39:25Z</time>
      </trkpt>
      <trkpt lat="45.41912" lon="5.62625">
        <ele>792</ele>
        <time>2023-04-10T07:39:26Z</time>
      </trkpt>
      <trkpt lat="45.41914" lon="5.6263">
        <ele>792</ele>
        <time>2023-04-10T07:39:27Z</time>
      </trkpt>
      <trkpt lat="45.41916" lon="5.62635">
        <ele>791</ele>
        <time>2023-04-10T07:39:28Z</time>
      </trkpt>
      <trkpt lat="45.41918" lon="5.6264">
        <ele>791</ele>
        <time>2023-04-10T07:39:29Z</time>
      </trkpt>
      <trkpt lat="45.4192" lon="5.62646">
        <ele>791</ele>
        <time>2023-04-10T07:39:30Z</time>
      </trkpt>
      <trkpt lat="45.41921" lon="5.62649">
        <ele>792</ele>
        <time>2023-04-10T07:39:32Z</time>
      </trkpt>
      <trkpt lat="45.41923" lon="5.62652">
        <ele>792</ele>
        <time>2023-04-10T07:39:33Z</time>
      </trkpt>
      <trkpt lat="45.41924" lon="5.62656">
        <ele>793</ele>
        <time>2023-04-10T07:39:34Z</time>
      </trkpt>
      <trkpt lat="45.41933" lon="5.62668">
        <ele>793</ele>
        <time>2023-04-10T07:39:38Z</time>
      </trkpt>
      <trkpt lat="45.41936" lon="5.62672">
        <ele>793</ele>
        <time>2023-04-10T07:39:40Z</time>
      </trkpt>
      <trkpt lat="45.41943" lon="5.62684">
        <ele>794</ele>
        <time>2023-04-10T07:39:45Z</time>
      </trkpt>
      <trkpt lat="45.41952" lon="5.62694">
        <ele>794</ele>
        <time>2023-04-10T07:39:48Z</time>
      </trkpt>
      <trkpt lat="45.41954" lon="5.62695">
        <ele>794</ele>
        <time>2023-04-10T07:39:49Z</time>
      </trkpt>
      <trkpt lat="45.41963" lon="5.62705">
        <ele>795</ele>
        <time>2023-04-10T07:39:54Z</time>
      </trkpt>
      <trkpt lat="45.41971" lon="5.62713">
        <ele>795</ele>
        <time>2023-04-10T07:39:58Z</time>
      </trkpt>
      <trkpt lat="45.41975" lon="5.62727">
        <ele>795</ele>
        <time>2023-04-10T07:40:02Z</time>
      </trkpt>
      <trkpt lat="45.41978" lon="5.62744">
        <ele>795</ele>
        <time>2023-04-10T07:40:05Z</time>
      </trkpt>
      <trkpt lat="45.41983" lon="5.62758">
        <ele>794</ele>
        <time>2023-04-10T07:40:10Z</time>
      </trkpt>
      <trkpt lat="45.41991" lon="5.62767">
        <ele>795</ele>
        <time>2023-04-10T07:40:14Z</time>
      </trkpt>
      <trkpt lat="45.42" lon="5.62776">
        <ele>796</ele>
        <time>2023-04-10T07:40:18Z</time>
      </trkpt>
      <trkpt lat="45.42001" lon="5.6279">
        <ele>797</ele>
        <time>2023-04-10T07:40:23Z</time>
      </trkpt>
      <trkpt lat="45.42007" lon="5.62801">
        <ele>797</ele>
        <time>2023-04-10T07:40:28Z</time>
      </trkpt>
      <trkpt lat="45.42011" lon="5.62813">
        <ele>797</ele>
        <time>2023-04-10T07:40:32Z</time>
      </trkpt>
      <trkpt lat="45.42015" lon="5.62826">
        <ele>797</ele>
        <time>2023-04-10T07:40:35Z</time>
      </trkpt>
      <trkpt lat="45.4202" lon="5.62839">
        <ele>798</ele>
        <time>2023-04-10T07:40:38Z</time>
      </trkpt>
      <trkpt lat="45.42024" lon="5.62851">
        <ele>798</ele>
        <time>2023-04-10T07:40:41Z</time>
      </trkpt>
      <trkpt lat="45.42027" lon="5.62869">
        <ele>798</ele>
        <time>2023-04-10T07:40:45Z</time>
      </trkpt>
      <trkpt lat="45.42028" lon="5.62883">
        <ele>799</ele>
        <time>2023-04-10T07:40:48Z</time>
      </trkpt>
      <trkpt lat="45.4203" lon="5.62896">
        <ele>799</ele>
        <time>2023-04-10T07:40:51Z</time>
      </trkpt>
      <trkpt lat="45.42032" lon="5.6291">
        <ele>799</ele>
        <time>2023-04-10T07:40:55Z</time>
      </trkpt>
      <trkpt lat="45.42032" lon="5.62926">
        <ele>799</ele>
        <time>2023-04-10T07:40:59Z</time>
      </trkpt>
      <trkpt lat="45.42034" lon="5.62939">
        <ele>800</ele>
        <time>2023-04-10T07:41:03Z</time>
      </trkpt>
      <trkpt lat="45.42036" lon="5.62952">
        <ele>801</ele>
        <time>2023-04-10T07:41:07Z</time>
      </trkpt>
      <trkpt lat="45.42038" lon="5.62965">
        <ele>803</ele>
        <time>2023-04-10T07:41:12Z</time>
      </trkpt>
      <trkpt lat="45.42037" lon="5.62971">
        <ele>803</ele>
        <time>2023-04-10T07:41:15Z</time>
      </trkpt>
      <trkpt lat="45.42037" lon="5.62975">
        <ele>804</ele>
        <time>2023-04-10T07:41:17Z</time>
      </trkpt>
      <trkpt lat="45.42037" lon="5.62981">
        <ele>804</ele>
        <time>2023-04-10T07:41:19Z</time>
      </trkpt>
      <trkpt lat="45.42037" lon="5.62984">
        <ele>804</ele>
        <time>2023-04-10T07:41:20Z</time>
      </trkpt>
      <trkpt lat="45.42037" lon="5.62987">
        <ele>804</ele>
        <time>2023-04-10T07:41:21Z</time>
      </trkpt>
      <trkpt lat="45.42037" lon="5.62989">
        <ele>804</ele>
        <time>2023-04-10T07:41:22Z</time>
      </trkpt>
      <trkpt lat="45.42037" lon="5.62993">
        <ele>805</ele>
        <time>2023-04-10T07:41:23Z</time>
      </trkpt>
      <trkpt lat="45.42038" lon="5.62997">
        <ele>805</ele>
        <time>2023-04-10T07:41:25Z</time>
      </trkpt>
      <trkpt lat="45.42038" lon="5.62999">
        <ele>805</ele>
        <time>2023-04-10T07:41:27Z</time>
      </trkpt>
      <trkpt lat="45.42039" lon="5.63006">
        <ele>806</ele>
        <time>2023-04-10T07:41:30Z</time>
      </trkpt>
      <trkpt lat="45.4204" lon="5.63021">
        <ele>807</ele>
        <time>2023-04-10T07:41:35Z</time>
      </trkpt>
      <trkpt lat="45.42042" lon="5.63034">
        <ele>808</ele>
        <time>2023-04-10T07:41:40Z</time>
      </trkpt>
      <trkpt lat="45.42045" lon="5.63043">
        <ele>808</ele>
        <time>2023-04-10T07:41:43Z</time>
      </trkpt>
      <trkpt lat="45.42048" lon="5.6305">
        <ele>810</ele>
        <time>2023-04-10T07:41:46Z</time>
      </trkpt>
      <trkpt lat="45.42048" lon="5.63053">
        <ele>811</ele>
        <time>2023-04-10T07:41:48Z</time>
      </trkpt>
      <trkpt lat="45.42048" lon="5.63056">
        <ele>812</ele>
        <time>2023-04-10T07:41:50Z</time>
      </trkpt>
      <trkpt lat="45.42048" lon="5.6306">
        <ele>812</ele>
        <time>2023-04-10T07:41:52Z</time>
      </trkpt>
      <trkpt lat="45.42048" lon="5.63062">
        <ele>812</ele>
        <time>2023-04-10T07:41:53Z</time>
      </trkpt>
      <trkpt lat="45.42049" lon="5.63066">
        <ele>812</ele>
        <time>2023-04-10T07:41:54Z</time>
      </trkpt>
      <trkpt lat="45.4205" lon="5.63069">
        <ele>813</ele>
        <time>2023-04-10T07:41:55Z</time>
      </trkpt>
      <trkpt lat="45.4205" lon="5.63074">
        <ele>813</ele>
        <time>2023-04-10T07:41:57Z</time>
      </trkpt>
      <trkpt lat="45.42051" lon="5.63076">
        <ele>813</ele>
        <time>2023-04-10T07:41:58Z</time>
      </trkpt>
      <trkpt lat="45.42053" lon="5.6308">
        <ele>813</ele>
        <time>2023-04-10T07:42:00Z</time>
      </trkpt>
      <trkpt lat="45.42054" lon="5.63083">
        <ele>813</ele>
        <time>2023-04-10T07:42:01Z</time>
      </trkpt>
      <trkpt lat="45.42055" lon="5.63088">
        <ele>813</ele>
        <time>2023-04-10T07:42:02Z</time>
      </trkpt>
      <trkpt lat="45.42055" lon="5.63091">
        <ele>815</ele>
        <time>2023-04-10T07:42:05Z</time>
      </trkpt>
      <trkpt lat="45.42055" lon="5.63094">
        <ele>815</ele>
        <time>2023-04-10T07:42:07Z</time>
      </trkpt>
      <trkpt lat="45.42055" lon="5.63098">
        <ele>815</ele>
        <time>2023-04-10T07:42:09Z</time>
      </trkpt>
      <trkpt lat="45.42056" lon="5.63101">
        <ele>817</ele>
        <time>2023-04-10T07:42:11Z</time>
      </trkpt>
      <trkpt lat="45.42056" lon="5.63105">
        <ele>817</ele>
        <time>2023-04-10T07:42:13Z</time>
      </trkpt>
      <trkpt lat="45.42056" lon="5.6311">
        <ele>817</ele>
        <time>2023-04-10T07:42:15Z</time>
      </trkpt>
      <trkpt lat="45.42059" lon="5.63112">
        <ele>818</ele>
        <time>2023-04-10T07:42:17Z</time>
      </trkpt>
      <trkpt lat="45.4206" lon="5.63116">
        <ele>819</ele>
        <time>2023-04-10T07:42:20Z</time>
      </trkpt>
      <trkpt lat="45.42059" lon="5.63122">
        <ele>819</ele>
        <time>2023-04-10T07:42:22Z</time>
      </trkpt>
      <trkpt lat="45.42059" lon="5.63124">
        <ele>820</ele>
        <time>2023-04-10T07:42:23Z</time>
      </trkpt>
      <trkpt lat="45.42059" lon="5.63128">
        <ele>820</ele>
        <time>2023-04-10T07:42:25Z</time>
      </trkpt>
      <trkpt lat="45.42058" lon="5.63133">
        <ele>821</ele>
        <time>2023-04-10T07:42:27Z</time>
      </trkpt>
      <trkpt lat="45.42058" lon="5.63138">
        <ele>821</ele>
        <time>2023-04-10T07:42:29Z</time>
      </trkpt>
      <trkpt lat="45.42058" lon="5.63142">
        <ele>822</ele>
        <time>2023-04-10T07:42:31Z</time>
      </trkpt>
      <trkpt lat="45.42059" lon="5.63146">
        <ele>822</ele>
        <time>2023-04-10T07:42:33Z</time>
      </trkpt>
      <trkpt lat="45.42059" lon="5.6315">
        <ele>822</ele>
        <time>2023-04-10T07:42:35Z</time>
      </trkpt>
      <trkpt lat="45.4206" lon="5.63154">
        <ele>823</ele>
        <time>2023-04-10T07:42:37Z</time>
      </trkpt>
      <trkpt lat="45.42061" lon="5.63157">
        <ele>823</ele>
        <time>2023-04-10T07:42:39Z</time>
      </trkpt>
      <trkpt lat="45.42061" lon="5.63161">
        <ele>824</ele>
        <time>2023-04-10T07:42:41Z</time>
      </trkpt>
      <trkpt lat="45.42062" lon="5.63164">
        <ele>825</ele>
        <time>2023-04-10T07:42:43Z</time>
      </trkpt>
      <trkpt lat="45.42063" lon="5.63167">
        <ele>825</ele>
        <time>2023-04-10T07:42:45Z</time>
      </trkpt>
      <trkpt lat="45.42065" lon="5.63164">
        <ele>826</ele>
        <time>2023-04-10T07:42:49Z</time>
      </trkpt>
      <trkpt lat="45.42067" lon="5.63161">
        <ele>827</ele>
        <time>2023-04-10T07:42:51Z</time>
      </trkpt>
      <trkpt lat="45.42068" lon="5.63157">
        <ele>827</ele>
        <time>2023-04-10T07:42:53Z</time>
      </trkpt>
      <trkpt lat="45.42069" lon="5.63154">
        <ele>827</ele>
        <time>2023-04-10T07:42:55Z</time>
      </trkpt>
      <trkpt lat="45.42071" lon="5.6315">
        <ele>828</ele>
        <time>2023-04-10T07:42:57Z</time>
      </trkpt>
      <trkpt lat="45.42072" lon="5.63147">
        <ele>828</ele>
        <time>2023-04-10T07:42:59Z</time>
      </trkpt>
      <trkpt lat="45.42074" lon="5.63144">
        <ele>828</ele>
        <time>2023-04-10T07:43:01Z</time>
      </trkpt>
      <trkpt lat="45.42075" lon="5.63141">
        <ele>829</ele>
        <time>2023-04-10T07:43:03Z</time>
      </trkpt>
      <trkpt lat="45.42077" lon="5.63138">
        <ele>829</ele>
        <time>2023-04-10T07:43:05Z</time>
      </trkpt>
      <trkpt lat="45.42078" lon="5.63135">
        <ele>830</ele>
        <time>2023-04-10T07:43:07Z</time>
      </trkpt>
      <trkpt lat="45.42079" lon="5.63132">
        <ele>830</ele>
        <time>2023-04-10T07:43:09Z</time>
      </trkpt>
      <trkpt lat="45.4208" lon="5.63129">
        <ele>831</ele>
        <time>2023-04-10T07:43:11Z</time>
      </trkpt>
      <trkpt lat="45.42082" lon="5.63126">
        <ele>831</ele>
        <time>2023-04-10T07:43:13Z</time>
      </trkpt>
      <trkpt lat="45.42083" lon="5.63123">
        <ele>831</ele>
        <time>2023-04-10T07:43:15Z</time>
      </trkpt>
      <trkpt lat="45.42084" lon="5.63121">
        <ele>831</ele>
        <time>2023-04-10T07:43:17Z</time>
      </trkpt>
      <trkpt lat="45.42086" lon="5.63119">
        <ele>831</ele>
        <time>2023-04-10T07:43:19Z</time>
      </trkpt>
      <trkpt lat="45.42088" lon="5.63117">
        <ele>832</ele>
        <time>2023-04-10T07:43:21Z</time>
      </trkpt>
      <trkpt lat="45.42091" lon="5.63116">
        <ele>833</ele>
        <time>2023-04-10T07:43:23Z</time>
      </trkpt>
      <trkpt lat="45.42093" lon="5.63118">
        <ele>833</ele>
        <time>2023-04-10T07:43:25Z</time>
      </trkpt>
      <trkpt lat="45.42094" lon="5.63122">
        <ele>834</ele>
        <time>2023-04-10T07:43:27Z</time>
      </trkpt>
      <trkpt lat="45.42094" lon="5.63126">
        <ele>834</ele>
        <time>2023-04-10T07:43:29Z</time>
      </trkpt>
      <trkpt lat="45.42094" lon="5.6313">
        <ele>834</ele>
        <time>2023-04-10T07:43:31Z</time>
      </trkpt>
      <trkpt lat="45.42093" lon="5.63134">
        <ele>834</ele>
        <time>2023-04-10T07:43:33Z</time>
      </trkpt>
      <trkpt lat="45.42093" lon="5.63138">
        <ele>835</ele>
        <time>2023-04-10T07:43:35Z</time>
      </trkpt>
      <trkpt lat="45.42093" lon="5.63141">
        <ele>835</ele>
        <time>2023-04-10T07:43:37Z</time>
      </trkpt>
      <trkpt lat="45.42094" lon="5.63145">
        <ele>836</ele>
        <time>2023-04-10T07:43:39Z</time>
      </trkpt>
      <trkpt lat="45.42094" lon="5.6315">
        <ele>836</ele>
        <time>2023-04-10T07:43:41Z</time>
      </trkpt>
      <trkpt lat="45.42094" lon="5.63154">
        <ele>837</ele>
        <time>2023-04-10T07:43:43Z</time>
      </trkpt>
      <trkpt lat="45.42093" lon="5.63159">
        <ele>837</ele>
        <time>2023-04-10T07:43:45Z</time>
      </trkpt>
      <trkpt lat="45.42094" lon="5.63163">
        <ele>837</ele>
        <time>2023-04-10T07:43:47Z</time>
      </trkpt>
      <trkpt lat="45.42093" lon="5.63167">
        <ele>837</ele>
        <time>2023-04-10T07:43:49Z</time>
      </trkpt>
      <trkpt lat="45.42093" lon="5.63171">
        <ele>838</ele>
        <time>2023-04-10T07:43:51Z</time>
      </trkpt>
      <trkpt lat="45.42092" lon="5.63175">
        <ele>839</ele>
        <time>2023-04-10T07:43:53Z</time>
      </trkpt>
      <trkpt lat="45.42091" lon="5.63178">
        <ele>839</ele>
        <time>2023-04-10T07:43:55Z</time>
      </trkpt>
      <trkpt lat="45.4209" lon="5.6318">
        <ele>839</ele>
        <time>2023-04-10T07:43:59Z</time>
      </trkpt>
      <trkpt lat="45.4209" lon="5.63185">
        <ele>840</ele>
        <time>2023-04-10T07:44:02Z</time>
      </trkpt>
      <trkpt lat="45.42089" lon="5.6319">
        <ele>840</ele>
        <time>2023-04-10T07:44:04Z</time>
      </trkpt>
      <trkpt lat="45.42087" lon="5.632">
        <ele>840</ele>
        <time>2023-04-10T07:44:09Z</time>
      </trkpt>
      <trkpt lat="45.42086" lon="5.63205">
        <ele>840</ele>
        <time>2023-04-10T07:44:11Z</time>
      </trkpt>
      <trkpt lat="45.42084" lon="5.63209">
        <ele>841</ele>
        <time>2023-04-10T07:44:13Z</time>
      </trkpt>
      <trkpt lat="45.42082" lon="5.63213">
        <ele>841</ele>
        <time>2023-04-10T07:44:15Z</time>
      </trkpt>
      <trkpt lat="45.4208" lon="5.63216">
        <ele>841</ele>
        <time>2023-04-10T07:44:17Z</time>
      </trkpt>
      <trkpt lat="45.42078" lon="5.6322">
        <ele>843</ele>
        <time>2023-04-10T07:44:19Z</time>
      </trkpt>
      <trkpt lat="45.42076" lon="5.63223">
        <ele>842</ele>
        <time>2023-04-10T07:44:21Z</time>
      </trkpt>
      <trkpt lat="45.42076" lon="5.63226">
        <ele>842</ele>
        <time>2023-04-10T07:44:22Z</time>
      </trkpt>
      <trkpt lat="45.42076" lon="5.6323">
        <ele>843</ele>
        <time>2023-04-10T07:44:25Z</time>
      </trkpt>
      <trkpt lat="45.42074" lon="5.63233">
        <ele>843</ele>
        <time>2023-04-10T07:44:27Z</time>
      </trkpt>
      <trkpt lat="45.42068" lon="5.63244">
        <ele>845</ele>
        <time>2023-04-10T07:44:35Z</time>
      </trkpt>
      <trkpt lat="45.42061" lon="5.63253">
        <ele>847</ele>
        <time>2023-04-10T07:44:40Z</time>
      </trkpt>
      <trkpt lat="45.42055" lon="5.63263">
        <ele>847</ele>
        <time>2023-04-10T07:44:45Z</time>
      </trkpt>
      <trkpt lat="45.42051" lon="5.63276">
        <ele>850</ele>
        <time>2023-04-10T07:44:58Z</time>
      </trkpt>
      <trkpt lat="45.42048" lon="5.63273">
        <ele>850</ele>
        <time>2023-04-10T07:45:07Z</time>
      </trkpt>
      <trkpt lat="45.42044" lon="5.63276">
        <ele>850</ele>
        <time>2023-04-10T07:45:14Z</time>
      </trkpt>
      <trkpt lat="45.4204" lon="5.63276">
        <ele>850</ele>
        <time>2023-04-10T07:45:17Z</time>
      </trkpt>
      <trkpt lat="45.42031" lon="5.63266">
        <ele>851</ele>
        <time>2023-04-10T07:45:21Z</time>
      </trkpt>
      <trkpt lat="45.4203" lon="5.63251">
        <ele>849</ele>
        <time>2023-04-10T07:45:25Z</time>
      </trkpt>
      <trkpt lat="45.42034" lon="5.63235">
        <ele>849</ele>
        <time>2023-04-10T07:45:28Z</time>
      </trkpt>
      <trkpt lat="45.42034" lon="5.6323">
        <ele>849</ele>
        <time>2023-04-10T07:45:29Z</time>
      </trkpt>
      <trkpt lat="45.42034" lon="5.63225">
        <ele>849</ele>
        <time>2023-04-10T07:45:30Z</time>
      </trkpt>
      <trkpt lat="45.42031" lon="5.63213">
        <ele>848</ele>
        <time>2023-04-10T07:45:33Z</time>
      </trkpt>
      <trkpt lat="45.42029" lon="5.63206">
        <ele>848</ele>
        <time>2023-04-10T07:45:34Z</time>
      </trkpt>
      <trkpt lat="45.42028" lon="5.63203">
        <ele>847</ele>
        <time>2023-04-10T07:45:38Z</time>
      </trkpt>
      <trkpt lat="45.42026" lon="5.63201">
        <ele>848</ele>
        <time>2023-04-10T07:45:41Z</time>
      </trkpt>
      <trkpt lat="45.42024" lon="5.63199">
        <ele>848</ele>
        <time>2023-04-10T07:45:43Z</time>
      </trkpt>
      <trkpt lat="45.42022" lon="5.63196">
        <ele>848</ele>
        <time>2023-04-10T07:45:45Z</time>
      </trkpt>
      <trkpt lat="45.42022" lon="5.63194">
        <ele>848</ele>
        <time>2023-04-10T07:45:46Z</time>
      </trkpt>
      <trkpt lat="45.4202" lon="5.6319">
        <ele>848</ele>
        <time>2023-04-10T07:45:47Z</time>
      </trkpt>
      <trkpt lat="45.42019" lon="5.63186">
        <ele>848</ele>
        <time>2023-04-10T07:45:48Z</time>
      </trkpt>
      <trkpt lat="45.42017" lon="5.63184">
        <ele>848</ele>
        <time>2023-04-10T07:45:49Z</time>
      </trkpt>
      <trkpt lat="45.42016" lon="5.63182">
        <ele>848</ele>
        <time>2023-04-10T07:45:50Z</time>
      </trkpt>
      <trkpt lat="45.42014" lon="5.63181">
        <ele>848</ele>
        <time>2023-04-10T07:45:51Z</time>
      </trkpt>
      <trkpt lat="45.42009" lon="5.63179">
        <ele>848</ele>
        <time>2023-04-10T07:45:53Z</time>
      </trkpt>
      <trkpt lat="45.42007" lon="5.63178">
        <ele>849</ele>
        <time>2023-04-10T07:45:56Z</time>
      </trkpt>
      <trkpt lat="45.42004" lon="5.63176">
        <ele>849</ele>
        <time>2023-04-10T07:45:58Z</time>
      </trkpt>
      <trkpt lat="45.42002" lon="5.63174">
        <ele>849</ele>
        <time>2023-04-10T07:45:59Z</time>
      </trkpt>
      <trkpt lat="45.42" lon="5.63173">
        <ele>849</ele>
        <time>2023-04-10T07:46:00Z</time>
      </trkpt>
      <trkpt lat="45.41998" lon="5.63171">
        <ele>849</ele>
        <time>2023-04-10T07:46:01Z</time>
      </trkpt>
      <trkpt lat="45.41993" lon="5.63168">
        <ele>849</ele>
        <time>2023-04-10T07:46:02Z</time>
      </trkpt>
      <trkpt lat="45.4199" lon="5.63166">
        <ele>849</ele>
        <time>2023-04-10T07:46:04Z</time>
      </trkpt>
      <trkpt lat="45.41987" lon="5.63164">
        <ele>849</ele>
        <time>2023-04-10T07:46:05Z</time>
      </trkpt>
      <trkpt lat="45.41984" lon="5.63162">
        <ele>849</ele>
        <time>2023-04-10T07:46:06Z</time>
      </trkpt>
      <trkpt lat="45.4198" lon="5.63158">
        <ele>849</ele>
        <time>2023-04-10T07:46:07Z</time>
      </trkpt>
      <trkpt lat="45.41977" lon="5.63154">
        <ele>849</ele>
        <time>2023-04-10T07:46:08Z</time>
      </trkpt>
      <trkpt lat="45.41973" lon="5.63151">
        <ele>849</ele>
        <time>2023-04-10T07:46:09Z</time>
      </trkpt>
      <trkpt lat="45.41969" lon="5.63148">
        <ele>849</ele>
        <time>2023-04-10T07:46:10Z</time>
      </trkpt>
      <trkpt lat="45.41966" lon="5.63144">
        <ele>849</ele>
        <time>2023-04-10T07:46:11Z</time>
      </trkpt>
      <trkpt lat="45.41959" lon="5.63137">
        <ele>849</ele>
        <time>2023-04-10T07:46:12Z</time>
      </trkpt>
      <trkpt lat="45.41954" lon="5.63132">
        <ele>849</ele>
        <time>2023-04-10T07:46:14Z</time>
      </trkpt>
      <trkpt lat="45.41949" lon="5.63127">
        <ele>849</ele>
        <time>2023-04-10T07:46:15Z</time>
      </trkpt>
      <trkpt lat="45.41944" lon="5.63122">
        <ele>849</ele>
        <time>2023-04-10T07:46:16Z</time>
      </trkpt>
      <trkpt lat="45.41938" lon="5.63119">
        <ele>849</ele>
        <time>2023-04-10T07:46:17Z</time>
      </trkpt>
      <trkpt lat="45.41933" lon="5.63116">
        <ele>849</ele>
        <time>2023-04-10T07:46:18Z</time>
      </trkpt>
      <trkpt lat="45.41928" lon="5.63115">
        <ele>849</ele>
        <time>2023-04-10T07:46:19Z</time>
      </trkpt>
      <trkpt lat="45.41922" lon="5.63114">
        <ele>849</ele>
        <time>2023-04-10T07:46:20Z</time>
      </trkpt>
      <trkpt lat="45.41917" lon="5.63112">
        <ele>849</ele>
        <time>2023-04-10T07:46:21Z</time>
      </trkpt>
      <trkpt lat="45.41912" lon="5.63111">
        <ele>849</ele>
        <time>2023-04-10T07:46:22Z</time>
      </trkpt>
      <trkpt lat="45.41907" lon="5.63112">
        <ele>848</ele>
        <time>2023-04-10T07:46:23Z</time>
      </trkpt>
      <trkpt lat="45.41902" lon="5.63114">
        <ele>848</ele>
        <time>2023-04-10T07:46:24Z</time>
      </trkpt>
      <trkpt lat="45.41898" lon="5.63117">
        <ele>847</ele>
        <time>2023-04-10T07:46:25Z</time>
      </trkpt>
      <trkpt lat="45.41893" lon="5.63123">
        <ele>847</ele>
        <time>2023-04-10T07:46:26Z</time>
      </trkpt>
      <trkpt lat="45.41888" lon="5.6313">
        <ele>847</ele>
        <time>2023-04-10T07:46:27Z</time>
      </trkpt>
      <trkpt lat="45.41883" lon="5.63137">
        <ele>846</ele>
        <time>2023-04-10T07:46:28Z</time>
      </trkpt>
      <trkpt lat="45.41879" lon="5.63144">
        <ele>846</ele>
        <time>2023-04-10T07:46:29Z</time>
      </trkpt>
      <trkpt lat="45.41874" lon="5.6315">
        <ele>846</ele>
        <time>2023-04-10T07:46:30Z</time>
      </trkpt>
      <trkpt lat="45.4187" lon="5.63155">
        <ele>846</ele>
        <time>2023-04-10T07:46:31Z</time>
      </trkpt>
      <trkpt lat="45.41865" lon="5.6316">
        <ele>846</ele>
        <time>2023-04-10T07:46:32Z</time>
      </trkpt>
      <trkpt lat="45.41861" lon="5.63164">
        <ele>846</ele>
        <time>2023-04-10T07:46:33Z</time>
      </trkpt>
      <trkpt lat="45.41857" lon="5.63168">
        <ele>846</ele>
        <time>2023-04-10T07:46:34Z</time>
      </trkpt>
      <trkpt lat="45.41854" lon="5.6317">
        <ele>846</ele>
        <time>2023-04-10T07:46:35Z</time>
      </trkpt>
      <trkpt lat="45.41851" lon="5.63171">
        <ele>846</ele>
        <time>2023-04-10T07:46:36Z</time>
      </trkpt>
      <trkpt lat="45.41849" lon="5.63172">
        <ele>846</ele>
        <time>2023-04-10T07:46:37Z</time>
      </trkpt>
      <trkpt lat="45.41844" lon="5.63175">
        <ele>846</ele>
        <time>2023-04-10T07:46:39Z</time>
      </trkpt>
      <trkpt lat="45.41841" lon="5.63176">
        <ele>846</ele>
        <time>2023-04-10T07:46:40Z</time>
      </trkpt>
      <trkpt lat="45.41835" lon="5.63177">
        <ele>847</ele>
        <time>2023-04-10T07:46:42Z</time>
      </trkpt>
      <trkpt lat="45.41832" lon="5.63177">
        <ele>847</ele>
        <time>2023-04-10T07:46:43Z</time>
      </trkpt>
      <trkpt lat="45.4183" lon="5.63178">
        <ele>847</ele>
        <time>2023-04-10T07:46:44Z</time>
      </trkpt>
      <trkpt lat="45.41828" lon="5.63179">
        <ele>848</ele>
        <time>2023-04-10T07:46:45Z</time>
      </trkpt>
      <trkpt lat="45.41825" lon="5.6318">
        <ele>848</ele>
        <time>2023-04-10T07:46:46Z</time>
      </trkpt>
      <trkpt lat="45.41822" lon="5.63181">
        <ele>848</ele>
        <time>2023-04-10T07:46:47Z</time>
      </trkpt>
      <trkpt lat="45.4182" lon="5.63181">
        <ele>849</ele>
        <time>2023-04-10T07:46:48Z</time>
      </trkpt>
      <trkpt lat="45.41817" lon="5.63182">
        <ele>849</ele>
        <time>2023-04-10T07:46:49Z</time>
      </trkpt>
      <trkpt lat="45.41815" lon="5.63183">
        <ele>849</ele>
        <time>2023-04-10T07:46:50Z</time>
      </trkpt>
      <trkpt lat="45.41813" lon="5.63185">
        <ele>849</ele>
        <time>2023-04-10T07:46:51Z</time>
      </trkpt>
      <trkpt lat="45.41811" lon="5.63186">
        <ele>849</ele>
        <time>2023-04-10T07:46:52Z</time>
      </trkpt>
      <trkpt lat="45.41809" lon="5.63188">
        <ele>849</ele>
        <time>2023-04-10T07:46:53Z</time>
      </trkpt>
      <trkpt lat="45.41807" lon="5.6319">
        <ele>849</ele>
        <time>2023-04-10T07:46:54Z</time>
      </trkpt>
      <trkpt lat="45.41805" lon="5.63191">
        <ele>849</ele>
        <time>2023-04-10T07:46:55Z</time>
      </trkpt>
      <trkpt lat="45.41803" lon="5.63192">
        <ele>849</ele>
        <time>2023-04-10T07:46:56Z</time>
      </trkpt>
      <trkpt lat="45.41801" lon="5.63194">
        <ele>850</ele>
        <time>2023-04-10T07:46:57Z</time>
      </trkpt>
      <trkpt lat="45.41798" lon="5.63195">
        <ele>850</ele>
        <time>2023-04-10T07:46:58Z</time>
      </trkpt>
      <trkpt lat="45.41797" lon="5.63196">
        <ele>850</ele>
        <time>2023-04-10T07:46:59Z</time>
      </trkpt>
      <trkpt lat="45.41788" lon="5.63201">
        <ele>851</ele>
        <time>2023-04-10T07:47:03Z</time>
      </trkpt>
      <trkpt lat="45.41779" lon="5.63207">
        <ele>853</ele>
        <time>2023-04-10T07:47:07Z</time>
      </trkpt>
      <trkpt lat="45.41769" lon="5.63209">
        <ele>853</ele>
        <time>2023-04-10T07:47:09Z</time>
      </trkpt>
      <trkpt lat="45.41759" lon="5.63215">
        <ele>855</ele>
        <time>2023-04-10T07:47:14Z</time>
      </trkpt>
      <trkpt lat="45.41748" lon="5.63221">
        <ele>856</ele>
        <time>2023-04-10T07:47:18Z</time>
      </trkpt>
      <trkpt lat="45.41742" lon="5.63225">
        <ele>856</ele>
        <time>2023-04-10T07:47:23Z</time>
      </trkpt>
      <trkpt lat="45.41737" lon="5.6323">
        <ele>855</ele>
        <time>2023-04-10T07:47:28Z</time>
      </trkpt>
      <trkpt lat="45.41729" lon="5.6324">
        <ele>857</ele>
        <time>2023-04-10T07:47:34Z</time>
      </trkpt>
      <trkpt lat="45.41725" lon="5.63247">
        <ele>857</ele>
        <time>2023-04-10T07:47:38Z</time>
      </trkpt>
      <trkpt lat="45.41718" lon="5.63254">
        <ele>858</ele>
        <time>2023-04-10T07:47:42Z</time>
      </trkpt>
      <trkpt lat="45.41716" lon="5.63256">
        <ele>858</ele>
        <time>2023-04-10T07:47:43Z</time>
      </trkpt>
      <trkpt lat="45.41714" lon="5.63257">
        <ele>858</ele>
        <time>2023-04-10T07:47:44Z</time>
      </trkpt>
      <trkpt lat="45.41713" lon="5.63259">
        <ele>858</ele>
        <time>2023-04-10T07:47:45Z</time>
      </trkpt>
      <trkpt lat="45.41711" lon="5.63261">
        <ele>858</ele>
        <time>2023-04-10T07:47:46Z</time>
      </trkpt>
      <trkpt lat="45.41709" lon="5.63261">
        <ele>858</ele>
        <time>2023-04-10T07:47:47Z</time>
      </trkpt>
      <trkpt lat="45.41708" lon="5.63258">
        <ele>858</ele>
        <time>2023-04-10T07:47:48Z</time>
      </trkpt>
      <trkpt lat="45.41706" lon="5.63256">
        <ele>858</ele>
        <time>2023-04-10T07:47:49Z</time>
      </trkpt>
      <trkpt lat="45.41703" lon="5.63255">
        <ele>858</ele>
        <time>2023-04-10T07:47:50Z</time>
      </trkpt>
      <trkpt lat="45.417" lon="5.63255">
        <ele>858</ele>
        <time>2023-04-10T07:47:51Z</time>
      </trkpt>
      <trkpt lat="45.41698" lon="5.63255">
        <ele>858</ele>
        <time>2023-04-10T07:47:52Z</time>
      </trkpt>
      <trkpt lat="45.41695" lon="5.63256">
        <ele>858</ele>
        <time>2023-04-10T07:47:53Z</time>
      </trkpt>
      <trkpt lat="45.41692" lon="5.63257">
        <ele>858</ele>
        <time>2023-04-10T07:47:54Z</time>
      </trkpt>
      <trkpt lat="45.41689" lon="5.63257">
        <ele>858</ele>
        <time>2023-04-10T07:47:55Z</time>
      </trkpt>
      <trkpt lat="45.41684" lon="5.63257">
        <ele>858</ele>
        <time>2023-04-10T07:47:56Z</time>
      </trkpt>
      <trkpt lat="45.41679" lon="5.63256">
        <ele>858</ele>
        <time>2023-04-10T07:47:57Z</time>
      </trkpt>
      <trkpt lat="45.41675" lon="5.63255">
        <ele>858</ele>
        <time>2023-04-10T07:47:58Z</time>
      </trkpt>
      <trkpt lat="45.41671" lon="5.63254">
        <ele>858</ele>
        <time>2023-04-10T07:47:59Z</time>
      </trkpt>
      <trkpt lat="45.41667" lon="5.63255">
        <ele>858</ele>
        <time>2023-04-10T07:48:00Z</time>
      </trkpt>
      <trkpt lat="45.41664" lon="5.63256">
        <ele>858</ele>
        <time>2023-04-10T07:48:01Z</time>
      </trkpt>
      <trkpt lat="45.4166" lon="5.63257">
        <ele>858</ele>
        <time>2023-04-10T07:48:02Z</time>
      </trkpt>
      <trkpt lat="45.41657" lon="5.63257">
        <ele>858</ele>
        <time>2023-04-10T07:48:03Z</time>
      </trkpt>
      <trkpt lat="45.41653" lon="5.63258">
        <ele>858</ele>
        <time>2023-04-10T07:48:04Z</time>
      </trkpt>
      <trkpt lat="45.41643" lon="5.63256">
        <ele>857</ele>
        <time>2023-04-10T07:48:06Z</time>
      </trkpt>
      <trkpt lat="45.41634" lon="5.63253">
        <ele>856</ele>
        <time>2023-04-10T07:48:08Z</time>
      </trkpt>
      <trkpt lat="45.41629" lon="5.6325">
        <ele>856</ele>
        <time>2023-04-10T07:48:09Z</time>
      </trkpt>
      <trkpt lat="45.41623" lon="5.63248">
        <ele>856</ele>
        <time>2023-04-10T07:48:10Z</time>
      </trkpt>
      <trkpt lat="45.41618" lon="5.63247">
        <ele>856</ele>
        <time>2023-04-10T07:48:11Z</time>
      </trkpt>
      <trkpt lat="45.41612" lon="5.63246">
        <ele>856</ele>
        <time>2023-04-10T07:48:12Z</time>
      </trkpt>
      <trkpt lat="45.41603" lon="5.63247">
        <ele>855</ele>
        <time>2023-04-10T07:48:14Z</time>
      </trkpt>
      <trkpt lat="45.41593" lon="5.63242">
        <ele>855</ele>
        <time>2023-04-10T07:48:16Z</time>
      </trkpt>
      <trkpt lat="45.41584" lon="5.63232">
        <ele>854</ele>
        <time>2023-04-10T07:48:18Z</time>
      </trkpt>
      <trkpt lat="45.41575" lon="5.63215">
        <ele>853</ele>
        <time>2023-04-10T07:48:20Z</time>
      </trkpt>
      <trkpt lat="45.41572" lon="5.63208">
        <ele>852</ele>
        <time>2023-04-10T07:48:21Z</time>
      </trkpt>
      <trkpt lat="45.41568" lon="5.63201">
        <ele>852</ele>
        <time>2023-04-10T07:48:22Z</time>
      </trkpt>
      <trkpt lat="45.41566" lon="5.63196">
        <ele>852</ele>
        <time>2023-04-10T07:48:23Z</time>
      </trkpt>
      <trkpt lat="45.41564" lon="5.63191">
        <ele>853</ele>
        <time>2023-04-10T07:48:24Z</time>
      </trkpt>
      <trkpt lat="45.41562" lon="5.63186">
        <ele>853</ele>
        <time>2023-04-10T07:48:25Z</time>
      </trkpt>
      <trkpt lat="45.41561" lon="5.63181">
        <ele>853</ele>
        <time>2023-04-10T07:48:26Z</time>
      </trkpt>
      <trkpt lat="45.4156" lon="5.63177">
        <ele>853</ele>
        <time>2023-04-10T07:48:27Z</time>
      </trkpt>
      <trkpt lat="45.4156" lon="5.63172">
        <ele>853</ele>
        <time>2023-04-10T07:48:28Z</time>
      </trkpt>
      <trkpt lat="45.41559" lon="5.63168">
        <ele>853</ele>
        <time>2023-04-10T07:48:29Z</time>
      </trkpt>
      <trkpt lat="45.41559" lon="5.63163">
        <ele>854</ele>
        <time>2023-04-10T07:48:30Z</time>
      </trkpt>
      <trkpt lat="45.41561" lon="5.63149">
        <ele>854</ele>
        <time>2023-04-10T07:48:33Z</time>
      </trkpt>
      <trkpt lat="45.41563" lon="5.63132">
        <ele>854</ele>
        <time>2023-04-10T07:48:36Z</time>
      </trkpt>
      <trkpt lat="45.41563" lon="5.63118">
        <ele>853</ele>
        <time>2023-04-10T07:48:38Z</time>
      </trkpt>
      <trkpt lat="45.41564" lon="5.631">
        <ele>853</ele>
        <time>2023-04-10T07:48:40Z</time>
      </trkpt>
      <trkpt lat="45.41564" lon="5.63083">
        <ele>852</ele>
        <time>2023-04-10T07:48:42Z</time>
      </trkpt>
      <trkpt lat="45.41562" lon="5.63068">
        <ele>851</ele>
        <time>2023-04-10T07:48:44Z</time>
      </trkpt>
      <trkpt lat="45.41561" lon="5.63052">
        <ele>851</ele>
        <time>2023-04-10T07:48:46Z</time>
      </trkpt>
      <trkpt lat="45.41562" lon="5.63034">
        <ele>850</ele>
        <time>2023-04-10T07:48:48Z</time>
      </trkpt>
      <trkpt lat="45.41563" lon="5.63017">
        <ele>850</ele>
        <time>2023-04-10T07:48:50Z</time>
      </trkpt>
      <trkpt lat="45.41557" lon="5.63005">
        <ele>849</ele>
        <time>2023-04-10T07:48:53Z</time>
      </trkpt>
      <trkpt lat="45.41548" lon="5.63001">
        <ele>849</ele>
        <time>2023-04-10T07:48:55Z</time>
      </trkpt>
      <trkpt lat="45.41542" lon="5.63001">
        <ele>849</ele>
        <time>2023-04-10T07:48:56Z</time>
      </trkpt>
      <trkpt lat="45.41537" lon="5.63001">
        <ele>849</ele>
        <time>2023-04-10T07:48:57Z</time>
      </trkpt>
      <trkpt lat="45.41532" lon="5.63">
        <ele>849</ele>
        <time>2023-04-10T07:48:58Z</time>
      </trkpt>
      <trkpt lat="45.41527" lon="5.63001">
        <ele>849</ele>
        <time>2023-04-10T07:48:59Z</time>
      </trkpt>
      <trkpt lat="45.41523" lon="5.63003">
        <ele>849</ele>
        <time>2023-04-10T07:49:00Z</time>
      </trkpt>
      <trkpt lat="45.41519" lon="5.63005">
        <ele>849</ele>
        <time>2023-04-10T07:49:01Z</time>
      </trkpt>
      <trkpt lat="45.41517" lon="5.63007">
        <ele>849</ele>
        <time>2023-04-10T07:49:02Z</time>
      </trkpt>
      <trkpt lat="45.41512" lon="5.6301">
        <ele>849</ele>
        <time>2023-04-10T07:49:03Z</time>
      </trkpt>
      <trkpt lat="45.41509" lon="5.63013">
        <ele>849</ele>
        <time>2023-04-10T07:49:05Z</time>
      </trkpt>
      <trkpt lat="45.41506" lon="5.63016">
        <ele>849</ele>
        <time>2023-04-10T07:49:06Z</time>
      </trkpt>
      <trkpt lat="45.41504" lon="5.63018">
        <ele>849</ele>
        <time>2023-04-10T07:49:07Z</time>
      </trkpt>
      <trkpt lat="45.41502" lon="5.6302">
        <ele>849</ele>
        <time>2023-04-10T07:49:08Z</time>
      </trkpt>
      <trkpt lat="45.415" lon="5.63023">
        <ele>849</ele>
        <time>2023-04-10T07:49:09Z</time>
      </trkpt>
      <trkpt lat="45.41497" lon="5.63027">
        <ele>849</ele>
        <time>2023-04-10T07:49:10Z</time>
      </trkpt>
      <trkpt lat="45.41491" lon="5.63036">
        <ele>849</ele>
        <time>2023-04-10T07:49:12Z</time>
      </trkpt>
      <trkpt lat="45.41489" lon="5.6304">
        <ele>850</ele>
        <time>2023-04-10T07:49:13Z</time>
      </trkpt>
      <trkpt lat="45.41482" lon="5.63049">
        <ele>850</ele>
        <time>2023-04-10T07:49:15Z</time>
      </trkpt>
      <trkpt lat="45.41479" lon="5.63053">
        <ele>850</ele>
        <time>2023-04-10T07:49:16Z</time>
      </trkpt>
      <trkpt lat="45.41468" lon="5.63062">
        <ele>850</ele>
        <time>2023-04-10T07:49:19Z</time>
      </trkpt>
      <trkpt lat="45.41458" lon="5.63073">
        <ele>850</ele>
        <time>2023-04-10T07:49:21Z</time>
      </trkpt>
      <trkpt lat="45.4145" lon="5.63084">
        <ele>849</ele>
        <time>2023-04-10T07:49:22Z</time>
      </trkpt>
      <trkpt lat="45.41442" lon="5.63092">
        <ele>849</ele>
        <time>2023-04-10T07:49:25Z</time>
      </trkpt>
      <trkpt lat="45.41433" lon="5.63099">
        <ele>849</ele>
        <time>2023-04-10T07:49:27Z</time>
      </trkpt>
      <trkpt lat="45.41425" lon="5.63113">
        <ele>849</ele>
        <time>2023-04-10T07:49:30Z</time>
      </trkpt>
      <trkpt lat="45.41418" lon="5.6312">
        <ele>849</ele>
        <time>2023-04-10T07:49:33Z</time>
      </trkpt>
      <trkpt lat="45.41403" lon="5.63121">
        <ele>849</ele>
        <time>2023-04-10T07:49:36Z</time>
      </trkpt>
      <trkpt lat="45.41393" lon="5.63122">
        <ele>849</ele>
        <time>2023-04-10T07:49:37Z</time>
      </trkpt>
      <trkpt lat="45.41378" lon="5.63122">
        <ele>849</ele>
        <time>2023-04-10T07:49:38Z</time>
      </trkpt>
      <trkpt lat="45.41365" lon="5.63121">
        <ele>849</ele>
        <time>2023-04-10T07:49:39Z</time>
      </trkpt>
      <trkpt lat="45.41351" lon="5.6312">
        <ele>849</ele>
        <time>2023-04-10T07:49:41Z</time>
      </trkpt>
      <trkpt lat="45.41339" lon="5.63115">
        <ele>849</ele>
        <time>2023-04-10T07:49:43Z</time>
      </trkpt>
      <trkpt lat="45.41329" lon="5.63113">
        <ele>849</ele>
        <time>2023-04-10T07:49:45Z</time>
      </trkpt>
      <trkpt lat="45.41317" lon="5.6311">
        <ele>849</ele>
        <time>2023-04-10T07:49:49Z</time>
      </trkpt>
      <trkpt lat="45.41308" lon="5.63104">
        <ele>849</ele>
        <time>2023-04-10T07:49:52Z</time>
      </trkpt>
      <trkpt lat="45.41298" lon="5.63104">
        <ele>848</ele>
        <time>2023-04-10T07:49:55Z</time>
      </trkpt>
      <trkpt lat="45.41288" lon="5.63102">
        <ele>847</ele>
        <time>2023-04-10T07:49:57Z</time>
      </trkpt>
      <trkpt lat="45.41275" lon="5.63099">
        <ele>846</ele>
        <time>2023-04-10T07:49:59Z</time>
      </trkpt>
      <trkpt lat="45.41265" lon="5.63102">
        <ele>844</ele>
        <time>2023-04-10T07:50:01Z</time>
      </trkpt>
      <trkpt lat="45.41252" lon="5.63108">
        <ele>841</ele>
        <time>2023-04-10T07:50:04Z</time>
      </trkpt>
      <trkpt lat="45.41243" lon="5.63112">
        <ele>842</ele>
        <time>2023-04-10T07:50:06Z</time>
      </trkpt>
      <trkpt lat="45.41232" lon="5.63114">
        <ele>843</ele>
        <time>2023-04-10T07:50:08Z</time>
      </trkpt>
      <trkpt lat="45.41219" lon="5.63115">
        <ele>843</ele>
        <time>2023-04-10T07:50:11Z</time>
      </trkpt>
      <trkpt lat="45.41208" lon="5.63113">
        <ele>843</ele>
        <time>2023-04-10T07:50:13Z</time>
      </trkpt>
      <trkpt lat="45.41194" lon="5.63107">
        <ele>843</ele>
        <time>2023-04-10T07:50:15Z</time>
      </trkpt>
      <trkpt lat="45.41181" lon="5.63099">
        <ele>843</ele>
        <time>2023-04-10T07:50:17Z</time>
      </trkpt>
      <trkpt lat="45.41167" lon="5.63094">
        <ele>842</ele>
        <time>2023-04-10T07:50:19Z</time>
      </trkpt>
      <trkpt lat="45.41153" lon="5.63088">
        <ele>840</ele>
        <time>2023-04-10T07:50:21Z</time>
      </trkpt>
      <trkpt lat="45.41138" lon="5.63083">
        <ele>840</ele>
        <time>2023-04-10T07:50:23Z</time>
      </trkpt>
      <trkpt lat="45.41124" lon="5.63077">
        <ele>839</ele>
        <time>2023-04-10T07:50:25Z</time>
      </trkpt>
      <trkpt lat="45.41113" lon="5.63072">
        <ele>838</ele>
        <time>2023-04-10T07:50:27Z</time>
      </trkpt>
      <trkpt lat="45.41105" lon="5.63066">
        <ele>836</ele>
        <time>2023-04-10T07:50:30Z</time>
      </trkpt>
      <trkpt lat="45.41103" lon="5.63068">
        <ele>835</ele>
        <time>2023-04-10T07:50:32Z</time>
      </trkpt>
      <trkpt lat="45.41099" lon="5.63069">
        <ele>835</ele>
        <time>2023-04-10T07:50:34Z</time>
      </trkpt>
      <trkpt lat="45.41096" lon="5.63068">
        <ele>835</ele>
        <time>2023-04-10T07:50:36Z</time>
      </trkpt>
      <trkpt lat="45.41091" lon="5.63066">
        <ele>835</ele>
        <time>2023-04-10T07:50:38Z</time>
      </trkpt>
      <trkpt lat="45.41088" lon="5.63066">
        <ele>835</ele>
        <time>2023-04-10T07:50:40Z</time>
      </trkpt>
      <trkpt lat="45.41084" lon="5.63065">
        <ele>834</ele>
        <time>2023-04-10T07:50:41Z</time>
      </trkpt>
      <trkpt lat="45.41079" lon="5.63063">
        <ele>834</ele>
        <time>2023-04-10T07:50:42Z</time>
      </trkpt>
      <trkpt lat="45.41074" lon="5.63062">
        <ele>833</ele>
        <time>2023-04-10T07:50:43Z</time>
      </trkpt>
      <trkpt lat="45.41069" lon="5.63061">
        <ele>832</ele>
        <time>2023-04-10T07:50:44Z</time>
      </trkpt>
      <trkpt lat="45.41063" lon="5.63061">
        <ele>832</ele>
        <time>2023-04-10T07:50:45Z</time>
      </trkpt>
      <trkpt lat="45.41058" lon="5.63059">
        <ele>832</ele>
        <time>2023-04-10T07:50:46Z</time>
      </trkpt>
      <trkpt lat="45.41054" lon="5.63058">
        <ele>831</ele>
        <time>2023-04-10T07:50:47Z</time>
      </trkpt>
      <trkpt lat="45.41051" lon="5.63056">
        <ele>830</ele>
        <time>2023-04-10T07:50:48Z</time>
      </trkpt>
      <trkpt lat="45.41047" lon="5.63057">
        <ele>829</ele>
        <time>2023-04-10T07:50:49Z</time>
      </trkpt>
      <trkpt lat="45.41045" lon="5.63057">
        <ele>828</ele>
        <time>2023-04-10T07:50:50Z</time>
      </trkpt>
      <trkpt lat="45.41043" lon="5.63058">
        <ele>828</ele>
        <time>2023-04-10T07:50:51Z</time>
      </trkpt>
      <trkpt lat="45.41042" lon="5.63063">
        <ele>828</ele>
        <time>2023-04-10T07:50:54Z</time>
      </trkpt>
      <trkpt lat="45.41041" lon="5.63065">
        <ele>829</ele>
        <time>2023-04-10T07:50:56Z</time>
      </trkpt>
      <trkpt lat="45.41041" lon="5.63068">
        <ele>830</ele>
        <time>2023-04-10T07:50:59Z</time>
      </trkpt>
      <trkpt lat="45.41043" lon="5.63071">
        <ele>831</ele>
        <time>2023-04-10T07:51:01Z</time>
      </trkpt>
      <trkpt lat="45.41043" lon="5.63075">
        <ele>831</ele>
        <time>2023-04-10T07:51:03Z</time>
      </trkpt>
      <trkpt lat="45.41045" lon="5.63078">
        <ele>832</ele>
        <time>2023-04-10T07:51:06Z</time>
      </trkpt>
      <trkpt lat="45.41046" lon="5.6308">
        <ele>833</ele>
        <time>2023-04-10T07:51:08Z</time>
      </trkpt>
      <trkpt lat="45.41048" lon="5.63083">
        <ele>834</ele>
        <time>2023-04-10T07:51:11Z</time>
      </trkpt>
      <trkpt lat="45.4105" lon="5.63086">
        <ele>834</ele>
        <time>2023-04-10T07:51:13Z</time>
      </trkpt>
      <trkpt lat="45.41052" lon="5.63089">
        <ele>835</ele>
        <time>2023-04-10T07:51:15Z</time>
      </trkpt>
      <trkpt lat="45.41054" lon="5.63092">
        <ele>835</ele>
        <time>2023-04-10T07:51:17Z</time>
      </trkpt>
      <trkpt lat="45.41055" lon="5.63095">
        <ele>836</ele>
        <time>2023-04-10T07:51:19Z</time>
      </trkpt>
      <trkpt lat="45.41058" lon="5.63097">
        <ele>837</ele>
        <time>2023-04-10T07:51:21Z</time>
      </trkpt>
      <trkpt lat="45.41059" lon="5.63099">
        <ele>838</ele>
        <time>2023-04-10T07:51:23Z</time>
      </trkpt>
      <trkpt lat="45.41061" lon="5.63103">
        <ele>839</ele>
        <time>2023-04-10T07:51:25Z</time>
      </trkpt>
      <trkpt lat="45.41063" lon="5.63106">
        <ele>840</ele>
        <time>2023-04-10T07:51:27Z</time>
      </trkpt>
      <trkpt lat="45.41065" lon="5.63109">
        <ele>840</ele>
        <time>2023-04-10T07:51:29Z</time>
      </trkpt>
      <trkpt lat="45.41066" lon="5.63112">
        <ele>841</ele>
        <time>2023-04-10T07:51:31Z</time>
      </trkpt>
      <trkpt lat="45.41068" lon="5.63114">
        <ele>842</ele>
        <time>2023-04-10T07:51:33Z</time>
      </trkpt>
      <trkpt lat="45.4107" lon="5.63117">
        <ele>843</ele>
        <time>2023-04-10T07:51:35Z</time>
      </trkpt>
      <trkpt lat="45.41071" lon="5.6312">
        <ele>843</ele>
        <time>2023-04-10T07:51:37Z</time>
      </trkpt>
      <trkpt lat="45.41072" lon="5.63122">
        <ele>843</ele>
        <time>2023-04-10T07:51:39Z</time>
      </trkpt>
      <trkpt lat="45.41073" lon="5.63124">
        <ele>845</ele>
        <time>2023-04-10T07:51:41Z</time>
      </trkpt>
      <trkpt lat="45.41075" lon="5.63126">
        <ele>845</ele>
        <time>2023-04-10T07:51:44Z</time>
      </trkpt>
      <trkpt lat="45.41075" lon="5.63129">
        <ele>846</ele>
        <time>2023-04-10T07:51:50Z</time>
      </trkpt>
      <trkpt lat="45.41082" lon="5.63134">
        <ele>850</ele>
        <time>2023-04-10T07:52:01Z</time>
      </trkpt>
      <trkpt lat="45.41083" lon="5.63135">
        <ele>850</ele>
        <time>2023-04-10T07:52:02Z</time>
      </trkpt>
      <trkpt lat="45.41085" lon="5.63136">
        <ele>850</ele>
        <time>2023-04-10T07:52:06Z</time>
      </trkpt>
      <trkpt lat="45.41087" lon="5.63136">
        <ele>852</ele>
        <time>2023-04-10T07:52:11Z</time>
      </trkpt>
      <trkpt lat="45.4109" lon="5.63136">
        <ele>853</ele>
        <time>2023-04-10T07:52:14Z</time>
      </trkpt>
      <trkpt lat="45.41092" lon="5.63137">
        <ele>854</ele>
        <time>2023-04-10T07:52:17Z</time>
      </trkpt>
      <trkpt lat="45.41094" lon="5.63138">
        <ele>854</ele>
        <time>2023-04-10T07:52:19Z</time>
      </trkpt>
      <trkpt lat="45.41097" lon="5.63139">
        <ele>854</ele>
        <time>2023-04-10T07:52:21Z</time>
      </trkpt>
      <trkpt lat="45.41099" lon="5.6314">
        <ele>854</ele>
        <time>2023-04-10T07:52:25Z</time>
      </trkpt>
      <trkpt lat="45.41101" lon="5.63139">
        <ele>855</ele>
        <time>2023-04-10T07:52:28Z</time>
      </trkpt>
      <trkpt lat="45.41104" lon="5.63139">
        <ele>856</ele>
        <time>2023-04-10T07:52:31Z</time>
      </trkpt>
      <trkpt lat="45.41105" lon="5.6314">
        <ele>856</ele>
        <time>2023-04-10T07:52:35Z</time>
      </trkpt>
      <trkpt lat="45.41106" lon="5.63141">
        <ele>856</ele>
        <time>2023-04-10T07:52:41Z</time>
      </trkpt>
      <trkpt lat="45.4111" lon="5.63142">
        <ele>856</ele>
        <time>2023-04-10T07:52:45Z</time>
      </trkpt>
      <trkpt lat="45.41112" lon="5.63142">
        <ele>856</ele>
        <time>2023-04-10T07:52:46Z</time>
      </trkpt>
      <trkpt lat="45.41114" lon="5.63142">
        <ele>856</ele>
        <time>2023-04-10T07:52:49Z</time>
      </trkpt>
      <trkpt lat="45.41116" lon="5.63141">
        <ele>857</ele>
        <time>2023-04-10T07:52:51Z</time>
      </trkpt>
      <trkpt lat="45.41119" lon="5.63141">
        <ele>858</ele>
        <time>2023-04-10T07:52:53Z</time>
      </trkpt>
      <trkpt lat="45.41122" lon="5.63141">
        <ele>858</ele>
        <time>2023-04-10T07:52:55Z</time>
      </trkpt>
      <trkpt lat="45.41124" lon="5.63141">
        <ele>858</ele>
        <time>2023-04-10T07:52:57Z</time>
      </trkpt>
      <trkpt lat="45.41126" lon="5.63142">
        <ele>859</ele>
        <time>2023-04-10T07:52:59Z</time>
      </trkpt>
      <trkpt lat="45.41129" lon="5.63144">
        <ele>859</ele>
        <time>2023-04-10T07:53:01Z</time>
      </trkpt>
      <trkpt lat="45.41131" lon="5.63145">
        <ele>859</ele>
        <time>2023-04-10T07:53:03Z</time>
      </trkpt>
      <trkpt lat="45.41134" lon="5.63145">
        <ele>859</ele>
        <time>2023-04-10T07:53:05Z</time>
      </trkpt>
      <trkpt lat="45.41136" lon="5.63145">
        <ele>860</ele>
        <time>2023-04-10T07:53:07Z</time>
      </trkpt>
      <trkpt lat="45.41139" lon="5.63145">
        <ele>860</ele>
        <time>2023-04-10T07:53:09Z</time>
      </trkpt>
      <trkpt lat="45.41142" lon="5.63144">
        <ele>860</ele>
        <time>2023-04-10T07:53:11Z</time>
      </trkpt>
      <trkpt lat="45.41144" lon="5.63144">
        <ele>860</ele>
        <time>2023-04-10T07:53:13Z</time>
      </trkpt>
      <trkpt lat="45.41154" lon="5.6315">
        <ele>861</ele>
        <time>2023-04-10T07:53:18Z</time>
      </trkpt>
      <trkpt lat="45.41164" lon="5.63154">
        <ele>862</ele>
        <time>2023-04-10T07:53:22Z</time>
      </trkpt>
      <trkpt lat="45.41173" lon="5.63158">
        <ele>862</ele>
        <time>2023-04-10T07:53:25Z</time>
      </trkpt>
      <trkpt lat="45.41183" lon="5.63161">
        <ele>863</ele>
        <time>2023-04-10T07:53:29Z</time>
      </trkpt>
      <trkpt lat="45.41194" lon="5.63163">
        <ele>863</ele>
        <time>2023-04-10T07:53:33Z</time>
      </trkpt>
      <trkpt lat="45.41199" lon="5.63163">
        <ele>863</ele>
        <time>2023-04-10T07:53:35Z</time>
      </trkpt>
      <trkpt lat="45.41208" lon="5.63165">
        <ele>863</ele>
        <time>2023-04-10T07:53:39Z</time>
      </trkpt>
      <trkpt lat="45.41213" lon="5.63166">
        <ele>864</ele>
        <time>2023-04-10T07:53:41Z</time>
      </trkpt>
      <trkpt lat="45.41219" lon="5.63168">
        <ele>865</ele>
        <time>2023-04-10T07:53:45Z</time>
      </trkpt>
      <trkpt lat="45.41229" lon="5.6317">
        <ele>867</ele>
        <time>2023-04-10T07:53:52Z</time>
      </trkpt>
      <trkpt lat="45.41239" lon="5.63172">
        <ele>868</ele>
        <time>2023-04-10T07:53:58Z</time>
      </trkpt>
      <trkpt lat="45.41249" lon="5.63173">
        <ele>868</ele>
        <time>2023-04-10T07:54:05Z</time>
      </trkpt>
      <trkpt lat="45.41252" lon="5.63173">
        <ele>869</ele>
        <time>2023-04-10T07:54:07Z</time>
      </trkpt>
      <trkpt lat="45.41258" lon="5.6317">
        <ele>871</ele>
        <time>2023-04-10T07:54:11Z</time>
      </trkpt>
      <trkpt lat="45.41266" lon="5.6317">
        <ele>872</ele>
        <time>2023-04-10T07:54:15Z</time>
      </trkpt>
      <trkpt lat="45.4127" lon="5.6317">
        <ele>872</ele>
        <time>2023-04-10T07:54:17Z</time>
      </trkpt>
      <trkpt lat="45.41279" lon="5.63168">
        <ele>873</ele>
        <time>2023-04-10T07:54:21Z</time>
      </trkpt>
      <trkpt lat="45.41281" lon="5.63169">
        <ele>873</ele>
        <time>2023-04-10T07:54:22Z</time>
      </trkpt>
      <trkpt lat="45.41284" lon="5.63169">
        <ele>873</ele>
        <time>2023-04-10T07:54:23Z</time>
      </trkpt>
      <trkpt lat="45.41286" lon="5.6317">
        <ele>873</ele>
        <time>2023-04-10T07:54:24Z</time>
      </trkpt>
      <trkpt lat="45.41293" lon="5.63173">
        <ele>873</ele>
        <time>2023-04-10T07:54:26Z</time>
      </trkpt>
      <trkpt lat="45.41296" lon="5.63173">
        <ele>874</ele>
        <time>2023-04-10T07:54:27Z</time>
      </trkpt>
      <trkpt lat="45.41298" lon="5.63173">
        <ele>874</ele>
        <time>2023-04-10T07:54:28Z</time>
      </trkpt>
      <trkpt lat="45.41301" lon="5.63174">
        <ele>875</ele>
        <time>2023-04-10T07:54:29Z</time>
      </trkpt>
      <trkpt lat="45.41303" lon="5.63174">
        <ele>875</ele>
        <time>2023-04-10T07:54:30Z</time>
      </trkpt>
      <trkpt lat="45.41313" lon="5.63175">
        <ele>875</ele>
        <time>2023-04-10T07:54:35Z</time>
      </trkpt>
      <trkpt lat="45.41318" lon="5.63177">
        <ele>875</ele>
        <time>2023-04-10T07:54:37Z</time>
      </trkpt>
      <trkpt lat="45.41328" lon="5.6318">
        <ele>875</ele>
        <time>2023-04-10T07:54:42Z</time>
      </trkpt>
      <trkpt lat="45.41339" lon="5.63184">
        <ele>876</ele>
        <time>2023-04-10T07:54:46Z</time>
      </trkpt>
      <trkpt lat="45.41349" lon="5.63186">
        <ele>876</ele>
        <time>2023-04-10T07:54:49Z</time>
      </trkpt>
      <trkpt lat="45.4136" lon="5.63188">
        <ele>876</ele>
        <time>2023-04-10T07:54:53Z</time>
      </trkpt>
      <trkpt lat="45.4137" lon="5.6319">
        <ele>876</ele>
        <time>2023-04-10T07:54:56Z</time>
      </trkpt>
      <trkpt lat="45.41381" lon="5.63192">
        <ele>876</ele>
        <time>2023-04-10T07:54:59Z</time>
      </trkpt>
      <trkpt lat="45.4139" lon="5.63195">
        <ele>876</ele>
        <time>2023-04-10T07:55:02Z</time>
      </trkpt>
      <trkpt lat="45.414" lon="5.63197">
        <ele>876</ele>
        <time>2023-04-10T07:55:05Z</time>
      </trkpt>
      <trkpt lat="45.41409" lon="5.63199">
        <ele>877</ele>
        <time>2023-04-10T07:55:09Z</time>
      </trkpt>
      <trkpt lat="45.41418" lon="5.63206">
        <ele>880</ele>
        <time>2023-04-10T07:55:15Z</time>
      </trkpt>
      <trkpt lat="45.41427" lon="5.63214">
        <ele>880</ele>
        <time>2023-04-10T07:55:19Z</time>
      </trkpt>
      <trkpt lat="45.41437" lon="5.63223">
        <ele>880</ele>
        <time>2023-04-10T07:55:23Z</time>
      </trkpt>
      <trkpt lat="45.41446" lon="5.63227">
        <ele>880</ele>
        <time>2023-04-10T07:55:26Z</time>
      </trkpt>
      <trkpt lat="45.41453" lon="5.63238">
        <ele>880</ele>
        <time>2023-04-10T07:55:28Z</time>
      </trkpt>
      <trkpt lat="45.4146" lon="5.63246">
        <ele>880</ele>
        <time>2023-04-10T07:55:30Z</time>
      </trkpt>
      <trkpt lat="45.41468" lon="5.63253">
        <ele>880</ele>
        <time>2023-04-10T07:55:32Z</time>
      </trkpt>
      <trkpt lat="45.41476" lon="5.63261">
        <ele>880</ele>
        <time>2023-04-10T07:55:34Z</time>
      </trkpt>
      <trkpt lat="45.41485" lon="5.63274">
        <ele>880</ele>
        <time>2023-04-10T07:55:37Z</time>
      </trkpt>
      <trkpt lat="45.41489" lon="5.63282">
        <ele>880</ele>
        <time>2023-04-10T07:55:39Z</time>
      </trkpt>
      <trkpt lat="45.41493" lon="5.63294">
        <ele>880</ele>
        <time>2023-04-10T07:55:43Z</time>
      </trkpt>
      <trkpt lat="45.41495" lon="5.63296">
        <ele>881</ele>
        <time>2023-04-10T07:55:44Z</time>
      </trkpt>
      <trkpt lat="45.41498" lon="5.63304">
        <ele>881</ele>
        <time>2023-04-10T07:55:47Z</time>
      </trkpt>
      <trkpt lat="45.41499" lon="5.63307">
        <ele>881</ele>
        <time>2023-04-10T07:55:48Z</time>
      </trkpt>
      <trkpt lat="45.41501" lon="5.63311">
        <ele>881</ele>
        <time>2023-04-10T07:55:49Z</time>
      </trkpt>
      <trkpt lat="45.41502" lon="5.63314">
        <ele>881</ele>
        <time>2023-04-10T07:55:50Z</time>
      </trkpt>
      <trkpt lat="45.41504" lon="5.63317">
        <ele>881</ele>
        <time>2023-04-10T07:55:51Z</time>
      </trkpt>
      <trkpt lat="45.41506" lon="5.6332">
        <ele>882</ele>
        <time>2023-04-10T07:55:52Z</time>
      </trkpt>
      <trkpt lat="45.41507" lon="5.63323">
        <ele>882</ele>
        <time>2023-04-10T07:55:53Z</time>
      </trkpt>
      <trkpt lat="45.41508" lon="5.63326">
        <ele>882</ele>
        <time>2023-04-10T07:55:54Z</time>
      </trkpt>
      <trkpt lat="45.41509" lon="5.63328">
        <ele>883</ele>
        <time>2023-04-10T07:55:55Z</time>
      </trkpt>
      <trkpt lat="45.4151" lon="5.63331">
        <ele>883</ele>
        <time>2023-04-10T07:55:56Z</time>
      </trkpt>
      <trkpt lat="45.41512" lon="5.63337">
        <ele>884</ele>
        <time>2023-04-10T07:55:58Z</time>
      </trkpt>
      <trkpt lat="45.41514" lon="5.63339">
        <ele>884</ele>
        <time>2023-04-10T07:55:59Z</time>
      </trkpt>
      <trkpt lat="45.41517" lon="5.63343">
        <ele>884</ele>
        <time>2023-04-10T07:56:01Z</time>
      </trkpt>
      <trkpt lat="45.41519" lon="5.63345">
        <ele>885</ele>
        <time>2023-04-10T07:56:02Z</time>
      </trkpt>
      <trkpt lat="45.41521" lon="5.63347">
        <ele>885</ele>
        <time>2023-04-10T07:56:03Z</time>
      </trkpt>
      <trkpt lat="45.41522" lon="5.6335">
        <ele>885</ele>
        <time>2023-04-10T07:56:04Z</time>
      </trkpt>
      <trkpt lat="45.41524" lon="5.63354">
        <ele>886</ele>
        <time>2023-04-10T07:56:07Z</time>
      </trkpt>
      <trkpt lat="45.41526" lon="5.63357">
        <ele>886</ele>
        <time>2023-04-10T07:56:08Z</time>
      </trkpt>
      <trkpt lat="45.41527" lon="5.63358">
        <ele>886</ele>
        <time>2023-04-10T07:56:09Z</time>
      </trkpt>
      <trkpt lat="45.41535" lon="5.63368">
        <ele>890</ele>
        <time>2023-04-10T07:56:15Z</time>
      </trkpt>
      <trkpt lat="45.41538" lon="5.63371">
        <ele>890</ele>
        <time>2023-04-10T07:56:17Z</time>
      </trkpt>
      <trkpt lat="45.41539" lon="5.63374">
        <ele>890</ele>
        <time>2023-04-10T07:56:18Z</time>
      </trkpt>
      <trkpt lat="45.41539" lon="5.63376">
        <ele>890</ele>
        <time>2023-04-10T07:56:19Z</time>
      </trkpt>
      <trkpt lat="45.4154" lon="5.63379">
        <ele>890</ele>
        <time>2023-04-10T07:56:20Z</time>
      </trkpt>
      <trkpt lat="45.41541" lon="5.63381">
        <ele>890</ele>
        <time>2023-04-10T07:56:21Z</time>
      </trkpt>
      <trkpt lat="45.41543" lon="5.63385">
        <ele>890</ele>
        <time>2023-04-10T07:56:23Z</time>
      </trkpt>
      <trkpt lat="45.41544" lon="5.63389">
        <ele>891</ele>
        <time>2023-04-10T07:56:25Z</time>
      </trkpt>
      <trkpt lat="45.41544" lon="5.63392">
        <ele>891</ele>
        <time>2023-04-10T07:56:26Z</time>
      </trkpt>
      <trkpt lat="45.41545" lon="5.63396">
        <ele>892</ele>
        <time>2023-04-10T07:56:28Z</time>
      </trkpt>
      <trkpt lat="45.41547" lon="5.63399">
        <ele>892</ele>
        <time>2023-04-10T07:56:31Z</time>
      </trkpt>
      <trkpt lat="45.41548" lon="5.63401">
        <ele>892</ele>
        <time>2023-04-10T07:56:33Z</time>
      </trkpt>
      <trkpt lat="45.41547" lon="5.63402">
        <ele>892</ele>
        <time>2023-04-10T07:56:40Z</time>
      </trkpt>
      <trkpt lat="45.41549" lon="5.63409">
        <ele>891</ele>
        <time>2023-04-10T07:57:09Z</time>
      </trkpt>
      <trkpt lat="45.41549" lon="5.63409">
        <ele>891</ele>
        <time>2023-04-10T07:57:13Z</time>
      </trkpt>
      <trkpt lat="45.41556" lon="5.63412">
        <ele>891</ele>
        <time>2023-04-10T07:58:23Z</time>
      </trkpt>
      <trkpt lat="45.41562" lon="5.63412">
        <ele>891</ele>
        <time>2023-04-10T07:58:30Z</time>
      </trkpt>
      <trkpt lat="45.4157" lon="5.6342">
        <ele>891</ele>
        <time>2023-04-10T07:58:37Z</time>
      </trkpt>
      <trkpt lat="45.41577" lon="5.6343">
        <ele>891</ele>
        <time>2023-04-10T07:58:43Z</time>
      </trkpt>
      <trkpt lat="45.41567" lon="5.63433">
        <ele>891</ele>
        <time>2023-04-10T07:58:56Z</time>
      </trkpt>
      <trkpt lat="45.41564" lon="5.6342">
        <ele>891</ele>
        <time>2023-04-10T07:59:05Z</time>
      </trkpt>
      <trkpt lat="45.41554" lon="5.63422">
        <ele>892</ele>
        <time>2023-04-10T07:59:09Z</time>
      </trkpt>
      <trkpt lat="45.41541" lon="5.63426">
        <ele>891</ele>
        <time>2023-04-10T07:59:12Z</time>
      </trkpt>
      <trkpt lat="45.41533" lon="5.63433">
        <ele>889</ele>
        <time>2023-04-10T07:59:15Z</time>
      </trkpt>
      <trkpt lat="45.41523" lon="5.63442">
        <ele>886</ele>
        <time>2023-04-10T07:59:19Z</time>
      </trkpt>
      <trkpt lat="45.41521" lon="5.63443">
        <ele>885</ele>
        <time>2023-04-10T07:59:20Z</time>
      </trkpt>
      <trkpt lat="45.4152" lon="5.63446">
        <ele>885</ele>
        <time>2023-04-10T07:59:21Z</time>
      </trkpt>
      <trkpt lat="45.4152" lon="5.63452">
        <ele>884</ele>
        <time>2023-04-10T07:59:24Z</time>
      </trkpt>
      <trkpt lat="45.4152" lon="5.63455">
        <ele>884</ele>
        <time>2023-04-10T07:59:25Z</time>
      </trkpt>
      <trkpt lat="45.41517" lon="5.63469">
        <ele>885</ele>
        <time>2023-04-10T07:59:28Z</time>
      </trkpt>
      <trkpt lat="45.4151" lon="5.63483">
        <ele>884</ele>
        <time>2023-04-10T07:59:31Z</time>
      </trkpt>
      <trkpt lat="45.41506" lon="5.63487">
        <ele>884</ele>
        <time>2023-04-10T07:59:32Z</time>
      </trkpt>
      <trkpt lat="45.415" lon="5.635">
        <ele>884</ele>
        <time>2023-04-10T07:59:34Z</time>
      </trkpt>
      <trkpt lat="45.415" lon="5.63517">
        <ele>882</ele>
        <time>2023-04-10T07:59:36Z</time>
      </trkpt>
      <trkpt lat="45.41499" lon="5.63537">
        <ele>881</ele>
        <time>2023-04-10T07:59:38Z</time>
      </trkpt>
      <trkpt lat="45.41498" lon="5.63555">
        <ele>881</ele>
        <time>2023-04-10T07:59:40Z</time>
      </trkpt>
      <trkpt lat="45.41499" lon="5.63569">
        <ele>880</ele>
        <time>2023-04-10T07:59:42Z</time>
      </trkpt>
      <trkpt lat="45.41504" lon="5.63583">
        <ele>878</ele>
        <time>2023-04-10T07:59:45Z</time>
      </trkpt>
      <trkpt lat="45.41512" lon="5.63592">
        <ele>878</ele>
        <time>2023-04-10T07:59:48Z</time>
      </trkpt>
      <trkpt lat="45.41516" lon="5.63606">
        <ele>878</ele>
        <time>2023-04-10T07:59:51Z</time>
      </trkpt>
      <trkpt lat="45.41522" lon="5.63618">
        <ele>879</ele>
        <time>2023-04-10T07:59:55Z</time>
      </trkpt>
      <trkpt lat="45.41529" lon="5.63627">
        <ele>879</ele>
        <time>2023-04-10T07:59:58Z</time>
      </trkpt>
      <trkpt lat="45.41535" lon="5.63637">
        <ele>880</ele>
        <time>2023-04-10T08:00:02Z</time>
      </trkpt>
      <trkpt lat="45.41541" lon="5.63649">
        <ele>880</ele>
        <time>2023-04-10T08:00:05Z</time>
      </trkpt>
      <trkpt lat="45.41547" lon="5.63662">
        <ele>879</ele>
        <time>2023-04-10T08:00:08Z</time>
      </trkpt>
      <trkpt lat="45.41555" lon="5.63675">
        <ele>879</ele>
        <time>2023-04-10T08:00:11Z</time>
      </trkpt>
      <trkpt lat="45.41563" lon="5.63684">
        <ele>879</ele>
        <time>2023-04-10T08:00:15Z</time>
      </trkpt>
      <trkpt lat="45.41571" lon="5.63698">
        <ele>881</ele>
        <time>2023-04-10T08:00:20Z</time>
      </trkpt>
      <trkpt lat="45.41575" lon="5.6371">
        <ele>881</ele>
        <time>2023-04-10T08:00:22Z</time>
      </trkpt>
      <trkpt lat="45.41586" lon="5.63725">
        <ele>879</ele>
        <time>2023-04-10T08:00:24Z</time>
      </trkpt>
      <trkpt lat="45.41593" lon="5.63736">
        <ele>879</ele>
        <time>2023-04-10T08:00:25Z</time>
      </trkpt>
      <trkpt lat="45.416" lon="5.63745">
        <ele>879</ele>
        <time>2023-04-10T08:00:26Z</time>
      </trkpt>
      <trkpt lat="45.4161" lon="5.63759">
        <ele>879</ele>
        <time>2023-04-10T08:00:28Z</time>
      </trkpt>
      <trkpt lat="45.4162" lon="5.63771">
        <ele>878</ele>
        <time>2023-04-10T08:00:30Z</time>
      </trkpt>
      <trkpt lat="45.41627" lon="5.6378">
        <ele>877</ele>
        <time>2023-04-10T08:00:32Z</time>
      </trkpt>
      <trkpt lat="45.41633" lon="5.63789">
        <ele>878</ele>
        <time>2023-04-10T08:00:35Z</time>
      </trkpt>
      <trkpt lat="45.41641" lon="5.638">
        <ele>878</ele>
        <time>2023-04-10T08:00:38Z</time>
      </trkpt>
      <trkpt lat="45.41647" lon="5.63812">
        <ele>877</ele>
        <time>2023-04-10T08:00:40Z</time>
      </trkpt>
      <trkpt lat="45.41652" lon="5.63826">
        <ele>877</ele>
        <time>2023-04-10T08:00:42Z</time>
      </trkpt>
      <trkpt lat="45.41655" lon="5.63844">
        <ele>876</ele>
        <time>2023-04-10T08:00:44Z</time>
      </trkpt>
      <trkpt lat="45.41657" lon="5.6386">
        <ele>875</ele>
        <time>2023-04-10T08:00:46Z</time>
      </trkpt>
      <trkpt lat="45.4166" lon="5.63874">
        <ele>875</ele>
        <time>2023-04-10T08:00:48Z</time>
      </trkpt>
      <trkpt lat="45.41666" lon="5.63887">
        <ele>875</ele>
        <time>2023-04-10T08:00:50Z</time>
      </trkpt>
      <trkpt lat="45.41672" lon="5.63897">
        <ele>875</ele>
        <time>2023-04-10T08:00:52Z</time>
      </trkpt>
      <trkpt lat="45.41681" lon="5.63905">
        <ele>876</ele>
        <time>2023-04-10T08:00:54Z</time>
      </trkpt>
      <trkpt lat="45.41689" lon="5.63914">
        <ele>877</ele>
        <time>2023-04-10T08:00:57Z</time>
      </trkpt>
      <trkpt lat="45.41695" lon="5.63924">
        <ele>878</ele>
        <time>2023-04-10T08:01:00Z</time>
      </trkpt>
      <trkpt lat="45.41703" lon="5.63932">
        <ele>879</ele>
        <time>2023-04-10T08:01:02Z</time>
      </trkpt>
      <trkpt lat="45.41714" lon="5.63937">
        <ele>881</ele>
        <time>2023-04-10T08:01:08Z</time>
      </trkpt>
      <trkpt lat="45.41723" lon="5.63941">
        <ele>883</ele>
        <time>2023-04-10T08:01:14Z</time>
      </trkpt>
      <trkpt lat="45.41726" lon="5.63942">
        <ele>884</ele>
        <time>2023-04-10T08:01:17Z</time>
      </trkpt>
      <trkpt lat="45.41728" lon="5.63942">
        <ele>884</ele>
        <time>2023-04-10T08:01:19Z</time>
      </trkpt>
      <trkpt lat="45.41736" lon="5.63944">
        <ele>886</ele>
        <time>2023-04-10T08:01:27Z</time>
      </trkpt>
      <trkpt lat="45.41739" lon="5.63944">
        <ele>886</ele>
        <time>2023-04-10T08:01:29Z</time>
      </trkpt>
      <trkpt lat="45.41742" lon="5.63945">
        <ele>887</ele>
        <time>2023-04-10T08:01:31Z</time>
      </trkpt>
      <trkpt lat="45.41744" lon="5.63946">
        <ele>889</ele>
        <time>2023-04-10T08:01:33Z</time>
      </trkpt>
      <trkpt lat="45.41746" lon="5.63946">
        <ele>889</ele>
        <time>2023-04-10T08:01:35Z</time>
      </trkpt>
      <trkpt lat="45.41748" lon="5.63946">
        <ele>890</ele>
        <time>2023-04-10T08:01:37Z</time>
      </trkpt>
      <trkpt lat="45.41751" lon="5.63945">
        <ele>890</ele>
        <time>2023-04-10T08:01:39Z</time>
      </trkpt>
      <trkpt lat="45.41756" lon="5.63943">
        <ele>891</ele>
        <time>2023-04-10T08:01:43Z</time>
      </trkpt>
      <trkpt lat="45.41758" lon="5.63941">
        <ele>892</ele>
        <time>2023-04-10T08:01:45Z</time>
      </trkpt>
      <trkpt lat="45.41759" lon="5.63939">
        <ele>892</ele>
        <time>2023-04-10T08:01:47Z</time>
      </trkpt>
      <trkpt lat="45.41762" lon="5.63937">
        <ele>892</ele>
        <time>2023-04-10T08:01:49Z</time>
      </trkpt>
      <trkpt lat="45.41765" lon="5.63936">
        <ele>893</ele>
        <time>2023-04-10T08:01:51Z</time>
      </trkpt>
      <trkpt lat="45.41768" lon="5.63934">
        <ele>893</ele>
        <time>2023-04-10T08:01:53Z</time>
      </trkpt>
      <trkpt lat="45.4177" lon="5.63932">
        <ele>893</ele>
        <time>2023-04-10T08:01:55Z</time>
      </trkpt>
      <trkpt lat="45.41772" lon="5.63929">
        <ele>894</ele>
        <time>2023-04-10T08:01:58Z</time>
      </trkpt>
      <trkpt lat="45.41774" lon="5.63927">
        <ele>894</ele>
        <time>2023-04-10T08:02:00Z</time>
      </trkpt>
      <trkpt lat="45.41776" lon="5.63926">
        <ele>895</ele>
        <time>2023-04-10T08:02:02Z</time>
      </trkpt>
      <trkpt lat="45.41779" lon="5.63925">
        <ele>895</ele>
        <time>2023-04-10T08:02:04Z</time>
      </trkpt>
      <trkpt lat="45.41781" lon="5.63924">
        <ele>896</ele>
        <time>2023-04-10T08:02:06Z</time>
      </trkpt>
      <trkpt lat="45.41785" lon="5.63922">
        <ele>896</ele>
        <time>2023-04-10T08:02:08Z</time>
      </trkpt>
      <trkpt lat="45.41787" lon="5.63921">
        <ele>897</ele>
        <time>2023-04-10T08:02:10Z</time>
      </trkpt>
      <trkpt lat="45.4179" lon="5.63921">
        <ele>897</ele>
        <time>2023-04-10T08:02:12Z</time>
      </trkpt>
      <trkpt lat="45.41793" lon="5.6392">
        <ele>898</ele>
        <time>2023-04-10T08:02:14Z</time>
      </trkpt>
      <trkpt lat="45.41795" lon="5.63918">
        <ele>899</ele>
        <time>2023-04-10T08:02:16Z</time>
      </trkpt>
      <trkpt lat="45.41798" lon="5.63918">
        <ele>899</ele>
        <time>2023-04-10T08:02:18Z</time>
      </trkpt>
      <trkpt lat="45.418" lon="5.63917">
        <ele>900</ele>
        <time>2023-04-10T08:02:20Z</time>
      </trkpt>
      <trkpt lat="45.41802" lon="5.63916">
        <ele>900</ele>
        <time>2023-04-10T08:02:22Z</time>
      </trkpt>
      <trkpt lat="45.41804" lon="5.63915">
        <ele>902</ele>
        <time>2023-04-10T08:02:24Z</time>
      </trkpt>
      <trkpt lat="45.41808" lon="5.63915">
        <ele>902</ele>
        <time>2023-04-10T08:02:26Z</time>
      </trkpt>
      <trkpt lat="45.41812" lon="5.63915">
        <ele>902</ele>
        <time>2023-04-10T08:02:28Z</time>
      </trkpt>
      <trkpt lat="45.41815" lon="5.63916">
        <ele>903</ele>
        <time>2023-04-10T08:02:30Z</time>
      </trkpt>
      <trkpt lat="45.41818" lon="5.63917">
        <ele>903</ele>
        <time>2023-04-10T08:02:32Z</time>
      </trkpt>
      <trkpt lat="45.4182" lon="5.63918">
        <ele>903</ele>
        <time>2023-04-10T08:02:33Z</time>
      </trkpt>
      <trkpt lat="45.41823" lon="5.63919">
        <ele>903</ele>
        <time>2023-04-10T08:02:34Z</time>
      </trkpt>
      <trkpt lat="45.41825" lon="5.6392">
        <ele>904</ele>
        <time>2023-04-10T08:02:35Z</time>
      </trkpt>
      <trkpt lat="45.41826" lon="5.63922">
        <ele>904</ele>
        <time>2023-04-10T08:02:36Z</time>
      </trkpt>
      <trkpt lat="45.41827" lon="5.63925">
        <ele>904</ele>
        <time>2023-04-10T08:02:38Z</time>
      </trkpt>
      <trkpt lat="45.41829" lon="5.63928">
        <ele>905</ele>
        <time>2023-04-10T08:02:40Z</time>
      </trkpt>
      <trkpt lat="45.4183" lon="5.63932">
        <ele>905</ele>
        <time>2023-04-10T08:02:42Z</time>
      </trkpt>
      <trkpt lat="45.41831" lon="5.63936">
        <ele>906</ele>
        <time>2023-04-10T08:02:44Z</time>
      </trkpt>
      <trkpt lat="45.41832" lon="5.63939">
        <ele>906</ele>
        <time>2023-04-10T08:02:46Z</time>
      </trkpt>
      <trkpt lat="45.41834" lon="5.63941">
        <ele>906</ele>
        <time>2023-04-10T08:02:47Z</time>
      </trkpt>
      <trkpt lat="45.41835" lon="5.63944">
        <ele>907</ele>
        <time>2023-04-10T08:02:49Z</time>
      </trkpt>
      <trkpt lat="45.41835" lon="5.63947">
        <ele>907</ele>
        <time>2023-04-10T08:02:50Z</time>
      </trkpt>
      <trkpt lat="45.41837" lon="5.6395">
        <ele>907</ele>
        <time>2023-04-10T08:02:51Z</time>
      </trkpt>
      <trkpt lat="45.41838" lon="5.63952">
        <ele>907</ele>
        <time>2023-04-10T08:02:52Z</time>
      </trkpt>
      <trkpt lat="45.41839" lon="5.63957">
        <ele>908</ele>
        <time>2023-04-10T08:02:54Z</time>
      </trkpt>
      <trkpt lat="45.4184" lon="5.63961">
        <ele>908</ele>
        <time>2023-04-10T08:02:55Z</time>
      </trkpt>
      <trkpt lat="45.41841" lon="5.63965">
        <ele>908</ele>
        <time>2023-04-10T08:02:56Z</time>
      </trkpt>
      <trkpt lat="45.41842" lon="5.63969">
        <ele>908</ele>
        <time>2023-04-10T08:02:57Z</time>
      </trkpt>
      <trkpt lat="45.41843" lon="5.63971">
        <ele>908</ele>
        <time>2023-04-10T08:02:58Z</time>
      </trkpt>
      <trkpt lat="45.41843" lon="5.63974">
        <ele>908</ele>
        <time>2023-04-10T08:02:59Z</time>
      </trkpt>
      <trkpt lat="45.41844" lon="5.63979">
        <ele>908</ele>
        <time>2023-04-10T08:03:00Z</time>
      </trkpt>
      <trkpt lat="45.41845" lon="5.63981">
        <ele>908</ele>
        <time>2023-04-10T08:03:01Z</time>
      </trkpt>
      <trkpt lat="45.41846" lon="5.63986">
        <ele>908</ele>
        <time>2023-04-10T08:03:03Z</time>
      </trkpt>
      <trkpt lat="45.41847" lon="5.6399">
        <ele>908</ele>
        <time>2023-04-10T08:03:04Z</time>
      </trkpt>
      <trkpt lat="45.41848" lon="5.63994">
        <ele>908</ele>
        <time>2023-04-10T08:03:05Z</time>
      </trkpt>
      <trkpt lat="45.41848" lon="5.63997">
        <ele>909</ele>
        <time>2023-04-10T08:03:06Z</time>
      </trkpt>
      <trkpt lat="45.41849" lon="5.64001">
        <ele>909</ele>
        <time>2023-04-10T08:03:07Z</time>
      </trkpt>
      <trkpt lat="45.41849" lon="5.64005">
        <ele>909</ele>
        <time>2023-04-10T08:03:08Z</time>
      </trkpt>
      <trkpt lat="45.41849" lon="5.64014">
        <ele>909</ele>
        <time>2023-04-10T08:03:09Z</time>
      </trkpt>
      <trkpt lat="45.41849" lon="5.64019">
        <ele>909</ele>
        <time>2023-04-10T08:03:11Z</time>
      </trkpt>
      <trkpt lat="45.41849" lon="5.64024">
        <ele>909</ele>
        <time>2023-04-10T08:03:12Z</time>
      </trkpt>
      <trkpt lat="45.41849" lon="5.64029">
        <ele>909</ele>
        <time>2023-04-10T08:03:13Z</time>
      </trkpt>
      <trkpt lat="45.41849" lon="5.64034">
        <ele>909</ele>
        <time>2023-04-10T08:03:14Z</time>
      </trkpt>
      <trkpt lat="45.41849" lon="5.64038">
        <ele>909</ele>
        <time>2023-04-10T08:03:15Z</time>
      </trkpt>
      <trkpt lat="45.41849" lon="5.64042">
        <ele>909</ele>
        <time>2023-04-10T08:03:16Z</time>
      </trkpt>
      <trkpt lat="45.41849" lon="5.64046">
        <ele>909</ele>
        <time>2023-04-10T08:03:17Z</time>
      </trkpt>
      <trkpt lat="45.41849" lon="5.6405">
        <ele>909</ele>
        <time>2023-04-10T08:03:18Z</time>
      </trkpt>
      <trkpt lat="45.41849" lon="5.64053">
        <ele>909</ele>
        <time>2023-04-10T08:03:19Z</time>
      </trkpt>
      <trkpt lat="45.41849" lon="5.64056">
        <ele>909</ele>
        <time>2023-04-10T08:03:24Z</time>
      </trkpt>
      <trkpt lat="45.41849" lon="5.64057">
        <ele>908</ele>
        <time>2023-04-10T08:03:29Z</time>
      </trkpt>
      <trkpt lat="45.41853" lon="5.64067">
        <ele>908</ele>
        <time>2023-04-10T08:04:06Z</time>
      </trkpt>
      <trkpt lat="45.41854" lon="5.64071">
        <ele>908</ele>
        <time>2023-04-10T08:04:07Z</time>
      </trkpt>
      <trkpt lat="45.41855" lon="5.64076">
        <ele>908</ele>
        <time>2023-04-10T08:04:08Z</time>
      </trkpt>
      <trkpt lat="45.41857" lon="5.64082">
        <ele>908</ele>
        <time>2023-04-10T08:04:09Z</time>
      </trkpt>
      <trkpt lat="45.41859" lon="5.64087">
        <ele>908</ele>
        <time>2023-04-10T08:04:10Z</time>
      </trkpt>
      <trkpt lat="45.4186" lon="5.64091">
        <ele>907</ele>
        <time>2023-04-10T08:04:11Z</time>
      </trkpt>
      <trkpt lat="45.41862" lon="5.64095">
        <ele>907</ele>
        <time>2023-04-10T08:04:12Z</time>
      </trkpt>
      <trkpt lat="45.41863" lon="5.641">
        <ele>907</ele>
        <time>2023-04-10T08:04:13Z</time>
      </trkpt>
      <trkpt lat="45.41864" lon="5.64107">
        <ele>906</ele>
        <time>2023-04-10T08:04:14Z</time>
      </trkpt>
      <trkpt lat="45.41863" lon="5.64114">
        <ele>906</ele>
        <time>2023-04-10T08:04:15Z</time>
      </trkpt>
      <trkpt lat="45.41863" lon="5.64121">
        <ele>905</ele>
        <time>2023-04-10T08:04:16Z</time>
      </trkpt>
      <trkpt lat="45.41862" lon="5.64128">
        <ele>905</ele>
        <time>2023-04-10T08:04:17Z</time>
      </trkpt>
      <trkpt lat="45.41862" lon="5.64135">
        <ele>905</ele>
        <time>2023-04-10T08:04:18Z</time>
      </trkpt>
      <trkpt lat="45.41861" lon="5.64149">
        <ele>904</ele>
        <time>2023-04-10T08:04:20Z</time>
      </trkpt>
      <trkpt lat="45.41856" lon="5.64171">
        <ele>903</ele>
        <time>2023-04-10T08:04:22Z</time>
      </trkpt>
      <trkpt lat="45.41851" lon="5.64195">
        <ele>901</ele>
        <time>2023-04-10T08:04:24Z</time>
      </trkpt>
      <trkpt lat="45.41849" lon="5.64207">
        <ele>900</ele>
        <time>2023-04-10T08:04:25Z</time>
      </trkpt>
      <trkpt lat="45.41847" lon="5.64221">
        <ele>899</ele>
        <time>2023-04-10T08:04:26Z</time>
      </trkpt>
      <trkpt lat="45.41843" lon="5.64245">
        <ele>896</ele>
        <time>2023-04-10T08:04:28Z</time>
      </trkpt>
      <trkpt lat="45.4184" lon="5.64259">
        <ele>895</ele>
        <time>2023-04-10T08:04:29Z</time>
      </trkpt>
      <trkpt lat="45.41837" lon="5.64271">
        <ele>894</ele>
        <time>2023-04-10T08:04:30Z</time>
      </trkpt>
      <trkpt lat="45.41828" lon="5.64292">
        <ele>893</ele>
        <time>2023-04-10T08:04:32Z</time>
      </trkpt>
      <trkpt lat="45.41822" lon="5.64315">
        <ele>891</ele>
        <time>2023-04-10T08:04:34Z</time>
      </trkpt>
      <trkpt lat="45.4182" lon="5.64328">
        <ele>891</ele>
        <time>2023-04-10T08:04:35Z</time>
      </trkpt>
      <trkpt lat="45.41817" lon="5.64342">
        <ele>891</ele>
        <time>2023-04-10T08:04:36Z</time>
      </trkpt>
      <trkpt lat="45.41813" lon="5.64356">
        <ele>890</ele>
        <time>2023-04-10T08:04:37Z</time>
      </trkpt>
      <trkpt lat="45.41811" lon="5.6437">
        <ele>889</ele>
        <time>2023-04-10T08:04:38Z</time>
      </trkpt>
      <trkpt lat="45.41808" lon="5.64384">
        <ele>887</ele>
        <time>2023-04-10T08:04:39Z</time>
      </trkpt>
      <trkpt lat="45.41804" lon="5.64399">
        <ele>885</ele>
        <time>2023-04-10T08:04:40Z</time>
      </trkpt>
      <trkpt lat="45.418" lon="5.64411">
        <ele>884</ele>
        <time>2023-04-10T08:04:41Z</time>
      </trkpt>
      <trkpt lat="45.41795" lon="5.64431">
        <ele>882</ele>
        <time>2023-04-10T08:04:43Z</time>
      </trkpt>
      <trkpt lat="45.4179" lon="5.64452">
        <ele>879</ele>
        <time>2023-04-10T08:04:45Z</time>
      </trkpt>
      <trkpt lat="45.41789" lon="5.64466">
        <ele>877</ele>
        <time>2023-04-10T08:04:46Z</time>
      </trkpt>
      <trkpt lat="45.41787" lon="5.6448">
        <ele>874</ele>
        <time>2023-04-10T08:04:47Z</time>
      </trkpt>
      <trkpt lat="45.41784" lon="5.64493">
        <ele>873</ele>
        <time>2023-04-10T08:04:48Z</time>
      </trkpt>
      <trkpt lat="45.4178" lon="5.64516">
        <ele>869</ele>
        <time>2023-04-10T08:04:50Z</time>
      </trkpt>
      <trkpt lat="45.41775" lon="5.64536">
        <ele>866</ele>
        <time>2023-04-10T08:04:52Z</time>
      </trkpt>
      <trkpt lat="45.41771" lon="5.64561">
        <ele>864</ele>
        <time>2023-04-10T08:04:54Z</time>
      </trkpt>
      <trkpt lat="45.41769" lon="5.64586">
        <ele>860</ele>
        <time>2023-04-10T08:04:56Z</time>
      </trkpt>
      <trkpt lat="45.41769" lon="5.64599">
        <ele>858</ele>
        <time>2023-04-10T08:04:57Z</time>
      </trkpt>
      <trkpt lat="45.41772" lon="5.64612">
        <ele>857</ele>
        <time>2023-04-10T08:04:58Z</time>
      </trkpt>
      <trkpt lat="45.41776" lon="5.64627">
        <ele>855</ele>
        <time>2023-04-10T08:04:59Z</time>
      </trkpt>
      <trkpt lat="45.41779" lon="5.64642">
        <ele>851</ele>
        <time>2023-04-10T08:05:00Z</time>
      </trkpt>
      <trkpt lat="45.41784" lon="5.64655">
        <ele>850</ele>
        <time>2023-04-10T08:05:01Z</time>
      </trkpt>
      <trkpt lat="45.41787" lon="5.64679">
        <ele>846</ele>
        <time>2023-04-10T08:05:03Z</time>
      </trkpt>
      <trkpt lat="45.41788" lon="5.64707">
        <ele>844</ele>
        <time>2023-04-10T08:05:04Z</time>
      </trkpt>
      <trkpt lat="45.41789" lon="5.64721">
        <ele>842</ele>
        <time>2023-04-10T08:05:06Z</time>
      </trkpt>
      <trkpt lat="45.41791" lon="5.64735">
        <ele>842</ele>
        <time>2023-04-10T08:05:07Z</time>
      </trkpt>
      <trkpt lat="45.41793" lon="5.64749">
        <ele>841</ele>
        <time>2023-04-10T08:05:08Z</time>
      </trkpt>
      <trkpt lat="45.41797" lon="5.64762">
        <ele>841</ele>
        <time>2023-04-10T08:05:09Z</time>
      </trkpt>
      <trkpt lat="45.41799" lon="5.64775">
        <ele>839</ele>
        <time>2023-04-10T08:05:10Z</time>
      </trkpt>
      <trkpt lat="45.418" lon="5.64789">
        <ele>838</ele>
        <time>2023-04-10T08:05:11Z</time>
      </trkpt>
      <trkpt lat="45.418" lon="5.64802">
        <ele>837</ele>
        <time>2023-04-10T08:05:12Z</time>
      </trkpt>
      <trkpt lat="45.41801" lon="5.64816">
        <ele>837</ele>
        <time>2023-04-10T08:05:13Z</time>
      </trkpt>
      <trkpt lat="45.41803" lon="5.64829">
        <ele>837</ele>
        <time>2023-04-10T08:05:14Z</time>
      </trkpt>
      <trkpt lat="45.41806" lon="5.64843">
        <ele>837</ele>
        <time>2023-04-10T08:05:15Z</time>
      </trkpt>
      <trkpt lat="45.4181" lon="5.64856">
        <ele>836</ele>
        <time>2023-04-10T08:05:16Z</time>
      </trkpt>
      <trkpt lat="45.41814" lon="5.6487">
        <ele>834</ele>
        <time>2023-04-10T08:05:17Z</time>
      </trkpt>
      <trkpt lat="45.41817" lon="5.64884">
        <ele>831</ele>
        <time>2023-04-10T08:05:18Z</time>
      </trkpt>
      <trkpt lat="45.41817" lon="5.64899">
        <ele>830</ele>
        <time>2023-04-10T08:05:19Z</time>
      </trkpt>
      <trkpt lat="45.41815" lon="5.64912">
        <ele>829</ele>
        <time>2023-04-10T08:05:20Z</time>
      </trkpt>
      <trkpt lat="45.4181" lon="5.64924">
        <ele>828</ele>
        <time>2023-04-10T08:05:21Z</time>
      </trkpt>
      <trkpt lat="45.41803" lon="5.64935">
        <ele>827</ele>
        <time>2023-04-10T08:05:22Z</time>
      </trkpt>
      <trkpt lat="45.41787" lon="5.64948">
        <ele>827</ele>
        <time>2023-04-10T08:05:23Z</time>
      </trkpt>
      <trkpt lat="45.41779" lon="5.64951">
        <ele>826</ele>
        <time>2023-04-10T08:05:25Z</time>
      </trkpt>
      <trkpt lat="45.41774" lon="5.64954">
        <ele>825</ele>
        <time>2023-04-10T08:05:26Z</time>
      </trkpt>
      <trkpt lat="45.41772" lon="5.64956">
        <ele>825</ele>
        <time>2023-04-10T08:05:27Z</time>
      </trkpt>
      <trkpt lat="45.41772" lon="5.64959">
        <ele>824</ele>
        <time>2023-04-10T08:05:28Z</time>
      </trkpt>
      <trkpt lat="45.41775" lon="5.64962">
        <ele>824</ele>
        <time>2023-04-10T08:05:29Z</time>
      </trkpt>
      <trkpt lat="45.41779" lon="5.64962">
        <ele>824</ele>
        <time>2023-04-10T08:05:30Z</time>
      </trkpt>
      <trkpt lat="45.41785" lon="5.64963">
        <ele>824</ele>
        <time>2023-04-10T08:05:31Z</time>
      </trkpt>
      <trkpt lat="45.41792" lon="5.64963">
        <ele>823</ele>
        <time>2023-04-10T08:05:32Z</time>
      </trkpt>
      <trkpt lat="45.41799" lon="5.64963">
        <ele>823</ele>
        <time>2023-04-10T08:05:33Z</time>
      </trkpt>
      <trkpt lat="45.41816" lon="5.64966">
        <ele>823</ele>
        <time>2023-04-10T08:05:34Z</time>
      </trkpt>
      <trkpt lat="45.41826" lon="5.64967">
        <ele>821</ele>
        <time>2023-04-10T08:05:36Z</time>
      </trkpt>
      <trkpt lat="45.41834" lon="5.64968">
        <ele>820</ele>
        <time>2023-04-10T08:05:37Z</time>
      </trkpt>
      <trkpt lat="45.41842" lon="5.6497">
        <ele>819</ele>
        <time>2023-04-10T08:05:38Z</time>
      </trkpt>
      <trkpt lat="45.41849" lon="5.64975">
        <ele>819</ele>
        <time>2023-04-10T08:05:39Z</time>
      </trkpt>
      <trkpt lat="45.41854" lon="5.64983">
        <ele>819</ele>
        <time>2023-04-10T08:05:40Z</time>
      </trkpt>
      <trkpt lat="45.41858" lon="5.6499">
        <ele>818</ele>
        <time>2023-04-10T08:05:41Z</time>
      </trkpt>
      <trkpt lat="45.41866" lon="5.65004">
        <ele>818</ele>
        <time>2023-04-10T08:05:42Z</time>
      </trkpt>
      <trkpt lat="45.4187" lon="5.6501">
        <ele>818</ele>
        <time>2023-04-10T08:05:44Z</time>
      </trkpt>
      <trkpt lat="45.41873" lon="5.65015">
        <ele>818</ele>
        <time>2023-04-10T08:05:45Z</time>
      </trkpt>
      <trkpt lat="45.41877" lon="5.65019">
        <ele>818</ele>
        <time>2023-04-10T08:05:46Z</time>
      </trkpt>
      <trkpt lat="45.41879" lon="5.65023">
        <ele>818</ele>
        <time>2023-04-10T08:05:47Z</time>
      </trkpt>
      <trkpt lat="45.41882" lon="5.65026">
        <ele>818</ele>
        <time>2023-04-10T08:05:48Z</time>
      </trkpt>
      <trkpt lat="45.41883" lon="5.65029">
        <ele>818</ele>
        <time>2023-04-10T08:05:49Z</time>
      </trkpt>
      <trkpt lat="45.41884" lon="5.65032">
        <ele>818</ele>
        <time>2023-04-10T08:05:50Z</time>
      </trkpt>
      <trkpt lat="45.41885" lon="5.65037">
        <ele>819</ele>
        <time>2023-04-10T08:05:52Z</time>
      </trkpt>
      <trkpt lat="45.41886" lon="5.65039">
        <ele>819</ele>
        <time>2023-04-10T08:05:53Z</time>
      </trkpt>
      <trkpt lat="45.41886" lon="5.65042">
        <ele>820</ele>
        <time>2023-04-10T08:05:54Z</time>
      </trkpt>
      <trkpt lat="45.41887" lon="5.65045">
        <ele>820</ele>
        <time>2023-04-10T08:05:55Z</time>
      </trkpt>
      <trkpt lat="45.41887" lon="5.65047">
        <ele>820</ele>
        <time>2023-04-10T08:05:56Z</time>
      </trkpt>
      <trkpt lat="45.41887" lon="5.6505">
        <ele>820</ele>
        <time>2023-04-10T08:05:57Z</time>
      </trkpt>
      <trkpt lat="45.41887" lon="5.65053">
        <ele>821</ele>
        <time>2023-04-10T08:05:58Z</time>
      </trkpt>
      <trkpt lat="45.41887" lon="5.65055">
        <ele>821</ele>
        <time>2023-04-10T08:05:59Z</time>
      </trkpt>
      <trkpt lat="45.41888" lon="5.65058">
        <ele>822</ele>
        <time>2023-04-10T08:06:00Z</time>
      </trkpt>
      <trkpt lat="45.41889" lon="5.65061">
        <ele>822</ele>
        <time>2023-04-10T08:06:01Z</time>
      </trkpt>
      <trkpt lat="45.41889" lon="5.65063">
        <ele>822</ele>
        <time>2023-04-10T08:06:02Z</time>
      </trkpt>
      <trkpt lat="45.4189" lon="5.65066">
        <ele>823</ele>
        <time>2023-04-10T08:06:03Z</time>
      </trkpt>
      <trkpt lat="45.41891" lon="5.65069">
        <ele>823</ele>
        <time>2023-04-10T08:06:04Z</time>
      </trkpt>
      <trkpt lat="45.41891" lon="5.65071">
        <ele>823</ele>
        <time>2023-04-10T08:06:05Z</time>
      </trkpt>
      <trkpt lat="45.41893" lon="5.65076">
        <ele>823</ele>
        <time>2023-04-10T08:06:07Z</time>
      </trkpt>
      <trkpt lat="45.41893" lon="5.65078">
        <ele>823</ele>
        <time>2023-04-10T08:06:08Z</time>
      </trkpt>
      <trkpt lat="45.41893" lon="5.65081">
        <ele>824</ele>
        <time>2023-04-10T08:06:09Z</time>
      </trkpt>
      <trkpt lat="45.41894" lon="5.65085">
        <ele>824</ele>
        <time>2023-04-10T08:06:10Z</time>
      </trkpt>
      <trkpt lat="45.41895" lon="5.65088">
        <ele>824</ele>
        <time>2023-04-10T08:06:11Z</time>
      </trkpt>
      <trkpt lat="45.41896" lon="5.65091">
        <ele>824</ele>
        <time>2023-04-10T08:06:12Z</time>
      </trkpt>
      <trkpt lat="45.41897" lon="5.65094">
        <ele>825</ele>
        <time>2023-04-10T08:06:13Z</time>
      </trkpt>
      <trkpt lat="45.41898" lon="5.65099">
        <ele>826</ele>
        <time>2023-04-10T08:06:15Z</time>
      </trkpt>
      <trkpt lat="45.419" lon="5.65103">
        <ele>826</ele>
        <time>2023-04-10T08:06:17Z</time>
      </trkpt>
      <trkpt lat="45.41902" lon="5.65108">
        <ele>827</ele>
        <time>2023-04-10T08:06:19Z</time>
      </trkpt>
      <trkpt lat="45.41904" lon="5.65112">
        <ele>827</ele>
        <time>2023-04-10T08:06:20Z</time>
      </trkpt>
      <trkpt lat="45.41907" lon="5.65115">
        <ele>828</ele>
        <time>2023-04-10T08:06:23Z</time>
      </trkpt>
      <trkpt lat="45.41908" lon="5.65117">
        <ele>828</ele>
        <time>2023-04-10T08:06:24Z</time>
      </trkpt>
      <trkpt lat="45.4191" lon="5.65119">
        <ele>828</ele>
        <time>2023-04-10T08:06:25Z</time>
      </trkpt>
      <trkpt lat="45.41911" lon="5.65121">
        <ele>828</ele>
        <time>2023-04-10T08:06:26Z</time>
      </trkpt>
      <trkpt lat="45.41913" lon="5.65123">
        <ele>828</ele>
        <time>2023-04-10T08:06:28Z</time>
      </trkpt>
      <trkpt lat="45.41915" lon="5.65125">
        <ele>829</ele>
        <time>2023-04-10T08:06:32Z</time>
      </trkpt>
      <trkpt lat="45.41914" lon="5.65126">
        <ele>829</ele>
        <time>2023-04-10T08:06:35Z</time>
      </trkpt>
      <trkpt lat="45.41917" lon="5.6513">
        <ele>830</ele>
        <time>2023-04-10T08:07:14Z</time>
      </trkpt>
      <trkpt lat="45.4192" lon="5.65133">
        <ele>830</ele>
        <time>2023-04-10T08:07:15Z</time>
      </trkpt>
      <trkpt lat="45.41921" lon="5.65134">
        <ele>830</ele>
        <time>2023-04-10T08:07:17Z</time>
      </trkpt>
      <trkpt lat="45.41923" lon="5.65136">
        <ele>830</ele>
        <time>2023-04-10T08:07:18Z</time>
      </trkpt>
      <trkpt lat="45.41926" lon="5.65139">
        <ele>831</ele>
        <time>2023-04-10T08:07:20Z</time>
      </trkpt>
      <trkpt lat="45.41929" lon="5.65141">
        <ele>832</ele>
        <time>2023-04-10T08:07:22Z</time>
      </trkpt>
      <trkpt lat="45.41931" lon="5.65142">
        <ele>833</ele>
        <time>2023-04-10T08:07:23Z</time>
      </trkpt>
      <trkpt lat="45.41933" lon="5.65142">
        <ele>833</ele>
        <time>2023-04-10T08:07:24Z</time>
      </trkpt>
      <trkpt lat="45.41936" lon="5.65144">
        <ele>833</ele>
        <time>2023-04-10T08:07:26Z</time>
      </trkpt>
      <trkpt lat="45.4194" lon="5.65145">
        <ele>835</ele>
        <time>2023-04-10T08:07:28Z</time>
      </trkpt>
      <trkpt lat="45.41943" lon="5.65146">
        <ele>835</ele>
        <time>2023-04-10T08:07:30Z</time>
      </trkpt>
      <trkpt lat="45.41946" lon="5.65147">
        <ele>836</ele>
        <time>2023-04-10T08:07:32Z</time>
      </trkpt>
      <trkpt lat="45.41949" lon="5.65148">
        <ele>836</ele>
        <time>2023-04-10T08:07:34Z</time>
      </trkpt>
      <trkpt lat="45.41952" lon="5.65148">
        <ele>837</ele>
        <time>2023-04-10T08:07:36Z</time>
      </trkpt>
      <trkpt lat="45.41955" lon="5.65148">
        <ele>837</ele>
        <time>2023-04-10T08:07:38Z</time>
      </trkpt>
      <trkpt lat="45.41959" lon="5.65149">
        <ele>837</ele>
        <time>2023-04-10T08:07:40Z</time>
      </trkpt>
      <trkpt lat="45.41961" lon="5.65149">
        <ele>837</ele>
        <time>2023-04-10T08:07:41Z</time>
      </trkpt>
      <trkpt lat="45.41964" lon="5.6515">
        <ele>838</ele>
        <time>2023-04-10T08:07:43Z</time>
      </trkpt>
      <trkpt lat="45.41966" lon="5.65149">
        <ele>838</ele>
        <time>2023-04-10T08:07:44Z</time>
      </trkpt>
      <trkpt lat="45.41969" lon="5.65149">
        <ele>838</ele>
        <time>2023-04-10T08:07:45Z</time>
      </trkpt>
      <trkpt lat="45.41971" lon="5.65149">
        <ele>839</ele>
        <time>2023-04-10T08:07:46Z</time>
      </trkpt>
      <trkpt lat="45.41973" lon="5.65149">
        <ele>839</ele>
        <time>2023-04-10T08:07:47Z</time>
      </trkpt>
      <trkpt lat="45.41975" lon="5.65149">
        <ele>840</ele>
        <time>2023-04-10T08:07:48Z</time>
      </trkpt>
      <trkpt lat="45.41978" lon="5.65149">
        <ele>840</ele>
        <time>2023-04-10T08:07:49Z</time>
      </trkpt>
      <trkpt lat="45.41981" lon="5.65149">
        <ele>840</ele>
        <time>2023-04-10T08:07:50Z</time>
      </trkpt>
      <trkpt lat="45.41984" lon="5.65149">
        <ele>840</ele>
        <time>2023-04-10T08:07:51Z</time>
      </trkpt>
      <trkpt lat="45.41987" lon="5.6515">
        <ele>840</ele>
        <time>2023-04-10T08:07:52Z</time>
      </trkpt>
      <trkpt lat="45.4199" lon="5.6515">
        <ele>840</ele>
        <time>2023-04-10T08:07:53Z</time>
      </trkpt>
      <trkpt lat="45.41993" lon="5.6515">
        <ele>840</ele>
        <time>2023-04-10T08:07:54Z</time>
      </trkpt>
      <trkpt lat="45.41995" lon="5.65151">
        <ele>840</ele>
        <time>2023-04-10T08:07:55Z</time>
      </trkpt>
      <trkpt lat="45.41998" lon="5.65151">
        <ele>840</ele>
        <time>2023-04-10T08:07:56Z</time>
      </trkpt>
      <trkpt lat="45.42004" lon="5.65153">
        <ele>840</ele>
        <time>2023-04-10T08:07:57Z</time>
      </trkpt>
      <trkpt lat="45.42007" lon="5.65153">
        <ele>841</ele>
        <time>2023-04-10T08:07:59Z</time>
      </trkpt>
      <trkpt lat="45.4201" lon="5.65154">
        <ele>841</ele>
        <time>2023-04-10T08:08:00Z</time>
      </trkpt>
      <trkpt lat="45.42013" lon="5.65155">
        <ele>841</ele>
        <time>2023-04-10T08:08:01Z</time>
      </trkpt>
      <trkpt lat="45.42015" lon="5.65156">
        <ele>841</ele>
        <time>2023-04-10T08:08:02Z</time>
      </trkpt>
      <trkpt lat="45.42018" lon="5.65157">
        <ele>841</ele>
        <time>2023-04-10T08:08:03Z</time>
      </trkpt>
      <trkpt lat="45.42021" lon="5.65158">
        <ele>841</ele>
        <time>2023-04-10T08:08:04Z</time>
      </trkpt>
      <trkpt lat="45.42023" lon="5.6516">
        <ele>841</ele>
        <time>2023-04-10T08:08:05Z</time>
      </trkpt>
      <trkpt lat="45.42026" lon="5.65162">
        <ele>841</ele>
        <time>2023-04-10T08:08:06Z</time>
      </trkpt>
      <trkpt lat="45.42028" lon="5.65163">
        <ele>841</ele>
        <time>2023-04-10T08:08:07Z</time>
      </trkpt>
      <trkpt lat="45.42031" lon="5.65165">
        <ele>842</ele>
        <time>2023-04-10T08:08:08Z</time>
      </trkpt>
      <trkpt lat="45.42033" lon="5.65167">
        <ele>842</ele>
        <time>2023-04-10T08:08:09Z</time>
      </trkpt>
      <trkpt lat="45.42035" lon="5.65169">
        <ele>842</ele>
        <time>2023-04-10T08:08:10Z</time>
      </trkpt>
      <trkpt lat="45.42037" lon="5.65171">
        <ele>842</ele>
        <time>2023-04-10T08:08:11Z</time>
      </trkpt>
      <trkpt lat="45.42039" lon="5.65174">
        <ele>842</ele>
        <time>2023-04-10T08:08:12Z</time>
      </trkpt>
      <trkpt lat="45.42042" lon="5.65176">
        <ele>843</ele>
        <time>2023-04-10T08:08:13Z</time>
      </trkpt>
      <trkpt lat="45.42044" lon="5.65179">
        <ele>843</ele>
        <time>2023-04-10T08:08:14Z</time>
      </trkpt>
      <trkpt lat="45.42045" lon="5.65182">
        <ele>843</ele>
        <time>2023-04-10T08:08:15Z</time>
      </trkpt>
      <trkpt lat="45.42047" lon="5.65184">
        <ele>843</ele>
        <time>2023-04-10T08:08:16Z</time>
      </trkpt>
      <trkpt lat="45.42048" lon="5.65186">
        <ele>843</ele>
        <time>2023-04-10T08:08:17Z</time>
      </trkpt>
      <trkpt lat="45.4205" lon="5.65188">
        <ele>843</ele>
        <time>2023-04-10T08:08:18Z</time>
      </trkpt>
      <trkpt lat="45.4205" lon="5.6519">
        <ele>843</ele>
        <time>2023-04-10T08:08:19Z</time>
      </trkpt>
      <trkpt lat="45.42051" lon="5.65193">
        <ele>844</ele>
        <time>2023-04-10T08:08:20Z</time>
      </trkpt>
      <trkpt lat="45.42052" lon="5.65196">
        <ele>844</ele>
        <time>2023-04-10T08:08:21Z</time>
      </trkpt>
      <trkpt lat="45.42054" lon="5.65198">
        <ele>844</ele>
        <time>2023-04-10T08:08:22Z</time>
      </trkpt>
      <trkpt lat="45.42055" lon="5.65201">
        <ele>844</ele>
        <time>2023-04-10T08:08:23Z</time>
      </trkpt>
      <trkpt lat="45.4206" lon="5.6521">
        <ele>844</ele>
        <time>2023-04-10T08:08:25Z</time>
      </trkpt>
      <trkpt lat="45.42062" lon="5.65214">
        <ele>844</ele>
        <time>2023-04-10T08:08:26Z</time>
      </trkpt>
      <trkpt lat="45.42065" lon="5.65219">
        <ele>844</ele>
        <time>2023-04-10T08:08:27Z</time>
      </trkpt>
      <trkpt lat="45.42068" lon="5.65226">
        <ele>844</ele>
        <time>2023-04-10T08:08:29Z</time>
      </trkpt>
      <trkpt lat="45.42071" lon="5.6523">
        <ele>845</ele>
        <time>2023-04-10T08:08:30Z</time>
      </trkpt>
      <trkpt lat="45.42073" lon="5.65234">
        <ele>845</ele>
        <time>2023-04-10T08:08:31Z</time>
      </trkpt>
      <trkpt lat="45.42075" lon="5.65238">
        <ele>845</ele>
        <time>2023-04-10T08:08:32Z</time>
      </trkpt>
      <trkpt lat="45.42081" lon="5.65251">
        <ele>846</ele>
        <time>2023-04-10T08:08:35Z</time>
      </trkpt>
      <trkpt lat="45.42083" lon="5.6526">
        <ele>846</ele>
        <time>2023-04-10T08:08:37Z</time>
      </trkpt>
      <trkpt lat="45.42084" lon="5.65266">
        <ele>846</ele>
        <time>2023-04-10T08:08:38Z</time>
      </trkpt>
      <trkpt lat="45.42085" lon="5.65271">
        <ele>846</ele>
        <time>2023-04-10T08:08:39Z</time>
      </trkpt>
      <trkpt lat="45.42086" lon="5.65277">
        <ele>846</ele>
        <time>2023-04-10T08:08:40Z</time>
      </trkpt>
      <trkpt lat="45.42088" lon="5.65282">
        <ele>846</ele>
        <time>2023-04-10T08:08:41Z</time>
      </trkpt>
      <trkpt lat="45.42089" lon="5.65287">
        <ele>846</ele>
        <time>2023-04-10T08:08:42Z</time>
      </trkpt>
      <trkpt lat="45.42091" lon="5.65293">
        <ele>847</ele>
        <time>2023-04-10T08:08:43Z</time>
      </trkpt>
      <trkpt lat="45.42093" lon="5.65298">
        <ele>847</ele>
        <time>2023-04-10T08:08:44Z</time>
      </trkpt>
      <trkpt lat="45.42094" lon="5.65302">
        <ele>847</ele>
        <time>2023-04-10T08:08:45Z</time>
      </trkpt>
      <trkpt lat="45.42096" lon="5.65306">
        <ele>848</ele>
        <time>2023-04-10T08:08:46Z</time>
      </trkpt>
      <trkpt lat="45.42097" lon="5.6531">
        <ele>848</ele>
        <time>2023-04-10T08:08:47Z</time>
      </trkpt>
      <trkpt lat="45.42099" lon="5.65314">
        <ele>847</ele>
        <time>2023-04-10T08:08:48Z</time>
      </trkpt>
      <trkpt lat="45.421" lon="5.65317">
        <ele>848</ele>
        <time>2023-04-10T08:08:49Z</time>
      </trkpt>
      <trkpt lat="45.42101" lon="5.6532">
        <ele>848</ele>
        <time>2023-04-10T08:08:50Z</time>
      </trkpt>
      <trkpt lat="45.42102" lon="5.65322">
        <ele>849</ele>
        <time>2023-04-10T08:08:51Z</time>
      </trkpt>
      <trkpt lat="45.42104" lon="5.65325">
        <ele>849</ele>
        <time>2023-04-10T08:08:52Z</time>
      </trkpt>
      <trkpt lat="45.42106" lon="5.65329">
        <ele>849</ele>
        <time>2023-04-10T08:08:53Z</time>
      </trkpt>
      <trkpt lat="45.42108" lon="5.65332">
        <ele>849</ele>
        <time>2023-04-10T08:08:54Z</time>
      </trkpt>
      <trkpt lat="45.42112" lon="5.65337">
        <ele>849</ele>
        <time>2023-04-10T08:08:55Z</time>
      </trkpt>
      <trkpt lat="45.42116" lon="5.65341">
        <ele>848</ele>
        <time>2023-04-10T08:08:56Z</time>
      </trkpt>
      <trkpt lat="45.42122" lon="5.65346">
        <ele>848</ele>
        <time>2023-04-10T08:08:57Z</time>
      </trkpt>
      <trkpt lat="45.42127" lon="5.65351">
        <ele>848</ele>
        <time>2023-04-10T08:08:58Z</time>
      </trkpt>
      <trkpt lat="45.42139" lon="5.65361">
        <ele>847</ele>
        <time>2023-04-10T08:09:00Z</time>
      </trkpt>
      <trkpt lat="45.4215" lon="5.65369">
        <ele>846</ele>
        <time>2023-04-10T08:09:02Z</time>
      </trkpt>
      <trkpt lat="45.42159" lon="5.65377">
        <ele>845</ele>
        <time>2023-04-10T08:09:04Z</time>
      </trkpt>
      <trkpt lat="45.42166" lon="5.6539">
        <ele>845</ele>
        <time>2023-04-10T08:09:06Z</time>
      </trkpt>
      <trkpt lat="45.42171" lon="5.65404">
        <ele>845</ele>
        <time>2023-04-10T08:09:08Z</time>
      </trkpt>
      <trkpt lat="45.42175" lon="5.65417">
        <ele>845</ele>
        <time>2023-04-10T08:09:11Z</time>
      </trkpt>
      <trkpt lat="45.42176" lon="5.65431">
        <ele>847</ele>
        <time>2023-04-10T08:09:15Z</time>
      </trkpt>
      <trkpt lat="45.42175" lon="5.65433">
        <ele>847</ele>
        <time>2023-04-10T08:09:16Z</time>
      </trkpt>
      <trkpt lat="45.42174" lon="5.65436">
        <ele>847</ele>
        <time>2023-04-10T08:09:17Z</time>
      </trkpt>
      <trkpt lat="45.42174" lon="5.65439">
        <ele>847</ele>
        <time>2023-04-10T08:09:18Z</time>
      </trkpt>
      <trkpt lat="45.42173" lon="5.65442">
        <ele>848</ele>
        <time>2023-04-10T08:09:19Z</time>
      </trkpt>
      <trkpt lat="45.42173" lon="5.65445">
        <ele>848</ele>
        <time>2023-04-10T08:09:20Z</time>
      </trkpt>
      <trkpt lat="45.42172" lon="5.65448">
        <ele>849</ele>
        <time>2023-04-10T08:09:21Z</time>
      </trkpt>
      <trkpt lat="45.42172" lon="5.65452">
        <ele>849</ele>
        <time>2023-04-10T08:09:22Z</time>
      </trkpt>
      <trkpt lat="45.42172" lon="5.65455">
        <ele>849</ele>
        <time>2023-04-10T08:09:23Z</time>
      </trkpt>
      <trkpt lat="45.42171" lon="5.65459">
        <ele>850</ele>
        <time>2023-04-10T08:09:24Z</time>
      </trkpt>
      <trkpt lat="45.4217" lon="5.65462">
        <ele>850</ele>
        <time>2023-04-10T08:09:25Z</time>
      </trkpt>
      <trkpt lat="45.42169" lon="5.65465">
        <ele>850</ele>
        <time>2023-04-10T08:09:26Z</time>
      </trkpt>
      <trkpt lat="45.42168" lon="5.65468">
        <ele>851</ele>
        <time>2023-04-10T08:09:27Z</time>
      </trkpt>
      <trkpt lat="45.42166" lon="5.65474">
        <ele>851</ele>
        <time>2023-04-10T08:09:28Z</time>
      </trkpt>
      <trkpt lat="45.42165" lon="5.65477">
        <ele>851</ele>
        <time>2023-04-10T08:09:30Z</time>
      </trkpt>
      <trkpt lat="45.42164" lon="5.6548">
        <ele>851</ele>
        <time>2023-04-10T08:09:31Z</time>
      </trkpt>
      <trkpt lat="45.42164" lon="5.65483">
        <ele>852</ele>
        <time>2023-04-10T08:09:32Z</time>
      </trkpt>
      <trkpt lat="45.42163" lon="5.65486">
        <ele>852</ele>
        <time>2023-04-10T08:09:33Z</time>
      </trkpt>
      <trkpt lat="45.42162" lon="5.6549">
        <ele>853</ele>
        <time>2023-04-10T08:09:35Z</time>
      </trkpt>
      <trkpt lat="45.42161" lon="5.65493">
        <ele>854</ele>
        <time>2023-04-10T08:09:36Z</time>
      </trkpt>
      <trkpt lat="45.42161" lon="5.65495">
        <ele>854</ele>
        <time>2023-04-10T08:09:37Z</time>
      </trkpt>
      <trkpt lat="45.42162" lon="5.65499">
        <ele>854</ele>
        <time>2023-04-10T08:09:38Z</time>
      </trkpt>
      <trkpt lat="45.42162" lon="5.65502">
        <ele>854</ele>
        <time>2023-04-10T08:09:39Z</time>
      </trkpt>
      <trkpt lat="45.42162" lon="5.65506">
        <ele>855</ele>
        <time>2023-04-10T08:09:40Z</time>
      </trkpt>
      <trkpt lat="45.42162" lon="5.65509">
        <ele>855</ele>
        <time>2023-04-10T08:09:41Z</time>
      </trkpt>
      <trkpt lat="45.42161" lon="5.65513">
        <ele>855</ele>
        <time>2023-04-10T08:09:42Z</time>
      </trkpt>
      <trkpt lat="45.42161" lon="5.65518">
        <ele>855</ele>
        <time>2023-04-10T08:09:43Z</time>
      </trkpt>
      <trkpt lat="45.4216" lon="5.65526">
        <ele>855</ele>
        <time>2023-04-10T08:09:44Z</time>
      </trkpt>
      <trkpt lat="45.42158" lon="5.65531">
        <ele>856</ele>
        <time>2023-04-10T08:09:46Z</time>
      </trkpt>
      <trkpt lat="45.42157" lon="5.65537">
        <ele>856</ele>
        <time>2023-04-10T08:09:47Z</time>
      </trkpt>
      <trkpt lat="45.42157" lon="5.65543">
        <ele>856</ele>
        <time>2023-04-10T08:09:48Z</time>
      </trkpt>
      <trkpt lat="45.42158" lon="5.65549">
        <ele>856</ele>
        <time>2023-04-10T08:09:49Z</time>
      </trkpt>
      <trkpt lat="45.4216" lon="5.65554">
        <ele>855</ele>
        <time>2023-04-10T08:09:50Z</time>
      </trkpt>
      <trkpt lat="45.42162" lon="5.65559">
        <ele>855</ele>
        <time>2023-04-10T08:09:51Z</time>
      </trkpt>
      <trkpt lat="45.42163" lon="5.65564">
        <ele>855</ele>
        <time>2023-04-10T08:09:52Z</time>
      </trkpt>
      <trkpt lat="45.42165" lon="5.65568">
        <ele>855</ele>
        <time>2023-04-10T08:09:53Z</time>
      </trkpt>
      <trkpt lat="45.42166" lon="5.65571">
        <ele>855</ele>
        <time>2023-04-10T08:09:54Z</time>
      </trkpt>
      <trkpt lat="45.42169" lon="5.65575">
        <ele>855</ele>
        <time>2023-04-10T08:09:55Z</time>
      </trkpt>
      <trkpt lat="45.42172" lon="5.65578">
        <ele>855</ele>
        <time>2023-04-10T08:09:56Z</time>
      </trkpt>
      <trkpt lat="45.42176" lon="5.65581">
        <ele>855</ele>
        <time>2023-04-10T08:09:57Z</time>
      </trkpt>
      <trkpt lat="45.4218" lon="5.65584">
        <ele>856</ele>
        <time>2023-04-10T08:09:58Z</time>
      </trkpt>
      <trkpt lat="45.42185" lon="5.65588">
        <ele>856</ele>
        <time>2023-04-10T08:09:59Z</time>
      </trkpt>
      <trkpt lat="45.42188" lon="5.65593">
        <ele>857</ele>
        <time>2023-04-10T08:10:00Z</time>
      </trkpt>
      <trkpt lat="45.42191" lon="5.65598">
        <ele>857</ele>
        <time>2023-04-10T08:10:01Z</time>
      </trkpt>
      <trkpt lat="45.42192" lon="5.65602">
        <ele>857</ele>
        <time>2023-04-10T08:10:02Z</time>
      </trkpt>
      <trkpt lat="45.42192" lon="5.65607">
        <ele>857</ele>
        <time>2023-04-10T08:10:03Z</time>
      </trkpt>
      <trkpt lat="45.42192" lon="5.65613">
        <ele>857</ele>
        <time>2023-04-10T08:10:04Z</time>
      </trkpt>
      <trkpt lat="45.4219" lon="5.65618">
        <ele>857</ele>
        <time>2023-04-10T08:10:05Z</time>
      </trkpt>
      <trkpt lat="45.42187" lon="5.65629">
        <ele>857</ele>
        <time>2023-04-10T08:10:06Z</time>
      </trkpt>
      <trkpt lat="45.42184" lon="5.65635">
        <ele>857</ele>
        <time>2023-04-10T08:10:08Z</time>
      </trkpt>
      <trkpt lat="45.42182" lon="5.65641">
        <ele>857</ele>
        <time>2023-04-10T08:10:09Z</time>
      </trkpt>
      <trkpt lat="45.42181" lon="5.65647">
        <ele>857</ele>
        <time>2023-04-10T08:10:10Z</time>
      </trkpt>
      <trkpt lat="45.42181" lon="5.65654">
        <ele>856</ele>
        <time>2023-04-10T08:10:11Z</time>
      </trkpt>
      <trkpt lat="45.42181" lon="5.65661">
        <ele>856</ele>
        <time>2023-04-10T08:10:12Z</time>
      </trkpt>
      <trkpt lat="45.42182" lon="5.65676">
        <ele>856</ele>
        <time>2023-04-10T08:10:14Z</time>
      </trkpt>
      <trkpt lat="45.42184" lon="5.65685">
        <ele>856</ele>
        <time>2023-04-10T08:10:15Z</time>
      </trkpt>
      <trkpt lat="45.42185" lon="5.65696">
        <ele>856</ele>
        <time>2023-04-10T08:10:16Z</time>
      </trkpt>
      <trkpt lat="45.42186" lon="5.65708">
        <ele>856</ele>
        <time>2023-04-10T08:10:17Z</time>
      </trkpt>
      <trkpt lat="45.42188" lon="5.65718">
        <ele>855</ele>
        <time>2023-04-10T08:10:18Z</time>
      </trkpt>
      <trkpt lat="45.42189" lon="5.65728">
        <ele>855</ele>
        <time>2023-04-10T08:10:19Z</time>
      </trkpt>
      <trkpt lat="45.42189" lon="5.65738">
        <ele>854</ele>
        <time>2023-04-10T08:10:20Z</time>
      </trkpt>
      <trkpt lat="45.42189" lon="5.65748">
        <ele>854</ele>
        <time>2023-04-10T08:10:21Z</time>
      </trkpt>
      <trkpt lat="45.4219" lon="5.65757">
        <ele>854</ele>
        <time>2023-04-10T08:10:22Z</time>
      </trkpt>
      <trkpt lat="45.4219" lon="5.65765">
        <ele>854</ele>
        <time>2023-04-10T08:10:23Z</time>
      </trkpt>
      <trkpt lat="45.42189" lon="5.65773">
        <ele>854</ele>
        <time>2023-04-10T08:10:24Z</time>
      </trkpt>
      <trkpt lat="45.42189" lon="5.65781">
        <ele>854</ele>
        <time>2023-04-10T08:10:25Z</time>
      </trkpt>
      <trkpt lat="45.42189" lon="5.65789">
        <ele>854</ele>
        <time>2023-04-10T08:10:26Z</time>
      </trkpt>
      <trkpt lat="45.4219" lon="5.65796">
        <ele>854</ele>
        <time>2023-04-10T08:10:27Z</time>
      </trkpt>
      <trkpt lat="45.42191" lon="5.65803">
        <ele>854</ele>
        <time>2023-04-10T08:10:28Z</time>
      </trkpt>
      <trkpt lat="45.42191" lon="5.6581">
        <ele>854</ele>
        <time>2023-04-10T08:10:29Z</time>
      </trkpt>
      <trkpt lat="45.42191" lon="5.65817">
        <ele>854</ele>
        <time>2023-04-10T08:10:30Z</time>
      </trkpt>
      <trkpt lat="45.42191" lon="5.65823">
        <ele>854</ele>
        <time>2023-04-10T08:10:31Z</time>
      </trkpt>
      <trkpt lat="45.42191" lon="5.65828">
        <ele>854</ele>
        <time>2023-04-10T08:10:32Z</time>
      </trkpt>
      <trkpt lat="45.42191" lon="5.65833">
        <ele>854</ele>
        <time>2023-04-10T08:10:33Z</time>
      </trkpt>
      <trkpt lat="45.42191" lon="5.65839">
        <ele>854</ele>
        <time>2023-04-10T08:10:34Z</time>
      </trkpt>
      <trkpt lat="45.42191" lon="5.65845">
        <ele>854</ele>
        <time>2023-04-10T08:10:35Z</time>
      </trkpt>
      <trkpt lat="45.42192" lon="5.65851">
        <ele>855</ele>
        <time>2023-04-10T08:10:36Z</time>
      </trkpt>
      <trkpt lat="45.42194" lon="5.65856">
        <ele>855</ele>
        <time>2023-04-10T08:10:37Z</time>
      </trkpt>
      <trkpt lat="45.42196" lon="5.65861">
        <ele>855</ele>
        <time>2023-04-10T08:10:38Z</time>
      </trkpt>
      <trkpt lat="45.42198" lon="5.65866">
        <ele>855</ele>
        <time>2023-04-10T08:10:39Z</time>
      </trkpt>
      <trkpt lat="45.42201" lon="5.6587">
        <ele>855</ele>
        <time>2023-04-10T08:10:40Z</time>
      </trkpt>
      <trkpt lat="45.42203" lon="5.65875">
        <ele>855</ele>
        <time>2023-04-10T08:10:41Z</time>
      </trkpt>
      <trkpt lat="45.42205" lon="5.65879">
        <ele>856</ele>
        <time>2023-04-10T08:10:42Z</time>
      </trkpt>
      <trkpt lat="45.42208" lon="5.65885">
        <ele>856</ele>
        <time>2023-04-10T08:10:43Z</time>
      </trkpt>
      <trkpt lat="45.42209" lon="5.6589">
        <ele>857</ele>
        <time>2023-04-10T08:10:44Z</time>
      </trkpt>
      <trkpt lat="45.4221" lon="5.65895">
        <ele>857</ele>
        <time>2023-04-10T08:10:45Z</time>
      </trkpt>
      <trkpt lat="45.42211" lon="5.65901">
        <ele>857</ele>
        <time>2023-04-10T08:10:46Z</time>
      </trkpt>
      <trkpt lat="45.42211" lon="5.65907">
        <ele>857</ele>
        <time>2023-04-10T08:10:47Z</time>
      </trkpt>
      <trkpt lat="45.4221" lon="5.65912">
        <ele>857</ele>
        <time>2023-04-10T08:10:48Z</time>
      </trkpt>
      <trkpt lat="45.42208" lon="5.65918">
        <ele>857</ele>
        <time>2023-04-10T08:10:49Z</time>
      </trkpt>
      <trkpt lat="45.42205" lon="5.65924">
        <ele>857</ele>
        <time>2023-04-10T08:10:50Z</time>
      </trkpt>
      <trkpt lat="45.42202" lon="5.6593">
        <ele>857</ele>
        <time>2023-04-10T08:10:51Z</time>
      </trkpt>
      <trkpt lat="45.42199" lon="5.65938">
        <ele>857</ele>
        <time>2023-04-10T08:10:52Z</time>
      </trkpt>
      <trkpt lat="45.42197" lon="5.65946">
        <ele>857</ele>
        <time>2023-04-10T08:10:53Z</time>
      </trkpt>
      <trkpt lat="45.42197" lon="5.65954">
        <ele>857</ele>
        <time>2023-04-10T08:10:54Z</time>
      </trkpt>
      <trkpt lat="45.42198" lon="5.65962">
        <ele>856</ele>
        <time>2023-04-10T08:10:55Z</time>
      </trkpt>
      <trkpt lat="45.422" lon="5.65969">
        <ele>856</ele>
        <time>2023-04-10T08:10:56Z</time>
      </trkpt>
      <trkpt lat="45.42203" lon="5.65974">
        <ele>856</ele>
        <time>2023-04-10T08:10:57Z</time>
      </trkpt>
      <trkpt lat="45.42207" lon="5.65978">
        <ele>855</ele>
        <time>2023-04-10T08:10:58Z</time>
      </trkpt>
      <trkpt lat="45.4221" lon="5.65981">
        <ele>855</ele>
        <time>2023-04-10T08:10:59Z</time>
      </trkpt>
      <trkpt lat="45.42214" lon="5.65985">
        <ele>855</ele>
        <time>2023-04-10T08:11:00Z</time>
      </trkpt>
      <trkpt lat="45.42217" lon="5.65988">
        <ele>855</ele>
        <time>2023-04-10T08:11:01Z</time>
      </trkpt>
      <trkpt lat="45.42221" lon="5.65991">
        <ele>855</ele>
        <time>2023-04-10T08:11:02Z</time>
      </trkpt>
      <trkpt lat="45.42225" lon="5.65993">
        <ele>856</ele>
        <time>2023-04-10T08:11:04Z</time>
      </trkpt>
      <trkpt lat="45.42228" lon="5.65994">
        <ele>856</ele>
        <time>2023-04-10T08:11:05Z</time>
      </trkpt>
      <trkpt lat="45.4223" lon="5.65996">
        <ele>856</ele>
        <time>2023-04-10T08:11:06Z</time>
      </trkpt>
      <trkpt lat="45.42232" lon="5.65997">
        <ele>857</ele>
        <time>2023-04-10T08:11:07Z</time>
      </trkpt>
      <trkpt lat="45.42235" lon="5.65998">
        <ele>857</ele>
        <time>2023-04-10T08:11:08Z</time>
      </trkpt>
      <trkpt lat="45.42237" lon="5.66">
        <ele>857</ele>
        <time>2023-04-10T08:11:09Z</time>
      </trkpt>
      <trkpt lat="45.42239" lon="5.66002">
        <ele>857</ele>
        <time>2023-04-10T08:11:10Z</time>
      </trkpt>
      <trkpt lat="45.42242" lon="5.66004">
        <ele>857</ele>
        <time>2023-04-10T08:11:11Z</time>
      </trkpt>
      <trkpt lat="45.42243" lon="5.66006">
        <ele>857</ele>
        <time>2023-04-10T08:11:12Z</time>
      </trkpt>
      <trkpt lat="45.42247" lon="5.66008">
        <ele>857</ele>
        <time>2023-04-10T08:11:13Z</time>
      </trkpt>
      <trkpt lat="45.42251" lon="5.66012">
        <ele>857</ele>
        <time>2023-04-10T08:11:15Z</time>
      </trkpt>
      <trkpt lat="45.42259" lon="5.6602">
        <ele>858</ele>
        <time>2023-04-10T08:11:19Z</time>
      </trkpt>
      <trkpt lat="45.42268" lon="5.66029">
        <ele>858</ele>
        <time>2023-04-10T08:11:22Z</time>
      </trkpt>
      <trkpt lat="45.42277" lon="5.66038">
        <ele>859</ele>
        <time>2023-04-10T08:11:25Z</time>
      </trkpt>
      <trkpt lat="45.42286" lon="5.66043">
        <ele>860</ele>
        <time>2023-04-10T08:11:28Z</time>
      </trkpt>
      <trkpt lat="45.42292" lon="5.66052">
        <ele>861</ele>
        <time>2023-04-10T08:11:32Z</time>
      </trkpt>
      <trkpt lat="45.42298" lon="5.66063">
        <ele>862</ele>
        <time>2023-04-10T08:11:37Z</time>
      </trkpt>
      <trkpt lat="45.42303" lon="5.66067">
        <ele>863</ele>
        <time>2023-04-10T08:11:39Z</time>
      </trkpt>
      <trkpt lat="45.42304" lon="5.66069">
        <ele>863</ele>
        <time>2023-04-10T08:11:40Z</time>
      </trkpt>
      <trkpt lat="45.42306" lon="5.66072">
        <ele>863</ele>
        <time>2023-04-10T08:11:41Z</time>
      </trkpt>
      <trkpt lat="45.42309" lon="5.66073">
        <ele>863</ele>
        <time>2023-04-10T08:11:42Z</time>
      </trkpt>
      <trkpt lat="45.42311" lon="5.66076">
        <ele>864</ele>
        <time>2023-04-10T08:11:43Z</time>
      </trkpt>
      <trkpt lat="45.42313" lon="5.66079">
        <ele>864</ele>
        <time>2023-04-10T08:11:44Z</time>
      </trkpt>
      <trkpt lat="45.42315" lon="5.66081">
        <ele>864</ele>
        <time>2023-04-10T08:11:45Z</time>
      </trkpt>
      <trkpt lat="45.42317" lon="5.66084">
        <ele>864</ele>
        <time>2023-04-10T08:11:46Z</time>
      </trkpt>
      <trkpt lat="45.42319" lon="5.66086">
        <ele>864</ele>
        <time>2023-04-10T08:11:47Z</time>
      </trkpt>
      <trkpt lat="45.42322" lon="5.66091">
        <ele>864</ele>
        <time>2023-04-10T08:11:49Z</time>
      </trkpt>
      <trkpt lat="45.42323" lon="5.66093">
        <ele>865</ele>
        <time>2023-04-10T08:11:50Z</time>
      </trkpt>
      <trkpt lat="45.42324" lon="5.66095">
        <ele>865</ele>
        <time>2023-04-10T08:11:51Z</time>
      </trkpt>
      <trkpt lat="45.42327" lon="5.66097">
        <ele>865</ele>
        <time>2023-04-10T08:11:53Z</time>
      </trkpt>
      <trkpt lat="45.42329" lon="5.66098">
        <ele>865</ele>
        <time>2023-04-10T08:11:54Z</time>
      </trkpt>
      <trkpt lat="45.42331" lon="5.66099">
        <ele>865</ele>
        <time>2023-04-10T08:11:55Z</time>
      </trkpt>
      <trkpt lat="45.42334" lon="5.661">
        <ele>865</ele>
        <time>2023-04-10T08:11:56Z</time>
      </trkpt>
      <trkpt lat="45.42337" lon="5.66101">
        <ele>865</ele>
        <time>2023-04-10T08:11:57Z</time>
      </trkpt>
      <trkpt lat="45.42339" lon="5.66102">
        <ele>865</ele>
        <time>2023-04-10T08:11:58Z</time>
      </trkpt>
      <trkpt lat="45.42342" lon="5.66104">
        <ele>866</ele>
        <time>2023-04-10T08:11:59Z</time>
      </trkpt>
      <trkpt lat="45.4235" lon="5.66111">
        <ele>866</ele>
        <time>2023-04-10T08:12:00Z</time>
      </trkpt>
      <trkpt lat="45.42353" lon="5.66114">
        <ele>866</ele>
        <time>2023-04-10T08:12:02Z</time>
      </trkpt>
      <trkpt lat="45.42357" lon="5.66116">
        <ele>866</ele>
        <time>2023-04-10T08:12:03Z</time>
      </trkpt>
      <trkpt lat="45.42361" lon="5.66119">
        <ele>866</ele>
        <time>2023-04-10T08:12:04Z</time>
      </trkpt>
      <trkpt lat="45.42364" lon="5.66121">
        <ele>866</ele>
        <time>2023-04-10T08:12:05Z</time>
      </trkpt>
      <trkpt lat="45.42366" lon="5.66122">
        <ele>866</ele>
        <time>2023-04-10T08:12:06Z</time>
      </trkpt>
      <trkpt lat="45.42369" lon="5.66123">
        <ele>866</ele>
        <time>2023-04-10T08:12:07Z</time>
      </trkpt>
      <trkpt lat="45.42373" lon="5.66126">
        <ele>866</ele>
        <time>2023-04-10T08:12:08Z</time>
      </trkpt>
      <trkpt lat="45.42378" lon="5.66129">
        <ele>866</ele>
        <time>2023-04-10T08:12:09Z</time>
      </trkpt>
      <trkpt lat="45.42383" lon="5.66131">
        <ele>866</ele>
        <time>2023-04-10T08:12:10Z</time>
      </trkpt>
      <trkpt lat="45.42387" lon="5.66133">
        <ele>866</ele>
        <time>2023-04-10T08:12:11Z</time>
      </trkpt>
      <trkpt lat="45.42391" lon="5.66135">
        <ele>866</ele>
        <time>2023-04-10T08:12:12Z</time>
      </trkpt>
      <trkpt lat="45.42395" lon="5.66137">
        <ele>866</ele>
        <time>2023-04-10T08:12:13Z</time>
      </trkpt>
      <trkpt lat="45.424" lon="5.66139">
        <ele>866</ele>
        <time>2023-04-10T08:12:14Z</time>
      </trkpt>
      <trkpt lat="45.42404" lon="5.6614">
        <ele>866</ele>
        <time>2023-04-10T08:12:15Z</time>
      </trkpt>
      <trkpt lat="45.42408" lon="5.66142">
        <ele>867</ele>
        <time>2023-04-10T08:12:16Z</time>
      </trkpt>
      <trkpt lat="45.42412" lon="5.66144">
        <ele>867</ele>
        <time>2023-04-10T08:12:17Z</time>
      </trkpt>
      <trkpt lat="45.42416" lon="5.66145">
        <ele>867</ele>
        <time>2023-04-10T08:12:18Z</time>
      </trkpt>
      <trkpt lat="45.42421" lon="5.66148">
        <ele>867</ele>
        <time>2023-04-10T08:12:19Z</time>
      </trkpt>
      <trkpt lat="45.4243" lon="5.66156">
        <ele>867</ele>
        <time>2023-04-10T08:12:23Z</time>
      </trkpt>
      <trkpt lat="45.42437" lon="5.66165">
        <ele>867</ele>
        <time>2023-04-10T08:12:25Z</time>
      </trkpt>
      <trkpt lat="45.42444" lon="5.66173">
        <ele>867</ele>
        <time>2023-04-10T08:12:28Z</time>
      </trkpt>
      <trkpt lat="45.42452" lon="5.66181">
        <ele>868</ele>
        <time>2023-04-10T08:12:30Z</time>
      </trkpt>
      <trkpt lat="45.4246" lon="5.66189">
        <ele>869</ele>
        <time>2023-04-10T08:12:33Z</time>
      </trkpt>
      <trkpt lat="45.42466" lon="5.662">
        <ele>869</ele>
        <time>2023-04-10T08:12:37Z</time>
      </trkpt>
      <trkpt lat="45.42472" lon="5.66213">
        <ele>870</ele>
        <time>2023-04-10T08:12:40Z</time>
      </trkpt>
      <trkpt lat="45.42477" lon="5.66225">
        <ele>870</ele>
        <time>2023-04-10T08:12:42Z</time>
      </trkpt>
      <trkpt lat="45.42485" lon="5.66233">
        <ele>870</ele>
        <time>2023-04-10T08:12:44Z</time>
      </trkpt>
      <trkpt lat="45.42492" lon="5.66243">
        <ele>871</ele>
        <time>2023-04-10T08:12:46Z</time>
      </trkpt>
      <trkpt lat="45.42499" lon="5.66252">
        <ele>872</ele>
        <time>2023-04-10T08:12:48Z</time>
      </trkpt>
      <trkpt lat="45.42506" lon="5.66264">
        <ele>872</ele>
        <time>2023-04-10T08:12:52Z</time>
      </trkpt>
      <trkpt lat="45.42511" lon="5.66278">
        <ele>874</ele>
        <time>2023-04-10T08:12:57Z</time>
      </trkpt>
      <trkpt lat="45.42512" lon="5.66286">
        <ele>874</ele>
        <time>2023-04-10T08:12:59Z</time>
      </trkpt>
      <trkpt lat="45.42512" lon="5.6629">
        <ele>874</ele>
        <time>2023-04-10T08:13:00Z</time>
      </trkpt>
      <trkpt lat="45.42513" lon="5.66302">
        <ele>875</ele>
        <time>2023-04-10T08:13:03Z</time>
      </trkpt>
      <trkpt lat="45.42514" lon="5.66306">
        <ele>875</ele>
        <time>2023-04-10T08:13:04Z</time>
      </trkpt>
      <trkpt lat="45.42515" lon="5.66311">
        <ele>875</ele>
        <time>2023-04-10T08:13:05Z</time>
      </trkpt>
      <trkpt lat="45.42516" lon="5.66316">
        <ele>876</ele>
        <time>2023-04-10T08:13:06Z</time>
      </trkpt>
      <trkpt lat="45.42516" lon="5.66321">
        <ele>876</ele>
        <time>2023-04-10T08:13:07Z</time>
      </trkpt>
      <trkpt lat="45.42517" lon="5.66325">
        <ele>876</ele>
        <time>2023-04-10T08:13:08Z</time>
      </trkpt>
      <trkpt lat="45.42517" lon="5.66329">
        <ele>876</ele>
        <time>2023-04-10T08:13:09Z</time>
      </trkpt>
      <trkpt lat="45.42518" lon="5.66332">
        <ele>876</ele>
        <time>2023-04-10T08:13:10Z</time>
      </trkpt>
      <trkpt lat="45.42518" lon="5.66336">
        <ele>877</ele>
        <time>2023-04-10T08:13:11Z</time>
      </trkpt>
      <trkpt lat="45.4252" lon="5.66341">
        <ele>877</ele>
        <time>2023-04-10T08:13:12Z</time>
      </trkpt>
      <trkpt lat="45.42522" lon="5.66344">
        <ele>877</ele>
        <time>2023-04-10T08:13:13Z</time>
      </trkpt>
      <trkpt lat="45.42523" lon="5.66347">
        <ele>877</ele>
        <time>2023-04-10T08:13:14Z</time>
      </trkpt>
      <trkpt lat="45.42524" lon="5.6635">
        <ele>877</ele>
        <time>2023-04-10T08:13:16Z</time>
      </trkpt>
      <trkpt lat="45.42526" lon="5.66351">
        <ele>877</ele>
        <time>2023-04-10T08:13:23Z</time>
      </trkpt>
      <trkpt lat="45.42528" lon="5.6635">
        <ele>877</ele>
        <time>2023-04-10T08:13:26Z</time>
      </trkpt>
      <trkpt lat="45.42528" lon="5.66351">
        <ele>877</ele>
        <time>2023-04-10T08:13:30Z</time>
      </trkpt>
      <trkpt lat="45.42533" lon="5.66337">
        <ele>877</ele>
        <time>2023-04-10T08:15:17Z</time>
      </trkpt>
      <trkpt lat="45.42536" lon="5.66332">
        <ele>877</ele>
        <time>2023-04-10T08:15:18Z</time>
      </trkpt>
      <trkpt lat="45.42538" lon="5.66329">
        <ele>877</ele>
        <time>2023-04-10T08:15:20Z</time>
      </trkpt>
      <trkpt lat="45.42539" lon="5.66326">
        <ele>877</ele>
        <time>2023-04-10T08:15:21Z</time>
      </trkpt>
      <trkpt lat="45.42541" lon="5.66323">
        <ele>877</ele>
        <time>2023-04-10T08:15:22Z</time>
      </trkpt>
      <trkpt lat="45.42544" lon="5.66321">
        <ele>878</ele>
        <time>2023-04-10T08:15:23Z</time>
      </trkpt>
      <trkpt lat="45.42546" lon="5.66318">
        <ele>878</ele>
        <time>2023-04-10T08:15:24Z</time>
      </trkpt>
      <trkpt lat="45.42548" lon="5.66315">
        <ele>878</ele>
        <time>2023-04-10T08:15:25Z</time>
      </trkpt>
      <trkpt lat="45.42549" lon="5.66312">
        <ele>878</ele>
        <time>2023-04-10T08:15:26Z</time>
      </trkpt>
      <trkpt lat="45.42551" lon="5.66309">
        <ele>879</ele>
        <time>2023-04-10T08:15:27Z</time>
      </trkpt>
      <trkpt lat="45.42553" lon="5.66306">
        <ele>879</ele>
        <time>2023-04-10T08:15:28Z</time>
      </trkpt>
      <trkpt lat="45.42555" lon="5.66304">
        <ele>880</ele>
        <time>2023-04-10T08:15:29Z</time>
      </trkpt>
      <trkpt lat="45.42558" lon="5.66302">
        <ele>880</ele>
        <time>2023-04-10T08:15:30Z</time>
      </trkpt>
      <trkpt lat="45.4256" lon="5.663">
        <ele>881</ele>
        <time>2023-04-10T08:15:31Z</time>
      </trkpt>
      <trkpt lat="45.42562" lon="5.66299">
        <ele>881</ele>
        <time>2023-04-10T08:15:32Z</time>
      </trkpt>
      <trkpt lat="45.42564" lon="5.66298">
        <ele>881</ele>
        <time>2023-04-10T08:15:33Z</time>
      </trkpt>
      <trkpt lat="45.42566" lon="5.66298">
        <ele>881</ele>
        <time>2023-04-10T08:15:34Z</time>
      </trkpt>
      <trkpt lat="45.42568" lon="5.66297">
        <ele>881</ele>
        <time>2023-04-10T08:15:35Z</time>
      </trkpt>
      <trkpt lat="45.42571" lon="5.66297">
        <ele>881</ele>
        <time>2023-04-10T08:15:36Z</time>
      </trkpt>
      <trkpt lat="45.42575" lon="5.66299">
        <ele>882</ele>
        <time>2023-04-10T08:15:37Z</time>
      </trkpt>
      <trkpt lat="45.42576" lon="5.663">
        <ele>883</ele>
        <time>2023-04-10T08:15:39Z</time>
      </trkpt>
      <trkpt lat="45.42579" lon="5.66302">
        <ele>883</ele>
        <time>2023-04-10T08:15:40Z</time>
      </trkpt>
      <trkpt lat="45.42582" lon="5.66305">
        <ele>883</ele>
        <time>2023-04-10T08:15:42Z</time>
      </trkpt>
      <trkpt lat="45.42586" lon="5.66309">
        <ele>883</ele>
        <time>2023-04-10T08:15:43Z</time>
      </trkpt>
      <trkpt lat="45.42595" lon="5.66319">
        <ele>883</ele>
        <time>2023-04-10T08:15:45Z</time>
      </trkpt>
      <trkpt lat="45.42605" lon="5.66331">
        <ele>883</ele>
        <time>2023-04-10T08:15:47Z</time>
      </trkpt>
      <trkpt lat="45.42617" lon="5.66347">
        <ele>882</ele>
        <time>2023-04-10T08:15:49Z</time>
      </trkpt>
      <trkpt lat="45.42624" lon="5.66356">
        <ele>881</ele>
        <time>2023-04-10T08:15:50Z</time>
      </trkpt>
      <trkpt lat="45.42635" lon="5.66374">
        <ele>881</ele>
        <time>2023-04-10T08:15:52Z</time>
      </trkpt>
      <trkpt lat="45.42641" lon="5.66383">
        <ele>881</ele>
        <time>2023-04-10T08:15:53Z</time>
      </trkpt>
      <trkpt lat="45.42647" lon="5.66392">
        <ele>880</ele>
        <time>2023-04-10T08:15:54Z</time>
      </trkpt>
      <trkpt lat="45.42652" lon="5.664">
        <ele>879</ele>
        <time>2023-04-10T08:15:55Z</time>
      </trkpt>
      <trkpt lat="45.42657" lon="5.66409">
        <ele>879</ele>
        <time>2023-04-10T08:15:56Z</time>
      </trkpt>
      <trkpt lat="45.42661" lon="5.66417">
        <ele>879</ele>
        <time>2023-04-10T08:15:57Z</time>
      </trkpt>
      <trkpt lat="45.42669" lon="5.6643">
        <ele>879</ele>
        <time>2023-04-10T08:15:59Z</time>
      </trkpt>
      <trkpt lat="45.42678" lon="5.66442">
        <ele>879</ele>
        <time>2023-04-10T08:16:01Z</time>
      </trkpt>
      <trkpt lat="45.42688" lon="5.66452">
        <ele>879</ele>
        <time>2023-04-10T08:16:03Z</time>
      </trkpt>
      <trkpt lat="45.42695" lon="5.66466">
        <ele>879</ele>
        <time>2023-04-10T08:16:05Z</time>
      </trkpt>
      <trkpt lat="45.42703" lon="5.66482">
        <ele>879</ele>
        <time>2023-04-10T08:16:07Z</time>
      </trkpt>
      <trkpt lat="45.42707" lon="5.66494">
        <ele>879</ele>
        <time>2023-04-10T08:16:09Z</time>
      </trkpt>
      <trkpt lat="45.4271" lon="5.66507">
        <ele>879</ele>
        <time>2023-04-10T08:16:11Z</time>
      </trkpt>
      <trkpt lat="45.42711" lon="5.66527">
        <ele>878</ele>
        <time>2023-04-10T08:16:13Z</time>
      </trkpt>
      <trkpt lat="45.42715" lon="5.6655">
        <ele>877</ele>
        <time>2023-04-10T08:16:15Z</time>
      </trkpt>
      <trkpt lat="45.42719" lon="5.66568">
        <ele>878</ele>
        <time>2023-04-10T08:16:17Z</time>
      </trkpt>
      <trkpt lat="45.42723" lon="5.66582">
        <ele>879</ele>
        <time>2023-04-10T08:16:19Z</time>
      </trkpt>
      <trkpt lat="45.42729" lon="5.66594">
        <ele>879</ele>
        <time>2023-04-10T08:16:21Z</time>
      </trkpt>
      <trkpt lat="45.42736" lon="5.66607">
        <ele>879</ele>
        <time>2023-04-10T08:16:23Z</time>
      </trkpt>
      <trkpt lat="45.42743" lon="5.66619">
        <ele>879</ele>
        <time>2023-04-10T08:16:25Z</time>
      </trkpt>
      <trkpt lat="45.42746" lon="5.66625">
        <ele>879</ele>
        <time>2023-04-10T08:16:26Z</time>
      </trkpt>
      <trkpt lat="45.42749" lon="5.66632">
        <ele>879</ele>
        <time>2023-04-10T08:16:27Z</time>
      </trkpt>
      <trkpt lat="45.42752" lon="5.66638">
        <ele>879</ele>
        <time>2023-04-10T08:16:28Z</time>
      </trkpt>
      <trkpt lat="45.42755" lon="5.66644">
        <ele>879</ele>
        <time>2023-04-10T08:16:29Z</time>
      </trkpt>
      <trkpt lat="45.42759" lon="5.6665">
        <ele>879</ele>
        <time>2023-04-10T08:16:30Z</time>
      </trkpt>
      <trkpt lat="45.42763" lon="5.66655">
        <ele>879</ele>
        <time>2023-04-10T08:16:31Z</time>
      </trkpt>
      <trkpt lat="45.42767" lon="5.66657">
        <ele>879</ele>
        <time>2023-04-10T08:16:32Z</time>
      </trkpt>
      <trkpt lat="45.42773" lon="5.66657">
        <ele>878</ele>
        <time>2023-04-10T08:16:33Z</time>
      </trkpt>
      <trkpt lat="45.42783" lon="5.66661">
        <ele>878</ele>
        <time>2023-04-10T08:16:34Z</time>
      </trkpt>
      <trkpt lat="45.42786" lon="5.66667">
        <ele>878</ele>
        <time>2023-04-10T08:16:36Z</time>
      </trkpt>
      <trkpt lat="45.42787" lon="5.66675">
        <ele>878</ele>
        <time>2023-04-10T08:16:37Z</time>
      </trkpt>
      <trkpt lat="45.42789" lon="5.66684">
        <ele>878</ele>
        <time>2023-04-10T08:16:38Z</time>
      </trkpt>
      <trkpt lat="45.42791" lon="5.66692">
        <ele>878</ele>
        <time>2023-04-10T08:16:39Z</time>
      </trkpt>
      <trkpt lat="45.42793" lon="5.66701">
        <ele>878</ele>
        <time>2023-04-10T08:16:40Z</time>
      </trkpt>
      <trkpt lat="45.42797" lon="5.6671">
        <ele>877</ele>
        <time>2023-04-10T08:16:41Z</time>
      </trkpt>
      <trkpt lat="45.428" lon="5.66719">
        <ele>877</ele>
        <time>2023-04-10T08:16:42Z</time>
      </trkpt>
      <trkpt lat="45.42802" lon="5.66728">
        <ele>877</ele>
        <time>2023-04-10T08:16:43Z</time>
      </trkpt>
      <trkpt lat="45.42805" lon="5.66738">
        <ele>876</ele>
        <time>2023-04-10T08:16:44Z</time>
      </trkpt>
      <trkpt lat="45.42808" lon="5.66749">
        <ele>876</ele>
        <time>2023-04-10T08:16:45Z</time>
      </trkpt>
      <trkpt lat="45.42816" lon="5.66768">
        <ele>875</ele>
        <time>2023-04-10T08:16:47Z</time>
      </trkpt>
      <trkpt lat="45.42824" lon="5.66786">
        <ele>875</ele>
        <time>2023-04-10T08:16:49Z</time>
      </trkpt>
      <trkpt lat="45.42833" lon="5.66804">
        <ele>875</ele>
        <time>2023-04-10T08:16:51Z</time>
      </trkpt>
      <trkpt lat="45.42844" lon="5.6682">
        <ele>875</ele>
        <time>2023-04-10T08:16:53Z</time>
      </trkpt>
      <trkpt lat="45.42847" lon="5.66827">
        <ele>875</ele>
        <time>2023-04-10T08:16:54Z</time>
      </trkpt>
      <trkpt lat="45.42851" lon="5.66835">
        <ele>875</ele>
        <time>2023-04-10T08:16:55Z</time>
      </trkpt>
      <trkpt lat="45.42858" lon="5.6685">
        <ele>875</ele>
        <time>2023-04-10T08:16:57Z</time>
      </trkpt>
      <trkpt lat="45.42866" lon="5.66863">
        <ele>875</ele>
        <time>2023-04-10T08:16:59Z</time>
      </trkpt>
      <trkpt lat="45.42876" lon="5.66879">
        <ele>875</ele>
        <time>2023-04-10T08:17:01Z</time>
      </trkpt>
      <trkpt lat="45.42885" lon="5.66899">
        <ele>873</ele>
        <time>2023-04-10T08:17:03Z</time>
      </trkpt>
      <trkpt lat="45.42888" lon="5.66912">
        <ele>871</ele>
        <time>2023-04-10T08:17:04Z</time>
      </trkpt>
      <trkpt lat="45.42889" lon="5.66928">
        <ele>869</ele>
        <time>2023-04-10T08:17:05Z</time>
      </trkpt>
      <trkpt lat="45.42891" lon="5.66943">
        <ele>867</ele>
        <time>2023-04-10T08:17:06Z</time>
      </trkpt>
      <trkpt lat="45.42894" lon="5.66958">
        <ele>865</ele>
        <time>2023-04-10T08:17:07Z</time>
      </trkpt>
      <trkpt lat="45.42899" lon="5.66972">
        <ele>864</ele>
        <time>2023-04-10T08:17:08Z</time>
      </trkpt>
      <trkpt lat="45.42904" lon="5.66984">
        <ele>862</ele>
        <time>2023-04-10T08:17:09Z</time>
      </trkpt>
      <trkpt lat="45.42916" lon="5.67002">
        <ele>861</ele>
        <time>2023-04-10T08:17:11Z</time>
      </trkpt>
      <trkpt lat="45.42922" lon="5.67012">
        <ele>860</ele>
        <time>2023-04-10T08:17:12Z</time>
      </trkpt>
      <trkpt lat="45.4293" lon="5.67031">
        <ele>860</ele>
        <time>2023-04-10T08:17:14Z</time>
      </trkpt>
      <trkpt lat="45.42936" lon="5.67048">
        <ele>860</ele>
        <time>2023-04-10T08:17:16Z</time>
      </trkpt>
      <trkpt lat="45.42943" lon="5.67063">
        <ele>860</ele>
        <time>2023-04-10T08:17:18Z</time>
      </trkpt>
      <trkpt lat="45.42951" lon="5.67075">
        <ele>860</ele>
        <time>2023-04-10T08:17:20Z</time>
      </trkpt>
      <trkpt lat="45.42962" lon="5.67087">
        <ele>861</ele>
        <time>2023-04-10T08:17:22Z</time>
      </trkpt>
      <trkpt lat="45.42973" lon="5.67097">
        <ele>861</ele>
        <time>2023-04-10T08:17:24Z</time>
      </trkpt>
      <trkpt lat="45.42981" lon="5.67104">
        <ele>861</ele>
        <time>2023-04-10T08:17:26Z</time>
      </trkpt>
      <trkpt lat="45.42991" lon="5.67112">
        <ele>861</ele>
        <time>2023-04-10T08:17:29Z</time>
      </trkpt>
      <trkpt lat="45.42997" lon="5.67123">
        <ele>861</ele>
        <time>2023-04-10T08:17:31Z</time>
      </trkpt>
      <trkpt lat="45.43005" lon="5.67136">
        <ele>861</ele>
        <time>2023-04-10T08:17:35Z</time>
      </trkpt>
      <trkpt lat="45.43012" lon="5.67145">
        <ele>861</ele>
        <time>2023-04-10T08:17:37Z</time>
      </trkpt>
      <trkpt lat="45.4302" lon="5.67157">
        <ele>861</ele>
        <time>2023-04-10T08:17:39Z</time>
      </trkpt>
      <trkpt lat="45.43027" lon="5.67177">
        <ele>861</ele>
        <time>2023-04-10T08:17:41Z</time>
      </trkpt>
      <trkpt lat="45.4303" lon="5.67197">
        <ele>861</ele>
        <time>2023-04-10T08:17:43Z</time>
      </trkpt>
      <trkpt lat="45.43032" lon="5.67211">
        <ele>861</ele>
        <time>2023-04-10T08:17:45Z</time>
      </trkpt>
      <trkpt lat="45.43038" lon="5.67226">
        <ele>861</ele>
        <time>2023-04-10T08:17:48Z</time>
      </trkpt>
      <trkpt lat="45.43043" lon="5.67238">
        <ele>861</ele>
        <time>2023-04-10T08:17:50Z</time>
      </trkpt>
      <trkpt lat="45.43048" lon="5.6725">
        <ele>862</ele>
        <time>2023-04-10T08:17:52Z</time>
      </trkpt>
      <trkpt lat="45.43051" lon="5.67262">
        <ele>862</ele>
        <time>2023-04-10T08:17:54Z</time>
      </trkpt>
      <trkpt lat="45.43054" lon="5.67276">
        <ele>862</ele>
        <time>2023-04-10T08:17:56Z</time>
      </trkpt>
      <trkpt lat="45.43056" lon="5.67292">
        <ele>862</ele>
        <time>2023-04-10T08:17:58Z</time>
      </trkpt>
      <trkpt lat="45.43061" lon="5.67307">
        <ele>862</ele>
        <time>2023-04-10T08:18:00Z</time>
      </trkpt>
      <trkpt lat="45.43066" lon="5.67322">
        <ele>862</ele>
        <time>2023-04-10T08:18:02Z</time>
      </trkpt>
      <trkpt lat="45.43073" lon="5.67336">
        <ele>863</ele>
        <time>2023-04-10T08:18:04Z</time>
      </trkpt>
      <trkpt lat="45.43081" lon="5.67349">
        <ele>863</ele>
        <time>2023-04-10T08:18:06Z</time>
      </trkpt>
      <trkpt lat="45.43087" lon="5.67361">
        <ele>863</ele>
        <time>2023-04-10T08:18:08Z</time>
      </trkpt>
      <trkpt lat="45.43094" lon="5.67371">
        <ele>864</ele>
        <time>2023-04-10T08:18:10Z</time>
      </trkpt>
      <trkpt lat="45.43101" lon="5.67385">
        <ele>865</ele>
        <time>2023-04-10T08:18:13Z</time>
      </trkpt>
      <trkpt lat="45.43108" lon="5.67395">
        <ele>866</ele>
        <time>2023-04-10T08:18:16Z</time>
      </trkpt>
      <trkpt lat="45.43116" lon="5.67406">
        <ele>867</ele>
        <time>2023-04-10T08:18:19Z</time>
      </trkpt>
      <trkpt lat="45.43121" lon="5.67419">
        <ele>868</ele>
        <time>2023-04-10T08:18:22Z</time>
      </trkpt>
      <trkpt lat="45.43121" lon="5.67437">
        <ele>869</ele>
        <time>2023-04-10T08:18:25Z</time>
      </trkpt>
      <trkpt lat="45.43119" lon="5.67449">
        <ele>869</ele>
        <time>2023-04-10T08:18:27Z</time>
      </trkpt>
      <trkpt lat="45.43119" lon="5.67467">
        <ele>870</ele>
        <time>2023-04-10T08:18:30Z</time>
      </trkpt>
      <trkpt lat="45.43119" lon="5.67473">
        <ele>870</ele>
        <time>2023-04-10T08:18:31Z</time>
      </trkpt>
      <trkpt lat="45.43119" lon="5.67479">
        <ele>870</ele>
        <time>2023-04-10T08:18:32Z</time>
      </trkpt>
      <trkpt lat="45.43119" lon="5.67485">
        <ele>870</ele>
        <time>2023-04-10T08:18:33Z</time>
      </trkpt>
      <trkpt lat="45.43119" lon="5.6749">
        <ele>870</ele>
        <time>2023-04-10T08:18:34Z</time>
      </trkpt>
      <trkpt lat="45.43119" lon="5.67495">
        <ele>870</ele>
        <time>2023-04-10T08:18:35Z</time>
      </trkpt>
      <trkpt lat="45.43117" lon="5.67508">
        <ele>871</ele>
        <time>2023-04-10T08:18:38Z</time>
      </trkpt>
      <trkpt lat="45.43117" lon="5.67513">
        <ele>871</ele>
        <time>2023-04-10T08:18:39Z</time>
      </trkpt>
      <trkpt lat="45.43117" lon="5.67522">
        <ele>871</ele>
        <time>2023-04-10T08:18:41Z</time>
      </trkpt>
      <trkpt lat="45.43118" lon="5.67529">
        <ele>871</ele>
        <time>2023-04-10T08:18:42Z</time>
      </trkpt>
      <trkpt lat="45.4312" lon="5.67536">
        <ele>871</ele>
        <time>2023-04-10T08:18:43Z</time>
      </trkpt>
      <trkpt lat="45.43123" lon="5.67542">
        <ele>871</ele>
        <time>2023-04-10T08:18:44Z</time>
      </trkpt>
      <trkpt lat="45.43126" lon="5.67548">
        <ele>871</ele>
        <time>2023-04-10T08:18:45Z</time>
      </trkpt>
      <trkpt lat="45.43128" lon="5.67554">
        <ele>872</ele>
        <time>2023-04-10T08:18:46Z</time>
      </trkpt>
      <trkpt lat="45.43129" lon="5.6756">
        <ele>872</ele>
        <time>2023-04-10T08:18:47Z</time>
      </trkpt>
      <trkpt lat="45.43132" lon="5.67566">
        <ele>872</ele>
        <time>2023-04-10T08:18:48Z</time>
      </trkpt>
      <trkpt lat="45.43135" lon="5.67571">
        <ele>872</ele>
        <time>2023-04-10T08:18:49Z</time>
      </trkpt>
      <trkpt lat="45.43137" lon="5.67577">
        <ele>872</ele>
        <time>2023-04-10T08:18:50Z</time>
      </trkpt>
      <trkpt lat="45.43139" lon="5.67583">
        <ele>872</ele>
        <time>2023-04-10T08:18:51Z</time>
      </trkpt>
      <trkpt lat="45.43139" lon="5.67589">
        <ele>872</ele>
        <time>2023-04-10T08:18:52Z</time>
      </trkpt>
      <trkpt lat="45.43141" lon="5.67595">
        <ele>872</ele>
        <time>2023-04-10T08:18:53Z</time>
      </trkpt>
      <trkpt lat="45.43142" lon="5.676">
        <ele>872</ele>
        <time>2023-04-10T08:18:54Z</time>
      </trkpt>
      <trkpt lat="45.43144" lon="5.67606">
        <ele>872</ele>
        <time>2023-04-10T08:18:55Z</time>
      </trkpt>
      <trkpt lat="45.43145" lon="5.67611">
        <ele>872</ele>
        <time>2023-04-10T08:18:56Z</time>
      </trkpt>
      <trkpt lat="45.43146" lon="5.67615">
        <ele>872</ele>
        <time>2023-04-10T08:18:57Z</time>
      </trkpt>
      <trkpt lat="45.43148" lon="5.67619">
        <ele>873</ele>
        <time>2023-04-10T08:18:58Z</time>
      </trkpt>
      <trkpt lat="45.4315" lon="5.67623">
        <ele>873</ele>
        <time>2023-04-10T08:18:59Z</time>
      </trkpt>
      <trkpt lat="45.43153" lon="5.6763">
        <ele>873</ele>
        <time>2023-04-10T08:19:00Z</time>
      </trkpt>
      <trkpt lat="45.43156" lon="5.67633">
        <ele>874</ele>
        <time>2023-04-10T08:19:02Z</time>
      </trkpt>
      <trkpt lat="45.43158" lon="5.67636">
        <ele>875</ele>
        <time>2023-04-10T08:19:03Z</time>
      </trkpt>
      <trkpt lat="45.4316" lon="5.67639">
        <ele>875</ele>
        <time>2023-04-10T08:19:04Z</time>
      </trkpt>
      <trkpt lat="45.43161" lon="5.67642">
        <ele>876</ele>
        <time>2023-04-10T08:19:05Z</time>
      </trkpt>
      <trkpt lat="45.43163" lon="5.67649">
        <ele>876</ele>
        <time>2023-04-10T08:19:08Z</time>
      </trkpt>
      <trkpt lat="45.43164" lon="5.67652">
        <ele>877</ele>
        <time>2023-04-10T08:19:09Z</time>
      </trkpt>
      <trkpt lat="45.43172" lon="5.67664">
        <ele>877</ele>
        <time>2023-04-10T08:19:13Z</time>
      </trkpt>
      <trkpt lat="45.43175" lon="5.67667">
        <ele>877</ele>
        <time>2023-04-10T08:19:14Z</time>
      </trkpt>
      <trkpt lat="45.43176" lon="5.6767">
        <ele>878</ele>
        <time>2023-04-10T08:19:15Z</time>
      </trkpt>
      <trkpt lat="45.43177" lon="5.67675">
        <ele>879</ele>
        <time>2023-04-10T08:19:16Z</time>
      </trkpt>
      <trkpt lat="45.43177" lon="5.6768">
        <ele>879</ele>
        <time>2023-04-10T08:19:17Z</time>
      </trkpt>
      <trkpt lat="45.43179" lon="5.67686">
        <ele>879</ele>
        <time>2023-04-10T08:19:18Z</time>
      </trkpt>
      <trkpt lat="45.43181" lon="5.67692">
        <ele>879</ele>
        <time>2023-04-10T08:19:19Z</time>
      </trkpt>
      <trkpt lat="45.43182" lon="5.67699">
        <ele>878</ele>
        <time>2023-04-10T08:19:20Z</time>
      </trkpt>
      <trkpt lat="45.43184" lon="5.67705">
        <ele>878</ele>
        <time>2023-04-10T08:19:21Z</time>
      </trkpt>
      <trkpt lat="45.43185" lon="5.67712">
        <ele>878</ele>
        <time>2023-04-10T08:19:22Z</time>
      </trkpt>
      <trkpt lat="45.43185" lon="5.6772">
        <ele>878</ele>
        <time>2023-04-10T08:19:23Z</time>
      </trkpt>
      <trkpt lat="45.43186" lon="5.67727">
        <ele>878</ele>
        <time>2023-04-10T08:19:24Z</time>
      </trkpt>
      <trkpt lat="45.43188" lon="5.67734">
        <ele>878</ele>
        <time>2023-04-10T08:19:25Z</time>
      </trkpt>
      <trkpt lat="45.43189" lon="5.67741">
        <ele>878</ele>
        <time>2023-04-10T08:19:26Z</time>
      </trkpt>
      <trkpt lat="45.43191" lon="5.67747">
        <ele>878</ele>
        <time>2023-04-10T08:19:27Z</time>
      </trkpt>
      <trkpt lat="45.43195" lon="5.67752">
        <ele>878</ele>
        <time>2023-04-10T08:19:28Z</time>
      </trkpt>
      <trkpt lat="45.43199" lon="5.67756">
        <ele>878</ele>
        <time>2023-04-10T08:19:29Z</time>
      </trkpt>
      <trkpt lat="45.43204" lon="5.6776">
        <ele>878</ele>
        <time>2023-04-10T08:19:30Z</time>
      </trkpt>
      <trkpt lat="45.43208" lon="5.67763">
        <ele>878</ele>
        <time>2023-04-10T08:19:31Z</time>
      </trkpt>
      <trkpt lat="45.43212" lon="5.67767">
        <ele>878</ele>
        <time>2023-04-10T08:19:32Z</time>
      </trkpt>
      <trkpt lat="45.43227" lon="5.67774">
        <ele>877</ele>
        <time>2023-04-10T08:19:34Z</time>
      </trkpt>
      <trkpt lat="45.43241" lon="5.67781">
        <ele>876</ele>
        <time>2023-04-10T08:19:36Z</time>
      </trkpt>
      <trkpt lat="45.43248" lon="5.67785">
        <ele>876</ele>
        <time>2023-04-10T08:19:37Z</time>
      </trkpt>
      <trkpt lat="45.43254" lon="5.67789">
        <ele>876</ele>
        <time>2023-04-10T08:19:38Z</time>
      </trkpt>
      <trkpt lat="45.4326" lon="5.67793">
        <ele>875</ele>
        <time>2023-04-10T08:19:39Z</time>
      </trkpt>
      <trkpt lat="45.43265" lon="5.67796">
        <ele>875</ele>
        <time>2023-04-10T08:19:40Z</time>
      </trkpt>
      <trkpt lat="45.43271" lon="5.67799">
        <ele>875</ele>
        <time>2023-04-10T08:19:41Z</time>
      </trkpt>
      <trkpt lat="45.43276" lon="5.67802">
        <ele>875</ele>
        <time>2023-04-10T08:19:42Z</time>
      </trkpt>
      <trkpt lat="45.43281" lon="5.67804">
        <ele>875</ele>
        <time>2023-04-10T08:19:43Z</time>
      </trkpt>
      <trkpt lat="45.43286" lon="5.67807">
        <ele>875</ele>
        <time>2023-04-10T08:19:44Z</time>
      </trkpt>
      <trkpt lat="45.43291" lon="5.67809">
        <ele>876</ele>
        <time>2023-04-10T08:19:45Z</time>
      </trkpt>
      <trkpt lat="45.43296" lon="5.67809">
        <ele>876</ele>
        <time>2023-04-10T08:19:46Z</time>
      </trkpt>
      <trkpt lat="45.433" lon="5.6781">
        <ele>876</ele>
        <time>2023-04-10T08:19:47Z</time>
      </trkpt>
      <trkpt lat="45.43304" lon="5.67809">
        <ele>877</ele>
        <time>2023-04-10T08:19:48Z</time>
      </trkpt>
      <trkpt lat="45.43307" lon="5.67807">
        <ele>877</ele>
        <time>2023-04-10T08:19:49Z</time>
      </trkpt>
      <trkpt lat="45.43309" lon="5.67803">
        <ele>877</ele>
        <time>2023-04-10T08:19:50Z</time>
      </trkpt>
      <trkpt lat="45.43311" lon="5.67798">
        <ele>876</ele>
        <time>2023-04-10T08:19:51Z</time>
      </trkpt>
      <trkpt lat="45.43314" lon="5.67792">
        <ele>876</ele>
        <time>2023-04-10T08:19:52Z</time>
      </trkpt>
      <trkpt lat="45.43318" lon="5.67788">
        <ele>876</ele>
        <time>2023-04-10T08:19:53Z</time>
      </trkpt>
      <trkpt lat="45.43323" lon="5.67785">
        <ele>876</ele>
        <time>2023-04-10T08:19:54Z</time>
      </trkpt>
      <trkpt lat="45.43328" lon="5.67783">
        <ele>875</ele>
        <time>2023-04-10T08:19:55Z</time>
      </trkpt>
      <trkpt lat="45.43332" lon="5.67781">
        <ele>875</ele>
        <time>2023-04-10T08:19:56Z</time>
      </trkpt>
      <trkpt lat="45.43337" lon="5.67779">
        <ele>875</ele>
        <time>2023-04-10T08:19:57Z</time>
      </trkpt>
      <trkpt lat="45.43339" lon="5.67779">
        <ele>875</ele>
        <time>2023-04-10T08:19:58Z</time>
      </trkpt>
      <trkpt lat="45.43341" lon="5.67779">
        <ele>875</ele>
        <time>2023-04-10T08:19:59Z</time>
      </trkpt>
      <trkpt lat="45.43344" lon="5.6778">
        <ele>875</ele>
        <time>2023-04-10T08:20:00Z</time>
      </trkpt>
      <trkpt lat="45.43347" lon="5.6778">
        <ele>875</ele>
        <time>2023-04-10T08:20:01Z</time>
      </trkpt>
      <trkpt lat="45.4335" lon="5.67779">
        <ele>875</ele>
        <time>2023-04-10T08:20:02Z</time>
      </trkpt>
      <trkpt lat="45.43353" lon="5.67779">
        <ele>875</ele>
        <time>2023-04-10T08:20:03Z</time>
      </trkpt>
      <trkpt lat="45.43356" lon="5.67779">
        <ele>875</ele>
        <time>2023-04-10T08:20:04Z</time>
      </trkpt>
      <trkpt lat="45.43361" lon="5.67779">
        <ele>875</ele>
        <time>2023-04-10T08:20:05Z</time>
      </trkpt>
      <trkpt lat="45.43366" lon="5.67781">
        <ele>875</ele>
        <time>2023-04-10T08:20:06Z</time>
      </trkpt>
      <trkpt lat="45.43375" lon="5.67782">
        <ele>874</ele>
        <time>2023-04-10T08:20:08Z</time>
      </trkpt>
      <trkpt lat="45.43387" lon="5.67784">
        <ele>874</ele>
        <time>2023-04-10T08:20:10Z</time>
      </trkpt>
      <trkpt lat="45.434" lon="5.67786">
        <ele>873</ele>
        <time>2023-04-10T08:20:12Z</time>
      </trkpt>
      <trkpt lat="45.43414" lon="5.67792">
        <ele>871</ele>
        <time>2023-04-10T08:20:14Z</time>
      </trkpt>
      <trkpt lat="45.43422" lon="5.678">
        <ele>871</ele>
        <time>2023-04-10T08:20:15Z</time>
      </trkpt>
      <trkpt lat="45.4343" lon="5.67806">
        <ele>870</ele>
        <time>2023-04-10T08:20:16Z</time>
      </trkpt>
      <trkpt lat="45.43439" lon="5.67812">
        <ele>870</ele>
        <time>2023-04-10T08:20:17Z</time>
      </trkpt>
      <trkpt lat="45.4345" lon="5.67817">
        <ele>870</ele>
        <time>2023-04-10T08:20:18Z</time>
      </trkpt>
      <trkpt lat="45.43462" lon="5.67824">
        <ele>870</ele>
        <time>2023-04-10T08:20:19Z</time>
      </trkpt>
      <trkpt lat="45.43475" lon="5.67832">
        <ele>870</ele>
        <time>2023-04-10T08:20:20Z</time>
      </trkpt>
      <trkpt lat="45.43484" lon="5.67839">
        <ele>868</ele>
        <time>2023-04-10T08:20:21Z</time>
      </trkpt>
      <trkpt lat="45.43493" lon="5.67845">
        <ele>866</ele>
        <time>2023-04-10T08:20:22Z</time>
      </trkpt>
      <trkpt lat="45.4351" lon="5.67856">
        <ele>864</ele>
        <time>2023-04-10T08:20:24Z</time>
      </trkpt>
      <trkpt lat="45.43519" lon="5.67864">
        <ele>863</ele>
        <time>2023-04-10T08:20:25Z</time>
      </trkpt>
      <trkpt lat="45.43527" lon="5.67872">
        <ele>862</ele>
        <time>2023-04-10T08:20:26Z</time>
      </trkpt>
      <trkpt lat="45.4354" lon="5.67877">
        <ele>860</ele>
        <time>2023-04-10T08:20:28Z</time>
      </trkpt>
      <trkpt lat="45.43555" lon="5.67869">
        <ele>858</ele>
        <time>2023-04-10T08:20:30Z</time>
      </trkpt>
      <trkpt lat="45.43563" lon="5.67857">
        <ele>857</ele>
        <time>2023-04-10T08:20:32Z</time>
      </trkpt>
      <trkpt lat="45.43573" lon="5.67851">
        <ele>857</ele>
        <time>2023-04-10T08:20:35Z</time>
      </trkpt>
      <trkpt lat="45.43582" lon="5.67851">
        <ele>858</ele>
        <time>2023-04-10T08:20:38Z</time>
      </trkpt>
      <trkpt lat="45.43585" lon="5.67852">
        <ele>858</ele>
        <time>2023-04-10T08:20:39Z</time>
      </trkpt>
      <trkpt lat="45.43588" lon="5.67855">
        <ele>858</ele>
        <time>2023-04-10T08:20:40Z</time>
      </trkpt>
      <trkpt lat="45.43591" lon="5.67858">
        <ele>858</ele>
        <time>2023-04-10T08:20:41Z</time>
      </trkpt>
      <trkpt lat="45.43602" lon="5.67867">
        <ele>859</ele>
        <time>2023-04-10T08:20:45Z</time>
      </trkpt>
      <trkpt lat="45.43612" lon="5.67874">
        <ele>859</ele>
        <time>2023-04-10T08:20:49Z</time>
      </trkpt>
      <trkpt lat="45.43619" lon="5.67882">
        <ele>860</ele>
        <time>2023-04-10T08:20:52Z</time>
      </trkpt>
      <trkpt lat="45.43628" lon="5.67891">
        <ele>861</ele>
        <time>2023-04-10T08:20:55Z</time>
      </trkpt>
      <trkpt lat="45.43639" lon="5.67902">
        <ele>862</ele>
        <time>2023-04-10T08:20:58Z</time>
      </trkpt>
      <trkpt lat="45.43647" lon="5.67908">
        <ele>862</ele>
        <time>2023-04-10T08:21:00Z</time>
      </trkpt>
      <trkpt lat="45.43658" lon="5.67914">
        <ele>862</ele>
        <time>2023-04-10T08:21:03Z</time>
      </trkpt>
      <trkpt lat="45.43672" lon="5.67919">
        <ele>862</ele>
        <time>2023-04-10T08:21:06Z</time>
      </trkpt>
      <trkpt lat="45.43683" lon="5.67923">
        <ele>863</ele>
        <time>2023-04-10T08:21:08Z</time>
      </trkpt>
      <trkpt lat="45.43687" lon="5.67925">
        <ele>863</ele>
        <time>2023-04-10T08:21:09Z</time>
      </trkpt>
      <trkpt lat="45.43692" lon="5.67927">
        <ele>863</ele>
        <time>2023-04-10T08:21:10Z</time>
      </trkpt>
      <trkpt lat="45.43696" lon="5.67929">
        <ele>863</ele>
        <time>2023-04-10T08:21:11Z</time>
      </trkpt>
      <trkpt lat="45.43699" lon="5.67931">
        <ele>863</ele>
        <time>2023-04-10T08:21:12Z</time>
      </trkpt>
      <trkpt lat="45.43702" lon="5.67934">
        <ele>863</ele>
        <time>2023-04-10T08:21:13Z</time>
      </trkpt>
      <trkpt lat="45.43705" lon="5.67937">
        <ele>863</ele>
        <time>2023-04-10T08:21:14Z</time>
      </trkpt>
      <trkpt lat="45.43706" lon="5.6794">
        <ele>863</ele>
        <time>2023-04-10T08:21:15Z</time>
      </trkpt>
      <trkpt lat="45.43713" lon="5.67952">
        <ele>864</ele>
        <time>2023-04-10T08:21:19Z</time>
      </trkpt>
      <trkpt lat="45.4372" lon="5.67966">
        <ele>865</ele>
        <time>2023-04-10T08:21:23Z</time>
      </trkpt>
      <trkpt lat="45.43723" lon="5.6797">
        <ele>865</ele>
        <time>2023-04-10T08:21:24Z</time>
      </trkpt>
      <trkpt lat="45.43726" lon="5.67974">
        <ele>865</ele>
        <time>2023-04-10T08:21:25Z</time>
      </trkpt>
      <trkpt lat="45.43729" lon="5.67977">
        <ele>865</ele>
        <time>2023-04-10T08:21:26Z</time>
      </trkpt>
      <trkpt lat="45.43738" lon="5.67984">
        <ele>865</ele>
        <time>2023-04-10T08:21:29Z</time>
      </trkpt>
      <trkpt lat="45.43748" lon="5.6799">
        <ele>866</ele>
        <time>2023-04-10T08:21:32Z</time>
      </trkpt>
      <trkpt lat="45.43759" lon="5.67996">
        <ele>867</ele>
        <time>2023-04-10T08:21:35Z</time>
      </trkpt>
      <trkpt lat="45.43767" lon="5.68004">
        <ele>867</ele>
        <time>2023-04-10T08:21:38Z</time>
      </trkpt>
      <trkpt lat="45.43776" lon="5.68007">
        <ele>866</ele>
        <time>2023-04-10T08:21:40Z</time>
      </trkpt>
      <trkpt lat="45.43785" lon="5.68013">
        <ele>865</ele>
        <time>2023-04-10T08:21:42Z</time>
      </trkpt>
      <trkpt lat="45.43794" lon="5.68021">
        <ele>865</ele>
        <time>2023-04-10T08:21:44Z</time>
      </trkpt>
      <trkpt lat="45.43803" lon="5.68031">
        <ele>865</ele>
        <time>2023-04-10T08:21:46Z</time>
      </trkpt>
      <trkpt lat="45.43816" lon="5.68045">
        <ele>865</ele>
        <time>2023-04-10T08:21:48Z</time>
      </trkpt>
      <trkpt lat="45.43827" lon="5.68054">
        <ele>865</ele>
        <time>2023-04-10T08:21:50Z</time>
      </trkpt>
      <trkpt lat="45.43835" lon="5.6806">
        <ele>864</ele>
        <time>2023-04-10T08:21:52Z</time>
      </trkpt>
      <trkpt lat="45.43843" lon="5.68071">
        <ele>864</ele>
        <time>2023-04-10T08:21:54Z</time>
      </trkpt>
      <trkpt lat="45.4385" lon="5.68082">
        <ele>864</ele>
        <time>2023-04-10T08:21:56Z</time>
      </trkpt>
      <trkpt lat="45.43858" lon="5.68092">
        <ele>864</ele>
        <time>2023-04-10T08:21:58Z</time>
      </trkpt>
      <trkpt lat="45.43864" lon="5.68103">
        <ele>865</ele>
        <time>2023-04-10T08:22:00Z</time>
      </trkpt>
      <trkpt lat="45.43871" lon="5.68117">
        <ele>865</ele>
        <time>2023-04-10T08:22:02Z</time>
      </trkpt>
      <trkpt lat="45.43875" lon="5.68132">
        <ele>866</ele>
        <time>2023-04-10T08:22:04Z</time>
      </trkpt>
      <trkpt lat="45.4388" lon="5.68145">
        <ele>866</ele>
        <time>2023-04-10T08:22:07Z</time>
      </trkpt>
      <trkpt lat="45.43883" lon="5.68144">
        <ele>865</ele>
        <time>2023-04-10T08:22:10Z</time>
      </trkpt>
      <trkpt lat="45.43885" lon="5.6814">
        <ele>865</ele>
        <time>2023-04-10T08:22:13Z</time>
      </trkpt>
      <trkpt lat="45.43887" lon="5.68137">
        <ele>866</ele>
        <time>2023-04-10T08:22:14Z</time>
      </trkpt>
      <trkpt lat="45.43889" lon="5.68135">
        <ele>866</ele>
        <time>2023-04-10T08:22:15Z</time>
      </trkpt>
      <trkpt lat="45.4389" lon="5.68131">
        <ele>866</ele>
        <time>2023-04-10T08:22:16Z</time>
      </trkpt>
      <trkpt lat="45.43892" lon="5.68126">
        <ele>866</ele>
        <time>2023-04-10T08:22:17Z</time>
      </trkpt>
      <trkpt lat="45.43894" lon="5.68122">
        <ele>866</ele>
        <time>2023-04-10T08:22:18Z</time>
      </trkpt>
      <trkpt lat="45.43897" lon="5.68118">
        <ele>866</ele>
        <time>2023-04-10T08:22:19Z</time>
      </trkpt>
      <trkpt lat="45.439" lon="5.68115">
        <ele>865</ele>
        <time>2023-04-10T08:22:20Z</time>
      </trkpt>
      <trkpt lat="45.43903" lon="5.68112">
        <ele>865</ele>
        <time>2023-04-10T08:22:21Z</time>
      </trkpt>
      <trkpt lat="45.43905" lon="5.6811">
        <ele>864</ele>
        <time>2023-04-10T08:22:22Z</time>
      </trkpt>
      <trkpt lat="45.43907" lon="5.68108">
        <ele>864</ele>
        <time>2023-04-10T08:22:23Z</time>
      </trkpt>
      <trkpt lat="45.4391" lon="5.68107">
        <ele>864</ele>
        <time>2023-04-10T08:22:24Z</time>
      </trkpt>
      <trkpt lat="45.43914" lon="5.68107">
        <ele>864</ele>
        <time>2023-04-10T08:22:25Z</time>
      </trkpt>
      <trkpt lat="45.43917" lon="5.68107">
        <ele>863</ele>
        <time>2023-04-10T08:22:26Z</time>
      </trkpt>
      <trkpt lat="45.43923" lon="5.68107">
        <ele>863</ele>
        <time>2023-04-10T08:22:27Z</time>
      </trkpt>
      <trkpt lat="45.43937" lon="5.68115">
        <ele>863</ele>
        <time>2023-04-10T08:22:29Z</time>
      </trkpt>
      <trkpt lat="45.43943" lon="5.68119">
        <ele>863</ele>
        <time>2023-04-10T08:22:30Z</time>
      </trkpt>
      <trkpt lat="45.43956" lon="5.68126">
        <ele>863</ele>
        <time>2023-04-10T08:22:32Z</time>
      </trkpt>
      <trkpt lat="45.43963" lon="5.68127">
        <ele>862</ele>
        <time>2023-04-10T08:22:33Z</time>
      </trkpt>
      <trkpt lat="45.43971" lon="5.68129">
        <ele>862</ele>
        <time>2023-04-10T08:22:34Z</time>
      </trkpt>
      <trkpt lat="45.43978" lon="5.68133">
        <ele>862</ele>
        <time>2023-04-10T08:22:35Z</time>
      </trkpt>
      <trkpt lat="45.43984" lon="5.68139">
        <ele>861</ele>
        <time>2023-04-10T08:22:36Z</time>
      </trkpt>
      <trkpt lat="45.4399" lon="5.68144">
        <ele>861</ele>
        <time>2023-04-10T08:22:37Z</time>
      </trkpt>
      <trkpt lat="45.43995" lon="5.68149">
        <ele>860</ele>
        <time>2023-04-10T08:22:38Z</time>
      </trkpt>
      <trkpt lat="45.44" lon="5.68153">
        <ele>860</ele>
        <time>2023-04-10T08:22:39Z</time>
      </trkpt>
      <trkpt lat="45.44004" lon="5.68156">
        <ele>860</ele>
        <time>2023-04-10T08:22:40Z</time>
      </trkpt>
      <trkpt lat="45.4401" lon="5.6816">
        <ele>860</ele>
        <time>2023-04-10T08:22:41Z</time>
      </trkpt>
      <trkpt lat="45.44015" lon="5.68163">
        <ele>860</ele>
        <time>2023-04-10T08:22:42Z</time>
      </trkpt>
      <trkpt lat="45.4402" lon="5.68165">
        <ele>860</ele>
        <time>2023-04-10T08:22:43Z</time>
      </trkpt>
      <trkpt lat="45.44025" lon="5.68167">
        <ele>860</ele>
        <time>2023-04-10T08:22:44Z</time>
      </trkpt>
      <trkpt lat="45.44031" lon="5.68168">
        <ele>860</ele>
        <time>2023-04-10T08:22:45Z</time>
      </trkpt>
      <trkpt lat="45.44037" lon="5.68169">
        <ele>860</ele>
        <time>2023-04-10T08:22:46Z</time>
      </trkpt>
      <trkpt lat="45.44044" lon="5.68172">
        <ele>860</ele>
        <time>2023-04-10T08:22:47Z</time>
      </trkpt>
      <trkpt lat="45.4405" lon="5.68176">
        <ele>860</ele>
        <time>2023-04-10T08:22:48Z</time>
      </trkpt>
      <trkpt lat="45.44055" lon="5.68179">
        <ele>859</ele>
        <time>2023-04-10T08:22:49Z</time>
      </trkpt>
      <trkpt lat="45.44061" lon="5.6818">
        <ele>858</ele>
        <time>2023-04-10T08:22:50Z</time>
      </trkpt>
      <trkpt lat="45.44067" lon="5.68181">
        <ele>858</ele>
        <time>2023-04-10T08:22:51Z</time>
      </trkpt>
      <trkpt lat="45.44073" lon="5.68183">
        <ele>858</ele>
        <time>2023-04-10T08:22:52Z</time>
      </trkpt>
      <trkpt lat="45.44078" lon="5.68186">
        <ele>858</ele>
        <time>2023-04-10T08:22:53Z</time>
      </trkpt>
      <trkpt lat="45.44082" lon="5.6819">
        <ele>858</ele>
        <time>2023-04-10T08:22:54Z</time>
      </trkpt>
      <trkpt lat="45.44085" lon="5.68195">
        <ele>859</ele>
        <time>2023-04-10T08:22:55Z</time>
      </trkpt>
      <trkpt lat="45.44089" lon="5.682">
        <ele>859</ele>
        <time>2023-04-10T08:22:56Z</time>
      </trkpt>
      <trkpt lat="45.44093" lon="5.68206">
        <ele>859</ele>
        <time>2023-04-10T08:22:57Z</time>
      </trkpt>
      <trkpt lat="45.44099" lon="5.68212">
        <ele>859</ele>
        <time>2023-04-10T08:22:58Z</time>
      </trkpt>
      <trkpt lat="45.44105" lon="5.68217">
        <ele>859</ele>
        <time>2023-04-10T08:22:59Z</time>
      </trkpt>
      <trkpt lat="45.44112" lon="5.6822">
        <ele>858</ele>
        <time>2023-04-10T08:23:00Z</time>
      </trkpt>
      <trkpt lat="45.4412" lon="5.68222">
        <ele>858</ele>
        <time>2023-04-10T08:23:01Z</time>
      </trkpt>
      <trkpt lat="45.44128" lon="5.68224">
        <ele>857</ele>
        <time>2023-04-10T08:23:02Z</time>
      </trkpt>
      <trkpt lat="45.44136" lon="5.68226">
        <ele>856</ele>
        <time>2023-04-10T08:23:03Z</time>
      </trkpt>
      <trkpt lat="45.44144" lon="5.68228">
        <ele>855</ele>
        <time>2023-04-10T08:23:04Z</time>
      </trkpt>
      <trkpt lat="45.44152" lon="5.6823">
        <ele>856</ele>
        <time>2023-04-10T08:23:05Z</time>
      </trkpt>
      <trkpt lat="45.44159" lon="5.68235">
        <ele>855</ele>
        <time>2023-04-10T08:23:06Z</time>
      </trkpt>
      <trkpt lat="45.44165" lon="5.68241">
        <ele>854</ele>
        <time>2023-04-10T08:23:07Z</time>
      </trkpt>
      <trkpt lat="45.4417" lon="5.68246">
        <ele>853</ele>
        <time>2023-04-10T08:23:08Z</time>
      </trkpt>
      <trkpt lat="45.44175" lon="5.68251">
        <ele>853</ele>
        <time>2023-04-10T08:23:09Z</time>
      </trkpt>
      <trkpt lat="45.4418" lon="5.68255">
        <ele>853</ele>
        <time>2023-04-10T08:23:10Z</time>
      </trkpt>
      <trkpt lat="45.44184" lon="5.68256">
        <ele>853</ele>
        <time>2023-04-10T08:23:11Z</time>
      </trkpt>
      <trkpt lat="45.44189" lon="5.68254">
        <ele>853</ele>
        <time>2023-04-10T08:23:12Z</time>
      </trkpt>
      <trkpt lat="45.44195" lon="5.6825">
        <ele>853</ele>
        <time>2023-04-10T08:23:13Z</time>
      </trkpt>
      <trkpt lat="45.442" lon="5.68243">
        <ele>852</ele>
        <time>2023-04-10T08:23:14Z</time>
      </trkpt>
      <trkpt lat="45.44206" lon="5.68236">
        <ele>852</ele>
        <time>2023-04-10T08:23:15Z</time>
      </trkpt>
      <trkpt lat="45.44213" lon="5.68231">
        <ele>851</ele>
        <time>2023-04-10T08:23:16Z</time>
      </trkpt>
      <trkpt lat="45.44221" lon="5.68227">
        <ele>850</ele>
        <time>2023-04-10T08:23:17Z</time>
      </trkpt>
      <trkpt lat="45.44229" lon="5.68224">
        <ele>849</ele>
        <time>2023-04-10T08:23:18Z</time>
      </trkpt>
      <trkpt lat="45.44236" lon="5.6822">
        <ele>849</ele>
        <time>2023-04-10T08:23:19Z</time>
      </trkpt>
      <trkpt lat="45.44243" lon="5.68216">
        <ele>848</ele>
        <time>2023-04-10T08:23:20Z</time>
      </trkpt>
      <trkpt lat="45.4425" lon="5.68211">
        <ele>848</ele>
        <time>2023-04-10T08:23:21Z</time>
      </trkpt>
      <trkpt lat="45.44257" lon="5.68208">
        <ele>848</ele>
        <time>2023-04-10T08:23:22Z</time>
      </trkpt>
      <trkpt lat="45.44264" lon="5.68206">
        <ele>847</ele>
        <time>2023-04-10T08:23:23Z</time>
      </trkpt>
      <trkpt lat="45.44273" lon="5.68204">
        <ele>845</ele>
        <time>2023-04-10T08:23:24Z</time>
      </trkpt>
      <trkpt lat="45.44281" lon="5.68201">
        <ele>845</ele>
        <time>2023-04-10T08:23:25Z</time>
      </trkpt>
      <trkpt lat="45.44289" lon="5.68198">
        <ele>844</ele>
        <time>2023-04-10T08:23:26Z</time>
      </trkpt>
      <trkpt lat="45.44298" lon="5.68194">
        <ele>842</ele>
        <time>2023-04-10T08:23:27Z</time>
      </trkpt>
      <trkpt lat="45.44304" lon="5.68192">
        <ele>840</ele>
        <time>2023-04-10T08:23:28Z</time>
      </trkpt>
      <trkpt lat="45.4431" lon="5.6819">
        <ele>839</ele>
        <time>2023-04-10T08:23:29Z</time>
      </trkpt>
      <trkpt lat="45.44316" lon="5.68186">
        <ele>838</ele>
        <time>2023-04-10T08:23:30Z</time>
      </trkpt>
      <trkpt lat="45.44321" lon="5.68182">
        <ele>837</ele>
        <time>2023-04-10T08:23:31Z</time>
      </trkpt>
      <trkpt lat="45.44328" lon="5.68178">
        <ele>836</ele>
        <time>2023-04-10T08:23:32Z</time>
      </trkpt>
      <trkpt lat="45.44331" lon="5.68178">
        <ele>834</ele>
        <time>2023-04-10T08:23:34Z</time>
      </trkpt>
      <trkpt lat="45.44334" lon="5.68177">
        <ele>833</ele>
        <time>2023-04-10T08:23:35Z</time>
      </trkpt>
      <trkpt lat="45.44336" lon="5.68175">
        <ele>832</ele>
        <time>2023-04-10T08:23:36Z</time>
      </trkpt>
      <trkpt lat="45.44339" lon="5.68172">
        <ele>831</ele>
        <time>2023-04-10T08:23:37Z</time>
      </trkpt>
      <trkpt lat="45.44341" lon="5.68167">
        <ele>830</ele>
        <time>2023-04-10T08:23:38Z</time>
      </trkpt>
      <trkpt lat="45.44345" lon="5.68162">
        <ele>829</ele>
        <time>2023-04-10T08:23:39Z</time>
      </trkpt>
      <trkpt lat="45.44347" lon="5.68157">
        <ele>828</ele>
        <time>2023-04-10T08:23:40Z</time>
      </trkpt>
      <trkpt lat="45.44351" lon="5.68151">
        <ele>826</ele>
        <time>2023-04-10T08:23:42Z</time>
      </trkpt>
      <trkpt lat="45.44352" lon="5.68147">
        <ele>825</ele>
        <time>2023-04-10T08:23:43Z</time>
      </trkpt>
      <trkpt lat="45.44352" lon="5.68144">
        <ele>824</ele>
        <time>2023-04-10T08:23:44Z</time>
      </trkpt>
      <trkpt lat="45.44353" lon="5.6814">
        <ele>823</ele>
        <time>2023-04-10T08:23:45Z</time>
      </trkpt>
      <trkpt lat="45.44357" lon="5.68138">
        <ele>821</ele>
        <time>2023-04-10T08:23:47Z</time>
      </trkpt>
      <trkpt lat="45.44365" lon="5.68133">
        <ele>819</ele>
        <time>2023-04-10T08:23:49Z</time>
      </trkpt>
      <trkpt lat="45.44368" lon="5.6813">
        <ele>818</ele>
        <time>2023-04-10T08:23:50Z</time>
      </trkpt>
      <trkpt lat="45.44372" lon="5.68126">
        <ele>817</ele>
        <time>2023-04-10T08:23:51Z</time>
      </trkpt>
      <trkpt lat="45.4438" lon="5.68119">
        <ele>814</ele>
        <time>2023-04-10T08:23:53Z</time>
      </trkpt>
      <trkpt lat="45.4439" lon="5.68113">
        <ele>810</ele>
        <time>2023-04-10T08:23:56Z</time>
      </trkpt>
      <trkpt lat="45.44401" lon="5.68107">
        <ele>806</ele>
        <time>2023-04-10T08:23:59Z</time>
      </trkpt>
      <trkpt lat="45.44412" lon="5.68098">
        <ele>802</ele>
        <time>2023-04-10T08:24:02Z</time>
      </trkpt>
      <trkpt lat="45.4442" lon="5.6809">
        <ele>800</ele>
        <time>2023-04-10T08:24:04Z</time>
      </trkpt>
      <trkpt lat="45.44429" lon="5.68083">
        <ele>797</ele>
        <time>2023-04-10T08:24:06Z</time>
      </trkpt>
      <trkpt lat="45.44437" lon="5.68074">
        <ele>795</ele>
        <time>2023-04-10T08:24:08Z</time>
      </trkpt>
      <trkpt lat="45.44445" lon="5.68063">
        <ele>794</ele>
        <time>2023-04-10T08:24:10Z</time>
      </trkpt>
      <trkpt lat="45.44451" lon="5.68051">
        <ele>791</ele>
        <time>2023-04-10T08:24:14Z</time>
      </trkpt>
      <trkpt lat="45.44461" lon="5.68046">
        <ele>789</ele>
        <time>2023-04-10T08:24:17Z</time>
      </trkpt>
      <trkpt lat="45.44468" lon="5.68034">
        <ele>785</ele>
        <time>2023-04-10T08:24:21Z</time>
      </trkpt>
      <trkpt lat="45.44478" lon="5.68025">
        <ele>782</ele>
        <time>2023-04-10T08:24:25Z</time>
      </trkpt>
      <trkpt lat="45.44488" lon="5.6802">
        <ele>778</ele>
        <time>2023-04-10T08:24:28Z</time>
      </trkpt>
      <trkpt lat="45.44498" lon="5.68019">
        <ele>774</ele>
        <time>2023-04-10T08:24:31Z</time>
      </trkpt>
      <trkpt lat="45.44511" lon="5.68019">
        <ele>772</ele>
        <time>2023-04-10T08:24:34Z</time>
      </trkpt>
      <trkpt lat="45.44523" lon="5.68026">
        <ele>770</ele>
        <time>2023-04-10T08:24:37Z</time>
      </trkpt>
      <trkpt lat="45.44532" lon="5.68032">
        <ele>770</ele>
        <time>2023-04-10T08:24:39Z</time>
      </trkpt>
      <trkpt lat="45.44538" lon="5.68043">
        <ele>770</ele>
        <time>2023-04-10T08:24:41Z</time>
      </trkpt>
      <trkpt lat="45.44543" lon="5.68055">
        <ele>769</ele>
        <time>2023-04-10T08:24:43Z</time>
      </trkpt>
      <trkpt lat="45.44546" lon="5.68061">
        <ele>770</ele>
        <time>2023-04-10T08:24:45Z</time>
      </trkpt>
      <trkpt lat="45.44548" lon="5.68064">
        <ele>770</ele>
        <time>2023-04-10T08:24:46Z</time>
      </trkpt>
      <trkpt lat="45.4455" lon="5.68066">
        <ele>771</ele>
        <time>2023-04-10T08:24:47Z</time>
      </trkpt>
      <trkpt lat="45.44551" lon="5.68068">
        <ele>771</ele>
        <time>2023-04-10T08:24:48Z</time>
      </trkpt>
      <trkpt lat="45.44552" lon="5.68071">
        <ele>771</ele>
        <time>2023-04-10T08:24:49Z</time>
      </trkpt>
      <trkpt lat="45.44552" lon="5.68075">
        <ele>772</ele>
        <time>2023-04-10T08:24:51Z</time>
      </trkpt>
      <trkpt lat="45.44552" lon="5.68085">
        <ele>774</ele>
        <time>2023-04-10T08:24:56Z</time>
      </trkpt>
      <trkpt lat="45.44552" lon="5.68089">
        <ele>774</ele>
        <time>2023-04-10T08:24:58Z</time>
      </trkpt>
      <trkpt lat="45.44552" lon="5.68092">
        <ele>775</ele>
        <time>2023-04-10T08:25:00Z</time>
      </trkpt>
      <trkpt lat="45.44554" lon="5.68096">
        <ele>776</ele>
        <time>2023-04-10T08:25:02Z</time>
      </trkpt>
      <trkpt lat="45.44556" lon="5.68098">
        <ele>777</ele>
        <time>2023-04-10T08:25:04Z</time>
      </trkpt>
      <trkpt lat="45.44558" lon="5.68099">
        <ele>778</ele>
        <time>2023-04-10T08:25:06Z</time>
      </trkpt>
      <trkpt lat="45.44561" lon="5.681">
        <ele>778</ele>
        <time>2023-04-10T08:25:08Z</time>
      </trkpt>
      <trkpt lat="45.44563" lon="5.681">
        <ele>778</ele>
        <time>2023-04-10T08:25:09Z</time>
      </trkpt>
      <trkpt lat="45.44565" lon="5.68101">
        <ele>778</ele>
        <time>2023-04-10T08:25:10Z</time>
      </trkpt>
      <trkpt lat="45.44567" lon="5.68102">
        <ele>778</ele>
        <time>2023-04-10T08:25:11Z</time>
      </trkpt>
      <trkpt lat="45.44569" lon="5.68103">
        <ele>778</ele>
        <time>2023-04-10T08:25:12Z</time>
      </trkpt>
      <trkpt lat="45.4457" lon="5.68104">
        <ele>778</ele>
        <time>2023-04-10T08:25:13Z</time>
      </trkpt>
      <trkpt lat="45.44572" lon="5.68105">
        <ele>778</ele>
        <time>2023-04-10T08:25:14Z</time>
      </trkpt>
      <trkpt lat="45.44574" lon="5.68106">
        <ele>779</ele>
        <time>2023-04-10T08:25:15Z</time>
      </trkpt>
      <trkpt lat="45.44576" lon="5.68108">
        <ele>779</ele>
        <time>2023-04-10T08:25:16Z</time>
      </trkpt>
      <trkpt lat="45.44578" lon="5.68112">
        <ele>779</ele>
        <time>2023-04-10T08:25:17Z</time>
      </trkpt>
      <trkpt lat="45.4458" lon="5.68116">
        <ele>779</ele>
        <time>2023-04-10T08:25:18Z</time>
      </trkpt>
      <trkpt lat="45.44582" lon="5.68118">
        <ele>779</ele>
        <time>2023-04-10T08:25:19Z</time>
      </trkpt>
      <trkpt lat="45.44584" lon="5.68121">
        <ele>779</ele>
        <time>2023-04-10T08:25:20Z</time>
      </trkpt>
      <trkpt lat="45.44587" lon="5.68124">
        <ele>779</ele>
        <time>2023-04-10T08:25:21Z</time>
      </trkpt>
      <trkpt lat="45.44591" lon="5.68127">
        <ele>779</ele>
        <time>2023-04-10T08:25:22Z</time>
      </trkpt>
      <trkpt lat="45.44594" lon="5.68129">
        <ele>779</ele>
        <time>2023-04-10T08:25:23Z</time>
      </trkpt>
      <trkpt lat="45.44597" lon="5.68133">
        <ele>778</ele>
        <time>2023-04-10T08:25:24Z</time>
      </trkpt>
      <trkpt lat="45.44608" lon="5.68143">
        <ele>778</ele>
        <time>2023-04-10T08:25:26Z</time>
      </trkpt>
      <trkpt lat="45.44621" lon="5.68156">
        <ele>777</ele>
        <time>2023-04-10T08:25:28Z</time>
      </trkpt>
      <trkpt lat="45.44633" lon="5.68165">
        <ele>775</ele>
        <time>2023-04-10T08:25:30Z</time>
      </trkpt>
      <trkpt lat="45.44645" lon="5.68173">
        <ele>775</ele>
        <time>2023-04-10T08:25:32Z</time>
      </trkpt>
      <trkpt lat="45.44657" lon="5.68182">
        <ele>775</ele>
        <time>2023-04-10T08:25:34Z</time>
      </trkpt>
      <trkpt lat="45.44667" lon="5.6819">
        <ele>774</ele>
        <time>2023-04-10T08:25:36Z</time>
      </trkpt>
      <trkpt lat="45.4468" lon="5.68202">
        <ele>774</ele>
        <time>2023-04-10T08:25:38Z</time>
      </trkpt>
      <trkpt lat="45.44692" lon="5.68215">
        <ele>774</ele>
        <time>2023-04-10T08:25:40Z</time>
      </trkpt>
      <trkpt lat="45.44702" lon="5.68227">
        <ele>774</ele>
        <time>2023-04-10T08:25:42Z</time>
      </trkpt>
      <trkpt lat="45.44711" lon="5.68241">
        <ele>774</ele>
        <time>2023-04-10T08:25:44Z</time>
      </trkpt>
      <trkpt lat="45.4472" lon="5.68256">
        <ele>773</ele>
        <time>2023-04-10T08:25:46Z</time>
      </trkpt>
      <trkpt lat="45.44728" lon="5.68269">
        <ele>773</ele>
        <time>2023-04-10T08:25:48Z</time>
      </trkpt>
      <trkpt lat="45.44735" lon="5.68282">
        <ele>774</ele>
        <time>2023-04-10T08:25:50Z</time>
      </trkpt>
      <trkpt lat="45.44743" lon="5.68296">
        <ele>774</ele>
        <time>2023-04-10T08:25:53Z</time>
      </trkpt>
      <trkpt lat="45.44751" lon="5.68309">
        <ele>776</ele>
        <time>2023-04-10T08:25:56Z</time>
      </trkpt>
      <trkpt lat="45.44753" lon="5.68313">
        <ele>776</ele>
        <time>2023-04-10T08:25:57Z</time>
      </trkpt>
      <trkpt lat="45.44755" lon="5.68316">
        <ele>776</ele>
        <time>2023-04-10T08:25:58Z</time>
      </trkpt>
      <trkpt lat="45.44757" lon="5.68319">
        <ele>776</ele>
        <time>2023-04-10T08:25:59Z</time>
      </trkpt>
      <trkpt lat="45.44759" lon="5.68321">
        <ele>776</ele>
        <time>2023-04-10T08:26:00Z</time>
      </trkpt>
      <trkpt lat="45.44762" lon="5.68325">
        <ele>776</ele>
        <time>2023-04-10T08:26:01Z</time>
      </trkpt>
      <trkpt lat="45.44764" lon="5.68329">
        <ele>776</ele>
        <time>2023-04-10T08:26:02Z</time>
      </trkpt>
      <trkpt lat="45.44766" lon="5.68332">
        <ele>776</ele>
        <time>2023-04-10T08:26:03Z</time>
      </trkpt>
      <trkpt lat="45.4477" lon="5.68339">
        <ele>776</ele>
        <time>2023-04-10T08:26:04Z</time>
      </trkpt>
      <trkpt lat="45.44772" lon="5.68342">
        <ele>776</ele>
        <time>2023-04-10T08:26:06Z</time>
      </trkpt>
      <trkpt lat="45.44774" lon="5.68347">
        <ele>777</ele>
        <time>2023-04-10T08:26:07Z</time>
      </trkpt>
      <trkpt lat="45.44775" lon="5.68351">
        <ele>777</ele>
        <time>2023-04-10T08:26:08Z</time>
      </trkpt>
      <trkpt lat="45.44777" lon="5.68354">
        <ele>777</ele>
        <time>2023-04-10T08:26:09Z</time>
      </trkpt>
      <trkpt lat="45.44778" lon="5.68358">
        <ele>778</ele>
        <time>2023-04-10T08:26:10Z</time>
      </trkpt>
      <trkpt lat="45.44779" lon="5.68362">
        <ele>778</ele>
        <time>2023-04-10T08:26:11Z</time>
      </trkpt>
      <trkpt lat="45.4478" lon="5.68365">
        <ele>779</ele>
        <time>2023-04-10T08:26:12Z</time>
      </trkpt>
      <trkpt lat="45.44781" lon="5.68369">
        <ele>779</ele>
        <time>2023-04-10T08:26:13Z</time>
      </trkpt>
      <trkpt lat="45.44782" lon="5.68373">
        <ele>779</ele>
        <time>2023-04-10T08:26:14Z</time>
      </trkpt>
      <trkpt lat="45.44783" lon="5.68376">
        <ele>780</ele>
        <time>2023-04-10T08:26:15Z</time>
      </trkpt>
      <trkpt lat="45.44784" lon="5.6838">
        <ele>780</ele>
        <time>2023-04-10T08:26:16Z</time>
      </trkpt>
      <trkpt lat="45.44785" lon="5.68384">
        <ele>780</ele>
        <time>2023-04-10T08:26:17Z</time>
      </trkpt>
      <trkpt lat="45.44785" lon="5.68388">
        <ele>780</ele>
        <time>2023-04-10T08:26:18Z</time>
      </trkpt>
      <trkpt lat="45.44786" lon="5.68392">
        <ele>780</ele>
        <time>2023-04-10T08:26:19Z</time>
      </trkpt>
      <trkpt lat="45.44787" lon="5.68396">
        <ele>781</ele>
        <time>2023-04-10T08:26:20Z</time>
      </trkpt>
      <trkpt lat="45.44788" lon="5.684">
        <ele>781</ele>
        <time>2023-04-10T08:26:21Z</time>
      </trkpt>
      <trkpt lat="45.44789" lon="5.68403">
        <ele>781</ele>
        <time>2023-04-10T08:26:22Z</time>
      </trkpt>
      <trkpt lat="45.4479" lon="5.6841">
        <ele>781</ele>
        <time>2023-04-10T08:26:23Z</time>
      </trkpt>
      <trkpt lat="45.44791" lon="5.68415">
        <ele>782</ele>
        <time>2023-04-10T08:26:25Z</time>
      </trkpt>
      <trkpt lat="45.44791" lon="5.6842">
        <ele>782</ele>
        <time>2023-04-10T08:26:26Z</time>
      </trkpt>
      <trkpt lat="45.44791" lon="5.68425">
        <ele>782</ele>
        <time>2023-04-10T08:26:27Z</time>
      </trkpt>
      <trkpt lat="45.44791" lon="5.68429">
        <ele>782</ele>
        <time>2023-04-10T08:26:28Z</time>
      </trkpt>
      <trkpt lat="45.44791" lon="5.68433">
        <ele>782</ele>
        <time>2023-04-10T08:26:29Z</time>
      </trkpt>
      <trkpt lat="45.44793" lon="5.6844">
        <ele>782</ele>
        <time>2023-04-10T08:26:30Z</time>
      </trkpt>
      <trkpt lat="45.44796" lon="5.68447">
        <ele>782</ele>
        <time>2023-04-10T08:26:31Z</time>
      </trkpt>
      <trkpt lat="45.44799" lon="5.68454">
        <ele>782</ele>
        <time>2023-04-10T08:26:32Z</time>
      </trkpt>
      <trkpt lat="45.44803" lon="5.6846">
        <ele>782</ele>
        <time>2023-04-10T08:26:33Z</time>
      </trkpt>
      <trkpt lat="45.44806" lon="5.68466">
        <ele>782</ele>
        <time>2023-04-10T08:26:34Z</time>
      </trkpt>
      <trkpt lat="45.44809" lon="5.68471">
        <ele>782</ele>
        <time>2023-04-10T08:26:35Z</time>
      </trkpt>
      <trkpt lat="45.44812" lon="5.68476">
        <ele>782</ele>
        <time>2023-04-10T08:26:36Z</time>
      </trkpt>
      <trkpt lat="45.44816" lon="5.68481">
        <ele>782</ele>
        <time>2023-04-10T08:26:37Z</time>
      </trkpt>
      <trkpt lat="45.44819" lon="5.68487">
        <ele>782</ele>
        <time>2023-04-10T08:26:38Z</time>
      </trkpt>
      <trkpt lat="45.44823" lon="5.68494">
        <ele>782</ele>
        <time>2023-04-10T08:26:39Z</time>
      </trkpt>
      <trkpt lat="45.44826" lon="5.68501">
        <ele>782</ele>
        <time>2023-04-10T08:26:40Z</time>
      </trkpt>
      <trkpt lat="45.4483" lon="5.68508">
        <ele>782</ele>
        <time>2023-04-10T08:26:41Z</time>
      </trkpt>
      <trkpt lat="45.44833" lon="5.68515">
        <ele>782</ele>
        <time>2023-04-10T08:26:42Z</time>
      </trkpt>
      <trkpt lat="45.44836" lon="5.68522">
        <ele>782</ele>
        <time>2023-04-10T08:26:43Z</time>
      </trkpt>
      <trkpt lat="45.44839" lon="5.68528">
        <ele>782</ele>
        <time>2023-04-10T08:26:44Z</time>
      </trkpt>
      <trkpt lat="45.44843" lon="5.68534">
        <ele>782</ele>
        <time>2023-04-10T08:26:45Z</time>
      </trkpt>
      <trkpt lat="45.44847" lon="5.68541">
        <ele>782</ele>
        <time>2023-04-10T08:26:46Z</time>
      </trkpt>
      <trkpt lat="45.44851" lon="5.68548">
        <ele>782</ele>
        <time>2023-04-10T08:26:47Z</time>
      </trkpt>
      <trkpt lat="45.44853" lon="5.68555">
        <ele>781</ele>
        <time>2023-04-10T08:26:48Z</time>
      </trkpt>
      <trkpt lat="45.44855" lon="5.68562">
        <ele>781</ele>
        <time>2023-04-10T08:26:49Z</time>
      </trkpt>
      <trkpt lat="45.44859" lon="5.68579">
        <ele>782</ele>
        <time>2023-04-10T08:26:52Z</time>
      </trkpt>
      <trkpt lat="45.44859" lon="5.68585">
        <ele>782</ele>
        <time>2023-04-10T08:26:53Z</time>
      </trkpt>
      <trkpt lat="45.4486" lon="5.6859">
        <ele>782</ele>
        <time>2023-04-10T08:26:54Z</time>
      </trkpt>
      <trkpt lat="45.4486" lon="5.68596">
        <ele>782</ele>
        <time>2023-04-10T08:26:55Z</time>
      </trkpt>
      <trkpt lat="45.44861" lon="5.68602">
        <ele>782</ele>
        <time>2023-04-10T08:26:56Z</time>
      </trkpt>
      <trkpt lat="45.44862" lon="5.68608">
        <ele>782</ele>
        <time>2023-04-10T08:26:57Z</time>
      </trkpt>
      <trkpt lat="45.44862" lon="5.68615">
        <ele>782</ele>
        <time>2023-04-10T08:26:58Z</time>
      </trkpt>
      <trkpt lat="45.44862" lon="5.68621">
        <ele>782</ele>
        <time>2023-04-10T08:26:59Z</time>
      </trkpt>
      <trkpt lat="45.44862" lon="5.68627">
        <ele>782</ele>
        <time>2023-04-10T08:27:00Z</time>
      </trkpt>
      <trkpt lat="45.44861" lon="5.68639">
        <ele>782</ele>
        <time>2023-04-10T08:27:01Z</time>
      </trkpt>
      <trkpt lat="45.44861" lon="5.68645">
        <ele>782</ele>
        <time>2023-04-10T08:27:03Z</time>
      </trkpt>
      <trkpt lat="45.44861" lon="5.68651">
        <ele>782</ele>
        <time>2023-04-10T08:27:04Z</time>
      </trkpt>
      <trkpt lat="45.44861" lon="5.68657">
        <ele>782</ele>
        <time>2023-04-10T08:27:05Z</time>
      </trkpt>
      <trkpt lat="45.44861" lon="5.68663">
        <ele>782</ele>
        <time>2023-04-10T08:27:06Z</time>
      </trkpt>
      <trkpt lat="45.44861" lon="5.68668">
        <ele>782</ele>
        <time>2023-04-10T08:27:07Z</time>
      </trkpt>
      <trkpt lat="45.44862" lon="5.68674">
        <ele>782</ele>
        <time>2023-04-10T08:27:08Z</time>
      </trkpt>
      <trkpt lat="45.44862" lon="5.68679">
        <ele>783</ele>
        <time>2023-04-10T08:27:09Z</time>
      </trkpt>
      <trkpt lat="45.44862" lon="5.68683">
        <ele>783</ele>
        <time>2023-04-10T08:27:10Z</time>
      </trkpt>
      <trkpt lat="45.44863" lon="5.68686">
        <ele>783</ele>
        <time>2023-04-10T08:27:11Z</time>
      </trkpt>
      <trkpt lat="45.44864" lon="5.6869">
        <ele>783</ele>
        <time>2023-04-10T08:27:12Z</time>
      </trkpt>
      <trkpt lat="45.44864" lon="5.68694">
        <ele>783</ele>
        <time>2023-04-10T08:27:13Z</time>
      </trkpt>
      <trkpt lat="45.44864" lon="5.68698">
        <ele>784</ele>
        <time>2023-04-10T08:27:14Z</time>
      </trkpt>
      <trkpt lat="45.44864" lon="5.68703">
        <ele>784</ele>
        <time>2023-04-10T08:27:15Z</time>
      </trkpt>
      <trkpt lat="45.44863" lon="5.68707">
        <ele>784</ele>
        <time>2023-04-10T08:27:16Z</time>
      </trkpt>
      <trkpt lat="45.44863" lon="5.68712">
        <ele>784</ele>
        <time>2023-04-10T08:27:17Z</time>
      </trkpt>
      <trkpt lat="45.44863" lon="5.68716">
        <ele>785</ele>
        <time>2023-04-10T08:27:18Z</time>
      </trkpt>
      <trkpt lat="45.44862" lon="5.6872">
        <ele>785</ele>
        <time>2023-04-10T08:27:19Z</time>
      </trkpt>
      <trkpt lat="45.44862" lon="5.68723">
        <ele>785</ele>
        <time>2023-04-10T08:27:20Z</time>
      </trkpt>
      <trkpt lat="45.44861" lon="5.68726">
        <ele>786</ele>
        <time>2023-04-10T08:27:21Z</time>
      </trkpt>
      <trkpt lat="45.4486" lon="5.68728">
        <ele>786</ele>
        <time>2023-04-10T08:27:22Z</time>
      </trkpt>
      <trkpt lat="45.44859" lon="5.68731">
        <ele>786</ele>
        <time>2023-04-10T08:27:23Z</time>
      </trkpt>
      <trkpt lat="45.44859" lon="5.68734">
        <ele>787</ele>
        <time>2023-04-10T08:27:24Z</time>
      </trkpt>
      <trkpt lat="45.44859" lon="5.68738">
        <ele>787</ele>
        <time>2023-04-10T08:27:26Z</time>
      </trkpt>
      <trkpt lat="45.44857" lon="5.6874">
        <ele>788</ele>
        <time>2023-04-10T08:27:27Z</time>
      </trkpt>
      <trkpt lat="45.44856" lon="5.68743">
        <ele>788</ele>
        <time>2023-04-10T08:27:28Z</time>
      </trkpt>
      <trkpt lat="45.44854" lon="5.68746">
        <ele>788</ele>
        <time>2023-04-10T08:27:29Z</time>
      </trkpt>
      <trkpt lat="45.44853" lon="5.68749">
        <ele>788</ele>
        <time>2023-04-10T08:27:30Z</time>
      </trkpt>
      <trkpt lat="45.44851" lon="5.68752">
        <ele>789</ele>
        <time>2023-04-10T08:27:31Z</time>
      </trkpt>
      <trkpt lat="45.4485" lon="5.68757">
        <ele>789</ele>
        <time>2023-04-10T08:27:33Z</time>
      </trkpt>
      <trkpt lat="45.44849" lon="5.68759">
        <ele>790</ele>
        <time>2023-04-10T08:27:34Z</time>
      </trkpt>
      <trkpt lat="45.44848" lon="5.68762">
        <ele>790</ele>
        <time>2023-04-10T08:27:35Z</time>
      </trkpt>
      <trkpt lat="45.44847" lon="5.68764">
        <ele>790</ele>
        <time>2023-04-10T08:27:36Z</time>
      </trkpt>
      <trkpt lat="45.44846" lon="5.68767">
        <ele>791</ele>
        <time>2023-04-10T08:27:37Z</time>
      </trkpt>
      <trkpt lat="45.44845" lon="5.6877">
        <ele>791</ele>
        <time>2023-04-10T08:27:38Z</time>
      </trkpt>
      <trkpt lat="45.44843" lon="5.68775">
        <ele>791</ele>
        <time>2023-04-10T08:27:39Z</time>
      </trkpt>
      <trkpt lat="45.4484" lon="5.68781">
        <ele>791</ele>
        <time>2023-04-10T08:27:42Z</time>
      </trkpt>
      <trkpt lat="45.44839" lon="5.68783">
        <ele>791</ele>
        <time>2023-04-10T08:27:43Z</time>
      </trkpt>
      <trkpt lat="45.44837" lon="5.68786">
        <ele>792</ele>
        <time>2023-04-10T08:27:44Z</time>
      </trkpt>
      <trkpt lat="45.44837" lon="5.68789">
        <ele>793</ele>
        <time>2023-04-10T08:27:45Z</time>
      </trkpt>
      <trkpt lat="45.44836" lon="5.68792">
        <ele>793</ele>
        <time>2023-04-10T08:27:46Z</time>
      </trkpt>
      <trkpt lat="45.44835" lon="5.68794">
        <ele>793</ele>
        <time>2023-04-10T08:27:47Z</time>
      </trkpt>
      <trkpt lat="45.44834" lon="5.68799">
        <ele>793</ele>
        <time>2023-04-10T08:27:49Z</time>
      </trkpt>
      <trkpt lat="45.44831" lon="5.68806">
        <ele>794</ele>
        <time>2023-04-10T08:27:51Z</time>
      </trkpt>
      <trkpt lat="45.44831" lon="5.68809">
        <ele>794</ele>
        <time>2023-04-10T08:27:52Z</time>
      </trkpt>
      <trkpt lat="45.44825" lon="5.68821">
        <ele>795</ele>
        <time>2023-04-10T08:27:57Z</time>
      </trkpt>
      <trkpt lat="45.44824" lon="5.68824">
        <ele>796</ele>
        <time>2023-04-10T08:27:58Z</time>
      </trkpt>
      <trkpt lat="45.44818" lon="5.68834">
        <ele>796</ele>
        <time>2023-04-10T08:28:01Z</time>
      </trkpt>
      <trkpt lat="45.44816" lon="5.68837">
        <ele>796</ele>
        <time>2023-04-10T08:28:02Z</time>
      </trkpt>
      <trkpt lat="45.44815" lon="5.6884">
        <ele>796</ele>
        <time>2023-04-10T08:28:03Z</time>
      </trkpt>
      <trkpt lat="45.44814" lon="5.68843">
        <ele>797</ele>
        <time>2023-04-10T08:28:04Z</time>
      </trkpt>
      <trkpt lat="45.44812" lon="5.68849">
        <ele>797</ele>
        <time>2023-04-10T08:28:06Z</time>
      </trkpt>
      <trkpt lat="45.44811" lon="5.68852">
        <ele>798</ele>
        <time>2023-04-10T08:28:07Z</time>
      </trkpt>
      <trkpt lat="45.44809" lon="5.68856">
        <ele>798</ele>
        <time>2023-04-10T08:28:08Z</time>
      </trkpt>
      <trkpt lat="45.44806" lon="5.68861">
        <ele>798</ele>
        <time>2023-04-10T08:28:09Z</time>
      </trkpt>
      <trkpt lat="45.44804" lon="5.68866">
        <ele>798</ele>
        <time>2023-04-10T08:28:10Z</time>
      </trkpt>
      <trkpt lat="45.44801" lon="5.68869">
        <ele>798</ele>
        <time>2023-04-10T08:28:11Z</time>
      </trkpt>
      <trkpt lat="45.44798" lon="5.68873">
        <ele>798</ele>
        <time>2023-04-10T08:28:12Z</time>
      </trkpt>
      <trkpt lat="45.44792" lon="5.68886">
        <ele>798</ele>
        <time>2023-04-10T08:28:15Z</time>
      </trkpt>
      <trkpt lat="45.44789" lon="5.689">
        <ele>797</ele>
        <time>2023-04-10T08:28:18Z</time>
      </trkpt>
      <trkpt lat="45.44789" lon="5.68914">
        <ele>797</ele>
        <time>2023-04-10T08:28:20Z</time>
      </trkpt>
      <trkpt lat="45.44788" lon="5.6892">
        <ele>797</ele>
        <time>2023-04-10T08:28:21Z</time>
      </trkpt>
      <trkpt lat="45.44788" lon="5.68925">
        <ele>797</ele>
        <time>2023-04-10T08:28:22Z</time>
      </trkpt>
      <trkpt lat="45.44788" lon="5.68929">
        <ele>797</ele>
        <time>2023-04-10T08:28:23Z</time>
      </trkpt>
      <trkpt lat="45.44788" lon="5.68933">
        <ele>798</ele>
        <time>2023-04-10T08:28:24Z</time>
      </trkpt>
      <trkpt lat="45.44787" lon="5.68937">
        <ele>798</ele>
        <time>2023-04-10T08:28:25Z</time>
      </trkpt>
      <trkpt lat="45.44787" lon="5.68941">
        <ele>798</ele>
        <time>2023-04-10T08:28:26Z</time>
      </trkpt>
      <trkpt lat="45.44787" lon="5.68944">
        <ele>799</ele>
        <time>2023-04-10T08:28:27Z</time>
      </trkpt>
      <trkpt lat="45.44787" lon="5.68951">
        <ele>799</ele>
        <time>2023-04-10T08:28:28Z</time>
      </trkpt>
      <trkpt lat="45.44787" lon="5.68955">
        <ele>800</ele>
        <time>2023-04-10T08:28:30Z</time>
      </trkpt>
      <trkpt lat="45.44786" lon="5.68959">
        <ele>800</ele>
        <time>2023-04-10T08:28:31Z</time>
      </trkpt>
      <trkpt lat="45.44786" lon="5.68963">
        <ele>801</ele>
        <time>2023-04-10T08:28:32Z</time>
      </trkpt>
      <trkpt lat="45.44786" lon="5.68966">
        <ele>801</ele>
        <time>2023-04-10T08:28:33Z</time>
      </trkpt>
      <trkpt lat="45.44787" lon="5.6897">
        <ele>801</ele>
        <time>2023-04-10T08:28:34Z</time>
      </trkpt>
      <trkpt lat="45.44788" lon="5.68974">
        <ele>801</ele>
        <time>2023-04-10T08:28:35Z</time>
      </trkpt>
      <trkpt lat="45.44789" lon="5.6898">
        <ele>801</ele>
        <time>2023-04-10T08:28:36Z</time>
      </trkpt>
      <trkpt lat="45.4479" lon="5.68984">
        <ele>801</ele>
        <time>2023-04-10T08:28:38Z</time>
      </trkpt>
      <trkpt lat="45.4479" lon="5.68988">
        <ele>802</ele>
        <time>2023-04-10T08:28:39Z</time>
      </trkpt>
      <trkpt lat="45.4479" lon="5.68993">
        <ele>802</ele>
        <time>2023-04-10T08:28:40Z</time>
      </trkpt>
      <trkpt lat="45.44791" lon="5.68997">
        <ele>802</ele>
        <time>2023-04-10T08:28:41Z</time>
      </trkpt>
      <trkpt lat="45.44792" lon="5.69001">
        <ele>802</ele>
        <time>2023-04-10T08:28:42Z</time>
      </trkpt>
      <trkpt lat="45.44793" lon="5.69005">
        <ele>802</ele>
        <time>2023-04-10T08:28:43Z</time>
      </trkpt>
      <trkpt lat="45.44795" lon="5.69009">
        <ele>802</ele>
        <time>2023-04-10T08:28:44Z</time>
      </trkpt>
      <trkpt lat="45.44796" lon="5.69012">
        <ele>802</ele>
        <time>2023-04-10T08:28:45Z</time>
      </trkpt>
      <trkpt lat="45.44797" lon="5.69015">
        <ele>802</ele>
        <time>2023-04-10T08:28:46Z</time>
      </trkpt>
      <trkpt lat="45.44798" lon="5.69018">
        <ele>802</ele>
        <time>2023-04-10T08:28:47Z</time>
      </trkpt>
      <trkpt lat="45.448" lon="5.6902">
        <ele>802</ele>
        <time>2023-04-10T08:28:48Z</time>
      </trkpt>
      <trkpt lat="45.44803" lon="5.69022">
        <ele>803</ele>
        <time>2023-04-10T08:28:50Z</time>
      </trkpt>
      <trkpt lat="45.44806" lon="5.69023">
        <ele>804</ele>
        <time>2023-04-10T08:28:52Z</time>
      </trkpt>
      <trkpt lat="45.44809" lon="5.69024">
        <ele>805</ele>
        <time>2023-04-10T08:28:54Z</time>
      </trkpt>
      <trkpt lat="45.44811" lon="5.69025">
        <ele>805</ele>
        <time>2023-04-10T08:28:55Z</time>
      </trkpt>
      <trkpt lat="45.44814" lon="5.69027">
        <ele>806</ele>
        <time>2023-04-10T08:28:56Z</time>
      </trkpt>
      <trkpt lat="45.44817" lon="5.69028">
        <ele>806</ele>
        <time>2023-04-10T08:28:57Z</time>
      </trkpt>
      <trkpt lat="45.44819" lon="5.69029">
        <ele>806</ele>
        <time>2023-04-10T08:28:58Z</time>
      </trkpt>
      <trkpt lat="45.44822" lon="5.69029">
        <ele>806</ele>
        <time>2023-04-10T08:29:00Z</time>
      </trkpt>
      <trkpt lat="45.44825" lon="5.6903">
        <ele>807</ele>
        <time>2023-04-10T08:29:01Z</time>
      </trkpt>
      <trkpt lat="45.44827" lon="5.69032">
        <ele>807</ele>
        <time>2023-04-10T08:29:02Z</time>
      </trkpt>
      <trkpt lat="45.44829" lon="5.69034">
        <ele>807</ele>
        <time>2023-04-10T08:29:03Z</time>
      </trkpt>
      <trkpt lat="45.44832" lon="5.69037">
        <ele>807</ele>
        <time>2023-04-10T08:29:05Z</time>
      </trkpt>
      <trkpt lat="45.44834" lon="5.6904">
        <ele>807</ele>
        <time>2023-04-10T08:29:06Z</time>
      </trkpt>
      <trkpt lat="45.44836" lon="5.69043">
        <ele>808</ele>
        <time>2023-04-10T08:29:07Z</time>
      </trkpt>
      <trkpt lat="45.44838" lon="5.69046">
        <ele>808</ele>
        <time>2023-04-10T08:29:08Z</time>
      </trkpt>
      <trkpt lat="45.4484" lon="5.69048">
        <ele>808</ele>
        <time>2023-04-10T08:29:09Z</time>
      </trkpt>
      <trkpt lat="45.44842" lon="5.6905">
        <ele>808</ele>
        <time>2023-04-10T08:29:10Z</time>
      </trkpt>
      <trkpt lat="45.44843" lon="5.69052">
        <ele>808</ele>
        <time>2023-04-10T08:29:11Z</time>
      </trkpt>
      <trkpt lat="45.44844" lon="5.69054">
        <ele>808</ele>
        <time>2023-04-10T08:29:12Z</time>
      </trkpt>
      <trkpt lat="45.44848" lon="5.6906">
        <ele>808</ele>
        <time>2023-04-10T08:29:14Z</time>
      </trkpt>
      <trkpt lat="45.4485" lon="5.69063">
        <ele>809</ele>
        <time>2023-04-10T08:29:16Z</time>
      </trkpt>
      <trkpt lat="45.44851" lon="5.69065">
        <ele>809</ele>
        <time>2023-04-10T08:29:17Z</time>
      </trkpt>
      <trkpt lat="45.44853" lon="5.69069">
        <ele>810</ele>
        <time>2023-04-10T08:29:18Z</time>
      </trkpt>
      <trkpt lat="45.44856" lon="5.69072">
        <ele>810</ele>
        <time>2023-04-10T08:29:19Z</time>
      </trkpt>
      <trkpt lat="45.44858" lon="5.69076">
        <ele>810</ele>
        <time>2023-04-10T08:29:20Z</time>
      </trkpt>
      <trkpt lat="45.4486" lon="5.6908">
        <ele>810</ele>
        <time>2023-04-10T08:29:21Z</time>
      </trkpt>
      <trkpt lat="45.44864" lon="5.69085">
        <ele>810</ele>
        <time>2023-04-10T08:29:22Z</time>
      </trkpt>
      <trkpt lat="45.44868" lon="5.6909">
        <ele>810</ele>
        <time>2023-04-10T08:29:23Z</time>
      </trkpt>
      <trkpt lat="45.44872" lon="5.69095">
        <ele>810</ele>
        <time>2023-04-10T08:29:24Z</time>
      </trkpt>
      <trkpt lat="45.44875" lon="5.691">
        <ele>810</ele>
        <time>2023-04-10T08:29:25Z</time>
      </trkpt>
      <trkpt lat="45.44878" lon="5.69105">
        <ele>810</ele>
        <time>2023-04-10T08:29:26Z</time>
      </trkpt>
      <trkpt lat="45.44881" lon="5.6911">
        <ele>810</ele>
        <time>2023-04-10T08:29:27Z</time>
      </trkpt>
      <trkpt lat="45.44885" lon="5.69116">
        <ele>810</ele>
        <time>2023-04-10T08:29:28Z</time>
      </trkpt>
      <trkpt lat="45.44888" lon="5.69121">
        <ele>810</ele>
        <time>2023-04-10T08:29:29Z</time>
      </trkpt>
      <trkpt lat="45.44892" lon="5.69127">
        <ele>810</ele>
        <time>2023-04-10T08:29:30Z</time>
      </trkpt>
      <trkpt lat="45.44896" lon="5.69132">
        <ele>810</ele>
        <time>2023-04-10T08:29:31Z</time>
      </trkpt>
      <trkpt lat="45.449" lon="5.69137">
        <ele>810</ele>
        <time>2023-04-10T08:29:32Z</time>
      </trkpt>
      <trkpt lat="45.44908" lon="5.69148">
        <ele>809</ele>
        <time>2023-04-10T08:29:33Z</time>
      </trkpt>
      <trkpt lat="45.44913" lon="5.69154">
        <ele>809</ele>
        <time>2023-04-10T08:29:35Z</time>
      </trkpt>
      <trkpt lat="45.44918" lon="5.6916">
        <ele>809</ele>
        <time>2023-04-10T08:29:36Z</time>
      </trkpt>
      <trkpt lat="45.44922" lon="5.69165">
        <ele>809</ele>
        <time>2023-04-10T08:29:37Z</time>
      </trkpt>
      <trkpt lat="45.44926" lon="5.6917">
        <ele>809</ele>
        <time>2023-04-10T08:29:38Z</time>
      </trkpt>
      <trkpt lat="45.4493" lon="5.69176">
        <ele>809</ele>
        <time>2023-04-10T08:29:39Z</time>
      </trkpt>
      <trkpt lat="45.44934" lon="5.69181">
        <ele>809</ele>
        <time>2023-04-10T08:29:40Z</time>
      </trkpt>
      <trkpt lat="45.44937" lon="5.69186">
        <ele>809</ele>
        <time>2023-04-10T08:29:41Z</time>
      </trkpt>
      <trkpt lat="45.44941" lon="5.6919">
        <ele>809</ele>
        <time>2023-04-10T08:29:42Z</time>
      </trkpt>
      <trkpt lat="45.44944" lon="5.69194">
        <ele>809</ele>
        <time>2023-04-10T08:29:43Z</time>
      </trkpt>
      <trkpt lat="45.44948" lon="5.69198">
        <ele>809</ele>
        <time>2023-04-10T08:29:44Z</time>
      </trkpt>
      <trkpt lat="45.44952" lon="5.69204">
        <ele>809</ele>
        <time>2023-04-10T08:29:45Z</time>
      </trkpt>
      <trkpt lat="45.44957" lon="5.69209">
        <ele>809</ele>
        <time>2023-04-10T08:29:46Z</time>
      </trkpt>
      <trkpt lat="45.44961" lon="5.69215">
        <ele>809</ele>
        <time>2023-04-10T08:29:47Z</time>
      </trkpt>
      <trkpt lat="45.44965" lon="5.6922">
        <ele>809</ele>
        <time>2023-04-10T08:29:48Z</time>
      </trkpt>
      <trkpt lat="45.44969" lon="5.69225">
        <ele>809</ele>
        <time>2023-04-10T08:29:49Z</time>
      </trkpt>
      <trkpt lat="45.44973" lon="5.69228">
        <ele>809</ele>
        <time>2023-04-10T08:29:50Z</time>
      </trkpt>
      <trkpt lat="45.44976" lon="5.6923">
        <ele>809</ele>
        <time>2023-04-10T08:29:51Z</time>
      </trkpt>
      <trkpt lat="45.44982" lon="5.69234">
        <ele>809</ele>
        <time>2023-04-10T08:29:52Z</time>
      </trkpt>
      <trkpt lat="45.44984" lon="5.69237">
        <ele>809</ele>
        <time>2023-04-10T08:29:54Z</time>
      </trkpt>
      <trkpt lat="45.44986" lon="5.69241">
        <ele>809</ele>
        <time>2023-04-10T08:29:55Z</time>
      </trkpt>
      <trkpt lat="45.44988" lon="5.69245">
        <ele>809</ele>
        <time>2023-04-10T08:29:56Z</time>
      </trkpt>
      <trkpt lat="45.44991" lon="5.69249">
        <ele>809</ele>
        <time>2023-04-10T08:29:57Z</time>
      </trkpt>
      <trkpt lat="45.44993" lon="5.69253">
        <ele>809</ele>
        <time>2023-04-10T08:29:58Z</time>
      </trkpt>
      <trkpt lat="45.44996" lon="5.69257">
        <ele>809</ele>
        <time>2023-04-10T08:29:59Z</time>
      </trkpt>
      <trkpt lat="45.44999" lon="5.69262">
        <ele>809</ele>
        <time>2023-04-10T08:30:00Z</time>
      </trkpt>
      <trkpt lat="45.45003" lon="5.69267">
        <ele>809</ele>
        <time>2023-04-10T08:30:01Z</time>
      </trkpt>
      <trkpt lat="45.45007" lon="5.69272">
        <ele>809</ele>
        <time>2023-04-10T08:30:02Z</time>
      </trkpt>
      <trkpt lat="45.45012" lon="5.69277">
        <ele>809</ele>
        <time>2023-04-10T08:30:03Z</time>
      </trkpt>
      <trkpt lat="45.45016" lon="5.69283">
        <ele>809</ele>
        <time>2023-04-10T08:30:04Z</time>
      </trkpt>
      <trkpt lat="45.4502" lon="5.69288">
        <ele>809</ele>
        <time>2023-04-10T08:30:05Z</time>
      </trkpt>
      <trkpt lat="45.45025" lon="5.69292">
        <ele>809</ele>
        <time>2023-04-10T08:30:06Z</time>
      </trkpt>
      <trkpt lat="45.45029" lon="5.69296">
        <ele>809</ele>
        <time>2023-04-10T08:30:07Z</time>
      </trkpt>
      <trkpt lat="45.45032" lon="5.69299">
        <ele>809</ele>
        <time>2023-04-10T08:30:08Z</time>
      </trkpt>
      <trkpt lat="45.45035" lon="5.69301">
        <ele>809</ele>
        <time>2023-04-10T08:30:09Z</time>
      </trkpt>
      <trkpt lat="45.45038" lon="5.69303">
        <ele>809</ele>
        <time>2023-04-10T08:30:10Z</time>
      </trkpt>
      <trkpt lat="45.45041" lon="5.69305">
        <ele>810</ele>
        <time>2023-04-10T08:30:11Z</time>
      </trkpt>
      <trkpt lat="45.45043" lon="5.69307">
        <ele>810</ele>
        <time>2023-04-10T08:30:12Z</time>
      </trkpt>
      <trkpt lat="45.45046" lon="5.69308">
        <ele>810</ele>
        <time>2023-04-10T08:30:13Z</time>
      </trkpt>
      <trkpt lat="45.45048" lon="5.69308">
        <ele>810</ele>
        <time>2023-04-10T08:30:14Z</time>
      </trkpt>
      <trkpt lat="45.4505" lon="5.69309">
        <ele>811</ele>
        <time>2023-04-10T08:30:15Z</time>
      </trkpt>
      <trkpt lat="45.45052" lon="5.6931">
        <ele>811</ele>
        <time>2023-04-10T08:30:16Z</time>
      </trkpt>
      <trkpt lat="45.45053" lon="5.6931">
        <ele>811</ele>
        <time>2023-04-10T08:30:17Z</time>
      </trkpt>
      <trkpt lat="45.45055" lon="5.69312">
        <ele>812</ele>
        <time>2023-04-10T08:30:18Z</time>
      </trkpt>
      <trkpt lat="45.45057" lon="5.69313">
        <ele>813</ele>
        <time>2023-04-10T08:30:19Z</time>
      </trkpt>
      <trkpt lat="45.45059" lon="5.69314">
        <ele>813</ele>
        <time>2023-04-10T08:30:20Z</time>
      </trkpt>
      <trkpt lat="45.45061" lon="5.69315">
        <ele>813</ele>
        <time>2023-04-10T08:30:21Z</time>
      </trkpt>
      <trkpt lat="45.45063" lon="5.69316">
        <ele>814</ele>
        <time>2023-04-10T08:30:22Z</time>
      </trkpt>
      <trkpt lat="45.45065" lon="5.69317">
        <ele>814</ele>
        <time>2023-04-10T08:30:23Z</time>
      </trkpt>
      <trkpt lat="45.45067" lon="5.69319">
        <ele>815</ele>
        <time>2023-04-10T08:30:24Z</time>
      </trkpt>
      <trkpt lat="45.45069" lon="5.69321">
        <ele>815</ele>
        <time>2023-04-10T08:30:25Z</time>
      </trkpt>
      <trkpt lat="45.4507" lon="5.69323">
        <ele>815</ele>
        <time>2023-04-10T08:30:26Z</time>
      </trkpt>
      <trkpt lat="45.45072" lon="5.69324">
        <ele>815</ele>
        <time>2023-04-10T08:30:27Z</time>
      </trkpt>
      <trkpt lat="45.45074" lon="5.69326">
        <ele>816</ele>
        <time>2023-04-10T08:30:28Z</time>
      </trkpt>
      <trkpt lat="45.45076" lon="5.69328">
        <ele>816</ele>
        <time>2023-04-10T08:30:29Z</time>
      </trkpt>
      <trkpt lat="45.45077" lon="5.6933">
        <ele>817</ele>
        <time>2023-04-10T08:30:30Z</time>
      </trkpt>
      <trkpt lat="45.45079" lon="5.69332">
        <ele>817</ele>
        <time>2023-04-10T08:30:31Z</time>
      </trkpt>
      <trkpt lat="45.45081" lon="5.69334">
        <ele>817</ele>
        <time>2023-04-10T08:30:32Z</time>
      </trkpt>
      <trkpt lat="45.45082" lon="5.69335">
        <ele>817</ele>
        <time>2023-04-10T08:30:33Z</time>
      </trkpt>
      <trkpt lat="45.45084" lon="5.69337">
        <ele>817</ele>
        <time>2023-04-10T08:30:34Z</time>
      </trkpt>
      <trkpt lat="45.45085" lon="5.69339">
        <ele>817</ele>
        <time>2023-04-10T08:30:35Z</time>
      </trkpt>
      <trkpt lat="45.45087" lon="5.69341">
        <ele>817</ele>
        <time>2023-04-10T08:30:36Z</time>
      </trkpt>
      <trkpt lat="45.45088" lon="5.69343">
        <ele>818</ele>
        <time>2023-04-10T08:30:37Z</time>
      </trkpt>
      <trkpt lat="45.4509" lon="5.69345">
        <ele>819</ele>
        <time>2023-04-10T08:30:38Z</time>
      </trkpt>
      <trkpt lat="45.45092" lon="5.69346">
        <ele>819</ele>
        <time>2023-04-10T08:30:39Z</time>
      </trkpt>
      <trkpt lat="45.45094" lon="5.69348">
        <ele>819</ele>
        <time>2023-04-10T08:30:40Z</time>
      </trkpt>
      <trkpt lat="45.45095" lon="5.6935">
        <ele>820</ele>
        <time>2023-04-10T08:30:41Z</time>
      </trkpt>
      <trkpt lat="45.45097" lon="5.69351">
        <ele>820</ele>
        <time>2023-04-10T08:30:42Z</time>
      </trkpt>
      <trkpt lat="45.45099" lon="5.69353">
        <ele>820</ele>
        <time>2023-04-10T08:30:43Z</time>
      </trkpt>
      <trkpt lat="45.45101" lon="5.69354">
        <ele>821</ele>
        <time>2023-04-10T08:30:44Z</time>
      </trkpt>
      <trkpt lat="45.45104" lon="5.69356">
        <ele>821</ele>
        <time>2023-04-10T08:30:46Z</time>
      </trkpt>
      <trkpt lat="45.45105" lon="5.69357">
        <ele>822</ele>
        <time>2023-04-10T08:30:47Z</time>
      </trkpt>
      <trkpt lat="45.45108" lon="5.69358">
        <ele>822</ele>
        <time>2023-04-10T08:30:48Z</time>
      </trkpt>
      <trkpt lat="45.45111" lon="5.69359">
        <ele>822</ele>
        <time>2023-04-10T08:30:49Z</time>
      </trkpt>
      <trkpt lat="45.45114" lon="5.6936">
        <ele>822</ele>
        <time>2023-04-10T08:30:50Z</time>
      </trkpt>
      <trkpt lat="45.45117" lon="5.6936">
        <ele>823</ele>
        <time>2023-04-10T08:30:51Z</time>
      </trkpt>
      <trkpt lat="45.4512" lon="5.69361">
        <ele>823</ele>
        <time>2023-04-10T08:30:52Z</time>
      </trkpt>
      <trkpt lat="45.45124" lon="5.69363">
        <ele>823</ele>
        <time>2023-04-10T08:30:53Z</time>
      </trkpt>
      <trkpt lat="45.45127" lon="5.69365">
        <ele>823</ele>
        <time>2023-04-10T08:30:54Z</time>
      </trkpt>
      <trkpt lat="45.45132" lon="5.69367">
        <ele>823</ele>
        <time>2023-04-10T08:30:55Z</time>
      </trkpt>
      <trkpt lat="45.45136" lon="5.69369">
        <ele>823</ele>
        <time>2023-04-10T08:30:56Z</time>
      </trkpt>
      <trkpt lat="45.4514" lon="5.6937">
        <ele>823</ele>
        <time>2023-04-10T08:30:57Z</time>
      </trkpt>
      <trkpt lat="45.45143" lon="5.69372">
        <ele>823</ele>
        <time>2023-04-10T08:30:58Z</time>
      </trkpt>
      <trkpt lat="45.45146" lon="5.69374">
        <ele>823</ele>
        <time>2023-04-10T08:30:59Z</time>
      </trkpt>
      <trkpt lat="45.45149" lon="5.69375">
        <ele>823</ele>
        <time>2023-04-10T08:31:00Z</time>
      </trkpt>
      <trkpt lat="45.45152" lon="5.69376">
        <ele>823</ele>
        <time>2023-04-10T08:31:01Z</time>
      </trkpt>
      <trkpt lat="45.45155" lon="5.69378">
        <ele>823</ele>
        <time>2023-04-10T08:31:02Z</time>
      </trkpt>
      <trkpt lat="45.45157" lon="5.69379">
        <ele>823</ele>
        <time>2023-04-10T08:31:03Z</time>
      </trkpt>
      <trkpt lat="45.4516" lon="5.6938">
        <ele>823</ele>
        <time>2023-04-10T08:31:04Z</time>
      </trkpt>
      <trkpt lat="45.45162" lon="5.69381">
        <ele>823</ele>
        <time>2023-04-10T08:31:05Z</time>
      </trkpt>
      <trkpt lat="45.45166" lon="5.69382">
        <ele>823</ele>
        <time>2023-04-10T08:31:06Z</time>
      </trkpt>
      <trkpt lat="45.45169" lon="5.69383">
        <ele>823</ele>
        <time>2023-04-10T08:31:07Z</time>
      </trkpt>
      <trkpt lat="45.45172" lon="5.69384">
        <ele>823</ele>
        <time>2023-04-10T08:31:08Z</time>
      </trkpt>
      <trkpt lat="45.45175" lon="5.69385">
        <ele>823</ele>
        <time>2023-04-10T08:31:09Z</time>
      </trkpt>
      <trkpt lat="45.45178" lon="5.69386">
        <ele>823</ele>
        <time>2023-04-10T08:31:10Z</time>
      </trkpt>
      <trkpt lat="45.45181" lon="5.69386">
        <ele>823</ele>
        <time>2023-04-10T08:31:11Z</time>
      </trkpt>
      <trkpt lat="45.45185" lon="5.69387">
        <ele>823</ele>
        <time>2023-04-10T08:31:12Z</time>
      </trkpt>
      <trkpt lat="45.45188" lon="5.69388">
        <ele>823</ele>
        <time>2023-04-10T08:31:13Z</time>
      </trkpt>
      <trkpt lat="45.4519" lon="5.69388">
        <ele>824</ele>
        <time>2023-04-10T08:31:14Z</time>
      </trkpt>
      <trkpt lat="45.45193" lon="5.69388">
        <ele>824</ele>
        <time>2023-04-10T08:31:15Z</time>
      </trkpt>
      <trkpt lat="45.45195" lon="5.69388">
        <ele>824</ele>
        <time>2023-04-10T08:31:16Z</time>
      </trkpt>
      <trkpt lat="45.45197" lon="5.69389">
        <ele>824</ele>
        <time>2023-04-10T08:31:17Z</time>
      </trkpt>
      <trkpt lat="45.45199" lon="5.69389">
        <ele>824</ele>
        <time>2023-04-10T08:31:18Z</time>
      </trkpt>
      <trkpt lat="45.45201" lon="5.69389">
        <ele>824</ele>
        <time>2023-04-10T08:31:19Z</time>
      </trkpt>
      <trkpt lat="45.45204" lon="5.6939">
        <ele>825</ele>
        <time>2023-04-10T08:31:20Z</time>
      </trkpt>
      <trkpt lat="45.45205" lon="5.6939">
        <ele>825</ele>
        <time>2023-04-10T08:31:21Z</time>
      </trkpt>
      <trkpt lat="45.45209" lon="5.69391">
        <ele>826</ele>
        <time>2023-04-10T08:31:23Z</time>
      </trkpt>
      <trkpt lat="45.45211" lon="5.69392">
        <ele>826</ele>
        <time>2023-04-10T08:31:24Z</time>
      </trkpt>
      <trkpt lat="45.45214" lon="5.69393">
        <ele>826</ele>
        <time>2023-04-10T08:31:25Z</time>
      </trkpt>
      <trkpt lat="45.45216" lon="5.69395">
        <ele>826</ele>
        <time>2023-04-10T08:31:26Z</time>
      </trkpt>
      <trkpt lat="45.45218" lon="5.69397">
        <ele>827</ele>
        <time>2023-04-10T08:31:27Z</time>
      </trkpt>
      <trkpt lat="45.4522" lon="5.69399">
        <ele>827</ele>
        <time>2023-04-10T08:31:28Z</time>
      </trkpt>
      <trkpt lat="45.45223" lon="5.69401">
        <ele>828</ele>
        <time>2023-04-10T08:31:30Z</time>
      </trkpt>
      <trkpt lat="45.45225" lon="5.69403">
        <ele>828</ele>
        <time>2023-04-10T08:31:31Z</time>
      </trkpt>
      <trkpt lat="45.45227" lon="5.69404">
        <ele>828</ele>
        <time>2023-04-10T08:31:32Z</time>
      </trkpt>
      <trkpt lat="45.45229" lon="5.69406">
        <ele>829</ele>
        <time>2023-04-10T08:31:33Z</time>
      </trkpt>
      <trkpt lat="45.45231" lon="5.69407">
        <ele>829</ele>
        <time>2023-04-10T08:31:34Z</time>
      </trkpt>
      <trkpt lat="45.45233" lon="5.69409">
        <ele>829</ele>
        <time>2023-04-10T08:31:35Z</time>
      </trkpt>
      <trkpt lat="45.45235" lon="5.6941">
        <ele>830</ele>
        <time>2023-04-10T08:31:36Z</time>
      </trkpt>
      <trkpt lat="45.45236" lon="5.69412">
        <ele>830</ele>
        <time>2023-04-10T08:31:37Z</time>
      </trkpt>
      <trkpt lat="45.45238" lon="5.69413">
        <ele>830</ele>
        <time>2023-04-10T08:31:38Z</time>
      </trkpt>
      <trkpt lat="45.4524" lon="5.69417">
        <ele>831</ele>
        <time>2023-04-10T08:31:40Z</time>
      </trkpt>
      <trkpt lat="45.45242" lon="5.69418">
        <ele>832</ele>
        <time>2023-04-10T08:31:41Z</time>
      </trkpt>
      <trkpt lat="45.45246" lon="5.69421">
        <ele>831</ele>
        <time>2023-04-10T08:31:43Z</time>
      </trkpt>
      <trkpt lat="45.45251" lon="5.69433">
        <ele>831</ele>
        <time>2023-04-10T08:31:46Z</time>
      </trkpt>
      <trkpt lat="45.45252" lon="5.69437">
        <ele>831</ele>
        <time>2023-04-10T08:31:48Z</time>
      </trkpt>
      <trkpt lat="45.45253" lon="5.6944">
        <ele>831</ele>
        <time>2023-04-10T08:31:49Z</time>
      </trkpt>
      <trkpt lat="45.45253" lon="5.69444">
        <ele>831</ele>
        <time>2023-04-10T08:31:50Z</time>
      </trkpt>
      <trkpt lat="45.45253" lon="5.69447">
        <ele>831</ele>
        <time>2023-04-10T08:31:51Z</time>
      </trkpt>
      <trkpt lat="45.45253" lon="5.6945">
        <ele>832</ele>
        <time>2023-04-10T08:31:52Z</time>
      </trkpt>
      <trkpt lat="45.45254" lon="5.69454">
        <ele>832</ele>
        <time>2023-04-10T08:31:53Z</time>
      </trkpt>
      <trkpt lat="45.45255" lon="5.69457">
        <ele>832</ele>
        <time>2023-04-10T08:31:54Z</time>
      </trkpt>
      <trkpt lat="45.45255" lon="5.6946">
        <ele>833</ele>
        <time>2023-04-10T08:31:55Z</time>
      </trkpt>
      <trkpt lat="45.45255" lon="5.69464">
        <ele>833</ele>
        <time>2023-04-10T08:31:56Z</time>
      </trkpt>
      <trkpt lat="45.45255" lon="5.69468">
        <ele>833</ele>
        <time>2023-04-10T08:31:57Z</time>
      </trkpt>
      <trkpt lat="45.45256" lon="5.69472">
        <ele>833</ele>
        <time>2023-04-10T08:31:58Z</time>
      </trkpt>
      <trkpt lat="45.45256" lon="5.69477">
        <ele>833</ele>
        <time>2023-04-10T08:31:59Z</time>
      </trkpt>
      <trkpt lat="45.45256" lon="5.69482">
        <ele>833</ele>
        <time>2023-04-10T08:32:00Z</time>
      </trkpt>
      <trkpt lat="45.45255" lon="5.69487">
        <ele>833</ele>
        <time>2023-04-10T08:32:01Z</time>
      </trkpt>
      <trkpt lat="45.45256" lon="5.69491">
        <ele>833</ele>
        <time>2023-04-10T08:32:02Z</time>
      </trkpt>
      <trkpt lat="45.45257" lon="5.69494">
        <ele>833</ele>
        <time>2023-04-10T08:32:03Z</time>
      </trkpt>
      <trkpt lat="45.45258" lon="5.69498">
        <ele>833</ele>
        <time>2023-04-10T08:32:04Z</time>
      </trkpt>
      <trkpt lat="45.45263" lon="5.69504">
        <ele>833</ele>
        <time>2023-04-10T08:32:05Z</time>
      </trkpt>
      <trkpt lat="45.45265" lon="5.69507">
        <ele>833</ele>
        <time>2023-04-10T08:32:07Z</time>
      </trkpt>
      <trkpt lat="45.45269" lon="5.6951">
        <ele>833</ele>
        <time>2023-04-10T08:32:08Z</time>
      </trkpt>
      <trkpt lat="45.45272" lon="5.69513">
        <ele>833</ele>
        <time>2023-04-10T08:32:09Z</time>
      </trkpt>
      <trkpt lat="45.45276" lon="5.69515">
        <ele>834</ele>
        <time>2023-04-10T08:32:10Z</time>
      </trkpt>
      <trkpt lat="45.4528" lon="5.69516">
        <ele>834</ele>
        <time>2023-04-10T08:32:11Z</time>
      </trkpt>
      <trkpt lat="45.45283" lon="5.69518">
        <ele>834</ele>
        <time>2023-04-10T08:32:12Z</time>
      </trkpt>
      <trkpt lat="45.45286" lon="5.69519">
        <ele>834</ele>
        <time>2023-04-10T08:32:13Z</time>
      </trkpt>
      <trkpt lat="45.45289" lon="5.6952">
        <ele>834</ele>
        <time>2023-04-10T08:32:14Z</time>
      </trkpt>
      <trkpt lat="45.45291" lon="5.69522">
        <ele>834</ele>
        <time>2023-04-10T08:32:15Z</time>
      </trkpt>
      <trkpt lat="45.45293" lon="5.69525">
        <ele>835</ele>
        <time>2023-04-10T08:32:16Z</time>
      </trkpt>
      <trkpt lat="45.45293" lon="5.69527">
        <ele>835</ele>
        <time>2023-04-10T08:32:17Z</time>
      </trkpt>
      <trkpt lat="45.45293" lon="5.6953">
        <ele>835</ele>
        <time>2023-04-10T08:32:18Z</time>
      </trkpt>
      <trkpt lat="45.45294" lon="5.69535">
        <ele>835</ele>
        <time>2023-04-10T08:32:19Z</time>
      </trkpt>
      <trkpt lat="45.45296" lon="5.6954">
        <ele>834</ele>
        <time>2023-04-10T08:32:20Z</time>
      </trkpt>
      <trkpt lat="45.45298" lon="5.69545">
        <ele>834</ele>
        <time>2023-04-10T08:32:21Z</time>
      </trkpt>
      <trkpt lat="45.453" lon="5.6955">
        <ele>834</ele>
        <time>2023-04-10T08:32:22Z</time>
      </trkpt>
      <trkpt lat="45.45302" lon="5.69555">
        <ele>833</ele>
        <time>2023-04-10T08:32:23Z</time>
      </trkpt>
      <trkpt lat="45.45305" lon="5.6956">
        <ele>833</ele>
        <time>2023-04-10T08:32:24Z</time>
      </trkpt>
      <trkpt lat="45.45308" lon="5.69564">
        <ele>833</ele>
        <time>2023-04-10T08:32:25Z</time>
      </trkpt>
      <trkpt lat="45.45311" lon="5.69567">
        <ele>833</ele>
        <time>2023-04-10T08:32:26Z</time>
      </trkpt>
      <trkpt lat="45.45314" lon="5.6957">
        <ele>833</ele>
        <time>2023-04-10T08:32:27Z</time>
      </trkpt>
      <trkpt lat="45.45316" lon="5.69572">
        <ele>833</ele>
        <time>2023-04-10T08:32:28Z</time>
      </trkpt>
      <trkpt lat="45.45318" lon="5.69574">
        <ele>833</ele>
        <time>2023-04-10T08:32:29Z</time>
      </trkpt>
      <trkpt lat="45.4532" lon="5.69575">
        <ele>833</ele>
        <time>2023-04-10T08:32:30Z</time>
      </trkpt>
      <trkpt lat="45.45322" lon="5.69577">
        <ele>832</ele>
        <time>2023-04-10T08:32:31Z</time>
      </trkpt>
      <trkpt lat="45.45325" lon="5.69579">
        <ele>832</ele>
        <time>2023-04-10T08:32:32Z</time>
      </trkpt>
      <trkpt lat="45.45327" lon="5.6958">
        <ele>832</ele>
        <time>2023-04-10T08:32:33Z</time>
      </trkpt>
      <trkpt lat="45.45329" lon="5.69582">
        <ele>832</ele>
        <time>2023-04-10T08:32:34Z</time>
      </trkpt>
      <trkpt lat="45.45332" lon="5.69584">
        <ele>832</ele>
        <time>2023-04-10T08:32:35Z</time>
      </trkpt>
      <trkpt lat="45.45335" lon="5.69587">
        <ele>832</ele>
        <time>2023-04-10T08:32:36Z</time>
      </trkpt>
      <trkpt lat="45.45337" lon="5.69589">
        <ele>833</ele>
        <time>2023-04-10T08:32:37Z</time>
      </trkpt>
      <trkpt lat="45.4534" lon="5.69591">
        <ele>833</ele>
        <time>2023-04-10T08:32:38Z</time>
      </trkpt>
      <trkpt lat="45.45343" lon="5.69593">
        <ele>833</ele>
        <time>2023-04-10T08:32:39Z</time>
      </trkpt>
      <trkpt lat="45.45346" lon="5.69595">
        <ele>833</ele>
        <time>2023-04-10T08:32:40Z</time>
      </trkpt>
      <trkpt lat="45.45349" lon="5.69598">
        <ele>833</ele>
        <time>2023-04-10T08:32:41Z</time>
      </trkpt>
      <trkpt lat="45.45359" lon="5.69604">
        <ele>833</ele>
        <time>2023-04-10T08:32:45Z</time>
      </trkpt>
      <trkpt lat="45.45363" lon="5.69605">
        <ele>834</ele>
        <time>2023-04-10T08:32:47Z</time>
      </trkpt>
      <trkpt lat="45.45372" lon="5.69603">
        <ele>836</ele>
        <time>2023-04-10T08:32:52Z</time>
      </trkpt>
      <trkpt lat="45.45382" lon="5.69603">
        <ele>837</ele>
        <time>2023-04-10T08:32:56Z</time>
      </trkpt>
      <trkpt lat="45.45391" lon="5.696">
        <ele>839</ele>
        <time>2023-04-10T08:32:59Z</time>
      </trkpt>
      <trkpt lat="45.45394" lon="5.69598">
        <ele>839</ele>
        <time>2023-04-10T08:33:00Z</time>
      </trkpt>
      <trkpt lat="45.45396" lon="5.69597">
        <ele>839</ele>
        <time>2023-04-10T08:33:01Z</time>
      </trkpt>
      <trkpt lat="45.454" lon="5.69593">
        <ele>839</ele>
        <time>2023-04-10T08:33:02Z</time>
      </trkpt>
      <trkpt lat="45.45402" lon="5.69591">
        <ele>841</ele>
        <time>2023-04-10T08:33:04Z</time>
      </trkpt>
      <trkpt lat="45.45404" lon="5.6959">
        <ele>841</ele>
        <time>2023-04-10T08:33:05Z</time>
      </trkpt>
      <trkpt lat="45.45406" lon="5.69589">
        <ele>841</ele>
        <time>2023-04-10T08:33:06Z</time>
      </trkpt>
      <trkpt lat="45.45407" lon="5.69587">
        <ele>842</ele>
        <time>2023-04-10T08:33:07Z</time>
      </trkpt>
      <trkpt lat="45.45409" lon="5.69585">
        <ele>842</ele>
        <time>2023-04-10T08:33:08Z</time>
      </trkpt>
      <trkpt lat="45.45409" lon="5.69583">
        <ele>842</ele>
        <time>2023-04-10T08:33:09Z</time>
      </trkpt>
      <trkpt lat="45.45411" lon="5.6958">
        <ele>842</ele>
        <time>2023-04-10T08:33:10Z</time>
      </trkpt>
      <trkpt lat="45.45413" lon="5.69577">
        <ele>843</ele>
        <time>2023-04-10T08:33:11Z</time>
      </trkpt>
      <trkpt lat="45.45415" lon="5.69574">
        <ele>843</ele>
        <time>2023-04-10T08:33:12Z</time>
      </trkpt>
      <trkpt lat="45.45418" lon="5.69571">
        <ele>843</ele>
        <time>2023-04-10T08:33:13Z</time>
      </trkpt>
      <trkpt lat="45.4542" lon="5.69568">
        <ele>843</ele>
        <time>2023-04-10T08:33:14Z</time>
      </trkpt>
      <trkpt lat="45.45422" lon="5.69565">
        <ele>843</ele>
        <time>2023-04-10T08:33:15Z</time>
      </trkpt>
      <trkpt lat="45.45424" lon="5.69563">
        <ele>843</ele>
        <time>2023-04-10T08:33:16Z</time>
      </trkpt>
      <trkpt lat="45.45426" lon="5.69561">
        <ele>843</ele>
        <time>2023-04-10T08:33:17Z</time>
      </trkpt>
      <trkpt lat="45.45429" lon="5.69559">
        <ele>843</ele>
        <time>2023-04-10T08:33:18Z</time>
      </trkpt>
      <trkpt lat="45.45431" lon="5.69557">
        <ele>843</ele>
        <time>2023-04-10T08:33:19Z</time>
      </trkpt>
      <trkpt lat="45.45434" lon="5.69555">
        <ele>843</ele>
        <time>2023-04-10T08:33:20Z</time>
      </trkpt>
      <trkpt lat="45.45441" lon="5.69549">
        <ele>843</ele>
        <time>2023-04-10T08:33:21Z</time>
      </trkpt>
      <trkpt lat="45.45444" lon="5.69546">
        <ele>843</ele>
        <time>2023-04-10T08:33:23Z</time>
      </trkpt>
      <trkpt lat="45.45447" lon="5.69543">
        <ele>843</ele>
        <time>2023-04-10T08:33:24Z</time>
      </trkpt>
      <trkpt lat="45.45451" lon="5.69539">
        <ele>843</ele>
        <time>2023-04-10T08:33:25Z</time>
      </trkpt>
      <trkpt lat="45.45454" lon="5.69537">
        <ele>843</ele>
        <time>2023-04-10T08:33:26Z</time>
      </trkpt>
      <trkpt lat="45.45458" lon="5.69535">
        <ele>843</ele>
        <time>2023-04-10T08:33:27Z</time>
      </trkpt>
      <trkpt lat="45.45461" lon="5.69534">
        <ele>843</ele>
        <time>2023-04-10T08:33:28Z</time>
      </trkpt>
      <trkpt lat="45.45464" lon="5.69532">
        <ele>843</ele>
        <time>2023-04-10T08:33:29Z</time>
      </trkpt>
      <trkpt lat="45.45466" lon="5.6953">
        <ele>843</ele>
        <time>2023-04-10T08:33:30Z</time>
      </trkpt>
      <trkpt lat="45.45469" lon="5.69528">
        <ele>843</ele>
        <time>2023-04-10T08:33:31Z</time>
      </trkpt>
      <trkpt lat="45.45474" lon="5.69525">
        <ele>843</ele>
        <time>2023-04-10T08:33:32Z</time>
      </trkpt>
      <trkpt lat="45.45479" lon="5.69524">
        <ele>843</ele>
        <time>2023-04-10T08:33:33Z</time>
      </trkpt>
      <trkpt lat="45.45489" lon="5.69525">
        <ele>843</ele>
        <time>2023-04-10T08:33:36Z</time>
      </trkpt>
      <trkpt lat="45.45498" lon="5.6953">
        <ele>843</ele>
        <time>2023-04-10T08:33:38Z</time>
      </trkpt>
      <trkpt lat="45.45509" lon="5.69536">
        <ele>843</ele>
        <time>2023-04-10T08:33:41Z</time>
      </trkpt>
      <trkpt lat="45.45518" lon="5.6954">
        <ele>843</ele>
        <time>2023-04-10T08:33:44Z</time>
      </trkpt>
      <trkpt lat="45.45529" lon="5.6954">
        <ele>843</ele>
        <time>2023-04-10T08:33:48Z</time>
      </trkpt>
      <trkpt lat="45.45541" lon="5.69546">
        <ele>843</ele>
        <time>2023-04-10T08:33:51Z</time>
      </trkpt>
      <trkpt lat="45.45552" lon="5.69555">
        <ele>843</ele>
        <time>2023-04-10T08:33:54Z</time>
      </trkpt>
      <trkpt lat="45.45562" lon="5.6956">
        <ele>844</ele>
        <time>2023-04-10T08:33:56Z</time>
      </trkpt>
      <trkpt lat="45.45575" lon="5.69564">
        <ele>843</ele>
        <time>2023-04-10T08:33:58Z</time>
      </trkpt>
      <trkpt lat="45.45587" lon="5.69565">
        <ele>843</ele>
        <time>2023-04-10T08:34:00Z</time>
      </trkpt>
      <trkpt lat="45.45598" lon="5.69565">
        <ele>843</ele>
        <time>2023-04-10T08:34:02Z</time>
      </trkpt>
      <trkpt lat="45.45611" lon="5.6956">
        <ele>843</ele>
        <time>2023-04-10T08:34:04Z</time>
      </trkpt>
      <trkpt lat="45.45625" lon="5.69555">
        <ele>844</ele>
        <time>2023-04-10T08:34:06Z</time>
      </trkpt>
      <trkpt lat="45.4563" lon="5.69552">
        <ele>844</ele>
        <time>2023-04-10T08:34:07Z</time>
      </trkpt>
      <trkpt lat="45.45635" lon="5.69549">
        <ele>844</ele>
        <time>2023-04-10T08:34:08Z</time>
      </trkpt>
      <trkpt lat="45.45639" lon="5.69546">
        <ele>844</ele>
        <time>2023-04-10T08:34:09Z</time>
      </trkpt>
      <trkpt lat="45.45643" lon="5.69545">
        <ele>844</ele>
        <time>2023-04-10T08:34:10Z</time>
      </trkpt>
      <trkpt lat="45.45647" lon="5.69542">
        <ele>844</ele>
        <time>2023-04-10T08:34:11Z</time>
      </trkpt>
      <trkpt lat="45.45651" lon="5.6954">
        <ele>844</ele>
        <time>2023-04-10T08:34:12Z</time>
      </trkpt>
      <trkpt lat="45.45656" lon="5.69536">
        <ele>844</ele>
        <time>2023-04-10T08:34:13Z</time>
      </trkpt>
      <trkpt lat="45.4566" lon="5.69534">
        <ele>845</ele>
        <time>2023-04-10T08:34:14Z</time>
      </trkpt>
      <trkpt lat="45.45663" lon="5.69535">
        <ele>845</ele>
        <time>2023-04-10T08:34:15Z</time>
      </trkpt>
      <trkpt lat="45.45665" lon="5.69539">
        <ele>845</ele>
        <time>2023-04-10T08:34:16Z</time>
      </trkpt>
      <trkpt lat="45.45667" lon="5.69544">
        <ele>845</ele>
        <time>2023-04-10T08:34:17Z</time>
      </trkpt>
      <trkpt lat="45.4567" lon="5.69547">
        <ele>845</ele>
        <time>2023-04-10T08:34:18Z</time>
      </trkpt>
      <trkpt lat="45.45673" lon="5.6955">
        <ele>846</ele>
        <time>2023-04-10T08:34:19Z</time>
      </trkpt>
      <trkpt lat="45.45676" lon="5.6955">
        <ele>846</ele>
        <time>2023-04-10T08:34:20Z</time>
      </trkpt>
      <trkpt lat="45.45679" lon="5.6955">
        <ele>846</ele>
        <time>2023-04-10T08:34:21Z</time>
      </trkpt>
      <trkpt lat="45.45683" lon="5.69551">
        <ele>846</ele>
        <time>2023-04-10T08:34:22Z</time>
      </trkpt>
      <trkpt lat="45.45686" lon="5.69552">
        <ele>847</ele>
        <time>2023-04-10T08:34:23Z</time>
      </trkpt>
      <trkpt lat="45.4569" lon="5.69554">
        <ele>847</ele>
        <time>2023-04-10T08:34:24Z</time>
      </trkpt>
      <trkpt lat="45.45693" lon="5.69557">
        <ele>847</ele>
        <time>2023-04-10T08:34:25Z</time>
      </trkpt>
      <trkpt lat="45.45696" lon="5.69559">
        <ele>847</ele>
        <time>2023-04-10T08:34:26Z</time>
      </trkpt>
      <trkpt lat="45.457" lon="5.69561">
        <ele>847</ele>
        <time>2023-04-10T08:34:27Z</time>
      </trkpt>
      <trkpt lat="45.45711" lon="5.69564">
        <ele>847</ele>
        <time>2023-04-10T08:34:30Z</time>
      </trkpt>
      <trkpt lat="45.4572" lon="5.69572">
        <ele>847</ele>
        <time>2023-04-10T08:34:32Z</time>
      </trkpt>
      <trkpt lat="45.45724" lon="5.69576">
        <ele>847</ele>
        <time>2023-04-10T08:34:33Z</time>
      </trkpt>
      <trkpt lat="45.45729" lon="5.6958">
        <ele>847</ele>
        <time>2023-04-10T08:34:34Z</time>
      </trkpt>
      <trkpt lat="45.45734" lon="5.69584">
        <ele>846</ele>
        <time>2023-04-10T08:34:35Z</time>
      </trkpt>
      <trkpt lat="45.4574" lon="5.69589">
        <ele>846</ele>
        <time>2023-04-10T08:34:36Z</time>
      </trkpt>
      <trkpt lat="45.45748" lon="5.696">
        <ele>846</ele>
        <time>2023-04-10T08:34:38Z</time>
      </trkpt>
      <trkpt lat="45.45752" lon="5.69606">
        <ele>846</ele>
        <time>2023-04-10T08:34:39Z</time>
      </trkpt>
      <trkpt lat="45.45756" lon="5.69613">
        <ele>845</ele>
        <time>2023-04-10T08:34:40Z</time>
      </trkpt>
      <trkpt lat="45.45759" lon="5.6962">
        <ele>845</ele>
        <time>2023-04-10T08:34:41Z</time>
      </trkpt>
      <trkpt lat="45.45762" lon="5.69636">
        <ele>845</ele>
        <time>2023-04-10T08:34:43Z</time>
      </trkpt>
      <trkpt lat="45.45764" lon="5.69653">
        <ele>845</ele>
        <time>2023-04-10T08:34:45Z</time>
      </trkpt>
      <trkpt lat="45.45766" lon="5.69671">
        <ele>844</ele>
        <time>2023-04-10T08:34:47Z</time>
      </trkpt>
      <trkpt lat="45.45766" lon="5.69691">
        <ele>843</ele>
        <time>2023-04-10T08:34:49Z</time>
      </trkpt>
      <trkpt lat="45.45766" lon="5.69713">
        <ele>843</ele>
        <time>2023-04-10T08:34:51Z</time>
      </trkpt>
      <trkpt lat="45.45769" lon="5.69732">
        <ele>842</ele>
        <time>2023-04-10T08:34:53Z</time>
      </trkpt>
      <trkpt lat="45.45771" lon="5.69752">
        <ele>842</ele>
        <time>2023-04-10T08:34:55Z</time>
      </trkpt>
      <trkpt lat="45.45775" lon="5.69772">
        <ele>842</ele>
        <time>2023-04-10T08:34:57Z</time>
      </trkpt>
      <trkpt lat="45.45778" lon="5.69794">
        <ele>842</ele>
        <time>2023-04-10T08:34:59Z</time>
      </trkpt>
      <trkpt lat="45.4578" lon="5.69806">
        <ele>841</ele>
        <time>2023-04-10T08:35:00Z</time>
      </trkpt>
      <trkpt lat="45.45785" lon="5.69829">
        <ele>839</ele>
        <time>2023-04-10T08:35:02Z</time>
      </trkpt>
      <trkpt lat="45.45787" lon="5.69836">
        <ele>838</ele>
        <time>2023-04-10T08:35:03Z</time>
      </trkpt>
      <trkpt lat="45.45788" lon="5.69841">
        <ele>837</ele>
        <time>2023-04-10T08:35:04Z</time>
      </trkpt>
      <trkpt lat="45.45788" lon="5.69845">
        <ele>837</ele>
        <time>2023-04-10T08:35:05Z</time>
      </trkpt>
      <trkpt lat="45.45786" lon="5.69847">
        <ele>836</ele>
        <time>2023-04-10T08:35:06Z</time>
      </trkpt>
      <trkpt lat="45.45784" lon="5.69845">
        <ele>836</ele>
        <time>2023-04-10T08:35:07Z</time>
      </trkpt>
      <trkpt lat="45.45783" lon="5.69842">
        <ele>836</ele>
        <time>2023-04-10T08:35:08Z</time>
      </trkpt>
      <trkpt lat="45.45784" lon="5.69839">
        <ele>836</ele>
        <time>2023-04-10T08:35:09Z</time>
      </trkpt>
      <trkpt lat="45.45786" lon="5.69836">
        <ele>836</ele>
        <time>2023-04-10T08:35:10Z</time>
      </trkpt>
      <trkpt lat="45.45788" lon="5.69834">
        <ele>836</ele>
        <time>2023-04-10T08:35:11Z</time>
      </trkpt>
      <trkpt lat="45.4579" lon="5.69831">
        <ele>836</ele>
        <time>2023-04-10T08:35:12Z</time>
      </trkpt>
      <trkpt lat="45.45792" lon="5.69829">
        <ele>837</ele>
        <time>2023-04-10T08:35:13Z</time>
      </trkpt>
      <trkpt lat="45.45794" lon="5.69827">
        <ele>837</ele>
        <time>2023-04-10T08:35:14Z</time>
      </trkpt>
      <trkpt lat="45.45799" lon="5.69824">
        <ele>837</ele>
        <time>2023-04-10T08:35:15Z</time>
      </trkpt>
      <trkpt lat="45.45802" lon="5.69822">
        <ele>837</ele>
        <time>2023-04-10T08:35:17Z</time>
      </trkpt>
      <trkpt lat="45.45804" lon="5.6982">
        <ele>837</ele>
        <time>2023-04-10T08:35:18Z</time>
      </trkpt>
      <trkpt lat="45.45807" lon="5.69819">
        <ele>838</ele>
        <time>2023-04-10T08:35:19Z</time>
      </trkpt>
      <trkpt lat="45.4581" lon="5.69819">
        <ele>838</ele>
        <time>2023-04-10T08:35:20Z</time>
      </trkpt>
      <trkpt lat="45.45812" lon="5.69818">
        <ele>838</ele>
        <time>2023-04-10T08:35:21Z</time>
      </trkpt>
      <trkpt lat="45.45816" lon="5.69817">
        <ele>838</ele>
        <time>2023-04-10T08:35:22Z</time>
      </trkpt>
      <trkpt lat="45.45819" lon="5.69815">
        <ele>838</ele>
        <time>2023-04-10T08:35:23Z</time>
      </trkpt>
      <trkpt lat="45.45822" lon="5.69814">
        <ele>839</ele>
        <time>2023-04-10T08:35:24Z</time>
      </trkpt>
      <trkpt lat="45.45825" lon="5.69813">
        <ele>839</ele>
        <time>2023-04-10T08:35:25Z</time>
      </trkpt>
      <trkpt lat="45.45827" lon="5.69812">
        <ele>839</ele>
        <time>2023-04-10T08:35:26Z</time>
      </trkpt>
      <trkpt lat="45.4583" lon="5.69813">
        <ele>839</ele>
        <time>2023-04-10T08:35:27Z</time>
      </trkpt>
      <trkpt lat="45.45833" lon="5.69813">
        <ele>840</ele>
        <time>2023-04-10T08:35:28Z</time>
      </trkpt>
      <trkpt lat="45.45845" lon="5.69823">
        <ele>840</ele>
        <time>2023-04-10T08:35:31Z</time>
      </trkpt>
      <trkpt lat="45.45848" lon="5.69828">
        <ele>840</ele>
        <time>2023-04-10T08:35:32Z</time>
      </trkpt>
      <trkpt lat="45.45855" lon="5.69837">
        <ele>840</ele>
        <time>2023-04-10T08:35:34Z</time>
      </trkpt>
      <trkpt lat="45.45866" lon="5.69845">
        <ele>840</ele>
        <time>2023-04-10T08:35:37Z</time>
      </trkpt>
      <trkpt lat="45.45876" lon="5.69845">
        <ele>840</ele>
        <time>2023-04-10T08:35:40Z</time>
      </trkpt>
      <trkpt lat="45.45887" lon="5.69842">
        <ele>839</ele>
        <time>2023-04-10T08:35:44Z</time>
      </trkpt>
      <trkpt lat="45.45895" lon="5.69836">
        <ele>840</ele>
        <time>2023-04-10T08:35:46Z</time>
      </trkpt>
      <trkpt lat="45.45906" lon="5.69833">
        <ele>840</ele>
        <time>2023-04-10T08:35:48Z</time>
      </trkpt>
      <trkpt lat="45.45918" lon="5.69836">
        <ele>840</ele>
        <time>2023-04-10T08:35:50Z</time>
      </trkpt>
      <trkpt lat="45.45934" lon="5.69848">
        <ele>840</ele>
        <time>2023-04-10T08:35:52Z</time>
      </trkpt>
      <trkpt lat="45.4595" lon="5.69862">
        <ele>840</ele>
        <time>2023-04-10T08:35:54Z</time>
      </trkpt>
      <trkpt lat="45.45958" lon="5.69868">
        <ele>840</ele>
        <time>2023-04-10T08:35:55Z</time>
      </trkpt>
      <trkpt lat="45.45969" lon="5.69875">
        <ele>840</ele>
        <time>2023-04-10T08:35:56Z</time>
      </trkpt>
      <trkpt lat="45.45979" lon="5.69882">
        <ele>839</ele>
        <time>2023-04-10T08:35:57Z</time>
      </trkpt>
      <trkpt lat="45.45989" lon="5.6989">
        <ele>838</ele>
        <time>2023-04-10T08:35:58Z</time>
      </trkpt>
      <trkpt lat="45.45998" lon="5.69897">
        <ele>837</ele>
        <time>2023-04-10T08:35:59Z</time>
      </trkpt>
      <trkpt lat="45.46005" lon="5.69906">
        <ele>836</ele>
        <time>2023-04-10T08:36:00Z</time>
      </trkpt>
      <trkpt lat="45.46012" lon="5.69914">
        <ele>836</ele>
        <time>2023-04-10T08:36:01Z</time>
      </trkpt>
      <trkpt lat="45.46017" lon="5.69921">
        <ele>835</ele>
        <time>2023-04-10T08:36:02Z</time>
      </trkpt>
      <trkpt lat="45.46026" lon="5.69924">
        <ele>834</ele>
        <time>2023-04-10T08:36:03Z</time>
      </trkpt>
      <trkpt lat="45.46036" lon="5.69928">
        <ele>834</ele>
        <time>2023-04-10T08:36:04Z</time>
      </trkpt>
      <trkpt lat="45.46045" lon="5.69933">
        <ele>832</ele>
        <time>2023-04-10T08:36:05Z</time>
      </trkpt>
      <trkpt lat="45.46056" lon="5.69938">
        <ele>831</ele>
        <time>2023-04-10T08:36:06Z</time>
      </trkpt>
      <trkpt lat="45.46066" lon="5.69942">
        <ele>831</ele>
        <time>2023-04-10T08:36:07Z</time>
      </trkpt>
      <trkpt lat="45.46081" lon="5.69952">
        <ele>828</ele>
        <time>2023-04-10T08:36:09Z</time>
      </trkpt>
      <trkpt lat="45.46091" lon="5.69968">
        <ele>826</ele>
        <time>2023-04-10T08:36:11Z</time>
      </trkpt>
      <trkpt lat="45.46101" lon="5.69992">
        <ele>825</ele>
        <time>2023-04-10T08:36:12Z</time>
      </trkpt>
      <trkpt lat="45.46105" lon="5.70004">
        <ele>822</ele>
        <time>2023-04-10T08:36:14Z</time>
      </trkpt>
      <trkpt lat="45.46108" lon="5.70017">
        <ele>821</ele>
        <time>2023-04-10T08:36:15Z</time>
      </trkpt>
      <trkpt lat="45.46111" lon="5.70029">
        <ele>821</ele>
        <time>2023-04-10T08:36:16Z</time>
      </trkpt>
      <trkpt lat="45.46114" lon="5.70042">
        <ele>821</ele>
        <time>2023-04-10T08:36:17Z</time>
      </trkpt>
      <trkpt lat="45.46117" lon="5.70054">
        <ele>820</ele>
        <time>2023-04-10T08:36:18Z</time>
      </trkpt>
      <trkpt lat="45.4612" lon="5.70066">
        <ele>819</ele>
        <time>2023-04-10T08:36:19Z</time>
      </trkpt>
      <trkpt lat="45.46123" lon="5.7008">
        <ele>818</ele>
        <time>2023-04-10T08:36:20Z</time>
      </trkpt>
      <trkpt lat="45.46125" lon="5.70094">
        <ele>817</ele>
        <time>2023-04-10T08:36:21Z</time>
      </trkpt>
      <trkpt lat="45.46127" lon="5.70109">
        <ele>815</ele>
        <time>2023-04-10T08:36:22Z</time>
      </trkpt>
      <trkpt lat="45.46129" lon="5.70125">
        <ele>813</ele>
        <time>2023-04-10T08:36:23Z</time>
      </trkpt>
      <trkpt lat="45.4613" lon="5.70141">
        <ele>812</ele>
        <time>2023-04-10T08:36:24Z</time>
      </trkpt>
      <trkpt lat="45.46132" lon="5.70157">
        <ele>810</ele>
        <time>2023-04-10T08:36:25Z</time>
      </trkpt>
      <trkpt lat="45.46133" lon="5.70172">
        <ele>809</ele>
        <time>2023-04-10T08:36:26Z</time>
      </trkpt>
      <trkpt lat="45.46133" lon="5.70186">
        <ele>806</ele>
        <time>2023-04-10T08:36:27Z</time>
      </trkpt>
      <trkpt lat="45.46134" lon="5.70199">
        <ele>803</ele>
        <time>2023-04-10T08:36:28Z</time>
      </trkpt>
      <trkpt lat="45.46134" lon="5.7021">
        <ele>802</ele>
        <time>2023-04-10T08:36:29Z</time>
      </trkpt>
      <trkpt lat="45.46134" lon="5.70219">
        <ele>800</ele>
        <time>2023-04-10T08:36:30Z</time>
      </trkpt>
      <trkpt lat="45.46132" lon="5.70235">
        <ele>798</ele>
        <time>2023-04-10T08:36:31Z</time>
      </trkpt>
      <trkpt lat="45.46129" lon="5.70244">
        <ele>796</ele>
        <time>2023-04-10T08:36:33Z</time>
      </trkpt>
      <trkpt lat="45.46126" lon="5.70254">
        <ele>795</ele>
        <time>2023-04-10T08:36:34Z</time>
      </trkpt>
      <trkpt lat="45.46122" lon="5.70264">
        <ele>794</ele>
        <time>2023-04-10T08:36:35Z</time>
      </trkpt>
      <trkpt lat="45.46117" lon="5.70275">
        <ele>794</ele>
        <time>2023-04-10T08:36:36Z</time>
      </trkpt>
      <trkpt lat="45.46112" lon="5.70288">
        <ele>792</ele>
        <time>2023-04-10T08:36:37Z</time>
      </trkpt>
      <trkpt lat="45.46107" lon="5.70301">
        <ele>791</ele>
        <time>2023-04-10T08:36:38Z</time>
      </trkpt>
      <trkpt lat="45.46101" lon="5.70315">
        <ele>790</ele>
        <time>2023-04-10T08:36:39Z</time>
      </trkpt>
      <trkpt lat="45.46095" lon="5.7033">
        <ele>789</ele>
        <time>2023-04-10T08:36:40Z</time>
      </trkpt>
      <trkpt lat="45.46089" lon="5.70345">
        <ele>787</ele>
        <time>2023-04-10T08:36:41Z</time>
      </trkpt>
      <trkpt lat="45.46083" lon="5.7036">
        <ele>785</ele>
        <time>2023-04-10T08:36:42Z</time>
      </trkpt>
      <trkpt lat="45.46078" lon="5.70374">
        <ele>784</ele>
        <time>2023-04-10T08:36:43Z</time>
      </trkpt>
      <trkpt lat="45.46073" lon="5.70386">
        <ele>782</ele>
        <time>2023-04-10T08:36:44Z</time>
      </trkpt>
      <trkpt lat="45.46069" lon="5.70396">
        <ele>779</ele>
        <time>2023-04-10T08:36:45Z</time>
      </trkpt>
      <trkpt lat="45.46065" lon="5.70406">
        <ele>778</ele>
        <time>2023-04-10T08:36:46Z</time>
      </trkpt>
      <trkpt lat="45.46061" lon="5.70414">
        <ele>777</ele>
        <time>2023-04-10T08:36:47Z</time>
      </trkpt>
      <trkpt lat="45.46055" lon="5.70421">
        <ele>776</ele>
        <time>2023-04-10T08:36:48Z</time>
      </trkpt>
      <trkpt lat="45.4605" lon="5.70427">
        <ele>776</ele>
        <time>2023-04-10T08:36:49Z</time>
      </trkpt>
      <trkpt lat="45.46045" lon="5.70433">
        <ele>776</ele>
        <time>2023-04-10T08:36:50Z</time>
      </trkpt>
      <trkpt lat="45.4604" lon="5.70441">
        <ele>775</ele>
        <time>2023-04-10T08:36:51Z</time>
      </trkpt>
      <trkpt lat="45.46037" lon="5.70448">
        <ele>774</ele>
        <time>2023-04-10T08:36:52Z</time>
      </trkpt>
      <trkpt lat="45.46035" lon="5.70456">
        <ele>774</ele>
        <time>2023-04-10T08:36:53Z</time>
      </trkpt>
      <trkpt lat="45.46033" lon="5.70464">
        <ele>774</ele>
        <time>2023-04-10T08:36:54Z</time>
      </trkpt>
      <trkpt lat="45.46031" lon="5.70473">
        <ele>774</ele>
        <time>2023-04-10T08:36:55Z</time>
      </trkpt>
      <trkpt lat="45.4603" lon="5.7048">
        <ele>774</ele>
        <time>2023-04-10T08:36:56Z</time>
      </trkpt>
      <trkpt lat="45.4603" lon="5.70487">
        <ele>774</ele>
        <time>2023-04-10T08:36:57Z</time>
      </trkpt>
      <trkpt lat="45.46032" lon="5.70492">
        <ele>774</ele>
        <time>2023-04-10T08:36:58Z</time>
      </trkpt>
      <trkpt lat="45.46034" lon="5.70497">
        <ele>774</ele>
        <time>2023-04-10T08:36:59Z</time>
      </trkpt>
      <trkpt lat="45.46038" lon="5.70499">
        <ele>773</ele>
        <time>2023-04-10T08:37:00Z</time>
      </trkpt>
      <trkpt lat="45.46043" lon="5.705">
        <ele>773</ele>
        <time>2023-04-10T08:37:01Z</time>
      </trkpt>
      <trkpt lat="45.46047" lon="5.70501">
        <ele>773</ele>
        <time>2023-04-10T08:37:02Z</time>
      </trkpt>
      <trkpt lat="45.46052" lon="5.70502">
        <ele>773</ele>
        <time>2023-04-10T08:37:03Z</time>
      </trkpt>
      <trkpt lat="45.46058" lon="5.70503">
        <ele>773</ele>
        <time>2023-04-10T08:37:04Z</time>
      </trkpt>
      <trkpt lat="45.46064" lon="5.70505">
        <ele>773</ele>
        <time>2023-04-10T08:37:05Z</time>
      </trkpt>
      <trkpt lat="45.46069" lon="5.70508">
        <ele>773</ele>
        <time>2023-04-10T08:37:06Z</time>
      </trkpt>
      <trkpt lat="45.46075" lon="5.7051">
        <ele>773</ele>
        <time>2023-04-10T08:37:07Z</time>
      </trkpt>
      <trkpt lat="45.46081" lon="5.70512">
        <ele>773</ele>
        <time>2023-04-10T08:37:08Z</time>
      </trkpt>
      <trkpt lat="45.46087" lon="5.70515">
        <ele>773</ele>
        <time>2023-04-10T08:37:09Z</time>
      </trkpt>
      <trkpt lat="45.46093" lon="5.70517">
        <ele>773</ele>
        <time>2023-04-10T08:37:10Z</time>
      </trkpt>
      <trkpt lat="45.461" lon="5.7052">
        <ele>773</ele>
        <time>2023-04-10T08:37:11Z</time>
      </trkpt>
      <trkpt lat="45.46106" lon="5.70523">
        <ele>772</ele>
        <time>2023-04-10T08:37:12Z</time>
      </trkpt>
      <trkpt lat="45.46112" lon="5.70525">
        <ele>772</ele>
        <time>2023-04-10T08:37:13Z</time>
      </trkpt>
      <trkpt lat="45.46118" lon="5.70528">
        <ele>772</ele>
        <time>2023-04-10T08:37:14Z</time>
      </trkpt>
      <trkpt lat="45.46125" lon="5.7053">
        <ele>772</ele>
        <time>2023-04-10T08:37:15Z</time>
      </trkpt>
      <trkpt lat="45.46131" lon="5.70533">
        <ele>772</ele>
        <time>2023-04-10T08:37:16Z</time>
      </trkpt>
      <trkpt lat="45.46137" lon="5.70535">
        <ele>771</ele>
        <time>2023-04-10T08:37:17Z</time>
      </trkpt>
      <trkpt lat="45.46144" lon="5.70538">
        <ele>771</ele>
        <time>2023-04-10T08:37:18Z</time>
      </trkpt>
      <trkpt lat="45.4615" lon="5.7054">
        <ele>771</ele>
        <time>2023-04-10T08:37:19Z</time>
      </trkpt>
      <trkpt lat="45.46157" lon="5.70542">
        <ele>771</ele>
        <time>2023-04-10T08:37:20Z</time>
      </trkpt>
      <trkpt lat="45.46164" lon="5.70544">
        <ele>771</ele>
        <time>2023-04-10T08:37:21Z</time>
      </trkpt>
      <trkpt lat="45.4617" lon="5.70546">
        <ele>771</ele>
        <time>2023-04-10T08:37:22Z</time>
      </trkpt>
      <trkpt lat="45.46177" lon="5.70548">
        <ele>771</ele>
        <time>2023-04-10T08:37:23Z</time>
      </trkpt>
      <trkpt lat="45.46184" lon="5.70551">
        <ele>771</ele>
        <time>2023-04-10T08:37:24Z</time>
      </trkpt>
      <trkpt lat="45.46191" lon="5.70553">
        <ele>770</ele>
        <time>2023-04-10T08:37:25Z</time>
      </trkpt>
      <trkpt lat="45.46198" lon="5.70555">
        <ele>770</ele>
        <time>2023-04-10T08:37:26Z</time>
      </trkpt>
      <trkpt lat="45.46205" lon="5.70557">
        <ele>770</ele>
        <time>2023-04-10T08:37:27Z</time>
      </trkpt>
      <trkpt lat="45.46218" lon="5.70562">
        <ele>770</ele>
        <time>2023-04-10T08:37:28Z</time>
      </trkpt>
      <trkpt lat="45.46226" lon="5.70564">
        <ele>770</ele>
        <time>2023-04-10T08:37:30Z</time>
      </trkpt>
      <trkpt lat="45.46233" lon="5.70566">
        <ele>770</ele>
        <time>2023-04-10T08:37:31Z</time>
      </trkpt>
      <trkpt lat="45.4624" lon="5.70568">
        <ele>770</ele>
        <time>2023-04-10T08:37:32Z</time>
      </trkpt>
      <trkpt lat="45.46247" lon="5.70572">
        <ele>770</ele>
        <time>2023-04-10T08:37:33Z</time>
      </trkpt>
      <trkpt lat="45.46254" lon="5.70577">
        <ele>770</ele>
        <time>2023-04-10T08:37:34Z</time>
      </trkpt>
      <trkpt lat="45.46261" lon="5.70581">
        <ele>770</ele>
        <time>2023-04-10T08:37:35Z</time>
      </trkpt>
      <trkpt lat="45.46267" lon="5.70584">
        <ele>770</ele>
        <time>2023-04-10T08:37:36Z</time>
      </trkpt>
      <trkpt lat="45.46274" lon="5.70586">
        <ele>769</ele>
        <time>2023-04-10T08:37:37Z</time>
      </trkpt>
      <trkpt lat="45.4628" lon="5.70588">
        <ele>769</ele>
        <time>2023-04-10T08:37:38Z</time>
      </trkpt>
      <trkpt lat="45.46286" lon="5.70589">
        <ele>769</ele>
        <time>2023-04-10T08:37:39Z</time>
      </trkpt>
      <trkpt lat="45.46293" lon="5.70591">
        <ele>769</ele>
        <time>2023-04-10T08:37:40Z</time>
      </trkpt>
      <trkpt lat="45.463" lon="5.70593">
        <ele>769</ele>
        <time>2023-04-10T08:37:41Z</time>
      </trkpt>
      <trkpt lat="45.46307" lon="5.70595">
        <ele>769</ele>
        <time>2023-04-10T08:37:42Z</time>
      </trkpt>
      <trkpt lat="45.46314" lon="5.70596">
        <ele>769</ele>
        <time>2023-04-10T08:37:43Z</time>
      </trkpt>
      <trkpt lat="45.46321" lon="5.70597">
        <ele>769</ele>
        <time>2023-04-10T08:37:44Z</time>
      </trkpt>
      <trkpt lat="45.46328" lon="5.70598">
        <ele>769</ele>
        <time>2023-04-10T08:37:45Z</time>
      </trkpt>
      <trkpt lat="45.46335" lon="5.70599">
        <ele>769</ele>
        <time>2023-04-10T08:37:46Z</time>
      </trkpt>
      <trkpt lat="45.46342" lon="5.70599">
        <ele>769</ele>
        <time>2023-04-10T08:37:47Z</time>
      </trkpt>
      <trkpt lat="45.46349" lon="5.70599">
        <ele>769</ele>
        <time>2023-04-10T08:37:48Z</time>
      </trkpt>
      <trkpt lat="45.46357" lon="5.70598">
        <ele>769</ele>
        <time>2023-04-10T08:37:49Z</time>
      </trkpt>
      <trkpt lat="45.46365" lon="5.70597">
        <ele>768</ele>
        <time>2023-04-10T08:37:50Z</time>
      </trkpt>
      <trkpt lat="45.46372" lon="5.70595">
        <ele>768</ele>
        <time>2023-04-10T08:37:51Z</time>
      </trkpt>
      <trkpt lat="45.46381" lon="5.70593">
        <ele>767</ele>
        <time>2023-04-10T08:37:52Z</time>
      </trkpt>
      <trkpt lat="45.46389" lon="5.70591">
        <ele>767</ele>
        <time>2023-04-10T08:37:53Z</time>
      </trkpt>
      <trkpt lat="45.46398" lon="5.70589">
        <ele>767</ele>
        <time>2023-04-10T08:37:54Z</time>
      </trkpt>
      <trkpt lat="45.46407" lon="5.70588">
        <ele>767</ele>
        <time>2023-04-10T08:37:55Z</time>
      </trkpt>
      <trkpt lat="45.46416" lon="5.70586">
        <ele>766</ele>
        <time>2023-04-10T08:37:56Z</time>
      </trkpt>
      <trkpt lat="45.46425" lon="5.70584">
        <ele>765</ele>
        <time>2023-04-10T08:37:57Z</time>
      </trkpt>
      <trkpt lat="45.46434" lon="5.70583">
        <ele>764</ele>
        <time>2023-04-10T08:37:58Z</time>
      </trkpt>
      <trkpt lat="45.46443" lon="5.70582">
        <ele>764</ele>
        <time>2023-04-10T08:37:59Z</time>
      </trkpt>
      <trkpt lat="45.46452" lon="5.7058">
        <ele>764</ele>
        <time>2023-04-10T08:38:00Z</time>
      </trkpt>
      <trkpt lat="45.46461" lon="5.7058">
        <ele>764</ele>
        <time>2023-04-10T08:38:01Z</time>
      </trkpt>
      <trkpt lat="45.46469" lon="5.70579">
        <ele>764</ele>
        <time>2023-04-10T08:38:02Z</time>
      </trkpt>
      <trkpt lat="45.46477" lon="5.70579">
        <ele>764</ele>
        <time>2023-04-10T08:38:03Z</time>
      </trkpt>
      <trkpt lat="45.46484" lon="5.70578">
        <ele>764</ele>
        <time>2023-04-10T08:38:04Z</time>
      </trkpt>
      <trkpt lat="45.46491" lon="5.70578">
        <ele>764</ele>
        <time>2023-04-10T08:38:05Z</time>
      </trkpt>
      <trkpt lat="45.46501" lon="5.70579">
        <ele>764</ele>
        <time>2023-04-10T08:38:06Z</time>
      </trkpt>
      <trkpt lat="45.46508" lon="5.70581">
        <ele>764</ele>
        <time>2023-04-10T08:38:08Z</time>
      </trkpt>
      <trkpt lat="45.46514" lon="5.70582">
        <ele>763</ele>
        <time>2023-04-10T08:38:09Z</time>
      </trkpt>
      <trkpt lat="45.46521" lon="5.70583">
        <ele>763</ele>
        <time>2023-04-10T08:38:10Z</time>
      </trkpt>
      <trkpt lat="45.46528" lon="5.70585">
        <ele>762</ele>
        <time>2023-04-10T08:38:11Z</time>
      </trkpt>
      <trkpt lat="45.46535" lon="5.70586">
        <ele>762</ele>
        <time>2023-04-10T08:38:12Z</time>
      </trkpt>
      <trkpt lat="45.46543" lon="5.70587">
        <ele>762</ele>
        <time>2023-04-10T08:38:13Z</time>
      </trkpt>
      <trkpt lat="45.4655" lon="5.70588">
        <ele>762</ele>
        <time>2023-04-10T08:38:14Z</time>
      </trkpt>
      <trkpt lat="45.46557" lon="5.70589">
        <ele>762</ele>
        <time>2023-04-10T08:38:15Z</time>
      </trkpt>
      <trkpt lat="45.46564" lon="5.7059">
        <ele>762</ele>
        <time>2023-04-10T08:38:16Z</time>
      </trkpt>
      <trkpt lat="45.46571" lon="5.70591">
        <ele>762</ele>
        <time>2023-04-10T08:38:17Z</time>
      </trkpt>
      <trkpt lat="45.46578" lon="5.70592">
        <ele>762</ele>
        <time>2023-04-10T08:38:18Z</time>
      </trkpt>
      <trkpt lat="45.46583" lon="5.70593">
        <ele>762</ele>
        <time>2023-04-10T08:38:19Z</time>
      </trkpt>
      <trkpt lat="45.46586" lon="5.70596">
        <ele>762</ele>
        <time>2023-04-10T08:38:20Z</time>
      </trkpt>
      <trkpt lat="45.46587" lon="5.706">
        <ele>762</ele>
        <time>2023-04-10T08:38:21Z</time>
      </trkpt>
      <trkpt lat="45.46588" lon="5.70603">
        <ele>762</ele>
        <time>2023-04-10T08:38:22Z</time>
      </trkpt>
      <trkpt lat="45.46589" lon="5.70607">
        <ele>762</ele>
        <time>2023-04-10T08:38:23Z</time>
      </trkpt>
      <trkpt lat="45.46591" lon="5.70613">
        <ele>762</ele>
        <time>2023-04-10T08:38:24Z</time>
      </trkpt>
      <trkpt lat="45.46592" lon="5.70619">
        <ele>761</ele>
        <time>2023-04-10T08:38:25Z</time>
      </trkpt>
      <trkpt lat="45.46594" lon="5.70626">
        <ele>761</ele>
        <time>2023-04-10T08:38:26Z</time>
      </trkpt>
      <trkpt lat="45.46595" lon="5.70634">
        <ele>761</ele>
        <time>2023-04-10T08:38:27Z</time>
      </trkpt>
      <trkpt lat="45.46597" lon="5.70642">
        <ele>761</ele>
        <time>2023-04-10T08:38:28Z</time>
      </trkpt>
      <trkpt lat="45.46599" lon="5.70652">
        <ele>761</ele>
        <time>2023-04-10T08:38:29Z</time>
      </trkpt>
      <trkpt lat="45.46599" lon="5.70661">
        <ele>761</ele>
        <time>2023-04-10T08:38:30Z</time>
      </trkpt>
      <trkpt lat="45.46599" lon="5.70671">
        <ele>761</ele>
        <time>2023-04-10T08:38:31Z</time>
      </trkpt>
      <trkpt lat="45.46599" lon="5.70687">
        <ele>762</ele>
        <time>2023-04-10T08:38:32Z</time>
      </trkpt>
      <trkpt lat="45.46598" lon="5.70696">
        <ele>762</ele>
        <time>2023-04-10T08:38:34Z</time>
      </trkpt>
      <trkpt lat="45.46596" lon="5.70706">
        <ele>761</ele>
        <time>2023-04-10T08:38:35Z</time>
      </trkpt>
      <trkpt lat="45.46596" lon="5.70715">
        <ele>761</ele>
        <time>2023-04-10T08:38:36Z</time>
      </trkpt>
      <trkpt lat="45.46596" lon="5.70727">
        <ele>760</ele>
        <time>2023-04-10T08:38:37Z</time>
      </trkpt>
      <trkpt lat="45.46595" lon="5.70739">
        <ele>760</ele>
        <time>2023-04-10T08:38:38Z</time>
      </trkpt>
      <trkpt lat="45.46595" lon="5.7075">
        <ele>760</ele>
        <time>2023-04-10T08:38:39Z</time>
      </trkpt>
      <trkpt lat="45.46596" lon="5.70761">
        <ele>760</ele>
        <time>2023-04-10T08:38:40Z</time>
      </trkpt>
      <trkpt lat="45.46595" lon="5.70774">
        <ele>759</ele>
        <time>2023-04-10T08:38:41Z</time>
      </trkpt>
      <trkpt lat="45.46594" lon="5.70787">
        <ele>758</ele>
        <time>2023-04-10T08:38:42Z</time>
      </trkpt>
      <trkpt lat="45.46593" lon="5.70799">
        <ele>758</ele>
        <time>2023-04-10T08:38:43Z</time>
      </trkpt>
      <trkpt lat="45.46592" lon="5.7081">
        <ele>758</ele>
        <time>2023-04-10T08:38:44Z</time>
      </trkpt>
      <trkpt lat="45.46589" lon="5.70822">
        <ele>757</ele>
        <time>2023-04-10T08:38:45Z</time>
      </trkpt>
      <trkpt lat="45.4658" lon="5.7084">
        <ele>755</ele>
        <time>2023-04-10T08:38:47Z</time>
      </trkpt>
      <trkpt lat="45.46576" lon="5.70847">
        <ele>754</ele>
        <time>2023-04-10T08:38:48Z</time>
      </trkpt>
      <trkpt lat="45.46572" lon="5.70855">
        <ele>754</ele>
        <time>2023-04-10T08:38:49Z</time>
      </trkpt>
      <trkpt lat="45.46567" lon="5.70864">
        <ele>753</ele>
        <time>2023-04-10T08:38:50Z</time>
      </trkpt>
      <trkpt lat="45.46563" lon="5.70873">
        <ele>752</ele>
        <time>2023-04-10T08:38:51Z</time>
      </trkpt>
      <trkpt lat="45.46558" lon="5.70881">
        <ele>752</ele>
        <time>2023-04-10T08:38:52Z</time>
      </trkpt>
      <trkpt lat="45.46554" lon="5.70889">
        <ele>752</ele>
        <time>2023-04-10T08:38:53Z</time>
      </trkpt>
      <trkpt lat="45.46551" lon="5.70895">
        <ele>752</ele>
        <time>2023-04-10T08:38:54Z</time>
      </trkpt>
      <trkpt lat="45.46547" lon="5.70902">
        <ele>752</ele>
        <time>2023-04-10T08:38:55Z</time>
      </trkpt>
      <trkpt lat="45.46543" lon="5.70909">
        <ele>752</ele>
        <time>2023-04-10T08:38:56Z</time>
      </trkpt>
      <trkpt lat="45.4654" lon="5.70916">
        <ele>752</ele>
        <time>2023-04-10T08:38:57Z</time>
      </trkpt>
      <trkpt lat="45.46536" lon="5.70923">
        <ele>752</ele>
        <time>2023-04-10T08:38:58Z</time>
      </trkpt>
      <trkpt lat="45.46533" lon="5.7093">
        <ele>751</ele>
        <time>2023-04-10T08:38:59Z</time>
      </trkpt>
      <trkpt lat="45.46529" lon="5.70937">
        <ele>751</ele>
        <time>2023-04-10T08:39:00Z</time>
      </trkpt>
      <trkpt lat="45.46525" lon="5.70945">
        <ele>751</ele>
        <time>2023-04-10T08:39:01Z</time>
      </trkpt>
      <trkpt lat="45.46521" lon="5.70952">
        <ele>751</ele>
        <time>2023-04-10T08:39:02Z</time>
      </trkpt>
      <trkpt lat="45.46516" lon="5.70959">
        <ele>751</ele>
        <time>2023-04-10T08:39:03Z</time>
      </trkpt>
      <trkpt lat="45.46512" lon="5.70966">
        <ele>751</ele>
        <time>2023-04-10T08:39:04Z</time>
      </trkpt>
      <trkpt lat="45.46508" lon="5.70973">
        <ele>751</ele>
        <time>2023-04-10T08:39:05Z</time>
      </trkpt>
      <trkpt lat="45.46503" lon="5.7098">
        <ele>751</ele>
        <time>2023-04-10T08:39:06Z</time>
      </trkpt>
      <trkpt lat="45.46499" lon="5.70987">
        <ele>751</ele>
        <time>2023-04-10T08:39:07Z</time>
      </trkpt>
      <trkpt lat="45.46495" lon="5.70994">
        <ele>751</ele>
        <time>2023-04-10T08:39:08Z</time>
      </trkpt>
      <trkpt lat="45.46491" lon="5.71001">
        <ele>751</ele>
        <time>2023-04-10T08:39:09Z</time>
      </trkpt>
      <trkpt lat="45.46487" lon="5.71009">
        <ele>751</ele>
        <time>2023-04-10T08:39:10Z</time>
      </trkpt>
      <trkpt lat="45.46482" lon="5.71016">
        <ele>750</ele>
        <time>2023-04-10T08:39:11Z</time>
      </trkpt>
      <trkpt lat="45.46478" lon="5.71023">
        <ele>750</ele>
        <time>2023-04-10T08:39:12Z</time>
      </trkpt>
      <trkpt lat="45.46473" lon="5.7103">
        <ele>750</ele>
        <time>2023-04-10T08:39:13Z</time>
      </trkpt>
      <trkpt lat="45.46469" lon="5.71038">
        <ele>750</ele>
        <time>2023-04-10T08:39:14Z</time>
      </trkpt>
      <trkpt lat="45.46464" lon="5.71046">
        <ele>750</ele>
        <time>2023-04-10T08:39:15Z</time>
      </trkpt>
      <trkpt lat="45.4646" lon="5.71053">
        <ele>749</ele>
        <time>2023-04-10T08:39:16Z</time>
      </trkpt>
      <trkpt lat="45.46458" lon="5.71057">
        <ele>749</ele>
        <time>2023-04-10T08:39:17Z</time>
      </trkpt>
      <trkpt lat="45.46458" lon="5.71061">
        <ele>748</ele>
        <time>2023-04-10T08:39:18Z</time>
      </trkpt>
      <trkpt lat="45.46459" lon="5.71067">
        <ele>747</ele>
        <time>2023-04-10T08:39:19Z</time>
      </trkpt>
      <trkpt lat="45.46461" lon="5.71075">
        <ele>746</ele>
        <time>2023-04-10T08:39:20Z</time>
      </trkpt>
      <trkpt lat="45.46463" lon="5.71085">
        <ele>745</ele>
        <time>2023-04-10T08:39:21Z</time>
      </trkpt>
      <trkpt lat="45.46468" lon="5.7111">
        <ele>744</ele>
        <time>2023-04-10T08:39:22Z</time>
      </trkpt>
      <trkpt lat="45.46471" lon="5.71123">
        <ele>742</ele>
        <time>2023-04-10T08:39:24Z</time>
      </trkpt>
      <trkpt lat="45.46473" lon="5.71137">
        <ele>741</ele>
        <time>2023-04-10T08:39:25Z</time>
      </trkpt>
      <trkpt lat="45.46475" lon="5.71152">
        <ele>739</ele>
        <time>2023-04-10T08:39:26Z</time>
      </trkpt>
      <trkpt lat="45.46478" lon="5.71166">
        <ele>738</ele>
        <time>2023-04-10T08:39:27Z</time>
      </trkpt>
      <trkpt lat="45.4648" lon="5.71181">
        <ele>737</ele>
        <time>2023-04-10T08:39:28Z</time>
      </trkpt>
      <trkpt lat="45.46483" lon="5.71195">
        <ele>736</ele>
        <time>2023-04-10T08:39:29Z</time>
      </trkpt>
      <trkpt lat="45.46485" lon="5.71208">
        <ele>735</ele>
        <time>2023-04-10T08:39:30Z</time>
      </trkpt>
      <trkpt lat="45.46488" lon="5.71222">
        <ele>735</ele>
        <time>2023-04-10T08:39:31Z</time>
      </trkpt>
      <trkpt lat="45.4649" lon="5.71235">
        <ele>735</ele>
        <time>2023-04-10T08:39:32Z</time>
      </trkpt>
      <trkpt lat="45.46492" lon="5.71247">
        <ele>735</ele>
        <time>2023-04-10T08:39:33Z</time>
      </trkpt>
      <trkpt lat="45.46494" lon="5.7126">
        <ele>735</ele>
        <time>2023-04-10T08:39:34Z</time>
      </trkpt>
      <trkpt lat="45.46495" lon="5.71272">
        <ele>735</ele>
        <time>2023-04-10T08:39:35Z</time>
      </trkpt>
      <trkpt lat="45.46497" lon="5.71284">
        <ele>734</ele>
        <time>2023-04-10T08:39:36Z</time>
      </trkpt>
      <trkpt lat="45.46499" lon="5.71295">
        <ele>733</ele>
        <time>2023-04-10T08:39:37Z</time>
      </trkpt>
      <trkpt lat="45.46502" lon="5.71306">
        <ele>733</ele>
        <time>2023-04-10T08:39:38Z</time>
      </trkpt>
      <trkpt lat="45.46502" lon="5.71318">
        <ele>733</ele>
        <time>2023-04-10T08:39:39Z</time>
      </trkpt>
      <trkpt lat="45.46501" lon="5.7133">
        <ele>732</ele>
        <time>2023-04-10T08:39:40Z</time>
      </trkpt>
      <trkpt lat="45.46499" lon="5.71342">
        <ele>731</ele>
        <time>2023-04-10T08:39:41Z</time>
      </trkpt>
      <trkpt lat="45.46497" lon="5.71355">
        <ele>730</ele>
        <time>2023-04-10T08:39:42Z</time>
      </trkpt>
      <trkpt lat="45.46494" lon="5.71368">
        <ele>729</ele>
        <time>2023-04-10T08:39:43Z</time>
      </trkpt>
      <trkpt lat="45.46491" lon="5.71382">
        <ele>728</ele>
        <time>2023-04-10T08:39:44Z</time>
      </trkpt>
      <trkpt lat="45.46487" lon="5.71396">
        <ele>726</ele>
        <time>2023-04-10T08:39:45Z</time>
      </trkpt>
      <trkpt lat="45.46485" lon="5.7141">
        <ele>724</ele>
        <time>2023-04-10T08:39:46Z</time>
      </trkpt>
      <trkpt lat="45.46483" lon="5.71423">
        <ele>724</ele>
        <time>2023-04-10T08:39:47Z</time>
      </trkpt>
      <trkpt lat="45.46481" lon="5.71433">
        <ele>723</ele>
        <time>2023-04-10T08:39:48Z</time>
      </trkpt>
      <trkpt lat="45.4648" lon="5.71441">
        <ele>722</ele>
        <time>2023-04-10T08:39:49Z</time>
      </trkpt>
      <trkpt lat="45.46479" lon="5.71448">
        <ele>722</ele>
        <time>2023-04-10T08:39:50Z</time>
      </trkpt>
      <trkpt lat="45.46478" lon="5.71455">
        <ele>721</ele>
        <time>2023-04-10T08:39:51Z</time>
      </trkpt>
      <trkpt lat="45.46478" lon="5.71464">
        <ele>721</ele>
        <time>2023-04-10T08:39:52Z</time>
      </trkpt>
      <trkpt lat="45.46478" lon="5.71473">
        <ele>721</ele>
        <time>2023-04-10T08:39:53Z</time>
      </trkpt>
      <trkpt lat="45.46479" lon="5.71483">
        <ele>721</ele>
        <time>2023-04-10T08:39:54Z</time>
      </trkpt>
      <trkpt lat="45.46479" lon="5.71493">
        <ele>721</ele>
        <time>2023-04-10T08:39:55Z</time>
      </trkpt>
      <trkpt lat="45.46479" lon="5.71504">
        <ele>720</ele>
        <time>2023-04-10T08:39:56Z</time>
      </trkpt>
      <trkpt lat="45.46479" lon="5.71516">
        <ele>719</ele>
        <time>2023-04-10T08:39:57Z</time>
      </trkpt>
      <trkpt lat="45.46479" lon="5.71528">
        <ele>719</ele>
        <time>2023-04-10T08:39:58Z</time>
      </trkpt>
      <trkpt lat="45.46478" lon="5.7154">
        <ele>719</ele>
        <time>2023-04-10T08:39:59Z</time>
      </trkpt>
      <trkpt lat="45.46477" lon="5.71564">
        <ele>719</ele>
        <time>2023-04-10T08:40:00Z</time>
      </trkpt>
      <trkpt lat="45.46477" lon="5.71574">
        <ele>718</ele>
        <time>2023-04-10T08:40:02Z</time>
      </trkpt>
      <trkpt lat="45.46476" lon="5.71582">
        <ele>717</ele>
        <time>2023-04-10T08:40:03Z</time>
      </trkpt>
      <trkpt lat="45.46477" lon="5.7159">
        <ele>716</ele>
        <time>2023-04-10T08:40:04Z</time>
      </trkpt>
      <trkpt lat="45.46479" lon="5.71596">
        <ele>715</ele>
        <time>2023-04-10T08:40:05Z</time>
      </trkpt>
      <trkpt lat="45.46483" lon="5.716">
        <ele>715</ele>
        <time>2023-04-10T08:40:06Z</time>
      </trkpt>
      <trkpt lat="45.46488" lon="5.71603">
        <ele>714</ele>
        <time>2023-04-10T08:40:07Z</time>
      </trkpt>
      <trkpt lat="45.46494" lon="5.71604">
        <ele>713</ele>
        <time>2023-04-10T08:40:08Z</time>
      </trkpt>
      <trkpt lat="45.465" lon="5.71606">
        <ele>713</ele>
        <time>2023-04-10T08:40:09Z</time>
      </trkpt>
      <trkpt lat="45.46507" lon="5.71609">
        <ele>712</ele>
        <time>2023-04-10T08:40:10Z</time>
      </trkpt>
      <trkpt lat="45.46514" lon="5.71612">
        <ele>712</ele>
        <time>2023-04-10T08:40:11Z</time>
      </trkpt>
      <trkpt lat="45.46521" lon="5.71615">
        <ele>711</ele>
        <time>2023-04-10T08:40:12Z</time>
      </trkpt>
      <trkpt lat="45.46528" lon="5.71618">
        <ele>711</ele>
        <time>2023-04-10T08:40:13Z</time>
      </trkpt>
      <trkpt lat="45.46536" lon="5.71621">
        <ele>710</ele>
        <time>2023-04-10T08:40:14Z</time>
      </trkpt>
      <trkpt lat="45.46544" lon="5.71624">
        <ele>709</ele>
        <time>2023-04-10T08:40:15Z</time>
      </trkpt>
      <trkpt lat="45.46552" lon="5.71628">
        <ele>708</ele>
        <time>2023-04-10T08:40:16Z</time>
      </trkpt>
      <trkpt lat="45.4656" lon="5.71632">
        <ele>708</ele>
        <time>2023-04-10T08:40:17Z</time>
      </trkpt>
      <trkpt lat="45.46568" lon="5.71636">
        <ele>708</ele>
        <time>2023-04-10T08:40:18Z</time>
      </trkpt>
      <trkpt lat="45.46576" lon="5.71639">
        <ele>708</ele>
        <time>2023-04-10T08:40:19Z</time>
      </trkpt>
      <trkpt lat="45.46585" lon="5.71643">
        <ele>708</ele>
        <time>2023-04-10T08:40:20Z</time>
      </trkpt>
      <trkpt lat="45.46594" lon="5.71647">
        <ele>708</ele>
        <time>2023-04-10T08:40:21Z</time>
      </trkpt>
      <trkpt lat="45.46603" lon="5.71652">
        <ele>707</ele>
        <time>2023-04-10T08:40:22Z</time>
      </trkpt>
      <trkpt lat="45.46613" lon="5.71656">
        <ele>707</ele>
        <time>2023-04-10T08:40:23Z</time>
      </trkpt>
      <trkpt lat="45.46623" lon="5.71661">
        <ele>706</ele>
        <time>2023-04-10T08:40:24Z</time>
      </trkpt>
      <trkpt lat="45.46632" lon="5.71667">
        <ele>706</ele>
        <time>2023-04-10T08:40:25Z</time>
      </trkpt>
      <trkpt lat="45.46641" lon="5.71674">
        <ele>706</ele>
        <time>2023-04-10T08:40:26Z</time>
      </trkpt>
      <trkpt lat="45.4665" lon="5.71683">
        <ele>706</ele>
        <time>2023-04-10T08:40:27Z</time>
      </trkpt>
      <trkpt lat="45.46659" lon="5.71692">
        <ele>705</ele>
        <time>2023-04-10T08:40:28Z</time>
      </trkpt>
      <trkpt lat="45.46667" lon="5.71702">
        <ele>704</ele>
        <time>2023-04-10T08:40:29Z</time>
      </trkpt>
      <trkpt lat="45.46674" lon="5.71713">
        <ele>704</ele>
        <time>2023-04-10T08:40:30Z</time>
      </trkpt>
      <trkpt lat="45.46682" lon="5.71724">
        <ele>703</ele>
        <time>2023-04-10T08:40:31Z</time>
      </trkpt>
      <trkpt lat="45.46689" lon="5.71734">
        <ele>702</ele>
        <time>2023-04-10T08:40:32Z</time>
      </trkpt>
      <trkpt lat="45.46696" lon="5.71745">
        <ele>702</ele>
        <time>2023-04-10T08:40:33Z</time>
      </trkpt>
      <trkpt lat="45.46703" lon="5.71755">
        <ele>702</ele>
        <time>2023-04-10T08:40:34Z</time>
      </trkpt>
      <trkpt lat="45.4671" lon="5.71765">
        <ele>702</ele>
        <time>2023-04-10T08:40:35Z</time>
      </trkpt>
      <trkpt lat="45.46718" lon="5.71774">
        <ele>701</ele>
        <time>2023-04-10T08:40:36Z</time>
      </trkpt>
      <trkpt lat="45.46726" lon="5.71782">
        <ele>700</ele>
        <time>2023-04-10T08:40:37Z</time>
      </trkpt>
      <trkpt lat="45.46745" lon="5.71793">
        <ele>700</ele>
        <time>2023-04-10T08:40:38Z</time>
      </trkpt>
      <trkpt lat="45.46755" lon="5.71797">
        <ele>699</ele>
        <time>2023-04-10T08:40:40Z</time>
      </trkpt>
      <trkpt lat="45.46764" lon="5.71801">
        <ele>699</ele>
        <time>2023-04-10T08:40:41Z</time>
      </trkpt>
      <trkpt lat="45.46774" lon="5.71805">
        <ele>699</ele>
        <time>2023-04-10T08:40:42Z</time>
      </trkpt>
      <trkpt lat="45.46782" lon="5.71808">
        <ele>699</ele>
        <time>2023-04-10T08:40:43Z</time>
      </trkpt>
      <trkpt lat="45.4679" lon="5.71812">
        <ele>698</ele>
        <time>2023-04-10T08:40:44Z</time>
      </trkpt>
      <trkpt lat="45.46797" lon="5.71816">
        <ele>697</ele>
        <time>2023-04-10T08:40:45Z</time>
      </trkpt>
      <trkpt lat="45.46802" lon="5.71821">
        <ele>697</ele>
        <time>2023-04-10T08:40:46Z</time>
      </trkpt>
      <trkpt lat="45.46806" lon="5.71829">
        <ele>696</ele>
        <time>2023-04-10T08:40:47Z</time>
      </trkpt>
      <trkpt lat="45.46808" lon="5.71838">
        <ele>694</ele>
        <time>2023-04-10T08:40:48Z</time>
      </trkpt>
      <trkpt lat="45.46808" lon="5.71848">
        <ele>693</ele>
        <time>2023-04-10T08:40:49Z</time>
      </trkpt>
      <trkpt lat="45.46808" lon="5.71857">
        <ele>692</ele>
        <time>2023-04-10T08:40:50Z</time>
      </trkpt>
      <trkpt lat="45.46807" lon="5.71866">
        <ele>693</ele>
        <time>2023-04-10T08:40:51Z</time>
      </trkpt>
      <trkpt lat="45.46804" lon="5.71873">
        <ele>693</ele>
        <time>2023-04-10T08:40:52Z</time>
      </trkpt>
      <trkpt lat="45.468" lon="5.71878">
        <ele>692</ele>
        <time>2023-04-10T08:40:53Z</time>
      </trkpt>
      <trkpt lat="45.46794" lon="5.71883">
        <ele>692</ele>
        <time>2023-04-10T08:40:54Z</time>
      </trkpt>
      <trkpt lat="45.46787" lon="5.71887">
        <ele>692</ele>
        <time>2023-04-10T08:40:55Z</time>
      </trkpt>
      <trkpt lat="45.4678" lon="5.71891">
        <ele>691</ele>
        <time>2023-04-10T08:40:56Z</time>
      </trkpt>
      <trkpt lat="45.46773" lon="5.71893">
        <ele>690</ele>
        <time>2023-04-10T08:40:57Z</time>
      </trkpt>
      <trkpt lat="45.46766" lon="5.71899">
        <ele>690</ele>
        <time>2023-04-10T08:40:58Z</time>
      </trkpt>
      <trkpt lat="45.46759" lon="5.71904">
        <ele>690</ele>
        <time>2023-04-10T08:40:59Z</time>
      </trkpt>
      <trkpt lat="45.46754" lon="5.71909">
        <ele>689</ele>
        <time>2023-04-10T08:41:00Z</time>
      </trkpt>
      <trkpt lat="45.4675" lon="5.71914">
        <ele>689</ele>
        <time>2023-04-10T08:41:01Z</time>
      </trkpt>
      <trkpt lat="45.46748" lon="5.71918">
        <ele>688</ele>
        <time>2023-04-10T08:41:02Z</time>
      </trkpt>
      <trkpt lat="45.46746" lon="5.71922">
        <ele>688</ele>
        <time>2023-04-10T08:41:03Z</time>
      </trkpt>
      <trkpt lat="45.46744" lon="5.71927">
        <ele>688</ele>
        <time>2023-04-10T08:41:04Z</time>
      </trkpt>
      <trkpt lat="45.46742" lon="5.71934">
        <ele>688</ele>
        <time>2023-04-10T08:41:05Z</time>
      </trkpt>
      <trkpt lat="45.46741" lon="5.7194">
        <ele>688</ele>
        <time>2023-04-10T08:41:06Z</time>
      </trkpt>
      <trkpt lat="45.46744" lon="5.71946">
        <ele>688</ele>
        <time>2023-04-10T08:41:07Z</time>
      </trkpt>
      <trkpt lat="45.46748" lon="5.71951">
        <ele>688</ele>
        <time>2023-04-10T08:41:08Z</time>
      </trkpt>
      <trkpt lat="45.46752" lon="5.71957">
        <ele>688</ele>
        <time>2023-04-10T08:41:09Z</time>
      </trkpt>
      <trkpt lat="45.46759" lon="5.71977">
        <ele>686</ele>
        <time>2023-04-10T08:41:11Z</time>
      </trkpt>
      <trkpt lat="45.46764" lon="5.72">
        <ele>683</ele>
        <time>2023-04-10T08:41:13Z</time>
      </trkpt>
      <trkpt lat="45.46765" lon="5.72009">
        <ele>682</ele>
        <time>2023-04-10T08:41:14Z</time>
      </trkpt>
      <trkpt lat="45.46766" lon="5.72021">
        <ele>681</ele>
        <time>2023-04-10T08:41:15Z</time>
      </trkpt>
      <trkpt lat="45.46767" lon="5.72032">
        <ele>680</ele>
        <time>2023-04-10T08:41:16Z</time>
      </trkpt>
      <trkpt lat="45.46769" lon="5.72045">
        <ele>679</ele>
        <time>2023-04-10T08:41:17Z</time>
      </trkpt>
      <trkpt lat="45.4677" lon="5.72058">
        <ele>679</ele>
        <time>2023-04-10T08:41:18Z</time>
      </trkpt>
      <trkpt lat="45.46769" lon="5.72069">
        <ele>677</ele>
        <time>2023-04-10T08:41:19Z</time>
      </trkpt>
      <trkpt lat="45.46769" lon="5.7208">
        <ele>676</ele>
        <time>2023-04-10T08:41:20Z</time>
      </trkpt>
      <trkpt lat="45.46767" lon="5.7209">
        <ele>675</ele>
        <time>2023-04-10T08:41:21Z</time>
      </trkpt>
      <trkpt lat="45.4676" lon="5.72105">
        <ele>673</ele>
        <time>2023-04-10T08:41:23Z</time>
      </trkpt>
      <trkpt lat="45.46758" lon="5.72111">
        <ele>672</ele>
        <time>2023-04-10T08:41:24Z</time>
      </trkpt>
      <trkpt lat="45.46758" lon="5.72119">
        <ele>672</ele>
        <time>2023-04-10T08:41:25Z</time>
      </trkpt>
      <trkpt lat="45.4676" lon="5.72134">
        <ele>670</ele>
        <time>2023-04-10T08:41:27Z</time>
      </trkpt>
      <trkpt lat="45.46761" lon="5.72141">
        <ele>670</ele>
        <time>2023-04-10T08:41:28Z</time>
      </trkpt>
      <trkpt lat="45.46762" lon="5.72149">
        <ele>669</ele>
        <time>2023-04-10T08:41:29Z</time>
      </trkpt>
      <trkpt lat="45.46764" lon="5.72156">
        <ele>668</ele>
        <time>2023-04-10T08:41:30Z</time>
      </trkpt>
      <trkpt lat="45.46766" lon="5.72163">
        <ele>668</ele>
        <time>2023-04-10T08:41:31Z</time>
      </trkpt>
      <trkpt lat="45.46772" lon="5.72178">
        <ele>668</ele>
        <time>2023-04-10T08:41:33Z</time>
      </trkpt>
      <trkpt lat="45.46777" lon="5.72194">
        <ele>668</ele>
        <time>2023-04-10T08:41:35Z</time>
      </trkpt>
      <trkpt lat="45.46786" lon="5.72215">
        <ele>668</ele>
        <time>2023-04-10T08:41:37Z</time>
      </trkpt>
      <trkpt lat="45.46795" lon="5.72233">
        <ele>668</ele>
        <time>2023-04-10T08:41:39Z</time>
      </trkpt>
      <trkpt lat="45.46798" lon="5.72253">
        <ele>667</ele>
        <time>2023-04-10T08:41:41Z</time>
      </trkpt>
      <trkpt lat="45.46792" lon="5.72274">
        <ele>664</ele>
        <time>2023-04-10T08:41:43Z</time>
      </trkpt>
      <trkpt lat="45.46788" lon="5.72287">
        <ele>663</ele>
        <time>2023-04-10T08:41:44Z</time>
      </trkpt>
      <trkpt lat="45.46785" lon="5.723">
        <ele>661</ele>
        <time>2023-04-10T08:41:45Z</time>
      </trkpt>
      <trkpt lat="45.46781" lon="5.72312">
        <ele>659</ele>
        <time>2023-04-10T08:41:46Z</time>
      </trkpt>
      <trkpt lat="45.46776" lon="5.72322">
        <ele>657</ele>
        <time>2023-04-10T08:41:47Z</time>
      </trkpt>
      <trkpt lat="45.46769" lon="5.72331">
        <ele>656</ele>
        <time>2023-04-10T08:41:48Z</time>
      </trkpt>
      <trkpt lat="45.46758" lon="5.72342">
        <ele>654</ele>
        <time>2023-04-10T08:41:50Z</time>
      </trkpt>
      <trkpt lat="45.46751" lon="5.72355">
        <ele>652</ele>
        <time>2023-04-10T08:41:52Z</time>
      </trkpt>
      <trkpt lat="45.46753" lon="5.72373">
        <ele>647</ele>
        <time>2023-04-10T08:41:55Z</time>
      </trkpt>
      <trkpt lat="45.4676" lon="5.72386">
        <ele>644</ele>
        <time>2023-04-10T08:41:57Z</time>
      </trkpt>
      <trkpt lat="45.46769" lon="5.72392">
        <ele>643</ele>
        <time>2023-04-10T08:41:59Z</time>
      </trkpt>
      <trkpt lat="45.4678" lon="5.72399">
        <ele>643</ele>
        <time>2023-04-10T08:42:01Z</time>
      </trkpt>
      <trkpt lat="45.46792" lon="5.72409">
        <ele>642</ele>
        <time>2023-04-10T08:42:03Z</time>
      </trkpt>
      <trkpt lat="45.46803" lon="5.72418">
        <ele>640</ele>
        <time>2023-04-10T08:42:05Z</time>
      </trkpt>
      <trkpt lat="45.46813" lon="5.72427">
        <ele>639</ele>
        <time>2023-04-10T08:42:07Z</time>
      </trkpt>
      <trkpt lat="45.46822" lon="5.72438">
        <ele>638</ele>
        <time>2023-04-10T08:42:09Z</time>
      </trkpt>
      <trkpt lat="45.46824" lon="5.72452">
        <ele>634</ele>
        <time>2023-04-10T08:42:12Z</time>
      </trkpt>
      <trkpt lat="45.46829" lon="5.72466">
        <ele>633</ele>
        <time>2023-04-10T08:42:14Z</time>
      </trkpt>
      <trkpt lat="45.46836" lon="5.72476">
        <ele>631</ele>
        <time>2023-04-10T08:42:17Z</time>
      </trkpt>
      <trkpt lat="45.46839" lon="5.72477">
        <ele>630</ele>
        <time>2023-04-10T08:42:19Z</time>
      </trkpt>
      <trkpt lat="45.46839" lon="5.72481">
        <ele>629</ele>
        <time>2023-04-10T08:42:22Z</time>
      </trkpt>
      <trkpt lat="45.46837" lon="5.7248">
        <ele>629</ele>
        <time>2023-04-10T08:42:24Z</time>
      </trkpt>
      <trkpt lat="45.46834" lon="5.72478">
        <ele>629</ele>
        <time>2023-04-10T08:42:26Z</time>
      </trkpt>
      <trkpt lat="45.46831" lon="5.72475">
        <ele>630</ele>
        <time>2023-04-10T08:42:28Z</time>
      </trkpt>
      <trkpt lat="45.46829" lon="5.7247">
        <ele>631</ele>
        <time>2023-04-10T08:42:30Z</time>
      </trkpt>
      <trkpt lat="45.46827" lon="5.72467">
        <ele>631</ele>
        <time>2023-04-10T08:42:31Z</time>
      </trkpt>
      <trkpt lat="45.46825" lon="5.72464">
        <ele>631</ele>
        <time>2023-04-10T08:42:32Z</time>
      </trkpt>
      <trkpt lat="45.46823" lon="5.72462">
        <ele>631</ele>
        <time>2023-04-10T08:42:33Z</time>
      </trkpt>
      <trkpt lat="45.46821" lon="5.7246">
        <ele>631</ele>
        <time>2023-04-10T08:42:34Z</time>
      </trkpt>
      <trkpt lat="45.46819" lon="5.7246">
        <ele>631</ele>
        <time>2023-04-10T08:42:35Z</time>
      </trkpt>
      <trkpt lat="45.46816" lon="5.72459">
        <ele>632</ele>
        <time>2023-04-10T08:42:36Z</time>
      </trkpt>
      <trkpt lat="45.46814" lon="5.72458">
        <ele>632</ele>
        <time>2023-04-10T08:42:37Z</time>
      </trkpt>
      <trkpt lat="45.46811" lon="5.72457">
        <ele>632</ele>
        <time>2023-04-10T08:42:38Z</time>
      </trkpt>
      <trkpt lat="45.46807" lon="5.72456">
        <ele>632</ele>
        <time>2023-04-10T08:42:39Z</time>
      </trkpt>
      <trkpt lat="45.46802" lon="5.72453">
        <ele>632</ele>
        <time>2023-04-10T08:42:40Z</time>
      </trkpt>
      <trkpt lat="45.46796" lon="5.7245">
        <ele>630</ele>
        <time>2023-04-10T08:42:41Z</time>
      </trkpt>
      <trkpt lat="45.46789" lon="5.72447">
        <ele>629</ele>
        <time>2023-04-10T08:42:42Z</time>
      </trkpt>
      <trkpt lat="45.46783" lon="5.72444">
        <ele>629</ele>
        <time>2023-04-10T08:42:43Z</time>
      </trkpt>
      <trkpt lat="45.46778" lon="5.72441">
        <ele>629</ele>
        <time>2023-04-10T08:42:44Z</time>
      </trkpt>
      <trkpt lat="45.46772" lon="5.72439">
        <ele>629</ele>
        <time>2023-04-10T08:42:45Z</time>
      </trkpt>
      <trkpt lat="45.46767" lon="5.72439">
        <ele>629</ele>
        <time>2023-04-10T08:42:46Z</time>
      </trkpt>
      <trkpt lat="45.46762" lon="5.7244">
        <ele>630</ele>
        <time>2023-04-10T08:42:47Z</time>
      </trkpt>
      <trkpt lat="45.46758" lon="5.72443">
        <ele>630</ele>
        <time>2023-04-10T08:42:48Z</time>
      </trkpt>
      <trkpt lat="45.46754" lon="5.72445">
        <ele>630</ele>
        <time>2023-04-10T08:42:49Z</time>
      </trkpt>
      <trkpt lat="45.46741" lon="5.72445">
        <ele>628</ele>
        <time>2023-04-10T08:42:51Z</time>
      </trkpt>
      <trkpt lat="45.46731" lon="5.72448">
        <ele>625</ele>
        <time>2023-04-10T08:42:54Z</time>
      </trkpt>
      <trkpt lat="45.46721" lon="5.72445">
        <ele>625</ele>
        <time>2023-04-10T08:42:56Z</time>
      </trkpt>
      <trkpt lat="45.46713" lon="5.7244">
        <ele>625</ele>
        <time>2023-04-10T08:42:58Z</time>
      </trkpt>
      <trkpt lat="45.46704" lon="5.7243">
        <ele>625</ele>
        <time>2023-04-10T08:43:02Z</time>
      </trkpt>
      <trkpt lat="45.46701" lon="5.72426">
        <ele>626</ele>
        <time>2023-04-10T08:43:04Z</time>
      </trkpt>
      <trkpt lat="45.46695" lon="5.7242">
        <ele>627</ele>
        <time>2023-04-10T08:43:06Z</time>
      </trkpt>
      <trkpt lat="45.46693" lon="5.72418">
        <ele>627</ele>
        <time>2023-04-10T08:43:07Z</time>
      </trkpt>
      <trkpt lat="45.4669" lon="5.72416">
        <ele>628</ele>
        <time>2023-04-10T08:43:08Z</time>
      </trkpt>
      <trkpt lat="45.46687" lon="5.72414">
        <ele>628</ele>
        <time>2023-04-10T08:43:09Z</time>
      </trkpt>
      <trkpt lat="45.46684" lon="5.72411">
        <ele>629</ele>
        <time>2023-04-10T08:43:10Z</time>
      </trkpt>
      <trkpt lat="45.46682" lon="5.72409">
        <ele>629</ele>
        <time>2023-04-10T08:43:11Z</time>
      </trkpt>
      <trkpt lat="45.4668" lon="5.72406">
        <ele>629</ele>
        <time>2023-04-10T08:43:12Z</time>
      </trkpt>
      <trkpt lat="45.46677" lon="5.72404">
        <ele>629</ele>
        <time>2023-04-10T08:43:13Z</time>
      </trkpt>
      <trkpt lat="45.46674" lon="5.72402">
        <ele>629</ele>
        <time>2023-04-10T08:43:14Z</time>
      </trkpt>
      <trkpt lat="45.46671" lon="5.72401">
        <ele>629</ele>
        <time>2023-04-10T08:43:15Z</time>
      </trkpt>
      <trkpt lat="45.46668" lon="5.724">
        <ele>629</ele>
        <time>2023-04-10T08:43:16Z</time>
      </trkpt>
      <trkpt lat="45.46664" lon="5.724">
        <ele>629</ele>
        <time>2023-04-10T08:43:17Z</time>
      </trkpt>
      <trkpt lat="45.46661" lon="5.724">
        <ele>629</ele>
        <time>2023-04-10T08:43:18Z</time>
      </trkpt>
      <trkpt lat="45.46659" lon="5.72399">
        <ele>629</ele>
        <time>2023-04-10T08:43:20Z</time>
      </trkpt>
      <trkpt lat="45.46657" lon="5.72401">
        <ele>628</ele>
        <time>2023-04-10T08:43:28Z</time>
      </trkpt>
      <trkpt lat="45.46656" lon="5.72403">
        <ele>628</ele>
        <time>2023-04-10T08:43:31Z</time>
      </trkpt>
      <trkpt lat="45.46656" lon="5.72404">
        <ele>628</ele>
        <time>2023-04-10T08:43:36Z</time>
      </trkpt>
      <trkpt lat="45.46654" lon="5.72404">
        <ele>627</ele>
        <time>2023-04-10T08:43:59Z</time>
      </trkpt>
      <trkpt lat="45.46652" lon="5.72405">
        <ele>628</ele>
        <time>2023-04-10T08:44:10Z</time>
      </trkpt>
      <trkpt lat="45.46655" lon="5.72403">
        <ele>628</ele>
        <time>2023-04-10T08:44:13Z</time>
      </trkpt>
      <trkpt lat="45.46651" lon="5.72405">
        <ele>628</ele>
        <time>2023-04-10T08:44:17Z</time>
      </trkpt>
      <trkpt lat="45.46649" lon="5.72406">
        <ele>628</ele>
        <time>2023-04-10T08:44:18Z</time>
      </trkpt>
      <trkpt lat="45.46647" lon="5.72407">
        <ele>628</ele>
        <time>2023-04-10T08:44:19Z</time>
      </trkpt>
      <trkpt lat="45.46644" lon="5.7241">
        <ele>628</ele>
        <time>2023-04-10T08:44:20Z</time>
      </trkpt>
      <trkpt lat="45.4664" lon="5.72412">
        <ele>628</ele>
        <time>2023-04-10T08:44:21Z</time>
      </trkpt>
      <trkpt lat="45.46637" lon="5.72415">
        <ele>626</ele>
        <time>2023-04-10T08:44:22Z</time>
      </trkpt>
      <trkpt lat="45.46632" lon="5.72417">
        <ele>625</ele>
        <time>2023-04-10T08:44:23Z</time>
      </trkpt>
      <trkpt lat="45.46627" lon="5.72417">
        <ele>625</ele>
        <time>2023-04-10T08:44:24Z</time>
      </trkpt>
      <trkpt lat="45.46622" lon="5.72416">
        <ele>624</ele>
        <time>2023-04-10T08:44:25Z</time>
      </trkpt>
      <trkpt lat="45.46617" lon="5.72414">
        <ele>624</ele>
        <time>2023-04-10T08:44:26Z</time>
      </trkpt>
      <trkpt lat="45.46609" lon="5.72413">
        <ele>623</ele>
        <time>2023-04-10T08:44:27Z</time>
      </trkpt>
      <trkpt lat="45.46601" lon="5.72412">
        <ele>622</ele>
        <time>2023-04-10T08:44:28Z</time>
      </trkpt>
      <trkpt lat="45.46594" lon="5.72411">
        <ele>621</ele>
        <time>2023-04-10T08:44:29Z</time>
      </trkpt>
      <trkpt lat="45.46587" lon="5.72411">
        <ele>621</ele>
        <time>2023-04-10T08:44:30Z</time>
      </trkpt>
      <trkpt lat="45.46582" lon="5.72413">
        <ele>620</ele>
        <time>2023-04-10T08:44:31Z</time>
      </trkpt>
      <trkpt lat="45.46573" lon="5.72427">
        <ele>619</ele>
        <time>2023-04-10T08:44:33Z</time>
      </trkpt>
      <trkpt lat="45.46569" lon="5.72434">
        <ele>618</ele>
        <time>2023-04-10T08:44:34Z</time>
      </trkpt>
      <trkpt lat="45.46565" lon="5.72441">
        <ele>618</ele>
        <time>2023-04-10T08:44:35Z</time>
      </trkpt>
      <trkpt lat="45.46562" lon="5.72446">
        <ele>618</ele>
        <time>2023-04-10T08:44:36Z</time>
      </trkpt>
      <trkpt lat="45.46558" lon="5.72449">
        <ele>618</ele>
        <time>2023-04-10T08:44:37Z</time>
      </trkpt>
      <trkpt lat="45.4655" lon="5.72454">
        <ele>618</ele>
        <time>2023-04-10T08:44:40Z</time>
      </trkpt>
      <trkpt lat="45.46549" lon="5.72459">
        <ele>618</ele>
        <time>2023-04-10T08:44:41Z</time>
      </trkpt>
      <trkpt lat="45.46548" lon="5.72464">
        <ele>617</ele>
        <time>2023-04-10T08:44:42Z</time>
      </trkpt>
      <trkpt lat="45.46546" lon="5.72468">
        <ele>617</ele>
        <time>2023-04-10T08:44:43Z</time>
      </trkpt>
      <trkpt lat="45.46543" lon="5.7247">
        <ele>616</ele>
        <time>2023-04-10T08:44:44Z</time>
      </trkpt>
      <trkpt lat="45.46538" lon="5.72469">
        <ele>616</ele>
        <time>2023-04-10T08:44:45Z</time>
      </trkpt>
      <trkpt lat="45.46534" lon="5.72466">
        <ele>616</ele>
        <time>2023-04-10T08:44:46Z</time>
      </trkpt>
      <trkpt lat="45.46529" lon="5.72462">
        <ele>616</ele>
        <time>2023-04-10T08:44:47Z</time>
      </trkpt>
      <trkpt lat="45.46523" lon="5.7246">
        <ele>616</ele>
        <time>2023-04-10T08:44:48Z</time>
      </trkpt>
      <trkpt lat="45.46517" lon="5.72459">
        <ele>616</ele>
        <time>2023-04-10T08:44:49Z</time>
      </trkpt>
      <trkpt lat="45.46511" lon="5.72459">
        <ele>616</ele>
        <time>2023-04-10T08:44:50Z</time>
      </trkpt>
      <trkpt lat="45.46504" lon="5.7246">
        <ele>616</ele>
        <time>2023-04-10T08:44:51Z</time>
      </trkpt>
      <trkpt lat="45.46497" lon="5.72462">
        <ele>615</ele>
        <time>2023-04-10T08:44:52Z</time>
      </trkpt>
      <trkpt lat="45.46491" lon="5.72466">
        <ele>615</ele>
        <time>2023-04-10T08:44:53Z</time>
      </trkpt>
      <trkpt lat="45.46483" lon="5.72477">
        <ele>614</ele>
        <time>2023-04-10T08:44:55Z</time>
      </trkpt>
      <trkpt lat="45.4647" lon="5.72484">
        <ele>610</ele>
        <time>2023-04-10T08:44:58Z</time>
      </trkpt>
      <trkpt lat="45.46454" lon="5.72481">
        <ele>609</ele>
        <time>2023-04-10T08:45:00Z</time>
      </trkpt>
      <trkpt lat="45.46439" lon="5.72475">
        <ele>607</ele>
        <time>2023-04-10T08:45:02Z</time>
      </trkpt>
      <trkpt lat="45.46431" lon="5.72472">
        <ele>607</ele>
        <time>2023-04-10T08:45:03Z</time>
      </trkpt>
      <trkpt lat="45.46423" lon="5.72469">
        <ele>606</ele>
        <time>2023-04-10T08:45:04Z</time>
      </trkpt>
      <trkpt lat="45.46416" lon="5.72465">
        <ele>606</ele>
        <time>2023-04-10T08:45:05Z</time>
      </trkpt>
      <trkpt lat="45.46409" lon="5.72459">
        <ele>606</ele>
        <time>2023-04-10T08:45:06Z</time>
      </trkpt>
      <trkpt lat="45.46403" lon="5.72454">
        <ele>606</ele>
        <time>2023-04-10T08:45:07Z</time>
      </trkpt>
      <trkpt lat="45.46396" lon="5.7245">
        <ele>606</ele>
        <time>2023-04-10T08:45:08Z</time>
      </trkpt>
      <trkpt lat="45.4639" lon="5.72444">
        <ele>605</ele>
        <time>2023-04-10T08:45:09Z</time>
      </trkpt>
      <trkpt lat="45.46383" lon="5.7244">
        <ele>605</ele>
        <time>2023-04-10T08:45:10Z</time>
      </trkpt>
      <trkpt lat="45.4637" lon="5.7243">
        <ele>605</ele>
        <time>2023-04-10T08:45:11Z</time>
      </trkpt>
      <trkpt lat="45.46358" lon="5.72423">
        <ele>605</ele>
        <time>2023-04-10T08:45:14Z</time>
      </trkpt>
      <trkpt lat="45.46351" lon="5.7242">
        <ele>605</ele>
        <time>2023-04-10T08:45:15Z</time>
      </trkpt>
      <trkpt lat="45.46336" lon="5.72413">
        <ele>603</ele>
        <time>2023-04-10T08:45:17Z</time>
      </trkpt>
      <trkpt lat="45.46319" lon="5.72412">
        <ele>599</ele>
        <time>2023-04-10T08:45:19Z</time>
      </trkpt>
      <trkpt lat="45.4631" lon="5.72412">
        <ele>599</ele>
        <time>2023-04-10T08:45:20Z</time>
      </trkpt>
      <trkpt lat="45.46301" lon="5.72415">
        <ele>598</ele>
        <time>2023-04-10T08:45:21Z</time>
      </trkpt>
      <trkpt lat="45.46292" lon="5.72415">
        <ele>598</ele>
        <time>2023-04-10T08:45:22Z</time>
      </trkpt>
      <trkpt lat="45.46284" lon="5.72414">
        <ele>598</ele>
        <time>2023-04-10T08:45:23Z</time>
      </trkpt>
      <trkpt lat="45.46276" lon="5.72409">
        <ele>598</ele>
        <time>2023-04-10T08:45:24Z</time>
      </trkpt>
      <trkpt lat="45.4627" lon="5.72404">
        <ele>598</ele>
        <time>2023-04-10T08:45:25Z</time>
      </trkpt>
      <trkpt lat="45.46265" lon="5.72399">
        <ele>598</ele>
        <time>2023-04-10T08:45:26Z</time>
      </trkpt>
      <trkpt lat="45.46261" lon="5.72396">
        <ele>598</ele>
        <time>2023-04-10T08:45:27Z</time>
      </trkpt>
      <trkpt lat="45.46258" lon="5.72392">
        <ele>598</ele>
        <time>2023-04-10T08:45:28Z</time>
      </trkpt>
      <trkpt lat="45.46254" lon="5.72388">
        <ele>598</ele>
        <time>2023-04-10T08:45:29Z</time>
      </trkpt>
      <trkpt lat="45.46249" lon="5.72385">
        <ele>598</ele>
        <time>2023-04-10T08:45:30Z</time>
      </trkpt>
      <trkpt lat="45.46244" lon="5.72384">
        <ele>598</ele>
        <time>2023-04-10T08:45:31Z</time>
      </trkpt>
      <trkpt lat="45.46232" lon="5.72383">
        <ele>598</ele>
        <time>2023-04-10T08:45:33Z</time>
      </trkpt>
      <trkpt lat="45.46217" lon="5.72382">
        <ele>598</ele>
        <time>2023-04-10T08:45:35Z</time>
      </trkpt>
      <trkpt lat="45.46202" lon="5.72381">
        <ele>598</ele>
        <time>2023-04-10T08:45:37Z</time>
      </trkpt>
      <trkpt lat="45.46189" lon="5.72377">
        <ele>598</ele>
        <time>2023-04-10T08:45:39Z</time>
      </trkpt>
      <trkpt lat="45.46182" lon="5.72374">
        <ele>598</ele>
        <time>2023-04-10T08:45:40Z</time>
      </trkpt>
      <trkpt lat="45.46176" lon="5.7237">
        <ele>598</ele>
        <time>2023-04-10T08:45:41Z</time>
      </trkpt>
      <trkpt lat="45.46167" lon="5.72369">
        <ele>597</ele>
        <time>2023-04-10T08:45:42Z</time>
      </trkpt>
      <trkpt lat="45.46158" lon="5.72368">
        <ele>596</ele>
        <time>2023-04-10T08:45:43Z</time>
      </trkpt>
      <trkpt lat="45.46151" lon="5.72367">
        <ele>595</ele>
        <time>2023-04-10T08:45:44Z</time>
      </trkpt>
      <trkpt lat="45.46143" lon="5.72364">
        <ele>594</ele>
        <time>2023-04-10T08:45:45Z</time>
      </trkpt>
      <trkpt lat="45.46135" lon="5.7236">
        <ele>594</ele>
        <time>2023-04-10T08:45:46Z</time>
      </trkpt>
      <trkpt lat="45.46127" lon="5.72355">
        <ele>594</ele>
        <time>2023-04-10T08:45:47Z</time>
      </trkpt>
      <trkpt lat="45.4612" lon="5.7235">
        <ele>593</ele>
        <time>2023-04-10T08:45:48Z</time>
      </trkpt>
      <trkpt lat="45.46112" lon="5.72346">
        <ele>593</ele>
        <time>2023-04-10T08:45:49Z</time>
      </trkpt>
      <trkpt lat="45.461" lon="5.7234">
        <ele>593</ele>
        <time>2023-04-10T08:45:51Z</time>
      </trkpt>
      <trkpt lat="45.46088" lon="5.72332">
        <ele>595</ele>
        <time>2023-04-10T08:45:54Z</time>
      </trkpt>
      <trkpt lat="45.46078" lon="5.72325">
        <ele>597</ele>
        <time>2023-04-10T08:45:57Z</time>
      </trkpt>
      <trkpt lat="45.46072" lon="5.72316">
        <ele>597</ele>
        <time>2023-04-10T08:45:59Z</time>
      </trkpt>
      <trkpt lat="45.46069" lon="5.72314">
        <ele>597</ele>
        <time>2023-04-10T08:46:00Z</time>
      </trkpt>
      <trkpt lat="45.46067" lon="5.72312">
        <ele>597</ele>
        <time>2023-04-10T08:46:01Z</time>
      </trkpt>
      <trkpt lat="45.46058" lon="5.72305">
        <ele>598</ele>
        <time>2023-04-10T08:46:05Z</time>
      </trkpt>
      <trkpt lat="45.4605" lon="5.72298">
        <ele>599</ele>
        <time>2023-04-10T08:46:08Z</time>
      </trkpt>
      <trkpt lat="45.46046" lon="5.72295">
        <ele>600</ele>
        <time>2023-04-10T08:46:10Z</time>
      </trkpt>
      <trkpt lat="45.46043" lon="5.72292">
        <ele>600</ele>
        <time>2023-04-10T08:46:11Z</time>
      </trkpt>
      <trkpt lat="45.46041" lon="5.72289">
        <ele>600</ele>
        <time>2023-04-10T08:46:12Z</time>
      </trkpt>
      <trkpt lat="45.46038" lon="5.72285">
        <ele>600</ele>
        <time>2023-04-10T08:46:13Z</time>
      </trkpt>
      <trkpt lat="45.46035" lon="5.72281">
        <ele>601</ele>
        <time>2023-04-10T08:46:14Z</time>
      </trkpt>
      <trkpt lat="45.46032" lon="5.72278">
        <ele>601</ele>
        <time>2023-04-10T08:46:15Z</time>
      </trkpt>
      <trkpt lat="45.46029" lon="5.72275">
        <ele>601</ele>
        <time>2023-04-10T08:46:16Z</time>
      </trkpt>
      <trkpt lat="45.46027" lon="5.72272">
        <ele>601</ele>
        <time>2023-04-10T08:46:17Z</time>
      </trkpt>
      <trkpt lat="45.46024" lon="5.7227">
        <ele>601</ele>
        <time>2023-04-10T08:46:18Z</time>
      </trkpt>
      <trkpt lat="45.46021" lon="5.72267">
        <ele>602</ele>
        <time>2023-04-10T08:46:19Z</time>
      </trkpt>
      <trkpt lat="45.46019" lon="5.72264">
        <ele>602</ele>
        <time>2023-04-10T08:46:20Z</time>
      </trkpt>
      <trkpt lat="45.46016" lon="5.72262">
        <ele>602</ele>
        <time>2023-04-10T08:46:21Z</time>
      </trkpt>
      <trkpt lat="45.46014" lon="5.72261">
        <ele>603</ele>
        <time>2023-04-10T08:46:22Z</time>
      </trkpt>
      <trkpt lat="45.46012" lon="5.72259">
        <ele>603</ele>
        <time>2023-04-10T08:46:23Z</time>
      </trkpt>
      <trkpt lat="45.46009" lon="5.72258">
        <ele>603</ele>
        <time>2023-04-10T08:46:24Z</time>
      </trkpt>
      <trkpt lat="45.46006" lon="5.72257">
        <ele>603</ele>
        <time>2023-04-10T08:46:25Z</time>
      </trkpt>
      <trkpt lat="45.46003" lon="5.72255">
        <ele>603</ele>
        <time>2023-04-10T08:46:26Z</time>
      </trkpt>
      <trkpt lat="45.46001" lon="5.72253">
        <ele>602</ele>
        <time>2023-04-10T08:46:27Z</time>
      </trkpt>
      <trkpt lat="45.45998" lon="5.72251">
        <ele>602</ele>
        <time>2023-04-10T08:46:28Z</time>
      </trkpt>
      <trkpt lat="45.45995" lon="5.72248">
        <ele>602</ele>
        <time>2023-04-10T08:46:29Z</time>
      </trkpt>
      <trkpt lat="45.45992" lon="5.72246">
        <ele>602</ele>
        <time>2023-04-10T08:46:30Z</time>
      </trkpt>
      <trkpt lat="45.45989" lon="5.72243">
        <ele>602</ele>
        <time>2023-04-10T08:46:31Z</time>
      </trkpt>
      <trkpt lat="45.45987" lon="5.72241">
        <ele>602</ele>
        <time>2023-04-10T08:46:32Z</time>
      </trkpt>
      <trkpt lat="45.45983" lon="5.72235">
        <ele>602</ele>
        <time>2023-04-10T08:46:34Z</time>
      </trkpt>
      <trkpt lat="45.4598" lon="5.72232">
        <ele>602</ele>
        <time>2023-04-10T08:46:35Z</time>
      </trkpt>
      <trkpt lat="45.45977" lon="5.7223">
        <ele>603</ele>
        <time>2023-04-10T08:46:36Z</time>
      </trkpt>
      <trkpt lat="45.45971" lon="5.72225">
        <ele>603</ele>
        <time>2023-04-10T08:46:38Z</time>
      </trkpt>
      <trkpt lat="45.45968" lon="5.72224">
        <ele>603</ele>
        <time>2023-04-10T08:46:39Z</time>
      </trkpt>
      <trkpt lat="45.45966" lon="5.72222">
        <ele>603</ele>
        <time>2023-04-10T08:46:40Z</time>
      </trkpt>
      <trkpt lat="45.45962" lon="5.72221">
        <ele>603</ele>
        <time>2023-04-10T08:46:41Z</time>
      </trkpt>
      <trkpt lat="45.45959" lon="5.72219">
        <ele>603</ele>
        <time>2023-04-10T08:46:42Z</time>
      </trkpt>
      <trkpt lat="45.45956" lon="5.72218">
        <ele>604</ele>
        <time>2023-04-10T08:46:43Z</time>
      </trkpt>
      <trkpt lat="45.45952" lon="5.72216">
        <ele>604</ele>
        <time>2023-04-10T08:46:44Z</time>
      </trkpt>
      <trkpt lat="45.45949" lon="5.72214">
        <ele>604</ele>
        <time>2023-04-10T08:46:45Z</time>
      </trkpt>
      <trkpt lat="45.4594" lon="5.72212">
        <ele>604</ele>
        <time>2023-04-10T08:46:46Z</time>
      </trkpt>
      <trkpt lat="45.45936" lon="5.7221">
        <ele>604</ele>
        <time>2023-04-10T08:46:48Z</time>
      </trkpt>
      <trkpt lat="45.45931" lon="5.7221">
        <ele>604</ele>
        <time>2023-04-10T08:46:49Z</time>
      </trkpt>
      <trkpt lat="45.45926" lon="5.72208">
        <ele>604</ele>
        <time>2023-04-10T08:46:50Z</time>
      </trkpt>
      <trkpt lat="45.45921" lon="5.72207">
        <ele>604</ele>
        <time>2023-04-10T08:46:51Z</time>
      </trkpt>
      <trkpt lat="45.45912" lon="5.72204">
        <ele>603</ele>
        <time>2023-04-10T08:46:53Z</time>
      </trkpt>
      <trkpt lat="45.45908" lon="5.72202">
        <ele>603</ele>
        <time>2023-04-10T08:46:54Z</time>
      </trkpt>
      <trkpt lat="45.45904" lon="5.72201">
        <ele>603</ele>
        <time>2023-04-10T08:46:55Z</time>
      </trkpt>
      <trkpt lat="45.45901" lon="5.722">
        <ele>603</ele>
        <time>2023-04-10T08:46:56Z</time>
      </trkpt>
      <trkpt lat="45.45898" lon="5.722">
        <ele>602</ele>
        <time>2023-04-10T08:46:57Z</time>
      </trkpt>
      <trkpt lat="45.45896" lon="5.72201">
        <ele>602</ele>
        <time>2023-04-10T08:46:58Z</time>
      </trkpt>
      <trkpt lat="45.4589" lon="5.72205">
        <ele>601</ele>
        <time>2023-04-10T08:47:00Z</time>
      </trkpt>
      <trkpt lat="45.45886" lon="5.72207">
        <ele>601</ele>
        <time>2023-04-10T08:47:01Z</time>
      </trkpt>
      <trkpt lat="45.45882" lon="5.72208">
        <ele>600</ele>
        <time>2023-04-10T08:47:02Z</time>
      </trkpt>
      <trkpt lat="45.45875" lon="5.72208">
        <ele>599</ele>
        <time>2023-04-10T08:47:03Z</time>
      </trkpt>
      <trkpt lat="45.45869" lon="5.72207">
        <ele>598</ele>
        <time>2023-04-10T08:47:04Z</time>
      </trkpt>
      <trkpt lat="45.45855" lon="5.72205">
        <ele>596</ele>
        <time>2023-04-10T08:47:06Z</time>
      </trkpt>
      <trkpt lat="45.45848" lon="5.72204">
        <ele>596</ele>
        <time>2023-04-10T08:47:07Z</time>
      </trkpt>
      <trkpt lat="45.4584" lon="5.722">
        <ele>595</ele>
        <time>2023-04-10T08:47:08Z</time>
      </trkpt>
      <trkpt lat="45.45833" lon="5.72195">
        <ele>594</ele>
        <time>2023-04-10T08:47:09Z</time>
      </trkpt>
      <trkpt lat="45.45826" lon="5.7219">
        <ele>594</ele>
        <time>2023-04-10T08:47:10Z</time>
      </trkpt>
      <trkpt lat="45.4582" lon="5.72185">
        <ele>594</ele>
        <time>2023-04-10T08:47:11Z</time>
      </trkpt>
      <trkpt lat="45.45814" lon="5.72181">
        <ele>594</ele>
        <time>2023-04-10T08:47:12Z</time>
      </trkpt>
      <trkpt lat="45.45808" lon="5.72176">
        <ele>594</ele>
        <time>2023-04-10T08:47:13Z</time>
      </trkpt>
      <trkpt lat="45.45802" lon="5.72172">
        <ele>594</ele>
        <time>2023-04-10T08:47:14Z</time>
      </trkpt>
      <trkpt lat="45.45795" lon="5.72168">
        <ele>594</ele>
        <time>2023-04-10T08:47:15Z</time>
      </trkpt>
      <trkpt lat="45.45788" lon="5.72164">
        <ele>594</ele>
        <time>2023-04-10T08:47:16Z</time>
      </trkpt>
      <trkpt lat="45.45781" lon="5.72162">
        <ele>594</ele>
        <time>2023-04-10T08:47:17Z</time>
      </trkpt>
      <trkpt lat="45.45775" lon="5.72162">
        <ele>594</ele>
        <time>2023-04-10T08:47:18Z</time>
      </trkpt>
      <trkpt lat="45.45764" lon="5.72166">
        <ele>592</ele>
        <time>2023-04-10T08:47:20Z</time>
      </trkpt>
      <trkpt lat="45.45753" lon="5.72167">
        <ele>590</ele>
        <time>2023-04-10T08:47:22Z</time>
      </trkpt>
      <trkpt lat="45.45748" lon="5.72164">
        <ele>589</ele>
        <time>2023-04-10T08:47:23Z</time>
      </trkpt>
      <trkpt lat="45.45739" lon="5.72163">
        <ele>589</ele>
        <time>2023-04-10T08:47:24Z</time>
      </trkpt>
      <trkpt lat="45.45733" lon="5.72164">
        <ele>589</ele>
        <time>2023-04-10T08:47:26Z</time>
      </trkpt>
      <trkpt lat="45.45728" lon="5.72165">
        <ele>589</ele>
        <time>2023-04-10T08:47:27Z</time>
      </trkpt>
      <trkpt lat="45.45721" lon="5.72166">
        <ele>589</ele>
        <time>2023-04-10T08:47:28Z</time>
      </trkpt>
      <trkpt lat="45.45715" lon="5.72166">
        <ele>588</ele>
        <time>2023-04-10T08:47:29Z</time>
      </trkpt>
      <trkpt lat="45.45709" lon="5.72165">
        <ele>588</ele>
        <time>2023-04-10T08:47:30Z</time>
      </trkpt>
      <trkpt lat="45.45705" lon="5.72162">
        <ele>588</ele>
        <time>2023-04-10T08:47:31Z</time>
      </trkpt>
      <trkpt lat="45.45702" lon="5.72158">
        <ele>589</ele>
        <time>2023-04-10T08:47:32Z</time>
      </trkpt>
      <trkpt lat="45.457" lon="5.72155">
        <ele>589</ele>
        <time>2023-04-10T08:47:33Z</time>
      </trkpt>
      <trkpt lat="45.45698" lon="5.72152">
        <ele>589</ele>
        <time>2023-04-10T08:47:34Z</time>
      </trkpt>
      <trkpt lat="45.45697" lon="5.7215">
        <ele>589</ele>
        <time>2023-04-10T08:47:35Z</time>
      </trkpt>
      <trkpt lat="45.45695" lon="5.72148">
        <ele>589</ele>
        <time>2023-04-10T08:47:36Z</time>
      </trkpt>
      <trkpt lat="45.45693" lon="5.72146">
        <ele>590</ele>
        <time>2023-04-10T08:47:37Z</time>
      </trkpt>
      <trkpt lat="45.4569" lon="5.72142">
        <ele>591</ele>
        <time>2023-04-10T08:47:39Z</time>
      </trkpt>
      <trkpt lat="45.45688" lon="5.7214">
        <ele>591</ele>
        <time>2023-04-10T08:47:40Z</time>
      </trkpt>
      <trkpt lat="45.45686" lon="5.72139">
        <ele>591</ele>
        <time>2023-04-10T08:47:41Z</time>
      </trkpt>
      <trkpt lat="45.45684" lon="5.72137">
        <ele>591</ele>
        <time>2023-04-10T08:47:42Z</time>
      </trkpt>
      <trkpt lat="45.45682" lon="5.72136">
        <ele>592</ele>
        <time>2023-04-10T08:47:43Z</time>
      </trkpt>
      <trkpt lat="45.4568" lon="5.72134">
        <ele>593</ele>
        <time>2023-04-10T08:47:44Z</time>
      </trkpt>
      <trkpt lat="45.45678" lon="5.72132">
        <ele>593</ele>
        <time>2023-04-10T08:47:45Z</time>
      </trkpt>
      <trkpt lat="45.45676" lon="5.72129">
        <ele>593</ele>
        <time>2023-04-10T08:47:46Z</time>
      </trkpt>
      <trkpt lat="45.45675" lon="5.72125">
        <ele>594</ele>
        <time>2023-04-10T08:47:47Z</time>
      </trkpt>
      <trkpt lat="45.45673" lon="5.72123">
        <ele>594</ele>
        <time>2023-04-10T08:47:48Z</time>
      </trkpt>
      <trkpt lat="45.45672" lon="5.7212">
        <ele>594</ele>
        <time>2023-04-10T08:47:49Z</time>
      </trkpt>
      <trkpt lat="45.45671" lon="5.72118">
        <ele>594</ele>
        <time>2023-04-10T08:47:50Z</time>
      </trkpt>
      <trkpt lat="45.4567" lon="5.72115">
        <ele>595</ele>
        <time>2023-04-10T08:47:51Z</time>
      </trkpt>
      <trkpt lat="45.45668" lon="5.72113">
        <ele>595</ele>
        <time>2023-04-10T08:47:52Z</time>
      </trkpt>
      <trkpt lat="45.45666" lon="5.7211">
        <ele>595</ele>
        <time>2023-04-10T08:47:53Z</time>
      </trkpt>
      <trkpt lat="45.45663" lon="5.72107">
        <ele>595</ele>
        <time>2023-04-10T08:47:54Z</time>
      </trkpt>
      <trkpt lat="45.4566" lon="5.72103">
        <ele>595</ele>
        <time>2023-04-10T08:47:55Z</time>
      </trkpt>
      <trkpt lat="45.45657" lon="5.72099">
        <ele>595</ele>
        <time>2023-04-10T08:47:56Z</time>
      </trkpt>
      <trkpt lat="45.45655" lon="5.72095">
        <ele>595</ele>
        <time>2023-04-10T08:47:57Z</time>
      </trkpt>
      <trkpt lat="45.45652" lon="5.72092">
        <ele>596</ele>
        <time>2023-04-10T08:47:58Z</time>
      </trkpt>
      <trkpt lat="45.4565" lon="5.72087">
        <ele>596</ele>
        <time>2023-04-10T08:47:59Z</time>
      </trkpt>
      <trkpt lat="45.45648" lon="5.72084">
        <ele>596</ele>
        <time>2023-04-10T08:48:00Z</time>
      </trkpt>
      <trkpt lat="45.45646" lon="5.72079">
        <ele>596</ele>
        <time>2023-04-10T08:48:01Z</time>
      </trkpt>
      <trkpt lat="45.45644" lon="5.72073">
        <ele>596</ele>
        <time>2023-04-10T08:48:02Z</time>
      </trkpt>
      <trkpt lat="45.45643" lon="5.72069">
        <ele>596</ele>
        <time>2023-04-10T08:48:03Z</time>
      </trkpt>
      <trkpt lat="45.45641" lon="5.72065">
        <ele>596</ele>
        <time>2023-04-10T08:48:04Z</time>
      </trkpt>
      <trkpt lat="45.45639" lon="5.72061">
        <ele>596</ele>
        <time>2023-04-10T08:48:05Z</time>
      </trkpt>
      <trkpt lat="45.45637" lon="5.72057">
        <ele>596</ele>
        <time>2023-04-10T08:48:06Z</time>
      </trkpt>
      <trkpt lat="45.45636" lon="5.72054">
        <ele>597</ele>
        <time>2023-04-10T08:48:07Z</time>
      </trkpt>
      <trkpt lat="45.45634" lon="5.72051">
        <ele>597</ele>
        <time>2023-04-10T08:48:08Z</time>
      </trkpt>
      <trkpt lat="45.45632" lon="5.72048">
        <ele>598</ele>
        <time>2023-04-10T08:48:09Z</time>
      </trkpt>
      <trkpt lat="45.45631" lon="5.72046">
        <ele>598</ele>
        <time>2023-04-10T08:48:10Z</time>
      </trkpt>
      <trkpt lat="45.45629" lon="5.72044">
        <ele>598</ele>
        <time>2023-04-10T08:48:11Z</time>
      </trkpt>
      <trkpt lat="45.45627" lon="5.72043">
        <ele>599</ele>
        <time>2023-04-10T08:48:12Z</time>
      </trkpt>
      <trkpt lat="45.45625" lon="5.72041">
        <ele>599</ele>
        <time>2023-04-10T08:48:13Z</time>
      </trkpt>
      <trkpt lat="45.45623" lon="5.7204">
        <ele>599</ele>
        <time>2023-04-10T08:48:14Z</time>
      </trkpt>
      <trkpt lat="45.45621" lon="5.72038">
        <ele>599</ele>
        <time>2023-04-10T08:48:15Z</time>
      </trkpt>
      <trkpt lat="45.45619" lon="5.72037">
        <ele>599</ele>
        <time>2023-04-10T08:48:16Z</time>
      </trkpt>
      <trkpt lat="45.45617" lon="5.72035">
        <ele>600</ele>
        <time>2023-04-10T08:48:17Z</time>
      </trkpt>
      <trkpt lat="45.45615" lon="5.72032">
        <ele>600</ele>
        <time>2023-04-10T08:48:18Z</time>
      </trkpt>
      <trkpt lat="45.45613" lon="5.7203">
        <ele>600</ele>
        <time>2023-04-10T08:48:19Z</time>
      </trkpt>
      <trkpt lat="45.45611" lon="5.72028">
        <ele>600</ele>
        <time>2023-04-10T08:48:20Z</time>
      </trkpt>
      <trkpt lat="45.45609" lon="5.72026">
        <ele>600</ele>
        <time>2023-04-10T08:48:21Z</time>
      </trkpt>
      <trkpt lat="45.45607" lon="5.72024">
        <ele>600</ele>
        <time>2023-04-10T08:48:22Z</time>
      </trkpt>
      <trkpt lat="45.45605" lon="5.72022">
        <ele>601</ele>
        <time>2023-04-10T08:48:23Z</time>
      </trkpt>
      <trkpt lat="45.45602" lon="5.72019">
        <ele>601</ele>
        <time>2023-04-10T08:48:24Z</time>
      </trkpt>
      <trkpt lat="45.456" lon="5.72017">
        <ele>601</ele>
        <time>2023-04-10T08:48:25Z</time>
      </trkpt>
      <trkpt lat="45.45598" lon="5.72014">
        <ele>602</ele>
        <time>2023-04-10T08:48:26Z</time>
      </trkpt>
      <trkpt lat="45.45595" lon="5.72011">
        <ele>602</ele>
        <time>2023-04-10T08:48:27Z</time>
      </trkpt>
      <trkpt lat="45.45593" lon="5.72009">
        <ele>602</ele>
        <time>2023-04-10T08:48:28Z</time>
      </trkpt>
      <trkpt lat="45.4559" lon="5.72007">
        <ele>602</ele>
        <time>2023-04-10T08:48:29Z</time>
      </trkpt>
      <trkpt lat="45.45587" lon="5.72004">
        <ele>602</ele>
        <time>2023-04-10T08:48:30Z</time>
      </trkpt>
      <trkpt lat="45.45584" lon="5.72002">
        <ele>603</ele>
        <time>2023-04-10T08:48:31Z</time>
      </trkpt>
      <trkpt lat="45.45582" lon="5.71999">
        <ele>603</ele>
        <time>2023-04-10T08:48:32Z</time>
      </trkpt>
      <trkpt lat="45.4558" lon="5.71996">
        <ele>603</ele>
        <time>2023-04-10T08:48:33Z</time>
      </trkpt>
      <trkpt lat="45.45578" lon="5.71992">
        <ele>603</ele>
        <time>2023-04-10T08:48:34Z</time>
      </trkpt>
      <trkpt lat="45.45576" lon="5.71989">
        <ele>602</ele>
        <time>2023-04-10T08:48:35Z</time>
      </trkpt>
      <trkpt lat="45.45574" lon="5.71986">
        <ele>602</ele>
        <time>2023-04-10T08:48:36Z</time>
      </trkpt>
      <trkpt lat="45.45572" lon="5.71983">
        <ele>602</ele>
        <time>2023-04-10T08:48:37Z</time>
      </trkpt>
      <trkpt lat="45.4557" lon="5.71981">
        <ele>603</ele>
        <time>2023-04-10T08:48:38Z</time>
      </trkpt>
      <trkpt lat="45.45568" lon="5.71978">
        <ele>604</ele>
        <time>2023-04-10T08:48:39Z</time>
      </trkpt>
      <trkpt lat="45.45565" lon="5.71976">
        <ele>604</ele>
        <time>2023-04-10T08:48:40Z</time>
      </trkpt>
      <trkpt lat="45.45563" lon="5.71975">
        <ele>604</ele>
        <time>2023-04-10T08:48:41Z</time>
      </trkpt>
      <trkpt lat="45.4556" lon="5.71973">
        <ele>605</ele>
        <time>2023-04-10T08:48:42Z</time>
      </trkpt>
      <trkpt lat="45.45558" lon="5.71971">
        <ele>605</ele>
        <time>2023-04-10T08:48:43Z</time>
      </trkpt>
      <trkpt lat="45.45556" lon="5.71968">
        <ele>605</ele>
        <time>2023-04-10T08:48:44Z</time>
      </trkpt>
      <trkpt lat="45.45554" lon="5.71965">
        <ele>605</ele>
        <time>2023-04-10T08:48:45Z</time>
      </trkpt>
      <trkpt lat="45.45552" lon="5.71962">
        <ele>605</ele>
        <time>2023-04-10T08:48:46Z</time>
      </trkpt>
      <trkpt lat="45.45549" lon="5.7196">
        <ele>605</ele>
        <time>2023-04-10T08:48:47Z</time>
      </trkpt>
      <trkpt lat="45.45547" lon="5.71958">
        <ele>605</ele>
        <time>2023-04-10T08:48:48Z</time>
      </trkpt>
      <trkpt lat="45.45536" lon="5.71953">
        <ele>607</ele>
        <time>2023-04-10T08:48:52Z</time>
      </trkpt>
      <trkpt lat="45.4553" lon="5.71951">
        <ele>607</ele>
        <time>2023-04-10T08:48:54Z</time>
      </trkpt>
      <trkpt lat="45.45526" lon="5.71949">
        <ele>607</ele>
        <time>2023-04-10T08:48:55Z</time>
      </trkpt>
      <trkpt lat="45.45523" lon="5.71949">
        <ele>608</ele>
        <time>2023-04-10T08:48:56Z</time>
      </trkpt>
      <trkpt lat="45.45519" lon="5.71948">
        <ele>608</ele>
        <time>2023-04-10T08:48:57Z</time>
      </trkpt>
      <trkpt lat="45.45514" lon="5.71948">
        <ele>608</ele>
        <time>2023-04-10T08:48:58Z</time>
      </trkpt>
      <trkpt lat="45.45509" lon="5.71947">
        <ele>608</ele>
        <time>2023-04-10T08:48:59Z</time>
      </trkpt>
      <trkpt lat="45.45505" lon="5.71948">
        <ele>608</ele>
        <time>2023-04-10T08:49:00Z</time>
      </trkpt>
      <trkpt lat="45.455" lon="5.71949">
        <ele>608</ele>
        <time>2023-04-10T08:49:01Z</time>
      </trkpt>
      <trkpt lat="45.45495" lon="5.71951">
        <ele>608</ele>
        <time>2023-04-10T08:49:02Z</time>
      </trkpt>
      <trkpt lat="45.4549" lon="5.71952">
        <ele>608</ele>
        <time>2023-04-10T08:49:03Z</time>
      </trkpt>
      <trkpt lat="45.45484" lon="5.71952">
        <ele>608</ele>
        <time>2023-04-10T08:49:04Z</time>
      </trkpt>
      <trkpt lat="45.45479" lon="5.71952">
        <ele>608</ele>
        <time>2023-04-10T08:49:05Z</time>
      </trkpt>
      <trkpt lat="45.45468" lon="5.71953">
        <ele>607</ele>
        <time>2023-04-10T08:49:07Z</time>
      </trkpt>
      <trkpt lat="45.45455" lon="5.71951">
        <ele>606</ele>
        <time>2023-04-10T08:49:09Z</time>
      </trkpt>
      <trkpt lat="45.45449" lon="5.71948">
        <ele>606</ele>
        <time>2023-04-10T08:49:10Z</time>
      </trkpt>
      <trkpt lat="45.45444" lon="5.71944">
        <ele>606</ele>
        <time>2023-04-10T08:49:11Z</time>
      </trkpt>
      <trkpt lat="45.45439" lon="5.7194">
        <ele>606</ele>
        <time>2023-04-10T08:49:12Z</time>
      </trkpt>
      <trkpt lat="45.45435" lon="5.71936">
        <ele>606</ele>
        <time>2023-04-10T08:49:13Z</time>
      </trkpt>
      <trkpt lat="45.45431" lon="5.71932">
        <ele>606</ele>
        <time>2023-04-10T08:49:14Z</time>
      </trkpt>
      <trkpt lat="45.45428" lon="5.71927">
        <ele>606</ele>
        <time>2023-04-10T08:49:15Z</time>
      </trkpt>
      <trkpt lat="45.45425" lon="5.71924">
        <ele>606</ele>
        <time>2023-04-10T08:49:16Z</time>
      </trkpt>
      <trkpt lat="45.45422" lon="5.71921">
        <ele>607</ele>
        <time>2023-04-10T08:49:17Z</time>
      </trkpt>
      <trkpt lat="45.45418" lon="5.71917">
        <ele>607</ele>
        <time>2023-04-10T08:49:18Z</time>
      </trkpt>
      <trkpt lat="45.45416" lon="5.71914">
        <ele>608</ele>
        <time>2023-04-10T08:49:20Z</time>
      </trkpt>
      <trkpt lat="45.45414" lon="5.71912">
        <ele>608</ele>
        <time>2023-04-10T08:49:21Z</time>
      </trkpt>
      <trkpt lat="45.45412" lon="5.7191">
        <ele>608</ele>
        <time>2023-04-10T08:49:22Z</time>
      </trkpt>
      <trkpt lat="45.4541" lon="5.71908">
        <ele>608</ele>
        <time>2023-04-10T08:49:23Z</time>
      </trkpt>
      <trkpt lat="45.45408" lon="5.71906">
        <ele>609</ele>
        <time>2023-04-10T08:49:24Z</time>
      </trkpt>
      <trkpt lat="45.45406" lon="5.71905">
        <ele>609</ele>
        <time>2023-04-10T08:49:25Z</time>
      </trkpt>
      <trkpt lat="45.45404" lon="5.71904">
        <ele>610</ele>
        <time>2023-04-10T08:49:26Z</time>
      </trkpt>
      <trkpt lat="45.45402" lon="5.71902">
        <ele>610</ele>
        <time>2023-04-10T08:49:27Z</time>
      </trkpt>
      <trkpt lat="45.45399" lon="5.71901">
        <ele>611</ele>
        <time>2023-04-10T08:49:28Z</time>
      </trkpt>
      <trkpt lat="45.45398" lon="5.71898">
        <ele>612</ele>
        <time>2023-04-10T08:49:29Z</time>
      </trkpt>
      <trkpt lat="45.45396" lon="5.71897">
        <ele>612</ele>
        <time>2023-04-10T08:49:30Z</time>
      </trkpt>
      <trkpt lat="45.45395" lon="5.71895">
        <ele>612</ele>
        <time>2023-04-10T08:49:31Z</time>
      </trkpt>
      <trkpt lat="45.45391" lon="5.71891">
        <ele>613</ele>
        <time>2023-04-10T08:49:33Z</time>
      </trkpt>
      <trkpt lat="45.45388" lon="5.71889">
        <ele>613</ele>
        <time>2023-04-10T08:49:34Z</time>
      </trkpt>
      <trkpt lat="45.45386" lon="5.71888">
        <ele>613</ele>
        <time>2023-04-10T08:49:35Z</time>
      </trkpt>
      <trkpt lat="45.45383" lon="5.71886">
        <ele>613</ele>
        <time>2023-04-10T08:49:36Z</time>
      </trkpt>
      <trkpt lat="45.45379" lon="5.71883">
        <ele>613</ele>
        <time>2023-04-10T08:49:37Z</time>
      </trkpt>
      <trkpt lat="45.45376" lon="5.71881">
        <ele>613</ele>
        <time>2023-04-10T08:49:38Z</time>
      </trkpt>
      <trkpt lat="45.45372" lon="5.71876">
        <ele>613</ele>
        <time>2023-04-10T08:49:39Z</time>
      </trkpt>
      <trkpt lat="45.45367" lon="5.71873">
        <ele>613</ele>
        <time>2023-04-10T08:49:40Z</time>
      </trkpt>
      <trkpt lat="45.45362" lon="5.71872">
        <ele>613</ele>
        <time>2023-04-10T08:49:41Z</time>
      </trkpt>
      <trkpt lat="45.45356" lon="5.71871">
        <ele>614</ele>
        <time>2023-04-10T08:49:42Z</time>
      </trkpt>
      <trkpt lat="45.4535" lon="5.71867">
        <ele>614</ele>
        <time>2023-04-10T08:49:43Z</time>
      </trkpt>
      <trkpt lat="45.45344" lon="5.71863">
        <ele>614</ele>
        <time>2023-04-10T08:49:44Z</time>
      </trkpt>
      <trkpt lat="45.45339" lon="5.71861">
        <ele>613</ele>
        <time>2023-04-10T08:49:45Z</time>
      </trkpt>
      <trkpt lat="45.45328" lon="5.71857">
        <ele>612</ele>
        <time>2023-04-10T08:49:47Z</time>
      </trkpt>
      <trkpt lat="45.45316" lon="5.71847">
        <ele>612</ele>
        <time>2023-04-10T08:49:49Z</time>
      </trkpt>
      <trkpt lat="45.45309" lon="5.71842">
        <ele>611</ele>
        <time>2023-04-10T08:49:50Z</time>
      </trkpt>
      <trkpt lat="45.45303" lon="5.71837">
        <ele>610</ele>
        <time>2023-04-10T08:49:51Z</time>
      </trkpt>
      <trkpt lat="45.45297" lon="5.71835">
        <ele>610</ele>
        <time>2023-04-10T08:49:52Z</time>
      </trkpt>
      <trkpt lat="45.45284" lon="5.71833">
        <ele>609</ele>
        <time>2023-04-10T08:49:54Z</time>
      </trkpt>
      <trkpt lat="45.45272" lon="5.7183">
        <ele>607</ele>
        <time>2023-04-10T08:49:56Z</time>
      </trkpt>
      <trkpt lat="45.45261" lon="5.71829">
        <ele>605</ele>
        <time>2023-04-10T08:49:58Z</time>
      </trkpt>
      <trkpt lat="45.45248" lon="5.71833">
        <ele>602</ele>
        <time>2023-04-10T08:50:00Z</time>
      </trkpt>
      <trkpt lat="45.45235" lon="5.71837">
        <ele>601</ele>
        <time>2023-04-10T08:50:02Z</time>
      </trkpt>
      <trkpt lat="45.45219" lon="5.71835">
        <ele>600</ele>
        <time>2023-04-10T08:50:04Z</time>
      </trkpt>
      <trkpt lat="45.45212" lon="5.71832">
        <ele>599</ele>
        <time>2023-04-10T08:50:05Z</time>
      </trkpt>
      <trkpt lat="45.45205" lon="5.71829">
        <ele>599</ele>
        <time>2023-04-10T08:50:06Z</time>
      </trkpt>
      <trkpt lat="45.45198" lon="5.71825">
        <ele>599</ele>
        <time>2023-04-10T08:50:07Z</time>
      </trkpt>
      <trkpt lat="45.45191" lon="5.7182">
        <ele>599</ele>
        <time>2023-04-10T08:50:08Z</time>
      </trkpt>
      <trkpt lat="45.45184" lon="5.71815">
        <ele>599</ele>
        <time>2023-04-10T08:50:09Z</time>
      </trkpt>
      <trkpt lat="45.45177" lon="5.71811">
        <ele>598</ele>
        <time>2023-04-10T08:50:10Z</time>
      </trkpt>
      <trkpt lat="45.45171" lon="5.71805">
        <ele>598</ele>
        <time>2023-04-10T08:50:11Z</time>
      </trkpt>
      <trkpt lat="45.45165" lon="5.71799">
        <ele>598</ele>
        <time>2023-04-10T08:50:12Z</time>
      </trkpt>
      <trkpt lat="45.45154" lon="5.71788">
        <ele>598</ele>
        <time>2023-04-10T08:50:13Z</time>
      </trkpt>
      <trkpt lat="45.45149" lon="5.71782">
        <ele>598</ele>
        <time>2023-04-10T08:50:15Z</time>
      </trkpt>
      <trkpt lat="45.45144" lon="5.71776">
        <ele>598</ele>
        <time>2023-04-10T08:50:16Z</time>
      </trkpt>
      <trkpt lat="45.45139" lon="5.71772">
        <ele>598</ele>
        <time>2023-04-10T08:50:17Z</time>
      </trkpt>
      <trkpt lat="45.45134" lon="5.7177">
        <ele>598</ele>
        <time>2023-04-10T08:50:18Z</time>
      </trkpt>
      <trkpt lat="45.45129" lon="5.71769">
        <ele>599</ele>
        <time>2023-04-10T08:50:19Z</time>
      </trkpt>
      <trkpt lat="45.45123" lon="5.71769">
        <ele>599</ele>
        <time>2023-04-10T08:50:20Z</time>
      </trkpt>
      <trkpt lat="45.4511" lon="5.71768">
        <ele>597</ele>
        <time>2023-04-10T08:50:22Z</time>
      </trkpt>
      <trkpt lat="45.45094" lon="5.71766">
        <ele>595</ele>
        <time>2023-04-10T08:50:24Z</time>
      </trkpt>
      <trkpt lat="45.4508" lon="5.71776">
        <ele>594</ele>
        <time>2023-04-10T08:50:26Z</time>
      </trkpt>
      <trkpt lat="45.45074" lon="5.71782">
        <ele>593</ele>
        <time>2023-04-10T08:50:27Z</time>
      </trkpt>
      <trkpt lat="45.45068" lon="5.71785">
        <ele>594</ele>
        <time>2023-04-10T08:50:28Z</time>
      </trkpt>
      <trkpt lat="45.4506" lon="5.71784">
        <ele>594</ele>
        <time>2023-04-10T08:50:29Z</time>
      </trkpt>
      <trkpt lat="45.45053" lon="5.71781">
        <ele>594</ele>
        <time>2023-04-10T08:50:30Z</time>
      </trkpt>
      <trkpt lat="45.45047" lon="5.71777">
        <ele>593</ele>
        <time>2023-04-10T08:50:31Z</time>
      </trkpt>
      <trkpt lat="45.45041" lon="5.71773">
        <ele>593</ele>
        <time>2023-04-10T08:50:32Z</time>
      </trkpt>
      <trkpt lat="45.45032" lon="5.71768">
        <ele>593</ele>
        <time>2023-04-10T08:50:34Z</time>
      </trkpt>
      <trkpt lat="45.45027" lon="5.71766">
        <ele>592</ele>
        <time>2023-04-10T08:50:35Z</time>
      </trkpt>
      <trkpt lat="45.45023" lon="5.71765">
        <ele>592</ele>
        <time>2023-04-10T08:50:36Z</time>
      </trkpt>
      <trkpt lat="45.45018" lon="5.71763">
        <ele>592</ele>
        <time>2023-04-10T08:50:37Z</time>
      </trkpt>
      <trkpt lat="45.45014" lon="5.71763">
        <ele>591</ele>
        <time>2023-04-10T08:50:38Z</time>
      </trkpt>
      <trkpt lat="45.45012" lon="5.71766">
        <ele>591</ele>
        <time>2023-04-10T08:50:39Z</time>
      </trkpt>
      <trkpt lat="45.45013" lon="5.71771">
        <ele>591</ele>
        <time>2023-04-10T08:50:41Z</time>
      </trkpt>
      <trkpt lat="45.45015" lon="5.71773">
        <ele>591</ele>
        <time>2023-04-10T08:50:42Z</time>
      </trkpt>
      <trkpt lat="45.45016" lon="5.71776">
        <ele>591</ele>
        <time>2023-04-10T08:50:43Z</time>
      </trkpt>
      <trkpt lat="45.45022" lon="5.71789">
        <ele>589</ele>
        <time>2023-04-10T08:50:46Z</time>
      </trkpt>
      <trkpt lat="45.45027" lon="5.718">
        <ele>587</ele>
        <time>2023-04-10T08:50:48Z</time>
      </trkpt>
      <trkpt lat="45.45034" lon="5.71814">
        <ele>587</ele>
        <time>2023-04-10T08:50:50Z</time>
      </trkpt>
      <trkpt lat="45.4504" lon="5.7183">
        <ele>586</ele>
        <time>2023-04-10T08:50:52Z</time>
      </trkpt>
      <trkpt lat="45.45044" lon="5.71844">
        <ele>586</ele>
        <time>2023-04-10T08:50:54Z</time>
      </trkpt>
      <trkpt lat="45.45044" lon="5.71857">
        <ele>585</ele>
        <time>2023-04-10T08:50:56Z</time>
      </trkpt>
      <trkpt lat="45.45042" lon="5.71861">
        <ele>584</ele>
        <time>2023-04-10T08:50:57Z</time>
      </trkpt>
      <trkpt lat="45.45038" lon="5.71865">
        <ele>583</ele>
        <time>2023-04-10T08:50:58Z</time>
      </trkpt>
      <trkpt lat="45.45033" lon="5.71865">
        <ele>583</ele>
        <time>2023-04-10T08:50:59Z</time>
      </trkpt>
      <trkpt lat="45.45027" lon="5.71865">
        <ele>581</ele>
        <time>2023-04-10T08:51:00Z</time>
      </trkpt>
      <trkpt lat="45.45022" lon="5.71863">
        <ele>581</ele>
        <time>2023-04-10T08:51:01Z</time>
      </trkpt>
      <trkpt lat="45.45016" lon="5.71862">
        <ele>580</ele>
        <time>2023-04-10T08:51:02Z</time>
      </trkpt>
      <trkpt lat="45.45009" lon="5.7186">
        <ele>580</ele>
        <time>2023-04-10T08:51:03Z</time>
      </trkpt>
      <trkpt lat="45.45002" lon="5.71859">
        <ele>579</ele>
        <time>2023-04-10T08:51:04Z</time>
      </trkpt>
      <trkpt lat="45.44995" lon="5.71855">
        <ele>579</ele>
        <time>2023-04-10T08:51:05Z</time>
      </trkpt>
      <trkpt lat="45.4499" lon="5.71851">
        <ele>579</ele>
        <time>2023-04-10T08:51:06Z</time>
      </trkpt>
      <trkpt lat="45.44984" lon="5.71848">
        <ele>579</ele>
        <time>2023-04-10T08:51:07Z</time>
      </trkpt>
      <trkpt lat="45.44977" lon="5.71845">
        <ele>578</ele>
        <time>2023-04-10T08:51:08Z</time>
      </trkpt>
      <trkpt lat="45.4497" lon="5.71842">
        <ele>577</ele>
        <time>2023-04-10T08:51:09Z</time>
      </trkpt>
      <trkpt lat="45.44963" lon="5.71839">
        <ele>577</ele>
        <time>2023-04-10T08:51:10Z</time>
      </trkpt>
      <trkpt lat="45.44956" lon="5.71837">
        <ele>577</ele>
        <time>2023-04-10T08:51:11Z</time>
      </trkpt>
      <trkpt lat="45.44949" lon="5.71838">
        <ele>576</ele>
        <time>2023-04-10T08:51:12Z</time>
      </trkpt>
      <trkpt lat="45.44943" lon="5.7184">
        <ele>576</ele>
        <time>2023-04-10T08:51:13Z</time>
      </trkpt>
      <trkpt lat="45.44938" lon="5.71845">
        <ele>573</ele>
        <time>2023-04-10T08:51:14Z</time>
      </trkpt>
      <trkpt lat="45.44926" lon="5.71854">
        <ele>570</ele>
        <time>2023-04-10T08:51:16Z</time>
      </trkpt>
      <trkpt lat="45.44911" lon="5.71864">
        <ele>567</ele>
        <time>2023-04-10T08:51:18Z</time>
      </trkpt>
      <trkpt lat="45.44903" lon="5.71869">
        <ele>565</ele>
        <time>2023-04-10T08:51:19Z</time>
      </trkpt>
      <trkpt lat="45.44894" lon="5.71874">
        <ele>564</ele>
        <time>2023-04-10T08:51:20Z</time>
      </trkpt>
      <trkpt lat="45.44885" lon="5.7188">
        <ele>562</ele>
        <time>2023-04-10T08:51:21Z</time>
      </trkpt>
      <trkpt lat="45.44876" lon="5.71886">
        <ele>561</ele>
        <time>2023-04-10T08:51:22Z</time>
      </trkpt>
      <trkpt lat="45.44869" lon="5.71893">
        <ele>560</ele>
        <time>2023-04-10T08:51:23Z</time>
      </trkpt>
      <trkpt lat="45.44862" lon="5.71902">
        <ele>560</ele>
        <time>2023-04-10T08:51:24Z</time>
      </trkpt>
      <trkpt lat="45.44848" lon="5.71918">
        <ele>558</ele>
        <time>2023-04-10T08:51:26Z</time>
      </trkpt>
      <trkpt lat="45.44842" lon="5.71925">
        <ele>558</ele>
        <time>2023-04-10T08:51:27Z</time>
      </trkpt>
      <trkpt lat="45.44833" lon="5.71936">
        <ele>556</ele>
        <time>2023-04-10T08:51:29Z</time>
      </trkpt>
      <trkpt lat="45.44822" lon="5.71952">
        <ele>554</ele>
        <time>2023-04-10T08:51:31Z</time>
      </trkpt>
      <trkpt lat="45.44818" lon="5.71956">
        <ele>552</ele>
        <time>2023-04-10T08:51:33Z</time>
      </trkpt>
      <trkpt lat="45.44812" lon="5.71958">
        <ele>550</ele>
        <time>2023-04-10T08:51:34Z</time>
      </trkpt>
      <trkpt lat="45.44806" lon="5.71958">
        <ele>550</ele>
        <time>2023-04-10T08:51:35Z</time>
      </trkpt>
      <trkpt lat="45.448" lon="5.71957">
        <ele>550</ele>
        <time>2023-04-10T08:51:36Z</time>
      </trkpt>
      <trkpt lat="45.44787" lon="5.71954">
        <ele>549</ele>
        <time>2023-04-10T08:51:38Z</time>
      </trkpt>
      <trkpt lat="45.44771" lon="5.71951">
        <ele>546</ele>
        <time>2023-04-10T08:51:40Z</time>
      </trkpt>
      <trkpt lat="45.44753" lon="5.7195">
        <ele>544</ele>
        <time>2023-04-10T08:51:42Z</time>
      </trkpt>
      <trkpt lat="45.44736" lon="5.7195">
        <ele>541</ele>
        <time>2023-04-10T08:51:44Z</time>
      </trkpt>
      <trkpt lat="45.44728" lon="5.7195">
        <ele>540</ele>
        <time>2023-04-10T08:51:45Z</time>
      </trkpt>
      <trkpt lat="45.4472" lon="5.71951">
        <ele>539</ele>
        <time>2023-04-10T08:51:46Z</time>
      </trkpt>
      <trkpt lat="45.44712" lon="5.71953">
        <ele>538</ele>
        <time>2023-04-10T08:51:47Z</time>
      </trkpt>
      <trkpt lat="45.44697" lon="5.71958">
        <ele>535</ele>
        <time>2023-04-10T08:51:49Z</time>
      </trkpt>
      <trkpt lat="45.44684" lon="5.71968">
        <ele>532</ele>
        <time>2023-04-10T08:51:51Z</time>
      </trkpt>
      <trkpt lat="45.44676" lon="5.71976">
        <ele>532</ele>
        <time>2023-04-10T08:51:52Z</time>
      </trkpt>
      <trkpt lat="45.44668" lon="5.71983">
        <ele>531</ele>
        <time>2023-04-10T08:51:53Z</time>
      </trkpt>
      <trkpt lat="45.44654" lon="5.71993">
        <ele>530</ele>
        <time>2023-04-10T08:51:55Z</time>
      </trkpt>
      <trkpt lat="45.44645" lon="5.72002">
        <ele>529</ele>
        <time>2023-04-10T08:51:57Z</time>
      </trkpt>
      <trkpt lat="45.44641" lon="5.7201">
        <ele>529</ele>
        <time>2023-04-10T08:51:58Z</time>
      </trkpt>
      <trkpt lat="45.44637" lon="5.72018">
        <ele>527</ele>
        <time>2023-04-10T08:51:59Z</time>
      </trkpt>
      <trkpt lat="45.44633" lon="5.72026">
        <ele>525</ele>
        <time>2023-04-10T08:52:00Z</time>
      </trkpt>
      <trkpt lat="45.4463" lon="5.72034">
        <ele>525</ele>
        <time>2023-04-10T08:52:01Z</time>
      </trkpt>
      <trkpt lat="45.44622" lon="5.7205">
        <ele>523</ele>
        <time>2023-04-10T08:52:03Z</time>
      </trkpt>
      <trkpt lat="45.44619" lon="5.72058">
        <ele>522</ele>
        <time>2023-04-10T08:52:04Z</time>
      </trkpt>
      <trkpt lat="45.44617" lon="5.72067">
        <ele>520</ele>
        <time>2023-04-10T08:52:05Z</time>
      </trkpt>
      <trkpt lat="45.44615" lon="5.72076">
        <ele>518</ele>
        <time>2023-04-10T08:52:06Z</time>
      </trkpt>
      <trkpt lat="45.44613" lon="5.72086">
        <ele>517</ele>
        <time>2023-04-10T08:52:07Z</time>
      </trkpt>
      <trkpt lat="45.44613" lon="5.72105">
        <ele>515</ele>
        <time>2023-04-10T08:52:09Z</time>
      </trkpt>
      <trkpt lat="45.44612" lon="5.72124">
        <ele>512</ele>
        <time>2023-04-10T08:52:11Z</time>
      </trkpt>
      <trkpt lat="45.44609" lon="5.7214">
        <ele>511</ele>
        <time>2023-04-10T08:52:13Z</time>
      </trkpt>
      <trkpt lat="45.44608" lon="5.72158">
        <ele>509</ele>
        <time>2023-04-10T08:52:15Z</time>
      </trkpt>
      <trkpt lat="45.44611" lon="5.72176">
        <ele>506</ele>
        <time>2023-04-10T08:52:17Z</time>
      </trkpt>
      <trkpt lat="45.44612" lon="5.72191">
        <ele>505</ele>
        <time>2023-04-10T08:52:19Z</time>
      </trkpt>
      <trkpt lat="45.44607" lon="5.72208">
        <ele>502</ele>
        <time>2023-04-10T08:52:21Z</time>
      </trkpt>
      <trkpt lat="45.44603" lon="5.72232">
        <ele>499</ele>
        <time>2023-04-10T08:52:23Z</time>
      </trkpt>
      <trkpt lat="45.44603" lon="5.72246">
        <ele>499</ele>
        <time>2023-04-10T08:52:24Z</time>
      </trkpt>
      <trkpt lat="45.44602" lon="5.7227">
        <ele>497</ele>
        <time>2023-04-10T08:52:26Z</time>
      </trkpt>
      <trkpt lat="45.44599" lon="5.72284">
        <ele>495</ele>
        <time>2023-04-10T08:52:28Z</time>
      </trkpt>
      <trkpt lat="45.44595" lon="5.72302">
        <ele>493</ele>
        <time>2023-04-10T08:52:31Z</time>
      </trkpt>
      <trkpt lat="45.44598" lon="5.72316">
        <ele>493</ele>
        <time>2023-04-10T08:52:33Z</time>
      </trkpt>
      <trkpt lat="45.44602" lon="5.72332">
        <ele>491</ele>
        <time>2023-04-10T08:52:35Z</time>
      </trkpt>
      <trkpt lat="45.44605" lon="5.72343">
        <ele>490</ele>
        <time>2023-04-10T08:52:36Z</time>
      </trkpt>
      <trkpt lat="45.44607" lon="5.72351">
        <ele>490</ele>
        <time>2023-04-10T08:52:37Z</time>
      </trkpt>
      <trkpt lat="45.4461" lon="5.72359">
        <ele>489</ele>
        <time>2023-04-10T08:52:38Z</time>
      </trkpt>
      <trkpt lat="45.44612" lon="5.72365">
        <ele>489</ele>
        <time>2023-04-10T08:52:39Z</time>
      </trkpt>
      <trkpt lat="45.44613" lon="5.72372">
        <ele>488</ele>
        <time>2023-04-10T08:52:40Z</time>
      </trkpt>
      <trkpt lat="45.44614" lon="5.72381">
        <ele>488</ele>
        <time>2023-04-10T08:52:41Z</time>
      </trkpt>
      <trkpt lat="45.44614" lon="5.72388">
        <ele>487</ele>
        <time>2023-04-10T08:52:42Z</time>
      </trkpt>
      <trkpt lat="45.44615" lon="5.72395">
        <ele>486</ele>
        <time>2023-04-10T08:52:43Z</time>
      </trkpt>
      <trkpt lat="45.44615" lon="5.724">
        <ele>485</ele>
        <time>2023-04-10T08:52:44Z</time>
      </trkpt>
      <trkpt lat="45.44615" lon="5.72406">
        <ele>484</ele>
        <time>2023-04-10T08:52:45Z</time>
      </trkpt>
      <trkpt lat="45.44614" lon="5.72413">
        <ele>484</ele>
        <time>2023-04-10T08:52:46Z</time>
      </trkpt>
      <trkpt lat="45.44608" lon="5.7242">
        <ele>484</ele>
        <time>2023-04-10T08:52:47Z</time>
      </trkpt>
      <trkpt lat="45.44605" lon="5.72418">
        <ele>482</ele>
        <time>2023-04-10T08:52:49Z</time>
      </trkpt>
      <trkpt lat="45.44601" lon="5.72413">
        <ele>481</ele>
        <time>2023-04-10T08:52:50Z</time>
      </trkpt>
      <trkpt lat="45.44597" lon="5.72407">
        <ele>481</ele>
        <time>2023-04-10T08:52:51Z</time>
      </trkpt>
      <trkpt lat="45.44594" lon="5.72401">
        <ele>480</ele>
        <time>2023-04-10T08:52:52Z</time>
      </trkpt>
      <trkpt lat="45.44591" lon="5.72396">
        <ele>480</ele>
        <time>2023-04-10T08:52:53Z</time>
      </trkpt>
      <trkpt lat="45.44589" lon="5.72392">
        <ele>480</ele>
        <time>2023-04-10T08:52:54Z</time>
      </trkpt>
      <trkpt lat="45.44585" lon="5.72389">
        <ele>480</ele>
        <time>2023-04-10T08:52:55Z</time>
      </trkpt>
      <trkpt lat="45.44582" lon="5.72385">
        <ele>480</ele>
        <time>2023-04-10T08:52:56Z</time>
      </trkpt>
      <trkpt lat="45.44578" lon="5.7238">
        <ele>481</ele>
        <time>2023-04-10T08:52:57Z</time>
      </trkpt>
      <trkpt lat="45.44575" lon="5.72374">
        <ele>481</ele>
        <time>2023-04-10T08:52:58Z</time>
      </trkpt>
      <trkpt lat="45.44571" lon="5.72367">
        <ele>481</ele>
        <time>2023-04-10T08:52:59Z</time>
      </trkpt>
      <trkpt lat="45.44568" lon="5.7236">
        <ele>480</ele>
        <time>2023-04-10T08:53:00Z</time>
      </trkpt>
      <trkpt lat="45.44564" lon="5.72352">
        <ele>480</ele>
        <time>2023-04-10T08:53:01Z</time>
      </trkpt>
      <trkpt lat="45.4456" lon="5.72344">
        <ele>480</ele>
        <time>2023-04-10T08:53:02Z</time>
      </trkpt>
      <trkpt lat="45.44557" lon="5.72335">
        <ele>480</ele>
        <time>2023-04-10T08:53:03Z</time>
      </trkpt>
      <trkpt lat="45.44553" lon="5.72327">
        <ele>480</ele>
        <time>2023-04-10T08:53:04Z</time>
      </trkpt>
      <trkpt lat="45.4455" lon="5.72317">
        <ele>480</ele>
        <time>2023-04-10T08:53:05Z</time>
      </trkpt>
      <trkpt lat="45.44544" lon="5.72297">
        <ele>480</ele>
        <time>2023-04-10T08:53:06Z</time>
      </trkpt>
      <trkpt lat="45.4454" lon="5.72286">
        <ele>479</ele>
        <time>2023-04-10T08:53:08Z</time>
      </trkpt>
      <trkpt lat="45.44537" lon="5.72276">
        <ele>479</ele>
        <time>2023-04-10T08:53:09Z</time>
      </trkpt>
      <trkpt lat="45.44532" lon="5.72265">
        <ele>478</ele>
        <time>2023-04-10T08:53:10Z</time>
      </trkpt>
      <trkpt lat="45.44528" lon="5.72256">
        <ele>478</ele>
        <time>2023-04-10T08:53:11Z</time>
      </trkpt>
      <trkpt lat="45.44523" lon="5.72246">
        <ele>477</ele>
        <time>2023-04-10T08:53:12Z</time>
      </trkpt>
      <trkpt lat="45.44519" lon="5.72238">
        <ele>477</ele>
        <time>2023-04-10T08:53:13Z</time>
      </trkpt>
      <trkpt lat="45.44515" lon="5.7223">
        <ele>477</ele>
        <time>2023-04-10T08:53:14Z</time>
      </trkpt>
      <trkpt lat="45.44511" lon="5.72222">
        <ele>478</ele>
        <time>2023-04-10T08:53:15Z</time>
      </trkpt>
      <trkpt lat="45.44509" lon="5.72214">
        <ele>479</ele>
        <time>2023-04-10T08:53:16Z</time>
      </trkpt>
      <trkpt lat="45.44508" lon="5.72204">
        <ele>479</ele>
        <time>2023-04-10T08:53:17Z</time>
      </trkpt>
      <trkpt lat="45.44507" lon="5.72194">
        <ele>479</ele>
        <time>2023-04-10T08:53:18Z</time>
      </trkpt>
      <trkpt lat="45.44507" lon="5.72183">
        <ele>479</ele>
        <time>2023-04-10T08:53:19Z</time>
      </trkpt>
      <trkpt lat="45.44506" lon="5.72172">
        <ele>479</ele>
        <time>2023-04-10T08:53:20Z</time>
      </trkpt>
      <trkpt lat="45.44505" lon="5.7216">
        <ele>478</ele>
        <time>2023-04-10T08:53:21Z</time>
      </trkpt>
      <trkpt lat="45.44503" lon="5.72149">
        <ele>478</ele>
        <time>2023-04-10T08:53:22Z</time>
      </trkpt>
      <trkpt lat="45.44501" lon="5.72139">
        <ele>478</ele>
        <time>2023-04-10T08:53:23Z</time>
      </trkpt>
      <trkpt lat="45.44499" lon="5.72129">
        <ele>478</ele>
        <time>2023-04-10T08:53:24Z</time>
      </trkpt>
      <trkpt lat="45.44496" lon="5.7212">
        <ele>478</ele>
        <time>2023-04-10T08:53:25Z</time>
      </trkpt>
      <trkpt lat="45.44493" lon="5.72112">
        <ele>478</ele>
        <time>2023-04-10T08:53:26Z</time>
      </trkpt>
      <trkpt lat="45.44489" lon="5.72104">
        <ele>478</ele>
        <time>2023-04-10T08:53:27Z</time>
      </trkpt>
      <trkpt lat="45.44485" lon="5.72097">
        <ele>479</ele>
        <time>2023-04-10T08:53:28Z</time>
      </trkpt>
      <trkpt lat="45.44482" lon="5.72091">
        <ele>480</ele>
        <time>2023-04-10T08:53:29Z</time>
      </trkpt>
      <trkpt lat="45.44479" lon="5.72086">
        <ele>480</ele>
        <time>2023-04-10T08:53:30Z</time>
      </trkpt>
      <trkpt lat="45.44474" lon="5.72082">
        <ele>480</ele>
        <time>2023-04-10T08:53:31Z</time>
      </trkpt>
      <trkpt lat="45.44466" lon="5.72069">
        <ele>480</ele>
        <time>2023-04-10T08:53:32Z</time>
      </trkpt>
      <trkpt lat="45.44465" lon="5.7206">
        <ele>479</ele>
        <time>2023-04-10T08:53:34Z</time>
      </trkpt>
      <trkpt lat="45.44466" lon="5.7205">
        <ele>478</ele>
        <time>2023-04-10T08:53:35Z</time>
      </trkpt>
      <trkpt lat="45.44468" lon="5.72041">
        <ele>477</ele>
        <time>2023-04-10T08:53:36Z</time>
      </trkpt>
      <trkpt lat="45.44471" lon="5.72033">
        <ele>478</ele>
        <time>2023-04-10T08:53:37Z</time>
      </trkpt>
      <trkpt lat="45.44474" lon="5.72025">
        <ele>478</ele>
        <time>2023-04-10T08:53:38Z</time>
      </trkpt>
      <trkpt lat="45.44476" lon="5.72017">
        <ele>478</ele>
        <time>2023-04-10T08:53:39Z</time>
      </trkpt>
      <trkpt lat="45.44479" lon="5.72008">
        <ele>478</ele>
        <time>2023-04-10T08:53:40Z</time>
      </trkpt>
      <trkpt lat="45.44482" lon="5.72">
        <ele>478</ele>
        <time>2023-04-10T08:53:41Z</time>
      </trkpt>
      <trkpt lat="45.44485" lon="5.71993">
        <ele>478</ele>
        <time>2023-04-10T08:53:42Z</time>
      </trkpt>
      <trkpt lat="45.44487" lon="5.71985">
        <ele>478</ele>
        <time>2023-04-10T08:53:43Z</time>
      </trkpt>
      <trkpt lat="45.44488" lon="5.71976">
        <ele>478</ele>
        <time>2023-04-10T08:53:44Z</time>
      </trkpt>
      <trkpt lat="45.44487" lon="5.71966">
        <ele>478</ele>
        <time>2023-04-10T08:53:45Z</time>
      </trkpt>
      <trkpt lat="45.44485" lon="5.71957">
        <ele>478</ele>
        <time>2023-04-10T08:53:46Z</time>
      </trkpt>
      <trkpt lat="45.44483" lon="5.71947">
        <ele>478</ele>
        <time>2023-04-10T08:53:47Z</time>
      </trkpt>
      <trkpt lat="45.44481" lon="5.71938">
        <ele>478</ele>
        <time>2023-04-10T08:53:48Z</time>
      </trkpt>
      <trkpt lat="45.44479" lon="5.71929">
        <ele>477</ele>
        <time>2023-04-10T08:53:49Z</time>
      </trkpt>
      <trkpt lat="45.44477" lon="5.7192">
        <ele>477</ele>
        <time>2023-04-10T08:53:50Z</time>
      </trkpt>
      <trkpt lat="45.44476" lon="5.71911">
        <ele>477</ele>
        <time>2023-04-10T08:53:51Z</time>
      </trkpt>
      <trkpt lat="45.44476" lon="5.71903">
        <ele>477</ele>
        <time>2023-04-10T08:53:52Z</time>
      </trkpt>
      <trkpt lat="45.44476" lon="5.71895">
        <ele>477</ele>
        <time>2023-04-10T08:53:53Z</time>
      </trkpt>
      <trkpt lat="45.44477" lon="5.71886">
        <ele>477</ele>
        <time>2023-04-10T08:53:54Z</time>
      </trkpt>
      <trkpt lat="45.44479" lon="5.71878">
        <ele>477</ele>
        <time>2023-04-10T08:53:55Z</time>
      </trkpt>
      <trkpt lat="45.44481" lon="5.71869">
        <ele>477</ele>
        <time>2023-04-10T08:53:56Z</time>
      </trkpt>
      <trkpt lat="45.44484" lon="5.71862">
        <ele>477</ele>
        <time>2023-04-10T08:53:57Z</time>
      </trkpt>
      <trkpt lat="45.44485" lon="5.71854">
        <ele>476</ele>
        <time>2023-04-10T08:53:58Z</time>
      </trkpt>
      <trkpt lat="45.44485" lon="5.71847">
        <ele>476</ele>
        <time>2023-04-10T08:53:59Z</time>
      </trkpt>
      <trkpt lat="45.44485" lon="5.7184">
        <ele>476</ele>
        <time>2023-04-10T08:54:00Z</time>
      </trkpt>
      <trkpt lat="45.44484" lon="5.71834">
        <ele>476</ele>
        <time>2023-04-10T08:54:01Z</time>
      </trkpt>
      <trkpt lat="45.44484" lon="5.7183">
        <ele>476</ele>
        <time>2023-04-10T08:54:02Z</time>
      </trkpt>
      <trkpt lat="45.44482" lon="5.71827">
        <ele>476</ele>
        <time>2023-04-10T08:54:03Z</time>
      </trkpt>
      <trkpt lat="45.44481" lon="5.71823">
        <ele>477</ele>
        <time>2023-04-10T08:54:04Z</time>
      </trkpt>
      <trkpt lat="45.4448" lon="5.71821">
        <ele>478</ele>
        <time>2023-04-10T08:54:05Z</time>
      </trkpt>
      <trkpt lat="45.44478" lon="5.71819">
        <ele>478</ele>
        <time>2023-04-10T08:54:06Z</time>
      </trkpt>
      <trkpt lat="45.44477" lon="5.71816">
        <ele>478</ele>
        <time>2023-04-10T08:54:07Z</time>
      </trkpt>
      <trkpt lat="45.44475" lon="5.71814">
        <ele>478</ele>
        <time>2023-04-10T08:54:08Z</time>
      </trkpt>
      <trkpt lat="45.44473" lon="5.71811">
        <ele>479</ele>
        <time>2023-04-10T08:54:09Z</time>
      </trkpt>
      <trkpt lat="45.44472" lon="5.71809">
        <ele>479</ele>
        <time>2023-04-10T08:54:10Z</time>
      </trkpt>
      <trkpt lat="45.4447" lon="5.71807">
        <ele>479</ele>
        <time>2023-04-10T08:54:11Z</time>
      </trkpt>
      <trkpt lat="45.44469" lon="5.71806">
        <ele>479</ele>
        <time>2023-04-10T08:54:12Z</time>
      </trkpt>
      <trkpt lat="45.44467" lon="5.71804">
        <ele>479</ele>
        <time>2023-04-10T08:54:13Z</time>
      </trkpt>
      <trkpt lat="45.44465" lon="5.71803">
        <ele>480</ele>
        <time>2023-04-10T08:54:14Z</time>
      </trkpt>
      <trkpt lat="45.44463" lon="5.71802">
        <ele>480</ele>
        <time>2023-04-10T08:54:15Z</time>
      </trkpt>
      <trkpt lat="45.44461" lon="5.71801">
        <ele>480</ele>
        <time>2023-04-10T08:54:16Z</time>
      </trkpt>
      <trkpt lat="45.44459" lon="5.71799">
        <ele>481</ele>
        <time>2023-04-10T08:54:17Z</time>
      </trkpt>
      <trkpt lat="45.44457" lon="5.71798">
        <ele>481</ele>
        <time>2023-04-10T08:54:18Z</time>
      </trkpt>
      <trkpt lat="45.44455" lon="5.71798">
        <ele>481</ele>
        <time>2023-04-10T08:54:19Z</time>
      </trkpt>
      <trkpt lat="45.44453" lon="5.71797">
        <ele>481</ele>
        <time>2023-04-10T08:54:20Z</time>
      </trkpt>
      <trkpt lat="45.44452" lon="5.71796">
        <ele>481</ele>
        <time>2023-04-10T08:54:21Z</time>
      </trkpt>
      <trkpt lat="45.4445" lon="5.71795">
        <ele>481</ele>
        <time>2023-04-10T08:54:22Z</time>
      </trkpt>
      <trkpt lat="45.44446" lon="5.71793">
        <ele>482</ele>
        <time>2023-04-10T08:54:24Z</time>
      </trkpt>
      <trkpt lat="45.44443" lon="5.7179">
        <ele>483</ele>
        <time>2023-04-10T08:54:26Z</time>
      </trkpt>
      <trkpt lat="45.44441" lon="5.71789">
        <ele>484</ele>
        <time>2023-04-10T08:54:27Z</time>
      </trkpt>
      <trkpt lat="45.44438" lon="5.71787">
        <ele>484</ele>
        <time>2023-04-10T08:54:29Z</time>
      </trkpt>
      <trkpt lat="45.44435" lon="5.71786">
        <ele>484</ele>
        <time>2023-04-10T08:54:31Z</time>
      </trkpt>
      <trkpt lat="45.44434" lon="5.71785">
        <ele>485</ele>
        <time>2023-04-10T08:54:32Z</time>
      </trkpt>
      <trkpt lat="45.44432" lon="5.71784">
        <ele>486</ele>
        <time>2023-04-10T08:54:33Z</time>
      </trkpt>
      <trkpt lat="45.44428" lon="5.71782">
        <ele>487</ele>
        <time>2023-04-10T08:54:35Z</time>
      </trkpt>
      <trkpt lat="45.44427" lon="5.71781">
        <ele>487</ele>
        <time>2023-04-10T08:54:36Z</time>
      </trkpt>
      <trkpt lat="45.44425" lon="5.7178">
        <ele>487</ele>
        <time>2023-04-10T08:54:37Z</time>
      </trkpt>
      <trkpt lat="45.44423" lon="5.71778">
        <ele>487</ele>
        <time>2023-04-10T08:54:38Z</time>
      </trkpt>
      <trkpt lat="45.44422" lon="5.71776">
        <ele>487</ele>
        <time>2023-04-10T08:54:39Z</time>
      </trkpt>
      <trkpt lat="45.44417" lon="5.71772">
        <ele>487</ele>
        <time>2023-04-10T08:54:41Z</time>
      </trkpt>
      <trkpt lat="45.44416" lon="5.71771">
        <ele>487</ele>
        <time>2023-04-10T08:54:43Z</time>
      </trkpt>
      <trkpt lat="45.44414" lon="5.7177">
        <ele>487</ele>
        <time>2023-04-10T08:54:44Z</time>
      </trkpt>
      <trkpt lat="45.44411" lon="5.71768">
        <ele>488</ele>
        <time>2023-04-10T08:54:46Z</time>
      </trkpt>
      <trkpt lat="45.44408" lon="5.71766">
        <ele>488</ele>
        <time>2023-04-10T08:54:48Z</time>
      </trkpt>
      <trkpt lat="45.44407" lon="5.71764">
        <ele>489</ele>
        <time>2023-04-10T08:54:49Z</time>
      </trkpt>
      <trkpt lat="45.44405" lon="5.71762">
        <ele>489</ele>
        <time>2023-04-10T08:54:50Z</time>
      </trkpt>
      <trkpt lat="45.44403" lon="5.7176">
        <ele>489</ele>
        <time>2023-04-10T08:54:51Z</time>
      </trkpt>
      <trkpt lat="45.44402" lon="5.71759">
        <ele>489</ele>
        <time>2023-04-10T08:54:52Z</time>
      </trkpt>
      <trkpt lat="45.444" lon="5.71757">
        <ele>489</ele>
        <time>2023-04-10T08:54:53Z</time>
      </trkpt>
      <trkpt lat="45.44399" lon="5.71755">
        <ele>490</ele>
        <time>2023-04-10T08:54:54Z</time>
      </trkpt>
      <trkpt lat="45.44396" lon="5.71752">
        <ele>491</ele>
        <time>2023-04-10T08:54:56Z</time>
      </trkpt>
      <trkpt lat="45.44395" lon="5.7175">
        <ele>491</ele>
        <time>2023-04-10T08:54:57Z</time>
      </trkpt>
      <trkpt lat="45.44393" lon="5.71748">
        <ele>491</ele>
        <time>2023-04-10T08:54:58Z</time>
      </trkpt>
      <trkpt lat="45.44392" lon="5.71746">
        <ele>491</ele>
        <time>2023-04-10T08:54:59Z</time>
      </trkpt>
      <trkpt lat="45.44388" lon="5.71743">
        <ele>491</ele>
        <time>2023-04-10T08:55:00Z</time>
      </trkpt>
      <trkpt lat="45.44386" lon="5.71741">
        <ele>492</ele>
        <time>2023-04-10T08:55:02Z</time>
      </trkpt>
      <trkpt lat="45.44385" lon="5.71739">
        <ele>492</ele>
        <time>2023-04-10T08:55:03Z</time>
      </trkpt>
      <trkpt lat="45.44383" lon="5.71738">
        <ele>492</ele>
        <time>2023-04-10T08:55:04Z</time>
      </trkpt>
      <trkpt lat="45.44381" lon="5.71737">
        <ele>492</ele>
        <time>2023-04-10T08:55:05Z</time>
      </trkpt>
      <trkpt lat="45.44379" lon="5.71735">
        <ele>492</ele>
        <time>2023-04-10T08:55:06Z</time>
      </trkpt>
      <trkpt lat="45.44377" lon="5.71733">
        <ele>492</ele>
        <time>2023-04-10T08:55:07Z</time>
      </trkpt>
      <trkpt lat="45.44375" lon="5.71731">
        <ele>493</ele>
        <time>2023-04-10T08:55:08Z</time>
      </trkpt>
      <trkpt lat="45.44373" lon="5.71729">
        <ele>493</ele>
        <time>2023-04-10T08:55:09Z</time>
      </trkpt>
      <trkpt lat="45.44371" lon="5.71727">
        <ele>493</ele>
        <time>2023-04-10T08:55:10Z</time>
      </trkpt>
      <trkpt lat="45.44368" lon="5.71726">
        <ele>493</ele>
        <time>2023-04-10T08:55:12Z</time>
      </trkpt>
      <trkpt lat="45.44365" lon="5.71724">
        <ele>493</ele>
        <time>2023-04-10T08:55:14Z</time>
      </trkpt>
      <trkpt lat="45.44363" lon="5.71721">
        <ele>494</ele>
        <time>2023-04-10T08:55:16Z</time>
      </trkpt>
      <trkpt lat="45.4436" lon="5.71719">
        <ele>494</ele>
        <time>2023-04-10T08:55:18Z</time>
      </trkpt>
      <trkpt lat="45.44358" lon="5.71717">
        <ele>495</ele>
        <time>2023-04-10T08:55:20Z</time>
      </trkpt>
      <trkpt lat="45.44356" lon="5.71714">
        <ele>496</ele>
        <time>2023-04-10T08:55:22Z</time>
      </trkpt>
      <trkpt lat="45.44354" lon="5.71711">
        <ele>496</ele>
        <time>2023-04-10T08:55:24Z</time>
      </trkpt>
      <trkpt lat="45.44352" lon="5.71708">
        <ele>497</ele>
        <time>2023-04-10T08:55:26Z</time>
      </trkpt>
      <trkpt lat="45.4435" lon="5.71706">
        <ele>498</ele>
        <time>2023-04-10T08:55:28Z</time>
      </trkpt>
      <trkpt lat="45.44347" lon="5.71705">
        <ele>499</ele>
        <time>2023-04-10T08:55:30Z</time>
      </trkpt>
      <trkpt lat="45.44345" lon="5.71702">
        <ele>499</ele>
        <time>2023-04-10T08:55:32Z</time>
      </trkpt>
      <trkpt lat="45.44343" lon="5.71699">
        <ele>499</ele>
        <time>2023-04-10T08:55:34Z</time>
      </trkpt>
      <trkpt lat="45.44341" lon="5.71696">
        <ele>500</ele>
        <time>2023-04-10T08:55:36Z</time>
      </trkpt>
      <trkpt lat="45.44339" lon="5.71694">
        <ele>500</ele>
        <time>2023-04-10T08:55:38Z</time>
      </trkpt>
      <trkpt lat="45.44336" lon="5.71692">
        <ele>501</ele>
        <time>2023-04-10T08:55:40Z</time>
      </trkpt>
      <trkpt lat="45.44335" lon="5.71688">
        <ele>501</ele>
        <time>2023-04-10T08:55:42Z</time>
      </trkpt>
      <trkpt lat="45.44333" lon="5.71685">
        <ele>502</ele>
        <time>2023-04-10T08:55:44Z</time>
      </trkpt>
      <trkpt lat="45.44332" lon="5.71682">
        <ele>502</ele>
        <time>2023-04-10T08:55:46Z</time>
      </trkpt>
      <trkpt lat="45.44329" lon="5.7168">
        <ele>503</ele>
        <time>2023-04-10T08:55:48Z</time>
      </trkpt>
      <trkpt lat="45.44327" lon="5.71677">
        <ele>503</ele>
        <time>2023-04-10T08:55:50Z</time>
      </trkpt>
      <trkpt lat="45.44326" lon="5.71673">
        <ele>504</ele>
        <time>2023-04-10T08:55:52Z</time>
      </trkpt>
      <trkpt lat="45.44324" lon="5.7167">
        <ele>504</ele>
        <time>2023-04-10T08:55:54Z</time>
      </trkpt>
      <trkpt lat="45.44321" lon="5.71668">
        <ele>505</ele>
        <time>2023-04-10T08:55:56Z</time>
      </trkpt>
      <trkpt lat="45.44319" lon="5.71666">
        <ele>505</ele>
        <time>2023-04-10T08:55:58Z</time>
      </trkpt>
      <trkpt lat="45.44317" lon="5.71664">
        <ele>506</ele>
        <time>2023-04-10T08:56:00Z</time>
      </trkpt>
      <trkpt lat="45.44314" lon="5.71662">
        <ele>506</ele>
        <time>2023-04-10T08:56:02Z</time>
      </trkpt>
      <trkpt lat="45.44312" lon="5.71661">
        <ele>506</ele>
        <time>2023-04-10T08:56:04Z</time>
      </trkpt>
      <trkpt lat="45.4431" lon="5.71658">
        <ele>507</ele>
        <time>2023-04-10T08:56:06Z</time>
      </trkpt>
      <trkpt lat="45.44308" lon="5.71655">
        <ele>508</ele>
        <time>2023-04-10T08:56:08Z</time>
      </trkpt>
      <trkpt lat="45.44305" lon="5.71653">
        <ele>508</ele>
        <time>2023-04-10T08:56:10Z</time>
      </trkpt>
      <trkpt lat="45.44302" lon="5.71652">
        <ele>508</ele>
        <time>2023-04-10T08:56:11Z</time>
      </trkpt>
      <trkpt lat="45.44299" lon="5.71652">
        <ele>508</ele>
        <time>2023-04-10T08:56:12Z</time>
      </trkpt>
      <trkpt lat="45.44295" lon="5.71651">
        <ele>508</ele>
        <time>2023-04-10T08:56:13Z</time>
      </trkpt>
      <trkpt lat="45.4429" lon="5.71649">
        <ele>508</ele>
        <time>2023-04-10T08:56:14Z</time>
      </trkpt>
      <trkpt lat="45.44285" lon="5.71648">
        <ele>508</ele>
        <time>2023-04-10T08:56:15Z</time>
      </trkpt>
      <trkpt lat="45.44273" lon="5.71644">
        <ele>507</ele>
        <time>2023-04-10T08:56:16Z</time>
      </trkpt>
      <trkpt lat="45.44267" lon="5.7164">
        <ele>506</ele>
        <time>2023-04-10T08:56:18Z</time>
      </trkpt>
      <trkpt lat="45.44256" lon="5.71634">
        <ele>505</ele>
        <time>2023-04-10T08:56:20Z</time>
      </trkpt>
      <trkpt lat="45.4425" lon="5.7163">
        <ele>505</ele>
        <time>2023-04-10T08:56:21Z</time>
      </trkpt>
      <trkpt lat="45.44239" lon="5.71622">
        <ele>505</ele>
        <time>2023-04-10T08:56:23Z</time>
      </trkpt>
      <trkpt lat="45.44228" lon="5.71616">
        <ele>504</ele>
        <time>2023-04-10T08:56:25Z</time>
      </trkpt>
      <trkpt lat="45.44216" lon="5.7161">
        <ele>503</ele>
        <time>2023-04-10T08:56:27Z</time>
      </trkpt>
      <trkpt lat="45.44204" lon="5.71605">
        <ele>503</ele>
        <time>2023-04-10T08:56:29Z</time>
      </trkpt>
      <trkpt lat="45.44191" lon="5.71604">
        <ele>502</ele>
        <time>2023-04-10T08:56:32Z</time>
      </trkpt>
      <trkpt lat="45.44187" lon="5.71604">
        <ele>503</ele>
        <time>2023-04-10T08:56:33Z</time>
      </trkpt>
      <trkpt lat="45.44182" lon="5.71602">
        <ele>503</ele>
        <time>2023-04-10T08:56:35Z</time>
      </trkpt>
      <trkpt lat="45.44178" lon="5.716">
        <ele>506</ele>
        <time>2023-04-10T08:56:38Z</time>
      </trkpt>
      <trkpt lat="45.44174" lon="5.71597">
        <ele>506</ele>
        <time>2023-04-10T08:56:40Z</time>
      </trkpt>
      <trkpt lat="45.44172" lon="5.71596">
        <ele>506</ele>
        <time>2023-04-10T08:56:41Z</time>
      </trkpt>
      <trkpt lat="45.44171" lon="5.71596">
        <ele>506</ele>
        <time>2023-04-10T08:56:42Z</time>
      </trkpt>
      <trkpt lat="45.44169" lon="5.71596">
        <ele>506</ele>
        <time>2023-04-10T08:56:43Z</time>
      </trkpt>
      <trkpt lat="45.44167" lon="5.71596">
        <ele>507</ele>
        <time>2023-04-10T08:56:44Z</time>
      </trkpt>
      <trkpt lat="45.44163" lon="5.71597">
        <ele>508</ele>
        <time>2023-04-10T08:56:46Z</time>
      </trkpt>
      <trkpt lat="45.4416" lon="5.71598">
        <ele>509</ele>
        <time>2023-04-10T08:56:48Z</time>
      </trkpt>
      <trkpt lat="45.44158" lon="5.71599">
        <ele>509</ele>
        <time>2023-04-10T08:56:49Z</time>
      </trkpt>
      <trkpt lat="45.44155" lon="5.71601">
        <ele>509</ele>
        <time>2023-04-10T08:56:51Z</time>
      </trkpt>
      <trkpt lat="45.44153" lon="5.71601">
        <ele>509</ele>
        <time>2023-04-10T08:56:52Z</time>
      </trkpt>
      <trkpt lat="45.44149" lon="5.71602">
        <ele>509</ele>
        <time>2023-04-10T08:56:53Z</time>
      </trkpt>
      <trkpt lat="45.44142" lon="5.71603">
        <ele>509</ele>
        <time>2023-04-10T08:56:54Z</time>
      </trkpt>
      <trkpt lat="45.44138" lon="5.71603">
        <ele>509</ele>
        <time>2023-04-10T08:56:56Z</time>
      </trkpt>
      <trkpt lat="45.44135" lon="5.71603">
        <ele>509</ele>
        <time>2023-04-10T08:56:57Z</time>
      </trkpt>
      <trkpt lat="45.44132" lon="5.71603">
        <ele>509</ele>
        <time>2023-04-10T08:56:58Z</time>
      </trkpt>
      <trkpt lat="45.44129" lon="5.71601">
        <ele>509</ele>
        <time>2023-04-10T08:56:59Z</time>
      </trkpt>
      <trkpt lat="45.44126" lon="5.716">
        <ele>509</ele>
        <time>2023-04-10T08:57:00Z</time>
      </trkpt>
      <trkpt lat="45.44124" lon="5.71599">
        <ele>510</ele>
        <time>2023-04-10T08:57:01Z</time>
      </trkpt>
      <trkpt lat="45.44122" lon="5.71598">
        <ele>511</ele>
        <time>2023-04-10T08:57:02Z</time>
      </trkpt>
      <trkpt lat="45.44119" lon="5.71597">
        <ele>511</ele>
        <time>2023-04-10T08:57:03Z</time>
      </trkpt>
      <trkpt lat="45.44117" lon="5.71595">
        <ele>511</ele>
        <time>2023-04-10T08:57:04Z</time>
      </trkpt>
      <trkpt lat="45.44114" lon="5.71593">
        <ele>512</ele>
        <time>2023-04-10T08:57:05Z</time>
      </trkpt>
      <trkpt lat="45.44112" lon="5.71592">
        <ele>513</ele>
        <time>2023-04-10T08:57:06Z</time>
      </trkpt>
      <trkpt lat="45.4411" lon="5.7159">
        <ele>513</ele>
        <time>2023-04-10T08:57:07Z</time>
      </trkpt>
      <trkpt lat="45.44109" lon="5.71589">
        <ele>513</ele>
        <time>2023-04-10T08:57:08Z</time>
      </trkpt>
      <trkpt lat="45.44107" lon="5.71587">
        <ele>513</ele>
        <time>2023-04-10T08:57:09Z</time>
      </trkpt>
      <trkpt lat="45.44105" lon="5.71585">
        <ele>513</ele>
        <time>2023-04-10T08:57:10Z</time>
      </trkpt>
      <trkpt lat="45.44103" lon="5.71584">
        <ele>514</ele>
        <time>2023-04-10T08:57:11Z</time>
      </trkpt>
      <trkpt lat="45.44101" lon="5.71583">
        <ele>514</ele>
        <time>2023-04-10T08:57:12Z</time>
      </trkpt>
      <trkpt lat="45.44098" lon="5.71582">
        <ele>514</ele>
        <time>2023-04-10T08:57:13Z</time>
      </trkpt>
      <trkpt lat="45.44096" lon="5.71581">
        <ele>514</ele>
        <time>2023-04-10T08:57:14Z</time>
      </trkpt>
      <trkpt lat="45.44094" lon="5.7158">
        <ele>514</ele>
        <time>2023-04-10T08:57:15Z</time>
      </trkpt>
      <trkpt lat="45.44092" lon="5.71579">
        <ele>514</ele>
        <time>2023-04-10T08:57:16Z</time>
      </trkpt>
      <trkpt lat="45.44088" lon="5.71578">
        <ele>514</ele>
        <time>2023-04-10T08:57:17Z</time>
      </trkpt>
      <trkpt lat="45.44084" lon="5.71577">
        <ele>514</ele>
        <time>2023-04-10T08:57:18Z</time>
      </trkpt>
      <trkpt lat="45.4408" lon="5.71576">
        <ele>514</ele>
        <time>2023-04-10T08:57:19Z</time>
      </trkpt>
      <trkpt lat="45.44075" lon="5.71576">
        <ele>514</ele>
        <time>2023-04-10T08:57:20Z</time>
      </trkpt>
      <trkpt lat="45.4407" lon="5.71576">
        <ele>514</ele>
        <time>2023-04-10T08:57:21Z</time>
      </trkpt>
      <trkpt lat="45.44064" lon="5.71577">
        <ele>513</ele>
        <time>2023-04-10T08:57:22Z</time>
      </trkpt>
      <trkpt lat="45.44058" lon="5.71577">
        <ele>513</ele>
        <time>2023-04-10T08:57:23Z</time>
      </trkpt>
      <trkpt lat="45.44051" lon="5.71577">
        <ele>513</ele>
        <time>2023-04-10T08:57:24Z</time>
      </trkpt>
      <trkpt lat="45.44044" lon="5.71576">
        <ele>513</ele>
        <time>2023-04-10T08:57:25Z</time>
      </trkpt>
      <trkpt lat="45.44037" lon="5.71574">
        <ele>512</ele>
        <time>2023-04-10T08:57:26Z</time>
      </trkpt>
      <trkpt lat="45.4403" lon="5.71572">
        <ele>512</ele>
        <time>2023-04-10T08:57:27Z</time>
      </trkpt>
      <trkpt lat="45.44025" lon="5.71571">
        <ele>512</ele>
        <time>2023-04-10T08:57:28Z</time>
      </trkpt>
      <trkpt lat="45.44019" lon="5.71568">
        <ele>512</ele>
        <time>2023-04-10T08:57:29Z</time>
      </trkpt>
      <trkpt lat="45.44015" lon="5.71566">
        <ele>511</ele>
        <time>2023-04-10T08:57:30Z</time>
      </trkpt>
      <trkpt lat="45.44011" lon="5.71563">
        <ele>511</ele>
        <time>2023-04-10T08:57:31Z</time>
      </trkpt>
      <trkpt lat="45.44007" lon="5.71562">
        <ele>512</ele>
        <time>2023-04-10T08:57:32Z</time>
      </trkpt>
      <trkpt lat="45.44004" lon="5.71561">
        <ele>513</ele>
        <time>2023-04-10T08:57:33Z</time>
      </trkpt>
      <trkpt lat="45.44001" lon="5.71559">
        <ele>514</ele>
        <time>2023-04-10T08:57:34Z</time>
      </trkpt>
      <trkpt lat="45.43998" lon="5.71558">
        <ele>514</ele>
        <time>2023-04-10T08:57:35Z</time>
      </trkpt>
      <trkpt lat="45.43995" lon="5.71556">
        <ele>515</ele>
        <time>2023-04-10T08:57:36Z</time>
      </trkpt>
      <trkpt lat="45.43992" lon="5.71554">
        <ele>515</ele>
        <time>2023-04-10T08:57:37Z</time>
      </trkpt>
      <trkpt lat="45.43989" lon="5.71552">
        <ele>515</ele>
        <time>2023-04-10T08:57:38Z</time>
      </trkpt>
      <trkpt lat="45.43986" lon="5.7155">
        <ele>515</ele>
        <time>2023-04-10T08:57:39Z</time>
      </trkpt>
      <trkpt lat="45.43984" lon="5.71548">
        <ele>515</ele>
        <time>2023-04-10T08:57:40Z</time>
      </trkpt>
      <trkpt lat="45.43982" lon="5.71546">
        <ele>516</ele>
        <time>2023-04-10T08:57:41Z</time>
      </trkpt>
      <trkpt lat="45.43981" lon="5.71543">
        <ele>517</ele>
        <time>2023-04-10T08:57:42Z</time>
      </trkpt>
      <trkpt lat="45.43978" lon="5.7154">
        <ele>517</ele>
        <time>2023-04-10T08:57:44Z</time>
      </trkpt>
      <trkpt lat="45.43977" lon="5.71537">
        <ele>518</ele>
        <time>2023-04-10T08:57:45Z</time>
      </trkpt>
      <trkpt lat="45.43976" lon="5.71534">
        <ele>518</ele>
        <time>2023-04-10T08:57:46Z</time>
      </trkpt>
      <trkpt lat="45.43974" lon="5.71531">
        <ele>518</ele>
        <time>2023-04-10T08:57:47Z</time>
      </trkpt>
      <trkpt lat="45.43973" lon="5.71529">
        <ele>518</ele>
        <time>2023-04-10T08:57:48Z</time>
      </trkpt>
      <trkpt lat="45.43971" lon="5.71527">
        <ele>518</ele>
        <time>2023-04-10T08:57:49Z</time>
      </trkpt>
      <trkpt lat="45.4397" lon="5.71524">
        <ele>518</ele>
        <time>2023-04-10T08:57:50Z</time>
      </trkpt>
      <trkpt lat="45.43967" lon="5.7152">
        <ele>518</ele>
        <time>2023-04-10T08:57:51Z</time>
      </trkpt>
      <trkpt lat="45.43965" lon="5.71513">
        <ele>519</ele>
        <time>2023-04-10T08:57:55Z</time>
      </trkpt>
      <trkpt lat="45.43963" lon="5.71511">
        <ele>520</ele>
        <time>2023-04-10T08:57:57Z</time>
      </trkpt>
      <trkpt lat="45.4396" lon="5.71508">
        <ele>521</ele>
        <time>2023-04-10T08:57:59Z</time>
      </trkpt>
      <trkpt lat="45.43959" lon="5.71506">
        <ele>522</ele>
        <time>2023-04-10T08:58:00Z</time>
      </trkpt>
      <trkpt lat="45.43956" lon="5.71503">
        <ele>523</ele>
        <time>2023-04-10T08:58:02Z</time>
      </trkpt>
      <trkpt lat="45.43952" lon="5.71499">
        <ele>523</ele>
        <time>2023-04-10T08:58:04Z</time>
      </trkpt>
      <trkpt lat="45.43945" lon="5.71491">
        <ele>524</ele>
        <time>2023-04-10T08:58:08Z</time>
      </trkpt>
      <trkpt lat="45.43937" lon="5.71484">
        <ele>524</ele>
        <time>2023-04-10T08:58:10Z</time>
      </trkpt>
      <trkpt lat="45.43935" lon="5.71481">
        <ele>524</ele>
        <time>2023-04-10T08:58:13Z</time>
      </trkpt>
      <trkpt lat="45.43935" lon="5.71481">
        <ele>524</ele>
        <time>2023-04-10T08:58:17Z</time>
      </trkpt>
      <trkpt lat="45.43938" lon="5.71483">
        <ele>524</ele>
        <time>2023-04-10T08:58:26Z</time>
      </trkpt>
      <trkpt lat="45.43948" lon="5.7149">
        <ele>524</ele>
        <time>2023-04-10T08:58:31Z</time>
      </trkpt>
      <trkpt lat="45.43957" lon="5.71492">
        <ele>525</ele>
        <time>2023-04-10T08:58:36Z</time>
      </trkpt>
      <trkpt lat="45.43963" lon="5.7149">
        <ele>526</ele>
        <time>2023-04-10T08:58:40Z</time>
      </trkpt>
      <trkpt lat="45.43964" lon="5.71486">
        <ele>528</ele>
        <time>2023-04-10T08:58:45Z</time>
      </trkpt>
      <trkpt lat="45.43964" lon="5.71485">
        <ele>530</ele>
        <time>2023-04-10T08:58:49Z</time>
      </trkpt>
      <trkpt lat="45.43966" lon="5.71482">
        <ele>531</ele>
        <time>2023-04-10T08:58:52Z</time>
      </trkpt>
      <trkpt lat="45.43967" lon="5.71482">
        <ele>531</ele>
        <time>2023-04-10T08:58:53Z</time>
      </trkpt>
      <trkpt lat="45.43969" lon="5.71481">
        <ele>532</ele>
        <time>2023-04-10T08:58:56Z</time>
      </trkpt>
      <trkpt lat="45.43972" lon="5.7148">
        <ele>533</ele>
        <time>2023-04-10T08:59:00Z</time>
      </trkpt>
      <trkpt lat="45.43974" lon="5.71478">
        <ele>534</ele>
        <time>2023-04-10T08:59:03Z</time>
      </trkpt>
      <trkpt lat="45.43975" lon="5.71476">
        <ele>536</ele>
        <time>2023-04-10T08:59:09Z</time>
      </trkpt>
      <trkpt lat="45.43976" lon="5.71474">
        <ele>536</ele>
        <time>2023-04-10T08:59:12Z</time>
      </trkpt>
      <trkpt lat="45.43979" lon="5.71473">
        <ele>538</ele>
        <time>2023-04-10T08:59:16Z</time>
      </trkpt>
      <trkpt lat="45.43981" lon="5.71472">
        <ele>540</ele>
        <time>2023-04-10T08:59:20Z</time>
      </trkpt>
      <trkpt lat="45.43983" lon="5.71471">
        <ele>541</ele>
        <time>2023-04-10T08:59:23Z</time>
      </trkpt>
      <trkpt lat="45.43986" lon="5.71471">
        <ele>541</ele>
        <time>2023-04-10T08:59:26Z</time>
      </trkpt>
      <trkpt lat="45.43988" lon="5.71472">
        <ele>542</ele>
        <time>2023-04-10T08:59:29Z</time>
      </trkpt>
      <trkpt lat="45.4399" lon="5.71472">
        <ele>542</ele>
        <time>2023-04-10T08:59:31Z</time>
      </trkpt>
      <trkpt lat="45.43992" lon="5.71472">
        <ele>543</ele>
        <time>2023-04-10T08:59:33Z</time>
      </trkpt>
      <trkpt lat="45.43995" lon="5.71472">
        <ele>543</ele>
        <time>2023-04-10T08:59:36Z</time>
      </trkpt>
      <trkpt lat="45.43997" lon="5.71472">
        <ele>543</ele>
        <time>2023-04-10T08:59:38Z</time>
      </trkpt>
      <trkpt lat="45.43999" lon="5.71472">
        <ele>544</ele>
        <time>2023-04-10T08:59:41Z</time>
      </trkpt>
      <trkpt lat="45.43999" lon="5.71471">
        <ele>544</ele>
        <time>2023-04-10T08:59:45Z</time>
      </trkpt>
      <trkpt lat="45.44003" lon="5.71469">
        <ele>544</ele>
        <time>2023-04-10T09:00:46Z</time>
      </trkpt>
      <trkpt lat="45.44006" lon="5.71469">
        <ele>544</ele>
        <time>2023-04-10T09:00:50Z</time>
      </trkpt>
      <trkpt lat="45.44008" lon="5.71468">
        <ele>545</ele>
        <time>2023-04-10T09:00:52Z</time>
      </trkpt>
      <trkpt lat="45.4401" lon="5.71468">
        <ele>545</ele>
        <time>2023-04-10T09:00:53Z</time>
      </trkpt>
      <trkpt lat="45.44013" lon="5.71467">
        <ele>546</ele>
        <time>2023-04-10T09:00:55Z</time>
      </trkpt>
      <trkpt lat="45.44015" lon="5.71466">
        <ele>546</ele>
        <time>2023-04-10T09:00:56Z</time>
      </trkpt>
      <trkpt lat="45.44018" lon="5.71467">
        <ele>546</ele>
        <time>2023-04-10T09:00:57Z</time>
      </trkpt>
      <trkpt lat="45.44021" lon="5.71468">
        <ele>546</ele>
        <time>2023-04-10T09:00:58Z</time>
      </trkpt>
      <trkpt lat="45.44023" lon="5.71468">
        <ele>546</ele>
        <time>2023-04-10T09:00:59Z</time>
      </trkpt>
      <trkpt lat="45.44025" lon="5.71468">
        <ele>546</ele>
        <time>2023-04-10T09:01:00Z</time>
      </trkpt>
      <trkpt lat="45.44028" lon="5.71467">
        <ele>546</ele>
        <time>2023-04-10T09:01:01Z</time>
      </trkpt>
      <trkpt lat="45.44032" lon="5.71458">
        <ele>546</ele>
        <time>2023-04-10T09:01:06Z</time>
      </trkpt>
      <trkpt lat="45.44031" lon="5.71453">
        <ele>547</ele>
        <time>2023-04-10T09:01:08Z</time>
      </trkpt>
      <trkpt lat="45.4403" lon="5.7145">
        <ele>548</ele>
        <time>2023-04-10T09:01:10Z</time>
      </trkpt>
      <trkpt lat="45.44028" lon="5.71445">
        <ele>550</ele>
        <time>2023-04-10T09:01:13Z</time>
      </trkpt>
      <trkpt lat="45.44027" lon="5.71441">
        <ele>551</ele>
        <time>2023-04-10T09:01:15Z</time>
      </trkpt>
      <trkpt lat="45.44024" lon="5.71437">
        <ele>551</ele>
        <time>2023-04-10T09:01:17Z</time>
      </trkpt>
      <trkpt lat="45.44023" lon="5.71435">
        <ele>551</ele>
        <time>2023-04-10T09:01:18Z</time>
      </trkpt>
      <trkpt lat="45.44023" lon="5.71432">
        <ele>552</ele>
        <time>2023-04-10T09:01:19Z</time>
      </trkpt>
      <trkpt lat="45.44023" lon="5.71428">
        <ele>553</ele>
        <time>2023-04-10T09:01:21Z</time>
      </trkpt>
      <trkpt lat="45.44024" lon="5.71424">
        <ele>554</ele>
        <time>2023-04-10T09:01:23Z</time>
      </trkpt>
      <trkpt lat="45.44024" lon="5.7142">
        <ele>554</ele>
        <time>2023-04-10T09:01:25Z</time>
      </trkpt>
      <trkpt lat="45.44025" lon="5.71417">
        <ele>555</ele>
        <time>2023-04-10T09:01:26Z</time>
      </trkpt>
      <trkpt lat="45.44026" lon="5.71414">
        <ele>555</ele>
        <time>2023-04-10T09:01:27Z</time>
      </trkpt>
      <trkpt lat="45.44027" lon="5.71411">
        <ele>555</ele>
        <time>2023-04-10T09:01:28Z</time>
      </trkpt>
      <trkpt lat="45.44027" lon="5.71409">
        <ele>556</ele>
        <time>2023-04-10T09:01:29Z</time>
      </trkpt>
      <trkpt lat="45.44027" lon="5.71405">
        <ele>556</ele>
        <time>2023-04-10T09:01:30Z</time>
      </trkpt>
      <trkpt lat="45.44028" lon="5.71402">
        <ele>556</ele>
        <time>2023-04-10T09:01:31Z</time>
      </trkpt>
      <trkpt lat="45.44027" lon="5.71398">
        <ele>556</ele>
        <time>2023-04-10T09:01:32Z</time>
      </trkpt>
      <trkpt lat="45.44027" lon="5.71395">
        <ele>556</ele>
        <time>2023-04-10T09:01:33Z</time>
      </trkpt>
      <trkpt lat="45.44027" lon="5.71392">
        <ele>556</ele>
        <time>2023-04-10T09:01:34Z</time>
      </trkpt>
      <trkpt lat="45.44027" lon="5.71388">
        <ele>556</ele>
        <time>2023-04-10T09:01:35Z</time>
      </trkpt>
      <trkpt lat="45.44027" lon="5.71386">
        <ele>556</ele>
        <time>2023-04-10T09:01:37Z</time>
      </trkpt>
      <trkpt lat="45.44026" lon="5.71388">
        <ele>557</ele>
        <time>2023-04-10T09:01:40Z</time>
      </trkpt>
      <trkpt lat="45.44026" lon="5.71394">
        <ele>556</ele>
        <time>2023-04-10T09:01:42Z</time>
      </trkpt>
      <trkpt lat="45.44026" lon="5.71397">
        <ele>557</ele>
        <time>2023-04-10T09:01:43Z</time>
      </trkpt>
      <trkpt lat="45.44027" lon="5.71401">
        <ele>557</ele>
        <time>2023-04-10T09:01:44Z</time>
      </trkpt>
      <trkpt lat="45.44028" lon="5.71406">
        <ele>557</ele>
        <time>2023-04-10T09:01:45Z</time>
      </trkpt>
      <trkpt lat="45.44029" lon="5.7141">
        <ele>557</ele>
        <time>2023-04-10T09:01:46Z</time>
      </trkpt>
      <trkpt lat="45.44031" lon="5.71413">
        <ele>557</ele>
        <time>2023-04-10T09:01:47Z</time>
      </trkpt>
      <trkpt lat="45.44033" lon="5.71417">
        <ele>557</ele>
        <time>2023-04-10T09:01:48Z</time>
      </trkpt>
      <trkpt lat="45.44035" lon="5.7142">
        <ele>556</ele>
        <time>2023-04-10T09:01:49Z</time>
      </trkpt>
      <trkpt lat="45.44038" lon="5.71424">
        <ele>556</ele>
        <time>2023-04-10T09:01:50Z</time>
      </trkpt>
      <trkpt lat="45.44041" lon="5.71427">
        <ele>556</ele>
        <time>2023-04-10T09:01:51Z</time>
      </trkpt>
      <trkpt lat="45.44046" lon="5.71431">
        <ele>556</ele>
        <time>2023-04-10T09:01:52Z</time>
      </trkpt>
      <trkpt lat="45.4405" lon="5.71435">
        <ele>556</ele>
        <time>2023-04-10T09:01:53Z</time>
      </trkpt>
      <trkpt lat="45.44055" lon="5.71438">
        <ele>556</ele>
        <time>2023-04-10T09:01:54Z</time>
      </trkpt>
      <trkpt lat="45.44058" lon="5.7144">
        <ele>555</ele>
        <time>2023-04-10T09:01:55Z</time>
      </trkpt>
      <trkpt lat="45.4406" lon="5.71441">
        <ele>555</ele>
        <time>2023-04-10T09:01:56Z</time>
      </trkpt>
      <trkpt lat="45.44062" lon="5.71441">
        <ele>554</ele>
        <time>2023-04-10T09:01:57Z</time>
      </trkpt>
      <trkpt lat="45.44065" lon="5.71442">
        <ele>554</ele>
        <time>2023-04-10T09:01:59Z</time>
      </trkpt>
      <trkpt lat="45.44064" lon="5.7144">
        <ele>553</ele>
        <time>2023-04-10T09:02:02Z</time>
      </trkpt>
      <trkpt lat="45.44061" lon="5.7144">
        <ele>552</ele>
        <time>2023-04-10T09:02:03Z</time>
      </trkpt>
      <trkpt lat="45.44059" lon="5.7144">
        <ele>553</ele>
        <time>2023-04-10T09:02:04Z</time>
      </trkpt>
      <trkpt lat="45.44057" lon="5.7144">
        <ele>553</ele>
        <time>2023-04-10T09:02:05Z</time>
      </trkpt>
      <trkpt lat="45.44054" lon="5.7144">
        <ele>554</ele>
        <time>2023-04-10T09:02:06Z</time>
      </trkpt>
      <trkpt lat="45.44052" lon="5.71439">
        <ele>554</ele>
        <time>2023-04-10T09:02:07Z</time>
      </trkpt>
      <trkpt lat="45.4405" lon="5.71437">
        <ele>554</ele>
        <time>2023-04-10T09:02:08Z</time>
      </trkpt>
      <trkpt lat="45.44048" lon="5.71436">
        <ele>554</ele>
        <time>2023-04-10T09:02:09Z</time>
      </trkpt>
      <trkpt lat="45.44046" lon="5.71435">
        <ele>554</ele>
        <time>2023-04-10T09:02:10Z</time>
      </trkpt>
      <trkpt lat="45.44045" lon="5.71434">
        <ele>554</ele>
        <time>2023-04-10T09:02:11Z</time>
      </trkpt>
      <trkpt lat="45.44041" lon="5.71432">
        <ele>555</ele>
        <time>2023-04-10T09:02:13Z</time>
      </trkpt>
      <trkpt lat="45.44039" lon="5.71431">
        <ele>555</ele>
        <time>2023-04-10T09:02:14Z</time>
      </trkpt>
      <trkpt lat="45.44038" lon="5.71429">
        <ele>555</ele>
        <time>2023-04-10T09:02:15Z</time>
      </trkpt>
      <trkpt lat="45.44036" lon="5.71428">
        <ele>555</ele>
        <time>2023-04-10T09:02:16Z</time>
      </trkpt>
      <trkpt lat="45.44035" lon="5.71426">
        <ele>556</ele>
        <time>2023-04-10T09:02:17Z</time>
      </trkpt>
      <trkpt lat="45.44033" lon="5.71425">
        <ele>556</ele>
        <time>2023-04-10T09:02:18Z</time>
      </trkpt>
      <trkpt lat="45.44032" lon="5.71422">
        <ele>556</ele>
        <time>2023-04-10T09:02:19Z</time>
      </trkpt>
      <trkpt lat="45.44031" lon="5.7142">
        <ele>556</ele>
        <time>2023-04-10T09:02:20Z</time>
      </trkpt>
      <trkpt lat="45.44029" lon="5.71416">
        <ele>556</ele>
        <time>2023-04-10T09:02:22Z</time>
      </trkpt>
      <trkpt lat="45.44027" lon="5.71412">
        <ele>556</ele>
        <time>2023-04-10T09:02:24Z</time>
      </trkpt>
      <trkpt lat="45.44027" lon="5.71409">
        <ele>557</ele>
        <time>2023-04-10T09:02:26Z</time>
      </trkpt>
      <trkpt lat="45.44027" lon="5.71409">
        <ele>557</ele>
        <time>2023-04-10T09:02:31Z</time>
      </trkpt>
      <trkpt lat="45.44034" lon="5.71417">
        <ele>557</ele>
        <time>2023-04-10T09:03:22Z</time>
      </trkpt>
      <trkpt lat="45.44035" lon="5.71421">
        <ele>557</ele>
        <time>2023-04-10T09:03:23Z</time>
      </trkpt>
      <trkpt lat="45.44038" lon="5.71425">
        <ele>557</ele>
        <time>2023-04-10T09:03:24Z</time>
      </trkpt>
      <trkpt lat="45.44041" lon="5.71429">
        <ele>557</ele>
        <time>2023-04-10T09:03:25Z</time>
      </trkpt>
      <trkpt lat="45.44046" lon="5.71433">
        <ele>556</ele>
        <time>2023-04-10T09:03:26Z</time>
      </trkpt>
      <trkpt lat="45.44051" lon="5.71436">
        <ele>556</ele>
        <time>2023-04-10T09:03:27Z</time>
      </trkpt>
      <trkpt lat="45.44057" lon="5.71439">
        <ele>556</ele>
        <time>2023-04-10T09:03:28Z</time>
      </trkpt>
      <trkpt lat="45.44062" lon="5.7144">
        <ele>556</ele>
        <time>2023-04-10T09:03:29Z</time>
      </trkpt>
      <trkpt lat="45.44067" lon="5.7144">
        <ele>555</ele>
        <time>2023-04-10T09:03:30Z</time>
      </trkpt>
      <trkpt lat="45.44078" lon="5.71441">
        <ele>555</ele>
        <time>2023-04-10T09:03:32Z</time>
      </trkpt>
      <trkpt lat="45.44092" lon="5.71445">
        <ele>554</ele>
        <time>2023-04-10T09:03:34Z</time>
      </trkpt>
      <trkpt lat="45.44105" lon="5.71448">
        <ele>553</ele>
        <time>2023-04-10T09:03:36Z</time>
      </trkpt>
      <trkpt lat="45.44119" lon="5.71461">
        <ele>552</ele>
        <time>2023-04-10T09:03:38Z</time>
      </trkpt>
      <trkpt lat="45.44132" lon="5.71471">
        <ele>551</ele>
        <time>2023-04-10T09:03:39Z</time>
      </trkpt>
      <trkpt lat="45.44146" lon="5.7148">
        <ele>550</ele>
        <time>2023-04-10T09:03:40Z</time>
      </trkpt>
      <trkpt lat="45.44158" lon="5.71489">
        <ele>549</ele>
        <time>2023-04-10T09:03:41Z</time>
      </trkpt>
      <trkpt lat="45.44166" lon="5.71496">
        <ele>549</ele>
        <time>2023-04-10T09:03:42Z</time>
      </trkpt>
      <trkpt lat="45.44175" lon="5.71503">
        <ele>548</ele>
        <time>2023-04-10T09:03:43Z</time>
      </trkpt>
      <trkpt lat="45.44183" lon="5.71509">
        <ele>548</ele>
        <time>2023-04-10T09:03:44Z</time>
      </trkpt>
      <trkpt lat="45.44192" lon="5.71514">
        <ele>548</ele>
        <time>2023-04-10T09:03:45Z</time>
      </trkpt>
      <trkpt lat="45.44203" lon="5.7152">
        <ele>548</ele>
        <time>2023-04-10T09:03:46Z</time>
      </trkpt>
      <trkpt lat="45.44214" lon="5.71526">
        <ele>548</ele>
        <time>2023-04-10T09:03:47Z</time>
      </trkpt>
      <trkpt lat="45.44224" lon="5.71531">
        <ele>547</ele>
        <time>2023-04-10T09:03:48Z</time>
      </trkpt>
      <trkpt lat="45.44234" lon="5.71534">
        <ele>546</ele>
        <time>2023-04-10T09:03:49Z</time>
      </trkpt>
      <trkpt lat="45.44244" lon="5.71537">
        <ele>545</ele>
        <time>2023-04-10T09:03:50Z</time>
      </trkpt>
      <trkpt lat="45.44253" lon="5.71541">
        <ele>544</ele>
        <time>2023-04-10T09:03:51Z</time>
      </trkpt>
      <trkpt lat="45.44268" lon="5.71547">
        <ele>543</ele>
        <time>2023-04-10T09:03:53Z</time>
      </trkpt>
      <trkpt lat="45.44284" lon="5.71552">
        <ele>541</ele>
        <time>2023-04-10T09:03:55Z</time>
      </trkpt>
      <trkpt lat="45.44294" lon="5.71556">
        <ele>540</ele>
        <time>2023-04-10T09:03:56Z</time>
      </trkpt>
      <trkpt lat="45.44303" lon="5.71562">
        <ele>540</ele>
        <time>2023-04-10T09:03:57Z</time>
      </trkpt>
      <trkpt lat="45.4431" lon="5.71571">
        <ele>540</ele>
        <time>2023-04-10T09:03:58Z</time>
      </trkpt>
      <trkpt lat="45.44316" lon="5.71581">
        <ele>539</ele>
        <time>2023-04-10T09:03:59Z</time>
      </trkpt>
      <trkpt lat="45.44322" lon="5.7159">
        <ele>538</ele>
        <time>2023-04-10T09:04:00Z</time>
      </trkpt>
      <trkpt lat="45.44329" lon="5.71598">
        <ele>538</ele>
        <time>2023-04-10T09:04:01Z</time>
      </trkpt>
      <trkpt lat="45.44334" lon="5.71603">
        <ele>538</ele>
        <time>2023-04-10T09:04:02Z</time>
      </trkpt>
      <trkpt lat="45.44341" lon="5.71604">
        <ele>538</ele>
        <time>2023-04-10T09:04:03Z</time>
      </trkpt>
      <trkpt lat="45.44353" lon="5.71608">
        <ele>536</ele>
        <time>2023-04-10T09:04:05Z</time>
      </trkpt>
      <trkpt lat="45.44362" lon="5.71607">
        <ele>537</ele>
        <time>2023-04-10T09:04:08Z</time>
      </trkpt>
      <trkpt lat="45.44365" lon="5.71606">
        <ele>537</ele>
        <time>2023-04-10T09:04:09Z</time>
      </trkpt>
      <trkpt lat="45.44374" lon="5.71603">
        <ele>539</ele>
        <time>2023-04-10T09:04:14Z</time>
      </trkpt>
      <trkpt lat="45.44376" lon="5.71602">
        <ele>540</ele>
        <time>2023-04-10T09:04:15Z</time>
      </trkpt>
      <trkpt lat="45.44379" lon="5.71601">
        <ele>541</ele>
        <time>2023-04-10T09:04:17Z</time>
      </trkpt>
      <trkpt lat="45.44382" lon="5.716">
        <ele>542</ele>
        <time>2023-04-10T09:04:19Z</time>
      </trkpt>
      <trkpt lat="45.44384" lon="5.716">
        <ele>542</ele>
        <time>2023-04-10T09:04:20Z</time>
      </trkpt>
      <trkpt lat="45.44388" lon="5.716">
        <ele>542</ele>
        <time>2023-04-10T09:04:22Z</time>
      </trkpt>
      <trkpt lat="45.4439" lon="5.71598">
        <ele>543</ele>
        <time>2023-04-10T09:04:24Z</time>
      </trkpt>
      <trkpt lat="45.44392" lon="5.71597">
        <ele>543</ele>
        <time>2023-04-10T09:04:26Z</time>
      </trkpt>
      <trkpt lat="45.44397" lon="5.71598">
        <ele>544</ele>
        <time>2023-04-10T09:04:29Z</time>
      </trkpt>
      <trkpt lat="45.44406" lon="5.71596">
        <ele>545</ele>
        <time>2023-04-10T09:04:34Z</time>
      </trkpt>
      <trkpt lat="45.44412" lon="5.71592">
        <ele>546</ele>
        <time>2023-04-10T09:04:37Z</time>
      </trkpt>
      <trkpt lat="45.44415" lon="5.71592">
        <ele>546</ele>
        <time>2023-04-10T09:04:38Z</time>
      </trkpt>
      <trkpt lat="45.44416" lon="5.71592">
        <ele>546</ele>
        <time>2023-04-10T09:04:39Z</time>
      </trkpt>
      <trkpt lat="45.44418" lon="5.71592">
        <ele>546</ele>
        <time>2023-04-10T09:04:40Z</time>
      </trkpt>
      <trkpt lat="45.44422" lon="5.71592">
        <ele>547</ele>
        <time>2023-04-10T09:04:42Z</time>
      </trkpt>
      <trkpt lat="45.44425" lon="5.71592">
        <ele>549</ele>
        <time>2023-04-10T09:04:44Z</time>
      </trkpt>
      <trkpt lat="45.44427" lon="5.71593">
        <ele>549</ele>
        <time>2023-04-10T09:04:45Z</time>
      </trkpt>
      <trkpt lat="45.44429" lon="5.71593">
        <ele>549</ele>
        <time>2023-04-10T09:04:46Z</time>
      </trkpt>
      <trkpt lat="45.44433" lon="5.71594">
        <ele>550</ele>
        <time>2023-04-10T09:04:48Z</time>
      </trkpt>
      <trkpt lat="45.44435" lon="5.71596">
        <ele>551</ele>
        <time>2023-04-10T09:04:49Z</time>
      </trkpt>
      <trkpt lat="45.44438" lon="5.71598">
        <ele>551</ele>
        <time>2023-04-10T09:04:50Z</time>
      </trkpt>
      <trkpt lat="45.44446" lon="5.71606">
        <ele>550</ele>
        <time>2023-04-10T09:04:53Z</time>
      </trkpt>
      <trkpt lat="45.44454" lon="5.71617">
        <ele>550</ele>
        <time>2023-04-10T09:04:56Z</time>
      </trkpt>
      <trkpt lat="45.44458" lon="5.7162">
        <ele>550</ele>
        <time>2023-04-10T09:04:57Z</time>
      </trkpt>
      <trkpt lat="45.44461" lon="5.71623">
        <ele>550</ele>
        <time>2023-04-10T09:04:58Z</time>
      </trkpt>
      <trkpt lat="45.44469" lon="5.7163">
        <ele>550</ele>
        <time>2023-04-10T09:05:01Z</time>
      </trkpt>
      <trkpt lat="45.44481" lon="5.71636">
        <ele>550</ele>
        <time>2023-04-10T09:05:04Z</time>
      </trkpt>
      <trkpt lat="45.44493" lon="5.71642">
        <ele>550</ele>
        <time>2023-04-10T09:05:07Z</time>
      </trkpt>
      <trkpt lat="45.44504" lon="5.71642">
        <ele>550</ele>
        <time>2023-04-10T09:05:12Z</time>
      </trkpt>
      <trkpt lat="45.44503" lon="5.71639">
        <ele>550</ele>
        <time>2023-04-10T09:05:14Z</time>
      </trkpt>
      <trkpt lat="45.44502" lon="5.71636">
        <ele>551</ele>
        <time>2023-04-10T09:05:16Z</time>
      </trkpt>
      <trkpt lat="45.44501" lon="5.71633">
        <ele>552</ele>
        <time>2023-04-10T09:05:18Z</time>
      </trkpt>
      <trkpt lat="45.445" lon="5.7163">
        <ele>552</ele>
        <time>2023-04-10T09:05:20Z</time>
      </trkpt>
      <trkpt lat="45.44499" lon="5.71628">
        <ele>553</ele>
        <time>2023-04-10T09:05:22Z</time>
      </trkpt>
      <trkpt lat="45.44498" lon="5.71625">
        <ele>554</ele>
        <time>2023-04-10T09:05:24Z</time>
      </trkpt>
      <trkpt lat="45.44496" lon="5.71622">
        <ele>554</ele>
        <time>2023-04-10T09:05:26Z</time>
      </trkpt>
      <trkpt lat="45.44494" lon="5.71621">
        <ele>555</ele>
        <time>2023-04-10T09:05:28Z</time>
      </trkpt>
      <trkpt lat="45.44492" lon="5.71619">
        <ele>556</ele>
        <time>2023-04-10T09:05:30Z</time>
      </trkpt>
      <trkpt lat="45.44491" lon="5.71615">
        <ele>557</ele>
        <time>2023-04-10T09:05:32Z</time>
      </trkpt>
      <trkpt lat="45.44488" lon="5.71613">
        <ele>557</ele>
        <time>2023-04-10T09:05:34Z</time>
      </trkpt>
      <trkpt lat="45.44486" lon="5.71611">
        <ele>558</ele>
        <time>2023-04-10T09:05:36Z</time>
      </trkpt>
      <trkpt lat="45.44484" lon="5.71608">
        <ele>559</ele>
        <time>2023-04-10T09:05:38Z</time>
      </trkpt>
      <trkpt lat="45.44482" lon="5.71606">
        <ele>559</ele>
        <time>2023-04-10T09:05:40Z</time>
      </trkpt>
      <trkpt lat="45.4448" lon="5.71604">
        <ele>559</ele>
        <time>2023-04-10T09:05:42Z</time>
      </trkpt>
      <trkpt lat="45.44477" lon="5.71602">
        <ele>559</ele>
        <time>2023-04-10T09:05:44Z</time>
      </trkpt>
      <trkpt lat="45.44474" lon="5.71599">
        <ele>560</ele>
        <time>2023-04-10T09:05:46Z</time>
      </trkpt>
      <trkpt lat="45.44473" lon="5.71598">
        <ele>560</ele>
        <time>2023-04-10T09:05:47Z</time>
      </trkpt>
      <trkpt lat="45.44471" lon="5.71597">
        <ele>560</ele>
        <time>2023-04-10T09:05:48Z</time>
      </trkpt>
      <trkpt lat="45.44469" lon="5.71595">
        <ele>560</ele>
        <time>2023-04-10T09:05:49Z</time>
      </trkpt>
      <trkpt lat="45.44467" lon="5.71593">
        <ele>560</ele>
        <time>2023-04-10T09:05:50Z</time>
      </trkpt>
      <trkpt lat="45.44464" lon="5.71591">
        <ele>560</ele>
        <time>2023-04-10T09:05:51Z</time>
      </trkpt>
      <trkpt lat="45.44461" lon="5.71588">
        <ele>560</ele>
        <time>2023-04-10T09:05:52Z</time>
      </trkpt>
      <trkpt lat="45.44458" lon="5.71585">
        <ele>560</ele>
        <time>2023-04-10T09:05:53Z</time>
      </trkpt>
      <trkpt lat="45.44454" lon="5.71582">
        <ele>560</ele>
        <time>2023-04-10T09:05:54Z</time>
      </trkpt>
      <trkpt lat="45.44445" lon="5.71574">
        <ele>561</ele>
        <time>2023-04-10T09:05:57Z</time>
      </trkpt>
      <trkpt lat="45.4444" lon="5.71569">
        <ele>561</ele>
        <time>2023-04-10T09:05:59Z</time>
      </trkpt>
      <trkpt lat="45.44438" lon="5.71567">
        <ele>561</ele>
        <time>2023-04-10T09:06:00Z</time>
      </trkpt>
      <trkpt lat="45.44437" lon="5.71565">
        <ele>561</ele>
        <time>2023-04-10T09:06:01Z</time>
      </trkpt>
      <trkpt lat="45.44434" lon="5.71561">
        <ele>561</ele>
        <time>2023-04-10T09:06:03Z</time>
      </trkpt>
      <trkpt lat="45.44432" lon="5.7156">
        <ele>562</ele>
        <time>2023-04-10T09:06:04Z</time>
      </trkpt>
      <trkpt lat="45.4443" lon="5.71558">
        <ele>562</ele>
        <time>2023-04-10T09:06:06Z</time>
      </trkpt>
      <trkpt lat="45.44427" lon="5.71555">
        <ele>562</ele>
        <time>2023-04-10T09:06:08Z</time>
      </trkpt>
      <trkpt lat="45.44426" lon="5.71554">
        <ele>563</ele>
        <time>2023-04-10T09:06:09Z</time>
      </trkpt>
      <trkpt lat="45.44423" lon="5.71553">
        <ele>564</ele>
        <time>2023-04-10T09:06:11Z</time>
      </trkpt>
      <trkpt lat="45.4442" lon="5.7155">
        <ele>565</ele>
        <time>2023-04-10T09:06:13Z</time>
      </trkpt>
      <trkpt lat="45.44418" lon="5.71549">
        <ele>566</ele>
        <time>2023-04-10T09:06:15Z</time>
      </trkpt>
      <trkpt lat="45.44414" lon="5.71546">
        <ele>566</ele>
        <time>2023-04-10T09:06:17Z</time>
      </trkpt>
      <trkpt lat="45.44412" lon="5.71545">
        <ele>566</ele>
        <time>2023-04-10T09:06:18Z</time>
      </trkpt>
      <trkpt lat="45.4441" lon="5.71543">
        <ele>566</ele>
        <time>2023-04-10T09:06:19Z</time>
      </trkpt>
      <trkpt lat="45.44407" lon="5.71541">
        <ele>566</ele>
        <time>2023-04-10T09:06:20Z</time>
      </trkpt>
      <trkpt lat="45.44405" lon="5.71538">
        <ele>566</ele>
        <time>2023-04-10T09:06:21Z</time>
      </trkpt>
      <trkpt lat="45.44403" lon="5.71536">
        <ele>566</ele>
        <time>2023-04-10T09:06:22Z</time>
      </trkpt>
      <trkpt lat="45.44401" lon="5.71533">
        <ele>566</ele>
        <time>2023-04-10T09:06:23Z</time>
      </trkpt>
      <trkpt lat="45.44399" lon="5.71531">
        <ele>566</ele>
        <time>2023-04-10T09:06:24Z</time>
      </trkpt>
      <trkpt lat="45.44397" lon="5.71529">
        <ele>567</ele>
        <time>2023-04-10T09:06:25Z</time>
      </trkpt>
      <trkpt lat="45.44395" lon="5.71528">
        <ele>567</ele>
        <time>2023-04-10T09:06:26Z</time>
      </trkpt>
      <trkpt lat="45.44393" lon="5.71526">
        <ele>567</ele>
        <time>2023-04-10T09:06:27Z</time>
      </trkpt>
      <trkpt lat="45.44391" lon="5.71524">
        <ele>567</ele>
        <time>2023-04-10T09:06:28Z</time>
      </trkpt>
      <trkpt lat="45.44389" lon="5.71523">
        <ele>567</ele>
        <time>2023-04-10T09:06:29Z</time>
      </trkpt>
      <trkpt lat="45.44387" lon="5.71521">
        <ele>567</ele>
        <time>2023-04-10T09:06:30Z</time>
      </trkpt>
      <trkpt lat="45.44385" lon="5.7152">
        <ele>567</ele>
        <time>2023-04-10T09:06:31Z</time>
      </trkpt>
      <trkpt lat="45.44383" lon="5.71518">
        <ele>567</ele>
        <time>2023-04-10T09:06:32Z</time>
      </trkpt>
      <trkpt lat="45.44381" lon="5.71517">
        <ele>567</ele>
        <time>2023-04-10T09:06:33Z</time>
      </trkpt>
      <trkpt lat="45.44379" lon="5.71515">
        <ele>567</ele>
        <time>2023-04-10T09:06:34Z</time>
      </trkpt>
      <trkpt lat="45.44377" lon="5.71514">
        <ele>567</ele>
        <time>2023-04-10T09:06:35Z</time>
      </trkpt>
      <trkpt lat="45.44376" lon="5.71514">
        <ele>568</ele>
        <time>2023-04-10T09:06:36Z</time>
      </trkpt>
      <trkpt lat="45.44373" lon="5.71512">
        <ele>569</ele>
        <time>2023-04-10T09:06:38Z</time>
      </trkpt>
      <trkpt lat="45.44369" lon="5.7151">
        <ele>569</ele>
        <time>2023-04-10T09:06:40Z</time>
      </trkpt>
      <trkpt lat="45.44368" lon="5.71509">
        <ele>570</ele>
        <time>2023-04-10T09:06:41Z</time>
      </trkpt>
      <trkpt lat="45.44364" lon="5.71507">
        <ele>570</ele>
        <time>2023-04-10T09:06:43Z</time>
      </trkpt>
      <trkpt lat="45.44361" lon="5.71505">
        <ele>571</ele>
        <time>2023-04-10T09:06:45Z</time>
      </trkpt>
      <trkpt lat="45.44359" lon="5.71503">
        <ele>572</ele>
        <time>2023-04-10T09:06:47Z</time>
      </trkpt>
      <trkpt lat="45.44356" lon="5.715">
        <ele>572</ele>
        <time>2023-04-10T09:06:49Z</time>
      </trkpt>
      <trkpt lat="45.44355" lon="5.71499">
        <ele>572</ele>
        <time>2023-04-10T09:06:50Z</time>
      </trkpt>
      <trkpt lat="45.44353" lon="5.71495">
        <ele>572</ele>
        <time>2023-04-10T09:06:52Z</time>
      </trkpt>
      <trkpt lat="45.44351" lon="5.71493">
        <ele>574</ele>
        <time>2023-04-10T09:06:54Z</time>
      </trkpt>
      <trkpt lat="45.44349" lon="5.71491">
        <ele>574</ele>
        <time>2023-04-10T09:06:56Z</time>
      </trkpt>
      <trkpt lat="45.44348" lon="5.71488">
        <ele>574</ele>
        <time>2023-04-10T09:06:58Z</time>
      </trkpt>
      <trkpt lat="45.44346" lon="5.71486">
        <ele>574</ele>
        <time>2023-04-10T09:07:00Z</time>
      </trkpt>
      <trkpt lat="45.44344" lon="5.71484">
        <ele>576</ele>
        <time>2023-04-10T09:07:02Z</time>
      </trkpt>
      <trkpt lat="45.44342" lon="5.71481">
        <ele>576</ele>
        <time>2023-04-10T09:07:04Z</time>
      </trkpt>
      <trkpt lat="45.44339" lon="5.71479">
        <ele>577</ele>
        <time>2023-04-10T09:07:06Z</time>
      </trkpt>
      <trkpt lat="45.44337" lon="5.71476">
        <ele>578</ele>
        <time>2023-04-10T09:07:08Z</time>
      </trkpt>
      <trkpt lat="45.44335" lon="5.71473">
        <ele>578</ele>
        <time>2023-04-10T09:07:10Z</time>
      </trkpt>
      <trkpt lat="45.44332" lon="5.71471">
        <ele>578</ele>
        <time>2023-04-10T09:07:12Z</time>
      </trkpt>
      <trkpt lat="45.44331" lon="5.71469">
        <ele>578</ele>
        <time>2023-04-10T09:07:13Z</time>
      </trkpt>
      <trkpt lat="45.44329" lon="5.71467">
        <ele>578</ele>
        <time>2023-04-10T09:07:14Z</time>
      </trkpt>
      <trkpt lat="45.44328" lon="5.71464">
        <ele>578</ele>
        <time>2023-04-10T09:07:15Z</time>
      </trkpt>
      <trkpt lat="45.44326" lon="5.71462">
        <ele>578</ele>
        <time>2023-04-10T09:07:16Z</time>
      </trkpt>
      <trkpt lat="45.44325" lon="5.7146">
        <ele>578</ele>
        <time>2023-04-10T09:07:17Z</time>
      </trkpt>
      <trkpt lat="45.44323" lon="5.71458">
        <ele>578</ele>
        <time>2023-04-10T09:07:18Z</time>
      </trkpt>
      <trkpt lat="45.44322" lon="5.71456">
        <ele>578</ele>
        <time>2023-04-10T09:07:19Z</time>
      </trkpt>
      <trkpt lat="45.44321" lon="5.71453">
        <ele>579</ele>
        <time>2023-04-10T09:07:20Z</time>
      </trkpt>
      <trkpt lat="45.44319" lon="5.71451">
        <ele>579</ele>
        <time>2023-04-10T09:07:21Z</time>
      </trkpt>
      <trkpt lat="45.44318" lon="5.71448">
        <ele>580</ele>
        <time>2023-04-10T09:07:23Z</time>
      </trkpt>
      <trkpt lat="45.44316" lon="5.71443">
        <ele>581</ele>
        <time>2023-04-10T09:07:25Z</time>
      </trkpt>
      <trkpt lat="45.44314" lon="5.71439">
        <ele>581</ele>
        <time>2023-04-10T09:07:27Z</time>
      </trkpt>
      <trkpt lat="45.44313" lon="5.71434">
        <ele>582</ele>
        <time>2023-04-10T09:07:29Z</time>
      </trkpt>
      <trkpt lat="45.44312" lon="5.71432">
        <ele>582</ele>
        <time>2023-04-10T09:07:30Z</time>
      </trkpt>
      <trkpt lat="45.4431" lon="5.71427">
        <ele>582</ele>
        <time>2023-04-10T09:07:32Z</time>
      </trkpt>
      <trkpt lat="45.4431" lon="5.71425">
        <ele>583</ele>
        <time>2023-04-10T09:07:33Z</time>
      </trkpt>
      <trkpt lat="45.44309" lon="5.71421">
        <ele>583</ele>
        <time>2023-04-10T09:07:34Z</time>
      </trkpt>
      <trkpt lat="45.44309" lon="5.71417">
        <ele>583</ele>
        <time>2023-04-10T09:07:35Z</time>
      </trkpt>
      <trkpt lat="45.44309" lon="5.71412">
        <ele>583</ele>
        <time>2023-04-10T09:07:36Z</time>
      </trkpt>
      <trkpt lat="45.44307" lon="5.71408">
        <ele>583</ele>
        <time>2023-04-10T09:07:37Z</time>
      </trkpt>
      <trkpt lat="45.44306" lon="5.71404">
        <ele>583</ele>
        <time>2023-04-10T09:07:38Z</time>
      </trkpt>
      <trkpt lat="45.44305" lon="5.71401">
        <ele>583</ele>
        <time>2023-04-10T09:07:39Z</time>
      </trkpt>
      <trkpt lat="45.44305" lon="5.71397">
        <ele>583</ele>
        <time>2023-04-10T09:07:40Z</time>
      </trkpt>
      <trkpt lat="45.44303" lon="5.71394">
        <ele>583</ele>
        <time>2023-04-10T09:07:41Z</time>
      </trkpt>
      <trkpt lat="45.44302" lon="5.71392">
        <ele>583</ele>
        <time>2023-04-10T09:07:42Z</time>
      </trkpt>
      <trkpt lat="45.44301" lon="5.71389">
        <ele>583</ele>
        <time>2023-04-10T09:07:44Z</time>
      </trkpt>
      <trkpt lat="45.443" lon="5.71386">
        <ele>584</ele>
        <time>2023-04-10T09:07:46Z</time>
      </trkpt>
      <trkpt lat="45.44299" lon="5.71383">
        <ele>583</ele>
        <time>2023-04-10T09:07:50Z</time>
      </trkpt>
      <trkpt lat="45.44297" lon="5.71382">
        <ele>583</ele>
        <time>2023-04-10T09:07:57Z</time>
      </trkpt>
      <trkpt lat="45.44293" lon="5.71376">
        <ele>584</ele>
        <time>2023-04-10T09:08:06Z</time>
      </trkpt>
      <trkpt lat="45.44291" lon="5.71372">
        <ele>585</ele>
        <time>2023-04-10T09:08:08Z</time>
      </trkpt>
      <trkpt lat="45.44289" lon="5.7137">
        <ele>585</ele>
        <time>2023-04-10T09:08:09Z</time>
      </trkpt>
      <trkpt lat="45.44288" lon="5.71367">
        <ele>585</ele>
        <time>2023-04-10T09:08:10Z</time>
      </trkpt>
      <trkpt lat="45.44287" lon="5.71365">
        <ele>585</ele>
        <time>2023-04-10T09:08:11Z</time>
      </trkpt>
      <trkpt lat="45.44285" lon="5.71361">
        <ele>585</ele>
        <time>2023-04-10T09:08:13Z</time>
      </trkpt>
      <trkpt lat="45.44284" lon="5.71359">
        <ele>586</ele>
        <time>2023-04-10T09:08:14Z</time>
      </trkpt>
      <trkpt lat="45.44282" lon="5.71356">
        <ele>586</ele>
        <time>2023-04-10T09:08:15Z</time>
      </trkpt>
      <trkpt lat="45.4428" lon="5.71354">
        <ele>586</ele>
        <time>2023-04-10T09:08:16Z</time>
      </trkpt>
      <trkpt lat="45.44279" lon="5.71352">
        <ele>587</ele>
        <time>2023-04-10T09:08:17Z</time>
      </trkpt>
      <trkpt lat="45.44278" lon="5.7135">
        <ele>587</ele>
        <time>2023-04-10T09:08:18Z</time>
      </trkpt>
      <trkpt lat="45.44276" lon="5.71348">
        <ele>587</ele>
        <time>2023-04-10T09:08:19Z</time>
      </trkpt>
      <trkpt lat="45.44275" lon="5.71346">
        <ele>587</ele>
        <time>2023-04-10T09:08:20Z</time>
      </trkpt>
      <trkpt lat="45.44273" lon="5.71344">
        <ele>588</ele>
        <time>2023-04-10T09:08:21Z</time>
      </trkpt>
      <trkpt lat="45.44271" lon="5.71341">
        <ele>588</ele>
        <time>2023-04-10T09:08:22Z</time>
      </trkpt>
      <trkpt lat="45.44269" lon="5.71339">
        <ele>588</ele>
        <time>2023-04-10T09:08:23Z</time>
      </trkpt>
      <trkpt lat="45.44267" lon="5.71338">
        <ele>588</ele>
        <time>2023-04-10T09:08:24Z</time>
      </trkpt>
      <trkpt lat="45.44266" lon="5.71336">
        <ele>589</ele>
        <time>2023-04-10T09:08:25Z</time>
      </trkpt>
      <trkpt lat="45.44264" lon="5.71334">
        <ele>589</ele>
        <time>2023-04-10T09:08:26Z</time>
      </trkpt>
      <trkpt lat="45.44262" lon="5.71332">
        <ele>589</ele>
        <time>2023-04-10T09:08:27Z</time>
      </trkpt>
      <trkpt lat="45.4426" lon="5.71331">
        <ele>589</ele>
        <time>2023-04-10T09:08:28Z</time>
      </trkpt>
      <trkpt lat="45.44259" lon="5.71329">
        <ele>589</ele>
        <time>2023-04-10T09:08:29Z</time>
      </trkpt>
      <trkpt lat="45.44257" lon="5.71328">
        <ele>590</ele>
        <time>2023-04-10T09:08:30Z</time>
      </trkpt>
      <trkpt lat="45.44254" lon="5.71326">
        <ele>590</ele>
        <time>2023-04-10T09:08:32Z</time>
      </trkpt>
      <trkpt lat="45.44252" lon="5.71326">
        <ele>590</ele>
        <time>2023-04-10T09:08:33Z</time>
      </trkpt>
      <trkpt lat="45.44249" lon="5.71324">
        <ele>591</ele>
        <time>2023-04-10T09:08:35Z</time>
      </trkpt>
      <trkpt lat="45.44245" lon="5.71323">
        <ele>591</ele>
        <time>2023-04-10T09:08:37Z</time>
      </trkpt>
      <trkpt lat="45.44242" lon="5.71322">
        <ele>592</ele>
        <time>2023-04-10T09:08:39Z</time>
      </trkpt>
      <trkpt lat="45.44239" lon="5.7132">
        <ele>593</ele>
        <time>2023-04-10T09:08:41Z</time>
      </trkpt>
      <trkpt lat="45.44236" lon="5.71319">
        <ele>593</ele>
        <time>2023-04-10T09:08:43Z</time>
      </trkpt>
      <trkpt lat="45.44233" lon="5.71318">
        <ele>593</ele>
        <time>2023-04-10T09:08:45Z</time>
      </trkpt>
      <trkpt lat="45.4423" lon="5.71317">
        <ele>594</ele>
        <time>2023-04-10T09:08:47Z</time>
      </trkpt>
      <trkpt lat="45.44227" lon="5.71315">
        <ele>594</ele>
        <time>2023-04-10T09:08:49Z</time>
      </trkpt>
      <trkpt lat="45.44224" lon="5.71314">
        <ele>595</ele>
        <time>2023-04-10T09:08:51Z</time>
      </trkpt>
      <trkpt lat="45.44221" lon="5.7131">
        <ele>597</ele>
        <time>2023-04-10T09:08:53Z</time>
      </trkpt>
      <trkpt lat="45.44219" lon="5.71307">
        <ele>597</ele>
        <time>2023-04-10T09:08:55Z</time>
      </trkpt>
      <trkpt lat="45.44217" lon="5.71305">
        <ele>597</ele>
        <time>2023-04-10T09:08:56Z</time>
      </trkpt>
      <trkpt lat="45.44215" lon="5.71302">
        <ele>598</ele>
        <time>2023-04-10T09:08:58Z</time>
      </trkpt>
      <trkpt lat="45.44212" lon="5.71299">
        <ele>598</ele>
        <time>2023-04-10T09:09:00Z</time>
      </trkpt>
      <trkpt lat="45.4421" lon="5.71296">
        <ele>598</ele>
        <time>2023-04-10T09:09:02Z</time>
      </trkpt>
      <trkpt lat="45.44208" lon="5.71292">
        <ele>598</ele>
        <time>2023-04-10T09:09:04Z</time>
      </trkpt>
      <trkpt lat="45.44205" lon="5.71289">
        <ele>598</ele>
        <time>2023-04-10T09:09:06Z</time>
      </trkpt>
      <trkpt lat="45.44203" lon="5.71285">
        <ele>599</ele>
        <time>2023-04-10T09:09:08Z</time>
      </trkpt>
      <trkpt lat="45.44201" lon="5.71282">
        <ele>599</ele>
        <time>2023-04-10T09:09:10Z</time>
      </trkpt>
      <trkpt lat="45.44199" lon="5.71278">
        <ele>600</ele>
        <time>2023-04-10T09:09:12Z</time>
      </trkpt>
      <trkpt lat="45.44196" lon="5.71276">
        <ele>601</ele>
        <time>2023-04-10T09:09:14Z</time>
      </trkpt>
      <trkpt lat="45.44194" lon="5.71273">
        <ele>601</ele>
        <time>2023-04-10T09:09:16Z</time>
      </trkpt>
      <trkpt lat="45.44192" lon="5.71271">
        <ele>601</ele>
        <time>2023-04-10T09:09:17Z</time>
      </trkpt>
      <trkpt lat="45.4419" lon="5.71269">
        <ele>602</ele>
        <time>2023-04-10T09:09:18Z</time>
      </trkpt>
      <trkpt lat="45.44188" lon="5.71267">
        <ele>602</ele>
        <time>2023-04-10T09:09:19Z</time>
      </trkpt>
      <trkpt lat="45.44186" lon="5.71265">
        <ele>602</ele>
        <time>2023-04-10T09:09:20Z</time>
      </trkpt>
      <trkpt lat="45.44185" lon="5.71263">
        <ele>602</ele>
        <time>2023-04-10T09:09:21Z</time>
      </trkpt>
      <trkpt lat="45.44183" lon="5.71262">
        <ele>602</ele>
        <time>2023-04-10T09:09:22Z</time>
      </trkpt>
      <trkpt lat="45.44181" lon="5.7126">
        <ele>602</ele>
        <time>2023-04-10T09:09:23Z</time>
      </trkpt>
      <trkpt lat="45.44178" lon="5.71257">
        <ele>602</ele>
        <time>2023-04-10T09:09:24Z</time>
      </trkpt>
      <trkpt lat="45.44176" lon="5.71255">
        <ele>602</ele>
        <time>2023-04-10T09:09:25Z</time>
      </trkpt>
      <trkpt lat="45.44173" lon="5.71252">
        <ele>602</ele>
        <time>2023-04-10T09:09:26Z</time>
      </trkpt>
      <trkpt lat="45.44171" lon="5.71249">
        <ele>602</ele>
        <time>2023-04-10T09:09:27Z</time>
      </trkpt>
      <trkpt lat="45.44168" lon="5.71246">
        <ele>602</ele>
        <time>2023-04-10T09:09:28Z</time>
      </trkpt>
      <trkpt lat="45.44165" lon="5.71242">
        <ele>602</ele>
        <time>2023-04-10T09:09:29Z</time>
      </trkpt>
      <trkpt lat="45.44162" lon="5.71237">
        <ele>601</ele>
        <time>2023-04-10T09:09:30Z</time>
      </trkpt>
      <trkpt lat="45.44158" lon="5.71232">
        <ele>601</ele>
        <time>2023-04-10T09:09:31Z</time>
      </trkpt>
      <trkpt lat="45.44154" lon="5.71228">
        <ele>601</ele>
        <time>2023-04-10T09:09:32Z</time>
      </trkpt>
      <trkpt lat="45.44147" lon="5.71225">
        <ele>600</ele>
        <time>2023-04-10T09:09:33Z</time>
      </trkpt>
      <trkpt lat="45.4414" lon="5.71224">
        <ele>599</ele>
        <time>2023-04-10T09:09:34Z</time>
      </trkpt>
      <trkpt lat="45.44133" lon="5.71222">
        <ele>598</ele>
        <time>2023-04-10T09:09:35Z</time>
      </trkpt>
      <trkpt lat="45.44125" lon="5.7122">
        <ele>598</ele>
        <time>2023-04-10T09:09:36Z</time>
      </trkpt>
      <trkpt lat="45.44118" lon="5.71217">
        <ele>598</ele>
        <time>2023-04-10T09:09:37Z</time>
      </trkpt>
      <trkpt lat="45.4411" lon="5.71214">
        <ele>598</ele>
        <time>2023-04-10T09:09:38Z</time>
      </trkpt>
      <trkpt lat="45.44103" lon="5.71211">
        <ele>598</ele>
        <time>2023-04-10T09:09:39Z</time>
      </trkpt>
      <trkpt lat="45.44096" lon="5.71207">
        <ele>598</ele>
        <time>2023-04-10T09:09:40Z</time>
      </trkpt>
      <trkpt lat="45.4409" lon="5.71204">
        <ele>597</ele>
        <time>2023-04-10T09:09:41Z</time>
      </trkpt>
      <trkpt lat="45.44083" lon="5.71199">
        <ele>596</ele>
        <time>2023-04-10T09:09:42Z</time>
      </trkpt>
      <trkpt lat="45.44075" lon="5.71194">
        <ele>595</ele>
        <time>2023-04-10T09:09:43Z</time>
      </trkpt>
      <trkpt lat="45.44068" lon="5.71191">
        <ele>594</ele>
        <time>2023-04-10T09:09:44Z</time>
      </trkpt>
      <trkpt lat="45.44061" lon="5.7119">
        <ele>593</ele>
        <time>2023-04-10T09:09:45Z</time>
      </trkpt>
      <trkpt lat="45.44055" lon="5.71189">
        <ele>592</ele>
        <time>2023-04-10T09:09:46Z</time>
      </trkpt>
      <trkpt lat="45.44049" lon="5.71189">
        <ele>592</ele>
        <time>2023-04-10T09:09:47Z</time>
      </trkpt>
      <trkpt lat="45.44045" lon="5.71189">
        <ele>593</ele>
        <time>2023-04-10T09:09:48Z</time>
      </trkpt>
      <trkpt lat="45.4404" lon="5.7119">
        <ele>593</ele>
        <time>2023-04-10T09:09:49Z</time>
      </trkpt>
      <trkpt lat="45.44035" lon="5.7119">
        <ele>593</ele>
        <time>2023-04-10T09:09:50Z</time>
      </trkpt>
      <trkpt lat="45.44031" lon="5.7119">
        <ele>593</ele>
        <time>2023-04-10T09:09:51Z</time>
      </trkpt>
      <trkpt lat="45.44027" lon="5.71189">
        <ele>593</ele>
        <time>2023-04-10T09:09:52Z</time>
      </trkpt>
      <trkpt lat="45.44023" lon="5.71188">
        <ele>593</ele>
        <time>2023-04-10T09:09:53Z</time>
      </trkpt>
      <trkpt lat="45.44019" lon="5.71186">
        <ele>593</ele>
        <time>2023-04-10T09:09:54Z</time>
      </trkpt>
      <trkpt lat="45.44015" lon="5.71184">
        <ele>594</ele>
        <time>2023-04-10T09:09:55Z</time>
      </trkpt>
      <trkpt lat="45.44012" lon="5.71183">
        <ele>594</ele>
        <time>2023-04-10T09:09:56Z</time>
      </trkpt>
      <trkpt lat="45.44009" lon="5.71181">
        <ele>594</ele>
        <time>2023-04-10T09:09:57Z</time>
      </trkpt>
      <trkpt lat="45.44006" lon="5.7118">
        <ele>595</ele>
        <time>2023-04-10T09:09:58Z</time>
      </trkpt>
      <trkpt lat="45.44003" lon="5.71178">
        <ele>595</ele>
        <time>2023-04-10T09:09:59Z</time>
      </trkpt>
      <trkpt lat="45.44" lon="5.71176">
        <ele>595</ele>
        <time>2023-04-10T09:10:00Z</time>
      </trkpt>
      <trkpt lat="45.43997" lon="5.71175">
        <ele>596</ele>
        <time>2023-04-10T09:10:01Z</time>
      </trkpt>
      <trkpt lat="45.43994" lon="5.71173">
        <ele>596</ele>
        <time>2023-04-10T09:10:02Z</time>
      </trkpt>
      <trkpt lat="45.43991" lon="5.71171">
        <ele>596</ele>
        <time>2023-04-10T09:10:03Z</time>
      </trkpt>
      <trkpt lat="45.43988" lon="5.7117">
        <ele>597</ele>
        <time>2023-04-10T09:10:04Z</time>
      </trkpt>
      <trkpt lat="45.43986" lon="5.71168">
        <ele>597</ele>
        <time>2023-04-10T09:10:05Z</time>
      </trkpt>
      <trkpt lat="45.43984" lon="5.71167">
        <ele>598</ele>
        <time>2023-04-10T09:10:06Z</time>
      </trkpt>
      <trkpt lat="45.43981" lon="5.71165">
        <ele>598</ele>
        <time>2023-04-10T09:10:07Z</time>
      </trkpt>
      <trkpt lat="45.43978" lon="5.71164">
        <ele>598</ele>
        <time>2023-04-10T09:10:08Z</time>
      </trkpt>
      <trkpt lat="45.43975" lon="5.71163">
        <ele>598</ele>
        <time>2023-04-10T09:10:09Z</time>
      </trkpt>
      <trkpt lat="45.43972" lon="5.71161">
        <ele>598</ele>
        <time>2023-04-10T09:10:10Z</time>
      </trkpt>
      <trkpt lat="45.43969" lon="5.71159">
        <ele>598</ele>
        <time>2023-04-10T09:10:11Z</time>
      </trkpt>
      <trkpt lat="45.43967" lon="5.71157">
        <ele>598</ele>
        <time>2023-04-10T09:10:12Z</time>
      </trkpt>
      <trkpt lat="45.43964" lon="5.71154">
        <ele>598</ele>
        <time>2023-04-10T09:10:13Z</time>
      </trkpt>
      <trkpt lat="45.43961" lon="5.71151">
        <ele>598</ele>
        <time>2023-04-10T09:10:14Z</time>
      </trkpt>
      <trkpt lat="45.43958" lon="5.71148">
        <ele>598</ele>
        <time>2023-04-10T09:10:15Z</time>
      </trkpt>
      <trkpt lat="45.43955" lon="5.71146">
        <ele>598</ele>
        <time>2023-04-10T09:10:16Z</time>
      </trkpt>
      <trkpt lat="45.43952" lon="5.71143">
        <ele>598</ele>
        <time>2023-04-10T09:10:17Z</time>
      </trkpt>
      <trkpt lat="45.4395" lon="5.7114">
        <ele>598</ele>
        <time>2023-04-10T09:10:18Z</time>
      </trkpt>
      <trkpt lat="45.43947" lon="5.71137">
        <ele>598</ele>
        <time>2023-04-10T09:10:19Z</time>
      </trkpt>
      <trkpt lat="45.43944" lon="5.71133">
        <ele>598</ele>
        <time>2023-04-10T09:10:20Z</time>
      </trkpt>
      <trkpt lat="45.43941" lon="5.7113">
        <ele>599</ele>
        <time>2023-04-10T09:10:21Z</time>
      </trkpt>
      <trkpt lat="45.43938" lon="5.71127">
        <ele>599</ele>
        <time>2023-04-10T09:10:22Z</time>
      </trkpt>
      <trkpt lat="45.43934" lon="5.71125">
        <ele>599</ele>
        <time>2023-04-10T09:10:23Z</time>
      </trkpt>
      <trkpt lat="45.43931" lon="5.71122">
        <ele>599</ele>
        <time>2023-04-10T09:10:24Z</time>
      </trkpt>
      <trkpt lat="45.43928" lon="5.71119">
        <ele>600</ele>
        <time>2023-04-10T09:10:25Z</time>
      </trkpt>
      <trkpt lat="45.43925" lon="5.71116">
        <ele>600</ele>
        <time>2023-04-10T09:10:26Z</time>
      </trkpt>
      <trkpt lat="45.43922" lon="5.71113">
        <ele>599</ele>
        <time>2023-04-10T09:10:27Z</time>
      </trkpt>
      <trkpt lat="45.4392" lon="5.7111">
        <ele>599</ele>
        <time>2023-04-10T09:10:28Z</time>
      </trkpt>
      <trkpt lat="45.43917" lon="5.71108">
        <ele>599</ele>
        <time>2023-04-10T09:10:29Z</time>
      </trkpt>
      <trkpt lat="45.43914" lon="5.71105">
        <ele>599</ele>
        <time>2023-04-10T09:10:30Z</time>
      </trkpt>
      <trkpt lat="45.43912" lon="5.71102">
        <ele>600</ele>
        <time>2023-04-10T09:10:31Z</time>
      </trkpt>
      <trkpt lat="45.43909" lon="5.71099">
        <ele>600</ele>
        <time>2023-04-10T09:10:32Z</time>
      </trkpt>
      <trkpt lat="45.43907" lon="5.71097">
        <ele>600</ele>
        <time>2023-04-10T09:10:33Z</time>
      </trkpt>
      <trkpt lat="45.43904" lon="5.71095">
        <ele>600</ele>
        <time>2023-04-10T09:10:34Z</time>
      </trkpt>
      <trkpt lat="45.43902" lon="5.71092">
        <ele>600</ele>
        <time>2023-04-10T09:10:35Z</time>
      </trkpt>
      <trkpt lat="45.439" lon="5.7109">
        <ele>600</ele>
        <time>2023-04-10T09:10:36Z</time>
      </trkpt>
      <trkpt lat="45.43898" lon="5.71088">
        <ele>600</ele>
        <time>2023-04-10T09:10:37Z</time>
      </trkpt>
      <trkpt lat="45.43895" lon="5.71085">
        <ele>600</ele>
        <time>2023-04-10T09:10:38Z</time>
      </trkpt>
      <trkpt lat="45.43893" lon="5.71083">
        <ele>601</ele>
        <time>2023-04-10T09:10:39Z</time>
      </trkpt>
      <trkpt lat="45.4389" lon="5.71081">
        <ele>601</ele>
        <time>2023-04-10T09:10:40Z</time>
      </trkpt>
      <trkpt lat="45.43888" lon="5.71079">
        <ele>601</ele>
        <time>2023-04-10T09:10:41Z</time>
      </trkpt>
      <trkpt lat="45.43885" lon="5.71077">
        <ele>602</ele>
        <time>2023-04-10T09:10:42Z</time>
      </trkpt>
      <trkpt lat="45.43883" lon="5.71076">
        <ele>602</ele>
        <time>2023-04-10T09:10:43Z</time>
      </trkpt>
      <trkpt lat="45.4388" lon="5.71075">
        <ele>602</ele>
        <time>2023-04-10T09:10:44Z</time>
      </trkpt>
      <trkpt lat="45.43878" lon="5.71073">
        <ele>602</ele>
        <time>2023-04-10T09:10:45Z</time>
      </trkpt>
      <trkpt lat="45.43876" lon="5.71072">
        <ele>602</ele>
        <time>2023-04-10T09:10:46Z</time>
      </trkpt>
      <trkpt lat="45.43873" lon="5.71072">
        <ele>602</ele>
        <time>2023-04-10T09:10:47Z</time>
      </trkpt>
      <trkpt lat="45.4387" lon="5.71072">
        <ele>602</ele>
        <time>2023-04-10T09:10:48Z</time>
      </trkpt>
      <trkpt lat="45.43868" lon="5.71072">
        <ele>602</ele>
        <time>2023-04-10T09:10:49Z</time>
      </trkpt>
      <trkpt lat="45.43865" lon="5.71072">
        <ele>602</ele>
        <time>2023-04-10T09:10:50Z</time>
      </trkpt>
      <trkpt lat="45.43863" lon="5.71073">
        <ele>603</ele>
        <time>2023-04-10T09:10:51Z</time>
      </trkpt>
      <trkpt lat="45.43861" lon="5.71074">
        <ele>603</ele>
        <time>2023-04-10T09:10:52Z</time>
      </trkpt>
      <trkpt lat="45.43858" lon="5.71075">
        <ele>604</ele>
        <time>2023-04-10T09:10:53Z</time>
      </trkpt>
      <trkpt lat="45.43856" lon="5.71077">
        <ele>605</ele>
        <time>2023-04-10T09:10:54Z</time>
      </trkpt>
      <trkpt lat="45.43854" lon="5.71078">
        <ele>605</ele>
        <time>2023-04-10T09:10:55Z</time>
      </trkpt>
      <trkpt lat="45.43852" lon="5.71079">
        <ele>605</ele>
        <time>2023-04-10T09:10:56Z</time>
      </trkpt>
      <trkpt lat="45.4385" lon="5.7108">
        <ele>605</ele>
        <time>2023-04-10T09:10:57Z</time>
      </trkpt>
      <trkpt lat="45.43847" lon="5.71081">
        <ele>606</ele>
        <time>2023-04-10T09:10:58Z</time>
      </trkpt>
      <trkpt lat="45.43845" lon="5.71082">
        <ele>607</ele>
        <time>2023-04-10T09:10:59Z</time>
      </trkpt>
      <trkpt lat="45.43843" lon="5.71082">
        <ele>607</ele>
        <time>2023-04-10T09:11:00Z</time>
      </trkpt>
      <trkpt lat="45.4384" lon="5.71083">
        <ele>607</ele>
        <time>2023-04-10T09:11:01Z</time>
      </trkpt>
      <trkpt lat="45.43838" lon="5.71083">
        <ele>607</ele>
        <time>2023-04-10T09:11:02Z</time>
      </trkpt>
      <trkpt lat="45.43835" lon="5.71083">
        <ele>607</ele>
        <time>2023-04-10T09:11:03Z</time>
      </trkpt>
      <trkpt lat="45.43833" lon="5.71083">
        <ele>607</ele>
        <time>2023-04-10T09:11:04Z</time>
      </trkpt>
      <trkpt lat="45.4383" lon="5.71083">
        <ele>607</ele>
        <time>2023-04-10T09:11:05Z</time>
      </trkpt>
      <trkpt lat="45.43828" lon="5.71082">
        <ele>607</ele>
        <time>2023-04-10T09:11:06Z</time>
      </trkpt>
      <trkpt lat="45.43826" lon="5.71082">
        <ele>607</ele>
        <time>2023-04-10T09:11:07Z</time>
      </trkpt>
      <trkpt lat="45.43823" lon="5.71081">
        <ele>607</ele>
        <time>2023-04-10T09:11:08Z</time>
      </trkpt>
      <trkpt lat="45.43821" lon="5.71079">
        <ele>607</ele>
        <time>2023-04-10T09:11:09Z</time>
      </trkpt>
      <trkpt lat="45.43818" lon="5.71078">
        <ele>607</ele>
        <time>2023-04-10T09:11:10Z</time>
      </trkpt>
      <trkpt lat="45.43816" lon="5.71077">
        <ele>607</ele>
        <time>2023-04-10T09:11:11Z</time>
      </trkpt>
      <trkpt lat="45.43814" lon="5.71076">
        <ele>607</ele>
        <time>2023-04-10T09:11:12Z</time>
      </trkpt>
      <trkpt lat="45.43812" lon="5.71075">
        <ele>607</ele>
        <time>2023-04-10T09:11:13Z</time>
      </trkpt>
      <trkpt lat="45.43809" lon="5.71073">
        <ele>608</ele>
        <time>2023-04-10T09:11:14Z</time>
      </trkpt>
      <trkpt lat="45.43807" lon="5.71072">
        <ele>608</ele>
        <time>2023-04-10T09:11:15Z</time>
      </trkpt>
      <trkpt lat="45.43805" lon="5.71071">
        <ele>609</ele>
        <time>2023-04-10T09:11:16Z</time>
      </trkpt>
      <trkpt lat="45.43803" lon="5.7107">
        <ele>609</ele>
        <time>2023-04-10T09:11:17Z</time>
      </trkpt>
      <trkpt lat="45.438" lon="5.71069">
        <ele>609</ele>
        <time>2023-04-10T09:11:18Z</time>
      </trkpt>
      <trkpt lat="45.43798" lon="5.71068">
        <ele>609</ele>
        <time>2023-04-10T09:11:19Z</time>
      </trkpt>
      <trkpt lat="45.43796" lon="5.71067">
        <ele>609</ele>
        <time>2023-04-10T09:11:20Z</time>
      </trkpt>
      <trkpt lat="45.43793" lon="5.71066">
        <ele>610</ele>
        <time>2023-04-10T09:11:21Z</time>
      </trkpt>
      <trkpt lat="45.43791" lon="5.71065">
        <ele>610</ele>
        <time>2023-04-10T09:11:22Z</time>
      </trkpt>
      <trkpt lat="45.43789" lon="5.71064">
        <ele>610</ele>
        <time>2023-04-10T09:11:23Z</time>
      </trkpt>
      <trkpt lat="45.43786" lon="5.71063">
        <ele>611</ele>
        <time>2023-04-10T09:11:24Z</time>
      </trkpt>
      <trkpt lat="45.43784" lon="5.71062">
        <ele>611</ele>
        <time>2023-04-10T09:11:25Z</time>
      </trkpt>
      <trkpt lat="45.43781" lon="5.7106">
        <ele>611</ele>
        <time>2023-04-10T09:11:26Z</time>
      </trkpt>
      <trkpt lat="45.43778" lon="5.71059">
        <ele>611</ele>
        <time>2023-04-10T09:11:27Z</time>
      </trkpt>
      <trkpt lat="45.43774" lon="5.71059">
        <ele>611</ele>
        <time>2023-04-10T09:11:28Z</time>
      </trkpt>
      <trkpt lat="45.43771" lon="5.71059">
        <ele>611</ele>
        <time>2023-04-10T09:11:29Z</time>
      </trkpt>
      <trkpt lat="45.43767" lon="5.71059">
        <ele>611</ele>
        <time>2023-04-10T09:11:30Z</time>
      </trkpt>
      <trkpt lat="45.43763" lon="5.7106">
        <ele>611</ele>
        <time>2023-04-10T09:11:31Z</time>
      </trkpt>
      <trkpt lat="45.4376" lon="5.71061">
        <ele>611</ele>
        <time>2023-04-10T09:11:32Z</time>
      </trkpt>
      <trkpt lat="45.43756" lon="5.71062">
        <ele>611</ele>
        <time>2023-04-10T09:11:33Z</time>
      </trkpt>
      <trkpt lat="45.43752" lon="5.71063">
        <ele>611</ele>
        <time>2023-04-10T09:11:34Z</time>
      </trkpt>
      <trkpt lat="45.43749" lon="5.71063">
        <ele>611</ele>
        <time>2023-04-10T09:11:35Z</time>
      </trkpt>
      <trkpt lat="45.43745" lon="5.71063">
        <ele>611</ele>
        <time>2023-04-10T09:11:36Z</time>
      </trkpt>
      <trkpt lat="45.43742" lon="5.71062">
        <ele>611</ele>
        <time>2023-04-10T09:11:37Z</time>
      </trkpt>
      <trkpt lat="45.43739" lon="5.71061">
        <ele>611</ele>
        <time>2023-04-10T09:11:38Z</time>
      </trkpt>
      <trkpt lat="45.43737" lon="5.71059">
        <ele>612</ele>
        <time>2023-04-10T09:11:39Z</time>
      </trkpt>
      <trkpt lat="45.43735" lon="5.71058">
        <ele>612</ele>
        <time>2023-04-10T09:11:40Z</time>
      </trkpt>
      <trkpt lat="45.43732" lon="5.71057">
        <ele>612</ele>
        <time>2023-04-10T09:11:41Z</time>
      </trkpt>
      <trkpt lat="45.43729" lon="5.71056">
        <ele>612</ele>
        <time>2023-04-10T09:11:42Z</time>
      </trkpt>
      <trkpt lat="45.43727" lon="5.71056">
        <ele>612</ele>
        <time>2023-04-10T09:11:43Z</time>
      </trkpt>
      <trkpt lat="45.43725" lon="5.71054">
        <ele>613</ele>
        <time>2023-04-10T09:11:44Z</time>
      </trkpt>
      <trkpt lat="45.43722" lon="5.71054">
        <ele>613</ele>
        <time>2023-04-10T09:11:45Z</time>
      </trkpt>
      <trkpt lat="45.4372" lon="5.71053">
        <ele>613</ele>
        <time>2023-04-10T09:11:46Z</time>
      </trkpt>
      <trkpt lat="45.43718" lon="5.71052">
        <ele>613</ele>
        <time>2023-04-10T09:11:47Z</time>
      </trkpt>
      <trkpt lat="45.43716" lon="5.71052">
        <ele>614</ele>
        <time>2023-04-10T09:11:48Z</time>
      </trkpt>
      <trkpt lat="45.43714" lon="5.71051">
        <ele>615</ele>
        <time>2023-04-10T09:11:49Z</time>
      </trkpt>
      <trkpt lat="45.43711" lon="5.7105">
        <ele>615</ele>
        <time>2023-04-10T09:11:50Z</time>
      </trkpt>
      <trkpt lat="45.43709" lon="5.71049">
        <ele>615</ele>
        <time>2023-04-10T09:11:51Z</time>
      </trkpt>
      <trkpt lat="45.43706" lon="5.71049">
        <ele>615</ele>
        <time>2023-04-10T09:11:52Z</time>
      </trkpt>
      <trkpt lat="45.43703" lon="5.71049">
        <ele>615</ele>
        <time>2023-04-10T09:11:53Z</time>
      </trkpt>
      <trkpt lat="45.437" lon="5.71048">
        <ele>615</ele>
        <time>2023-04-10T09:11:54Z</time>
      </trkpt>
      <trkpt lat="45.43697" lon="5.71047">
        <ele>615</ele>
        <time>2023-04-10T09:11:55Z</time>
      </trkpt>
      <trkpt lat="45.43694" lon="5.71046">
        <ele>615</ele>
        <time>2023-04-10T09:11:56Z</time>
      </trkpt>
      <trkpt lat="45.43692" lon="5.71045">
        <ele>615</ele>
        <time>2023-04-10T09:11:57Z</time>
      </trkpt>
      <trkpt lat="45.43688" lon="5.71044">
        <ele>615</ele>
        <time>2023-04-10T09:11:58Z</time>
      </trkpt>
      <trkpt lat="45.43685" lon="5.71042">
        <ele>615</ele>
        <time>2023-04-10T09:11:59Z</time>
      </trkpt>
      <trkpt lat="45.43682" lon="5.71041">
        <ele>615</ele>
        <time>2023-04-10T09:12:00Z</time>
      </trkpt>
      <trkpt lat="45.43679" lon="5.71039">
        <ele>615</ele>
        <time>2023-04-10T09:12:01Z</time>
      </trkpt>
      <trkpt lat="45.43675" lon="5.71037">
        <ele>615</ele>
        <time>2023-04-10T09:12:02Z</time>
      </trkpt>
      <trkpt lat="45.43672" lon="5.71035">
        <ele>615</ele>
        <time>2023-04-10T09:12:03Z</time>
      </trkpt>
      <trkpt lat="45.43668" lon="5.71033">
        <ele>615</ele>
        <time>2023-04-10T09:12:04Z</time>
      </trkpt>
      <trkpt lat="45.43664" lon="5.71031">
        <ele>615</ele>
        <time>2023-04-10T09:12:05Z</time>
      </trkpt>
      <trkpt lat="45.43661" lon="5.71029">
        <ele>615</ele>
        <time>2023-04-10T09:12:06Z</time>
      </trkpt>
      <trkpt lat="45.43657" lon="5.71028">
        <ele>615</ele>
        <time>2023-04-10T09:12:07Z</time>
      </trkpt>
      <trkpt lat="45.43654" lon="5.71026">
        <ele>615</ele>
        <time>2023-04-10T09:12:08Z</time>
      </trkpt>
      <trkpt lat="45.43652" lon="5.71024">
        <ele>616</ele>
        <time>2023-04-10T09:12:09Z</time>
      </trkpt>
      <trkpt lat="45.4365" lon="5.71022">
        <ele>617</ele>
        <time>2023-04-10T09:12:10Z</time>
      </trkpt>
      <trkpt lat="45.43648" lon="5.7102">
        <ele>617</ele>
        <time>2023-04-10T09:12:11Z</time>
      </trkpt>
      <trkpt lat="45.43646" lon="5.71018">
        <ele>618</ele>
        <time>2023-04-10T09:12:12Z</time>
      </trkpt>
      <trkpt lat="45.43644" lon="5.71015">
        <ele>618</ele>
        <time>2023-04-10T09:12:13Z</time>
      </trkpt>
      <trkpt lat="45.43642" lon="5.71012">
        <ele>618</ele>
        <time>2023-04-10T09:12:14Z</time>
      </trkpt>
      <trkpt lat="45.43641" lon="5.7101">
        <ele>618</ele>
        <time>2023-04-10T09:12:15Z</time>
      </trkpt>
      <trkpt lat="45.43639" lon="5.71006">
        <ele>618</ele>
        <time>2023-04-10T09:12:16Z</time>
      </trkpt>
      <trkpt lat="45.43637" lon="5.71002">
        <ele>618</ele>
        <time>2023-04-10T09:12:17Z</time>
      </trkpt>
      <trkpt lat="45.43634" lon="5.70998">
        <ele>618</ele>
        <time>2023-04-10T09:12:18Z</time>
      </trkpt>
      <trkpt lat="45.4363" lon="5.70994">
        <ele>618</ele>
        <time>2023-04-10T09:12:19Z</time>
      </trkpt>
      <trkpt lat="45.43626" lon="5.7099">
        <ele>618</ele>
        <time>2023-04-10T09:12:20Z</time>
      </trkpt>
      <trkpt lat="45.43622" lon="5.70986">
        <ele>618</ele>
        <time>2023-04-10T09:12:21Z</time>
      </trkpt>
      <trkpt lat="45.43618" lon="5.70983">
        <ele>618</ele>
        <time>2023-04-10T09:12:22Z</time>
      </trkpt>
      <trkpt lat="45.43613" lon="5.70981">
        <ele>618</ele>
        <time>2023-04-10T09:12:23Z</time>
      </trkpt>
      <trkpt lat="45.43608" lon="5.70979">
        <ele>618</ele>
        <time>2023-04-10T09:12:24Z</time>
      </trkpt>
      <trkpt lat="45.43603" lon="5.70977">
        <ele>617</ele>
        <time>2023-04-10T09:12:25Z</time>
      </trkpt>
      <trkpt lat="45.43598" lon="5.70975">
        <ele>617</ele>
        <time>2023-04-10T09:12:26Z</time>
      </trkpt>
      <trkpt lat="45.43593" lon="5.70971">
        <ele>617</ele>
        <time>2023-04-10T09:12:27Z</time>
      </trkpt>
      <trkpt lat="45.43587" lon="5.70967">
        <ele>617</ele>
        <time>2023-04-10T09:12:28Z</time>
      </trkpt>
      <trkpt lat="45.43582" lon="5.70964">
        <ele>617</ele>
        <time>2023-04-10T09:12:29Z</time>
      </trkpt>
      <trkpt lat="45.43576" lon="5.70961">
        <ele>617</ele>
        <time>2023-04-10T09:12:30Z</time>
      </trkpt>
      <trkpt lat="45.43571" lon="5.70959">
        <ele>616</ele>
        <time>2023-04-10T09:12:31Z</time>
      </trkpt>
      <trkpt lat="45.43567" lon="5.70956">
        <ele>616</ele>
        <time>2023-04-10T09:12:32Z</time>
      </trkpt>
      <trkpt lat="45.43563" lon="5.70952">
        <ele>616</ele>
        <time>2023-04-10T09:12:33Z</time>
      </trkpt>
      <trkpt lat="45.43559" lon="5.70949">
        <ele>616</ele>
        <time>2023-04-10T09:12:34Z</time>
      </trkpt>
      <trkpt lat="45.43555" lon="5.70946">
        <ele>616</ele>
        <time>2023-04-10T09:12:35Z</time>
      </trkpt>
      <trkpt lat="45.43552" lon="5.70943">
        <ele>616</ele>
        <time>2023-04-10T09:12:36Z</time>
      </trkpt>
      <trkpt lat="45.4355" lon="5.70941">
        <ele>617</ele>
        <time>2023-04-10T09:12:37Z</time>
      </trkpt>
      <trkpt lat="45.43547" lon="5.70939">
        <ele>617</ele>
        <time>2023-04-10T09:12:38Z</time>
      </trkpt>
      <trkpt lat="45.43545" lon="5.70938">
        <ele>617</ele>
        <time>2023-04-10T09:12:39Z</time>
      </trkpt>
      <trkpt lat="45.43543" lon="5.70936">
        <ele>617</ele>
        <time>2023-04-10T09:12:40Z</time>
      </trkpt>
      <trkpt lat="45.4354" lon="5.70935">
        <ele>617</ele>
        <time>2023-04-10T09:12:41Z</time>
      </trkpt>
      <trkpt lat="45.43538" lon="5.70934">
        <ele>617</ele>
        <time>2023-04-10T09:12:42Z</time>
      </trkpt>
      <trkpt lat="45.43536" lon="5.70933">
        <ele>618</ele>
        <time>2023-04-10T09:12:43Z</time>
      </trkpt>
      <trkpt lat="45.43535" lon="5.7093">
        <ele>619</ele>
        <time>2023-04-10T09:12:44Z</time>
      </trkpt>
      <trkpt lat="45.43536" lon="5.70927">
        <ele>619</ele>
        <time>2023-04-10T09:12:45Z</time>
      </trkpt>
      <trkpt lat="45.43537" lon="5.70925">
        <ele>619</ele>
        <time>2023-04-10T09:12:46Z</time>
      </trkpt>
      <trkpt lat="45.43539" lon="5.70923">
        <ele>619</ele>
        <time>2023-04-10T09:12:47Z</time>
      </trkpt>
      <trkpt lat="45.43541" lon="5.70921">
        <ele>620</ele>
        <time>2023-04-10T09:12:48Z</time>
      </trkpt>
      <trkpt lat="45.43543" lon="5.70919">
        <ele>620</ele>
        <time>2023-04-10T09:12:49Z</time>
      </trkpt>
      <trkpt lat="45.43545" lon="5.70917">
        <ele>620</ele>
        <time>2023-04-10T09:12:50Z</time>
      </trkpt>
      <trkpt lat="45.43547" lon="5.70915">
        <ele>621</ele>
        <time>2023-04-10T09:12:51Z</time>
      </trkpt>
      <trkpt lat="45.43549" lon="5.70912">
        <ele>621</ele>
        <time>2023-04-10T09:12:52Z</time>
      </trkpt>
      <trkpt lat="45.43551" lon="5.7091">
        <ele>622</ele>
        <time>2023-04-10T09:12:53Z</time>
      </trkpt>
      <trkpt lat="45.43553" lon="5.70908">
        <ele>622</ele>
        <time>2023-04-10T09:12:54Z</time>
      </trkpt>
      <trkpt lat="45.43555" lon="5.70906">
        <ele>622</ele>
        <time>2023-04-10T09:12:55Z</time>
      </trkpt>
      <trkpt lat="45.43557" lon="5.70903">
        <ele>623</ele>
        <time>2023-04-10T09:12:56Z</time>
      </trkpt>
      <trkpt lat="45.43559" lon="5.70901">
        <ele>622</ele>
        <time>2023-04-10T09:12:57Z</time>
      </trkpt>
      <trkpt lat="45.43561" lon="5.70898">
        <ele>622</ele>
        <time>2023-04-10T09:12:58Z</time>
      </trkpt>
      <trkpt lat="45.43563" lon="5.70896">
        <ele>622</ele>
        <time>2023-04-10T09:12:59Z</time>
      </trkpt>
      <trkpt lat="45.43566" lon="5.70894">
        <ele>622</ele>
        <time>2023-04-10T09:13:00Z</time>
      </trkpt>
      <trkpt lat="45.43568" lon="5.70891">
        <ele>623</ele>
        <time>2023-04-10T09:13:01Z</time>
      </trkpt>
      <trkpt lat="45.4357" lon="5.70889">
        <ele>623</ele>
        <time>2023-04-10T09:13:02Z</time>
      </trkpt>
      <trkpt lat="45.43573" lon="5.70886">
        <ele>623</ele>
        <time>2023-04-10T09:13:03Z</time>
      </trkpt>
      <trkpt lat="45.43575" lon="5.70883">
        <ele>623</ele>
        <time>2023-04-10T09:13:04Z</time>
      </trkpt>
      <trkpt lat="45.43577" lon="5.70881">
        <ele>623</ele>
        <time>2023-04-10T09:13:05Z</time>
      </trkpt>
      <trkpt lat="45.43579" lon="5.70878">
        <ele>623</ele>
        <time>2023-04-10T09:13:06Z</time>
      </trkpt>
      <trkpt lat="45.43582" lon="5.70876">
        <ele>623</ele>
        <time>2023-04-10T09:13:07Z</time>
      </trkpt>
      <trkpt lat="45.43584" lon="5.70874">
        <ele>623</ele>
        <time>2023-04-10T09:13:08Z</time>
      </trkpt>
      <trkpt lat="45.43586" lon="5.70871">
        <ele>623</ele>
        <time>2023-04-10T09:13:09Z</time>
      </trkpt>
      <trkpt lat="45.43589" lon="5.70869">
        <ele>624</ele>
        <time>2023-04-10T09:13:10Z</time>
      </trkpt>
      <trkpt lat="45.43591" lon="5.70867">
        <ele>625</ele>
        <time>2023-04-10T09:13:11Z</time>
      </trkpt>
      <trkpt lat="45.43593" lon="5.70865">
        <ele>625</ele>
        <time>2023-04-10T09:13:12Z</time>
      </trkpt>
      <trkpt lat="45.43595" lon="5.70862">
        <ele>625</ele>
        <time>2023-04-10T09:13:13Z</time>
      </trkpt>
      <trkpt lat="45.43597" lon="5.70861">
        <ele>625</ele>
        <time>2023-04-10T09:13:14Z</time>
      </trkpt>
      <trkpt lat="45.43599" lon="5.70859">
        <ele>626</ele>
        <time>2023-04-10T09:13:15Z</time>
      </trkpt>
      <trkpt lat="45.43601" lon="5.70857">
        <ele>626</ele>
        <time>2023-04-10T09:13:16Z</time>
      </trkpt>
      <trkpt lat="45.43603" lon="5.70855">
        <ele>626</ele>
        <time>2023-04-10T09:13:17Z</time>
      </trkpt>
      <trkpt lat="45.43605" lon="5.70854">
        <ele>626</ele>
        <time>2023-04-10T09:13:18Z</time>
      </trkpt>
      <trkpt lat="45.43607" lon="5.70852">
        <ele>627</ele>
        <time>2023-04-10T09:13:19Z</time>
      </trkpt>
      <trkpt lat="45.43609" lon="5.70851">
        <ele>627</ele>
        <time>2023-04-10T09:13:20Z</time>
      </trkpt>
      <trkpt lat="45.43611" lon="5.70849">
        <ele>627</ele>
        <time>2023-04-10T09:13:21Z</time>
      </trkpt>
      <trkpt lat="45.43613" lon="5.70847">
        <ele>627</ele>
        <time>2023-04-10T09:13:22Z</time>
      </trkpt>
      <trkpt lat="45.43615" lon="5.70845">
        <ele>628</ele>
        <time>2023-04-10T09:13:23Z</time>
      </trkpt>
      <trkpt lat="45.43617" lon="5.70843">
        <ele>628</ele>
        <time>2023-04-10T09:13:24Z</time>
      </trkpt>
      <trkpt lat="45.43619" lon="5.70842">
        <ele>628</ele>
        <time>2023-04-10T09:13:25Z</time>
      </trkpt>
      <trkpt lat="45.43621" lon="5.7084">
        <ele>628</ele>
        <time>2023-04-10T09:13:26Z</time>
      </trkpt>
      <trkpt lat="45.43623" lon="5.70838">
        <ele>628</ele>
        <time>2023-04-10T09:13:27Z</time>
      </trkpt>
      <trkpt lat="45.43625" lon="5.70836">
        <ele>628</ele>
        <time>2023-04-10T09:13:28Z</time>
      </trkpt>
      <trkpt lat="45.43627" lon="5.70834">
        <ele>628</ele>
        <time>2023-04-10T09:13:29Z</time>
      </trkpt>
      <trkpt lat="45.43629" lon="5.70832">
        <ele>628</ele>
        <time>2023-04-10T09:13:30Z</time>
      </trkpt>
      <trkpt lat="45.43631" lon="5.7083">
        <ele>629</ele>
        <time>2023-04-10T09:13:31Z</time>
      </trkpt>
      <trkpt lat="45.43632" lon="5.70828">
        <ele>629</ele>
        <time>2023-04-10T09:13:32Z</time>
      </trkpt>
      <trkpt lat="45.43633" lon="5.70825">
        <ele>629</ele>
        <time>2023-04-10T09:13:33Z</time>
      </trkpt>
      <trkpt lat="45.43633" lon="5.70822">
        <ele>629</ele>
        <time>2023-04-10T09:13:34Z</time>
      </trkpt>
      <trkpt lat="45.43633" lon="5.70819">
        <ele>629</ele>
        <time>2023-04-10T09:13:35Z</time>
      </trkpt>
      <trkpt lat="45.43633" lon="5.70815">
        <ele>630</ele>
        <time>2023-04-10T09:13:36Z</time>
      </trkpt>
      <trkpt lat="45.43632" lon="5.70812">
        <ele>630</ele>
        <time>2023-04-10T09:13:37Z</time>
      </trkpt>
      <trkpt lat="45.43631" lon="5.70809">
        <ele>631</ele>
        <time>2023-04-10T09:13:38Z</time>
      </trkpt>
      <trkpt lat="45.43629" lon="5.70807">
        <ele>631</ele>
        <time>2023-04-10T09:13:39Z</time>
      </trkpt>
      <trkpt lat="45.43628" lon="5.70805">
        <ele>631</ele>
        <time>2023-04-10T09:13:40Z</time>
      </trkpt>
      <trkpt lat="45.43626" lon="5.70802">
        <ele>631</ele>
        <time>2023-04-10T09:13:41Z</time>
      </trkpt>
      <trkpt lat="45.43624" lon="5.70801">
        <ele>631</ele>
        <time>2023-04-10T09:13:42Z</time>
      </trkpt>
      <trkpt lat="45.43622" lon="5.70799">
        <ele>632</ele>
        <time>2023-04-10T09:13:43Z</time>
      </trkpt>
      <trkpt lat="45.4362" lon="5.70797">
        <ele>632</ele>
        <time>2023-04-10T09:13:44Z</time>
      </trkpt>
      <trkpt lat="45.43618" lon="5.70796">
        <ele>632</ele>
        <time>2023-04-10T09:13:45Z</time>
      </trkpt>
      <trkpt lat="45.43616" lon="5.70794">
        <ele>633</ele>
        <time>2023-04-10T09:13:46Z</time>
      </trkpt>
      <trkpt lat="45.43614" lon="5.70793">
        <ele>633</ele>
        <time>2023-04-10T09:13:47Z</time>
      </trkpt>
      <trkpt lat="45.43611" lon="5.70791">
        <ele>633</ele>
        <time>2023-04-10T09:13:48Z</time>
      </trkpt>
      <trkpt lat="45.43609" lon="5.7079">
        <ele>633</ele>
        <time>2023-04-10T09:13:49Z</time>
      </trkpt>
      <trkpt lat="45.43607" lon="5.70788">
        <ele>633</ele>
        <time>2023-04-10T09:13:50Z</time>
      </trkpt>
      <trkpt lat="45.43605" lon="5.70787">
        <ele>634</ele>
        <time>2023-04-10T09:13:51Z</time>
      </trkpt>
      <trkpt lat="45.43603" lon="5.70785">
        <ele>634</ele>
        <time>2023-04-10T09:13:52Z</time>
      </trkpt>
      <trkpt lat="45.43601" lon="5.70784">
        <ele>634</ele>
        <time>2023-04-10T09:13:53Z</time>
      </trkpt>
      <trkpt lat="45.43598" lon="5.70783">
        <ele>634</ele>
        <time>2023-04-10T09:13:54Z</time>
      </trkpt>
      <trkpt lat="45.43596" lon="5.70781">
        <ele>635</ele>
        <time>2023-04-10T09:13:55Z</time>
      </trkpt>
      <trkpt lat="45.43594" lon="5.70779">
        <ele>635</ele>
        <time>2023-04-10T09:13:56Z</time>
      </trkpt>
      <trkpt lat="45.43592" lon="5.70778">
        <ele>634</ele>
        <time>2023-04-10T09:13:57Z</time>
      </trkpt>
      <trkpt lat="45.4359" lon="5.70777">
        <ele>634</ele>
        <time>2023-04-10T09:13:58Z</time>
      </trkpt>
      <trkpt lat="45.43587" lon="5.70776">
        <ele>634</ele>
        <time>2023-04-10T09:13:59Z</time>
      </trkpt>
      <trkpt lat="45.43585" lon="5.70774">
        <ele>635</ele>
        <time>2023-04-10T09:14:00Z</time>
      </trkpt>
      <trkpt lat="45.43583" lon="5.70773">
        <ele>635</ele>
        <time>2023-04-10T09:14:01Z</time>
      </trkpt>
      <trkpt lat="45.4358" lon="5.70771">
        <ele>635</ele>
        <time>2023-04-10T09:14:02Z</time>
      </trkpt>
      <trkpt lat="45.43578" lon="5.7077">
        <ele>636</ele>
        <time>2023-04-10T09:14:03Z</time>
      </trkpt>
      <trkpt lat="45.43576" lon="5.70768">
        <ele>636</ele>
        <time>2023-04-10T09:14:04Z</time>
      </trkpt>
      <trkpt lat="45.43574" lon="5.70767">
        <ele>636</ele>
        <time>2023-04-10T09:14:05Z</time>
      </trkpt>
      <trkpt lat="45.43572" lon="5.70765">
        <ele>636</ele>
        <time>2023-04-10T09:14:06Z</time>
      </trkpt>
      <trkpt lat="45.4357" lon="5.70763">
        <ele>636</ele>
        <time>2023-04-10T09:14:07Z</time>
      </trkpt>
      <trkpt lat="45.43567" lon="5.70762">
        <ele>636</ele>
        <time>2023-04-10T09:14:08Z</time>
      </trkpt>
      <trkpt lat="45.43565" lon="5.7076">
        <ele>637</ele>
        <time>2023-04-10T09:14:09Z</time>
      </trkpt>
      <trkpt lat="45.43563" lon="5.70758">
        <ele>637</ele>
        <time>2023-04-10T09:14:10Z</time>
      </trkpt>
      <trkpt lat="45.43561" lon="5.70757">
        <ele>637</ele>
        <time>2023-04-10T09:14:11Z</time>
      </trkpt>
      <trkpt lat="45.43559" lon="5.70755">
        <ele>637</ele>
        <time>2023-04-10T09:14:12Z</time>
      </trkpt>
      <trkpt lat="45.43557" lon="5.70753">
        <ele>637</ele>
        <time>2023-04-10T09:14:13Z</time>
      </trkpt>
      <trkpt lat="45.43554" lon="5.70751">
        <ele>637</ele>
        <time>2023-04-10T09:14:14Z</time>
      </trkpt>
      <trkpt lat="45.43552" lon="5.7075">
        <ele>638</ele>
        <time>2023-04-10T09:14:15Z</time>
      </trkpt>
      <trkpt lat="45.4355" lon="5.70748">
        <ele>638</ele>
        <time>2023-04-10T09:14:16Z</time>
      </trkpt>
      <trkpt lat="45.43548" lon="5.70746">
        <ele>639</ele>
        <time>2023-04-10T09:14:17Z</time>
      </trkpt>
      <trkpt lat="45.43546" lon="5.70744">
        <ele>639</ele>
        <time>2023-04-10T09:14:18Z</time>
      </trkpt>
      <trkpt lat="45.43543" lon="5.70742">
        <ele>639</ele>
        <time>2023-04-10T09:14:19Z</time>
      </trkpt>
      <trkpt lat="45.43541" lon="5.7074">
        <ele>639</ele>
        <time>2023-04-10T09:14:20Z</time>
      </trkpt>
      <trkpt lat="45.43539" lon="5.70738">
        <ele>640</ele>
        <time>2023-04-10T09:14:21Z</time>
      </trkpt>
      <trkpt lat="45.43537" lon="5.70737">
        <ele>640</ele>
        <time>2023-04-10T09:14:22Z</time>
      </trkpt>
      <trkpt lat="45.43535" lon="5.70735">
        <ele>640</ele>
        <time>2023-04-10T09:14:23Z</time>
      </trkpt>
      <trkpt lat="45.43532" lon="5.70733">
        <ele>640</ele>
        <time>2023-04-10T09:14:24Z</time>
      </trkpt>
      <trkpt lat="45.4353" lon="5.70732">
        <ele>640</ele>
        <time>2023-04-10T09:14:25Z</time>
      </trkpt>
      <trkpt lat="45.43528" lon="5.7073">
        <ele>641</ele>
        <time>2023-04-10T09:14:26Z</time>
      </trkpt>
      <trkpt lat="45.43526" lon="5.70728">
        <ele>640</ele>
        <time>2023-04-10T09:14:27Z</time>
      </trkpt>
      <trkpt lat="45.43524" lon="5.70726">
        <ele>640</ele>
        <time>2023-04-10T09:14:28Z</time>
      </trkpt>
      <trkpt lat="45.43522" lon="5.70724">
        <ele>641</ele>
        <time>2023-04-10T09:14:29Z</time>
      </trkpt>
      <trkpt lat="45.43519" lon="5.70722">
        <ele>641</ele>
        <time>2023-04-10T09:14:30Z</time>
      </trkpt>
      <trkpt lat="45.43517" lon="5.70721">
        <ele>641</ele>
        <time>2023-04-10T09:14:31Z</time>
      </trkpt>
      <trkpt lat="45.43515" lon="5.70719">
        <ele>641</ele>
        <time>2023-04-10T09:14:32Z</time>
      </trkpt>
      <trkpt lat="45.43513" lon="5.70717">
        <ele>641</ele>
        <time>2023-04-10T09:14:33Z</time>
      </trkpt>
      <trkpt lat="45.43511" lon="5.70715">
        <ele>641</ele>
        <time>2023-04-10T09:14:34Z</time>
      </trkpt>
      <trkpt lat="45.43509" lon="5.70713">
        <ele>641</ele>
        <time>2023-04-10T09:14:35Z</time>
      </trkpt>
      <trkpt lat="45.43507" lon="5.70711">
        <ele>642</ele>
        <time>2023-04-10T09:14:36Z</time>
      </trkpt>
      <trkpt lat="45.43504" lon="5.7071">
        <ele>642</ele>
        <time>2023-04-10T09:14:37Z</time>
      </trkpt>
      <trkpt lat="45.43502" lon="5.70708">
        <ele>642</ele>
        <time>2023-04-10T09:14:38Z</time>
      </trkpt>
      <trkpt lat="45.435" lon="5.70706">
        <ele>642</ele>
        <time>2023-04-10T09:14:39Z</time>
      </trkpt>
      <trkpt lat="45.43498" lon="5.70704">
        <ele>643</ele>
        <time>2023-04-10T09:14:40Z</time>
      </trkpt>
      <trkpt lat="45.43496" lon="5.70702">
        <ele>643</ele>
        <time>2023-04-10T09:14:41Z</time>
      </trkpt>
      <trkpt lat="45.43494" lon="5.70701">
        <ele>643</ele>
        <time>2023-04-10T09:14:42Z</time>
      </trkpt>
      <trkpt lat="45.43491" lon="5.70699">
        <ele>643</ele>
        <time>2023-04-10T09:14:43Z</time>
      </trkpt>
      <trkpt lat="45.43489" lon="5.70697">
        <ele>644</ele>
        <time>2023-04-10T09:14:44Z</time>
      </trkpt>
      <trkpt lat="45.43487" lon="5.70696">
        <ele>644</ele>
        <time>2023-04-10T09:14:45Z</time>
      </trkpt>
      <trkpt lat="45.43485" lon="5.70694">
        <ele>644</ele>
        <time>2023-04-10T09:14:46Z</time>
      </trkpt>
      <trkpt lat="45.43483" lon="5.70692">
        <ele>644</ele>
        <time>2023-04-10T09:14:47Z</time>
      </trkpt>
      <trkpt lat="45.43481" lon="5.7069">
        <ele>644</ele>
        <time>2023-04-10T09:14:48Z</time>
      </trkpt>
      <trkpt lat="45.43479" lon="5.70688">
        <ele>645</ele>
        <time>2023-04-10T09:14:49Z</time>
      </trkpt>
      <trkpt lat="45.43477" lon="5.70686">
        <ele>645</ele>
        <time>2023-04-10T09:14:50Z</time>
      </trkpt>
      <trkpt lat="45.43474" lon="5.70685">
        <ele>645</ele>
        <time>2023-04-10T09:14:51Z</time>
      </trkpt>
      <trkpt lat="45.43472" lon="5.70683">
        <ele>645</ele>
        <time>2023-04-10T09:14:52Z</time>
      </trkpt>
      <trkpt lat="45.4347" lon="5.70681">
        <ele>645</ele>
        <time>2023-04-10T09:14:53Z</time>
      </trkpt>
      <trkpt lat="45.43468" lon="5.70679">
        <ele>645</ele>
        <time>2023-04-10T09:14:54Z</time>
      </trkpt>
      <trkpt lat="45.43466" lon="5.70678">
        <ele>646</ele>
        <time>2023-04-10T09:14:55Z</time>
      </trkpt>
      <trkpt lat="45.43464" lon="5.70676">
        <ele>646</ele>
        <time>2023-04-10T09:14:56Z</time>
      </trkpt>
      <trkpt lat="45.43462" lon="5.70675">
        <ele>646</ele>
        <time>2023-04-10T09:14:57Z</time>
      </trkpt>
      <trkpt lat="45.4346" lon="5.70673">
        <ele>646</ele>
        <time>2023-04-10T09:14:58Z</time>
      </trkpt>
      <trkpt lat="45.43458" lon="5.70672">
        <ele>646</ele>
        <time>2023-04-10T09:14:59Z</time>
      </trkpt>
      <trkpt lat="45.43456" lon="5.70671">
        <ele>646</ele>
        <time>2023-04-10T09:15:00Z</time>
      </trkpt>
      <trkpt lat="45.43454" lon="5.70669">
        <ele>647</ele>
        <time>2023-04-10T09:15:01Z</time>
      </trkpt>
      <trkpt lat="45.43452" lon="5.70668">
        <ele>647</ele>
        <time>2023-04-10T09:15:02Z</time>
      </trkpt>
      <trkpt lat="45.4345" lon="5.70666">
        <ele>648</ele>
        <time>2023-04-10T09:15:03Z</time>
      </trkpt>
      <trkpt lat="45.43447" lon="5.70665">
        <ele>648</ele>
        <time>2023-04-10T09:15:04Z</time>
      </trkpt>
      <trkpt lat="45.43445" lon="5.70664">
        <ele>648</ele>
        <time>2023-04-10T09:15:05Z</time>
      </trkpt>
      <trkpt lat="45.43443" lon="5.70663">
        <ele>649</ele>
        <time>2023-04-10T09:15:06Z</time>
      </trkpt>
      <trkpt lat="45.43441" lon="5.70662">
        <ele>649</ele>
        <time>2023-04-10T09:15:07Z</time>
      </trkpt>
      <trkpt lat="45.43439" lon="5.7066">
        <ele>649</ele>
        <time>2023-04-10T09:15:08Z</time>
      </trkpt>
      <trkpt lat="45.43437" lon="5.70659">
        <ele>649</ele>
        <time>2023-04-10T09:15:09Z</time>
      </trkpt>
      <trkpt lat="45.43435" lon="5.70658">
        <ele>649</ele>
        <time>2023-04-10T09:15:10Z</time>
      </trkpt>
      <trkpt lat="45.43433" lon="5.70657">
        <ele>649</ele>
        <time>2023-04-10T09:15:11Z</time>
      </trkpt>
      <trkpt lat="45.43431" lon="5.70656">
        <ele>650</ele>
        <time>2023-04-10T09:15:12Z</time>
      </trkpt>
      <trkpt lat="45.43428" lon="5.70655">
        <ele>650</ele>
        <time>2023-04-10T09:15:13Z</time>
      </trkpt>
      <trkpt lat="45.43426" lon="5.70653">
        <ele>650</ele>
        <time>2023-04-10T09:15:14Z</time>
      </trkpt>
      <trkpt lat="45.43424" lon="5.70652">
        <ele>650</ele>
        <time>2023-04-10T09:15:15Z</time>
      </trkpt>
      <trkpt lat="45.43422" lon="5.70651">
        <ele>651</ele>
        <time>2023-04-10T09:15:16Z</time>
      </trkpt>
      <trkpt lat="45.4342" lon="5.7065">
        <ele>651</ele>
        <time>2023-04-10T09:15:17Z</time>
      </trkpt>
      <trkpt lat="45.43417" lon="5.70649">
        <ele>651</ele>
        <time>2023-04-10T09:15:18Z</time>
      </trkpt>
      <trkpt lat="45.43415" lon="5.70648">
        <ele>652</ele>
        <time>2023-04-10T09:15:19Z</time>
      </trkpt>
      <trkpt lat="45.43413" lon="5.70647">
        <ele>652</ele>
        <time>2023-04-10T09:15:20Z</time>
      </trkpt>
      <trkpt lat="45.43411" lon="5.70645">
        <ele>652</ele>
        <time>2023-04-10T09:15:21Z</time>
      </trkpt>
      <trkpt lat="45.43408" lon="5.70644">
        <ele>652</ele>
        <time>2023-04-10T09:15:22Z</time>
      </trkpt>
      <trkpt lat="45.43406" lon="5.70643">
        <ele>652</ele>
        <time>2023-04-10T09:15:23Z</time>
      </trkpt>
      <trkpt lat="45.43404" lon="5.70642">
        <ele>652</ele>
        <time>2023-04-10T09:15:24Z</time>
      </trkpt>
      <trkpt lat="45.43401" lon="5.7064">
        <ele>653</ele>
        <time>2023-04-10T09:15:25Z</time>
      </trkpt>
      <trkpt lat="45.43399" lon="5.70639">
        <ele>653</ele>
        <time>2023-04-10T09:15:26Z</time>
      </trkpt>
      <trkpt lat="45.43397" lon="5.70637">
        <ele>653</ele>
        <time>2023-04-10T09:15:27Z</time>
      </trkpt>
      <trkpt lat="45.43395" lon="5.70636">
        <ele>653</ele>
        <time>2023-04-10T09:15:28Z</time>
      </trkpt>
      <trkpt lat="45.43392" lon="5.70635">
        <ele>653</ele>
        <time>2023-04-10T09:15:29Z</time>
      </trkpt>
      <trkpt lat="45.4339" lon="5.70633">
        <ele>653</ele>
        <time>2023-04-10T09:15:30Z</time>
      </trkpt>
      <trkpt lat="45.43388" lon="5.70632">
        <ele>653</ele>
        <time>2023-04-10T09:15:31Z</time>
      </trkpt>
      <trkpt lat="45.43385" lon="5.70631">
        <ele>653</ele>
        <time>2023-04-10T09:15:32Z</time>
      </trkpt>
      <trkpt lat="45.43383" lon="5.7063">
        <ele>654</ele>
        <time>2023-04-10T09:15:33Z</time>
      </trkpt>
      <trkpt lat="45.43381" lon="5.70628">
        <ele>654</ele>
        <time>2023-04-10T09:15:34Z</time>
      </trkpt>
      <trkpt lat="45.43379" lon="5.70627">
        <ele>654</ele>
        <time>2023-04-10T09:15:35Z</time>
      </trkpt>
      <trkpt lat="45.43376" lon="5.70626">
        <ele>654</ele>
        <time>2023-04-10T09:15:36Z</time>
      </trkpt>
      <trkpt lat="45.43374" lon="5.70624">
        <ele>654</ele>
        <time>2023-04-10T09:15:37Z</time>
      </trkpt>
      <trkpt lat="45.43372" lon="5.70623">
        <ele>655</ele>
        <time>2023-04-10T09:15:38Z</time>
      </trkpt>
      <trkpt lat="45.4337" lon="5.70622">
        <ele>655</ele>
        <time>2023-04-10T09:15:39Z</time>
      </trkpt>
      <trkpt lat="45.43367" lon="5.7062">
        <ele>656</ele>
        <time>2023-04-10T09:15:40Z</time>
      </trkpt>
      <trkpt lat="45.43365" lon="5.70619">
        <ele>656</ele>
        <time>2023-04-10T09:15:41Z</time>
      </trkpt>
      <trkpt lat="45.43363" lon="5.70617">
        <ele>656</ele>
        <time>2023-04-10T09:15:42Z</time>
      </trkpt>
      <trkpt lat="45.43361" lon="5.70615">
        <ele>656</ele>
        <time>2023-04-10T09:15:43Z</time>
      </trkpt>
      <trkpt lat="45.43359" lon="5.70614">
        <ele>656</ele>
        <time>2023-04-10T09:15:44Z</time>
      </trkpt>
      <trkpt lat="45.43357" lon="5.70612">
        <ele>657</ele>
        <time>2023-04-10T09:15:45Z</time>
      </trkpt>
      <trkpt lat="45.43356" lon="5.7061">
        <ele>657</ele>
        <time>2023-04-10T09:15:46Z</time>
      </trkpt>
      <trkpt lat="45.43354" lon="5.70608">
        <ele>657</ele>
        <time>2023-04-10T09:15:47Z</time>
      </trkpt>
      <trkpt lat="45.43352" lon="5.70607">
        <ele>657</ele>
        <time>2023-04-10T09:15:48Z</time>
      </trkpt>
      <trkpt lat="45.4335" lon="5.70605">
        <ele>658</ele>
        <time>2023-04-10T09:15:49Z</time>
      </trkpt>
      <trkpt lat="45.43348" lon="5.70603">
        <ele>658</ele>
        <time>2023-04-10T09:15:50Z</time>
      </trkpt>
      <trkpt lat="45.43346" lon="5.70601">
        <ele>658</ele>
        <time>2023-04-10T09:15:51Z</time>
      </trkpt>
      <trkpt lat="45.43344" lon="5.70599">
        <ele>658</ele>
        <time>2023-04-10T09:15:52Z</time>
      </trkpt>
      <trkpt lat="45.43342" lon="5.70597">
        <ele>658</ele>
        <time>2023-04-10T09:15:53Z</time>
      </trkpt>
      <trkpt lat="45.43341" lon="5.70595">
        <ele>659</ele>
        <time>2023-04-10T09:15:54Z</time>
      </trkpt>
      <trkpt lat="45.43339" lon="5.70593">
        <ele>659</ele>
        <time>2023-04-10T09:15:55Z</time>
      </trkpt>
      <trkpt lat="45.43337" lon="5.70591">
        <ele>659</ele>
        <time>2023-04-10T09:15:56Z</time>
      </trkpt>
      <trkpt lat="45.43335" lon="5.70589">
        <ele>659</ele>
        <time>2023-04-10T09:15:57Z</time>
      </trkpt>
      <trkpt lat="45.43334" lon="5.70587">
        <ele>659</ele>
        <time>2023-04-10T09:15:58Z</time>
      </trkpt>
      <trkpt lat="45.43332" lon="5.70585">
        <ele>659</ele>
        <time>2023-04-10T09:15:59Z</time>
      </trkpt>
      <trkpt lat="45.43329" lon="5.70582">
        <ele>659</ele>
        <time>2023-04-10T09:16:01Z</time>
      </trkpt>
      <trkpt lat="45.43328" lon="5.7058">
        <ele>659</ele>
        <time>2023-04-10T09:16:02Z</time>
      </trkpt>
      <trkpt lat="45.43326" lon="5.70578">
        <ele>660</ele>
        <time>2023-04-10T09:16:03Z</time>
      </trkpt>
      <trkpt lat="45.43325" lon="5.70576">
        <ele>661</ele>
        <time>2023-04-10T09:16:04Z</time>
      </trkpt>
      <trkpt lat="45.43323" lon="5.70575">
        <ele>661</ele>
        <time>2023-04-10T09:16:05Z</time>
      </trkpt>
      <trkpt lat="45.43322" lon="5.70572">
        <ele>661</ele>
        <time>2023-04-10T09:16:06Z</time>
      </trkpt>
      <trkpt lat="45.4332" lon="5.7057">
        <ele>661</ele>
        <time>2023-04-10T09:16:07Z</time>
      </trkpt>
      <trkpt lat="45.43318" lon="5.70569">
        <ele>661</ele>
        <time>2023-04-10T09:16:08Z</time>
      </trkpt>
      <trkpt lat="45.43316" lon="5.70567">
        <ele>662</ele>
        <time>2023-04-10T09:16:09Z</time>
      </trkpt>
      <trkpt lat="45.43315" lon="5.70565">
        <ele>662</ele>
        <time>2023-04-10T09:16:10Z</time>
      </trkpt>
      <trkpt lat="45.43313" lon="5.70564">
        <ele>663</ele>
        <time>2023-04-10T09:16:11Z</time>
      </trkpt>
      <trkpt lat="45.43311" lon="5.70562">
        <ele>663</ele>
        <time>2023-04-10T09:16:12Z</time>
      </trkpt>
      <trkpt lat="45.43309" lon="5.7056">
        <ele>663</ele>
        <time>2023-04-10T09:16:13Z</time>
      </trkpt>
      <trkpt lat="45.43307" lon="5.70558">
        <ele>663</ele>
        <time>2023-04-10T09:16:14Z</time>
      </trkpt>
      <trkpt lat="45.43305" lon="5.70556">
        <ele>663</ele>
        <time>2023-04-10T09:16:15Z</time>
      </trkpt>
      <trkpt lat="45.43303" lon="5.70554">
        <ele>663</ele>
        <time>2023-04-10T09:16:16Z</time>
      </trkpt>
      <trkpt lat="45.43301" lon="5.70552">
        <ele>664</ele>
        <time>2023-04-10T09:16:17Z</time>
      </trkpt>
      <trkpt lat="45.43299" lon="5.7055">
        <ele>664</ele>
        <time>2023-04-10T09:16:18Z</time>
      </trkpt>
      <trkpt lat="45.43297" lon="5.70549">
        <ele>665</ele>
        <time>2023-04-10T09:16:19Z</time>
      </trkpt>
      <trkpt lat="45.43295" lon="5.70547">
        <ele>665</ele>
        <time>2023-04-10T09:16:20Z</time>
      </trkpt>
      <trkpt lat="45.43293" lon="5.70545">
        <ele>665</ele>
        <time>2023-04-10T09:16:21Z</time>
      </trkpt>
      <trkpt lat="45.43291" lon="5.70543">
        <ele>665</ele>
        <time>2023-04-10T09:16:22Z</time>
      </trkpt>
      <trkpt lat="45.43288" lon="5.70542">
        <ele>665</ele>
        <time>2023-04-10T09:16:23Z</time>
      </trkpt>
      <trkpt lat="45.43286" lon="5.7054">
        <ele>665</ele>
        <time>2023-04-10T09:16:24Z</time>
      </trkpt>
      <trkpt lat="45.43284" lon="5.70538">
        <ele>665</ele>
        <time>2023-04-10T09:16:25Z</time>
      </trkpt>
      <trkpt lat="45.43282" lon="5.70537">
        <ele>666</ele>
        <time>2023-04-10T09:16:26Z</time>
      </trkpt>
      <trkpt lat="45.4328" lon="5.70535">
        <ele>666</ele>
        <time>2023-04-10T09:16:27Z</time>
      </trkpt>
      <trkpt lat="45.43278" lon="5.70534">
        <ele>666</ele>
        <time>2023-04-10T09:16:28Z</time>
      </trkpt>
      <trkpt lat="45.43276" lon="5.70532">
        <ele>666</ele>
        <time>2023-04-10T09:16:29Z</time>
      </trkpt>
      <trkpt lat="45.43274" lon="5.70531">
        <ele>666</ele>
        <time>2023-04-10T09:16:30Z</time>
      </trkpt>
      <trkpt lat="45.43272" lon="5.7053">
        <ele>666</ele>
        <time>2023-04-10T09:16:31Z</time>
      </trkpt>
      <trkpt lat="45.4327" lon="5.70528">
        <ele>666</ele>
        <time>2023-04-10T09:16:32Z</time>
      </trkpt>
      <trkpt lat="45.43268" lon="5.70527">
        <ele>667</ele>
        <time>2023-04-10T09:16:33Z</time>
      </trkpt>
      <trkpt lat="45.43266" lon="5.70525">
        <ele>667</ele>
        <time>2023-04-10T09:16:34Z</time>
      </trkpt>
      <trkpt lat="45.43264" lon="5.70524">
        <ele>668</ele>
        <time>2023-04-10T09:16:35Z</time>
      </trkpt>
      <trkpt lat="45.43262" lon="5.70522">
        <ele>668</ele>
        <time>2023-04-10T09:16:36Z</time>
      </trkpt>
      <trkpt lat="45.4326" lon="5.70521">
        <ele>668</ele>
        <time>2023-04-10T09:16:37Z</time>
      </trkpt>
      <trkpt lat="45.43258" lon="5.70519">
        <ele>668</ele>
        <time>2023-04-10T09:16:38Z</time>
      </trkpt>
      <trkpt lat="45.43256" lon="5.70518">
        <ele>669</ele>
        <time>2023-04-10T09:16:39Z</time>
      </trkpt>
      <trkpt lat="45.43254" lon="5.70516">
        <ele>669</ele>
        <time>2023-04-10T09:16:40Z</time>
      </trkpt>
      <trkpt lat="45.43252" lon="5.70515">
        <ele>670</ele>
        <time>2023-04-10T09:16:41Z</time>
      </trkpt>
      <trkpt lat="45.43251" lon="5.70513">
        <ele>670</ele>
        <time>2023-04-10T09:16:42Z</time>
      </trkpt>
      <trkpt lat="45.43249" lon="5.70511">
        <ele>670</ele>
        <time>2023-04-10T09:16:43Z</time>
      </trkpt>
      <trkpt lat="45.43247" lon="5.7051">
        <ele>670</ele>
        <time>2023-04-10T09:16:44Z</time>
      </trkpt>
      <trkpt lat="45.43245" lon="5.70508">
        <ele>670</ele>
        <time>2023-04-10T09:16:45Z</time>
      </trkpt>
      <trkpt lat="45.43243" lon="5.70507">
        <ele>671</ele>
        <time>2023-04-10T09:16:46Z</time>
      </trkpt>
      <trkpt lat="45.43241" lon="5.70505">
        <ele>671</ele>
        <time>2023-04-10T09:16:47Z</time>
      </trkpt>
      <trkpt lat="45.43239" lon="5.70503">
        <ele>671</ele>
        <time>2023-04-10T09:16:48Z</time>
      </trkpt>
      <trkpt lat="45.43237" lon="5.70502">
        <ele>671</ele>
        <time>2023-04-10T09:16:49Z</time>
      </trkpt>
      <trkpt lat="45.43235" lon="5.70501">
        <ele>671</ele>
        <time>2023-04-10T09:16:50Z</time>
      </trkpt>
      <trkpt lat="45.43233" lon="5.70499">
        <ele>671</ele>
        <time>2023-04-10T09:16:51Z</time>
      </trkpt>
      <trkpt lat="45.43231" lon="5.70497">
        <ele>671</ele>
        <time>2023-04-10T09:16:52Z</time>
      </trkpt>
      <trkpt lat="45.4323" lon="5.70495">
        <ele>672</ele>
        <time>2023-04-10T09:16:53Z</time>
      </trkpt>
      <trkpt lat="45.43228" lon="5.70493">
        <ele>672</ele>
        <time>2023-04-10T09:16:54Z</time>
      </trkpt>
      <trkpt lat="45.43226" lon="5.70491">
        <ele>672</ele>
        <time>2023-04-10T09:16:55Z</time>
      </trkpt>
      <trkpt lat="45.43225" lon="5.7049">
        <ele>672</ele>
        <time>2023-04-10T09:16:56Z</time>
      </trkpt>
      <trkpt lat="45.43223" lon="5.70488">
        <ele>672</ele>
        <time>2023-04-10T09:16:57Z</time>
      </trkpt>
      <trkpt lat="45.43221" lon="5.70485">
        <ele>672</ele>
        <time>2023-04-10T09:16:58Z</time>
      </trkpt>
      <trkpt lat="45.43219" lon="5.70484">
        <ele>673</ele>
        <time>2023-04-10T09:16:59Z</time>
      </trkpt>
      <trkpt lat="45.43218" lon="5.70482">
        <ele>673</ele>
        <time>2023-04-10T09:17:00Z</time>
      </trkpt>
      <trkpt lat="45.43216" lon="5.7048">
        <ele>673</ele>
        <time>2023-04-10T09:17:01Z</time>
      </trkpt>
      <trkpt lat="45.43214" lon="5.70478">
        <ele>674</ele>
        <time>2023-04-10T09:17:02Z</time>
      </trkpt>
      <trkpt lat="45.43212" lon="5.70476">
        <ele>674</ele>
        <time>2023-04-10T09:17:03Z</time>
      </trkpt>
      <trkpt lat="45.4321" lon="5.70474">
        <ele>675</ele>
        <time>2023-04-10T09:17:04Z</time>
      </trkpt>
      <trkpt lat="45.43208" lon="5.70473">
        <ele>675</ele>
        <time>2023-04-10T09:17:05Z</time>
      </trkpt>
      <trkpt lat="45.43207" lon="5.70471">
        <ele>675</ele>
        <time>2023-04-10T09:17:06Z</time>
      </trkpt>
      <trkpt lat="45.43205" lon="5.70469">
        <ele>675</ele>
        <time>2023-04-10T09:17:07Z</time>
      </trkpt>
      <trkpt lat="45.43203" lon="5.70467">
        <ele>675</ele>
        <time>2023-04-10T09:17:08Z</time>
      </trkpt>
      <trkpt lat="45.43201" lon="5.70466">
        <ele>676</ele>
        <time>2023-04-10T09:17:09Z</time>
      </trkpt>
      <trkpt lat="45.43199" lon="5.70464">
        <ele>676</ele>
        <time>2023-04-10T09:17:10Z</time>
      </trkpt>
      <trkpt lat="45.43197" lon="5.70462">
        <ele>676</ele>
        <time>2023-04-10T09:17:11Z</time>
      </trkpt>
      <trkpt lat="45.43195" lon="5.7046">
        <ele>676</ele>
        <time>2023-04-10T09:17:12Z</time>
      </trkpt>
      <trkpt lat="45.43194" lon="5.70459">
        <ele>677</ele>
        <time>2023-04-10T09:17:13Z</time>
      </trkpt>
      <trkpt lat="45.43192" lon="5.70457">
        <ele>677</ele>
        <time>2023-04-10T09:17:14Z</time>
      </trkpt>
      <trkpt lat="45.4319" lon="5.70455">
        <ele>677</ele>
        <time>2023-04-10T09:17:15Z</time>
      </trkpt>
      <trkpt lat="45.43188" lon="5.70453">
        <ele>677</ele>
        <time>2023-04-10T09:17:16Z</time>
      </trkpt>
      <trkpt lat="45.43186" lon="5.70451">
        <ele>677</ele>
        <time>2023-04-10T09:17:17Z</time>
      </trkpt>
      <trkpt lat="45.43185" lon="5.70449">
        <ele>678</ele>
        <time>2023-04-10T09:17:18Z</time>
      </trkpt>
      <trkpt lat="45.43183" lon="5.70447">
        <ele>678</ele>
        <time>2023-04-10T09:17:19Z</time>
      </trkpt>
      <trkpt lat="45.43181" lon="5.70445">
        <ele>679</ele>
        <time>2023-04-10T09:17:20Z</time>
      </trkpt>
      <trkpt lat="45.43179" lon="5.70443">
        <ele>679</ele>
        <time>2023-04-10T09:17:21Z</time>
      </trkpt>
      <trkpt lat="45.43177" lon="5.70441">
        <ele>679</ele>
        <time>2023-04-10T09:17:22Z</time>
      </trkpt>
      <trkpt lat="45.43175" lon="5.7044">
        <ele>679</ele>
        <time>2023-04-10T09:17:23Z</time>
      </trkpt>
      <trkpt lat="45.43173" lon="5.70438">
        <ele>680</ele>
        <time>2023-04-10T09:17:24Z</time>
      </trkpt>
      <trkpt lat="45.43171" lon="5.70436">
        <ele>680</ele>
        <time>2023-04-10T09:17:25Z</time>
      </trkpt>
      <trkpt lat="45.43169" lon="5.70434">
        <ele>680</ele>
        <time>2023-04-10T09:17:26Z</time>
      </trkpt>
      <trkpt lat="45.43167" lon="5.70432">
        <ele>680</ele>
        <time>2023-04-10T09:17:27Z</time>
      </trkpt>
      <trkpt lat="45.43165" lon="5.7043">
        <ele>680</ele>
        <time>2023-04-10T09:17:28Z</time>
      </trkpt>
      <trkpt lat="45.43163" lon="5.70427">
        <ele>680</ele>
        <time>2023-04-10T09:17:29Z</time>
      </trkpt>
      <trkpt lat="45.43161" lon="5.70425">
        <ele>680</ele>
        <time>2023-04-10T09:17:30Z</time>
      </trkpt>
      <trkpt lat="45.43159" lon="5.70423">
        <ele>680</ele>
        <time>2023-04-10T09:17:31Z</time>
      </trkpt>
      <trkpt lat="45.43157" lon="5.70421">
        <ele>680</ele>
        <time>2023-04-10T09:17:32Z</time>
      </trkpt>
      <trkpt lat="45.43155" lon="5.70419">
        <ele>680</ele>
        <time>2023-04-10T09:17:33Z</time>
      </trkpt>
      <trkpt lat="45.43153" lon="5.70417">
        <ele>680</ele>
        <time>2023-04-10T09:17:34Z</time>
      </trkpt>
      <trkpt lat="45.43151" lon="5.70415">
        <ele>680</ele>
        <time>2023-04-10T09:17:35Z</time>
      </trkpt>
      <trkpt lat="45.43149" lon="5.70413">
        <ele>681</ele>
        <time>2023-04-10T09:17:36Z</time>
      </trkpt>
      <trkpt lat="45.43147" lon="5.70411">
        <ele>681</ele>
        <time>2023-04-10T09:17:37Z</time>
      </trkpt>
      <trkpt lat="45.43145" lon="5.70409">
        <ele>682</ele>
        <time>2023-04-10T09:17:38Z</time>
      </trkpt>
      <trkpt lat="45.43143" lon="5.70407">
        <ele>682</ele>
        <time>2023-04-10T09:17:39Z</time>
      </trkpt>
      <trkpt lat="45.43141" lon="5.70405">
        <ele>682</ele>
        <time>2023-04-10T09:17:40Z</time>
      </trkpt>
      <trkpt lat="45.43139" lon="5.70403">
        <ele>682</ele>
        <time>2023-04-10T09:17:41Z</time>
      </trkpt>
      <trkpt lat="45.43137" lon="5.70401">
        <ele>682</ele>
        <time>2023-04-10T09:17:42Z</time>
      </trkpt>
      <trkpt lat="45.43135" lon="5.70399">
        <ele>682</ele>
        <time>2023-04-10T09:17:43Z</time>
      </trkpt>
      <trkpt lat="45.43133" lon="5.70397">
        <ele>683</ele>
        <time>2023-04-10T09:17:44Z</time>
      </trkpt>
      <trkpt lat="45.43131" lon="5.70395">
        <ele>683</ele>
        <time>2023-04-10T09:17:45Z</time>
      </trkpt>
      <trkpt lat="45.43129" lon="5.70393">
        <ele>684</ele>
        <time>2023-04-10T09:17:46Z</time>
      </trkpt>
      <trkpt lat="45.43127" lon="5.70391">
        <ele>684</ele>
        <time>2023-04-10T09:17:47Z</time>
      </trkpt>
      <trkpt lat="45.43124" lon="5.70389">
        <ele>684</ele>
        <time>2023-04-10T09:17:48Z</time>
      </trkpt>
      <trkpt lat="45.43122" lon="5.70387">
        <ele>684</ele>
        <time>2023-04-10T09:17:49Z</time>
      </trkpt>
      <trkpt lat="45.4312" lon="5.70385">
        <ele>684</ele>
        <time>2023-04-10T09:17:50Z</time>
      </trkpt>
      <trkpt lat="45.43118" lon="5.70383">
        <ele>684</ele>
        <time>2023-04-10T09:17:51Z</time>
      </trkpt>
      <trkpt lat="45.43116" lon="5.70381">
        <ele>684</ele>
        <time>2023-04-10T09:17:52Z</time>
      </trkpt>
      <trkpt lat="45.43114" lon="5.70379">
        <ele>684</ele>
        <time>2023-04-10T09:17:53Z</time>
      </trkpt>
      <trkpt lat="45.43112" lon="5.70377">
        <ele>684</ele>
        <time>2023-04-10T09:17:54Z</time>
      </trkpt>
      <trkpt lat="45.4311" lon="5.70375">
        <ele>684</ele>
        <time>2023-04-10T09:17:55Z</time>
      </trkpt>
      <trkpt lat="45.43107" lon="5.70374">
        <ele>685</ele>
        <time>2023-04-10T09:17:56Z</time>
      </trkpt>
      <trkpt lat="45.43105" lon="5.70372">
        <ele>686</ele>
        <time>2023-04-10T09:17:57Z</time>
      </trkpt>
      <trkpt lat="45.43103" lon="5.7037">
        <ele>686</ele>
        <time>2023-04-10T09:17:58Z</time>
      </trkpt>
      <trkpt lat="45.43101" lon="5.70368">
        <ele>686</ele>
        <time>2023-04-10T09:17:59Z</time>
      </trkpt>
      <trkpt lat="45.43099" lon="5.70365">
        <ele>686</ele>
        <time>2023-04-10T09:18:00Z</time>
      </trkpt>
      <trkpt lat="45.43097" lon="5.70364">
        <ele>686</ele>
        <time>2023-04-10T09:18:01Z</time>
      </trkpt>
      <trkpt lat="45.43095" lon="5.70362">
        <ele>686</ele>
        <time>2023-04-10T09:18:02Z</time>
      </trkpt>
      <trkpt lat="45.43093" lon="5.7036">
        <ele>686</ele>
        <time>2023-04-10T09:18:03Z</time>
      </trkpt>
      <trkpt lat="45.43091" lon="5.70358">
        <ele>686</ele>
        <time>2023-04-10T09:18:04Z</time>
      </trkpt>
      <trkpt lat="45.43089" lon="5.70356">
        <ele>686</ele>
        <time>2023-04-10T09:18:05Z</time>
      </trkpt>
      <trkpt lat="45.43087" lon="5.70354">
        <ele>686</ele>
        <time>2023-04-10T09:18:06Z</time>
      </trkpt>
      <trkpt lat="45.43085" lon="5.70351">
        <ele>687</ele>
        <time>2023-04-10T09:18:07Z</time>
      </trkpt>
      <trkpt lat="45.43083" lon="5.70349">
        <ele>687</ele>
        <time>2023-04-10T09:18:08Z</time>
      </trkpt>
      <trkpt lat="45.43081" lon="5.70347">
        <ele>687</ele>
        <time>2023-04-10T09:18:09Z</time>
      </trkpt>
      <trkpt lat="45.43079" lon="5.70345">
        <ele>688</ele>
        <time>2023-04-10T09:18:10Z</time>
      </trkpt>
      <trkpt lat="45.43077" lon="5.70344">
        <ele>688</ele>
        <time>2023-04-10T09:18:11Z</time>
      </trkpt>
      <trkpt lat="45.43075" lon="5.70342">
        <ele>688</ele>
        <time>2023-04-10T09:18:12Z</time>
      </trkpt>
      <trkpt lat="45.43073" lon="5.7034">
        <ele>688</ele>
        <time>2023-04-10T09:18:13Z</time>
      </trkpt>
      <trkpt lat="45.43071" lon="5.70338">
        <ele>688</ele>
        <time>2023-04-10T09:18:14Z</time>
      </trkpt>
      <trkpt lat="45.43069" lon="5.70336">
        <ele>688</ele>
        <time>2023-04-10T09:18:15Z</time>
      </trkpt>
      <trkpt lat="45.43067" lon="5.70334">
        <ele>688</ele>
        <time>2023-04-10T09:18:16Z</time>
      </trkpt>
      <trkpt lat="45.43065" lon="5.70332">
        <ele>689</ele>
        <time>2023-04-10T09:18:17Z</time>
      </trkpt>
      <trkpt lat="45.43063" lon="5.7033">
        <ele>689</ele>
        <time>2023-04-10T09:18:18Z</time>
      </trkpt>
      <trkpt lat="45.43061" lon="5.70327">
        <ele>689</ele>
        <time>2023-04-10T09:18:19Z</time>
      </trkpt>
      <trkpt lat="45.43059" lon="5.70325">
        <ele>689</ele>
        <time>2023-04-10T09:18:20Z</time>
      </trkpt>
      <trkpt lat="45.43056" lon="5.70322">
        <ele>689</ele>
        <time>2023-04-10T09:18:21Z</time>
      </trkpt>
      <trkpt lat="45.43054" lon="5.7032">
        <ele>689</ele>
        <time>2023-04-10T09:18:22Z</time>
      </trkpt>
      <trkpt lat="45.43052" lon="5.70317">
        <ele>689</ele>
        <time>2023-04-10T09:18:23Z</time>
      </trkpt>
      <trkpt lat="45.4305" lon="5.70314">
        <ele>689</ele>
        <time>2023-04-10T09:18:24Z</time>
      </trkpt>
      <trkpt lat="45.43047" lon="5.70311">
        <ele>689</ele>
        <time>2023-04-10T09:18:25Z</time>
      </trkpt>
      <trkpt lat="45.43045" lon="5.70308">
        <ele>689</ele>
        <time>2023-04-10T09:18:26Z</time>
      </trkpt>
      <trkpt lat="45.43043" lon="5.70304">
        <ele>690</ele>
        <time>2023-04-10T09:18:27Z</time>
      </trkpt>
      <trkpt lat="45.4304" lon="5.70301">
        <ele>690</ele>
        <time>2023-04-10T09:18:28Z</time>
      </trkpt>
      <trkpt lat="45.43038" lon="5.70298">
        <ele>690</ele>
        <time>2023-04-10T09:18:29Z</time>
      </trkpt>
      <trkpt lat="45.43036" lon="5.70294">
        <ele>691</ele>
        <time>2023-04-10T09:18:30Z</time>
      </trkpt>
      <trkpt lat="45.43033" lon="5.70291">
        <ele>691</ele>
        <time>2023-04-10T09:18:31Z</time>
      </trkpt>
      <trkpt lat="45.43031" lon="5.70288">
        <ele>691</ele>
        <time>2023-04-10T09:18:32Z</time>
      </trkpt>
      <trkpt lat="45.43028" lon="5.70284">
        <ele>691</ele>
        <time>2023-04-10T09:18:33Z</time>
      </trkpt>
      <trkpt lat="45.43026" lon="5.70281">
        <ele>692</ele>
        <time>2023-04-10T09:18:34Z</time>
      </trkpt>
      <trkpt lat="45.43024" lon="5.70277">
        <ele>692</ele>
        <time>2023-04-10T09:18:35Z</time>
      </trkpt>
      <trkpt lat="45.43021" lon="5.70274">
        <ele>692</ele>
        <time>2023-04-10T09:18:36Z</time>
      </trkpt>
      <trkpt lat="45.43018" lon="5.7027">
        <ele>692</ele>
        <time>2023-04-10T09:18:37Z</time>
      </trkpt>
      <trkpt lat="45.43016" lon="5.70267">
        <ele>692</ele>
        <time>2023-04-10T09:18:38Z</time>
      </trkpt>
      <trkpt lat="45.43013" lon="5.70263">
        <ele>692</ele>
        <time>2023-04-10T09:18:39Z</time>
      </trkpt>
      <trkpt lat="45.43011" lon="5.7026">
        <ele>692</ele>
        <time>2023-04-10T09:18:40Z</time>
      </trkpt>
      <trkpt lat="45.43008" lon="5.70256">
        <ele>693</ele>
        <time>2023-04-10T09:18:41Z</time>
      </trkpt>
      <trkpt lat="45.43006" lon="5.70253">
        <ele>693</ele>
        <time>2023-04-10T09:18:42Z</time>
      </trkpt>
      <trkpt lat="45.43003" lon="5.70249">
        <ele>693</ele>
        <time>2023-04-10T09:18:43Z</time>
      </trkpt>
      <trkpt lat="45.43001" lon="5.70245">
        <ele>693</ele>
        <time>2023-04-10T09:18:44Z</time>
      </trkpt>
      <trkpt lat="45.42999" lon="5.70242">
        <ele>693</ele>
        <time>2023-04-10T09:18:45Z</time>
      </trkpt>
      <trkpt lat="45.42996" lon="5.70238">
        <ele>694</ele>
        <time>2023-04-10T09:18:46Z</time>
      </trkpt>
      <trkpt lat="45.42994" lon="5.70235">
        <ele>694</ele>
        <time>2023-04-10T09:18:47Z</time>
      </trkpt>
      <trkpt lat="45.42992" lon="5.70231">
        <ele>694</ele>
        <time>2023-04-10T09:18:48Z</time>
      </trkpt>
      <trkpt lat="45.42989" lon="5.70228">
        <ele>695</ele>
        <time>2023-04-10T09:18:49Z</time>
      </trkpt>
      <trkpt lat="45.42987" lon="5.70225">
        <ele>695</ele>
        <time>2023-04-10T09:18:50Z</time>
      </trkpt>
      <trkpt lat="45.42984" lon="5.70221">
        <ele>695</ele>
        <time>2023-04-10T09:18:51Z</time>
      </trkpt>
      <trkpt lat="45.42982" lon="5.70218">
        <ele>695</ele>
        <time>2023-04-10T09:18:52Z</time>
      </trkpt>
      <trkpt lat="45.42979" lon="5.70214">
        <ele>695</ele>
        <time>2023-04-10T09:18:53Z</time>
      </trkpt>
      <trkpt lat="45.42977" lon="5.70211">
        <ele>695</ele>
        <time>2023-04-10T09:18:54Z</time>
      </trkpt>
      <trkpt lat="45.42975" lon="5.70208">
        <ele>695</ele>
        <time>2023-04-10T09:18:55Z</time>
      </trkpt>
      <trkpt lat="45.42972" lon="5.70204">
        <ele>695</ele>
        <time>2023-04-10T09:18:56Z</time>
      </trkpt>
      <trkpt lat="45.4297" lon="5.70201">
        <ele>695</ele>
        <time>2023-04-10T09:18:57Z</time>
      </trkpt>
      <trkpt lat="45.42968" lon="5.70198">
        <ele>695</ele>
        <time>2023-04-10T09:18:58Z</time>
      </trkpt>
      <trkpt lat="45.42966" lon="5.70196">
        <ele>695</ele>
        <time>2023-04-10T09:18:59Z</time>
      </trkpt>
      <trkpt lat="45.42964" lon="5.70193">
        <ele>696</ele>
        <time>2023-04-10T09:19:00Z</time>
      </trkpt>
      <trkpt lat="45.42962" lon="5.7019">
        <ele>696</ele>
        <time>2023-04-10T09:19:01Z</time>
      </trkpt>
      <trkpt lat="45.4296" lon="5.70187">
        <ele>696</ele>
        <time>2023-04-10T09:19:02Z</time>
      </trkpt>
      <trkpt lat="45.42958" lon="5.70183">
        <ele>696</ele>
        <time>2023-04-10T09:19:03Z</time>
      </trkpt>
      <trkpt lat="45.42956" lon="5.7018">
        <ele>696</ele>
        <time>2023-04-10T09:19:04Z</time>
      </trkpt>
      <trkpt lat="45.42955" lon="5.70177">
        <ele>696</ele>
        <time>2023-04-10T09:19:05Z</time>
      </trkpt>
      <trkpt lat="45.42954" lon="5.70173">
        <ele>696</ele>
        <time>2023-04-10T09:19:06Z</time>
      </trkpt>
      <trkpt lat="45.42953" lon="5.70169">
        <ele>697</ele>
        <time>2023-04-10T09:19:07Z</time>
      </trkpt>
      <trkpt lat="45.42951" lon="5.70166">
        <ele>697</ele>
        <time>2023-04-10T09:19:08Z</time>
      </trkpt>
      <trkpt lat="45.4295" lon="5.70162">
        <ele>697</ele>
        <time>2023-04-10T09:19:09Z</time>
      </trkpt>
      <trkpt lat="45.4295" lon="5.70158">
        <ele>698</ele>
        <time>2023-04-10T09:19:10Z</time>
      </trkpt>
      <trkpt lat="45.4295" lon="5.70154">
        <ele>698</ele>
        <time>2023-04-10T09:19:11Z</time>
      </trkpt>
      <trkpt lat="45.4295" lon="5.7015">
        <ele>698</ele>
        <time>2023-04-10T09:19:12Z</time>
      </trkpt>
      <trkpt lat="45.42952" lon="5.70147">
        <ele>698</ele>
        <time>2023-04-10T09:19:13Z</time>
      </trkpt>
      <trkpt lat="45.42954" lon="5.70144">
        <ele>698</ele>
        <time>2023-04-10T09:19:14Z</time>
      </trkpt>
      <trkpt lat="45.42956" lon="5.70143">
        <ele>699</ele>
        <time>2023-04-10T09:19:15Z</time>
      </trkpt>
      <trkpt lat="45.42959" lon="5.70142">
        <ele>699</ele>
        <time>2023-04-10T09:19:16Z</time>
      </trkpt>
      <trkpt lat="45.42961" lon="5.70141">
        <ele>699</ele>
        <time>2023-04-10T09:19:17Z</time>
      </trkpt>
      <trkpt lat="45.42963" lon="5.7014">
        <ele>699</ele>
        <time>2023-04-10T09:19:18Z</time>
      </trkpt>
      <trkpt lat="45.42965" lon="5.70139">
        <ele>699</ele>
        <time>2023-04-10T09:19:19Z</time>
      </trkpt>
      <trkpt lat="45.42967" lon="5.70139">
        <ele>700</ele>
        <time>2023-04-10T09:19:20Z</time>
      </trkpt>
      <trkpt lat="45.42969" lon="5.70138">
        <ele>700</ele>
        <time>2023-04-10T09:19:21Z</time>
      </trkpt>
      <trkpt lat="45.42971" lon="5.70137">
        <ele>700</ele>
        <time>2023-04-10T09:19:22Z</time>
      </trkpt>
      <trkpt lat="45.42973" lon="5.70137">
        <ele>701</ele>
        <time>2023-04-10T09:19:23Z</time>
      </trkpt>
      <trkpt lat="45.42976" lon="5.70135">
        <ele>702</ele>
        <time>2023-04-10T09:19:25Z</time>
      </trkpt>
      <trkpt lat="45.42978" lon="5.70134">
        <ele>702</ele>
        <time>2023-04-10T09:19:26Z</time>
      </trkpt>
      <trkpt lat="45.4298" lon="5.70133">
        <ele>702</ele>
        <time>2023-04-10T09:19:27Z</time>
      </trkpt>
      <trkpt lat="45.42982" lon="5.70132">
        <ele>702</ele>
        <time>2023-04-10T09:19:28Z</time>
      </trkpt>
      <trkpt lat="45.42983" lon="5.70132">
        <ele>703</ele>
        <time>2023-04-10T09:19:29Z</time>
      </trkpt>
      <trkpt lat="45.42987" lon="5.70129">
        <ele>703</ele>
        <time>2023-04-10T09:19:31Z</time>
      </trkpt>
      <trkpt lat="45.42989" lon="5.70128">
        <ele>704</ele>
        <time>2023-04-10T09:19:32Z</time>
      </trkpt>
      <trkpt lat="45.42991" lon="5.70127">
        <ele>704</ele>
        <time>2023-04-10T09:19:33Z</time>
      </trkpt>
      <trkpt lat="45.42993" lon="5.70126">
        <ele>704</ele>
        <time>2023-04-10T09:19:34Z</time>
      </trkpt>
      <trkpt lat="45.42996" lon="5.70126">
        <ele>704</ele>
        <time>2023-04-10T09:19:35Z</time>
      </trkpt>
      <trkpt lat="45.42998" lon="5.70125">
        <ele>704</ele>
        <time>2023-04-10T09:19:36Z</time>
      </trkpt>
      <trkpt lat="45.43" lon="5.70125">
        <ele>704</ele>
        <time>2023-04-10T09:19:37Z</time>
      </trkpt>
      <trkpt lat="45.43002" lon="5.70124">
        <ele>705</ele>
        <time>2023-04-10T09:19:38Z</time>
      </trkpt>
      <trkpt lat="45.43005" lon="5.70124">
        <ele>705</ele>
        <time>2023-04-10T09:19:39Z</time>
      </trkpt>
      <trkpt lat="45.43007" lon="5.70124">
        <ele>705</ele>
        <time>2023-04-10T09:19:40Z</time>
      </trkpt>
      <trkpt lat="45.43009" lon="5.70123">
        <ele>705</ele>
        <time>2023-04-10T09:19:41Z</time>
      </trkpt>
      <trkpt lat="45.43011" lon="5.70123">
        <ele>706</ele>
        <time>2023-04-10T09:19:42Z</time>
      </trkpt>
      <trkpt lat="45.43013" lon="5.70123">
        <ele>706</ele>
        <time>2023-04-10T09:19:43Z</time>
      </trkpt>
      <trkpt lat="45.43015" lon="5.70123">
        <ele>706</ele>
        <time>2023-04-10T09:19:44Z</time>
      </trkpt>
      <trkpt lat="45.43017" lon="5.70122">
        <ele>706</ele>
        <time>2023-04-10T09:19:45Z</time>
      </trkpt>
      <trkpt lat="45.43019" lon="5.70122">
        <ele>707</ele>
        <time>2023-04-10T09:19:46Z</time>
      </trkpt>
      <trkpt lat="45.43022" lon="5.70122">
        <ele>707</ele>
        <time>2023-04-10T09:19:47Z</time>
      </trkpt>
      <trkpt lat="45.43024" lon="5.70121">
        <ele>707</ele>
        <time>2023-04-10T09:19:48Z</time>
      </trkpt>
      <trkpt lat="45.43026" lon="5.70121">
        <ele>708</ele>
        <time>2023-04-10T09:19:49Z</time>
      </trkpt>
      <trkpt lat="45.43028" lon="5.70121">
        <ele>708</ele>
        <time>2023-04-10T09:19:50Z</time>
      </trkpt>
      <trkpt lat="45.43031" lon="5.7012">
        <ele>708</ele>
        <time>2023-04-10T09:19:51Z</time>
      </trkpt>
      <trkpt lat="45.43033" lon="5.7012">
        <ele>708</ele>
        <time>2023-04-10T09:19:52Z</time>
      </trkpt>
      <trkpt lat="45.43035" lon="5.7012">
        <ele>709</ele>
        <time>2023-04-10T09:19:53Z</time>
      </trkpt>
      <trkpt lat="45.43038" lon="5.70121">
        <ele>709</ele>
        <time>2023-04-10T09:19:54Z</time>
      </trkpt>
      <trkpt lat="45.4304" lon="5.70121">
        <ele>709</ele>
        <time>2023-04-10T09:19:55Z</time>
      </trkpt>
      <trkpt lat="45.43043" lon="5.70121">
        <ele>709</ele>
        <time>2023-04-10T09:19:56Z</time>
      </trkpt>
      <trkpt lat="45.43046" lon="5.70121">
        <ele>709</ele>
        <time>2023-04-10T09:19:57Z</time>
      </trkpt>
      <trkpt lat="45.43049" lon="5.70122">
        <ele>710</ele>
        <time>2023-04-10T09:19:58Z</time>
      </trkpt>
      <trkpt lat="45.43052" lon="5.70122">
        <ele>710</ele>
        <time>2023-04-10T09:19:59Z</time>
      </trkpt>
      <trkpt lat="45.43055" lon="5.70122">
        <ele>710</ele>
        <time>2023-04-10T09:20:00Z</time>
      </trkpt>
      <trkpt lat="45.43059" lon="5.70122">
        <ele>710</ele>
        <time>2023-04-10T09:20:01Z</time>
      </trkpt>
      <trkpt lat="45.43062" lon="5.70121">
        <ele>710</ele>
        <time>2023-04-10T09:20:02Z</time>
      </trkpt>
      <trkpt lat="45.43065" lon="5.70121">
        <ele>710</ele>
        <time>2023-04-10T09:20:03Z</time>
      </trkpt>
      <trkpt lat="45.43068" lon="5.7012">
        <ele>710</ele>
        <time>2023-04-10T09:20:04Z</time>
      </trkpt>
      <trkpt lat="45.43071" lon="5.7012">
        <ele>710</ele>
        <time>2023-04-10T09:20:05Z</time>
      </trkpt>
      <trkpt lat="45.43074" lon="5.70118">
        <ele>710</ele>
        <time>2023-04-10T09:20:06Z</time>
      </trkpt>
      <trkpt lat="45.43077" lon="5.70117">
        <ele>710</ele>
        <time>2023-04-10T09:20:07Z</time>
      </trkpt>
      <trkpt lat="45.43079" lon="5.70116">
        <ele>710</ele>
        <time>2023-04-10T09:20:08Z</time>
      </trkpt>
      <trkpt lat="45.43082" lon="5.70115">
        <ele>710</ele>
        <time>2023-04-10T09:20:09Z</time>
      </trkpt>
      <trkpt lat="45.43084" lon="5.70114">
        <ele>710</ele>
        <time>2023-04-10T09:20:10Z</time>
      </trkpt>
      <trkpt lat="45.43087" lon="5.70112">
        <ele>710</ele>
        <time>2023-04-10T09:20:11Z</time>
      </trkpt>
      <trkpt lat="45.4309" lon="5.70111">
        <ele>710</ele>
        <time>2023-04-10T09:20:12Z</time>
      </trkpt>
      <trkpt lat="45.43093" lon="5.70109">
        <ele>710</ele>
        <time>2023-04-10T09:20:13Z</time>
      </trkpt>
      <trkpt lat="45.43095" lon="5.70108">
        <ele>710</ele>
        <time>2023-04-10T09:20:14Z</time>
      </trkpt>
      <trkpt lat="45.43097" lon="5.70107">
        <ele>711</ele>
        <time>2023-04-10T09:20:15Z</time>
      </trkpt>
      <trkpt lat="45.43099" lon="5.70106">
        <ele>711</ele>
        <time>2023-04-10T09:20:16Z</time>
      </trkpt>
      <trkpt lat="45.43102" lon="5.70104">
        <ele>711</ele>
        <time>2023-04-10T09:20:17Z</time>
      </trkpt>
      <trkpt lat="45.43104" lon="5.70102">
        <ele>711</ele>
        <time>2023-04-10T09:20:18Z</time>
      </trkpt>
      <trkpt lat="45.43106" lon="5.70101">
        <ele>712</ele>
        <time>2023-04-10T09:20:19Z</time>
      </trkpt>
      <trkpt lat="45.43108" lon="5.70099">
        <ele>712</ele>
        <time>2023-04-10T09:20:20Z</time>
      </trkpt>
      <trkpt lat="45.4311" lon="5.70098">
        <ele>713</ele>
        <time>2023-04-10T09:20:21Z</time>
      </trkpt>
      <trkpt lat="45.43112" lon="5.70096">
        <ele>713</ele>
        <time>2023-04-10T09:20:22Z</time>
      </trkpt>
      <trkpt lat="45.43114" lon="5.70095">
        <ele>713</ele>
        <time>2023-04-10T09:20:23Z</time>
      </trkpt>
      <trkpt lat="45.43116" lon="5.70094">
        <ele>713</ele>
        <time>2023-04-10T09:20:24Z</time>
      </trkpt>
      <trkpt lat="45.43118" lon="5.70093">
        <ele>713</ele>
        <time>2023-04-10T09:20:25Z</time>
      </trkpt>
      <trkpt lat="45.43121" lon="5.70092">
        <ele>713</ele>
        <time>2023-04-10T09:20:26Z</time>
      </trkpt>
      <trkpt lat="45.43123" lon="5.70091">
        <ele>713</ele>
        <time>2023-04-10T09:20:27Z</time>
      </trkpt>
      <trkpt lat="45.43125" lon="5.7009">
        <ele>714</ele>
        <time>2023-04-10T09:20:28Z</time>
      </trkpt>
      <trkpt lat="45.43127" lon="5.70089">
        <ele>714</ele>
        <time>2023-04-10T09:20:29Z</time>
      </trkpt>
      <trkpt lat="45.43129" lon="5.70089">
        <ele>714</ele>
        <time>2023-04-10T09:20:30Z</time>
      </trkpt>
      <trkpt lat="45.43131" lon="5.70088">
        <ele>715</ele>
        <time>2023-04-10T09:20:31Z</time>
      </trkpt>
      <trkpt lat="45.43133" lon="5.70087">
        <ele>715</ele>
        <time>2023-04-10T09:20:32Z</time>
      </trkpt>
      <trkpt lat="45.43135" lon="5.70087">
        <ele>715</ele>
        <time>2023-04-10T09:20:33Z</time>
      </trkpt>
      <trkpt lat="45.43137" lon="5.70087">
        <ele>715</ele>
        <time>2023-04-10T09:20:34Z</time>
      </trkpt>
      <trkpt lat="45.4314" lon="5.70087">
        <ele>715</ele>
        <time>2023-04-10T09:20:35Z</time>
      </trkpt>
      <trkpt lat="45.43143" lon="5.70087">
        <ele>715</ele>
        <time>2023-04-10T09:20:36Z</time>
      </trkpt>
      <trkpt lat="45.43146" lon="5.70086">
        <ele>716</ele>
        <time>2023-04-10T09:20:37Z</time>
      </trkpt>
      <trkpt lat="45.43149" lon="5.70086">
        <ele>717</ele>
        <time>2023-04-10T09:20:38Z</time>
      </trkpt>
      <trkpt lat="45.43151" lon="5.70086">
        <ele>717</ele>
        <time>2023-04-10T09:20:39Z</time>
      </trkpt>
      <trkpt lat="45.43153" lon="5.70086">
        <ele>717</ele>
        <time>2023-04-10T09:20:40Z</time>
      </trkpt>
      <trkpt lat="45.43156" lon="5.70086">
        <ele>717</ele>
        <time>2023-04-10T09:20:41Z</time>
      </trkpt>
      <trkpt lat="45.43158" lon="5.70086">
        <ele>717</ele>
        <time>2023-04-10T09:20:42Z</time>
      </trkpt>
      <trkpt lat="45.43161" lon="5.70086">
        <ele>718</ele>
        <time>2023-04-10T09:20:43Z</time>
      </trkpt>
      <trkpt lat="45.43164" lon="5.70086">
        <ele>718</ele>
        <time>2023-04-10T09:20:44Z</time>
      </trkpt>
      <trkpt lat="45.43166" lon="5.70086">
        <ele>718</ele>
        <time>2023-04-10T09:20:45Z</time>
      </trkpt>
      <trkpt lat="45.43169" lon="5.70086">
        <ele>718</ele>
        <time>2023-04-10T09:20:46Z</time>
      </trkpt>
      <trkpt lat="45.43172" lon="5.70087">
        <ele>718</ele>
        <time>2023-04-10T09:20:47Z</time>
      </trkpt>
      <trkpt lat="45.43175" lon="5.70087">
        <ele>718</ele>
        <time>2023-04-10T09:20:48Z</time>
      </trkpt>
      <trkpt lat="45.43178" lon="5.70088">
        <ele>718</ele>
        <time>2023-04-10T09:20:49Z</time>
      </trkpt>
      <trkpt lat="45.43182" lon="5.70089">
        <ele>718</ele>
        <time>2023-04-10T09:20:50Z</time>
      </trkpt>
      <trkpt lat="45.43185" lon="5.7009">
        <ele>719</ele>
        <time>2023-04-10T09:20:51Z</time>
      </trkpt>
      <trkpt lat="45.43188" lon="5.70091">
        <ele>719</ele>
        <time>2023-04-10T09:20:52Z</time>
      </trkpt>
      <trkpt lat="45.43191" lon="5.70093">
        <ele>719</ele>
        <time>2023-04-10T09:20:53Z</time>
      </trkpt>
      <trkpt lat="45.43195" lon="5.70095">
        <ele>719</ele>
        <time>2023-04-10T09:20:54Z</time>
      </trkpt>
      <trkpt lat="45.43199" lon="5.70097">
        <ele>719</ele>
        <time>2023-04-10T09:20:55Z</time>
      </trkpt>
      <trkpt lat="45.43202" lon="5.70099">
        <ele>719</ele>
        <time>2023-04-10T09:20:56Z</time>
      </trkpt>
      <trkpt lat="45.43206" lon="5.70101">
        <ele>719</ele>
        <time>2023-04-10T09:20:57Z</time>
      </trkpt>
      <trkpt lat="45.4321" lon="5.70103">
        <ele>719</ele>
        <time>2023-04-10T09:20:58Z</time>
      </trkpt>
      <trkpt lat="45.43213" lon="5.70104">
        <ele>719</ele>
        <time>2023-04-10T09:20:59Z</time>
      </trkpt>
      <trkpt lat="45.43217" lon="5.70105">
        <ele>719</ele>
        <time>2023-04-10T09:21:00Z</time>
      </trkpt>
      <trkpt lat="45.4322" lon="5.70105">
        <ele>719</ele>
        <time>2023-04-10T09:21:01Z</time>
      </trkpt>
      <trkpt lat="45.43223" lon="5.70106">
        <ele>719</ele>
        <time>2023-04-10T09:21:02Z</time>
      </trkpt>
      <trkpt lat="45.43226" lon="5.70106">
        <ele>719</ele>
        <time>2023-04-10T09:21:03Z</time>
      </trkpt>
      <trkpt lat="45.43229" lon="5.70106">
        <ele>720</ele>
        <time>2023-04-10T09:21:04Z</time>
      </trkpt>
      <trkpt lat="45.43232" lon="5.70107">
        <ele>720</ele>
        <time>2023-04-10T09:21:05Z</time>
      </trkpt>
      <trkpt lat="45.43235" lon="5.70107">
        <ele>720</ele>
        <time>2023-04-10T09:21:06Z</time>
      </trkpt>
      <trkpt lat="45.43238" lon="5.70107">
        <ele>720</ele>
        <time>2023-04-10T09:21:07Z</time>
      </trkpt>
      <trkpt lat="45.43241" lon="5.70107">
        <ele>721</ele>
        <time>2023-04-10T09:21:08Z</time>
      </trkpt>
      <trkpt lat="45.43245" lon="5.70108">
        <ele>721</ele>
        <time>2023-04-10T09:21:09Z</time>
      </trkpt>
      <trkpt lat="45.43248" lon="5.70108">
        <ele>721</ele>
        <time>2023-04-10T09:21:10Z</time>
      </trkpt>
      <trkpt lat="45.43251" lon="5.70108">
        <ele>721</ele>
        <time>2023-04-10T09:21:11Z</time>
      </trkpt>
      <trkpt lat="45.43254" lon="5.70107">
        <ele>721</ele>
        <time>2023-04-10T09:21:12Z</time>
      </trkpt>
      <trkpt lat="45.43257" lon="5.70105">
        <ele>721</ele>
        <time>2023-04-10T09:21:13Z</time>
      </trkpt>
      <trkpt lat="45.43259" lon="5.70103">
        <ele>722</ele>
        <time>2023-04-10T09:21:14Z</time>
      </trkpt>
      <trkpt lat="45.43261" lon="5.701">
        <ele>722</ele>
        <time>2023-04-10T09:21:15Z</time>
      </trkpt>
      <trkpt lat="45.43263" lon="5.70096">
        <ele>722</ele>
        <time>2023-04-10T09:21:16Z</time>
      </trkpt>
      <trkpt lat="45.43265" lon="5.70093">
        <ele>722</ele>
        <time>2023-04-10T09:21:17Z</time>
      </trkpt>
      <trkpt lat="45.43266" lon="5.7009">
        <ele>722</ele>
        <time>2023-04-10T09:21:18Z</time>
      </trkpt>
      <trkpt lat="45.43267" lon="5.70088">
        <ele>722</ele>
        <time>2023-04-10T09:21:19Z</time>
      </trkpt>
      <trkpt lat="45.43268" lon="5.70085">
        <ele>722</ele>
        <time>2023-04-10T09:21:20Z</time>
      </trkpt>
      <trkpt lat="45.43269" lon="5.70083">
        <ele>722</ele>
        <time>2023-04-10T09:21:21Z</time>
      </trkpt>
      <trkpt lat="45.4327" lon="5.7008">
        <ele>722</ele>
        <time>2023-04-10T09:21:22Z</time>
      </trkpt>
      <trkpt lat="45.43271" lon="5.70076">
        <ele>722</ele>
        <time>2023-04-10T09:21:23Z</time>
      </trkpt>
      <trkpt lat="45.43272" lon="5.70073">
        <ele>722</ele>
        <time>2023-04-10T09:21:24Z</time>
      </trkpt>
      <trkpt lat="45.43273" lon="5.7007">
        <ele>722</ele>
        <time>2023-04-10T09:21:25Z</time>
      </trkpt>
      <trkpt lat="45.43273" lon="5.70066">
        <ele>723</ele>
        <time>2023-04-10T09:21:26Z</time>
      </trkpt>
      <trkpt lat="45.43273" lon="5.70062">
        <ele>723</ele>
        <time>2023-04-10T09:21:27Z</time>
      </trkpt>
      <trkpt lat="45.43273" lon="5.70058">
        <ele>723</ele>
        <time>2023-04-10T09:21:28Z</time>
      </trkpt>
      <trkpt lat="45.43273" lon="5.70054">
        <ele>724</ele>
        <time>2023-04-10T09:21:29Z</time>
      </trkpt>
      <trkpt lat="45.43274" lon="5.70051">
        <ele>724</ele>
        <time>2023-04-10T09:21:30Z</time>
      </trkpt>
      <trkpt lat="45.43274" lon="5.70047">
        <ele>724</ele>
        <time>2023-04-10T09:21:31Z</time>
      </trkpt>
      <trkpt lat="45.43274" lon="5.70044">
        <ele>725</ele>
        <time>2023-04-10T09:21:32Z</time>
      </trkpt>
      <trkpt lat="45.43274" lon="5.70041">
        <ele>725</ele>
        <time>2023-04-10T09:21:33Z</time>
      </trkpt>
      <trkpt lat="45.43273" lon="5.70036">
        <ele>725</ele>
        <time>2023-04-10T09:21:35Z</time>
      </trkpt>
      <trkpt lat="45.43273" lon="5.70032">
        <ele>726</ele>
        <time>2023-04-10T09:21:36Z</time>
      </trkpt>
      <trkpt lat="45.43272" lon="5.7003">
        <ele>726</ele>
        <time>2023-04-10T09:21:37Z</time>
      </trkpt>
      <trkpt lat="45.43271" lon="5.70027">
        <ele>726</ele>
        <time>2023-04-10T09:21:38Z</time>
      </trkpt>
      <trkpt lat="45.4327" lon="5.70024">
        <ele>726</ele>
        <time>2023-04-10T09:21:39Z</time>
      </trkpt>
      <trkpt lat="45.43269" lon="5.70022">
        <ele>726</ele>
        <time>2023-04-10T09:21:40Z</time>
      </trkpt>
      <trkpt lat="45.43268" lon="5.70019">
        <ele>726</ele>
        <time>2023-04-10T09:21:41Z</time>
      </trkpt>
      <trkpt lat="45.43268" lon="5.70016">
        <ele>727</ele>
        <time>2023-04-10T09:21:42Z</time>
      </trkpt>
      <trkpt lat="45.43267" lon="5.70013">
        <ele>727</ele>
        <time>2023-04-10T09:21:43Z</time>
      </trkpt>
      <trkpt lat="45.43266" lon="5.7001">
        <ele>728</ele>
        <time>2023-04-10T09:21:44Z</time>
      </trkpt>
      <trkpt lat="45.43265" lon="5.70007">
        <ele>728</ele>
        <time>2023-04-10T09:21:45Z</time>
      </trkpt>
      <trkpt lat="45.43265" lon="5.70004">
        <ele>729</ele>
        <time>2023-04-10T09:21:46Z</time>
      </trkpt>
      <trkpt lat="45.43265" lon="5.70001">
        <ele>729</ele>
        <time>2023-04-10T09:21:47Z</time>
      </trkpt>
      <trkpt lat="45.43264" lon="5.69997">
        <ele>729</ele>
        <time>2023-04-10T09:21:49Z</time>
      </trkpt>
      <trkpt lat="45.43264" lon="5.69993">
        <ele>729</ele>
        <time>2023-04-10T09:21:51Z</time>
      </trkpt>
      <trkpt lat="45.43265" lon="5.69989">
        <ele>731</ele>
        <time>2023-04-10T09:21:53Z</time>
      </trkpt>
      <trkpt lat="45.43265" lon="5.69985">
        <ele>731</ele>
        <time>2023-04-10T09:21:55Z</time>
      </trkpt>
      <trkpt lat="45.43266" lon="5.69979">
        <ele>731</ele>
        <time>2023-04-10T09:21:57Z</time>
      </trkpt>
      <trkpt lat="45.43266" lon="5.69977">
        <ele>731</ele>
        <time>2023-04-10T09:21:58Z</time>
      </trkpt>
      <trkpt lat="45.43267" lon="5.69974">
        <ele>731</ele>
        <time>2023-04-10T09:21:59Z</time>
      </trkpt>
      <trkpt lat="45.43267" lon="5.69971">
        <ele>731</ele>
        <time>2023-04-10T09:22:00Z</time>
      </trkpt>
      <trkpt lat="45.43267" lon="5.69968">
        <ele>731</ele>
        <time>2023-04-10T09:22:01Z</time>
      </trkpt>
      <trkpt lat="45.43269" lon="5.69964">
        <ele>731</ele>
        <time>2023-04-10T09:22:03Z</time>
      </trkpt>
      <trkpt lat="45.4327" lon="5.69961">
        <ele>732</ele>
        <time>2023-04-10T09:22:05Z</time>
      </trkpt>
      <trkpt lat="45.43271" lon="5.69957">
        <ele>732</ele>
        <time>2023-04-10T09:22:07Z</time>
      </trkpt>
      <trkpt lat="45.43272" lon="5.69953">
        <ele>733</ele>
        <time>2023-04-10T09:22:09Z</time>
      </trkpt>
      <trkpt lat="45.43273" lon="5.69948">
        <ele>733</ele>
        <time>2023-04-10T09:22:11Z</time>
      </trkpt>
      <trkpt lat="45.43274" lon="5.69945">
        <ele>734</ele>
        <time>2023-04-10T09:22:13Z</time>
      </trkpt>
      <trkpt lat="45.43274" lon="5.69941">
        <ele>734</ele>
        <time>2023-04-10T09:22:15Z</time>
      </trkpt>
      <trkpt lat="45.43275" lon="5.69938">
        <ele>735</ele>
        <time>2023-04-10T09:22:17Z</time>
      </trkpt>
      <trkpt lat="45.43275" lon="5.69933">
        <ele>735</ele>
        <time>2023-04-10T09:22:19Z</time>
      </trkpt>
      <trkpt lat="45.43275" lon="5.69929">
        <ele>735</ele>
        <time>2023-04-10T09:22:21Z</time>
      </trkpt>
      <trkpt lat="45.43275" lon="5.69925">
        <ele>736</ele>
        <time>2023-04-10T09:22:23Z</time>
      </trkpt>
      <trkpt lat="45.43275" lon="5.6992">
        <ele>737</ele>
        <time>2023-04-10T09:22:25Z</time>
      </trkpt>
      <trkpt lat="45.43275" lon="5.69916">
        <ele>737</ele>
        <time>2023-04-10T09:22:27Z</time>
      </trkpt>
      <trkpt lat="45.43275" lon="5.69912">
        <ele>738</ele>
        <time>2023-04-10T09:22:29Z</time>
      </trkpt>
      <trkpt lat="45.43276" lon="5.69908">
        <ele>738</ele>
        <time>2023-04-10T09:22:31Z</time>
      </trkpt>
      <trkpt lat="45.43276" lon="5.69903">
        <ele>740</ele>
        <time>2023-04-10T09:22:33Z</time>
      </trkpt>
      <trkpt lat="45.43276" lon="5.699">
        <ele>740</ele>
        <time>2023-04-10T09:22:35Z</time>
      </trkpt>
      <trkpt lat="45.43277" lon="5.69896">
        <ele>740</ele>
        <time>2023-04-10T09:22:37Z</time>
      </trkpt>
      <trkpt lat="45.43277" lon="5.69891">
        <ele>741</ele>
        <time>2023-04-10T09:22:39Z</time>
      </trkpt>
      <trkpt lat="45.43277" lon="5.69888">
        <ele>742</ele>
        <time>2023-04-10T09:22:41Z</time>
      </trkpt>
      <trkpt lat="45.43277" lon="5.69885">
        <ele>742</ele>
        <time>2023-04-10T09:22:43Z</time>
      </trkpt>
      <trkpt lat="45.43277" lon="5.6988">
        <ele>743</ele>
        <time>2023-04-10T09:22:45Z</time>
      </trkpt>
      <trkpt lat="45.43277" lon="5.69877">
        <ele>743</ele>
        <time>2023-04-10T09:22:47Z</time>
      </trkpt>
      <trkpt lat="45.43277" lon="5.69874">
        <ele>744</ele>
        <time>2023-04-10T09:22:49Z</time>
      </trkpt>
      <trkpt lat="45.43277" lon="5.69871">
        <ele>744</ele>
        <time>2023-04-10T09:22:51Z</time>
      </trkpt>
      <trkpt lat="45.43279" lon="5.69869">
        <ele>745</ele>
        <time>2023-04-10T09:22:53Z</time>
      </trkpt>
      <trkpt lat="45.4328" lon="5.69866">
        <ele>745</ele>
        <time>2023-04-10T09:22:55Z</time>
      </trkpt>
      <trkpt lat="45.43281" lon="5.69862">
        <ele>746</ele>
        <time>2023-04-10T09:22:57Z</time>
      </trkpt>
      <trkpt lat="45.43281" lon="5.69859">
        <ele>746</ele>
        <time>2023-04-10T09:22:59Z</time>
      </trkpt>
      <trkpt lat="45.4328" lon="5.69856">
        <ele>747</ele>
        <time>2023-04-10T09:23:01Z</time>
      </trkpt>
      <trkpt lat="45.4328" lon="5.69853">
        <ele>748</ele>
        <time>2023-04-10T09:23:02Z</time>
      </trkpt>
      <trkpt lat="45.4328" lon="5.6985">
        <ele>748</ele>
        <time>2023-04-10T09:23:04Z</time>
      </trkpt>
      <trkpt lat="45.43279" lon="5.69847">
        <ele>749</ele>
        <time>2023-04-10T09:23:07Z</time>
      </trkpt>
      <trkpt lat="45.4328" lon="5.69843">
        <ele>749</ele>
        <time>2023-04-10T09:23:09Z</time>
      </trkpt>
      <trkpt lat="45.43281" lon="5.69839">
        <ele>750</ele>
        <time>2023-04-10T09:23:11Z</time>
      </trkpt>
      <trkpt lat="45.43282" lon="5.69836">
        <ele>750</ele>
        <time>2023-04-10T09:23:13Z</time>
      </trkpt>
      <trkpt lat="45.4328" lon="5.69833">
        <ele>750</ele>
        <time>2023-04-10T09:23:16Z</time>
      </trkpt>
      <trkpt lat="45.43279" lon="5.6983">
        <ele>750</ele>
        <time>2023-04-10T09:23:18Z</time>
      </trkpt>
      <trkpt lat="45.43277" lon="5.69826">
        <ele>751</ele>
        <time>2023-04-10T09:23:20Z</time>
      </trkpt>
      <trkpt lat="45.43275" lon="5.69824">
        <ele>751</ele>
        <time>2023-04-10T09:23:21Z</time>
      </trkpt>
      <trkpt lat="45.43274" lon="5.69821">
        <ele>751</ele>
        <time>2023-04-10T09:23:22Z</time>
      </trkpt>
      <trkpt lat="45.43272" lon="5.69819">
        <ele>751</ele>
        <time>2023-04-10T09:23:23Z</time>
      </trkpt>
      <trkpt lat="45.43271" lon="5.69817">
        <ele>751</ele>
        <time>2023-04-10T09:23:24Z</time>
      </trkpt>
      <trkpt lat="45.4327" lon="5.69815">
        <ele>751</ele>
        <time>2023-04-10T09:23:25Z</time>
      </trkpt>
      <trkpt lat="45.43269" lon="5.69812">
        <ele>751</ele>
        <time>2023-04-10T09:23:26Z</time>
      </trkpt>
      <trkpt lat="45.43268" lon="5.6981">
        <ele>751</ele>
        <time>2023-04-10T09:23:27Z</time>
      </trkpt>
      <trkpt lat="45.43267" lon="5.69805">
        <ele>752</ele>
        <time>2023-04-10T09:23:29Z</time>
      </trkpt>
      <trkpt lat="45.43265" lon="5.69801">
        <ele>752</ele>
        <time>2023-04-10T09:23:31Z</time>
      </trkpt>
      <trkpt lat="45.43264" lon="5.69798">
        <ele>752</ele>
        <time>2023-04-10T09:23:32Z</time>
      </trkpt>
      <trkpt lat="45.43263" lon="5.69795">
        <ele>753</ele>
        <time>2023-04-10T09:23:33Z</time>
      </trkpt>
      <trkpt lat="45.43262" lon="5.69792">
        <ele>753</ele>
        <time>2023-04-10T09:23:34Z</time>
      </trkpt>
      <trkpt lat="45.43262" lon="5.6979">
        <ele>753</ele>
        <time>2023-04-10T09:23:35Z</time>
      </trkpt>
      <trkpt lat="45.43261" lon="5.69786">
        <ele>753</ele>
        <time>2023-04-10T09:23:36Z</time>
      </trkpt>
      <trkpt lat="45.4326" lon="5.69783">
        <ele>753</ele>
        <time>2023-04-10T09:23:37Z</time>
      </trkpt>
      <trkpt lat="45.43259" lon="5.6978">
        <ele>754</ele>
        <time>2023-04-10T09:23:38Z</time>
      </trkpt>
      <trkpt lat="45.43257" lon="5.69778">
        <ele>754</ele>
        <time>2023-04-10T09:23:39Z</time>
      </trkpt>
      <trkpt lat="45.43256" lon="5.69775">
        <ele>754</ele>
        <time>2023-04-10T09:23:40Z</time>
      </trkpt>
      <trkpt lat="45.43254" lon="5.69774">
        <ele>755</ele>
        <time>2023-04-10T09:23:41Z</time>
      </trkpt>
      <trkpt lat="45.43253" lon="5.69771">
        <ele>755</ele>
        <time>2023-04-10T09:23:42Z</time>
      </trkpt>
      <trkpt lat="45.43252" lon="5.69768">
        <ele>755</ele>
        <time>2023-04-10T09:23:43Z</time>
      </trkpt>
      <trkpt lat="45.43251" lon="5.69765">
        <ele>755</ele>
        <time>2023-04-10T09:23:44Z</time>
      </trkpt>
      <trkpt lat="45.4325" lon="5.69763">
        <ele>755</ele>
        <time>2023-04-10T09:23:45Z</time>
      </trkpt>
      <trkpt lat="45.43248" lon="5.69759">
        <ele>756</ele>
        <time>2023-04-10T09:23:47Z</time>
      </trkpt>
      <trkpt lat="45.43247" lon="5.69755">
        <ele>756</ele>
        <time>2023-04-10T09:23:49Z</time>
      </trkpt>
      <trkpt lat="45.43247" lon="5.69752">
        <ele>756</ele>
        <time>2023-04-10T09:23:50Z</time>
      </trkpt>
      <trkpt lat="45.43245" lon="5.69749">
        <ele>756</ele>
        <time>2023-04-10T09:23:52Z</time>
      </trkpt>
      <trkpt lat="45.43244" lon="5.69745">
        <ele>757</ele>
        <time>2023-04-10T09:23:54Z</time>
      </trkpt>
      <trkpt lat="45.43243" lon="5.69742">
        <ele>758</ele>
        <time>2023-04-10T09:23:56Z</time>
      </trkpt>
      <trkpt lat="45.43242" lon="5.69739">
        <ele>758</ele>
        <time>2023-04-10T09:23:58Z</time>
      </trkpt>
      <trkpt lat="45.43241" lon="5.69736">
        <ele>758</ele>
        <time>2023-04-10T09:24:00Z</time>
      </trkpt>
      <trkpt lat="45.4324" lon="5.69732">
        <ele>759</ele>
        <time>2023-04-10T09:24:02Z</time>
      </trkpt>
      <trkpt lat="45.43239" lon="5.6973">
        <ele>759</ele>
        <time>2023-04-10T09:24:04Z</time>
      </trkpt>
      <trkpt lat="45.43237" lon="5.69728">
        <ele>760</ele>
        <time>2023-04-10T09:24:06Z</time>
      </trkpt>
      <trkpt lat="45.43236" lon="5.69726">
        <ele>761</ele>
        <time>2023-04-10T09:24:09Z</time>
      </trkpt>
      <trkpt lat="45.43234" lon="5.69723">
        <ele>762</ele>
        <time>2023-04-10T09:24:11Z</time>
      </trkpt>
      <trkpt lat="45.43231" lon="5.69721">
        <ele>762</ele>
        <time>2023-04-10T09:24:13Z</time>
      </trkpt>
      <trkpt lat="45.43228" lon="5.69719">
        <ele>763</ele>
        <time>2023-04-10T09:24:15Z</time>
      </trkpt>
      <trkpt lat="45.43225" lon="5.69717">
        <ele>763</ele>
        <time>2023-04-10T09:24:17Z</time>
      </trkpt>
      <trkpt lat="45.43223" lon="5.69716">
        <ele>763</ele>
        <time>2023-04-10T09:24:18Z</time>
      </trkpt>
      <trkpt lat="45.43221" lon="5.69715">
        <ele>763</ele>
        <time>2023-04-10T09:24:19Z</time>
      </trkpt>
      <trkpt lat="45.43218" lon="5.69714">
        <ele>763</ele>
        <time>2023-04-10T09:24:20Z</time>
      </trkpt>
      <trkpt lat="45.43215" lon="5.69712">
        <ele>763</ele>
        <time>2023-04-10T09:24:21Z</time>
      </trkpt>
      <trkpt lat="45.43212" lon="5.6971">
        <ele>763</ele>
        <time>2023-04-10T09:24:22Z</time>
      </trkpt>
      <trkpt lat="45.43209" lon="5.69709">
        <ele>763</ele>
        <time>2023-04-10T09:24:23Z</time>
      </trkpt>
      <trkpt lat="45.43206" lon="5.69707">
        <ele>763</ele>
        <time>2023-04-10T09:24:24Z</time>
      </trkpt>
      <trkpt lat="45.43203" lon="5.69705">
        <ele>763</ele>
        <time>2023-04-10T09:24:25Z</time>
      </trkpt>
      <trkpt lat="45.432" lon="5.69703">
        <ele>763</ele>
        <time>2023-04-10T09:24:26Z</time>
      </trkpt>
      <trkpt lat="45.43196" lon="5.69701">
        <ele>763</ele>
        <time>2023-04-10T09:24:27Z</time>
      </trkpt>
      <trkpt lat="45.43193" lon="5.69699">
        <ele>763</ele>
        <time>2023-04-10T09:24:28Z</time>
      </trkpt>
      <trkpt lat="45.43189" lon="5.69697">
        <ele>763</ele>
        <time>2023-04-10T09:24:29Z</time>
      </trkpt>
      <trkpt lat="45.43185" lon="5.69695">
        <ele>763</ele>
        <time>2023-04-10T09:24:30Z</time>
      </trkpt>
      <trkpt lat="45.43182" lon="5.69693">
        <ele>763</ele>
        <time>2023-04-10T09:24:31Z</time>
      </trkpt>
      <trkpt lat="45.43178" lon="5.69691">
        <ele>763</ele>
        <time>2023-04-10T09:24:32Z</time>
      </trkpt>
      <trkpt lat="45.43174" lon="5.69689">
        <ele>763</ele>
        <time>2023-04-10T09:24:33Z</time>
      </trkpt>
      <trkpt lat="45.4317" lon="5.69688">
        <ele>763</ele>
        <time>2023-04-10T09:24:34Z</time>
      </trkpt>
      <trkpt lat="45.43166" lon="5.69686">
        <ele>763</ele>
        <time>2023-04-10T09:24:35Z</time>
      </trkpt>
      <trkpt lat="45.43163" lon="5.69684">
        <ele>763</ele>
        <time>2023-04-10T09:24:36Z</time>
      </trkpt>
      <trkpt lat="45.4316" lon="5.69681">
        <ele>763</ele>
        <time>2023-04-10T09:24:37Z</time>
      </trkpt>
      <trkpt lat="45.43157" lon="5.69679">
        <ele>764</ele>
        <time>2023-04-10T09:24:38Z</time>
      </trkpt>
      <trkpt lat="45.43155" lon="5.69675">
        <ele>764</ele>
        <time>2023-04-10T09:24:39Z</time>
      </trkpt>
      <trkpt lat="45.43152" lon="5.69672">
        <ele>764</ele>
        <time>2023-04-10T09:24:40Z</time>
      </trkpt>
      <trkpt lat="45.4315" lon="5.69669">
        <ele>764</ele>
        <time>2023-04-10T09:24:41Z</time>
      </trkpt>
      <trkpt lat="45.43147" lon="5.69667">
        <ele>764</ele>
        <time>2023-04-10T09:24:42Z</time>
      </trkpt>
      <trkpt lat="45.43144" lon="5.69664">
        <ele>764</ele>
        <time>2023-04-10T09:24:43Z</time>
      </trkpt>
      <trkpt lat="45.43141" lon="5.69661">
        <ele>764</ele>
        <time>2023-04-10T09:24:44Z</time>
      </trkpt>
      <trkpt lat="45.43138" lon="5.69657">
        <ele>764</ele>
        <time>2023-04-10T09:24:45Z</time>
      </trkpt>
      <trkpt lat="45.43135" lon="5.69654">
        <ele>764</ele>
        <time>2023-04-10T09:24:46Z</time>
      </trkpt>
      <trkpt lat="45.43133" lon="5.6965">
        <ele>764</ele>
        <time>2023-04-10T09:24:47Z</time>
      </trkpt>
      <trkpt lat="45.43131" lon="5.69646">
        <ele>765</ele>
        <time>2023-04-10T09:24:48Z</time>
      </trkpt>
      <trkpt lat="45.43129" lon="5.69643">
        <ele>765</ele>
        <time>2023-04-10T09:24:49Z</time>
      </trkpt>
      <trkpt lat="45.43127" lon="5.69641">
        <ele>765</ele>
        <time>2023-04-10T09:24:50Z</time>
      </trkpt>
      <trkpt lat="45.43126" lon="5.69638">
        <ele>765</ele>
        <time>2023-04-10T09:24:51Z</time>
      </trkpt>
      <trkpt lat="45.43124" lon="5.69636">
        <ele>765</ele>
        <time>2023-04-10T09:24:52Z</time>
      </trkpt>
      <trkpt lat="45.43122" lon="5.69632">
        <ele>766</ele>
        <time>2023-04-10T09:24:54Z</time>
      </trkpt>
      <trkpt lat="45.4312" lon="5.6963">
        <ele>766</ele>
        <time>2023-04-10T09:24:55Z</time>
      </trkpt>
      <trkpt lat="45.43119" lon="5.69627">
        <ele>766</ele>
        <time>2023-04-10T09:24:56Z</time>
      </trkpt>
      <trkpt lat="45.43118" lon="5.69625">
        <ele>767</ele>
        <time>2023-04-10T09:24:57Z</time>
      </trkpt>
      <trkpt lat="45.43116" lon="5.69622">
        <ele>767</ele>
        <time>2023-04-10T09:24:58Z</time>
      </trkpt>
      <trkpt lat="45.43115" lon="5.69618">
        <ele>767</ele>
        <time>2023-04-10T09:24:59Z</time>
      </trkpt>
      <trkpt lat="45.43114" lon="5.69615">
        <ele>767</ele>
        <time>2023-04-10T09:25:00Z</time>
      </trkpt>
      <trkpt lat="45.43112" lon="5.69613">
        <ele>767</ele>
        <time>2023-04-10T09:25:01Z</time>
      </trkpt>
      <trkpt lat="45.43111" lon="5.69611">
        <ele>767</ele>
        <time>2023-04-10T09:25:02Z</time>
      </trkpt>
      <trkpt lat="45.43109" lon="5.6961">
        <ele>767</ele>
        <time>2023-04-10T09:25:03Z</time>
      </trkpt>
      <trkpt lat="45.43107" lon="5.69608">
        <ele>767</ele>
        <time>2023-04-10T09:25:04Z</time>
      </trkpt>
      <trkpt lat="45.43106" lon="5.69606">
        <ele>767</ele>
        <time>2023-04-10T09:25:05Z</time>
      </trkpt>
      <trkpt lat="45.43103" lon="5.69601">
        <ele>768</ele>
        <time>2023-04-10T09:25:07Z</time>
      </trkpt>
      <trkpt lat="45.43102" lon="5.69599">
        <ele>768</ele>
        <time>2023-04-10T09:25:08Z</time>
      </trkpt>
      <trkpt lat="45.43101" lon="5.69597">
        <ele>768</ele>
        <time>2023-04-10T09:25:09Z</time>
      </trkpt>
      <trkpt lat="45.43098" lon="5.69594">
        <ele>769</ele>
        <time>2023-04-10T09:25:11Z</time>
      </trkpt>
      <trkpt lat="45.43097" lon="5.69592">
        <ele>769</ele>
        <time>2023-04-10T09:25:12Z</time>
      </trkpt>
      <trkpt lat="45.43095" lon="5.6959">
        <ele>769</ele>
        <time>2023-04-10T09:25:13Z</time>
      </trkpt>
      <trkpt lat="45.43094" lon="5.69588">
        <ele>769</ele>
        <time>2023-04-10T09:25:14Z</time>
      </trkpt>
      <trkpt lat="45.43093" lon="5.69585">
        <ele>769</ele>
        <time>2023-04-10T09:25:15Z</time>
      </trkpt>
      <trkpt lat="45.43092" lon="5.69583">
        <ele>769</ele>
        <time>2023-04-10T09:25:16Z</time>
      </trkpt>
      <trkpt lat="45.43091" lon="5.6958">
        <ele>769</ele>
        <time>2023-04-10T09:25:17Z</time>
      </trkpt>
      <trkpt lat="45.4309" lon="5.69578">
        <ele>770</ele>
        <time>2023-04-10T09:25:18Z</time>
      </trkpt>
      <trkpt lat="45.43088" lon="5.69574">
        <ele>771</ele>
        <time>2023-04-10T09:25:20Z</time>
      </trkpt>
      <trkpt lat="45.43087" lon="5.69571">
        <ele>771</ele>
        <time>2023-04-10T09:25:21Z</time>
      </trkpt>
      <trkpt lat="45.43086" lon="5.69569">
        <ele>771</ele>
        <time>2023-04-10T09:25:22Z</time>
      </trkpt>
      <trkpt lat="45.43084" lon="5.69567">
        <ele>771</ele>
        <time>2023-04-10T09:25:23Z</time>
      </trkpt>
      <trkpt lat="45.43083" lon="5.69565">
        <ele>772</ele>
        <time>2023-04-10T09:25:24Z</time>
      </trkpt>
      <trkpt lat="45.43082" lon="5.69563">
        <ele>772</ele>
        <time>2023-04-10T09:25:25Z</time>
      </trkpt>
      <trkpt lat="45.4308" lon="5.69561">
        <ele>773</ele>
        <time>2023-04-10T09:25:26Z</time>
      </trkpt>
      <trkpt lat="45.43079" lon="5.69558">
        <ele>773</ele>
        <time>2023-04-10T09:25:27Z</time>
      </trkpt>
      <trkpt lat="45.43078" lon="5.69555">
        <ele>773</ele>
        <time>2023-04-10T09:25:28Z</time>
      </trkpt>
      <trkpt lat="45.43077" lon="5.69552">
        <ele>773</ele>
        <time>2023-04-10T09:25:29Z</time>
      </trkpt>
      <trkpt lat="45.43075" lon="5.69548">
        <ele>773</ele>
        <time>2023-04-10T09:25:30Z</time>
      </trkpt>
      <trkpt lat="45.43074" lon="5.69546">
        <ele>773</ele>
        <time>2023-04-10T09:25:31Z</time>
      </trkpt>
      <trkpt lat="45.43073" lon="5.69543">
        <ele>773</ele>
        <time>2023-04-10T09:25:32Z</time>
      </trkpt>
      <trkpt lat="45.43072" lon="5.69541">
        <ele>773</ele>
        <time>2023-04-10T09:25:33Z</time>
      </trkpt>
      <trkpt lat="45.4307" lon="5.69538">
        <ele>774</ele>
        <time>2023-04-10T09:25:34Z</time>
      </trkpt>
      <trkpt lat="45.43068" lon="5.69536">
        <ele>774</ele>
        <time>2023-04-10T09:25:35Z</time>
      </trkpt>
      <trkpt lat="45.43066" lon="5.69533">
        <ele>774</ele>
        <time>2023-04-10T09:25:36Z</time>
      </trkpt>
      <trkpt lat="45.43064" lon="5.6953">
        <ele>774</ele>
        <time>2023-04-10T09:25:37Z</time>
      </trkpt>
      <trkpt lat="45.43061" lon="5.69528">
        <ele>774</ele>
        <time>2023-04-10T09:25:38Z</time>
      </trkpt>
      <trkpt lat="45.43057" lon="5.69525">
        <ele>774</ele>
        <time>2023-04-10T09:25:39Z</time>
      </trkpt>
      <trkpt lat="45.43053" lon="5.69523">
        <ele>774</ele>
        <time>2023-04-10T09:25:40Z</time>
      </trkpt>
      <trkpt lat="45.43049" lon="5.6952">
        <ele>774</ele>
        <time>2023-04-10T09:25:41Z</time>
      </trkpt>
      <trkpt lat="45.43045" lon="5.69518">
        <ele>774</ele>
        <time>2023-04-10T09:25:42Z</time>
      </trkpt>
      <trkpt lat="45.43041" lon="5.69517">
        <ele>774</ele>
        <time>2023-04-10T09:25:43Z</time>
      </trkpt>
      <trkpt lat="45.43037" lon="5.69515">
        <ele>774</ele>
        <time>2023-04-10T09:25:44Z</time>
      </trkpt>
      <trkpt lat="45.43032" lon="5.69513">
        <ele>773</ele>
        <time>2023-04-10T09:25:45Z</time>
      </trkpt>
      <trkpt lat="45.43029" lon="5.69511">
        <ele>773</ele>
        <time>2023-04-10T09:25:46Z</time>
      </trkpt>
      <trkpt lat="45.43026" lon="5.6951">
        <ele>773</ele>
        <time>2023-04-10T09:25:47Z</time>
      </trkpt>
      <trkpt lat="45.43023" lon="5.69508">
        <ele>774</ele>
        <time>2023-04-10T09:25:48Z</time>
      </trkpt>
      <trkpt lat="45.43019" lon="5.69506">
        <ele>774</ele>
        <time>2023-04-10T09:25:49Z</time>
      </trkpt>
      <trkpt lat="45.43016" lon="5.69503">
        <ele>774</ele>
        <time>2023-04-10T09:25:50Z</time>
      </trkpt>
      <trkpt lat="45.43014" lon="5.69501">
        <ele>774</ele>
        <time>2023-04-10T09:25:51Z</time>
      </trkpt>
      <trkpt lat="45.43012" lon="5.69497">
        <ele>775</ele>
        <time>2023-04-10T09:25:52Z</time>
      </trkpt>
      <trkpt lat="45.43011" lon="5.69495">
        <ele>775</ele>
        <time>2023-04-10T09:25:53Z</time>
      </trkpt>
      <trkpt lat="45.43009" lon="5.69493">
        <ele>775</ele>
        <time>2023-04-10T09:25:54Z</time>
      </trkpt>
      <trkpt lat="45.43008" lon="5.6949">
        <ele>775</ele>
        <time>2023-04-10T09:25:55Z</time>
      </trkpt>
      <trkpt lat="45.43007" lon="5.69487">
        <ele>775</ele>
        <time>2023-04-10T09:25:56Z</time>
      </trkpt>
      <trkpt lat="45.43006" lon="5.69484">
        <ele>776</ele>
        <time>2023-04-10T09:25:57Z</time>
      </trkpt>
      <trkpt lat="45.43004" lon="5.69482">
        <ele>776</ele>
        <time>2023-04-10T09:25:58Z</time>
      </trkpt>
      <trkpt lat="45.43003" lon="5.69479">
        <ele>776</ele>
        <time>2023-04-10T09:25:59Z</time>
      </trkpt>
      <trkpt lat="45.43001" lon="5.69476">
        <ele>776</ele>
        <time>2023-04-10T09:26:00Z</time>
      </trkpt>
      <trkpt lat="45.43" lon="5.69474">
        <ele>776</ele>
        <time>2023-04-10T09:26:01Z</time>
      </trkpt>
      <trkpt lat="45.42998" lon="5.69473">
        <ele>777</ele>
        <time>2023-04-10T09:26:02Z</time>
      </trkpt>
      <trkpt lat="45.42997" lon="5.69471">
        <ele>777</ele>
        <time>2023-04-10T09:26:03Z</time>
      </trkpt>
      <trkpt lat="45.42995" lon="5.69469">
        <ele>777</ele>
        <time>2023-04-10T09:26:04Z</time>
      </trkpt>
      <trkpt lat="45.42993" lon="5.69466">
        <ele>777</ele>
        <time>2023-04-10T09:26:05Z</time>
      </trkpt>
      <trkpt lat="45.42992" lon="5.69463">
        <ele>777</ele>
        <time>2023-04-10T09:26:06Z</time>
      </trkpt>
      <trkpt lat="45.4299" lon="5.69461">
        <ele>777</ele>
        <time>2023-04-10T09:26:07Z</time>
      </trkpt>
      <trkpt lat="45.42988" lon="5.69459">
        <ele>778</ele>
        <time>2023-04-10T09:26:08Z</time>
      </trkpt>
      <trkpt lat="45.42986" lon="5.69456">
        <ele>778</ele>
        <time>2023-04-10T09:26:09Z</time>
      </trkpt>
      <trkpt lat="45.42984" lon="5.69454">
        <ele>778</ele>
        <time>2023-04-10T09:26:10Z</time>
      </trkpt>
      <trkpt lat="45.42982" lon="5.69451">
        <ele>778</ele>
        <time>2023-04-10T09:26:11Z</time>
      </trkpt>
      <trkpt lat="45.42981" lon="5.69448">
        <ele>778</ele>
        <time>2023-04-10T09:26:12Z</time>
      </trkpt>
      <trkpt lat="45.42979" lon="5.69445">
        <ele>778</ele>
        <time>2023-04-10T09:26:13Z</time>
      </trkpt>
      <trkpt lat="45.42977" lon="5.69442">
        <ele>778</ele>
        <time>2023-04-10T09:26:14Z</time>
      </trkpt>
      <trkpt lat="45.42975" lon="5.69439">
        <ele>778</ele>
        <time>2023-04-10T09:26:15Z</time>
      </trkpt>
      <trkpt lat="45.42973" lon="5.69436">
        <ele>778</ele>
        <time>2023-04-10T09:26:16Z</time>
      </trkpt>
      <trkpt lat="45.42972" lon="5.69433">
        <ele>778</ele>
        <time>2023-04-10T09:26:17Z</time>
      </trkpt>
      <trkpt lat="45.4297" lon="5.6943">
        <ele>779</ele>
        <time>2023-04-10T09:26:18Z</time>
      </trkpt>
      <trkpt lat="45.42969" lon="5.69428">
        <ele>779</ele>
        <time>2023-04-10T09:26:19Z</time>
      </trkpt>
      <trkpt lat="45.42967" lon="5.69425">
        <ele>779</ele>
        <time>2023-04-10T09:26:20Z</time>
      </trkpt>
      <trkpt lat="45.42966" lon="5.69423">
        <ele>779</ele>
        <time>2023-04-10T09:26:21Z</time>
      </trkpt>
      <trkpt lat="45.42964" lon="5.69421">
        <ele>779</ele>
        <time>2023-04-10T09:26:22Z</time>
      </trkpt>
      <trkpt lat="45.42962" lon="5.69419">
        <ele>780</ele>
        <time>2023-04-10T09:26:23Z</time>
      </trkpt>
      <trkpt lat="45.42961" lon="5.69417">
        <ele>781</ele>
        <time>2023-04-10T09:26:24Z</time>
      </trkpt>
      <trkpt lat="45.42959" lon="5.69414">
        <ele>781</ele>
        <time>2023-04-10T09:26:25Z</time>
      </trkpt>
      <trkpt lat="45.42957" lon="5.69411">
        <ele>781</ele>
        <time>2023-04-10T09:26:26Z</time>
      </trkpt>
      <trkpt lat="45.42955" lon="5.69408">
        <ele>781</ele>
        <time>2023-04-10T09:26:27Z</time>
      </trkpt>
      <trkpt lat="45.42953" lon="5.69404">
        <ele>781</ele>
        <time>2023-04-10T09:26:28Z</time>
      </trkpt>
      <trkpt lat="45.42951" lon="5.69401">
        <ele>781</ele>
        <time>2023-04-10T09:26:29Z</time>
      </trkpt>
      <trkpt lat="45.42949" lon="5.69397">
        <ele>781</ele>
        <time>2023-04-10T09:26:30Z</time>
      </trkpt>
      <trkpt lat="45.42947" lon="5.69393">
        <ele>781</ele>
        <time>2023-04-10T09:26:31Z</time>
      </trkpt>
      <trkpt lat="45.42946" lon="5.69389">
        <ele>781</ele>
        <time>2023-04-10T09:26:32Z</time>
      </trkpt>
      <trkpt lat="45.42944" lon="5.69384">
        <ele>782</ele>
        <time>2023-04-10T09:26:33Z</time>
      </trkpt>
      <trkpt lat="45.42943" lon="5.6938">
        <ele>782</ele>
        <time>2023-04-10T09:26:34Z</time>
      </trkpt>
      <trkpt lat="45.42942" lon="5.69376">
        <ele>782</ele>
        <time>2023-04-10T09:26:35Z</time>
      </trkpt>
      <trkpt lat="45.42941" lon="5.69371">
        <ele>782</ele>
        <time>2023-04-10T09:26:36Z</time>
      </trkpt>
      <trkpt lat="45.4294" lon="5.69368">
        <ele>782</ele>
        <time>2023-04-10T09:26:37Z</time>
      </trkpt>
      <trkpt lat="45.42938" lon="5.69365">
        <ele>783</ele>
        <time>2023-04-10T09:26:38Z</time>
      </trkpt>
      <trkpt lat="45.42936" lon="5.69361">
        <ele>783</ele>
        <time>2023-04-10T09:26:39Z</time>
      </trkpt>
      <trkpt lat="45.42935" lon="5.69357">
        <ele>783</ele>
        <time>2023-04-10T09:26:40Z</time>
      </trkpt>
      <trkpt lat="45.42933" lon="5.69354">
        <ele>783</ele>
        <time>2023-04-10T09:26:41Z</time>
      </trkpt>
      <trkpt lat="45.42932" lon="5.6935">
        <ele>783</ele>
        <time>2023-04-10T09:26:42Z</time>
      </trkpt>
      <trkpt lat="45.42931" lon="5.69347">
        <ele>783</ele>
        <time>2023-04-10T09:26:43Z</time>
      </trkpt>
      <trkpt lat="45.4293" lon="5.69343">
        <ele>783</ele>
        <time>2023-04-10T09:26:44Z</time>
      </trkpt>
      <trkpt lat="45.42929" lon="5.6934">
        <ele>784</ele>
        <time>2023-04-10T09:26:45Z</time>
      </trkpt>
      <trkpt lat="45.42928" lon="5.69337">
        <ele>784</ele>
        <time>2023-04-10T09:26:46Z</time>
      </trkpt>
      <trkpt lat="45.42928" lon="5.69334">
        <ele>784</ele>
        <time>2023-04-10T09:26:47Z</time>
      </trkpt>
      <trkpt lat="45.42928" lon="5.69331">
        <ele>784</ele>
        <time>2023-04-10T09:26:48Z</time>
      </trkpt>
      <trkpt lat="45.42928" lon="5.69328">
        <ele>784</ele>
        <time>2023-04-10T09:26:49Z</time>
      </trkpt>
      <trkpt lat="45.42929" lon="5.69325">
        <ele>784</ele>
        <time>2023-04-10T09:26:50Z</time>
      </trkpt>
      <trkpt lat="45.4293" lon="5.6932">
        <ele>784</ele>
        <time>2023-04-10T09:26:52Z</time>
      </trkpt>
      <trkpt lat="45.4293" lon="5.69317">
        <ele>784</ele>
        <time>2023-04-10T09:26:53Z</time>
      </trkpt>
      <trkpt lat="45.42931" lon="5.69315">
        <ele>785</ele>
        <time>2023-04-10T09:26:54Z</time>
      </trkpt>
      <trkpt lat="45.42931" lon="5.69311">
        <ele>785</ele>
        <time>2023-04-10T09:26:55Z</time>
      </trkpt>
      <trkpt lat="45.42931" lon="5.69307">
        <ele>786</ele>
        <time>2023-04-10T09:26:57Z</time>
      </trkpt>
      <trkpt lat="45.42932" lon="5.69303">
        <ele>786</ele>
        <time>2023-04-10T09:26:58Z</time>
      </trkpt>
      <trkpt lat="45.42932" lon="5.69299">
        <ele>786</ele>
        <time>2023-04-10T09:26:59Z</time>
      </trkpt>
      <trkpt lat="45.42934" lon="5.69296">
        <ele>786</ele>
        <time>2023-04-10T09:27:00Z</time>
      </trkpt>
      <trkpt lat="45.42935" lon="5.69294">
        <ele>787</ele>
        <time>2023-04-10T09:27:01Z</time>
      </trkpt>
      <trkpt lat="45.42938" lon="5.69293">
        <ele>787</ele>
        <time>2023-04-10T09:27:02Z</time>
      </trkpt>
      <trkpt lat="45.4294" lon="5.69293">
        <ele>787</ele>
        <time>2023-04-10T09:27:03Z</time>
      </trkpt>
      <trkpt lat="45.42942" lon="5.69293">
        <ele>787</ele>
        <time>2023-04-10T09:27:04Z</time>
      </trkpt>
      <trkpt lat="45.42944" lon="5.69294">
        <ele>787</ele>
        <time>2023-04-10T09:27:05Z</time>
      </trkpt>
      <trkpt lat="45.42946" lon="5.69294">
        <ele>787</ele>
        <time>2023-04-10T09:27:06Z</time>
      </trkpt>
      <trkpt lat="45.42949" lon="5.69295">
        <ele>787</ele>
        <time>2023-04-10T09:27:07Z</time>
      </trkpt>
      <trkpt lat="45.42951" lon="5.69294">
        <ele>787</ele>
        <time>2023-04-10T09:27:08Z</time>
      </trkpt>
      <trkpt lat="45.42953" lon="5.69294">
        <ele>788</ele>
        <time>2023-04-10T09:27:09Z</time>
      </trkpt>
      <trkpt lat="45.42955" lon="5.69295">
        <ele>788</ele>
        <time>2023-04-10T09:27:10Z</time>
      </trkpt>
      <trkpt lat="45.42957" lon="5.69296">
        <ele>788</ele>
        <time>2023-04-10T09:27:11Z</time>
      </trkpt>
      <trkpt lat="45.42959" lon="5.69296">
        <ele>788</ele>
        <time>2023-04-10T09:27:12Z</time>
      </trkpt>
      <trkpt lat="45.42961" lon="5.69297">
        <ele>788</ele>
        <time>2023-04-10T09:27:13Z</time>
      </trkpt>
      <trkpt lat="45.42963" lon="5.69297">
        <ele>788</ele>
        <time>2023-04-10T09:27:14Z</time>
      </trkpt>
      <trkpt lat="45.42965" lon="5.69298">
        <ele>788</ele>
        <time>2023-04-10T09:27:15Z</time>
      </trkpt>
      <trkpt lat="45.42967" lon="5.69299">
        <ele>788</ele>
        <time>2023-04-10T09:27:16Z</time>
      </trkpt>
      <trkpt lat="45.42969" lon="5.693">
        <ele>788</ele>
        <time>2023-04-10T09:27:17Z</time>
      </trkpt>
      <trkpt lat="45.4297" lon="5.69302">
        <ele>789</ele>
        <time>2023-04-10T09:27:18Z</time>
      </trkpt>
      <trkpt lat="45.42973" lon="5.69303">
        <ele>789</ele>
        <time>2023-04-10T09:27:20Z</time>
      </trkpt>
      <trkpt lat="45.42975" lon="5.69304">
        <ele>790</ele>
        <time>2023-04-10T09:27:21Z</time>
      </trkpt>
      <trkpt lat="45.42977" lon="5.69305">
        <ele>790</ele>
        <time>2023-04-10T09:27:22Z</time>
      </trkpt>
      <trkpt lat="45.42979" lon="5.69307">
        <ele>790</ele>
        <time>2023-04-10T09:27:23Z</time>
      </trkpt>
      <trkpt lat="45.42981" lon="5.69308">
        <ele>791</ele>
        <time>2023-04-10T09:27:24Z</time>
      </trkpt>
      <trkpt lat="45.42983" lon="5.69308">
        <ele>791</ele>
        <time>2023-04-10T09:27:25Z</time>
      </trkpt>
      <trkpt lat="45.42985" lon="5.69309">
        <ele>791</ele>
        <time>2023-04-10T09:27:26Z</time>
      </trkpt>
      <trkpt lat="45.42989" lon="5.69309">
        <ele>792</ele>
        <time>2023-04-10T09:27:28Z</time>
      </trkpt>
      <trkpt lat="45.42991" lon="5.6931">
        <ele>792</ele>
        <time>2023-04-10T09:27:29Z</time>
      </trkpt>
      <trkpt lat="45.42994" lon="5.69311">
        <ele>792</ele>
        <time>2023-04-10T09:27:31Z</time>
      </trkpt>
      <trkpt lat="45.42997" lon="5.69312">
        <ele>793</ele>
        <time>2023-04-10T09:27:33Z</time>
      </trkpt>
      <trkpt lat="45.42999" lon="5.69314">
        <ele>793</ele>
        <time>2023-04-10T09:27:34Z</time>
      </trkpt>
      <trkpt lat="45.43001" lon="5.69315">
        <ele>793</ele>
        <time>2023-04-10T09:27:35Z</time>
      </trkpt>
      <trkpt lat="45.43003" lon="5.69317">
        <ele>793</ele>
        <time>2023-04-10T09:27:36Z</time>
      </trkpt>
      <trkpt lat="45.43005" lon="5.69319">
        <ele>793</ele>
        <time>2023-04-10T09:27:37Z</time>
      </trkpt>
      <trkpt lat="45.43007" lon="5.69321">
        <ele>793</ele>
        <time>2023-04-10T09:27:38Z</time>
      </trkpt>
      <trkpt lat="45.43009" lon="5.69323">
        <ele>793</ele>
        <time>2023-04-10T09:27:39Z</time>
      </trkpt>
      <trkpt lat="45.43011" lon="5.69324">
        <ele>793</ele>
        <time>2023-04-10T09:27:40Z</time>
      </trkpt>
      <trkpt lat="45.43013" lon="5.69326">
        <ele>794</ele>
        <time>2023-04-10T09:27:41Z</time>
      </trkpt>
      <trkpt lat="45.43014" lon="5.69328">
        <ele>794</ele>
        <time>2023-04-10T09:27:42Z</time>
      </trkpt>
      <trkpt lat="45.43017" lon="5.69331">
        <ele>794</ele>
        <time>2023-04-10T09:27:44Z</time>
      </trkpt>
      <trkpt lat="45.43019" lon="5.69332">
        <ele>794</ele>
        <time>2023-04-10T09:27:46Z</time>
      </trkpt>
      <trkpt lat="45.43022" lon="5.69333">
        <ele>794</ele>
        <time>2023-04-10T09:27:47Z</time>
      </trkpt>
      <trkpt lat="45.43025" lon="5.69334">
        <ele>794</ele>
        <time>2023-04-10T09:27:48Z</time>
      </trkpt>
      <trkpt lat="45.43028" lon="5.69335">
        <ele>794</ele>
        <time>2023-04-10T09:27:49Z</time>
      </trkpt>
      <trkpt lat="45.4303" lon="5.69336">
        <ele>794</ele>
        <time>2023-04-10T09:27:50Z</time>
      </trkpt>
      <trkpt lat="45.43033" lon="5.69337">
        <ele>795</ele>
        <time>2023-04-10T09:27:51Z</time>
      </trkpt>
      <trkpt lat="45.43035" lon="5.69337">
        <ele>795</ele>
        <time>2023-04-10T09:27:52Z</time>
      </trkpt>
      <trkpt lat="45.43038" lon="5.69338">
        <ele>795</ele>
        <time>2023-04-10T09:27:53Z</time>
      </trkpt>
      <trkpt lat="45.43041" lon="5.69338">
        <ele>795</ele>
        <time>2023-04-10T09:27:54Z</time>
      </trkpt>
      <trkpt lat="45.43044" lon="5.69338">
        <ele>795</ele>
        <time>2023-04-10T09:27:55Z</time>
      </trkpt>
      <trkpt lat="45.43047" lon="5.69338">
        <ele>795</ele>
        <time>2023-04-10T09:27:56Z</time>
      </trkpt>
      <trkpt lat="45.4305" lon="5.69339">
        <ele>795</ele>
        <time>2023-04-10T09:27:57Z</time>
      </trkpt>
      <trkpt lat="45.43053" lon="5.6934">
        <ele>795</ele>
        <time>2023-04-10T09:27:58Z</time>
      </trkpt>
      <trkpt lat="45.43056" lon="5.69341">
        <ele>795</ele>
        <time>2023-04-10T09:27:59Z</time>
      </trkpt>
      <trkpt lat="45.43059" lon="5.69342">
        <ele>795</ele>
        <time>2023-04-10T09:28:00Z</time>
      </trkpt>
      <trkpt lat="45.43061" lon="5.69343">
        <ele>795</ele>
        <time>2023-04-10T09:28:01Z</time>
      </trkpt>
      <trkpt lat="45.43063" lon="5.69344">
        <ele>795</ele>
        <time>2023-04-10T09:28:02Z</time>
      </trkpt>
      <trkpt lat="45.43065" lon="5.69344">
        <ele>796</ele>
        <time>2023-04-10T09:28:03Z</time>
      </trkpt>
      <trkpt lat="45.43067" lon="5.69344">
        <ele>796</ele>
        <time>2023-04-10T09:28:04Z</time>
      </trkpt>
      <trkpt lat="45.4307" lon="5.69345">
        <ele>796</ele>
        <time>2023-04-10T09:28:05Z</time>
      </trkpt>
      <trkpt lat="45.43073" lon="5.69346">
        <ele>797</ele>
        <time>2023-04-10T09:28:06Z</time>
      </trkpt>
      <trkpt lat="45.43075" lon="5.69347">
        <ele>797</ele>
        <time>2023-04-10T09:28:07Z</time>
      </trkpt>
      <trkpt lat="45.43078" lon="5.69348">
        <ele>797</ele>
        <time>2023-04-10T09:28:08Z</time>
      </trkpt>
      <trkpt lat="45.43081" lon="5.69348">
        <ele>797</ele>
        <time>2023-04-10T09:28:09Z</time>
      </trkpt>
      <trkpt lat="45.43083" lon="5.69349">
        <ele>797</ele>
        <time>2023-04-10T09:28:10Z</time>
      </trkpt>
      <trkpt lat="45.43086" lon="5.6935">
        <ele>797</ele>
        <time>2023-04-10T09:28:11Z</time>
      </trkpt>
      <trkpt lat="45.43088" lon="5.6935">
        <ele>798</ele>
        <time>2023-04-10T09:28:12Z</time>
      </trkpt>
      <trkpt lat="45.43091" lon="5.69351">
        <ele>798</ele>
        <time>2023-04-10T09:28:13Z</time>
      </trkpt>
      <trkpt lat="45.43094" lon="5.69351">
        <ele>798</ele>
        <time>2023-04-10T09:28:14Z</time>
      </trkpt>
      <trkpt lat="45.43096" lon="5.69352">
        <ele>798</ele>
        <time>2023-04-10T09:28:15Z</time>
      </trkpt>
      <trkpt lat="45.43098" lon="5.69352">
        <ele>798</ele>
        <time>2023-04-10T09:28:16Z</time>
      </trkpt>
      <trkpt lat="45.43101" lon="5.69353">
        <ele>799</ele>
        <time>2023-04-10T09:28:17Z</time>
      </trkpt>
      <trkpt lat="45.43104" lon="5.69353">
        <ele>799</ele>
        <time>2023-04-10T09:28:18Z</time>
      </trkpt>
      <trkpt lat="45.43106" lon="5.69354">
        <ele>799</ele>
        <time>2023-04-10T09:28:19Z</time>
      </trkpt>
      <trkpt lat="45.43109" lon="5.69355">
        <ele>799</ele>
        <time>2023-04-10T09:28:20Z</time>
      </trkpt>
      <trkpt lat="45.43111" lon="5.69356">
        <ele>800</ele>
        <time>2023-04-10T09:28:21Z</time>
      </trkpt>
      <trkpt lat="45.43114" lon="5.69356">
        <ele>800</ele>
        <time>2023-04-10T09:28:22Z</time>
      </trkpt>
      <trkpt lat="45.43117" lon="5.69355">
        <ele>800</ele>
        <time>2023-04-10T09:28:23Z</time>
      </trkpt>
      <trkpt lat="45.4312" lon="5.69354">
        <ele>800</ele>
        <time>2023-04-10T09:28:24Z</time>
      </trkpt>
      <trkpt lat="45.43122" lon="5.69353">
        <ele>800</ele>
        <time>2023-04-10T09:28:25Z</time>
      </trkpt>
      <trkpt lat="45.43125" lon="5.69353">
        <ele>800</ele>
        <time>2023-04-10T09:28:26Z</time>
      </trkpt>
      <trkpt lat="45.43128" lon="5.69352">
        <ele>800</ele>
        <time>2023-04-10T09:28:27Z</time>
      </trkpt>
      <trkpt lat="45.43131" lon="5.69351">
        <ele>801</ele>
        <time>2023-04-10T09:28:28Z</time>
      </trkpt>
      <trkpt lat="45.43133" lon="5.6935">
        <ele>801</ele>
        <time>2023-04-10T09:28:29Z</time>
      </trkpt>
      <trkpt lat="45.43136" lon="5.6935">
        <ele>801</ele>
        <time>2023-04-10T09:28:30Z</time>
      </trkpt>
      <trkpt lat="45.43138" lon="5.69349">
        <ele>801</ele>
        <time>2023-04-10T09:28:31Z</time>
      </trkpt>
      <trkpt lat="45.43141" lon="5.6935">
        <ele>801</ele>
        <time>2023-04-10T09:28:32Z</time>
      </trkpt>
      <trkpt lat="45.43143" lon="5.69352">
        <ele>801</ele>
        <time>2023-04-10T09:28:33Z</time>
      </trkpt>
      <trkpt lat="45.43146" lon="5.69352">
        <ele>801</ele>
        <time>2023-04-10T09:28:34Z</time>
      </trkpt>
      <trkpt lat="45.43149" lon="5.69353">
        <ele>802</ele>
        <time>2023-04-10T09:28:35Z</time>
      </trkpt>
      <trkpt lat="45.43151" lon="5.69354">
        <ele>802</ele>
        <time>2023-04-10T09:28:36Z</time>
      </trkpt>
      <trkpt lat="45.43154" lon="5.69354">
        <ele>802</ele>
        <time>2023-04-10T09:28:37Z</time>
      </trkpt>
      <trkpt lat="45.43157" lon="5.69355">
        <ele>802</ele>
        <time>2023-04-10T09:28:38Z</time>
      </trkpt>
      <trkpt lat="45.43161" lon="5.69356">
        <ele>802</ele>
        <time>2023-04-10T09:28:39Z</time>
      </trkpt>
      <trkpt lat="45.43164" lon="5.69357">
        <ele>802</ele>
        <time>2023-04-10T09:28:40Z</time>
      </trkpt>
      <trkpt lat="45.43166" lon="5.69358">
        <ele>802</ele>
        <time>2023-04-10T09:28:41Z</time>
      </trkpt>
      <trkpt lat="45.43169" lon="5.69359">
        <ele>802</ele>
        <time>2023-04-10T09:28:42Z</time>
      </trkpt>
      <trkpt lat="45.43172" lon="5.69359">
        <ele>802</ele>
        <time>2023-04-10T09:28:43Z</time>
      </trkpt>
      <trkpt lat="45.43175" lon="5.69358">
        <ele>802</ele>
        <time>2023-04-10T09:28:44Z</time>
      </trkpt>
      <trkpt lat="45.43178" lon="5.69357">
        <ele>802</ele>
        <time>2023-04-10T09:28:45Z</time>
      </trkpt>
      <trkpt lat="45.43182" lon="5.69356">
        <ele>802</ele>
        <time>2023-04-10T09:28:46Z</time>
      </trkpt>
      <trkpt lat="45.43185" lon="5.69356">
        <ele>802</ele>
        <time>2023-04-10T09:28:47Z</time>
      </trkpt>
      <trkpt lat="45.43188" lon="5.69356">
        <ele>802</ele>
        <time>2023-04-10T09:28:48Z</time>
      </trkpt>
      <trkpt lat="45.43191" lon="5.69355">
        <ele>802</ele>
        <time>2023-04-10T09:28:49Z</time>
      </trkpt>
      <trkpt lat="45.43195" lon="5.69355">
        <ele>803</ele>
        <time>2023-04-10T09:28:50Z</time>
      </trkpt>
      <trkpt lat="45.43199" lon="5.69355">
        <ele>803</ele>
        <time>2023-04-10T09:28:51Z</time>
      </trkpt>
      <trkpt lat="45.43203" lon="5.69355">
        <ele>803</ele>
        <time>2023-04-10T09:28:52Z</time>
      </trkpt>
      <trkpt lat="45.43208" lon="5.69355">
        <ele>803</ele>
        <time>2023-04-10T09:28:53Z</time>
      </trkpt>
      <trkpt lat="45.43212" lon="5.69355">
        <ele>803</ele>
        <time>2023-04-10T09:28:54Z</time>
      </trkpt>
      <trkpt lat="45.43216" lon="5.69356">
        <ele>803</ele>
        <time>2023-04-10T09:28:55Z</time>
      </trkpt>
      <trkpt lat="45.43221" lon="5.69357">
        <ele>803</ele>
        <time>2023-04-10T09:28:56Z</time>
      </trkpt>
      <trkpt lat="45.43226" lon="5.69359">
        <ele>803</ele>
        <time>2023-04-10T09:28:57Z</time>
      </trkpt>
      <trkpt lat="45.43231" lon="5.69359">
        <ele>803</ele>
        <time>2023-04-10T09:28:58Z</time>
      </trkpt>
      <trkpt lat="45.43236" lon="5.69359">
        <ele>803</ele>
        <time>2023-04-10T09:28:59Z</time>
      </trkpt>
      <trkpt lat="45.43241" lon="5.6936">
        <ele>803</ele>
        <time>2023-04-10T09:29:00Z</time>
      </trkpt>
      <trkpt lat="45.43246" lon="5.6936">
        <ele>803</ele>
        <time>2023-04-10T09:29:01Z</time>
      </trkpt>
      <trkpt lat="45.4325" lon="5.69361">
        <ele>803</ele>
        <time>2023-04-10T09:29:02Z</time>
      </trkpt>
      <trkpt lat="45.43254" lon="5.69362">
        <ele>803</ele>
        <time>2023-04-10T09:29:03Z</time>
      </trkpt>
      <trkpt lat="45.43259" lon="5.69363">
        <ele>803</ele>
        <time>2023-04-10T09:29:04Z</time>
      </trkpt>
      <trkpt lat="45.43263" lon="5.69364">
        <ele>803</ele>
        <time>2023-04-10T09:29:05Z</time>
      </trkpt>
      <trkpt lat="45.43267" lon="5.69365">
        <ele>803</ele>
        <time>2023-04-10T09:29:06Z</time>
      </trkpt>
      <trkpt lat="45.4327" lon="5.69365">
        <ele>803</ele>
        <time>2023-04-10T09:29:07Z</time>
      </trkpt>
      <trkpt lat="45.43274" lon="5.69366">
        <ele>804</ele>
        <time>2023-04-10T09:29:08Z</time>
      </trkpt>
      <trkpt lat="45.43278" lon="5.69366">
        <ele>805</ele>
        <time>2023-04-10T09:29:09Z</time>
      </trkpt>
      <trkpt lat="45.43281" lon="5.69365">
        <ele>805</ele>
        <time>2023-04-10T09:29:10Z</time>
      </trkpt>
      <trkpt lat="45.43285" lon="5.69366">
        <ele>805</ele>
        <time>2023-04-10T09:29:11Z</time>
      </trkpt>
      <trkpt lat="45.43289" lon="5.69367">
        <ele>805</ele>
        <time>2023-04-10T09:29:12Z</time>
      </trkpt>
      <trkpt lat="45.43294" lon="5.69367">
        <ele>805</ele>
        <time>2023-04-10T09:29:13Z</time>
      </trkpt>
      <trkpt lat="45.43299" lon="5.69368">
        <ele>805</ele>
        <time>2023-04-10T09:29:14Z</time>
      </trkpt>
      <trkpt lat="45.43303" lon="5.69369">
        <ele>805</ele>
        <time>2023-04-10T09:29:15Z</time>
      </trkpt>
      <trkpt lat="45.43308" lon="5.69371">
        <ele>805</ele>
        <time>2023-04-10T09:29:16Z</time>
      </trkpt>
      <trkpt lat="45.43312" lon="5.69373">
        <ele>805</ele>
        <time>2023-04-10T09:29:17Z</time>
      </trkpt>
      <trkpt lat="45.43317" lon="5.69375">
        <ele>805</ele>
        <time>2023-04-10T09:29:18Z</time>
      </trkpt>
      <trkpt lat="45.43322" lon="5.69377">
        <ele>804</ele>
        <time>2023-04-10T09:29:19Z</time>
      </trkpt>
      <trkpt lat="45.43327" lon="5.69378">
        <ele>804</ele>
        <time>2023-04-10T09:29:20Z</time>
      </trkpt>
      <trkpt lat="45.43332" lon="5.6938">
        <ele>804</ele>
        <time>2023-04-10T09:29:21Z</time>
      </trkpt>
      <trkpt lat="45.43337" lon="5.69379">
        <ele>804</ele>
        <time>2023-04-10T09:29:22Z</time>
      </trkpt>
      <trkpt lat="45.43342" lon="5.69376">
        <ele>804</ele>
        <time>2023-04-10T09:29:23Z</time>
      </trkpt>
      <trkpt lat="45.43347" lon="5.69373">
        <ele>804</ele>
        <time>2023-04-10T09:29:24Z</time>
      </trkpt>
      <trkpt lat="45.43352" lon="5.6937">
        <ele>804</ele>
        <time>2023-04-10T09:29:25Z</time>
      </trkpt>
      <trkpt lat="45.43355" lon="5.69366">
        <ele>804</ele>
        <time>2023-04-10T09:29:26Z</time>
      </trkpt>
      <trkpt lat="45.43358" lon="5.69362">
        <ele>804</ele>
        <time>2023-04-10T09:29:27Z</time>
      </trkpt>
      <trkpt lat="45.43359" lon="5.69357">
        <ele>804</ele>
        <time>2023-04-10T09:29:28Z</time>
      </trkpt>
      <trkpt lat="45.43361" lon="5.69352">
        <ele>804</ele>
        <time>2023-04-10T09:29:29Z</time>
      </trkpt>
      <trkpt lat="45.43362" lon="5.69348">
        <ele>804</ele>
        <time>2023-04-10T09:29:30Z</time>
      </trkpt>
      <trkpt lat="45.43362" lon="5.69344">
        <ele>804</ele>
        <time>2023-04-10T09:29:31Z</time>
      </trkpt>
      <trkpt lat="45.43363" lon="5.6934">
        <ele>804</ele>
        <time>2023-04-10T09:29:32Z</time>
      </trkpt>
      <trkpt lat="45.43363" lon="5.69336">
        <ele>804</ele>
        <time>2023-04-10T09:29:33Z</time>
      </trkpt>
      <trkpt lat="45.43363" lon="5.69333">
        <ele>804</ele>
        <time>2023-04-10T09:29:34Z</time>
      </trkpt>
      <trkpt lat="45.43364" lon="5.6933">
        <ele>804</ele>
        <time>2023-04-10T09:29:35Z</time>
      </trkpt>
      <trkpt lat="45.43365" lon="5.69327">
        <ele>805</ele>
        <time>2023-04-10T09:29:36Z</time>
      </trkpt>
      <trkpt lat="45.43366" lon="5.69324">
        <ele>805</ele>
        <time>2023-04-10T09:29:37Z</time>
      </trkpt>
      <trkpt lat="45.43367" lon="5.6932">
        <ele>805</ele>
        <time>2023-04-10T09:29:38Z</time>
      </trkpt>
      <trkpt lat="45.43367" lon="5.69317">
        <ele>805</ele>
        <time>2023-04-10T09:29:39Z</time>
      </trkpt>
      <trkpt lat="45.43367" lon="5.69314">
        <ele>805</ele>
        <time>2023-04-10T09:29:40Z</time>
      </trkpt>
      <trkpt lat="45.43368" lon="5.69311">
        <ele>806</ele>
        <time>2023-04-10T09:29:41Z</time>
      </trkpt>
      <trkpt lat="45.43369" lon="5.69308">
        <ele>806</ele>
        <time>2023-04-10T09:29:42Z</time>
      </trkpt>
      <trkpt lat="45.43369" lon="5.69305">
        <ele>806</ele>
        <time>2023-04-10T09:29:43Z</time>
      </trkpt>
      <trkpt lat="45.43369" lon="5.69302">
        <ele>807</ele>
        <time>2023-04-10T09:29:44Z</time>
      </trkpt>
      <trkpt lat="45.43369" lon="5.69297">
        <ele>807</ele>
        <time>2023-04-10T09:29:45Z</time>
      </trkpt>
      <trkpt lat="45.43369" lon="5.69292">
        <ele>807</ele>
        <time>2023-04-10T09:29:46Z</time>
      </trkpt>
      <trkpt lat="45.4337" lon="5.69288">
        <ele>807</ele>
        <time>2023-04-10T09:29:47Z</time>
      </trkpt>
      <trkpt lat="45.43371" lon="5.69283">
        <ele>807</ele>
        <time>2023-04-10T09:29:48Z</time>
      </trkpt>
      <trkpt lat="45.43373" lon="5.69278">
        <ele>807</ele>
        <time>2023-04-10T09:29:49Z</time>
      </trkpt>
      <trkpt lat="45.43374" lon="5.69272">
        <ele>808</ele>
        <time>2023-04-10T09:29:50Z</time>
      </trkpt>
      <trkpt lat="45.43375" lon="5.69266">
        <ele>808</ele>
        <time>2023-04-10T09:29:51Z</time>
      </trkpt>
      <trkpt lat="45.43376" lon="5.6926">
        <ele>808</ele>
        <time>2023-04-10T09:29:52Z</time>
      </trkpt>
      <trkpt lat="45.43376" lon="5.69254">
        <ele>808</ele>
        <time>2023-04-10T09:29:53Z</time>
      </trkpt>
      <trkpt lat="45.43377" lon="5.69249">
        <ele>808</ele>
        <time>2023-04-10T09:29:54Z</time>
      </trkpt>
      <trkpt lat="45.43376" lon="5.69243">
        <ele>808</ele>
        <time>2023-04-10T09:29:55Z</time>
      </trkpt>
      <trkpt lat="45.43374" lon="5.69238">
        <ele>808</ele>
        <time>2023-04-10T09:29:56Z</time>
      </trkpt>
      <trkpt lat="45.43372" lon="5.69233">
        <ele>808</ele>
        <time>2023-04-10T09:29:57Z</time>
      </trkpt>
      <trkpt lat="45.43369" lon="5.6923">
        <ele>808</ele>
        <time>2023-04-10T09:29:58Z</time>
      </trkpt>
      <trkpt lat="45.43365" lon="5.69227">
        <ele>808</ele>
        <time>2023-04-10T09:29:59Z</time>
      </trkpt>
      <trkpt lat="45.43362" lon="5.69225">
        <ele>808</ele>
        <time>2023-04-10T09:30:00Z</time>
      </trkpt>
      <trkpt lat="45.43358" lon="5.69224">
        <ele>808</ele>
        <time>2023-04-10T09:30:01Z</time>
      </trkpt>
      <trkpt lat="45.43355" lon="5.69223">
        <ele>809</ele>
        <time>2023-04-10T09:30:02Z</time>
      </trkpt>
      <trkpt lat="45.43351" lon="5.69222">
        <ele>809</ele>
        <time>2023-04-10T09:30:03Z</time>
      </trkpt>
      <trkpt lat="45.43347" lon="5.69221">
        <ele>809</ele>
        <time>2023-04-10T09:30:04Z</time>
      </trkpt>
      <trkpt lat="45.43343" lon="5.69219">
        <ele>809</ele>
        <time>2023-04-10T09:30:05Z</time>
      </trkpt>
      <trkpt lat="45.43339" lon="5.69218">
        <ele>809</ele>
        <time>2023-04-10T09:30:06Z</time>
      </trkpt>
      <trkpt lat="45.43335" lon="5.69217">
        <ele>809</ele>
        <time>2023-04-10T09:30:07Z</time>
      </trkpt>
      <trkpt lat="45.43332" lon="5.69217">
        <ele>809</ele>
        <time>2023-04-10T09:30:08Z</time>
      </trkpt>
      <trkpt lat="45.4333" lon="5.69216">
        <ele>809</ele>
        <time>2023-04-10T09:30:09Z</time>
      </trkpt>
      <trkpt lat="45.43327" lon="5.69215">
        <ele>810</ele>
        <time>2023-04-10T09:30:10Z</time>
      </trkpt>
      <trkpt lat="45.43325" lon="5.69214">
        <ele>810</ele>
        <time>2023-04-10T09:30:11Z</time>
      </trkpt>
      <trkpt lat="45.43322" lon="5.69213">
        <ele>810</ele>
        <time>2023-04-10T09:30:12Z</time>
      </trkpt>
      <trkpt lat="45.43321" lon="5.69212">
        <ele>810</ele>
        <time>2023-04-10T09:30:13Z</time>
      </trkpt>
      <trkpt lat="45.43318" lon="5.69212">
        <ele>810</ele>
        <time>2023-04-10T09:30:14Z</time>
      </trkpt>
      <trkpt lat="45.43316" lon="5.69212">
        <ele>811</ele>
        <time>2023-04-10T09:30:15Z</time>
      </trkpt>
      <trkpt lat="45.43313" lon="5.69212">
        <ele>811</ele>
        <time>2023-04-10T09:30:16Z</time>
      </trkpt>
      <trkpt lat="45.43309" lon="5.69211">
        <ele>812</ele>
        <time>2023-04-10T09:30:17Z</time>
      </trkpt>
      <trkpt lat="45.43306" lon="5.6921">
        <ele>812</ele>
        <time>2023-04-10T09:30:18Z</time>
      </trkpt>
      <trkpt lat="45.43302" lon="5.69209">
        <ele>812</ele>
        <time>2023-04-10T09:30:19Z</time>
      </trkpt>
      <trkpt lat="45.43299" lon="5.69208">
        <ele>812</ele>
        <time>2023-04-10T09:30:20Z</time>
      </trkpt>
      <trkpt lat="45.43296" lon="5.69206">
        <ele>812</ele>
        <time>2023-04-10T09:30:21Z</time>
      </trkpt>
      <trkpt lat="45.43292" lon="5.69204">
        <ele>812</ele>
        <time>2023-04-10T09:30:22Z</time>
      </trkpt>
      <trkpt lat="45.43288" lon="5.69202">
        <ele>812</ele>
        <time>2023-04-10T09:30:23Z</time>
      </trkpt>
      <trkpt lat="45.43284" lon="5.69199">
        <ele>812</ele>
        <time>2023-04-10T09:30:24Z</time>
      </trkpt>
      <trkpt lat="45.4328" lon="5.69196">
        <ele>812</ele>
        <time>2023-04-10T09:30:25Z</time>
      </trkpt>
      <trkpt lat="45.43276" lon="5.69193">
        <ele>812</ele>
        <time>2023-04-10T09:30:26Z</time>
      </trkpt>
      <trkpt lat="45.43272" lon="5.6919">
        <ele>811</ele>
        <time>2023-04-10T09:30:27Z</time>
      </trkpt>
      <trkpt lat="45.43268" lon="5.69188">
        <ele>811</ele>
        <time>2023-04-10T09:30:28Z</time>
      </trkpt>
      <trkpt lat="45.43264" lon="5.69186">
        <ele>811</ele>
        <time>2023-04-10T09:30:29Z</time>
      </trkpt>
      <trkpt lat="45.4326" lon="5.69185">
        <ele>811</ele>
        <time>2023-04-10T09:30:30Z</time>
      </trkpt>
      <trkpt lat="45.43255" lon="5.69184">
        <ele>811</ele>
        <time>2023-04-10T09:30:31Z</time>
      </trkpt>
      <trkpt lat="45.4325" lon="5.69183">
        <ele>811</ele>
        <time>2023-04-10T09:30:32Z</time>
      </trkpt>
      <trkpt lat="45.43244" lon="5.6918">
        <ele>811</ele>
        <time>2023-04-10T09:30:33Z</time>
      </trkpt>
      <trkpt lat="45.43238" lon="5.69177">
        <ele>811</ele>
        <time>2023-04-10T09:30:34Z</time>
      </trkpt>
      <trkpt lat="45.43232" lon="5.69173">
        <ele>810</ele>
        <time>2023-04-10T09:30:35Z</time>
      </trkpt>
      <trkpt lat="45.43228" lon="5.69168">
        <ele>810</ele>
        <time>2023-04-10T09:30:36Z</time>
      </trkpt>
      <trkpt lat="45.43225" lon="5.6916">
        <ele>810</ele>
        <time>2023-04-10T09:30:37Z</time>
      </trkpt>
      <trkpt lat="45.43223" lon="5.69151">
        <ele>810</ele>
        <time>2023-04-10T09:30:38Z</time>
      </trkpt>
      <trkpt lat="45.43222" lon="5.69143">
        <ele>809</ele>
        <time>2023-04-10T09:30:39Z</time>
      </trkpt>
      <trkpt lat="45.43221" lon="5.69136">
        <ele>809</ele>
        <time>2023-04-10T09:30:40Z</time>
      </trkpt>
      <trkpt lat="45.43219" lon="5.6913">
        <ele>808</ele>
        <time>2023-04-10T09:30:41Z</time>
      </trkpt>
      <trkpt lat="45.43216" lon="5.69125">
        <ele>808</ele>
        <time>2023-04-10T09:30:42Z</time>
      </trkpt>
      <trkpt lat="45.43213" lon="5.6912">
        <ele>808</ele>
        <time>2023-04-10T09:30:43Z</time>
      </trkpt>
      <trkpt lat="45.43209" lon="5.69117">
        <ele>808</ele>
        <time>2023-04-10T09:30:44Z</time>
      </trkpt>
      <trkpt lat="45.43206" lon="5.69113">
        <ele>808</ele>
        <time>2023-04-10T09:30:45Z</time>
      </trkpt>
      <trkpt lat="45.43203" lon="5.69108">
        <ele>808</ele>
        <time>2023-04-10T09:30:46Z</time>
      </trkpt>
      <trkpt lat="45.43199" lon="5.69103">
        <ele>808</ele>
        <time>2023-04-10T09:30:47Z</time>
      </trkpt>
      <trkpt lat="45.43196" lon="5.69098">
        <ele>808</ele>
        <time>2023-04-10T09:30:48Z</time>
      </trkpt>
      <trkpt lat="45.43193" lon="5.69092">
        <ele>808</ele>
        <time>2023-04-10T09:30:49Z</time>
      </trkpt>
      <trkpt lat="45.4319" lon="5.69086">
        <ele>808</ele>
        <time>2023-04-10T09:30:50Z</time>
      </trkpt>
      <trkpt lat="45.43187" lon="5.6908">
        <ele>808</ele>
        <time>2023-04-10T09:30:51Z</time>
      </trkpt>
      <trkpt lat="45.43185" lon="5.69074">
        <ele>808</ele>
        <time>2023-04-10T09:30:52Z</time>
      </trkpt>
      <trkpt lat="45.43183" lon="5.69068">
        <ele>808</ele>
        <time>2023-04-10T09:30:53Z</time>
      </trkpt>
      <trkpt lat="45.43182" lon="5.69061">
        <ele>808</ele>
        <time>2023-04-10T09:30:54Z</time>
      </trkpt>
      <trkpt lat="45.43181" lon="5.69054">
        <ele>808</ele>
        <time>2023-04-10T09:30:55Z</time>
      </trkpt>
      <trkpt lat="45.43179" lon="5.69047">
        <ele>808</ele>
        <time>2023-04-10T09:30:56Z</time>
      </trkpt>
      <trkpt lat="45.43178" lon="5.69041">
        <ele>808</ele>
        <time>2023-04-10T09:30:57Z</time>
      </trkpt>
      <trkpt lat="45.43177" lon="5.69035">
        <ele>808</ele>
        <time>2023-04-10T09:30:58Z</time>
      </trkpt>
      <trkpt lat="45.43176" lon="5.69029">
        <ele>809</ele>
        <time>2023-04-10T09:30:59Z</time>
      </trkpt>
      <trkpt lat="45.43174" lon="5.69023">
        <ele>809</ele>
        <time>2023-04-10T09:31:00Z</time>
      </trkpt>
      <trkpt lat="45.43171" lon="5.69019">
        <ele>809</ele>
        <time>2023-04-10T09:31:01Z</time>
      </trkpt>
      <trkpt lat="45.43167" lon="5.69015">
        <ele>809</ele>
        <time>2023-04-10T09:31:02Z</time>
      </trkpt>
      <trkpt lat="45.43164" lon="5.6901">
        <ele>809</ele>
        <time>2023-04-10T09:31:03Z</time>
      </trkpt>
      <trkpt lat="45.43162" lon="5.69004">
        <ele>809</ele>
        <time>2023-04-10T09:31:04Z</time>
      </trkpt>
      <trkpt lat="45.4316" lon="5.68998">
        <ele>809</ele>
        <time>2023-04-10T09:31:05Z</time>
      </trkpt>
      <trkpt lat="45.43159" lon="5.68992">
        <ele>809</ele>
        <time>2023-04-10T09:31:06Z</time>
      </trkpt>
      <trkpt lat="45.43157" lon="5.68986">
        <ele>809</ele>
        <time>2023-04-10T09:31:07Z</time>
      </trkpt>
      <trkpt lat="45.43155" lon="5.68979">
        <ele>809</ele>
        <time>2023-04-10T09:31:08Z</time>
      </trkpt>
      <trkpt lat="45.43153" lon="5.68972">
        <ele>809</ele>
        <time>2023-04-10T09:31:09Z</time>
      </trkpt>
      <trkpt lat="45.4315" lon="5.68965">
        <ele>809</ele>
        <time>2023-04-10T09:31:10Z</time>
      </trkpt>
      <trkpt lat="45.43145" lon="5.68956">
        <ele>809</ele>
        <time>2023-04-10T09:31:11Z</time>
      </trkpt>
      <trkpt lat="45.43142" lon="5.68948">
        <ele>808</ele>
        <time>2023-04-10T09:31:12Z</time>
      </trkpt>
      <trkpt lat="45.4314" lon="5.6894">
        <ele>808</ele>
        <time>2023-04-10T09:31:13Z</time>
      </trkpt>
      <trkpt lat="45.43139" lon="5.68934">
        <ele>807</ele>
        <time>2023-04-10T09:31:14Z</time>
      </trkpt>
      <trkpt lat="45.43138" lon="5.68929">
        <ele>807</ele>
        <time>2023-04-10T09:31:15Z</time>
      </trkpt>
      <trkpt lat="45.43138" lon="5.68925">
        <ele>808</ele>
        <time>2023-04-10T09:31:16Z</time>
      </trkpt>
      <trkpt lat="45.43137" lon="5.68922">
        <ele>809</ele>
        <time>2023-04-10T09:31:17Z</time>
      </trkpt>
      <trkpt lat="45.43136" lon="5.68919">
        <ele>809</ele>
        <time>2023-04-10T09:31:18Z</time>
      </trkpt>
      <trkpt lat="45.43135" lon="5.68917">
        <ele>809</ele>
        <time>2023-04-10T09:31:19Z</time>
      </trkpt>
      <trkpt lat="45.43134" lon="5.68913">
        <ele>810</ele>
        <time>2023-04-10T09:31:20Z</time>
      </trkpt>
      <trkpt lat="45.43133" lon="5.68911">
        <ele>810</ele>
        <time>2023-04-10T09:31:21Z</time>
      </trkpt>
      <trkpt lat="45.43132" lon="5.68908">
        <ele>810</ele>
        <time>2023-04-10T09:31:22Z</time>
      </trkpt>
      <trkpt lat="45.43131" lon="5.68905">
        <ele>811</ele>
        <time>2023-04-10T09:31:23Z</time>
      </trkpt>
      <trkpt lat="45.43131" lon="5.68902">
        <ele>811</ele>
        <time>2023-04-10T09:31:24Z</time>
      </trkpt>
      <trkpt lat="45.4313" lon="5.68899">
        <ele>811</ele>
        <time>2023-04-10T09:31:25Z</time>
      </trkpt>
      <trkpt lat="45.43129" lon="5.68896">
        <ele>811</ele>
        <time>2023-04-10T09:31:26Z</time>
      </trkpt>
      <trkpt lat="45.43129" lon="5.68893">
        <ele>812</ele>
        <time>2023-04-10T09:31:27Z</time>
      </trkpt>
      <trkpt lat="45.43127" lon="5.68889">
        <ele>812</ele>
        <time>2023-04-10T09:31:29Z</time>
      </trkpt>
      <trkpt lat="45.43126" lon="5.68885">
        <ele>813</ele>
        <time>2023-04-10T09:31:31Z</time>
      </trkpt>
      <trkpt lat="45.43127" lon="5.68881">
        <ele>813</ele>
        <time>2023-04-10T09:31:33Z</time>
      </trkpt>
      <trkpt lat="45.43127" lon="5.68878">
        <ele>814</ele>
        <time>2023-04-10T09:31:34Z</time>
      </trkpt>
      <trkpt lat="45.43125" lon="5.68873">
        <ele>814</ele>
        <time>2023-04-10T09:31:35Z</time>
      </trkpt>
      <trkpt lat="45.43124" lon="5.68871">
        <ele>814</ele>
        <time>2023-04-10T09:31:36Z</time>
      </trkpt>
      <trkpt lat="45.43123" lon="5.68867">
        <ele>814</ele>
        <time>2023-04-10T09:31:37Z</time>
      </trkpt>
      <trkpt lat="45.43122" lon="5.68864">
        <ele>814</ele>
        <time>2023-04-10T09:31:38Z</time>
      </trkpt>
      <trkpt lat="45.43121" lon="5.6886">
        <ele>814</ele>
        <time>2023-04-10T09:31:39Z</time>
      </trkpt>
      <trkpt lat="45.43119" lon="5.68857">
        <ele>814</ele>
        <time>2023-04-10T09:31:40Z</time>
      </trkpt>
      <trkpt lat="45.43118" lon="5.68854">
        <ele>814</ele>
        <time>2023-04-10T09:31:41Z</time>
      </trkpt>
      <trkpt lat="45.43117" lon="5.68849">
        <ele>814</ele>
        <time>2023-04-10T09:31:42Z</time>
      </trkpt>
      <trkpt lat="45.43117" lon="5.68845">
        <ele>814</ele>
        <time>2023-04-10T09:31:43Z</time>
      </trkpt>
      <trkpt lat="45.43116" lon="5.6884">
        <ele>814</ele>
        <time>2023-04-10T09:31:44Z</time>
      </trkpt>
      <trkpt lat="45.43116" lon="5.68835">
        <ele>814</ele>
        <time>2023-04-10T09:31:45Z</time>
      </trkpt>
      <trkpt lat="45.43115" lon="5.6883">
        <ele>814</ele>
        <time>2023-04-10T09:31:46Z</time>
      </trkpt>
      <trkpt lat="45.43114" lon="5.68826">
        <ele>814</ele>
        <time>2023-04-10T09:31:47Z</time>
      </trkpt>
      <trkpt lat="45.43113" lon="5.68823">
        <ele>814</ele>
        <time>2023-04-10T09:31:48Z</time>
      </trkpt>
      <trkpt lat="45.43112" lon="5.68821">
        <ele>814</ele>
        <time>2023-04-10T09:31:49Z</time>
      </trkpt>
      <trkpt lat="45.43111" lon="5.68818">
        <ele>815</ele>
        <time>2023-04-10T09:31:50Z</time>
      </trkpt>
      <trkpt lat="45.4311" lon="5.68815">
        <ele>815</ele>
        <time>2023-04-10T09:31:51Z</time>
      </trkpt>
      <trkpt lat="45.4311" lon="5.68811">
        <ele>815</ele>
        <time>2023-04-10T09:31:52Z</time>
      </trkpt>
      <trkpt lat="45.43109" lon="5.68808">
        <ele>815</ele>
        <time>2023-04-10T09:31:53Z</time>
      </trkpt>
      <trkpt lat="45.43108" lon="5.68805">
        <ele>816</ele>
        <time>2023-04-10T09:31:54Z</time>
      </trkpt>
      <trkpt lat="45.43108" lon="5.68802">
        <ele>816</ele>
        <time>2023-04-10T09:31:55Z</time>
      </trkpt>
      <trkpt lat="45.43107" lon="5.688">
        <ele>816</ele>
        <time>2023-04-10T09:31:56Z</time>
      </trkpt>
      <trkpt lat="45.43106" lon="5.68797">
        <ele>817</ele>
        <time>2023-04-10T09:31:57Z</time>
      </trkpt>
      <trkpt lat="45.43105" lon="5.68795">
        <ele>817</ele>
        <time>2023-04-10T09:31:58Z</time>
      </trkpt>
      <trkpt lat="45.43104" lon="5.68793">
        <ele>817</ele>
        <time>2023-04-10T09:31:59Z</time>
      </trkpt>
      <trkpt lat="45.43103" lon="5.6879">
        <ele>817</ele>
        <time>2023-04-10T09:32:00Z</time>
      </trkpt>
      <trkpt lat="45.43101" lon="5.68788">
        <ele>817</ele>
        <time>2023-04-10T09:32:01Z</time>
      </trkpt>
      <trkpt lat="45.431" lon="5.68786">
        <ele>818</ele>
        <time>2023-04-10T09:32:02Z</time>
      </trkpt>
      <trkpt lat="45.43098" lon="5.68784">
        <ele>818</ele>
        <time>2023-04-10T09:32:03Z</time>
      </trkpt>
      <trkpt lat="45.43096" lon="5.68782">
        <ele>818</ele>
        <time>2023-04-10T09:32:04Z</time>
      </trkpt>
      <trkpt lat="45.43094" lon="5.6878">
        <ele>818</ele>
        <time>2023-04-10T09:32:05Z</time>
      </trkpt>
      <trkpt lat="45.43091" lon="5.68778">
        <ele>818</ele>
        <time>2023-04-10T09:32:06Z</time>
      </trkpt>
      <trkpt lat="45.43088" lon="5.68775">
        <ele>818</ele>
        <time>2023-04-10T09:32:07Z</time>
      </trkpt>
      <trkpt lat="45.43086" lon="5.68773">
        <ele>818</ele>
        <time>2023-04-10T09:32:08Z</time>
      </trkpt>
      <trkpt lat="45.43083" lon="5.6877">
        <ele>818</ele>
        <time>2023-04-10T09:32:09Z</time>
      </trkpt>
      <trkpt lat="45.4308" lon="5.68768">
        <ele>818</ele>
        <time>2023-04-10T09:32:10Z</time>
      </trkpt>
      <trkpt lat="45.43077" lon="5.68765">
        <ele>818</ele>
        <time>2023-04-10T09:32:11Z</time>
      </trkpt>
      <trkpt lat="45.43073" lon="5.68763">
        <ele>818</ele>
        <time>2023-04-10T09:32:12Z</time>
      </trkpt>
      <trkpt lat="45.4307" lon="5.6876">
        <ele>818</ele>
        <time>2023-04-10T09:32:13Z</time>
      </trkpt>
      <trkpt lat="45.43066" lon="5.68757">
        <ele>818</ele>
        <time>2023-04-10T09:32:14Z</time>
      </trkpt>
      <trkpt lat="45.43063" lon="5.68754">
        <ele>818</ele>
        <time>2023-04-10T09:32:15Z</time>
      </trkpt>
      <trkpt lat="45.43059" lon="5.6875">
        <ele>818</ele>
        <time>2023-04-10T09:32:16Z</time>
      </trkpt>
      <trkpt lat="45.43055" lon="5.68745">
        <ele>818</ele>
        <time>2023-04-10T09:32:17Z</time>
      </trkpt>
      <trkpt lat="45.4305" lon="5.6874">
        <ele>818</ele>
        <time>2023-04-10T09:32:18Z</time>
      </trkpt>
      <trkpt lat="45.43045" lon="5.68736">
        <ele>818</ele>
        <time>2023-04-10T09:32:19Z</time>
      </trkpt>
      <trkpt lat="45.4304" lon="5.68732">
        <ele>817</ele>
        <time>2023-04-10T09:32:20Z</time>
      </trkpt>
      <trkpt lat="45.43034" lon="5.68729">
        <ele>817</ele>
        <time>2023-04-10T09:32:21Z</time>
      </trkpt>
      <trkpt lat="45.43029" lon="5.68726">
        <ele>817</ele>
        <time>2023-04-10T09:32:22Z</time>
      </trkpt>
      <trkpt lat="45.43024" lon="5.68722">
        <ele>817</ele>
        <time>2023-04-10T09:32:23Z</time>
      </trkpt>
      <trkpt lat="45.43019" lon="5.68719">
        <ele>816</ele>
        <time>2023-04-10T09:32:24Z</time>
      </trkpt>
      <trkpt lat="45.43014" lon="5.68716">
        <ele>816</ele>
        <time>2023-04-10T09:32:25Z</time>
      </trkpt>
      <trkpt lat="45.43009" lon="5.68713">
        <ele>816</ele>
        <time>2023-04-10T09:32:26Z</time>
      </trkpt>
      <trkpt lat="45.43005" lon="5.6871">
        <ele>816</ele>
        <time>2023-04-10T09:32:27Z</time>
      </trkpt>
      <trkpt lat="45.43001" lon="5.68705">
        <ele>816</ele>
        <time>2023-04-10T09:32:28Z</time>
      </trkpt>
      <trkpt lat="45.42998" lon="5.68701">
        <ele>816</ele>
        <time>2023-04-10T09:32:29Z</time>
      </trkpt>
      <trkpt lat="45.42995" lon="5.68697">
        <ele>816</ele>
        <time>2023-04-10T09:32:30Z</time>
      </trkpt>
      <trkpt lat="45.42993" lon="5.68693">
        <ele>817</ele>
        <time>2023-04-10T09:32:31Z</time>
      </trkpt>
      <trkpt lat="45.42991" lon="5.68689">
        <ele>817</ele>
        <time>2023-04-10T09:32:32Z</time>
      </trkpt>
      <trkpt lat="45.4299" lon="5.68685">
        <ele>817</ele>
        <time>2023-04-10T09:32:33Z</time>
      </trkpt>
      <trkpt lat="45.42989" lon="5.68682">
        <ele>817</ele>
        <time>2023-04-10T09:32:34Z</time>
      </trkpt>
      <trkpt lat="45.42988" lon="5.68679">
        <ele>817</ele>
        <time>2023-04-10T09:32:35Z</time>
      </trkpt>
      <trkpt lat="45.42988" lon="5.68676">
        <ele>817</ele>
        <time>2023-04-10T09:32:36Z</time>
      </trkpt>
      <trkpt lat="45.42987" lon="5.68673">
        <ele>817</ele>
        <time>2023-04-10T09:32:37Z</time>
      </trkpt>
      <trkpt lat="45.42986" lon="5.6867">
        <ele>818</ele>
        <time>2023-04-10T09:32:38Z</time>
      </trkpt>
      <trkpt lat="45.42986" lon="5.68667">
        <ele>819</ele>
        <time>2023-04-10T09:32:39Z</time>
      </trkpt>
      <trkpt lat="45.42985" lon="5.68664">
        <ele>819</ele>
        <time>2023-04-10T09:32:40Z</time>
      </trkpt>
      <trkpt lat="45.42985" lon="5.68661">
        <ele>819</ele>
        <time>2023-04-10T09:32:41Z</time>
      </trkpt>
      <trkpt lat="45.42984" lon="5.68658">
        <ele>820</ele>
        <time>2023-04-10T09:32:42Z</time>
      </trkpt>
      <trkpt lat="45.42983" lon="5.68655">
        <ele>820</ele>
        <time>2023-04-10T09:32:43Z</time>
      </trkpt>
      <trkpt lat="45.42983" lon="5.68652">
        <ele>820</ele>
        <time>2023-04-10T09:32:44Z</time>
      </trkpt>
      <trkpt lat="45.42982" lon="5.68649">
        <ele>820</ele>
        <time>2023-04-10T09:32:45Z</time>
      </trkpt>
      <trkpt lat="45.42982" lon="5.68646">
        <ele>820</ele>
        <time>2023-04-10T09:32:46Z</time>
      </trkpt>
      <trkpt lat="45.42982" lon="5.68643">
        <ele>820</ele>
        <time>2023-04-10T09:32:47Z</time>
      </trkpt>
      <trkpt lat="45.42981" lon="5.68641">
        <ele>820</ele>
        <time>2023-04-10T09:32:48Z</time>
      </trkpt>
      <trkpt lat="45.42981" lon="5.68638">
        <ele>820</ele>
        <time>2023-04-10T09:32:49Z</time>
      </trkpt>
      <trkpt lat="45.4298" lon="5.68635">
        <ele>821</ele>
        <time>2023-04-10T09:32:50Z</time>
      </trkpt>
      <trkpt lat="45.4298" lon="5.68632">
        <ele>821</ele>
        <time>2023-04-10T09:32:51Z</time>
      </trkpt>
      <trkpt lat="45.42979" lon="5.68629">
        <ele>821</ele>
        <time>2023-04-10T09:32:52Z</time>
      </trkpt>
      <trkpt lat="45.42979" lon="5.68626">
        <ele>822</ele>
        <time>2023-04-10T09:32:53Z</time>
      </trkpt>
      <trkpt lat="45.42979" lon="5.68623">
        <ele>822</ele>
        <time>2023-04-10T09:32:54Z</time>
      </trkpt>
      <trkpt lat="45.42979" lon="5.68619">
        <ele>822</ele>
        <time>2023-04-10T09:32:55Z</time>
      </trkpt>
      <trkpt lat="45.42979" lon="5.68616">
        <ele>823</ele>
        <time>2023-04-10T09:32:56Z</time>
      </trkpt>
      <trkpt lat="45.42979" lon="5.68613">
        <ele>823</ele>
        <time>2023-04-10T09:32:57Z</time>
      </trkpt>
      <trkpt lat="45.42979" lon="5.6861">
        <ele>823</ele>
        <time>2023-04-10T09:32:58Z</time>
      </trkpt>
      <trkpt lat="45.42979" lon="5.68606">
        <ele>823</ele>
        <time>2023-04-10T09:32:59Z</time>
      </trkpt>
      <trkpt lat="45.42979" lon="5.68603">
        <ele>823</ele>
        <time>2023-04-10T09:33:00Z</time>
      </trkpt>
      <trkpt lat="45.42979" lon="5.686">
        <ele>823</ele>
        <time>2023-04-10T09:33:01Z</time>
      </trkpt>
      <trkpt lat="45.42979" lon="5.68597">
        <ele>824</ele>
        <time>2023-04-10T09:33:02Z</time>
      </trkpt>
      <trkpt lat="45.4298" lon="5.68594">
        <ele>824</ele>
        <time>2023-04-10T09:33:03Z</time>
      </trkpt>
      <trkpt lat="45.4298" lon="5.68591">
        <ele>824</ele>
        <time>2023-04-10T09:33:04Z</time>
      </trkpt>
      <trkpt lat="45.4298" lon="5.68588">
        <ele>824</ele>
        <time>2023-04-10T09:33:05Z</time>
      </trkpt>
      <trkpt lat="45.4298" lon="5.68584">
        <ele>824</ele>
        <time>2023-04-10T09:33:06Z</time>
      </trkpt>
      <trkpt lat="45.42981" lon="5.68581">
        <ele>824</ele>
        <time>2023-04-10T09:33:07Z</time>
      </trkpt>
      <trkpt lat="45.42981" lon="5.68578">
        <ele>825</ele>
        <time>2023-04-10T09:33:08Z</time>
      </trkpt>
      <trkpt lat="45.42982" lon="5.68575">
        <ele>825</ele>
        <time>2023-04-10T09:33:09Z</time>
      </trkpt>
      <trkpt lat="45.42982" lon="5.68572">
        <ele>826</ele>
        <time>2023-04-10T09:33:10Z</time>
      </trkpt>
      <trkpt lat="45.42983" lon="5.68569">
        <ele>826</ele>
        <time>2023-04-10T09:33:11Z</time>
      </trkpt>
      <trkpt lat="45.42983" lon="5.68566">
        <ele>826</ele>
        <time>2023-04-10T09:33:12Z</time>
      </trkpt>
      <trkpt lat="45.42984" lon="5.68563">
        <ele>827</ele>
        <time>2023-04-10T09:33:13Z</time>
      </trkpt>
      <trkpt lat="45.42985" lon="5.6856">
        <ele>827</ele>
        <time>2023-04-10T09:33:14Z</time>
      </trkpt>
      <trkpt lat="45.42985" lon="5.68557">
        <ele>827</ele>
        <time>2023-04-10T09:33:15Z</time>
      </trkpt>
      <trkpt lat="45.42986" lon="5.68554">
        <ele>826</ele>
        <time>2023-04-10T09:33:16Z</time>
      </trkpt>
      <trkpt lat="45.42987" lon="5.68552">
        <ele>827</ele>
        <time>2023-04-10T09:33:17Z</time>
      </trkpt>
      <trkpt lat="45.42988" lon="5.68549">
        <ele>827</ele>
        <time>2023-04-10T09:33:18Z</time>
      </trkpt>
      <trkpt lat="45.42989" lon="5.68546">
        <ele>827</ele>
        <time>2023-04-10T09:33:19Z</time>
      </trkpt>
      <trkpt lat="45.4299" lon="5.68543">
        <ele>827</ele>
        <time>2023-04-10T09:33:20Z</time>
      </trkpt>
      <trkpt lat="45.42991" lon="5.68541">
        <ele>827</ele>
        <time>2023-04-10T09:33:21Z</time>
      </trkpt>
      <trkpt lat="45.42992" lon="5.68538">
        <ele>827</ele>
        <time>2023-04-10T09:33:22Z</time>
      </trkpt>
      <trkpt lat="45.42993" lon="5.68535">
        <ele>827</ele>
        <time>2023-04-10T09:33:23Z</time>
      </trkpt>
      <trkpt lat="45.42993" lon="5.68532">
        <ele>828</ele>
        <time>2023-04-10T09:33:24Z</time>
      </trkpt>
      <trkpt lat="45.42994" lon="5.68529">
        <ele>828</ele>
        <time>2023-04-10T09:33:25Z</time>
      </trkpt>
      <trkpt lat="45.42994" lon="5.68526">
        <ele>828</ele>
        <time>2023-04-10T09:33:26Z</time>
      </trkpt>
      <trkpt lat="45.42994" lon="5.68523">
        <ele>828</ele>
        <time>2023-04-10T09:33:27Z</time>
      </trkpt>
      <trkpt lat="45.42994" lon="5.68521">
        <ele>829</ele>
        <time>2023-04-10T09:33:28Z</time>
      </trkpt>
      <trkpt lat="45.42994" lon="5.68518">
        <ele>829</ele>
        <time>2023-04-10T09:33:29Z</time>
      </trkpt>
      <trkpt lat="45.42995" lon="5.68515">
        <ele>830</ele>
        <time>2023-04-10T09:33:30Z</time>
      </trkpt>
      <trkpt lat="45.42995" lon="5.68513">
        <ele>830</ele>
        <time>2023-04-10T09:33:31Z</time>
      </trkpt>
      <trkpt lat="45.42995" lon="5.6851">
        <ele>830</ele>
        <time>2023-04-10T09:33:32Z</time>
      </trkpt>
      <trkpt lat="45.42995" lon="5.68507">
        <ele>830</ele>
        <time>2023-04-10T09:33:33Z</time>
      </trkpt>
      <trkpt lat="45.42994" lon="5.68504">
        <ele>831</ele>
        <time>2023-04-10T09:33:34Z</time>
      </trkpt>
      <trkpt lat="45.42994" lon="5.68502">
        <ele>831</ele>
        <time>2023-04-10T09:33:35Z</time>
      </trkpt>
      <trkpt lat="45.42994" lon="5.68499">
        <ele>831</ele>
        <time>2023-04-10T09:33:36Z</time>
      </trkpt>
      <trkpt lat="45.42993" lon="5.68497">
        <ele>832</ele>
        <time>2023-04-10T09:33:37Z</time>
      </trkpt>
      <trkpt lat="45.42992" lon="5.68492">
        <ele>833</ele>
        <time>2023-04-10T09:33:39Z</time>
      </trkpt>
      <trkpt lat="45.42991" lon="5.68488">
        <ele>833</ele>
        <time>2023-04-10T09:33:41Z</time>
      </trkpt>
      <trkpt lat="45.4299" lon="5.68483">
        <ele>833</ele>
        <time>2023-04-10T09:33:43Z</time>
      </trkpt>
      <trkpt lat="45.42989" lon="5.68479">
        <ele>833</ele>
        <time>2023-04-10T09:33:45Z</time>
      </trkpt>
      <trkpt lat="45.42987" lon="5.68475">
        <ele>833</ele>
        <time>2023-04-10T09:33:47Z</time>
      </trkpt>
      <trkpt lat="45.42986" lon="5.68471">
        <ele>835</ele>
        <time>2023-04-10T09:33:49Z</time>
      </trkpt>
      <trkpt lat="45.42985" lon="5.68466">
        <ele>835</ele>
        <time>2023-04-10T09:33:51Z</time>
      </trkpt>
      <trkpt lat="45.42984" lon="5.68462">
        <ele>835</ele>
        <time>2023-04-10T09:33:53Z</time>
      </trkpt>
      <trkpt lat="45.42982" lon="5.68458">
        <ele>836</ele>
        <time>2023-04-10T09:33:55Z</time>
      </trkpt>
      <trkpt lat="45.42981" lon="5.68454">
        <ele>837</ele>
        <time>2023-04-10T09:33:57Z</time>
      </trkpt>
      <trkpt lat="45.4298" lon="5.6845">
        <ele>837</ele>
        <time>2023-04-10T09:33:59Z</time>
      </trkpt>
      <trkpt lat="45.42978" lon="5.68445">
        <ele>839</ele>
        <time>2023-04-10T09:34:01Z</time>
      </trkpt>
      <trkpt lat="45.42977" lon="5.68441">
        <ele>840</ele>
        <time>2023-04-10T09:34:03Z</time>
      </trkpt>
      <trkpt lat="45.42976" lon="5.68437">
        <ele>839</ele>
        <time>2023-04-10T09:34:05Z</time>
      </trkpt>
      <trkpt lat="45.42975" lon="5.68433">
        <ele>840</ele>
        <time>2023-04-10T09:34:07Z</time>
      </trkpt>
      <trkpt lat="45.42974" lon="5.68429">
        <ele>840</ele>
        <time>2023-04-10T09:34:09Z</time>
      </trkpt>
      <trkpt lat="45.42974" lon="5.68425">
        <ele>840</ele>
        <time>2023-04-10T09:34:11Z</time>
      </trkpt>
      <trkpt lat="45.42973" lon="5.6842">
        <ele>841</ele>
        <time>2023-04-10T09:34:13Z</time>
      </trkpt>
      <trkpt lat="45.42973" lon="5.68416">
        <ele>841</ele>
        <time>2023-04-10T09:34:15Z</time>
      </trkpt>
      <trkpt lat="45.42973" lon="5.68411">
        <ele>842</ele>
        <time>2023-04-10T09:34:17Z</time>
      </trkpt>
      <trkpt lat="45.42973" lon="5.68408">
        <ele>842</ele>
        <time>2023-04-10T09:34:18Z</time>
      </trkpt>
      <trkpt lat="45.42973" lon="5.68405">
        <ele>843</ele>
        <time>2023-04-10T09:34:19Z</time>
      </trkpt>
      <trkpt lat="45.42973" lon="5.68403">
        <ele>843</ele>
        <time>2023-04-10T09:34:20Z</time>
      </trkpt>
      <trkpt lat="45.42974" lon="5.684">
        <ele>843</ele>
        <time>2023-04-10T09:34:21Z</time>
      </trkpt>
      <trkpt lat="45.42975" lon="5.68398">
        <ele>843</ele>
        <time>2023-04-10T09:34:22Z</time>
      </trkpt>
      <trkpt lat="45.42976" lon="5.68395">
        <ele>843</ele>
        <time>2023-04-10T09:34:23Z</time>
      </trkpt>
      <trkpt lat="45.42977" lon="5.68393">
        <ele>844</ele>
        <time>2023-04-10T09:34:24Z</time>
      </trkpt>
      <trkpt lat="45.42978" lon="5.68391">
        <ele>844</ele>
        <time>2023-04-10T09:34:25Z</time>
      </trkpt>
      <trkpt lat="45.42979" lon="5.68389">
        <ele>844</ele>
        <time>2023-04-10T09:34:26Z</time>
      </trkpt>
      <trkpt lat="45.4298" lon="5.68387">
        <ele>844</ele>
        <time>2023-04-10T09:34:27Z</time>
      </trkpt>
      <trkpt lat="45.42981" lon="5.68384">
        <ele>845</ele>
        <time>2023-04-10T09:34:28Z</time>
      </trkpt>
      <trkpt lat="45.42982" lon="5.68382">
        <ele>845</ele>
        <time>2023-04-10T09:34:29Z</time>
      </trkpt>
      <trkpt lat="45.42983" lon="5.6838">
        <ele>845</ele>
        <time>2023-04-10T09:34:30Z</time>
      </trkpt>
      <trkpt lat="45.42984" lon="5.68378">
        <ele>846</ele>
        <time>2023-04-10T09:34:31Z</time>
      </trkpt>
      <trkpt lat="45.42985" lon="5.68376">
        <ele>846</ele>
        <time>2023-04-10T09:34:32Z</time>
      </trkpt>
      <trkpt lat="45.42987" lon="5.68374">
        <ele>846</ele>
        <time>2023-04-10T09:34:33Z</time>
      </trkpt>
      <trkpt lat="45.42989" lon="5.6837">
        <ele>846</ele>
        <time>2023-04-10T09:34:35Z</time>
      </trkpt>
      <trkpt lat="45.4299" lon="5.68366">
        <ele>846</ele>
        <time>2023-04-10T09:34:37Z</time>
      </trkpt>
      <trkpt lat="45.42992" lon="5.68362">
        <ele>847</ele>
        <time>2023-04-10T09:34:39Z</time>
      </trkpt>
      <trkpt lat="45.42994" lon="5.68359">
        <ele>847</ele>
        <time>2023-04-10T09:34:41Z</time>
      </trkpt>
      <trkpt lat="45.42995" lon="5.68355">
        <ele>848</ele>
        <time>2023-04-10T09:34:43Z</time>
      </trkpt>
      <trkpt lat="45.42997" lon="5.68351">
        <ele>849</ele>
        <time>2023-04-10T09:34:45Z</time>
      </trkpt>
      <trkpt lat="45.42999" lon="5.68348">
        <ele>849</ele>
        <time>2023-04-10T09:34:47Z</time>
      </trkpt>
      <trkpt lat="45.43001" lon="5.68345">
        <ele>850</ele>
        <time>2023-04-10T09:34:49Z</time>
      </trkpt>
      <trkpt lat="45.43002" lon="5.68341">
        <ele>850</ele>
        <time>2023-04-10T09:34:51Z</time>
      </trkpt>
      <trkpt lat="45.43004" lon="5.68338">
        <ele>851</ele>
        <time>2023-04-10T09:34:53Z</time>
      </trkpt>
      <trkpt lat="45.43006" lon="5.68335">
        <ele>852</ele>
        <time>2023-04-10T09:34:55Z</time>
      </trkpt>
      <trkpt lat="45.43008" lon="5.68331">
        <ele>853</ele>
        <time>2023-04-10T09:34:57Z</time>
      </trkpt>
      <trkpt lat="45.43009" lon="5.68328">
        <ele>853</ele>
        <time>2023-04-10T09:34:59Z</time>
      </trkpt>
      <trkpt lat="45.43012" lon="5.68325">
        <ele>853</ele>
        <time>2023-04-10T09:35:01Z</time>
      </trkpt>
      <trkpt lat="45.43013" lon="5.68322">
        <ele>854</ele>
        <time>2023-04-10T09:35:03Z</time>
      </trkpt>
      <trkpt lat="45.43015" lon="5.68318">
        <ele>855</ele>
        <time>2023-04-10T09:35:05Z</time>
      </trkpt>
      <trkpt lat="45.43017" lon="5.68315">
        <ele>855</ele>
        <time>2023-04-10T09:35:07Z</time>
      </trkpt>
      <trkpt lat="45.43019" lon="5.68311">
        <ele>855</ele>
        <time>2023-04-10T09:35:09Z</time>
      </trkpt>
      <trkpt lat="45.4302" lon="5.68307">
        <ele>856</ele>
        <time>2023-04-10T09:35:11Z</time>
      </trkpt>
      <trkpt lat="45.43021" lon="5.68303">
        <ele>857</ele>
        <time>2023-04-10T09:35:13Z</time>
      </trkpt>
      <trkpt lat="45.43022" lon="5.68299">
        <ele>858</ele>
        <time>2023-04-10T09:35:15Z</time>
      </trkpt>
      <trkpt lat="45.43024" lon="5.68295">
        <ele>858</ele>
        <time>2023-04-10T09:35:17Z</time>
      </trkpt>
      <trkpt lat="45.43024" lon="5.68291">
        <ele>859</ele>
        <time>2023-04-10T09:35:19Z</time>
      </trkpt>
      <trkpt lat="45.43025" lon="5.68286">
        <ele>859</ele>
        <time>2023-04-10T09:35:21Z</time>
      </trkpt>
      <trkpt lat="45.43026" lon="5.68282">
        <ele>860</ele>
        <time>2023-04-10T09:35:23Z</time>
      </trkpt>
      <trkpt lat="45.43027" lon="5.68278">
        <ele>860</ele>
        <time>2023-04-10T09:35:25Z</time>
      </trkpt>
      <trkpt lat="45.43027" lon="5.68273">
        <ele>860</ele>
        <time>2023-04-10T09:35:27Z</time>
      </trkpt>
      <trkpt lat="45.43028" lon="5.68269">
        <ele>861</ele>
        <time>2023-04-10T09:35:29Z</time>
      </trkpt>
      <trkpt lat="45.43028" lon="5.68264">
        <ele>861</ele>
        <time>2023-04-10T09:35:31Z</time>
      </trkpt>
      <trkpt lat="45.43029" lon="5.6826">
        <ele>862</ele>
        <time>2023-04-10T09:35:33Z</time>
      </trkpt>
      <trkpt lat="45.43029" lon="5.68255">
        <ele>863</ele>
        <time>2023-04-10T09:35:35Z</time>
      </trkpt>
      <trkpt lat="45.43029" lon="5.6825">
        <ele>863</ele>
        <time>2023-04-10T09:35:37Z</time>
      </trkpt>
      <trkpt lat="45.43031" lon="5.68246">
        <ele>863</ele>
        <time>2023-04-10T09:35:39Z</time>
      </trkpt>
      <trkpt lat="45.43032" lon="5.68242">
        <ele>863</ele>
        <time>2023-04-10T09:35:41Z</time>
      </trkpt>
      <trkpt lat="45.43033" lon="5.68237">
        <ele>864</ele>
        <time>2023-04-10T09:35:43Z</time>
      </trkpt>
      <trkpt lat="45.43034" lon="5.68233">
        <ele>864</ele>
        <time>2023-04-10T09:35:45Z</time>
      </trkpt>
      <trkpt lat="45.43035" lon="5.68229">
        <ele>866</ele>
        <time>2023-04-10T09:35:47Z</time>
      </trkpt>
      <trkpt lat="45.43036" lon="5.68224">
        <ele>866</ele>
        <time>2023-04-10T09:35:49Z</time>
      </trkpt>
      <trkpt lat="45.43037" lon="5.6822">
        <ele>867</ele>
        <time>2023-04-10T09:35:51Z</time>
      </trkpt>
      <trkpt lat="45.43037" lon="5.68215">
        <ele>867</ele>
        <time>2023-04-10T09:35:53Z</time>
      </trkpt>
      <trkpt lat="45.43038" lon="5.68211">
        <ele>867</ele>
        <time>2023-04-10T09:35:55Z</time>
      </trkpt>
      <trkpt lat="45.43039" lon="5.68206">
        <ele>868</ele>
        <time>2023-04-10T09:35:57Z</time>
      </trkpt>
      <trkpt lat="45.43039" lon="5.68202">
        <ele>869</ele>
        <time>2023-04-10T09:35:59Z</time>
      </trkpt>
      <trkpt lat="45.43039" lon="5.68197">
        <ele>870</ele>
        <time>2023-04-10T09:36:01Z</time>
      </trkpt>
      <trkpt lat="45.4304" lon="5.68193">
        <ele>870</ele>
        <time>2023-04-10T09:36:03Z</time>
      </trkpt>
      <trkpt lat="45.4304" lon="5.68188">
        <ele>871</ele>
        <time>2023-04-10T09:36:05Z</time>
      </trkpt>
      <trkpt lat="45.4304" lon="5.68184">
        <ele>871</ele>
        <time>2023-04-10T09:36:07Z</time>
      </trkpt>
      <trkpt lat="45.4304" lon="5.68179">
        <ele>871</ele>
        <time>2023-04-10T09:36:09Z</time>
      </trkpt>
      <trkpt lat="45.4304" lon="5.68175">
        <ele>872</ele>
        <time>2023-04-10T09:36:11Z</time>
      </trkpt>
      <trkpt lat="45.4304" lon="5.6817">
        <ele>873</ele>
        <time>2023-04-10T09:36:13Z</time>
      </trkpt>
      <trkpt lat="45.4304" lon="5.68165">
        <ele>874</ele>
        <time>2023-04-10T09:36:15Z</time>
      </trkpt>
      <trkpt lat="45.43041" lon="5.6816">
        <ele>874</ele>
        <time>2023-04-10T09:36:17Z</time>
      </trkpt>
      <trkpt lat="45.43041" lon="5.68155">
        <ele>874</ele>
        <time>2023-04-10T09:36:19Z</time>
      </trkpt>
      <trkpt lat="45.43041" lon="5.68153">
        <ele>874</ele>
        <time>2023-04-10T09:36:20Z</time>
      </trkpt>
      <trkpt lat="45.43041" lon="5.6815">
        <ele>874</ele>
        <time>2023-04-10T09:36:21Z</time>
      </trkpt>
      <trkpt lat="45.43041" lon="5.68147">
        <ele>875</ele>
        <time>2023-04-10T09:36:22Z</time>
      </trkpt>
      <trkpt lat="45.43042" lon="5.68144">
        <ele>875</ele>
        <time>2023-04-10T09:36:23Z</time>
      </trkpt>
      <trkpt lat="45.43042" lon="5.68141">
        <ele>875</ele>
        <time>2023-04-10T09:36:24Z</time>
      </trkpt>
      <trkpt lat="45.43042" lon="5.68139">
        <ele>875</ele>
        <time>2023-04-10T09:36:25Z</time>
      </trkpt>
      <trkpt lat="45.43042" lon="5.68135">
        <ele>875</ele>
        <time>2023-04-10T09:36:26Z</time>
      </trkpt>
      <trkpt lat="45.43042" lon="5.68132">
        <ele>875</ele>
        <time>2023-04-10T09:36:27Z</time>
      </trkpt>
      <trkpt lat="45.43042" lon="5.68129">
        <ele>875</ele>
        <time>2023-04-10T09:36:28Z</time>
      </trkpt>
      <trkpt lat="45.43042" lon="5.68126">
        <ele>875</ele>
        <time>2023-04-10T09:36:29Z</time>
      </trkpt>
      <trkpt lat="45.43042" lon="5.68122">
        <ele>875</ele>
        <time>2023-04-10T09:36:30Z</time>
      </trkpt>
      <trkpt lat="45.43042" lon="5.68119">
        <ele>875</ele>
        <time>2023-04-10T09:36:31Z</time>
      </trkpt>
      <trkpt lat="45.43043" lon="5.68115">
        <ele>875</ele>
        <time>2023-04-10T09:36:32Z</time>
      </trkpt>
      <trkpt lat="45.43043" lon="5.68112">
        <ele>875</ele>
        <time>2023-04-10T09:36:33Z</time>
      </trkpt>
      <trkpt lat="45.43043" lon="5.6811">
        <ele>875</ele>
        <time>2023-04-10T09:36:34Z</time>
      </trkpt>
      <trkpt lat="45.43044" lon="5.68107">
        <ele>875</ele>
        <time>2023-04-10T09:36:35Z</time>
      </trkpt>
      <trkpt lat="45.43044" lon="5.68104">
        <ele>875</ele>
        <time>2023-04-10T09:36:36Z</time>
      </trkpt>
      <trkpt lat="45.43045" lon="5.68101">
        <ele>875</ele>
        <time>2023-04-10T09:36:37Z</time>
      </trkpt>
      <trkpt lat="45.43047" lon="5.68098">
        <ele>875</ele>
        <time>2023-04-10T09:36:38Z</time>
      </trkpt>
      <trkpt lat="45.43049" lon="5.68095">
        <ele>875</ele>
        <time>2023-04-10T09:36:39Z</time>
      </trkpt>
      <trkpt lat="45.43052" lon="5.68094">
        <ele>875</ele>
        <time>2023-04-10T09:36:40Z</time>
      </trkpt>
      <trkpt lat="45.43055" lon="5.68092">
        <ele>875</ele>
        <time>2023-04-10T09:36:41Z</time>
      </trkpt>
      <trkpt lat="45.43058" lon="5.6809">
        <ele>875</ele>
        <time>2023-04-10T09:36:42Z</time>
      </trkpt>
      <trkpt lat="45.43061" lon="5.6809">
        <ele>875</ele>
        <time>2023-04-10T09:36:43Z</time>
      </trkpt>
      <trkpt lat="45.43065" lon="5.68089">
        <ele>875</ele>
        <time>2023-04-10T09:36:44Z</time>
      </trkpt>
      <trkpt lat="45.43069" lon="5.68089">
        <ele>875</ele>
        <time>2023-04-10T09:36:45Z</time>
      </trkpt>
      <trkpt lat="45.43074" lon="5.68089">
        <ele>875</ele>
        <time>2023-04-10T09:36:46Z</time>
      </trkpt>
      <trkpt lat="45.43078" lon="5.68089">
        <ele>875</ele>
        <time>2023-04-10T09:36:47Z</time>
      </trkpt>
      <trkpt lat="45.43082" lon="5.68089">
        <ele>875</ele>
        <time>2023-04-10T09:36:48Z</time>
      </trkpt>
      <trkpt lat="45.43086" lon="5.68089">
        <ele>875</ele>
        <time>2023-04-10T09:36:49Z</time>
      </trkpt>
      <trkpt lat="45.43091" lon="5.68089">
        <ele>875</ele>
        <time>2023-04-10T09:36:50Z</time>
      </trkpt>
      <trkpt lat="45.43095" lon="5.68089">
        <ele>875</ele>
        <time>2023-04-10T09:36:51Z</time>
      </trkpt>
      <trkpt lat="45.431" lon="5.68089">
        <ele>875</ele>
        <time>2023-04-10T09:36:52Z</time>
      </trkpt>
      <trkpt lat="45.43104" lon="5.68089">
        <ele>875</ele>
        <time>2023-04-10T09:36:53Z</time>
      </trkpt>
      <trkpt lat="45.43108" lon="5.68089">
        <ele>875</ele>
        <time>2023-04-10T09:36:54Z</time>
      </trkpt>
      <trkpt lat="45.43113" lon="5.68089">
        <ele>875</ele>
        <time>2023-04-10T09:36:55Z</time>
      </trkpt>
      <trkpt lat="45.43117" lon="5.68089">
        <ele>875</ele>
        <time>2023-04-10T09:36:56Z</time>
      </trkpt>
      <trkpt lat="45.43122" lon="5.68089">
        <ele>875</ele>
        <time>2023-04-10T09:36:57Z</time>
      </trkpt>
      <trkpt lat="45.43126" lon="5.68088">
        <ele>875</ele>
        <time>2023-04-10T09:36:58Z</time>
      </trkpt>
      <trkpt lat="45.43131" lon="5.68088">
        <ele>875</ele>
        <time>2023-04-10T09:36:59Z</time>
      </trkpt>
      <trkpt lat="45.43136" lon="5.68088">
        <ele>874</ele>
        <time>2023-04-10T09:37:00Z</time>
      </trkpt>
      <trkpt lat="45.43141" lon="5.68088">
        <ele>874</ele>
        <time>2023-04-10T09:37:01Z</time>
      </trkpt>
      <trkpt lat="45.43145" lon="5.68087">
        <ele>874</ele>
        <time>2023-04-10T09:37:02Z</time>
      </trkpt>
      <trkpt lat="45.4315" lon="5.68087">
        <ele>874</ele>
        <time>2023-04-10T09:37:03Z</time>
      </trkpt>
      <trkpt lat="45.43153" lon="5.68087">
        <ele>874</ele>
        <time>2023-04-10T09:37:04Z</time>
      </trkpt>
      <trkpt lat="45.43158" lon="5.68087">
        <ele>874</ele>
        <time>2023-04-10T09:37:05Z</time>
      </trkpt>
      <trkpt lat="45.43162" lon="5.68087">
        <ele>874</ele>
        <time>2023-04-10T09:37:06Z</time>
      </trkpt>
      <trkpt lat="45.43168" lon="5.68088">
        <ele>874</ele>
        <time>2023-04-10T09:37:07Z</time>
      </trkpt>
      <trkpt lat="45.43173" lon="5.6809">
        <ele>873</ele>
        <time>2023-04-10T09:37:08Z</time>
      </trkpt>
      <trkpt lat="45.43179" lon="5.68092">
        <ele>873</ele>
        <time>2023-04-10T09:37:09Z</time>
      </trkpt>
      <trkpt lat="45.43184" lon="5.68094">
        <ele>873</ele>
        <time>2023-04-10T09:37:10Z</time>
      </trkpt>
      <trkpt lat="45.4319" lon="5.68097">
        <ele>873</ele>
        <time>2023-04-10T09:37:11Z</time>
      </trkpt>
      <trkpt lat="45.43196" lon="5.681">
        <ele>873</ele>
        <time>2023-04-10T09:37:12Z</time>
      </trkpt>
      <trkpt lat="45.43201" lon="5.68102">
        <ele>873</ele>
        <time>2023-04-10T09:37:13Z</time>
      </trkpt>
      <trkpt lat="45.43206" lon="5.68103">
        <ele>873</ele>
        <time>2023-04-10T09:37:14Z</time>
      </trkpt>
      <trkpt lat="45.43209" lon="5.68103">
        <ele>873</ele>
        <time>2023-04-10T09:37:15Z</time>
      </trkpt>
      <trkpt lat="45.43213" lon="5.68104">
        <ele>873</ele>
        <time>2023-04-10T09:37:16Z</time>
      </trkpt>
      <trkpt lat="45.43218" lon="5.68105">
        <ele>873</ele>
        <time>2023-04-10T09:37:17Z</time>
      </trkpt>
      <trkpt lat="45.43222" lon="5.68106">
        <ele>873</ele>
        <time>2023-04-10T09:37:18Z</time>
      </trkpt>
      <trkpt lat="45.43226" lon="5.68107">
        <ele>873</ele>
        <time>2023-04-10T09:37:19Z</time>
      </trkpt>
      <trkpt lat="45.43231" lon="5.68106">
        <ele>873</ele>
        <time>2023-04-10T09:37:20Z</time>
      </trkpt>
      <trkpt lat="45.43236" lon="5.68105">
        <ele>873</ele>
        <time>2023-04-10T09:37:21Z</time>
      </trkpt>
      <trkpt lat="45.43241" lon="5.68102">
        <ele>873</ele>
        <time>2023-04-10T09:37:22Z</time>
      </trkpt>
      <trkpt lat="45.43251" lon="5.68097">
        <ele>873</ele>
        <time>2023-04-10T09:37:24Z</time>
      </trkpt>
      <trkpt lat="45.43256" lon="5.68094">
        <ele>873</ele>
        <time>2023-04-10T09:37:25Z</time>
      </trkpt>
      <trkpt lat="45.43264" lon="5.68092">
        <ele>873</ele>
        <time>2023-04-10T09:37:26Z</time>
      </trkpt>
      <trkpt lat="45.4327" lon="5.6809">
        <ele>873</ele>
        <time>2023-04-10T09:37:27Z</time>
      </trkpt>
      <trkpt lat="45.43277" lon="5.6809">
        <ele>872</ele>
        <time>2023-04-10T09:37:28Z</time>
      </trkpt>
      <trkpt lat="45.43285" lon="5.6809">
        <ele>872</ele>
        <time>2023-04-10T09:37:29Z</time>
      </trkpt>
      <trkpt lat="45.43292" lon="5.6809">
        <ele>872</ele>
        <time>2023-04-10T09:37:30Z</time>
      </trkpt>
      <trkpt lat="45.43298" lon="5.68089">
        <ele>872</ele>
        <time>2023-04-10T09:37:31Z</time>
      </trkpt>
      <trkpt lat="45.43303" lon="5.68085">
        <ele>872</ele>
        <time>2023-04-10T09:37:32Z</time>
      </trkpt>
      <trkpt lat="45.43306" lon="5.68081">
        <ele>872</ele>
        <time>2023-04-10T09:37:33Z</time>
      </trkpt>
      <trkpt lat="45.43307" lon="5.68076">
        <ele>871</ele>
        <time>2023-04-10T09:37:34Z</time>
      </trkpt>
      <trkpt lat="45.43307" lon="5.6807">
        <ele>871</ele>
        <time>2023-04-10T09:37:35Z</time>
      </trkpt>
      <trkpt lat="45.43307" lon="5.68064">
        <ele>871</ele>
        <time>2023-04-10T09:37:36Z</time>
      </trkpt>
      <trkpt lat="45.43305" lon="5.68059">
        <ele>872</ele>
        <time>2023-04-10T09:37:37Z</time>
      </trkpt>
      <trkpt lat="45.43304" lon="5.68054">
        <ele>872</ele>
        <time>2023-04-10T09:37:38Z</time>
      </trkpt>
      <trkpt lat="45.43303" lon="5.68049">
        <ele>872</ele>
        <time>2023-04-10T09:37:39Z</time>
      </trkpt>
      <trkpt lat="45.43301" lon="5.68045">
        <ele>873</ele>
        <time>2023-04-10T09:37:40Z</time>
      </trkpt>
      <trkpt lat="45.433" lon="5.6804">
        <ele>873</ele>
        <time>2023-04-10T09:37:41Z</time>
      </trkpt>
      <trkpt lat="45.43299" lon="5.68035">
        <ele>874</ele>
        <time>2023-04-10T09:37:42Z</time>
      </trkpt>
      <trkpt lat="45.433" lon="5.6803">
        <ele>874</ele>
        <time>2023-04-10T09:37:43Z</time>
      </trkpt>
      <trkpt lat="45.433" lon="5.68025">
        <ele>874</ele>
        <time>2023-04-10T09:37:44Z</time>
      </trkpt>
      <trkpt lat="45.433" lon="5.68019">
        <ele>874</ele>
        <time>2023-04-10T09:37:45Z</time>
      </trkpt>
      <trkpt lat="45.433" lon="5.68013">
        <ele>874</ele>
        <time>2023-04-10T09:37:46Z</time>
      </trkpt>
      <trkpt lat="45.43301" lon="5.68008">
        <ele>874</ele>
        <time>2023-04-10T09:37:47Z</time>
      </trkpt>
      <trkpt lat="45.43301" lon="5.68001">
        <ele>874</ele>
        <time>2023-04-10T09:37:48Z</time>
      </trkpt>
      <trkpt lat="45.43301" lon="5.67995">
        <ele>874</ele>
        <time>2023-04-10T09:37:49Z</time>
      </trkpt>
      <trkpt lat="45.43302" lon="5.67989">
        <ele>874</ele>
        <time>2023-04-10T09:37:50Z</time>
      </trkpt>
      <trkpt lat="45.43303" lon="5.67983">
        <ele>874</ele>
        <time>2023-04-10T09:37:51Z</time>
      </trkpt>
      <trkpt lat="45.43303" lon="5.67977">
        <ele>874</ele>
        <time>2023-04-10T09:37:52Z</time>
      </trkpt>
      <trkpt lat="45.43303" lon="5.67971">
        <ele>874</ele>
        <time>2023-04-10T09:37:53Z</time>
      </trkpt>
      <trkpt lat="45.43304" lon="5.67966">
        <ele>875</ele>
        <time>2023-04-10T09:37:54Z</time>
      </trkpt>
      <trkpt lat="45.43304" lon="5.6796">
        <ele>875</ele>
        <time>2023-04-10T09:37:55Z</time>
      </trkpt>
      <trkpt lat="45.43305" lon="5.67954">
        <ele>875</ele>
        <time>2023-04-10T09:37:56Z</time>
      </trkpt>
      <trkpt lat="45.43305" lon="5.67948">
        <ele>875</ele>
        <time>2023-04-10T09:37:57Z</time>
      </trkpt>
      <trkpt lat="45.43306" lon="5.67942">
        <ele>875</ele>
        <time>2023-04-10T09:37:58Z</time>
      </trkpt>
      <trkpt lat="45.43306" lon="5.67936">
        <ele>876</ele>
        <time>2023-04-10T09:37:59Z</time>
      </trkpt>
      <trkpt lat="45.43307" lon="5.6793">
        <ele>876</ele>
        <time>2023-04-10T09:38:00Z</time>
      </trkpt>
      <trkpt lat="45.43307" lon="5.67924">
        <ele>876</ele>
        <time>2023-04-10T09:38:01Z</time>
      </trkpt>
      <trkpt lat="45.43307" lon="5.67919">
        <ele>876</ele>
        <time>2023-04-10T09:38:02Z</time>
      </trkpt>
      <trkpt lat="45.43308" lon="5.67913">
        <ele>876</ele>
        <time>2023-04-10T09:38:03Z</time>
      </trkpt>
      <trkpt lat="45.43308" lon="5.67908">
        <ele>876</ele>
        <time>2023-04-10T09:38:04Z</time>
      </trkpt>
      <trkpt lat="45.43309" lon="5.67903">
        <ele>877</ele>
        <time>2023-04-10T09:38:05Z</time>
      </trkpt>
      <trkpt lat="45.43309" lon="5.67897">
        <ele>877</ele>
        <time>2023-04-10T09:38:06Z</time>
      </trkpt>
      <trkpt lat="45.43309" lon="5.67893">
        <ele>877</ele>
        <time>2023-04-10T09:38:07Z</time>
      </trkpt>
      <trkpt lat="45.43309" lon="5.67888">
        <ele>877</ele>
        <time>2023-04-10T09:38:08Z</time>
      </trkpt>
      <trkpt lat="45.4331" lon="5.67882">
        <ele>877</ele>
        <time>2023-04-10T09:38:09Z</time>
      </trkpt>
      <trkpt lat="45.4331" lon="5.67877">
        <ele>877</ele>
        <time>2023-04-10T09:38:10Z</time>
      </trkpt>
      <trkpt lat="45.4331" lon="5.67872">
        <ele>877</ele>
        <time>2023-04-10T09:38:11Z</time>
      </trkpt>
      <trkpt lat="45.43311" lon="5.67866">
        <ele>877</ele>
        <time>2023-04-10T09:38:12Z</time>
      </trkpt>
      <trkpt lat="45.43311" lon="5.6786">
        <ele>877</ele>
        <time>2023-04-10T09:38:13Z</time>
      </trkpt>
      <trkpt lat="45.43311" lon="5.67854">
        <ele>877</ele>
        <time>2023-04-10T09:38:14Z</time>
      </trkpt>
      <trkpt lat="45.43311" lon="5.67848">
        <ele>877</ele>
        <time>2023-04-10T09:38:15Z</time>
      </trkpt>
      <trkpt lat="45.43311" lon="5.67842">
        <ele>877</ele>
        <time>2023-04-10T09:38:16Z</time>
      </trkpt>
      <trkpt lat="45.43311" lon="5.67835">
        <ele>877</ele>
        <time>2023-04-10T09:38:17Z</time>
      </trkpt>
      <trkpt lat="45.43312" lon="5.67829">
        <ele>877</ele>
        <time>2023-04-10T09:38:18Z</time>
      </trkpt>
      <trkpt lat="45.43313" lon="5.67821">
        <ele>877</ele>
        <time>2023-04-10T09:38:19Z</time>
      </trkpt>
      <trkpt lat="45.43313" lon="5.67813">
        <ele>877</ele>
        <time>2023-04-10T09:38:20Z</time>
      </trkpt>
      <trkpt lat="45.43313" lon="5.67804">
        <ele>877</ele>
        <time>2023-04-10T09:38:21Z</time>
      </trkpt>
      <trkpt lat="45.43313" lon="5.67794">
        <ele>877</ele>
        <time>2023-04-10T09:38:22Z</time>
      </trkpt>
      <trkpt lat="45.43313" lon="5.67784">
        <ele>877</ele>
        <time>2023-04-10T09:38:23Z</time>
      </trkpt>
      <trkpt lat="45.43312" lon="5.67775">
        <ele>877</ele>
        <time>2023-04-10T09:38:24Z</time>
      </trkpt>
      <trkpt lat="45.43311" lon="5.67765">
        <ele>877</ele>
        <time>2023-04-10T09:38:25Z</time>
      </trkpt>
      <trkpt lat="45.43309" lon="5.67754">
        <ele>877</ele>
        <time>2023-04-10T09:38:26Z</time>
      </trkpt>
      <trkpt lat="45.43306" lon="5.67744">
        <ele>877</ele>
        <time>2023-04-10T09:38:27Z</time>
      </trkpt>
      <trkpt lat="45.43303" lon="5.67733">
        <ele>877</ele>
        <time>2023-04-10T09:38:28Z</time>
      </trkpt>
      <trkpt lat="45.433" lon="5.67722">
        <ele>877</ele>
        <time>2023-04-10T09:38:29Z</time>
      </trkpt>
      <trkpt lat="45.43296" lon="5.67711">
        <ele>877</ele>
        <time>2023-04-10T09:38:30Z</time>
      </trkpt>
      <trkpt lat="45.43291" lon="5.67702">
        <ele>877</ele>
        <time>2023-04-10T09:38:31Z</time>
      </trkpt>
      <trkpt lat="45.43286" lon="5.67692">
        <ele>876</ele>
        <time>2023-04-10T09:38:32Z</time>
      </trkpt>
      <trkpt lat="45.4328" lon="5.67683">
        <ele>875</ele>
        <time>2023-04-10T09:38:33Z</time>
      </trkpt>
      <trkpt lat="45.43274" lon="5.67673">
        <ele>875</ele>
        <time>2023-04-10T09:38:34Z</time>
      </trkpt>
      <trkpt lat="45.43268" lon="5.67663">
        <ele>874</ele>
        <time>2023-04-10T09:38:35Z</time>
      </trkpt>
      <trkpt lat="45.43262" lon="5.67653">
        <ele>873</ele>
        <time>2023-04-10T09:38:36Z</time>
      </trkpt>
      <trkpt lat="45.43256" lon="5.67642">
        <ele>872</ele>
        <time>2023-04-10T09:38:37Z</time>
      </trkpt>
      <trkpt lat="45.4325" lon="5.67632">
        <ele>871</ele>
        <time>2023-04-10T09:38:38Z</time>
      </trkpt>
      <trkpt lat="45.43243" lon="5.67621">
        <ele>870</ele>
        <time>2023-04-10T09:38:39Z</time>
      </trkpt>
      <trkpt lat="45.43236" lon="5.6761">
        <ele>869</ele>
        <time>2023-04-10T09:38:40Z</time>
      </trkpt>
      <trkpt lat="45.43229" lon="5.676">
        <ele>868</ele>
        <time>2023-04-10T09:38:41Z</time>
      </trkpt>
      <trkpt lat="45.43222" lon="5.67588">
        <ele>868</ele>
        <time>2023-04-10T09:38:42Z</time>
      </trkpt>
      <trkpt lat="45.43215" lon="5.67576">
        <ele>868</ele>
        <time>2023-04-10T09:38:43Z</time>
      </trkpt>
      <trkpt lat="45.43207" lon="5.67566">
        <ele>867</ele>
        <time>2023-04-10T09:38:44Z</time>
      </trkpt>
      <trkpt lat="45.43199" lon="5.67556">
        <ele>867</ele>
        <time>2023-04-10T09:38:45Z</time>
      </trkpt>
      <trkpt lat="45.43193" lon="5.67544">
        <ele>866</ele>
        <time>2023-04-10T09:38:46Z</time>
      </trkpt>
      <trkpt lat="45.43187" lon="5.67531">
        <ele>864</ele>
        <time>2023-04-10T09:38:47Z</time>
      </trkpt>
      <trkpt lat="45.43181" lon="5.67517">
        <ele>863</ele>
        <time>2023-04-10T09:38:48Z</time>
      </trkpt>
      <trkpt lat="45.43175" lon="5.67502">
        <ele>862</ele>
        <time>2023-04-10T09:38:49Z</time>
      </trkpt>
      <trkpt lat="45.43169" lon="5.67487">
        <ele>862</ele>
        <time>2023-04-10T09:38:50Z</time>
      </trkpt>
      <trkpt lat="45.43165" lon="5.67471">
        <ele>861</ele>
        <time>2023-04-10T09:38:51Z</time>
      </trkpt>
      <trkpt lat="45.43161" lon="5.67455">
        <ele>861</ele>
        <time>2023-04-10T09:38:52Z</time>
      </trkpt>
      <trkpt lat="45.43159" lon="5.67438">
        <ele>860</ele>
        <time>2023-04-10T09:38:53Z</time>
      </trkpt>
      <trkpt lat="45.43158" lon="5.67421">
        <ele>859</ele>
        <time>2023-04-10T09:38:54Z</time>
      </trkpt>
      <trkpt lat="45.43159" lon="5.67404">
        <ele>858</ele>
        <time>2023-04-10T09:38:55Z</time>
      </trkpt>
      <trkpt lat="45.43161" lon="5.67386">
        <ele>857</ele>
        <time>2023-04-10T09:38:56Z</time>
      </trkpt>
      <trkpt lat="45.43164" lon="5.67369">
        <ele>856</ele>
        <time>2023-04-10T09:38:57Z</time>
      </trkpt>
      <trkpt lat="45.43167" lon="5.67352">
        <ele>855</ele>
        <time>2023-04-10T09:38:58Z</time>
      </trkpt>
      <trkpt lat="45.43169" lon="5.67335">
        <ele>854</ele>
        <time>2023-04-10T09:38:59Z</time>
      </trkpt>
      <trkpt lat="45.43172" lon="5.67318">
        <ele>852</ele>
        <time>2023-04-10T09:39:00Z</time>
      </trkpt>
      <trkpt lat="45.43175" lon="5.67301">
        <ele>852</ele>
        <time>2023-04-10T09:39:01Z</time>
      </trkpt>
      <trkpt lat="45.43177" lon="5.67284">
        <ele>851</ele>
        <time>2023-04-10T09:39:02Z</time>
      </trkpt>
      <trkpt lat="45.43177" lon="5.67267">
        <ele>850</ele>
        <time>2023-04-10T09:39:03Z</time>
      </trkpt>
      <trkpt lat="45.43177" lon="5.6725">
        <ele>850</ele>
        <time>2023-04-10T09:39:04Z</time>
      </trkpt>
      <trkpt lat="45.43174" lon="5.67232">
        <ele>850</ele>
        <time>2023-04-10T09:39:05Z</time>
      </trkpt>
      <trkpt lat="45.43169" lon="5.67215">
        <ele>849</ele>
        <time>2023-04-10T09:39:06Z</time>
      </trkpt>
      <trkpt lat="45.43165" lon="5.67197">
        <ele>848</ele>
        <time>2023-04-10T09:39:07Z</time>
      </trkpt>
      <trkpt lat="45.4316" lon="5.6718">
        <ele>846</ele>
        <time>2023-04-10T09:39:08Z</time>
      </trkpt>
      <trkpt lat="45.43155" lon="5.67163">
        <ele>845</ele>
        <time>2023-04-10T09:39:09Z</time>
      </trkpt>
      <trkpt lat="45.4315" lon="5.67146">
        <ele>844</ele>
        <time>2023-04-10T09:39:10Z</time>
      </trkpt>
      <trkpt lat="45.43145" lon="5.6713">
        <ele>843</ele>
        <time>2023-04-10T09:39:11Z</time>
      </trkpt>
      <trkpt lat="45.4314" lon="5.67113">
        <ele>841</ele>
        <time>2023-04-10T09:39:12Z</time>
      </trkpt>
      <trkpt lat="45.43135" lon="5.67096">
        <ele>841</ele>
        <time>2023-04-10T09:39:13Z</time>
      </trkpt>
      <trkpt lat="45.43131" lon="5.6708">
        <ele>840</ele>
        <time>2023-04-10T09:39:14Z</time>
      </trkpt>
      <trkpt lat="45.43126" lon="5.67063">
        <ele>840</ele>
        <time>2023-04-10T09:39:15Z</time>
      </trkpt>
      <trkpt lat="45.43121" lon="5.67047">
        <ele>838</ele>
        <time>2023-04-10T09:39:16Z</time>
      </trkpt>
      <trkpt lat="45.43117" lon="5.67031">
        <ele>837</ele>
        <time>2023-04-10T09:39:17Z</time>
      </trkpt>
      <trkpt lat="45.43112" lon="5.67014">
        <ele>836</ele>
        <time>2023-04-10T09:39:18Z</time>
      </trkpt>
      <trkpt lat="45.43108" lon="5.66998">
        <ele>835</ele>
        <time>2023-04-10T09:39:19Z</time>
      </trkpt>
      <trkpt lat="45.43103" lon="5.66982">
        <ele>833</ele>
        <time>2023-04-10T09:39:20Z</time>
      </trkpt>
      <trkpt lat="45.43098" lon="5.66965">
        <ele>832</ele>
        <time>2023-04-10T09:39:21Z</time>
      </trkpt>
      <trkpt lat="45.43094" lon="5.66948">
        <ele>831</ele>
        <time>2023-04-10T09:39:22Z</time>
      </trkpt>
      <trkpt lat="45.4309" lon="5.66932">
        <ele>830</ele>
        <time>2023-04-10T09:39:23Z</time>
      </trkpt>
      <trkpt lat="45.43086" lon="5.66915">
        <ele>829</ele>
        <time>2023-04-10T09:39:24Z</time>
      </trkpt>
      <trkpt lat="45.43081" lon="5.66898">
        <ele>828</ele>
        <time>2023-04-10T09:39:25Z</time>
      </trkpt>
      <trkpt lat="45.43076" lon="5.66881">
        <ele>828</ele>
        <time>2023-04-10T09:39:26Z</time>
      </trkpt>
      <trkpt lat="45.43072" lon="5.66864">
        <ele>827</ele>
        <time>2023-04-10T09:39:27Z</time>
      </trkpt>
      <trkpt lat="45.43067" lon="5.66847">
        <ele>826</ele>
        <time>2023-04-10T09:39:28Z</time>
      </trkpt>
      <trkpt lat="45.43063" lon="5.66829">
        <ele>825</ele>
        <time>2023-04-10T09:39:29Z</time>
      </trkpt>
      <trkpt lat="45.43059" lon="5.66812">
        <ele>824</ele>
        <time>2023-04-10T09:39:30Z</time>
      </trkpt>
      <trkpt lat="45.43056" lon="5.66794">
        <ele>823</ele>
        <time>2023-04-10T09:39:31Z</time>
      </trkpt>
      <trkpt lat="45.43054" lon="5.66776">
        <ele>823</ele>
        <time>2023-04-10T09:39:32Z</time>
      </trkpt>
      <trkpt lat="45.43053" lon="5.66757">
        <ele>822</ele>
        <time>2023-04-10T09:39:33Z</time>
      </trkpt>
      <trkpt lat="45.43054" lon="5.66739">
        <ele>820</ele>
        <time>2023-04-10T09:39:34Z</time>
      </trkpt>
      <trkpt lat="45.43056" lon="5.66721">
        <ele>819</ele>
        <time>2023-04-10T09:39:35Z</time>
      </trkpt>
      <trkpt lat="45.4306" lon="5.66703">
        <ele>817</ele>
        <time>2023-04-10T09:39:36Z</time>
      </trkpt>
      <trkpt lat="45.43064" lon="5.66686">
        <ele>816</ele>
        <time>2023-04-10T09:39:37Z</time>
      </trkpt>
      <trkpt lat="45.43069" lon="5.66669">
        <ele>815</ele>
        <time>2023-04-10T09:39:38Z</time>
      </trkpt>
      <trkpt lat="45.43073" lon="5.66652">
        <ele>814</ele>
        <time>2023-04-10T09:39:39Z</time>
      </trkpt>
      <trkpt lat="45.43078" lon="5.66635">
        <ele>814</ele>
        <time>2023-04-10T09:39:40Z</time>
      </trkpt>
      <trkpt lat="45.43083" lon="5.66618">
        <ele>813</ele>
        <time>2023-04-10T09:39:41Z</time>
      </trkpt>
      <trkpt lat="45.43087" lon="5.666">
        <ele>813</ele>
        <time>2023-04-10T09:39:42Z</time>
      </trkpt>
      <trkpt lat="45.43089" lon="5.66583">
        <ele>811</ele>
        <time>2023-04-10T09:39:43Z</time>
      </trkpt>
      <trkpt lat="45.4309" lon="5.66565">
        <ele>810</ele>
        <time>2023-04-10T09:39:44Z</time>
      </trkpt>
      <trkpt lat="45.43089" lon="5.66547">
        <ele>809</ele>
        <time>2023-04-10T09:39:45Z</time>
      </trkpt>
      <trkpt lat="45.43087" lon="5.66529">
        <ele>808</ele>
        <time>2023-04-10T09:39:46Z</time>
      </trkpt>
      <trkpt lat="45.43085" lon="5.66511">
        <ele>807</ele>
        <time>2023-04-10T09:39:47Z</time>
      </trkpt>
      <trkpt lat="45.43083" lon="5.66493">
        <ele>806</ele>
        <time>2023-04-10T09:39:48Z</time>
      </trkpt>
      <trkpt lat="45.43081" lon="5.66475">
        <ele>805</ele>
        <time>2023-04-10T09:39:49Z</time>
      </trkpt>
      <trkpt lat="45.43079" lon="5.66458">
        <ele>804</ele>
        <time>2023-04-10T09:39:50Z</time>
      </trkpt>
      <trkpt lat="45.43078" lon="5.6644">
        <ele>803</ele>
        <time>2023-04-10T09:39:51Z</time>
      </trkpt>
      <trkpt lat="45.43076" lon="5.66423">
        <ele>802</ele>
        <time>2023-04-10T09:39:52Z</time>
      </trkpt>
      <trkpt lat="45.43074" lon="5.66406">
        <ele>801</ele>
        <time>2023-04-10T09:39:53Z</time>
      </trkpt>
      <trkpt lat="45.4307" lon="5.6639">
        <ele>800</ele>
        <time>2023-04-10T09:39:54Z</time>
      </trkpt>
      <trkpt lat="45.43064" lon="5.66376">
        <ele>799</ele>
        <time>2023-04-10T09:39:55Z</time>
      </trkpt>
      <trkpt lat="45.43057" lon="5.66362">
        <ele>798</ele>
        <time>2023-04-10T09:39:56Z</time>
      </trkpt>
      <trkpt lat="45.4305" lon="5.66349">
        <ele>798</ele>
        <time>2023-04-10T09:39:57Z</time>
      </trkpt>
      <trkpt lat="45.43042" lon="5.66337">
        <ele>797</ele>
        <time>2023-04-10T09:39:58Z</time>
      </trkpt>
      <trkpt lat="45.43034" lon="5.66323">
        <ele>796</ele>
        <time>2023-04-10T09:39:59Z</time>
      </trkpt>
      <trkpt lat="45.43026" lon="5.6631">
        <ele>795</ele>
        <time>2023-04-10T09:40:00Z</time>
      </trkpt>
      <trkpt lat="45.43018" lon="5.66297">
        <ele>795</ele>
        <time>2023-04-10T09:40:01Z</time>
      </trkpt>
      <trkpt lat="45.43011" lon="5.66285">
        <ele>794</ele>
        <time>2023-04-10T09:40:02Z</time>
      </trkpt>
      <trkpt lat="45.43004" lon="5.66273">
        <ele>794</ele>
        <time>2023-04-10T09:40:03Z</time>
      </trkpt>
      <trkpt lat="45.42997" lon="5.66262">
        <ele>793</ele>
        <time>2023-04-10T09:40:04Z</time>
      </trkpt>
      <trkpt lat="45.42991" lon="5.66251">
        <ele>793</ele>
        <time>2023-04-10T09:40:05Z</time>
      </trkpt>
      <trkpt lat="45.42985" lon="5.66238">
        <ele>792</ele>
        <time>2023-04-10T09:40:06Z</time>
      </trkpt>
      <trkpt lat="45.4298" lon="5.66224">
        <ele>791</ele>
        <time>2023-04-10T09:40:07Z</time>
      </trkpt>
      <trkpt lat="45.42975" lon="5.6621">
        <ele>791</ele>
        <time>2023-04-10T09:40:08Z</time>
      </trkpt>
      <trkpt lat="45.4297" lon="5.66196">
        <ele>790</ele>
        <time>2023-04-10T09:40:09Z</time>
      </trkpt>
      <trkpt lat="45.42964" lon="5.66181">
        <ele>789</ele>
        <time>2023-04-10T09:40:10Z</time>
      </trkpt>
      <trkpt lat="45.42959" lon="5.66168">
        <ele>788</ele>
        <time>2023-04-10T09:40:11Z</time>
      </trkpt>
      <trkpt lat="45.42953" lon="5.66154">
        <ele>787</ele>
        <time>2023-04-10T09:40:12Z</time>
      </trkpt>
      <trkpt lat="45.42948" lon="5.6614">
        <ele>787</ele>
        <time>2023-04-10T09:40:13Z</time>
      </trkpt>
      <trkpt lat="45.42943" lon="5.66125">
        <ele>787</ele>
        <time>2023-04-10T09:40:14Z</time>
      </trkpt>
      <trkpt lat="45.42938" lon="5.66111">
        <ele>786</ele>
        <time>2023-04-10T09:40:15Z</time>
      </trkpt>
      <trkpt lat="45.42934" lon="5.66097">
        <ele>786</ele>
        <time>2023-04-10T09:40:16Z</time>
      </trkpt>
      <trkpt lat="45.42929" lon="5.66082">
        <ele>785</ele>
        <time>2023-04-10T09:40:17Z</time>
      </trkpt>
      <trkpt lat="45.42925" lon="5.66068">
        <ele>785</ele>
        <time>2023-04-10T09:40:18Z</time>
      </trkpt>
      <trkpt lat="45.4292" lon="5.66055">
        <ele>784</ele>
        <time>2023-04-10T09:40:19Z</time>
      </trkpt>
      <trkpt lat="45.42915" lon="5.66041">
        <ele>783</ele>
        <time>2023-04-10T09:40:20Z</time>
      </trkpt>
      <trkpt lat="45.4291" lon="5.66027">
        <ele>782</ele>
        <time>2023-04-10T09:40:21Z</time>
      </trkpt>
      <trkpt lat="45.42905" lon="5.66013">
        <ele>782</ele>
        <time>2023-04-10T09:40:22Z</time>
      </trkpt>
      <trkpt lat="45.429" lon="5.66">
        <ele>780</ele>
        <time>2023-04-10T09:40:23Z</time>
      </trkpt>
      <trkpt lat="45.42895" lon="5.65987">
        <ele>779</ele>
        <time>2023-04-10T09:40:24Z</time>
      </trkpt>
      <trkpt lat="45.42891" lon="5.65973">
        <ele>779</ele>
        <time>2023-04-10T09:40:25Z</time>
      </trkpt>
      <trkpt lat="45.42885" lon="5.6596">
        <ele>778</ele>
        <time>2023-04-10T09:40:26Z</time>
      </trkpt>
      <trkpt lat="45.4288" lon="5.65947">
        <ele>779</ele>
        <time>2023-04-10T09:40:27Z</time>
      </trkpt>
      <trkpt lat="45.42875" lon="5.65933">
        <ele>779</ele>
        <time>2023-04-10T09:40:28Z</time>
      </trkpt>
      <trkpt lat="45.4287" lon="5.65919">
        <ele>778</ele>
        <time>2023-04-10T09:40:29Z</time>
      </trkpt>
      <trkpt lat="45.42865" lon="5.65906">
        <ele>778</ele>
        <time>2023-04-10T09:40:30Z</time>
      </trkpt>
      <trkpt lat="45.4286" lon="5.65892">
        <ele>777</ele>
        <time>2023-04-10T09:40:31Z</time>
      </trkpt>
      <trkpt lat="45.42855" lon="5.65879">
        <ele>777</ele>
        <time>2023-04-10T09:40:32Z</time>
      </trkpt>
      <trkpt lat="45.42851" lon="5.65865">
        <ele>776</ele>
        <time>2023-04-10T09:40:33Z</time>
      </trkpt>
      <trkpt lat="45.42846" lon="5.65852">
        <ele>775</ele>
        <time>2023-04-10T09:40:34Z</time>
      </trkpt>
      <trkpt lat="45.42841" lon="5.65839">
        <ele>775</ele>
        <time>2023-04-10T09:40:35Z</time>
      </trkpt>
      <trkpt lat="45.42835" lon="5.65827">
        <ele>774</ele>
        <time>2023-04-10T09:40:36Z</time>
      </trkpt>
      <trkpt lat="45.42829" lon="5.65815">
        <ele>774</ele>
        <time>2023-04-10T09:40:37Z</time>
      </trkpt>
      <trkpt lat="45.42823" lon="5.65804">
        <ele>774</ele>
        <time>2023-04-10T09:40:38Z</time>
      </trkpt>
      <trkpt lat="45.42816" lon="5.65795">
        <ele>773</ele>
        <time>2023-04-10T09:40:39Z</time>
      </trkpt>
      <trkpt lat="45.42808" lon="5.65786">
        <ele>772</ele>
        <time>2023-04-10T09:40:40Z</time>
      </trkpt>
      <trkpt lat="45.428" lon="5.65778">
        <ele>772</ele>
        <time>2023-04-10T09:40:41Z</time>
      </trkpt>
      <trkpt lat="45.42791" lon="5.65771">
        <ele>772</ele>
        <time>2023-04-10T09:40:42Z</time>
      </trkpt>
      <trkpt lat="45.42783" lon="5.65763">
        <ele>771</ele>
        <time>2023-04-10T09:40:43Z</time>
      </trkpt>
      <trkpt lat="45.42774" lon="5.65755">
        <ele>770</ele>
        <time>2023-04-10T09:40:44Z</time>
      </trkpt>
      <trkpt lat="45.42767" lon="5.65746">
        <ele>770</ele>
        <time>2023-04-10T09:40:45Z</time>
      </trkpt>
      <trkpt lat="45.4276" lon="5.65735">
        <ele>770</ele>
        <time>2023-04-10T09:40:46Z</time>
      </trkpt>
      <trkpt lat="45.42753" lon="5.65724">
        <ele>769</ele>
        <time>2023-04-10T09:40:47Z</time>
      </trkpt>
      <trkpt lat="45.42747" lon="5.65713">
        <ele>769</ele>
        <time>2023-04-10T09:40:48Z</time>
      </trkpt>
      <trkpt lat="45.42741" lon="5.65701">
        <ele>768</ele>
        <time>2023-04-10T09:40:49Z</time>
      </trkpt>
      <trkpt lat="45.42735" lon="5.6569">
        <ele>767</ele>
        <time>2023-04-10T09:40:50Z</time>
      </trkpt>
      <trkpt lat="45.42729" lon="5.65678">
        <ele>767</ele>
        <time>2023-04-10T09:40:51Z</time>
      </trkpt>
      <trkpt lat="45.42723" lon="5.65666">
        <ele>766</ele>
        <time>2023-04-10T09:40:52Z</time>
      </trkpt>
      <trkpt lat="45.42718" lon="5.65654">
        <ele>766</ele>
        <time>2023-04-10T09:40:53Z</time>
      </trkpt>
      <trkpt lat="45.42712" lon="5.65643">
        <ele>766</ele>
        <time>2023-04-10T09:40:54Z</time>
      </trkpt>
      <trkpt lat="45.42706" lon="5.65631">
        <ele>765</ele>
        <time>2023-04-10T09:40:55Z</time>
      </trkpt>
      <trkpt lat="45.427" lon="5.6562">
        <ele>765</ele>
        <time>2023-04-10T09:40:56Z</time>
      </trkpt>
      <trkpt lat="45.42694" lon="5.65608">
        <ele>765</ele>
        <time>2023-04-10T09:40:57Z</time>
      </trkpt>
      <trkpt lat="45.42688" lon="5.65597">
        <ele>764</ele>
        <time>2023-04-10T09:40:58Z</time>
      </trkpt>
      <trkpt lat="45.42682" lon="5.65586">
        <ele>764</ele>
        <time>2023-04-10T09:40:59Z</time>
      </trkpt>
      <trkpt lat="45.42677" lon="5.65574">
        <ele>762</ele>
        <time>2023-04-10T09:41:00Z</time>
      </trkpt>
      <trkpt lat="45.42671" lon="5.65563">
        <ele>762</ele>
        <time>2023-04-10T09:41:01Z</time>
      </trkpt>
      <trkpt lat="45.42667" lon="5.65551">
        <ele>761</ele>
        <time>2023-04-10T09:41:02Z</time>
      </trkpt>
      <trkpt lat="45.42663" lon="5.65539">
        <ele>761</ele>
        <time>2023-04-10T09:41:03Z</time>
      </trkpt>
      <trkpt lat="45.4266" lon="5.65525">
        <ele>761</ele>
        <time>2023-04-10T09:41:04Z</time>
      </trkpt>
      <trkpt lat="45.42659" lon="5.65512">
        <ele>760</ele>
        <time>2023-04-10T09:41:05Z</time>
      </trkpt>
      <trkpt lat="45.4266" lon="5.65498">
        <ele>760</ele>
        <time>2023-04-10T09:41:06Z</time>
      </trkpt>
      <trkpt lat="45.4266" lon="5.65484">
        <ele>760</ele>
        <time>2023-04-10T09:41:07Z</time>
      </trkpt>
      <trkpt lat="45.42659" lon="5.6547">
        <ele>760</ele>
        <time>2023-04-10T09:41:08Z</time>
      </trkpt>
      <trkpt lat="45.42656" lon="5.65456">
        <ele>760</ele>
        <time>2023-04-10T09:41:09Z</time>
      </trkpt>
      <trkpt lat="45.42653" lon="5.65442">
        <ele>759</ele>
        <time>2023-04-10T09:41:10Z</time>
      </trkpt>
      <trkpt lat="45.42649" lon="5.65429">
        <ele>759</ele>
        <time>2023-04-10T09:41:11Z</time>
      </trkpt>
      <trkpt lat="45.42645" lon="5.65416">
        <ele>758</ele>
        <time>2023-04-10T09:41:12Z</time>
      </trkpt>
      <trkpt lat="45.4264" lon="5.65404">
        <ele>757</ele>
        <time>2023-04-10T09:41:13Z</time>
      </trkpt>
      <trkpt lat="45.42636" lon="5.65391">
        <ele>756</ele>
        <time>2023-04-10T09:41:14Z</time>
      </trkpt>
      <trkpt lat="45.42631" lon="5.65378">
        <ele>756</ele>
        <time>2023-04-10T09:41:15Z</time>
      </trkpt>
      <trkpt lat="45.42627" lon="5.65366">
        <ele>758</ele>
        <time>2023-04-10T09:41:16Z</time>
      </trkpt>
      <trkpt lat="45.42623" lon="5.65352">
        <ele>758</ele>
        <time>2023-04-10T09:41:17Z</time>
      </trkpt>
      <trkpt lat="45.4262" lon="5.65339">
        <ele>758</ele>
        <time>2023-04-10T09:41:18Z</time>
      </trkpt>
      <trkpt lat="45.42619" lon="5.65325">
        <ele>756</ele>
        <time>2023-04-10T09:41:19Z</time>
      </trkpt>
      <trkpt lat="45.42618" lon="5.65311">
        <ele>754</ele>
        <time>2023-04-10T09:41:20Z</time>
      </trkpt>
      <trkpt lat="45.42617" lon="5.65297">
        <ele>753</ele>
        <time>2023-04-10T09:41:21Z</time>
      </trkpt>
      <trkpt lat="45.42616" lon="5.65284">
        <ele>752</ele>
        <time>2023-04-10T09:41:22Z</time>
      </trkpt>
      <trkpt lat="45.42616" lon="5.6527">
        <ele>752</ele>
        <time>2023-04-10T09:41:23Z</time>
      </trkpt>
      <trkpt lat="45.42616" lon="5.65256">
        <ele>751</ele>
        <time>2023-04-10T09:41:24Z</time>
      </trkpt>
      <trkpt lat="45.42616" lon="5.65243">
        <ele>751</ele>
        <time>2023-04-10T09:41:25Z</time>
      </trkpt>
      <trkpt lat="45.42615" lon="5.65229">
        <ele>751</ele>
        <time>2023-04-10T09:41:26Z</time>
      </trkpt>
      <trkpt lat="45.42614" lon="5.65215">
        <ele>751</ele>
        <time>2023-04-10T09:41:27Z</time>
      </trkpt>
      <trkpt lat="45.42614" lon="5.65202">
        <ele>751</ele>
        <time>2023-04-10T09:41:28Z</time>
      </trkpt>
      <trkpt lat="45.42614" lon="5.65188">
        <ele>751</ele>
        <time>2023-04-10T09:41:29Z</time>
      </trkpt>
      <trkpt lat="45.42614" lon="5.65174">
        <ele>751</ele>
        <time>2023-04-10T09:41:30Z</time>
      </trkpt>
      <trkpt lat="45.42616" lon="5.6516">
        <ele>750</ele>
        <time>2023-04-10T09:41:31Z</time>
      </trkpt>
      <trkpt lat="45.42618" lon="5.65145">
        <ele>749</ele>
        <time>2023-04-10T09:41:32Z</time>
      </trkpt>
      <trkpt lat="45.4262" lon="5.65132">
        <ele>748</ele>
        <time>2023-04-10T09:41:33Z</time>
      </trkpt>
      <trkpt lat="45.42622" lon="5.65118">
        <ele>748</ele>
        <time>2023-04-10T09:41:34Z</time>
      </trkpt>
      <trkpt lat="45.42625" lon="5.65104">
        <ele>747</ele>
        <time>2023-04-10T09:41:35Z</time>
      </trkpt>
      <trkpt lat="45.42627" lon="5.65091">
        <ele>747</ele>
        <time>2023-04-10T09:41:36Z</time>
      </trkpt>
      <trkpt lat="45.42631" lon="5.65078">
        <ele>746</ele>
        <time>2023-04-10T09:41:37Z</time>
      </trkpt>
      <trkpt lat="45.42635" lon="5.65065">
        <ele>745</ele>
        <time>2023-04-10T09:41:38Z</time>
      </trkpt>
      <trkpt lat="45.4264" lon="5.65052">
        <ele>744</ele>
        <time>2023-04-10T09:41:39Z</time>
      </trkpt>
      <trkpt lat="45.42645" lon="5.6504">
        <ele>744</ele>
        <time>2023-04-10T09:41:40Z</time>
      </trkpt>
      <trkpt lat="45.4265" lon="5.65028">
        <ele>744</ele>
        <time>2023-04-10T09:41:41Z</time>
      </trkpt>
      <trkpt lat="45.42656" lon="5.65019">
        <ele>743</ele>
        <time>2023-04-10T09:41:42Z</time>
      </trkpt>
      <trkpt lat="45.42662" lon="5.65011">
        <ele>742</ele>
        <time>2023-04-10T09:41:43Z</time>
      </trkpt>
      <trkpt lat="45.42668" lon="5.65004">
        <ele>742</ele>
        <time>2023-04-10T09:41:44Z</time>
      </trkpt>
      <trkpt lat="45.42674" lon="5.64998">
        <ele>743</ele>
        <time>2023-04-10T09:41:45Z</time>
      </trkpt>
      <trkpt lat="45.42679" lon="5.64992">
        <ele>743</ele>
        <time>2023-04-10T09:41:46Z</time>
      </trkpt>
      <trkpt lat="45.42684" lon="5.64986">
        <ele>744</ele>
        <time>2023-04-10T09:41:47Z</time>
      </trkpt>
      <trkpt lat="45.4269" lon="5.64981">
        <ele>744</ele>
        <time>2023-04-10T09:41:48Z</time>
      </trkpt>
      <trkpt lat="45.42695" lon="5.64976">
        <ele>744</ele>
        <time>2023-04-10T09:41:49Z</time>
      </trkpt>
      <trkpt lat="45.42701" lon="5.64971">
        <ele>745</ele>
        <time>2023-04-10T09:41:50Z</time>
      </trkpt>
      <trkpt lat="45.42706" lon="5.64966">
        <ele>745</ele>
        <time>2023-04-10T09:41:51Z</time>
      </trkpt>
      <trkpt lat="45.42712" lon="5.64962">
        <ele>744</ele>
        <time>2023-04-10T09:41:52Z</time>
      </trkpt>
      <trkpt lat="45.42718" lon="5.64958">
        <ele>744</ele>
        <time>2023-04-10T09:41:53Z</time>
      </trkpt>
      <trkpt lat="45.42724" lon="5.64954">
        <ele>744</ele>
        <time>2023-04-10T09:41:54Z</time>
      </trkpt>
      <trkpt lat="45.4273" lon="5.6495">
        <ele>743</ele>
        <time>2023-04-10T09:41:55Z</time>
      </trkpt>
      <trkpt lat="45.42736" lon="5.64947">
        <ele>743</ele>
        <time>2023-04-10T09:41:56Z</time>
      </trkpt>
      <trkpt lat="45.42742" lon="5.64943">
        <ele>743</ele>
        <time>2023-04-10T09:41:57Z</time>
      </trkpt>
      <trkpt lat="45.42748" lon="5.6494">
        <ele>743</ele>
        <time>2023-04-10T09:41:58Z</time>
      </trkpt>
      <trkpt lat="45.42754" lon="5.64936">
        <ele>743</ele>
        <time>2023-04-10T09:41:59Z</time>
      </trkpt>
      <trkpt lat="45.4276" lon="5.64932">
        <ele>743</ele>
        <time>2023-04-10T09:42:00Z</time>
      </trkpt>
      <trkpt lat="45.42766" lon="5.64928">
        <ele>743</ele>
        <time>2023-04-10T09:42:01Z</time>
      </trkpt>
      <trkpt lat="45.42771" lon="5.64924">
        <ele>743</ele>
        <time>2023-04-10T09:42:02Z</time>
      </trkpt>
      <trkpt lat="45.42777" lon="5.64919">
        <ele>743</ele>
        <time>2023-04-10T09:42:03Z</time>
      </trkpt>
      <trkpt lat="45.42783" lon="5.64914">
        <ele>743</ele>
        <time>2023-04-10T09:42:04Z</time>
      </trkpt>
      <trkpt lat="45.42789" lon="5.64909">
        <ele>743</ele>
        <time>2023-04-10T09:42:05Z</time>
      </trkpt>
      <trkpt lat="45.42794" lon="5.64903">
        <ele>742</ele>
        <time>2023-04-10T09:42:06Z</time>
      </trkpt>
      <trkpt lat="45.428" lon="5.64897">
        <ele>742</ele>
        <time>2023-04-10T09:42:07Z</time>
      </trkpt>
      <trkpt lat="45.42805" lon="5.64891">
        <ele>742</ele>
        <time>2023-04-10T09:42:08Z</time>
      </trkpt>
      <trkpt lat="45.42811" lon="5.64885">
        <ele>742</ele>
        <time>2023-04-10T09:42:09Z</time>
      </trkpt>
      <trkpt lat="45.42816" lon="5.64879">
        <ele>742</ele>
        <time>2023-04-10T09:42:10Z</time>
      </trkpt>
      <trkpt lat="45.42821" lon="5.64873">
        <ele>742</ele>
        <time>2023-04-10T09:42:11Z</time>
      </trkpt>
      <trkpt lat="45.42826" lon="5.64867">
        <ele>742</ele>
        <time>2023-04-10T09:42:12Z</time>
      </trkpt>
      <trkpt lat="45.42831" lon="5.64862">
        <ele>742</ele>
        <time>2023-04-10T09:42:13Z</time>
      </trkpt>
      <trkpt lat="45.42835" lon="5.64856">
        <ele>742</ele>
        <time>2023-04-10T09:42:14Z</time>
      </trkpt>
      <trkpt lat="45.4284" lon="5.6485">
        <ele>742</ele>
        <time>2023-04-10T09:42:15Z</time>
      </trkpt>
      <trkpt lat="45.42844" lon="5.64845">
        <ele>742</ele>
        <time>2023-04-10T09:42:16Z</time>
      </trkpt>
      <trkpt lat="45.42847" lon="5.64839">
        <ele>742</ele>
        <time>2023-04-10T09:42:17Z</time>
      </trkpt>
      <trkpt lat="45.42849" lon="5.64832">
        <ele>742</ele>
        <time>2023-04-10T09:42:18Z</time>
      </trkpt>
      <trkpt lat="45.4285" lon="5.64827">
        <ele>742</ele>
        <time>2023-04-10T09:42:19Z</time>
      </trkpt>
      <trkpt lat="45.42852" lon="5.64822">
        <ele>743</ele>
        <time>2023-04-10T09:42:20Z</time>
      </trkpt>
      <trkpt lat="45.42853" lon="5.64817">
        <ele>744</ele>
        <time>2023-04-10T09:42:21Z</time>
      </trkpt>
      <trkpt lat="45.42854" lon="5.64812">
        <ele>744</ele>
        <time>2023-04-10T09:42:22Z</time>
      </trkpt>
      <trkpt lat="45.42855" lon="5.64806">
        <ele>744</ele>
        <time>2023-04-10T09:42:23Z</time>
      </trkpt>
      <trkpt lat="45.42856" lon="5.64801">
        <ele>744</ele>
        <time>2023-04-10T09:42:24Z</time>
      </trkpt>
      <trkpt lat="45.42858" lon="5.64796">
        <ele>745</ele>
        <time>2023-04-10T09:42:25Z</time>
      </trkpt>
      <trkpt lat="45.4286" lon="5.6479">
        <ele>746</ele>
        <time>2023-04-10T09:42:26Z</time>
      </trkpt>
      <trkpt lat="45.42862" lon="5.64785">
        <ele>746</ele>
        <time>2023-04-10T09:42:27Z</time>
      </trkpt>
      <trkpt lat="45.42864" lon="5.64779">
        <ele>746</ele>
        <time>2023-04-10T09:42:28Z</time>
      </trkpt>
      <trkpt lat="45.42867" lon="5.64774">
        <ele>746</ele>
        <time>2023-04-10T09:42:29Z</time>
      </trkpt>
      <trkpt lat="45.42869" lon="5.64768">
        <ele>746</ele>
        <time>2023-04-10T09:42:30Z</time>
      </trkpt>
      <trkpt lat="45.42872" lon="5.64763">
        <ele>746</ele>
        <time>2023-04-10T09:42:31Z</time>
      </trkpt>
      <trkpt lat="45.42875" lon="5.64757">
        <ele>746</ele>
        <time>2023-04-10T09:42:32Z</time>
      </trkpt>
      <trkpt lat="45.42878" lon="5.64751">
        <ele>746</ele>
        <time>2023-04-10T09:42:33Z</time>
      </trkpt>
      <trkpt lat="45.42881" lon="5.64745">
        <ele>746</ele>
        <time>2023-04-10T09:42:34Z</time>
      </trkpt>
      <trkpt lat="45.42884" lon="5.64739">
        <ele>746</ele>
        <time>2023-04-10T09:42:35Z</time>
      </trkpt>
      <trkpt lat="45.42887" lon="5.64733">
        <ele>746</ele>
        <time>2023-04-10T09:42:36Z</time>
      </trkpt>
      <trkpt lat="45.4289" lon="5.64727">
        <ele>746</ele>
        <time>2023-04-10T09:42:37Z</time>
      </trkpt>
      <trkpt lat="45.42893" lon="5.6472">
        <ele>746</ele>
        <time>2023-04-10T09:42:38Z</time>
      </trkpt>
      <trkpt lat="45.42895" lon="5.64714">
        <ele>746</ele>
        <time>2023-04-10T09:42:39Z</time>
      </trkpt>
      <trkpt lat="45.42898" lon="5.64707">
        <ele>746</ele>
        <time>2023-04-10T09:42:40Z</time>
      </trkpt>
      <trkpt lat="45.42901" lon="5.64701">
        <ele>746</ele>
        <time>2023-04-10T09:42:41Z</time>
      </trkpt>
      <trkpt lat="45.42903" lon="5.64694">
        <ele>745</ele>
        <time>2023-04-10T09:42:42Z</time>
      </trkpt>
      <trkpt lat="45.42906" lon="5.64688">
        <ele>745</ele>
        <time>2023-04-10T09:42:43Z</time>
      </trkpt>
      <trkpt lat="45.42908" lon="5.64681">
        <ele>745</ele>
        <time>2023-04-10T09:42:44Z</time>
      </trkpt>
      <trkpt lat="45.4291" lon="5.64675">
        <ele>745</ele>
        <time>2023-04-10T09:42:45Z</time>
      </trkpt>
      <trkpt lat="45.42912" lon="5.64669">
        <ele>745</ele>
        <time>2023-04-10T09:42:46Z</time>
      </trkpt>
      <trkpt lat="45.42914" lon="5.64663">
        <ele>745</ele>
        <time>2023-04-10T09:42:47Z</time>
      </trkpt>
      <trkpt lat="45.42916" lon="5.64657">
        <ele>745</ele>
        <time>2023-04-10T09:42:48Z</time>
      </trkpt>
      <trkpt lat="45.42918" lon="5.6465">
        <ele>745</ele>
        <time>2023-04-10T09:42:49Z</time>
      </trkpt>
      <trkpt lat="45.4292" lon="5.64644">
        <ele>745</ele>
        <time>2023-04-10T09:42:50Z</time>
      </trkpt>
      <trkpt lat="45.42922" lon="5.64638">
        <ele>745</ele>
        <time>2023-04-10T09:42:51Z</time>
      </trkpt>
      <trkpt lat="45.42923" lon="5.64632">
        <ele>745</ele>
        <time>2023-04-10T09:42:52Z</time>
      </trkpt>
      <trkpt lat="45.42925" lon="5.64626">
        <ele>745</ele>
        <time>2023-04-10T09:42:53Z</time>
      </trkpt>
      <trkpt lat="45.42927" lon="5.6462">
        <ele>745</ele>
        <time>2023-04-10T09:42:54Z</time>
      </trkpt>
      <trkpt lat="45.42928" lon="5.64614">
        <ele>744</ele>
        <time>2023-04-10T09:42:55Z</time>
      </trkpt>
      <trkpt lat="45.4293" lon="5.64608">
        <ele>744</ele>
        <time>2023-04-10T09:42:56Z</time>
      </trkpt>
      <trkpt lat="45.42931" lon="5.64601">
        <ele>744</ele>
        <time>2023-04-10T09:42:57Z</time>
      </trkpt>
      <trkpt lat="45.42933" lon="5.64594">
        <ele>744</ele>
        <time>2023-04-10T09:42:58Z</time>
      </trkpt>
      <trkpt lat="45.42934" lon="5.64586">
        <ele>744</ele>
        <time>2023-04-10T09:42:59Z</time>
      </trkpt>
      <trkpt lat="45.42936" lon="5.64578">
        <ele>744</ele>
        <time>2023-04-10T09:43:00Z</time>
      </trkpt>
      <trkpt lat="45.42937" lon="5.6457">
        <ele>744</ele>
        <time>2023-04-10T09:43:01Z</time>
      </trkpt>
      <trkpt lat="45.42939" lon="5.64563">
        <ele>743</ele>
        <time>2023-04-10T09:43:02Z</time>
      </trkpt>
      <trkpt lat="45.42941" lon="5.64555">
        <ele>743</ele>
        <time>2023-04-10T09:43:03Z</time>
      </trkpt>
      <trkpt lat="45.42943" lon="5.64548">
        <ele>743</ele>
        <time>2023-04-10T09:43:04Z</time>
      </trkpt>
      <trkpt lat="45.42944" lon="5.64541">
        <ele>743</ele>
        <time>2023-04-10T09:43:05Z</time>
      </trkpt>
      <trkpt lat="45.42946" lon="5.64534">
        <ele>743</ele>
        <time>2023-04-10T09:43:06Z</time>
      </trkpt>
      <trkpt lat="45.42948" lon="5.64528">
        <ele>743</ele>
        <time>2023-04-10T09:43:07Z</time>
      </trkpt>
      <trkpt lat="45.42949" lon="5.64522">
        <ele>743</ele>
        <time>2023-04-10T09:43:08Z</time>
      </trkpt>
      <trkpt lat="45.4295" lon="5.64516">
        <ele>743</ele>
        <time>2023-04-10T09:43:09Z</time>
      </trkpt>
      <trkpt lat="45.42951" lon="5.64511">
        <ele>743</ele>
        <time>2023-04-10T09:43:10Z</time>
      </trkpt>
      <trkpt lat="45.42952" lon="5.64506">
        <ele>743</ele>
        <time>2023-04-10T09:43:11Z</time>
      </trkpt>
      <trkpt lat="45.42953" lon="5.64501">
        <ele>743</ele>
        <time>2023-04-10T09:43:12Z</time>
      </trkpt>
      <trkpt lat="45.42954" lon="5.64496">
        <ele>743</ele>
        <time>2023-04-10T09:43:13Z</time>
      </trkpt>
      <trkpt lat="45.42955" lon="5.64492">
        <ele>743</ele>
        <time>2023-04-10T09:43:14Z</time>
      </trkpt>
      <trkpt lat="45.42956" lon="5.64488">
        <ele>743</ele>
        <time>2023-04-10T09:43:15Z</time>
      </trkpt>
      <trkpt lat="45.42957" lon="5.64483">
        <ele>743</ele>
        <time>2023-04-10T09:43:16Z</time>
      </trkpt>
      <trkpt lat="45.42957" lon="5.64479">
        <ele>743</ele>
        <time>2023-04-10T09:43:17Z</time>
      </trkpt>
      <trkpt lat="45.42958" lon="5.64474">
        <ele>743</ele>
        <time>2023-04-10T09:43:18Z</time>
      </trkpt>
      <trkpt lat="45.42958" lon="5.6447">
        <ele>743</ele>
        <time>2023-04-10T09:43:19Z</time>
      </trkpt>
      <trkpt lat="45.42958" lon="5.64465">
        <ele>743</ele>
        <time>2023-04-10T09:43:20Z</time>
      </trkpt>
      <trkpt lat="45.42959" lon="5.64461">
        <ele>743</ele>
        <time>2023-04-10T09:43:21Z</time>
      </trkpt>
      <trkpt lat="45.42959" lon="5.64456">
        <ele>743</ele>
        <time>2023-04-10T09:43:22Z</time>
      </trkpt>
      <trkpt lat="45.42959" lon="5.64452">
        <ele>743</ele>
        <time>2023-04-10T09:43:23Z</time>
      </trkpt>
      <trkpt lat="45.42959" lon="5.64448">
        <ele>743</ele>
        <time>2023-04-10T09:43:24Z</time>
      </trkpt>
      <trkpt lat="45.42959" lon="5.64444">
        <ele>743</ele>
        <time>2023-04-10T09:43:25Z</time>
      </trkpt>
      <trkpt lat="45.42959" lon="5.6444">
        <ele>743</ele>
        <time>2023-04-10T09:43:26Z</time>
      </trkpt>
      <trkpt lat="45.42959" lon="5.64436">
        <ele>743</ele>
        <time>2023-04-10T09:43:27Z</time>
      </trkpt>
      <trkpt lat="45.42959" lon="5.64431">
        <ele>743</ele>
        <time>2023-04-10T09:43:28Z</time>
      </trkpt>
      <trkpt lat="45.42958" lon="5.64427">
        <ele>743</ele>
        <time>2023-04-10T09:43:29Z</time>
      </trkpt>
      <trkpt lat="45.42958" lon="5.64422">
        <ele>743</ele>
        <time>2023-04-10T09:43:30Z</time>
      </trkpt>
      <trkpt lat="45.42957" lon="5.64418">
        <ele>742</ele>
        <time>2023-04-10T09:43:31Z</time>
      </trkpt>
      <trkpt lat="45.42957" lon="5.64413">
        <ele>742</ele>
        <time>2023-04-10T09:43:32Z</time>
      </trkpt>
      <trkpt lat="45.42956" lon="5.64409">
        <ele>742</ele>
        <time>2023-04-10T09:43:33Z</time>
      </trkpt>
      <trkpt lat="45.42955" lon="5.64405">
        <ele>742</ele>
        <time>2023-04-10T09:43:34Z</time>
      </trkpt>
      <trkpt lat="45.42954" lon="5.64401">
        <ele>742</ele>
        <time>2023-04-10T09:43:35Z</time>
      </trkpt>
      <trkpt lat="45.42953" lon="5.64397">
        <ele>742</ele>
        <time>2023-04-10T09:43:36Z</time>
      </trkpt>
      <trkpt lat="45.42953" lon="5.64393">
        <ele>742</ele>
        <time>2023-04-10T09:43:37Z</time>
      </trkpt>
      <trkpt lat="45.42952" lon="5.64389">
        <ele>742</ele>
        <time>2023-04-10T09:43:38Z</time>
      </trkpt>
      <trkpt lat="45.42952" lon="5.64385">
        <ele>742</ele>
        <time>2023-04-10T09:43:39Z</time>
      </trkpt>
      <trkpt lat="45.42951" lon="5.64381">
        <ele>742</ele>
        <time>2023-04-10T09:43:40Z</time>
      </trkpt>
      <trkpt lat="45.4295" lon="5.64377">
        <ele>742</ele>
        <time>2023-04-10T09:43:41Z</time>
      </trkpt>
      <trkpt lat="45.42949" lon="5.64372">
        <ele>742</ele>
        <time>2023-04-10T09:43:42Z</time>
      </trkpt>
      <trkpt lat="45.42949" lon="5.64367">
        <ele>742</ele>
        <time>2023-04-10T09:43:43Z</time>
      </trkpt>
      <trkpt lat="45.42948" lon="5.64362">
        <ele>742</ele>
        <time>2023-04-10T09:43:44Z</time>
      </trkpt>
      <trkpt lat="45.42947" lon="5.64358">
        <ele>742</ele>
        <time>2023-04-10T09:43:45Z</time>
      </trkpt>
      <trkpt lat="45.42946" lon="5.64353">
        <ele>742</ele>
        <time>2023-04-10T09:43:46Z</time>
      </trkpt>
      <trkpt lat="45.42945" lon="5.64348">
        <ele>743</ele>
        <time>2023-04-10T09:43:47Z</time>
      </trkpt>
      <trkpt lat="45.42944" lon="5.64344">
        <ele>743</ele>
        <time>2023-04-10T09:43:48Z</time>
      </trkpt>
      <trkpt lat="45.42942" lon="5.64339">
        <ele>743</ele>
        <time>2023-04-10T09:43:49Z</time>
      </trkpt>
      <trkpt lat="45.42941" lon="5.64335">
        <ele>743</ele>
        <time>2023-04-10T09:43:50Z</time>
      </trkpt>
      <trkpt lat="45.4294" lon="5.64331">
        <ele>743</ele>
        <time>2023-04-10T09:43:51Z</time>
      </trkpt>
      <trkpt lat="45.42939" lon="5.64327">
        <ele>743</ele>
        <time>2023-04-10T09:43:52Z</time>
      </trkpt>
      <trkpt lat="45.42938" lon="5.64324">
        <ele>743</ele>
        <time>2023-04-10T09:43:53Z</time>
      </trkpt>
      <trkpt lat="45.42936" lon="5.6432">
        <ele>743</ele>
        <time>2023-04-10T09:43:54Z</time>
      </trkpt>
      <trkpt lat="45.42935" lon="5.64316">
        <ele>743</ele>
        <time>2023-04-10T09:43:55Z</time>
      </trkpt>
      <trkpt lat="45.42934" lon="5.64311">
        <ele>743</ele>
        <time>2023-04-10T09:43:56Z</time>
      </trkpt>
      <trkpt lat="45.42933" lon="5.64307">
        <ele>743</ele>
        <time>2023-04-10T09:43:57Z</time>
      </trkpt>
      <trkpt lat="45.42932" lon="5.64303">
        <ele>743</ele>
        <time>2023-04-10T09:43:58Z</time>
      </trkpt>
      <trkpt lat="45.42931" lon="5.64299">
        <ele>743</ele>
        <time>2023-04-10T09:43:59Z</time>
      </trkpt>
      <trkpt lat="45.42931" lon="5.64294">
        <ele>743</ele>
        <time>2023-04-10T09:44:00Z</time>
      </trkpt>
      <trkpt lat="45.4293" lon="5.64289">
        <ele>743</ele>
        <time>2023-04-10T09:44:01Z</time>
      </trkpt>
      <trkpt lat="45.42929" lon="5.64284">
        <ele>743</ele>
        <time>2023-04-10T09:44:02Z</time>
      </trkpt>
      <trkpt lat="45.42928" lon="5.64279">
        <ele>743</ele>
        <time>2023-04-10T09:44:03Z</time>
      </trkpt>
      <trkpt lat="45.42927" lon="5.64274">
        <ele>742</ele>
        <time>2023-04-10T09:44:04Z</time>
      </trkpt>
      <trkpt lat="45.42926" lon="5.64268">
        <ele>742</ele>
        <time>2023-04-10T09:44:05Z</time>
      </trkpt>
      <trkpt lat="45.42926" lon="5.64263">
        <ele>742</ele>
        <time>2023-04-10T09:44:06Z</time>
      </trkpt>
      <trkpt lat="45.42926" lon="5.64257">
        <ele>742</ele>
        <time>2023-04-10T09:44:07Z</time>
      </trkpt>
      <trkpt lat="45.42926" lon="5.64251">
        <ele>742</ele>
        <time>2023-04-10T09:44:08Z</time>
      </trkpt>
      <trkpt lat="45.42925" lon="5.64245">
        <ele>742</ele>
        <time>2023-04-10T09:44:09Z</time>
      </trkpt>
      <trkpt lat="45.42925" lon="5.64238">
        <ele>742</ele>
        <time>2023-04-10T09:44:10Z</time>
      </trkpt>
      <trkpt lat="45.42925" lon="5.64231">
        <ele>742</ele>
        <time>2023-04-10T09:44:11Z</time>
      </trkpt>
      <trkpt lat="45.42924" lon="5.64223">
        <ele>742</ele>
        <time>2023-04-10T09:44:12Z</time>
      </trkpt>
      <trkpt lat="45.42924" lon="5.64215">
        <ele>742</ele>
        <time>2023-04-10T09:44:13Z</time>
      </trkpt>
      <trkpt lat="45.42924" lon="5.64207">
        <ele>742</ele>
        <time>2023-04-10T09:44:14Z</time>
      </trkpt>
      <trkpt lat="45.42923" lon="5.64199">
        <ele>742</ele>
        <time>2023-04-10T09:44:15Z</time>
      </trkpt>
      <trkpt lat="45.42923" lon="5.6419">
        <ele>742</ele>
        <time>2023-04-10T09:44:16Z</time>
      </trkpt>
      <trkpt lat="45.42922" lon="5.64182">
        <ele>742</ele>
        <time>2023-04-10T09:44:17Z</time>
      </trkpt>
      <trkpt lat="45.42922" lon="5.64173">
        <ele>742</ele>
        <time>2023-04-10T09:44:18Z</time>
      </trkpt>
      <trkpt lat="45.42922" lon="5.64163">
        <ele>742</ele>
        <time>2023-04-10T09:44:19Z</time>
      </trkpt>
      <trkpt lat="45.42922" lon="5.64154">
        <ele>741</ele>
        <time>2023-04-10T09:44:20Z</time>
      </trkpt>
      <trkpt lat="45.42921" lon="5.64145">
        <ele>741</ele>
        <time>2023-04-10T09:44:21Z</time>
      </trkpt>
      <trkpt lat="45.4292" lon="5.64137">
        <ele>740</ele>
        <time>2023-04-10T09:44:22Z</time>
      </trkpt>
      <trkpt lat="45.4292" lon="5.64129">
        <ele>740</ele>
        <time>2023-04-10T09:44:23Z</time>
      </trkpt>
      <trkpt lat="45.42919" lon="5.64122">
        <ele>739</ele>
        <time>2023-04-10T09:44:24Z</time>
      </trkpt>
      <trkpt lat="45.42918" lon="5.64116">
        <ele>738</ele>
        <time>2023-04-10T09:44:25Z</time>
      </trkpt>
      <trkpt lat="45.42918" lon="5.64111">
        <ele>738</ele>
        <time>2023-04-10T09:44:26Z</time>
      </trkpt>
      <trkpt lat="45.42919" lon="5.64107">
        <ele>738</ele>
        <time>2023-04-10T09:44:27Z</time>
      </trkpt>
      <trkpt lat="45.42921" lon="5.64105">
        <ele>737</ele>
        <time>2023-04-10T09:44:28Z</time>
      </trkpt>
      <trkpt lat="45.42925" lon="5.64105">
        <ele>737</ele>
        <time>2023-04-10T09:44:29Z</time>
      </trkpt>
      <trkpt lat="45.42929" lon="5.64107">
        <ele>737</ele>
        <time>2023-04-10T09:44:30Z</time>
      </trkpt>
      <trkpt lat="45.42934" lon="5.64109">
        <ele>736</ele>
        <time>2023-04-10T09:44:31Z</time>
      </trkpt>
      <trkpt lat="45.4294" lon="5.64111">
        <ele>736</ele>
        <time>2023-04-10T09:44:32Z</time>
      </trkpt>
      <trkpt lat="45.42946" lon="5.64114">
        <ele>736</ele>
        <time>2023-04-10T09:44:33Z</time>
      </trkpt>
      <trkpt lat="45.42954" lon="5.64116">
        <ele>735</ele>
        <time>2023-04-10T09:44:34Z</time>
      </trkpt>
      <trkpt lat="45.42962" lon="5.64119">
        <ele>734</ele>
        <time>2023-04-10T09:44:35Z</time>
      </trkpt>
      <trkpt lat="45.42971" lon="5.64123">
        <ele>733</ele>
        <time>2023-04-10T09:44:36Z</time>
      </trkpt>
      <trkpt lat="45.42981" lon="5.64127">
        <ele>733</ele>
        <time>2023-04-10T09:44:37Z</time>
      </trkpt>
      <trkpt lat="45.42992" lon="5.64133">
        <ele>731</ele>
        <time>2023-04-10T09:44:38Z</time>
      </trkpt>
      <trkpt lat="45.43002" lon="5.64139">
        <ele>730</ele>
        <time>2023-04-10T09:44:39Z</time>
      </trkpt>
      <trkpt lat="45.43013" lon="5.64146">
        <ele>728</ele>
        <time>2023-04-10T09:44:40Z</time>
      </trkpt>
      <trkpt lat="45.43022" lon="5.64152">
        <ele>726</ele>
        <time>2023-04-10T09:44:41Z</time>
      </trkpt>
      <trkpt lat="45.43031" lon="5.64157">
        <ele>725</ele>
        <time>2023-04-10T09:44:42Z</time>
      </trkpt>
      <trkpt lat="45.4304" lon="5.64162">
        <ele>724</ele>
        <time>2023-04-10T09:44:43Z</time>
      </trkpt>
      <trkpt lat="45.43048" lon="5.64166">
        <ele>722</ele>
        <time>2023-04-10T09:44:44Z</time>
      </trkpt>
      <trkpt lat="45.43057" lon="5.64168">
        <ele>720</ele>
        <time>2023-04-10T09:44:45Z</time>
      </trkpt>
      <trkpt lat="45.43065" lon="5.64167">
        <ele>719</ele>
        <time>2023-04-10T09:44:46Z</time>
      </trkpt>
      <trkpt lat="45.43073" lon="5.64162">
        <ele>718</ele>
        <time>2023-04-10T09:44:47Z</time>
      </trkpt>
      <trkpt lat="45.4308" lon="5.64155">
        <ele>717</ele>
        <time>2023-04-10T09:44:48Z</time>
      </trkpt>
      <trkpt lat="45.43086" lon="5.64146">
        <ele>717</ele>
        <time>2023-04-10T09:44:49Z</time>
      </trkpt>
      <trkpt lat="45.43092" lon="5.64137">
        <ele>716</ele>
        <time>2023-04-10T09:44:50Z</time>
      </trkpt>
      <trkpt lat="45.43099" lon="5.64128">
        <ele>715</ele>
        <time>2023-04-10T09:44:51Z</time>
      </trkpt>
      <trkpt lat="45.43106" lon="5.64119">
        <ele>715</ele>
        <time>2023-04-10T09:44:52Z</time>
      </trkpt>
      <trkpt lat="45.43114" lon="5.64112">
        <ele>715</ele>
        <time>2023-04-10T09:44:53Z</time>
      </trkpt>
      <trkpt lat="45.43122" lon="5.64106">
        <ele>715</ele>
        <time>2023-04-10T09:44:54Z</time>
      </trkpt>
      <trkpt lat="45.4313" lon="5.64103">
        <ele>714</ele>
        <time>2023-04-10T09:44:55Z</time>
      </trkpt>
      <trkpt lat="45.43138" lon="5.64102">
        <ele>714</ele>
        <time>2023-04-10T09:44:56Z</time>
      </trkpt>
      <trkpt lat="45.43147" lon="5.64104">
        <ele>714</ele>
        <time>2023-04-10T09:44:57Z</time>
      </trkpt>
      <trkpt lat="45.43155" lon="5.64108">
        <ele>714</ele>
        <time>2023-04-10T09:44:58Z</time>
      </trkpt>
      <trkpt lat="45.43164" lon="5.64114">
        <ele>713</ele>
        <time>2023-04-10T09:44:59Z</time>
      </trkpt>
      <trkpt lat="45.43172" lon="5.64122">
        <ele>713</ele>
        <time>2023-04-10T09:45:00Z</time>
      </trkpt>
      <trkpt lat="45.4318" lon="5.6413">
        <ele>713</ele>
        <time>2023-04-10T09:45:01Z</time>
      </trkpt>
      <trkpt lat="45.43187" lon="5.64139">
        <ele>711</ele>
        <time>2023-04-10T09:45:02Z</time>
      </trkpt>
      <trkpt lat="45.43194" lon="5.64149">
        <ele>709</ele>
        <time>2023-04-10T09:45:03Z</time>
      </trkpt>
      <trkpt lat="45.432" lon="5.6416">
        <ele>708</ele>
        <time>2023-04-10T09:45:04Z</time>
      </trkpt>
      <trkpt lat="45.43206" lon="5.64171">
        <ele>708</ele>
        <time>2023-04-10T09:45:05Z</time>
      </trkpt>
      <trkpt lat="45.43212" lon="5.64182">
        <ele>708</ele>
        <time>2023-04-10T09:45:06Z</time>
      </trkpt>
      <trkpt lat="45.43219" lon="5.64192">
        <ele>707</ele>
        <time>2023-04-10T09:45:07Z</time>
      </trkpt>
      <trkpt lat="45.43225" lon="5.64203">
        <ele>706</ele>
        <time>2023-04-10T09:45:08Z</time>
      </trkpt>
      <trkpt lat="45.4323" lon="5.64213">
        <ele>706</ele>
        <time>2023-04-10T09:45:09Z</time>
      </trkpt>
      <trkpt lat="45.43236" lon="5.64223">
        <ele>706</ele>
        <time>2023-04-10T09:45:10Z</time>
      </trkpt>
      <trkpt lat="45.43241" lon="5.64232">
        <ele>705</ele>
        <time>2023-04-10T09:45:11Z</time>
      </trkpt>
      <trkpt lat="45.43248" lon="5.64242">
        <ele>704</ele>
        <time>2023-04-10T09:45:12Z</time>
      </trkpt>
      <trkpt lat="45.43254" lon="5.64252">
        <ele>703</ele>
        <time>2023-04-10T09:45:13Z</time>
      </trkpt>
      <trkpt lat="45.43261" lon="5.64263">
        <ele>702</ele>
        <time>2023-04-10T09:45:14Z</time>
      </trkpt>
      <trkpt lat="45.43268" lon="5.64274">
        <ele>701</ele>
        <time>2023-04-10T09:45:15Z</time>
      </trkpt>
      <trkpt lat="45.43274" lon="5.64284">
        <ele>700</ele>
        <time>2023-04-10T09:45:16Z</time>
      </trkpt>
      <trkpt lat="45.43285" lon="5.64299">
        <ele>697</ele>
        <time>2023-04-10T09:45:18Z</time>
      </trkpt>
      <trkpt lat="45.43301" lon="5.64308">
        <ele>696</ele>
        <time>2023-04-10T09:45:20Z</time>
      </trkpt>
      <trkpt lat="45.43315" lon="5.64318">
        <ele>693</ele>
        <time>2023-04-10T09:45:22Z</time>
      </trkpt>
      <trkpt lat="45.43324" lon="5.64327">
        <ele>691</ele>
        <time>2023-04-10T09:45:24Z</time>
      </trkpt>
      <trkpt lat="45.43337" lon="5.64338">
        <ele>690</ele>
        <time>2023-04-10T09:45:26Z</time>
      </trkpt>
      <trkpt lat="45.43344" lon="5.64345">
        <ele>690</ele>
        <time>2023-04-10T09:45:27Z</time>
      </trkpt>
      <trkpt lat="45.43352" lon="5.64353">
        <ele>689</ele>
        <time>2023-04-10T09:45:28Z</time>
      </trkpt>
      <trkpt lat="45.4336" lon="5.6436">
        <ele>688</ele>
        <time>2023-04-10T09:45:29Z</time>
      </trkpt>
      <trkpt lat="45.4337" lon="5.64366">
        <ele>687</ele>
        <time>2023-04-10T09:45:30Z</time>
      </trkpt>
      <trkpt lat="45.43379" lon="5.64371">
        <ele>685</ele>
        <time>2023-04-10T09:45:31Z</time>
      </trkpt>
      <trkpt lat="45.4339" lon="5.64372">
        <ele>683</ele>
        <time>2023-04-10T09:45:32Z</time>
      </trkpt>
      <trkpt lat="45.434" lon="5.64372">
        <ele>682</ele>
        <time>2023-04-10T09:45:33Z</time>
      </trkpt>
      <trkpt lat="45.43408" lon="5.64372">
        <ele>681</ele>
        <time>2023-04-10T09:45:34Z</time>
      </trkpt>
      <trkpt lat="45.43415" lon="5.64372">
        <ele>680</ele>
        <time>2023-04-10T09:45:35Z</time>
      </trkpt>
      <trkpt lat="45.4342" lon="5.64369">
        <ele>679</ele>
        <time>2023-04-10T09:45:36Z</time>
      </trkpt>
      <trkpt lat="45.43424" lon="5.64364">
        <ele>679</ele>
        <time>2023-04-10T09:45:37Z</time>
      </trkpt>
      <trkpt lat="45.43428" lon="5.64359">
        <ele>679</ele>
        <time>2023-04-10T09:45:38Z</time>
      </trkpt>
      <trkpt lat="45.4343" lon="5.64353">
        <ele>679</ele>
        <time>2023-04-10T09:45:39Z</time>
      </trkpt>
      <trkpt lat="45.43431" lon="5.64346">
        <ele>679</ele>
        <time>2023-04-10T09:45:40Z</time>
      </trkpt>
      <trkpt lat="45.43431" lon="5.6434">
        <ele>679</ele>
        <time>2023-04-10T09:45:41Z</time>
      </trkpt>
      <trkpt lat="45.43433" lon="5.64333">
        <ele>678</ele>
        <time>2023-04-10T09:45:42Z</time>
      </trkpt>
      <trkpt lat="45.43434" lon="5.64327">
        <ele>679</ele>
        <time>2023-04-10T09:45:43Z</time>
      </trkpt>
      <trkpt lat="45.43436" lon="5.64322">
        <ele>679</ele>
        <time>2023-04-10T09:45:44Z</time>
      </trkpt>
      <trkpt lat="45.43438" lon="5.64316">
        <ele>679</ele>
        <time>2023-04-10T09:45:45Z</time>
      </trkpt>
      <trkpt lat="45.43441" lon="5.6431">
        <ele>679</ele>
        <time>2023-04-10T09:45:46Z</time>
      </trkpt>
      <trkpt lat="45.43443" lon="5.64304">
        <ele>679</ele>
        <time>2023-04-10T09:45:47Z</time>
      </trkpt>
      <trkpt lat="45.43445" lon="5.64297">
        <ele>679</ele>
        <time>2023-04-10T09:45:48Z</time>
      </trkpt>
      <trkpt lat="45.43448" lon="5.64291">
        <ele>679</ele>
        <time>2023-04-10T09:45:49Z</time>
      </trkpt>
      <trkpt lat="45.4345" lon="5.64285">
        <ele>679</ele>
        <time>2023-04-10T09:45:50Z</time>
      </trkpt>
      <trkpt lat="45.43452" lon="5.64278">
        <ele>679</ele>
        <time>2023-04-10T09:45:51Z</time>
      </trkpt>
      <trkpt lat="45.43454" lon="5.64272">
        <ele>679</ele>
        <time>2023-04-10T09:45:52Z</time>
      </trkpt>
      <trkpt lat="45.43456" lon="5.64266">
        <ele>679</ele>
        <time>2023-04-10T09:45:53Z</time>
      </trkpt>
      <trkpt lat="45.43457" lon="5.64259">
        <ele>679</ele>
        <time>2023-04-10T09:45:54Z</time>
      </trkpt>
      <trkpt lat="45.43458" lon="5.64253">
        <ele>679</ele>
        <time>2023-04-10T09:45:55Z</time>
      </trkpt>
      <trkpt lat="45.43459" lon="5.64246">
        <ele>679</ele>
        <time>2023-04-10T09:45:56Z</time>
      </trkpt>
      <trkpt lat="45.43459" lon="5.6424">
        <ele>679</ele>
        <time>2023-04-10T09:45:57Z</time>
      </trkpt>
      <trkpt lat="45.4346" lon="5.64234">
        <ele>679</ele>
        <time>2023-04-10T09:45:58Z</time>
      </trkpt>
      <trkpt lat="45.43461" lon="5.64229">
        <ele>679</ele>
        <time>2023-04-10T09:45:59Z</time>
      </trkpt>
      <trkpt lat="45.43463" lon="5.64224">
        <ele>679</ele>
        <time>2023-04-10T09:46:00Z</time>
      </trkpt>
      <trkpt lat="45.43464" lon="5.6422">
        <ele>679</ele>
        <time>2023-04-10T09:46:01Z</time>
      </trkpt>
      <trkpt lat="45.43466" lon="5.64216">
        <ele>679</ele>
        <time>2023-04-10T09:46:02Z</time>
      </trkpt>
      <trkpt lat="45.43467" lon="5.64213">
        <ele>679</ele>
        <time>2023-04-10T09:46:03Z</time>
      </trkpt>
      <trkpt lat="45.43469" lon="5.6421">
        <ele>680</ele>
        <time>2023-04-10T09:46:04Z</time>
      </trkpt>
      <trkpt lat="45.43471" lon="5.64207">
        <ele>680</ele>
        <time>2023-04-10T09:46:05Z</time>
      </trkpt>
      <trkpt lat="45.43473" lon="5.64205">
        <ele>680</ele>
        <time>2023-04-10T09:46:06Z</time>
      </trkpt>
      <trkpt lat="45.43475" lon="5.64203">
        <ele>680</ele>
        <time>2023-04-10T09:46:07Z</time>
      </trkpt>
      <trkpt lat="45.43477" lon="5.64201">
        <ele>680</ele>
        <time>2023-04-10T09:46:08Z</time>
      </trkpt>
      <trkpt lat="45.43479" lon="5.64199">
        <ele>681</ele>
        <time>2023-04-10T09:46:09Z</time>
      </trkpt>
      <trkpt lat="45.43481" lon="5.64197">
        <ele>681</ele>
        <time>2023-04-10T09:46:10Z</time>
      </trkpt>
      <trkpt lat="45.43483" lon="5.64196">
        <ele>681</ele>
        <time>2023-04-10T09:46:11Z</time>
      </trkpt>
      <trkpt lat="45.43485" lon="5.64194">
        <ele>681</ele>
        <time>2023-04-10T09:46:12Z</time>
      </trkpt>
      <trkpt lat="45.43487" lon="5.64193">
        <ele>681</ele>
        <time>2023-04-10T09:46:13Z</time>
      </trkpt>
      <trkpt lat="45.43489" lon="5.64192">
        <ele>682</ele>
        <time>2023-04-10T09:46:14Z</time>
      </trkpt>
      <trkpt lat="45.43491" lon="5.6419">
        <ele>682</ele>
        <time>2023-04-10T09:46:15Z</time>
      </trkpt>
      <trkpt lat="45.43493" lon="5.64189">
        <ele>683</ele>
        <time>2023-04-10T09:46:16Z</time>
      </trkpt>
      <trkpt lat="45.43495" lon="5.64188">
        <ele>683</ele>
        <time>2023-04-10T09:46:17Z</time>
      </trkpt>
      <trkpt lat="45.43497" lon="5.64186">
        <ele>683</ele>
        <time>2023-04-10T09:46:18Z</time>
      </trkpt>
      <trkpt lat="45.43499" lon="5.64185">
        <ele>683</ele>
        <time>2023-04-10T09:46:19Z</time>
      </trkpt>
      <trkpt lat="45.43501" lon="5.64183">
        <ele>684</ele>
        <time>2023-04-10T09:46:21Z</time>
      </trkpt>
      <trkpt lat="45.43504" lon="5.64181">
        <ele>685</ele>
        <time>2023-04-10T09:46:23Z</time>
      </trkpt>
      <trkpt lat="45.43506" lon="5.6418">
        <ele>686</ele>
        <time>2023-04-10T09:46:24Z</time>
      </trkpt>
      <trkpt lat="45.43508" lon="5.64179">
        <ele>686</ele>
        <time>2023-04-10T09:46:25Z</time>
      </trkpt>
      <trkpt lat="45.4351" lon="5.64177">
        <ele>686</ele>
        <time>2023-04-10T09:46:26Z</time>
      </trkpt>
      <trkpt lat="45.43511" lon="5.64176">
        <ele>686</ele>
        <time>2023-04-10T09:46:27Z</time>
      </trkpt>
      <trkpt lat="45.43513" lon="5.64175">
        <ele>686</ele>
        <time>2023-04-10T09:46:28Z</time>
      </trkpt>
      <trkpt lat="45.43514" lon="5.64173">
        <ele>686</ele>
        <time>2023-04-10T09:46:29Z</time>
      </trkpt>
      <trkpt lat="45.43516" lon="5.64172">
        <ele>686</ele>
        <time>2023-04-10T09:46:30Z</time>
      </trkpt>
      <trkpt lat="45.43519" lon="5.6417">
        <ele>686</ele>
        <time>2023-04-10T09:46:32Z</time>
      </trkpt>
      <trkpt lat="45.43523" lon="5.64168">
        <ele>688</ele>
        <time>2023-04-10T09:46:34Z</time>
      </trkpt>
      <trkpt lat="45.43524" lon="5.64167">
        <ele>688</ele>
        <time>2023-04-10T09:46:35Z</time>
      </trkpt>
      <trkpt lat="45.43527" lon="5.64164">
        <ele>688</ele>
        <time>2023-04-10T09:46:37Z</time>
      </trkpt>
      <trkpt lat="45.43529" lon="5.64162">
        <ele>688</ele>
        <time>2023-04-10T09:46:38Z</time>
      </trkpt>
      <trkpt lat="45.4353" lon="5.64161">
        <ele>688</ele>
        <time>2023-04-10T09:46:39Z</time>
      </trkpt>
      <trkpt lat="45.43533" lon="5.64158">
        <ele>688</ele>
        <time>2023-04-10T09:46:41Z</time>
      </trkpt>
      <trkpt lat="45.43536" lon="5.64155">
        <ele>688</ele>
        <time>2023-04-10T09:46:43Z</time>
      </trkpt>
      <trkpt lat="45.43538" lon="5.64152">
        <ele>689</ele>
        <time>2023-04-10T09:46:45Z</time>
      </trkpt>
      <trkpt lat="45.43541" lon="5.64149">
        <ele>691</ele>
        <time>2023-04-10T09:46:47Z</time>
      </trkpt>
      <trkpt lat="45.43544" lon="5.64146">
        <ele>691</ele>
        <time>2023-04-10T09:46:49Z</time>
      </trkpt>
      <trkpt lat="45.43547" lon="5.64144">
        <ele>691</ele>
        <time>2023-04-10T09:46:51Z</time>
      </trkpt>
      <trkpt lat="45.4355" lon="5.64142">
        <ele>692</ele>
        <time>2023-04-10T09:46:53Z</time>
      </trkpt>
      <trkpt lat="45.43553" lon="5.6414">
        <ele>692</ele>
        <time>2023-04-10T09:46:55Z</time>
      </trkpt>
      <trkpt lat="45.43556" lon="5.64138">
        <ele>693</ele>
        <time>2023-04-10T09:46:57Z</time>
      </trkpt>
      <trkpt lat="45.43558" lon="5.64136">
        <ele>693</ele>
        <time>2023-04-10T09:46:59Z</time>
      </trkpt>
      <trkpt lat="45.43561" lon="5.64133">
        <ele>694</ele>
        <time>2023-04-10T09:47:01Z</time>
      </trkpt>
      <trkpt lat="45.43563" lon="5.64132">
        <ele>695</ele>
        <time>2023-04-10T09:47:03Z</time>
      </trkpt>
      <trkpt lat="45.43566" lon="5.64131">
        <ele>696</ele>
        <time>2023-04-10T09:47:05Z</time>
      </trkpt>
      <trkpt lat="45.43568" lon="5.64129">
        <ele>696</ele>
        <time>2023-04-10T09:47:06Z</time>
      </trkpt>
      <trkpt lat="45.4357" lon="5.64128">
        <ele>696</ele>
        <time>2023-04-10T09:47:07Z</time>
      </trkpt>
      <trkpt lat="45.43572" lon="5.64127">
        <ele>696</ele>
        <time>2023-04-10T09:47:08Z</time>
      </trkpt>
      <trkpt lat="45.43574" lon="5.64126">
        <ele>696</ele>
        <time>2023-04-10T09:47:09Z</time>
      </trkpt>
      <trkpt lat="45.43576" lon="5.64124">
        <ele>697</ele>
        <time>2023-04-10T09:47:10Z</time>
      </trkpt>
      <trkpt lat="45.43578" lon="5.64123">
        <ele>697</ele>
        <time>2023-04-10T09:47:11Z</time>
      </trkpt>
      <trkpt lat="45.43581" lon="5.6412">
        <ele>697</ele>
        <time>2023-04-10T09:47:13Z</time>
      </trkpt>
      <trkpt lat="45.43583" lon="5.64119">
        <ele>697</ele>
        <time>2023-04-10T09:47:14Z</time>
      </trkpt>
      <trkpt lat="45.43586" lon="5.64117">
        <ele>697</ele>
        <time>2023-04-10T09:47:16Z</time>
      </trkpt>
      <trkpt lat="45.43588" lon="5.64115">
        <ele>697</ele>
        <time>2023-04-10T09:47:17Z</time>
      </trkpt>
      <trkpt lat="45.43591" lon="5.64113">
        <ele>698</ele>
        <time>2023-04-10T09:47:19Z</time>
      </trkpt>
      <trkpt lat="45.43594" lon="5.6411">
        <ele>699</ele>
        <time>2023-04-10T09:47:21Z</time>
      </trkpt>
      <trkpt lat="45.43595" lon="5.64108">
        <ele>699</ele>
        <time>2023-04-10T09:47:22Z</time>
      </trkpt>
      <trkpt lat="45.43598" lon="5.64106">
        <ele>700</ele>
        <time>2023-04-10T09:47:24Z</time>
      </trkpt>
      <trkpt lat="45.43601" lon="5.64102">
        <ele>700</ele>
        <time>2023-04-10T09:47:26Z</time>
      </trkpt>
      <trkpt lat="45.43602" lon="5.64101">
        <ele>700</ele>
        <time>2023-04-10T09:47:27Z</time>
      </trkpt>
      <trkpt lat="45.43604" lon="5.64099">
        <ele>701</ele>
        <time>2023-04-10T09:47:28Z</time>
      </trkpt>
      <trkpt lat="45.43607" lon="5.64096">
        <ele>701</ele>
        <time>2023-04-10T09:47:30Z</time>
      </trkpt>
      <trkpt lat="45.4361" lon="5.64094">
        <ele>702</ele>
        <time>2023-04-10T09:47:32Z</time>
      </trkpt>
      <trkpt lat="45.43613" lon="5.64091">
        <ele>702</ele>
        <time>2023-04-10T09:47:34Z</time>
      </trkpt>
      <trkpt lat="45.43615" lon="5.64089">
        <ele>703</ele>
        <time>2023-04-10T09:47:36Z</time>
      </trkpt>
      <trkpt lat="45.43618" lon="5.64087">
        <ele>703</ele>
        <time>2023-04-10T09:47:38Z</time>
      </trkpt>
      <trkpt lat="45.43621" lon="5.64085">
        <ele>704</ele>
        <time>2023-04-10T09:47:40Z</time>
      </trkpt>
      <trkpt lat="45.43625" lon="5.64083">
        <ele>705</ele>
        <time>2023-04-10T09:47:42Z</time>
      </trkpt>
      <trkpt lat="45.43626" lon="5.64081">
        <ele>705</ele>
        <time>2023-04-10T09:47:43Z</time>
      </trkpt>
      <trkpt lat="45.43628" lon="5.6408">
        <ele>706</ele>
        <time>2023-04-10T09:47:44Z</time>
      </trkpt>
      <trkpt lat="45.4363" lon="5.64079">
        <ele>706</ele>
        <time>2023-04-10T09:47:45Z</time>
      </trkpt>
      <trkpt lat="45.43632" lon="5.64077">
        <ele>706</ele>
        <time>2023-04-10T09:47:46Z</time>
      </trkpt>
      <trkpt lat="45.43634" lon="5.64076">
        <ele>706</ele>
        <time>2023-04-10T09:47:47Z</time>
      </trkpt>
      <trkpt lat="45.43636" lon="5.64075">
        <ele>706</ele>
        <time>2023-04-10T09:47:48Z</time>
      </trkpt>
      <trkpt lat="45.43638" lon="5.64074">
        <ele>706</ele>
        <time>2023-04-10T09:47:49Z</time>
      </trkpt>
      <trkpt lat="45.4364" lon="5.64073">
        <ele>706</ele>
        <time>2023-04-10T09:47:50Z</time>
      </trkpt>
      <trkpt lat="45.43642" lon="5.64071">
        <ele>706</ele>
        <time>2023-04-10T09:47:51Z</time>
      </trkpt>
      <trkpt lat="45.43644" lon="5.6407">
        <ele>706</ele>
        <time>2023-04-10T09:47:52Z</time>
      </trkpt>
      <trkpt lat="45.43646" lon="5.64069">
        <ele>707</ele>
        <time>2023-04-10T09:47:53Z</time>
      </trkpt>
      <trkpt lat="45.43648" lon="5.64068">
        <ele>707</ele>
        <time>2023-04-10T09:47:54Z</time>
      </trkpt>
      <trkpt lat="45.4365" lon="5.64068">
        <ele>707</ele>
        <time>2023-04-10T09:47:55Z</time>
      </trkpt>
      <trkpt lat="45.43652" lon="5.64067">
        <ele>708</ele>
        <time>2023-04-10T09:47:56Z</time>
      </trkpt>
      <trkpt lat="45.43654" lon="5.64067">
        <ele>708</ele>
        <time>2023-04-10T09:47:57Z</time>
      </trkpt>
      <trkpt lat="45.43656" lon="5.64067">
        <ele>708</ele>
        <time>2023-04-10T09:47:58Z</time>
      </trkpt>
      <trkpt lat="45.43658" lon="5.64067">
        <ele>709</ele>
        <time>2023-04-10T09:47:59Z</time>
      </trkpt>
      <trkpt lat="45.4366" lon="5.64066">
        <ele>709</ele>
        <time>2023-04-10T09:48:00Z</time>
      </trkpt>
      <trkpt lat="45.43662" lon="5.64066">
        <ele>709</ele>
        <time>2023-04-10T09:48:01Z</time>
      </trkpt>
      <trkpt lat="45.43663" lon="5.64066">
        <ele>710</ele>
        <time>2023-04-10T09:48:02Z</time>
      </trkpt>
      <trkpt lat="45.43665" lon="5.64066">
        <ele>710</ele>
        <time>2023-04-10T09:48:03Z</time>
      </trkpt>
      <trkpt lat="45.43667" lon="5.64066">
        <ele>710</ele>
        <time>2023-04-10T09:48:04Z</time>
      </trkpt>
      <trkpt lat="45.43669" lon="5.64065">
        <ele>710</ele>
        <time>2023-04-10T09:48:05Z</time>
      </trkpt>
      <trkpt lat="45.43671" lon="5.64065">
        <ele>710</ele>
        <time>2023-04-10T09:48:06Z</time>
      </trkpt>
      <trkpt lat="45.43674" lon="5.64065">
        <ele>710</ele>
        <time>2023-04-10T09:48:07Z</time>
      </trkpt>
      <trkpt lat="45.43676" lon="5.64065">
        <ele>710</ele>
        <time>2023-04-10T09:48:08Z</time>
      </trkpt>
      <trkpt lat="45.43678" lon="5.64064">
        <ele>711</ele>
        <time>2023-04-10T09:48:09Z</time>
      </trkpt>
      <trkpt lat="45.4368" lon="5.64064">
        <ele>711</ele>
        <time>2023-04-10T09:48:10Z</time>
      </trkpt>
      <trkpt lat="45.43682" lon="5.64063">
        <ele>711</ele>
        <time>2023-04-10T09:48:11Z</time>
      </trkpt>
      <trkpt lat="45.43684" lon="5.64063">
        <ele>711</ele>
        <time>2023-04-10T09:48:12Z</time>
      </trkpt>
      <trkpt lat="45.43686" lon="5.64063">
        <ele>712</ele>
        <time>2023-04-10T09:48:13Z</time>
      </trkpt>
      <trkpt lat="45.43688" lon="5.64063">
        <ele>713</ele>
        <time>2023-04-10T09:48:14Z</time>
      </trkpt>
      <trkpt lat="45.4369" lon="5.64062">
        <ele>713</ele>
        <time>2023-04-10T09:48:15Z</time>
      </trkpt>
      <trkpt lat="45.43692" lon="5.64062">
        <ele>713</ele>
        <time>2023-04-10T09:48:16Z</time>
      </trkpt>
      <trkpt lat="45.43694" lon="5.64062">
        <ele>713</ele>
        <time>2023-04-10T09:48:17Z</time>
      </trkpt>
      <trkpt lat="45.43696" lon="5.64061">
        <ele>713</ele>
        <time>2023-04-10T09:48:18Z</time>
      </trkpt>
      <trkpt lat="45.43698" lon="5.64061">
        <ele>714</ele>
        <time>2023-04-10T09:48:19Z</time>
      </trkpt>
      <trkpt lat="45.437" lon="5.6406">
        <ele>714</ele>
        <time>2023-04-10T09:48:20Z</time>
      </trkpt>
      <trkpt lat="45.43703" lon="5.6406">
        <ele>714</ele>
        <time>2023-04-10T09:48:21Z</time>
      </trkpt>
      <trkpt lat="45.43705" lon="5.6406">
        <ele>715</ele>
        <time>2023-04-10T09:48:22Z</time>
      </trkpt>
      <trkpt lat="45.43708" lon="5.6406">
        <ele>715</ele>
        <time>2023-04-10T09:48:23Z</time>
      </trkpt>
      <trkpt lat="45.4371" lon="5.64059">
        <ele>715</ele>
        <time>2023-04-10T09:48:24Z</time>
      </trkpt>
      <trkpt lat="45.43713" lon="5.64059">
        <ele>715</ele>
        <time>2023-04-10T09:48:25Z</time>
      </trkpt>
      <trkpt lat="45.43715" lon="5.64059">
        <ele>715</ele>
        <time>2023-04-10T09:48:26Z</time>
      </trkpt>
      <trkpt lat="45.43718" lon="5.64059">
        <ele>715</ele>
        <time>2023-04-10T09:48:27Z</time>
      </trkpt>
      <trkpt lat="45.43721" lon="5.6406">
        <ele>715</ele>
        <time>2023-04-10T09:48:28Z</time>
      </trkpt>
      <trkpt lat="45.43724" lon="5.6406">
        <ele>715</ele>
        <time>2023-04-10T09:48:29Z</time>
      </trkpt>
      <trkpt lat="45.43727" lon="5.6406">
        <ele>715</ele>
        <time>2023-04-10T09:48:30Z</time>
      </trkpt>
      <trkpt lat="45.4373" lon="5.64061">
        <ele>715</ele>
        <time>2023-04-10T09:48:31Z</time>
      </trkpt>
      <trkpt lat="45.43733" lon="5.64062">
        <ele>715</ele>
        <time>2023-04-10T09:48:32Z</time>
      </trkpt>
      <trkpt lat="45.43736" lon="5.64064">
        <ele>715</ele>
        <time>2023-04-10T09:48:33Z</time>
      </trkpt>
      <trkpt lat="45.43739" lon="5.64065">
        <ele>715</ele>
        <time>2023-04-10T09:48:34Z</time>
      </trkpt>
      <trkpt lat="45.43742" lon="5.64067">
        <ele>715</ele>
        <time>2023-04-10T09:48:35Z</time>
      </trkpt>
      <trkpt lat="45.43745" lon="5.64069">
        <ele>715</ele>
        <time>2023-04-10T09:48:36Z</time>
      </trkpt>
      <trkpt lat="45.43747" lon="5.64071">
        <ele>715</ele>
        <time>2023-04-10T09:48:37Z</time>
      </trkpt>
      <trkpt lat="45.4375" lon="5.64073">
        <ele>715</ele>
        <time>2023-04-10T09:48:38Z</time>
      </trkpt>
      <trkpt lat="45.43753" lon="5.64076">
        <ele>716</ele>
        <time>2023-04-10T09:48:39Z</time>
      </trkpt>
      <trkpt lat="45.43756" lon="5.64078">
        <ele>716</ele>
        <time>2023-04-10T09:48:40Z</time>
      </trkpt>
      <trkpt lat="45.43758" lon="5.6408">
        <ele>716</ele>
        <time>2023-04-10T09:48:41Z</time>
      </trkpt>
      <trkpt lat="45.4376" lon="5.64082">
        <ele>716</ele>
        <time>2023-04-10T09:48:42Z</time>
      </trkpt>
      <trkpt lat="45.43762" lon="5.64084">
        <ele>716</ele>
        <time>2023-04-10T09:48:43Z</time>
      </trkpt>
      <trkpt lat="45.43764" lon="5.64086">
        <ele>717</ele>
        <time>2023-04-10T09:48:44Z</time>
      </trkpt>
      <trkpt lat="45.43766" lon="5.64087">
        <ele>717</ele>
        <time>2023-04-10T09:48:45Z</time>
      </trkpt>
      <trkpt lat="45.43768" lon="5.64089">
        <ele>717</ele>
        <time>2023-04-10T09:48:46Z</time>
      </trkpt>
      <trkpt lat="45.4377" lon="5.64091">
        <ele>717</ele>
        <time>2023-04-10T09:48:47Z</time>
      </trkpt>
      <trkpt lat="45.43772" lon="5.64092">
        <ele>717</ele>
        <time>2023-04-10T09:48:48Z</time>
      </trkpt>
      <trkpt lat="45.43774" lon="5.64094">
        <ele>718</ele>
        <time>2023-04-10T09:48:49Z</time>
      </trkpt>
      <trkpt lat="45.43776" lon="5.64095">
        <ele>718</ele>
        <time>2023-04-10T09:48:50Z</time>
      </trkpt>
      <trkpt lat="45.43778" lon="5.64097">
        <ele>718</ele>
        <time>2023-04-10T09:48:51Z</time>
      </trkpt>
      <trkpt lat="45.4378" lon="5.64098">
        <ele>719</ele>
        <time>2023-04-10T09:48:52Z</time>
      </trkpt>
      <trkpt lat="45.43782" lon="5.641">
        <ele>719</ele>
        <time>2023-04-10T09:48:53Z</time>
      </trkpt>
      <trkpt lat="45.43784" lon="5.64101">
        <ele>720</ele>
        <time>2023-04-10T09:48:54Z</time>
      </trkpt>
      <trkpt lat="45.43786" lon="5.64103">
        <ele>720</ele>
        <time>2023-04-10T09:48:55Z</time>
      </trkpt>
      <trkpt lat="45.43788" lon="5.64104">
        <ele>720</ele>
        <time>2023-04-10T09:48:56Z</time>
      </trkpt>
      <trkpt lat="45.4379" lon="5.64105">
        <ele>720</ele>
        <time>2023-04-10T09:48:57Z</time>
      </trkpt>
      <trkpt lat="45.43792" lon="5.64107">
        <ele>720</ele>
        <time>2023-04-10T09:48:58Z</time>
      </trkpt>
      <trkpt lat="45.43794" lon="5.64108">
        <ele>721</ele>
        <time>2023-04-10T09:48:59Z</time>
      </trkpt>
      <trkpt lat="45.43796" lon="5.6411">
        <ele>721</ele>
        <time>2023-04-10T09:49:00Z</time>
      </trkpt>
      <trkpt lat="45.43798" lon="5.64111">
        <ele>721</ele>
        <time>2023-04-10T09:49:01Z</time>
      </trkpt>
      <trkpt lat="45.438" lon="5.64113">
        <ele>722</ele>
        <time>2023-04-10T09:49:02Z</time>
      </trkpt>
      <trkpt lat="45.43801" lon="5.64115">
        <ele>722</ele>
        <time>2023-04-10T09:49:03Z</time>
      </trkpt>
      <trkpt lat="45.43803" lon="5.64117">
        <ele>723</ele>
        <time>2023-04-10T09:49:04Z</time>
      </trkpt>
      <trkpt lat="45.43804" lon="5.6412">
        <ele>723</ele>
        <time>2023-04-10T09:49:05Z</time>
      </trkpt>
      <trkpt lat="45.43804" lon="5.64123">
        <ele>723</ele>
        <time>2023-04-10T09:49:06Z</time>
      </trkpt>
      <trkpt lat="45.43805" lon="5.64126">
        <ele>723</ele>
        <time>2023-04-10T09:49:07Z</time>
      </trkpt>
      <trkpt lat="45.43805" lon="5.6413">
        <ele>723</ele>
        <time>2023-04-10T09:49:08Z</time>
      </trkpt>
      <trkpt lat="45.43806" lon="5.64133">
        <ele>724</ele>
        <time>2023-04-10T09:49:09Z</time>
      </trkpt>
      <trkpt lat="45.43807" lon="5.64136">
        <ele>724</ele>
        <time>2023-04-10T09:49:10Z</time>
      </trkpt>
      <trkpt lat="45.43807" lon="5.6414">
        <ele>724</ele>
        <time>2023-04-10T09:49:11Z</time>
      </trkpt>
      <trkpt lat="45.43807" lon="5.64144">
        <ele>724</ele>
        <time>2023-04-10T09:49:12Z</time>
      </trkpt>
      <trkpt lat="45.43807" lon="5.64149">
        <ele>724</ele>
        <time>2023-04-10T09:49:13Z</time>
      </trkpt>
      <trkpt lat="45.43808" lon="5.64153">
        <ele>724</ele>
        <time>2023-04-10T09:49:14Z</time>
      </trkpt>
      <trkpt lat="45.43809" lon="5.64158">
        <ele>724</ele>
        <time>2023-04-10T09:49:15Z</time>
      </trkpt>
      <trkpt lat="45.4381" lon="5.64163">
        <ele>724</ele>
        <time>2023-04-10T09:49:16Z</time>
      </trkpt>
      <trkpt lat="45.43811" lon="5.64168">
        <ele>724</ele>
        <time>2023-04-10T09:49:17Z</time>
      </trkpt>
      <trkpt lat="45.43812" lon="5.64173">
        <ele>724</ele>
        <time>2023-04-10T09:49:18Z</time>
      </trkpt>
      <trkpt lat="45.43813" lon="5.64178">
        <ele>724</ele>
        <time>2023-04-10T09:49:19Z</time>
      </trkpt>
      <trkpt lat="45.43815" lon="5.64183">
        <ele>724</ele>
        <time>2023-04-10T09:49:20Z</time>
      </trkpt>
      <trkpt lat="45.43816" lon="5.64187">
        <ele>724</ele>
        <time>2023-04-10T09:49:21Z</time>
      </trkpt>
      <trkpt lat="45.43818" lon="5.64192">
        <ele>724</ele>
        <time>2023-04-10T09:49:22Z</time>
      </trkpt>
      <trkpt lat="45.43819" lon="5.64196">
        <ele>724</ele>
        <time>2023-04-10T09:49:23Z</time>
      </trkpt>
      <trkpt lat="45.43821" lon="5.642">
        <ele>724</ele>
        <time>2023-04-10T09:49:24Z</time>
      </trkpt>
      <trkpt lat="45.43822" lon="5.64205">
        <ele>724</ele>
        <time>2023-04-10T09:49:25Z</time>
      </trkpt>
      <trkpt lat="45.43823" lon="5.64209">
        <ele>724</ele>
        <time>2023-04-10T09:49:26Z</time>
      </trkpt>
      <trkpt lat="45.43825" lon="5.64214">
        <ele>724</ele>
        <time>2023-04-10T09:49:27Z</time>
      </trkpt>
      <trkpt lat="45.43826" lon="5.64218">
        <ele>724</ele>
        <time>2023-04-10T09:49:28Z</time>
      </trkpt>
      <trkpt lat="45.43827" lon="5.64223">
        <ele>724</ele>
        <time>2023-04-10T09:49:29Z</time>
      </trkpt>
      <trkpt lat="45.43828" lon="5.64228">
        <ele>724</ele>
        <time>2023-04-10T09:49:30Z</time>
      </trkpt>
      <trkpt lat="45.4383" lon="5.64234">
        <ele>724</ele>
        <time>2023-04-10T09:49:31Z</time>
      </trkpt>
      <trkpt lat="45.43831" lon="5.6424">
        <ele>724</ele>
        <time>2023-04-10T09:49:32Z</time>
      </trkpt>
      <trkpt lat="45.43833" lon="5.64247">
        <ele>724</ele>
        <time>2023-04-10T09:49:33Z</time>
      </trkpt>
      <trkpt lat="45.43834" lon="5.64254">
        <ele>724</ele>
        <time>2023-04-10T09:49:34Z</time>
      </trkpt>
      <trkpt lat="45.43836" lon="5.64261">
        <ele>724</ele>
        <time>2023-04-10T09:49:35Z</time>
      </trkpt>
      <trkpt lat="45.43838" lon="5.64268">
        <ele>724</ele>
        <time>2023-04-10T09:49:36Z</time>
      </trkpt>
      <trkpt lat="45.4384" lon="5.64275">
        <ele>724</ele>
        <time>2023-04-10T09:49:37Z</time>
      </trkpt>
      <trkpt lat="45.43842" lon="5.64283">
        <ele>724</ele>
        <time>2023-04-10T09:49:38Z</time>
      </trkpt>
      <trkpt lat="45.43844" lon="5.6429">
        <ele>724</ele>
        <time>2023-04-10T09:49:39Z</time>
      </trkpt>
      <trkpt lat="45.43846" lon="5.64298">
        <ele>724</ele>
        <time>2023-04-10T09:49:40Z</time>
      </trkpt>
      <trkpt lat="45.43848" lon="5.64306">
        <ele>723</ele>
        <time>2023-04-10T09:49:41Z</time>
      </trkpt>
      <trkpt lat="45.43849" lon="5.64313">
        <ele>723</ele>
        <time>2023-04-10T09:49:42Z</time>
      </trkpt>
      <trkpt lat="45.43849" lon="5.6432">
        <ele>723</ele>
        <time>2023-04-10T09:49:43Z</time>
      </trkpt>
      <trkpt lat="45.43849" lon="5.64326">
        <ele>723</ele>
        <time>2023-04-10T09:49:44Z</time>
      </trkpt>
      <trkpt lat="45.4385" lon="5.64332">
        <ele>723</ele>
        <time>2023-04-10T09:49:45Z</time>
      </trkpt>
      <trkpt lat="45.4385" lon="5.64337">
        <ele>723</ele>
        <time>2023-04-10T09:49:46Z</time>
      </trkpt>
      <trkpt lat="45.43851" lon="5.64342">
        <ele>723</ele>
        <time>2023-04-10T09:49:47Z</time>
      </trkpt>
      <trkpt lat="45.43851" lon="5.64347">
        <ele>723</ele>
        <time>2023-04-10T09:49:48Z</time>
      </trkpt>
      <trkpt lat="45.43852" lon="5.64352">
        <ele>724</ele>
        <time>2023-04-10T09:49:49Z</time>
      </trkpt>
      <trkpt lat="45.43854" lon="5.64357">
        <ele>724</ele>
        <time>2023-04-10T09:49:50Z</time>
      </trkpt>
      <trkpt lat="45.43855" lon="5.64363">
        <ele>724</ele>
        <time>2023-04-10T09:49:51Z</time>
      </trkpt>
      <trkpt lat="45.43857" lon="5.64369">
        <ele>724</ele>
        <time>2023-04-10T09:49:52Z</time>
      </trkpt>
      <trkpt lat="45.4386" lon="5.64374">
        <ele>724</ele>
        <time>2023-04-10T09:49:53Z</time>
      </trkpt>
      <trkpt lat="45.43863" lon="5.6438">
        <ele>724</ele>
        <time>2023-04-10T09:49:54Z</time>
      </trkpt>
      <trkpt lat="45.43867" lon="5.64386">
        <ele>724</ele>
        <time>2023-04-10T09:49:55Z</time>
      </trkpt>
      <trkpt lat="45.43871" lon="5.64391">
        <ele>723</ele>
        <time>2023-04-10T09:49:56Z</time>
      </trkpt>
      <trkpt lat="45.43876" lon="5.64396">
        <ele>723</ele>
        <time>2023-04-10T09:49:57Z</time>
      </trkpt>
      <trkpt lat="45.43881" lon="5.644">
        <ele>722</ele>
        <time>2023-04-10T09:49:58Z</time>
      </trkpt>
      <trkpt lat="45.43887" lon="5.64405">
        <ele>722</ele>
        <time>2023-04-10T09:49:59Z</time>
      </trkpt>
      <trkpt lat="45.43893" lon="5.64409">
        <ele>721</ele>
        <time>2023-04-10T09:50:00Z</time>
      </trkpt>
      <trkpt lat="45.43899" lon="5.64416">
        <ele>721</ele>
        <time>2023-04-10T09:50:01Z</time>
      </trkpt>
      <trkpt lat="45.43904" lon="5.64424">
        <ele>720</ele>
        <time>2023-04-10T09:50:02Z</time>
      </trkpt>
      <trkpt lat="45.43908" lon="5.64432">
        <ele>720</ele>
        <time>2023-04-10T09:50:03Z</time>
      </trkpt>
      <trkpt lat="45.43913" lon="5.6444">
        <ele>719</ele>
        <time>2023-04-10T09:50:04Z</time>
      </trkpt>
      <trkpt lat="45.43918" lon="5.64447">
        <ele>719</ele>
        <time>2023-04-10T09:50:05Z</time>
      </trkpt>
      <trkpt lat="45.43924" lon="5.64452">
        <ele>718</ele>
        <time>2023-04-10T09:50:06Z</time>
      </trkpt>
      <trkpt lat="45.4393" lon="5.64457">
        <ele>718</ele>
        <time>2023-04-10T09:50:07Z</time>
      </trkpt>
      <trkpt lat="45.43937" lon="5.64461">
        <ele>717</ele>
        <time>2023-04-10T09:50:08Z</time>
      </trkpt>
      <trkpt lat="45.43946" lon="5.64465">
        <ele>717</ele>
        <time>2023-04-10T09:50:09Z</time>
      </trkpt>
      <trkpt lat="45.43955" lon="5.64471">
        <ele>716</ele>
        <time>2023-04-10T09:50:10Z</time>
      </trkpt>
      <trkpt lat="45.43964" lon="5.64477">
        <ele>715</ele>
        <time>2023-04-10T09:50:11Z</time>
      </trkpt>
      <trkpt lat="45.43973" lon="5.64485">
        <ele>715</ele>
        <time>2023-04-10T09:50:12Z</time>
      </trkpt>
      <trkpt lat="45.43982" lon="5.64491">
        <ele>713</ele>
        <time>2023-04-10T09:50:13Z</time>
      </trkpt>
      <trkpt lat="45.43992" lon="5.64497">
        <ele>710</ele>
        <time>2023-04-10T09:50:14Z</time>
      </trkpt>
      <trkpt lat="45.44002" lon="5.64502">
        <ele>709</ele>
        <time>2023-04-10T09:50:15Z</time>
      </trkpt>
      <trkpt lat="45.44014" lon="5.64509">
        <ele>709</ele>
        <time>2023-04-10T09:50:16Z</time>
      </trkpt>
      <trkpt lat="45.44025" lon="5.64515">
        <ele>706</ele>
        <time>2023-04-10T09:50:17Z</time>
      </trkpt>
      <trkpt lat="45.44037" lon="5.64523">
        <ele>705</ele>
        <time>2023-04-10T09:50:18Z</time>
      </trkpt>
      <trkpt lat="45.44047" lon="5.64531">
        <ele>704</ele>
        <time>2023-04-10T09:50:19Z</time>
      </trkpt>
      <trkpt lat="45.44056" lon="5.64539">
        <ele>703</ele>
        <time>2023-04-10T09:50:20Z</time>
      </trkpt>
      <trkpt lat="45.44064" lon="5.64546">
        <ele>702</ele>
        <time>2023-04-10T09:50:21Z</time>
      </trkpt>
      <trkpt lat="45.44072" lon="5.64551">
        <ele>701</ele>
        <time>2023-04-10T09:50:22Z</time>
      </trkpt>
      <trkpt lat="45.44079" lon="5.64553">
        <ele>699</ele>
        <time>2023-04-10T09:50:23Z</time>
      </trkpt>
      <trkpt lat="45.44085" lon="5.64553">
        <ele>697</ele>
        <time>2023-04-10T09:50:24Z</time>
      </trkpt>
      <trkpt lat="45.44091" lon="5.64549">
        <ele>697</ele>
        <time>2023-04-10T09:50:25Z</time>
      </trkpt>
      <trkpt lat="45.44094" lon="5.64541">
        <ele>696</ele>
        <time>2023-04-10T09:50:26Z</time>
      </trkpt>
      <trkpt lat="45.44096" lon="5.64532">
        <ele>695</ele>
        <time>2023-04-10T09:50:27Z</time>
      </trkpt>
      <trkpt lat="45.44097" lon="5.64523">
        <ele>695</ele>
        <time>2023-04-10T09:50:28Z</time>
      </trkpt>
      <trkpt lat="45.44098" lon="5.64513">
        <ele>694</ele>
        <time>2023-04-10T09:50:29Z</time>
      </trkpt>
      <trkpt lat="45.44099" lon="5.64504">
        <ele>694</ele>
        <time>2023-04-10T09:50:30Z</time>
      </trkpt>
      <trkpt lat="45.44099" lon="5.64495">
        <ele>693</ele>
        <time>2023-04-10T09:50:31Z</time>
      </trkpt>
      <trkpt lat="45.441" lon="5.64487">
        <ele>693</ele>
        <time>2023-04-10T09:50:32Z</time>
      </trkpt>
      <trkpt lat="45.44103" lon="5.64482">
        <ele>692</ele>
        <time>2023-04-10T09:50:33Z</time>
      </trkpt>
      <trkpt lat="45.44106" lon="5.64482">
        <ele>691</ele>
        <time>2023-04-10T09:50:34Z</time>
      </trkpt>
      <trkpt lat="45.44111" lon="5.64487">
        <ele>690</ele>
        <time>2023-04-10T09:50:35Z</time>
      </trkpt>
      <trkpt lat="45.44114" lon="5.64494">
        <ele>690</ele>
        <time>2023-04-10T09:50:36Z</time>
      </trkpt>
      <trkpt lat="45.44117" lon="5.64503">
        <ele>690</ele>
        <time>2023-04-10T09:50:37Z</time>
      </trkpt>
      <trkpt lat="45.44119" lon="5.6451">
        <ele>689</ele>
        <time>2023-04-10T09:50:38Z</time>
      </trkpt>
      <trkpt lat="45.44121" lon="5.64514">
        <ele>688</ele>
        <time>2023-04-10T09:50:39Z</time>
      </trkpt>
      <trkpt lat="45.44122" lon="5.64517">
        <ele>686</ele>
        <time>2023-04-10T09:50:44Z</time>
      </trkpt>
      <trkpt lat="45.44122" lon="5.6452">
        <ele>686</ele>
        <time>2023-04-10T09:50:46Z</time>
      </trkpt>
      <trkpt lat="45.44125" lon="5.64526">
        <ele>686</ele>
        <time>2023-04-10T09:50:48Z</time>
      </trkpt>
      <trkpt lat="45.44128" lon="5.64532">
        <ele>686</ele>
        <time>2023-04-10T09:50:49Z</time>
      </trkpt>
      <trkpt lat="45.44131" lon="5.64538">
        <ele>686</ele>
        <time>2023-04-10T09:50:50Z</time>
      </trkpt>
      <trkpt lat="45.44135" lon="5.64546">
        <ele>685</ele>
        <time>2023-04-10T09:50:51Z</time>
      </trkpt>
      <trkpt lat="45.4414" lon="5.64553">
        <ele>685</ele>
        <time>2023-04-10T09:50:52Z</time>
      </trkpt>
      <trkpt lat="45.44148" lon="5.6456">
        <ele>683</ele>
        <time>2023-04-10T09:50:53Z</time>
      </trkpt>
      <trkpt lat="45.44155" lon="5.64567">
        <ele>681</ele>
        <time>2023-04-10T09:50:54Z</time>
      </trkpt>
      <trkpt lat="45.44164" lon="5.64575">
        <ele>680</ele>
        <time>2023-04-10T09:50:55Z</time>
      </trkpt>
      <trkpt lat="45.44173" lon="5.64584">
        <ele>680</ele>
        <time>2023-04-10T09:50:56Z</time>
      </trkpt>
      <trkpt lat="45.4418" lon="5.64593">
        <ele>679</ele>
        <time>2023-04-10T09:50:57Z</time>
      </trkpt>
      <trkpt lat="45.44189" lon="5.64601">
        <ele>679</ele>
        <time>2023-04-10T09:50:58Z</time>
      </trkpt>
      <trkpt lat="45.44197" lon="5.64605">
        <ele>679</ele>
        <time>2023-04-10T09:50:59Z</time>
      </trkpt>
      <trkpt lat="45.44204" lon="5.64609">
        <ele>678</ele>
        <time>2023-04-10T09:51:00Z</time>
      </trkpt>
      <trkpt lat="45.4421" lon="5.64613">
        <ele>678</ele>
        <time>2023-04-10T09:51:01Z</time>
      </trkpt>
      <trkpt lat="45.44216" lon="5.64617">
        <ele>678</ele>
        <time>2023-04-10T09:51:02Z</time>
      </trkpt>
      <trkpt lat="45.44222" lon="5.64622">
        <ele>678</ele>
        <time>2023-04-10T09:51:03Z</time>
      </trkpt>
      <trkpt lat="45.44228" lon="5.64627">
        <ele>678</ele>
        <time>2023-04-10T09:51:04Z</time>
      </trkpt>
      <trkpt lat="45.44234" lon="5.64632">
        <ele>678</ele>
        <time>2023-04-10T09:51:05Z</time>
      </trkpt>
      <trkpt lat="45.4424" lon="5.64638">
        <ele>678</ele>
        <time>2023-04-10T09:51:06Z</time>
      </trkpt>
      <trkpt lat="45.44248" lon="5.64642">
        <ele>677</ele>
        <time>2023-04-10T09:51:07Z</time>
      </trkpt>
      <trkpt lat="45.44256" lon="5.64646">
        <ele>677</ele>
        <time>2023-04-10T09:51:08Z</time>
      </trkpt>
      <trkpt lat="45.44263" lon="5.6465">
        <ele>676</ele>
        <time>2023-04-10T09:51:09Z</time>
      </trkpt>
      <trkpt lat="45.44269" lon="5.64652">
        <ele>675</ele>
        <time>2023-04-10T09:51:10Z</time>
      </trkpt>
      <trkpt lat="45.44272" lon="5.64653">
        <ele>675</ele>
        <time>2023-04-10T09:51:11Z</time>
      </trkpt>
      <trkpt lat="45.44274" lon="5.64654">
        <ele>675</ele>
        <time>2023-04-10T09:51:12Z</time>
      </trkpt>
      <trkpt lat="45.44275" lon="5.64656">
        <ele>673</ele>
        <time>2023-04-10T09:51:26Z</time>
      </trkpt>
      <trkpt lat="45.44274" lon="5.6466">
        <ele>673</ele>
        <time>2023-04-10T09:51:31Z</time>
      </trkpt>
      <trkpt lat="45.44276" lon="5.64661">
        <ele>673</ele>
        <time>2023-04-10T09:51:34Z</time>
      </trkpt>
      <trkpt lat="45.4428" lon="5.64664">
        <ele>673</ele>
        <time>2023-04-10T09:51:36Z</time>
      </trkpt>
      <trkpt lat="45.44283" lon="5.64666">
        <ele>673</ele>
        <time>2023-04-10T09:51:37Z</time>
      </trkpt>
      <trkpt lat="45.44286" lon="5.64669">
        <ele>673</ele>
        <time>2023-04-10T09:51:38Z</time>
      </trkpt>
      <trkpt lat="45.4429" lon="5.64673">
        <ele>673</ele>
        <time>2023-04-10T09:51:39Z</time>
      </trkpt>
      <trkpt lat="45.44295" lon="5.64678">
        <ele>673</ele>
        <time>2023-04-10T09:51:40Z</time>
      </trkpt>
      <trkpt lat="45.443" lon="5.64682">
        <ele>673</ele>
        <time>2023-04-10T09:51:41Z</time>
      </trkpt>
      <trkpt lat="45.44305" lon="5.64688">
        <ele>672</ele>
        <time>2023-04-10T09:51:42Z</time>
      </trkpt>
      <trkpt lat="45.4431" lon="5.64694">
        <ele>672</ele>
        <time>2023-04-10T09:51:43Z</time>
      </trkpt>
      <trkpt lat="45.44314" lon="5.64702">
        <ele>671</ele>
        <time>2023-04-10T09:51:44Z</time>
      </trkpt>
      <trkpt lat="45.44318" lon="5.6471">
        <ele>671</ele>
        <time>2023-04-10T09:51:45Z</time>
      </trkpt>
      <trkpt lat="45.44322" lon="5.64717">
        <ele>671</ele>
        <time>2023-04-10T09:51:46Z</time>
      </trkpt>
      <trkpt lat="45.44326" lon="5.64724">
        <ele>671</ele>
        <time>2023-04-10T09:51:47Z</time>
      </trkpt>
      <trkpt lat="45.4433" lon="5.6473">
        <ele>671</ele>
        <time>2023-04-10T09:51:48Z</time>
      </trkpt>
      <trkpt lat="45.44334" lon="5.64735">
        <ele>671</ele>
        <time>2023-04-10T09:51:49Z</time>
      </trkpt>
      <trkpt lat="45.4434" lon="5.64745">
        <ele>670</ele>
        <time>2023-04-10T09:51:51Z</time>
      </trkpt>
      <trkpt lat="45.44351" lon="5.6476">
        <ele>670</ele>
        <time>2023-04-10T09:51:53Z</time>
      </trkpt>
      <trkpt lat="45.44357" lon="5.64768">
        <ele>670</ele>
        <time>2023-04-10T09:51:54Z</time>
      </trkpt>
      <trkpt lat="45.44363" lon="5.64776">
        <ele>669</ele>
        <time>2023-04-10T09:51:55Z</time>
      </trkpt>
      <trkpt lat="45.44369" lon="5.64785">
        <ele>668</ele>
        <time>2023-04-10T09:51:56Z</time>
      </trkpt>
      <trkpt lat="45.44376" lon="5.64795">
        <ele>667</ele>
        <time>2023-04-10T09:51:57Z</time>
      </trkpt>
      <trkpt lat="45.44382" lon="5.64804">
        <ele>666</ele>
        <time>2023-04-10T09:51:58Z</time>
      </trkpt>
      <trkpt lat="45.44389" lon="5.64811">
        <ele>666</ele>
        <time>2023-04-10T09:51:59Z</time>
      </trkpt>
      <trkpt lat="45.44397" lon="5.64818">
        <ele>665</ele>
        <time>2023-04-10T09:52:00Z</time>
      </trkpt>
      <trkpt lat="45.44405" lon="5.64825">
        <ele>665</ele>
        <time>2023-04-10T09:52:01Z</time>
      </trkpt>
      <trkpt lat="45.44413" lon="5.64832">
        <ele>665</ele>
        <time>2023-04-10T09:52:02Z</time>
      </trkpt>
      <trkpt lat="45.44426" lon="5.64845">
        <ele>664</ele>
        <time>2023-04-10T09:52:04Z</time>
      </trkpt>
      <trkpt lat="45.44442" lon="5.64855">
        <ele>662</ele>
        <time>2023-04-10T09:52:06Z</time>
      </trkpt>
      <trkpt lat="45.4445" lon="5.64864">
        <ele>661</ele>
        <time>2023-04-10T09:52:07Z</time>
      </trkpt>
      <trkpt lat="45.44457" lon="5.64874">
        <ele>660</ele>
        <time>2023-04-10T09:52:08Z</time>
      </trkpt>
      <trkpt lat="45.44463" lon="5.64885">
        <ele>657</ele>
        <time>2023-04-10T09:52:09Z</time>
      </trkpt>
      <trkpt lat="45.4447" lon="5.64898">
        <ele>655</ele>
        <time>2023-04-10T09:52:10Z</time>
      </trkpt>
      <trkpt lat="45.44475" lon="5.6491">
        <ele>654</ele>
        <time>2023-04-10T09:52:11Z</time>
      </trkpt>
      <trkpt lat="45.44479" lon="5.64919">
        <ele>653</ele>
        <time>2023-04-10T09:52:12Z</time>
      </trkpt>
      <trkpt lat="45.4448" lon="5.64923">
        <ele>652</ele>
        <time>2023-04-10T09:52:13Z</time>
      </trkpt>
      <trkpt lat="45.44481" lon="5.64925">
        <ele>652</ele>
        <time>2023-04-10T09:52:15Z</time>
      </trkpt>
      <trkpt lat="45.44484" lon="5.64921">
        <ele>651</ele>
        <time>2023-04-10T09:52:17Z</time>
      </trkpt>
      <trkpt lat="45.44487" lon="5.64917">
        <ele>651</ele>
        <time>2023-04-10T09:52:18Z</time>
      </trkpt>
      <trkpt lat="45.4449" lon="5.64914">
        <ele>651</ele>
        <time>2023-04-10T09:52:19Z</time>
      </trkpt>
      <trkpt lat="45.44493" lon="5.64911">
        <ele>651</ele>
        <time>2023-04-10T09:52:20Z</time>
      </trkpt>
      <trkpt lat="45.44497" lon="5.64908">
        <ele>650</ele>
        <time>2023-04-10T09:52:21Z</time>
      </trkpt>
      <trkpt lat="45.44501" lon="5.64907">
        <ele>649</ele>
        <time>2023-04-10T09:52:22Z</time>
      </trkpt>
      <trkpt lat="45.44505" lon="5.64908">
        <ele>648</ele>
        <time>2023-04-10T09:52:23Z</time>
      </trkpt>
      <trkpt lat="45.44509" lon="5.64911">
        <ele>648</ele>
        <time>2023-04-10T09:52:24Z</time>
      </trkpt>
      <trkpt lat="45.44513" lon="5.64915">
        <ele>647</ele>
        <time>2023-04-10T09:52:25Z</time>
      </trkpt>
      <trkpt lat="45.44516" lon="5.64919">
        <ele>646</ele>
        <time>2023-04-10T09:52:26Z</time>
      </trkpt>
      <trkpt lat="45.4452" lon="5.64923">
        <ele>646</ele>
        <time>2023-04-10T09:52:27Z</time>
      </trkpt>
      <trkpt lat="45.44525" lon="5.64926">
        <ele>646</ele>
        <time>2023-04-10T09:52:28Z</time>
      </trkpt>
      <trkpt lat="45.44529" lon="5.64927">
        <ele>646</ele>
        <time>2023-04-10T09:52:29Z</time>
      </trkpt>
      <trkpt lat="45.44535" lon="5.64927">
        <ele>645</ele>
        <time>2023-04-10T09:52:30Z</time>
      </trkpt>
      <trkpt lat="45.4454" lon="5.64928">
        <ele>645</ele>
        <time>2023-04-10T09:52:31Z</time>
      </trkpt>
      <trkpt lat="45.44546" lon="5.64928">
        <ele>645</ele>
        <time>2023-04-10T09:52:32Z</time>
      </trkpt>
      <trkpt lat="45.44551" lon="5.64929">
        <ele>645</ele>
        <time>2023-04-10T09:52:33Z</time>
      </trkpt>
      <trkpt lat="45.44555" lon="5.64927">
        <ele>644</ele>
        <time>2023-04-10T09:52:34Z</time>
      </trkpt>
      <trkpt lat="45.44558" lon="5.64924">
        <ele>643</ele>
        <time>2023-04-10T09:52:35Z</time>
      </trkpt>
      <trkpt lat="45.44562" lon="5.64922">
        <ele>643</ele>
        <time>2023-04-10T09:52:36Z</time>
      </trkpt>
      <trkpt lat="45.44565" lon="5.64923">
        <ele>642</ele>
        <time>2023-04-10T09:52:37Z</time>
      </trkpt>
      <trkpt lat="45.44568" lon="5.64925">
        <ele>642</ele>
        <time>2023-04-10T09:52:38Z</time>
      </trkpt>
      <trkpt lat="45.44568" lon="5.64929">
        <ele>642</ele>
        <time>2023-04-10T09:52:39Z</time>
      </trkpt>
      <trkpt lat="45.44569" lon="5.64933">
        <ele>643</ele>
        <time>2023-04-10T09:52:40Z</time>
      </trkpt>
      <trkpt lat="45.44568" lon="5.64936">
        <ele>643</ele>
        <time>2023-04-10T09:52:41Z</time>
      </trkpt>
      <trkpt lat="45.44568" lon="5.6494">
        <ele>643</ele>
        <time>2023-04-10T09:52:42Z</time>
      </trkpt>
      <trkpt lat="45.44568" lon="5.64945">
        <ele>643</ele>
        <time>2023-04-10T09:52:43Z</time>
      </trkpt>
      <trkpt lat="45.44568" lon="5.64952">
        <ele>643</ele>
        <time>2023-04-10T09:52:44Z</time>
      </trkpt>
      <trkpt lat="45.44568" lon="5.64958">
        <ele>643</ele>
        <time>2023-04-10T09:52:45Z</time>
      </trkpt>
      <trkpt lat="45.44568" lon="5.64965">
        <ele>643</ele>
        <time>2023-04-10T09:52:46Z</time>
      </trkpt>
      <trkpt lat="45.44568" lon="5.64972">
        <ele>643</ele>
        <time>2023-04-10T09:52:47Z</time>
      </trkpt>
      <trkpt lat="45.44568" lon="5.64978">
        <ele>643</ele>
        <time>2023-04-10T09:52:48Z</time>
      </trkpt>
      <trkpt lat="45.44567" lon="5.64983">
        <ele>643</ele>
        <time>2023-04-10T09:52:49Z</time>
      </trkpt>
      <trkpt lat="45.44567" lon="5.64988">
        <ele>643</ele>
        <time>2023-04-10T09:52:50Z</time>
      </trkpt>
      <trkpt lat="45.44566" lon="5.64992">
        <ele>643</ele>
        <time>2023-04-10T09:52:51Z</time>
      </trkpt>
      <trkpt lat="45.44565" lon="5.64996">
        <ele>643</ele>
        <time>2023-04-10T09:52:52Z</time>
      </trkpt>
      <trkpt lat="45.44565" lon="5.64999">
        <ele>643</ele>
        <time>2023-04-10T09:52:53Z</time>
      </trkpt>
      <trkpt lat="45.44565" lon="5.65004">
        <ele>643</ele>
        <time>2023-04-10T09:52:54Z</time>
      </trkpt>
      <trkpt lat="45.44566" lon="5.65009">
        <ele>643</ele>
        <time>2023-04-10T09:52:55Z</time>
      </trkpt>
      <trkpt lat="45.44569" lon="5.65013">
        <ele>643</ele>
        <time>2023-04-10T09:52:56Z</time>
      </trkpt>
      <trkpt lat="45.44571" lon="5.65015">
        <ele>643</ele>
        <time>2023-04-10T09:52:57Z</time>
      </trkpt>
      <trkpt lat="45.44576" lon="5.65016">
        <ele>643</ele>
        <time>2023-04-10T09:52:58Z</time>
      </trkpt>
      <trkpt lat="45.44581" lon="5.65017">
        <ele>643</ele>
        <time>2023-04-10T09:52:59Z</time>
      </trkpt>
      <trkpt lat="45.44585" lon="5.65018">
        <ele>643</ele>
        <time>2023-04-10T09:53:00Z</time>
      </trkpt>
      <trkpt lat="45.44589" lon="5.65019">
        <ele>643</ele>
        <time>2023-04-10T09:53:01Z</time>
      </trkpt>
      <trkpt lat="45.44593" lon="5.6502">
        <ele>643</ele>
        <time>2023-04-10T09:53:02Z</time>
      </trkpt>
      <trkpt lat="45.44597" lon="5.65022">
        <ele>643</ele>
        <time>2023-04-10T09:53:03Z</time>
      </trkpt>
      <trkpt lat="45.446" lon="5.65024">
        <ele>643</ele>
        <time>2023-04-10T09:53:04Z</time>
      </trkpt>
      <trkpt lat="45.44603" lon="5.65028">
        <ele>643</ele>
        <time>2023-04-10T09:53:05Z</time>
      </trkpt>
      <trkpt lat="45.44607" lon="5.65032">
        <ele>643</ele>
        <time>2023-04-10T09:53:06Z</time>
      </trkpt>
      <trkpt lat="45.44612" lon="5.65036">
        <ele>643</ele>
        <time>2023-04-10T09:53:07Z</time>
      </trkpt>
      <trkpt lat="45.44617" lon="5.65041">
        <ele>643</ele>
        <time>2023-04-10T09:53:08Z</time>
      </trkpt>
      <trkpt lat="45.44623" lon="5.65045">
        <ele>643</ele>
        <time>2023-04-10T09:53:09Z</time>
      </trkpt>
      <trkpt lat="45.44628" lon="5.65051">
        <ele>642</ele>
        <time>2023-04-10T09:53:10Z</time>
      </trkpt>
      <trkpt lat="45.44633" lon="5.65057">
        <ele>641</ele>
        <time>2023-04-10T09:53:11Z</time>
      </trkpt>
      <trkpt lat="45.44638" lon="5.65063">
        <ele>641</ele>
        <time>2023-04-10T09:53:12Z</time>
      </trkpt>
      <trkpt lat="45.44644" lon="5.65069">
        <ele>640</ele>
        <time>2023-04-10T09:53:13Z</time>
      </trkpt>
      <trkpt lat="45.44656" lon="5.65079">
        <ele>639</ele>
        <time>2023-04-10T09:53:15Z</time>
      </trkpt>
      <trkpt lat="45.44663" lon="5.65086">
        <ele>639</ele>
        <time>2023-04-10T09:53:16Z</time>
      </trkpt>
      <trkpt lat="45.4467" lon="5.65095">
        <ele>639</ele>
        <time>2023-04-10T09:53:17Z</time>
      </trkpt>
      <trkpt lat="45.44678" lon="5.65103">
        <ele>638</ele>
        <time>2023-04-10T09:53:18Z</time>
      </trkpt>
      <trkpt lat="45.44688" lon="5.65113">
        <ele>638</ele>
        <time>2023-04-10T09:53:19Z</time>
      </trkpt>
      <trkpt lat="45.44697" lon="5.65122">
        <ele>636</ele>
        <time>2023-04-10T09:53:20Z</time>
      </trkpt>
      <trkpt lat="45.44705" lon="5.65131">
        <ele>635</ele>
        <time>2023-04-10T09:53:21Z</time>
      </trkpt>
      <trkpt lat="45.44711" lon="5.6514">
        <ele>633</ele>
        <time>2023-04-10T09:53:22Z</time>
      </trkpt>
      <trkpt lat="45.44714" lon="5.6515">
        <ele>632</ele>
        <time>2023-04-10T09:53:23Z</time>
      </trkpt>
      <trkpt lat="45.44716" lon="5.65169">
        <ele>630</ele>
        <time>2023-04-10T09:53:25Z</time>
      </trkpt>
      <trkpt lat="45.44712" lon="5.65189">
        <ele>629</ele>
        <time>2023-04-10T09:53:27Z</time>
      </trkpt>
      <trkpt lat="45.44709" lon="5.65201">
        <ele>627</ele>
        <time>2023-04-10T09:53:28Z</time>
      </trkpt>
      <trkpt lat="45.44704" lon="5.65214">
        <ele>625</ele>
        <time>2023-04-10T09:53:29Z</time>
      </trkpt>
      <trkpt lat="45.44701" lon="5.65225">
        <ele>624</ele>
        <time>2023-04-10T09:53:30Z</time>
      </trkpt>
      <trkpt lat="45.447" lon="5.65234">
        <ele>623</ele>
        <time>2023-04-10T09:53:31Z</time>
      </trkpt>
      <trkpt lat="45.44702" lon="5.65241">
        <ele>622</ele>
        <time>2023-04-10T09:53:32Z</time>
      </trkpt>
      <trkpt lat="45.44707" lon="5.65245">
        <ele>621</ele>
        <time>2023-04-10T09:53:33Z</time>
      </trkpt>
      <trkpt lat="45.44713" lon="5.65247">
        <ele>621</ele>
        <time>2023-04-10T09:53:34Z</time>
      </trkpt>
      <trkpt lat="45.4472" lon="5.65251">
        <ele>620</ele>
        <time>2023-04-10T09:53:35Z</time>
      </trkpt>
      <trkpt lat="45.44727" lon="5.65254">
        <ele>620</ele>
        <time>2023-04-10T09:53:36Z</time>
      </trkpt>
      <trkpt lat="45.44735" lon="5.65256">
        <ele>619</ele>
        <time>2023-04-10T09:53:37Z</time>
      </trkpt>
      <trkpt lat="45.44741" lon="5.65258">
        <ele>618</ele>
        <time>2023-04-10T09:53:38Z</time>
      </trkpt>
      <trkpt lat="45.44747" lon="5.65259">
        <ele>617</ele>
        <time>2023-04-10T09:53:39Z</time>
      </trkpt>
      <trkpt lat="45.44751" lon="5.65261">
        <ele>617</ele>
        <time>2023-04-10T09:53:40Z</time>
      </trkpt>
      <trkpt lat="45.44754" lon="5.65264">
        <ele>618</ele>
        <time>2023-04-10T09:53:41Z</time>
      </trkpt>
      <trkpt lat="45.44754" lon="5.65267">
        <ele>618</ele>
        <time>2023-04-10T09:53:42Z</time>
      </trkpt>
      <trkpt lat="45.44752" lon="5.65269">
        <ele>618</ele>
        <time>2023-04-10T09:53:43Z</time>
      </trkpt>
      <trkpt lat="45.4475" lon="5.65267">
        <ele>619</ele>
        <time>2023-04-10T09:53:44Z</time>
      </trkpt>
      <trkpt lat="45.44749" lon="5.65265">
        <ele>619</ele>
        <time>2023-04-10T09:53:45Z</time>
      </trkpt>
      <trkpt lat="45.44747" lon="5.65262">
        <ele>619</ele>
        <time>2023-04-10T09:53:46Z</time>
      </trkpt>
      <trkpt lat="45.44744" lon="5.6526">
        <ele>619</ele>
        <time>2023-04-10T09:53:47Z</time>
      </trkpt>
      <trkpt lat="45.44741" lon="5.65258">
        <ele>619</ele>
        <time>2023-04-10T09:53:48Z</time>
      </trkpt>
      <trkpt lat="45.44739" lon="5.65254">
        <ele>619</ele>
        <time>2023-04-10T09:53:49Z</time>
      </trkpt>
      <trkpt lat="45.44739" lon="5.65249">
        <ele>619</ele>
        <time>2023-04-10T09:53:50Z</time>
      </trkpt>
      <trkpt lat="45.44743" lon="5.65246">
        <ele>618</ele>
        <time>2023-04-10T09:53:51Z</time>
      </trkpt>
      <trkpt lat="45.44748" lon="5.65242">
        <ele>617</ele>
        <time>2023-04-10T09:53:52Z</time>
      </trkpt>
      <trkpt lat="45.44753" lon="5.65237">
        <ele>616</ele>
        <time>2023-04-10T09:53:53Z</time>
      </trkpt>
      <trkpt lat="45.44757" lon="5.65229">
        <ele>616</ele>
        <time>2023-04-10T09:53:54Z</time>
      </trkpt>
      <trkpt lat="45.44759" lon="5.65219">
        <ele>615</ele>
        <time>2023-04-10T09:53:55Z</time>
      </trkpt>
      <trkpt lat="45.4476" lon="5.65208">
        <ele>614</ele>
        <time>2023-04-10T09:53:56Z</time>
      </trkpt>
      <trkpt lat="45.44763" lon="5.65196">
        <ele>614</ele>
        <time>2023-04-10T09:53:57Z</time>
      </trkpt>
      <trkpt lat="45.44767" lon="5.65187">
        <ele>613</ele>
        <time>2023-04-10T09:53:58Z</time>
      </trkpt>
      <trkpt lat="45.44773" lon="5.6518">
        <ele>612</ele>
        <time>2023-04-10T09:53:59Z</time>
      </trkpt>
      <trkpt lat="45.4478" lon="5.65172">
        <ele>611</ele>
        <time>2023-04-10T09:54:00Z</time>
      </trkpt>
      <trkpt lat="45.44786" lon="5.65163">
        <ele>611</ele>
        <time>2023-04-10T09:54:01Z</time>
      </trkpt>
      <trkpt lat="45.44792" lon="5.65152">
        <ele>610</ele>
        <time>2023-04-10T09:54:02Z</time>
      </trkpt>
      <trkpt lat="45.44797" lon="5.65142">
        <ele>608</ele>
        <time>2023-04-10T09:54:03Z</time>
      </trkpt>
      <trkpt lat="45.44803" lon="5.65133">
        <ele>606</ele>
        <time>2023-04-10T09:54:04Z</time>
      </trkpt>
      <trkpt lat="45.44812" lon="5.65123">
        <ele>604</ele>
        <time>2023-04-10T09:54:05Z</time>
      </trkpt>
      <trkpt lat="45.4482" lon="5.65114">
        <ele>604</ele>
        <time>2023-04-10T09:54:06Z</time>
      </trkpt>
      <trkpt lat="45.4483" lon="5.65106">
        <ele>603</ele>
        <time>2023-04-10T09:54:07Z</time>
      </trkpt>
      <trkpt lat="45.44841" lon="5.65099">
        <ele>602</ele>
        <time>2023-04-10T09:54:08Z</time>
      </trkpt>
      <trkpt lat="45.44849" lon="5.65092">
        <ele>602</ele>
        <time>2023-04-10T09:54:09Z</time>
      </trkpt>
      <trkpt lat="45.44858" lon="5.65087">
        <ele>602</ele>
        <time>2023-04-10T09:54:10Z</time>
      </trkpt>
      <trkpt lat="45.44865" lon="5.65083">
        <ele>602</ele>
        <time>2023-04-10T09:54:11Z</time>
      </trkpt>
      <trkpt lat="45.44872" lon="5.65078">
        <ele>601</ele>
        <time>2023-04-10T09:54:12Z</time>
      </trkpt>
      <trkpt lat="45.44879" lon="5.65073">
        <ele>599</ele>
        <time>2023-04-10T09:54:13Z</time>
      </trkpt>
      <trkpt lat="45.44886" lon="5.65065">
        <ele>597</ele>
        <time>2023-04-10T09:54:14Z</time>
      </trkpt>
      <trkpt lat="45.44893" lon="5.65057">
        <ele>596</ele>
        <time>2023-04-10T09:54:15Z</time>
      </trkpt>
      <trkpt lat="45.44901" lon="5.65051">
        <ele>593</ele>
        <time>2023-04-10T09:54:16Z</time>
      </trkpt>
      <trkpt lat="45.44911" lon="5.65046">
        <ele>592</ele>
        <time>2023-04-10T09:54:17Z</time>
      </trkpt>
      <trkpt lat="45.44921" lon="5.65042">
        <ele>588</ele>
        <time>2023-04-10T09:54:18Z</time>
      </trkpt>
      <trkpt lat="45.44933" lon="5.65037">
        <ele>584</ele>
        <time>2023-04-10T09:54:19Z</time>
      </trkpt>
      <trkpt lat="45.44945" lon="5.6503">
        <ele>583</ele>
        <time>2023-04-10T09:54:20Z</time>
      </trkpt>
      <trkpt lat="45.44956" lon="5.65024">
        <ele>582</ele>
        <time>2023-04-10T09:54:21Z</time>
      </trkpt>
      <trkpt lat="45.44966" lon="5.65015">
        <ele>582</ele>
        <time>2023-04-10T09:54:22Z</time>
      </trkpt>
      <trkpt lat="45.44975" lon="5.65004">
        <ele>579</ele>
        <time>2023-04-10T09:54:23Z</time>
      </trkpt>
      <trkpt lat="45.44983" lon="5.64993">
        <ele>577</ele>
        <time>2023-04-10T09:54:24Z</time>
      </trkpt>
      <trkpt lat="45.4499" lon="5.64984">
        <ele>575</ele>
        <time>2023-04-10T09:54:25Z</time>
      </trkpt>
      <trkpt lat="45.44998" lon="5.64979">
        <ele>575</ele>
        <time>2023-04-10T09:54:26Z</time>
      </trkpt>
      <trkpt lat="45.45006" lon="5.64973">
        <ele>574</ele>
        <time>2023-04-10T09:54:27Z</time>
      </trkpt>
      <trkpt lat="45.45014" lon="5.64967">
        <ele>573</ele>
        <time>2023-04-10T09:54:28Z</time>
      </trkpt>
      <trkpt lat="45.45021" lon="5.6496">
        <ele>573</ele>
        <time>2023-04-10T09:54:29Z</time>
      </trkpt>
      <trkpt lat="45.45028" lon="5.64952">
        <ele>572</ele>
        <time>2023-04-10T09:54:30Z</time>
      </trkpt>
      <trkpt lat="45.45032" lon="5.64944">
        <ele>570</ele>
        <time>2023-04-10T09:54:31Z</time>
      </trkpt>
      <trkpt lat="45.45035" lon="5.64934">
        <ele>569</ele>
        <time>2023-04-10T09:54:32Z</time>
      </trkpt>
      <trkpt lat="45.45036" lon="5.64922">
        <ele>568</ele>
        <time>2023-04-10T09:54:33Z</time>
      </trkpt>
      <trkpt lat="45.45036" lon="5.64911">
        <ele>567</ele>
        <time>2023-04-10T09:54:34Z</time>
      </trkpt>
      <trkpt lat="45.45037" lon="5.64901">
        <ele>566</ele>
        <time>2023-04-10T09:54:35Z</time>
      </trkpt>
      <trkpt lat="45.45039" lon="5.64894">
        <ele>566</ele>
        <time>2023-04-10T09:54:36Z</time>
      </trkpt>
      <trkpt lat="45.45044" lon="5.64889">
        <ele>565</ele>
        <time>2023-04-10T09:54:37Z</time>
      </trkpt>
      <trkpt lat="45.45051" lon="5.64887">
        <ele>564</ele>
        <time>2023-04-10T09:54:38Z</time>
      </trkpt>
      <trkpt lat="45.45059" lon="5.64887">
        <ele>562</ele>
        <time>2023-04-10T09:54:39Z</time>
      </trkpt>
      <trkpt lat="45.45068" lon="5.64891">
        <ele>560</ele>
        <time>2023-04-10T09:54:40Z</time>
      </trkpt>
      <trkpt lat="45.45079" lon="5.64894">
        <ele>559</ele>
        <time>2023-04-10T09:54:41Z</time>
      </trkpt>
      <trkpt lat="45.45091" lon="5.64898">
        <ele>557</ele>
        <time>2023-04-10T09:54:42Z</time>
      </trkpt>
      <trkpt lat="45.45104" lon="5.649">
        <ele>554</ele>
        <time>2023-04-10T09:54:43Z</time>
      </trkpt>
      <trkpt lat="45.45116" lon="5.64902">
        <ele>551</ele>
        <time>2023-04-10T09:54:44Z</time>
      </trkpt>
      <trkpt lat="45.45128" lon="5.64906">
        <ele>549</ele>
        <time>2023-04-10T09:54:45Z</time>
      </trkpt>
      <trkpt lat="45.45141" lon="5.64912">
        <ele>548</ele>
        <time>2023-04-10T09:54:46Z</time>
      </trkpt>
      <trkpt lat="45.45152" lon="5.64919">
        <ele>545</ele>
        <time>2023-04-10T09:54:47Z</time>
      </trkpt>
      <trkpt lat="45.45162" lon="5.64926">
        <ele>543</ele>
        <time>2023-04-10T09:54:48Z</time>
      </trkpt>
      <trkpt lat="45.4517" lon="5.64933">
        <ele>541</ele>
        <time>2023-04-10T09:54:49Z</time>
      </trkpt>
      <trkpt lat="45.45178" lon="5.64937">
        <ele>539</ele>
        <time>2023-04-10T09:54:50Z</time>
      </trkpt>
      <trkpt lat="45.45186" lon="5.64937">
        <ele>537</ele>
        <time>2023-04-10T09:54:51Z</time>
      </trkpt>
      <trkpt lat="45.45194" lon="5.64933">
        <ele>535</ele>
        <time>2023-04-10T09:54:52Z</time>
      </trkpt>
      <trkpt lat="45.45201" lon="5.64926">
        <ele>534</ele>
        <time>2023-04-10T09:54:53Z</time>
      </trkpt>
      <trkpt lat="45.45209" lon="5.6492">
        <ele>534</ele>
        <time>2023-04-10T09:54:54Z</time>
      </trkpt>
      <trkpt lat="45.45218" lon="5.64917">
        <ele>534</ele>
        <time>2023-04-10T09:54:55Z</time>
      </trkpt>
      <trkpt lat="45.45228" lon="5.64915">
        <ele>533</ele>
        <time>2023-04-10T09:54:56Z</time>
      </trkpt>
      <trkpt lat="45.4524" lon="5.64915">
        <ele>530</ele>
        <time>2023-04-10T09:54:57Z</time>
      </trkpt>
      <trkpt lat="45.45252" lon="5.64916">
        <ele>530</ele>
        <time>2023-04-10T09:54:58Z</time>
      </trkpt>
      <trkpt lat="45.45264" lon="5.64916">
        <ele>530</ele>
        <time>2023-04-10T09:54:59Z</time>
      </trkpt>
      <trkpt lat="45.45275" lon="5.64914">
        <ele>528</ele>
        <time>2023-04-10T09:55:00Z</time>
      </trkpt>
      <trkpt lat="45.45286" lon="5.64911">
        <ele>528</ele>
        <time>2023-04-10T09:55:01Z</time>
      </trkpt>
      <trkpt lat="45.45298" lon="5.6491">
        <ele>522</ele>
        <time>2023-04-10T09:55:02Z</time>
      </trkpt>
      <trkpt lat="45.4531" lon="5.64912">
        <ele>522</ele>
        <time>2023-04-10T09:55:03Z</time>
      </trkpt>
      <trkpt lat="45.45322" lon="5.64914">
        <ele>520</ele>
        <time>2023-04-10T09:55:04Z</time>
      </trkpt>
      <trkpt lat="45.45335" lon="5.64917">
        <ele>519</ele>
        <time>2023-04-10T09:55:05Z</time>
      </trkpt>
      <trkpt lat="45.45346" lon="5.6492">
        <ele>517</ele>
        <time>2023-04-10T09:55:06Z</time>
      </trkpt>
      <trkpt lat="45.45355" lon="5.64923">
        <ele>514</ele>
        <time>2023-04-10T09:55:07Z</time>
      </trkpt>
      <trkpt lat="45.45361" lon="5.64924">
        <ele>512</ele>
        <time>2023-04-10T09:55:08Z</time>
      </trkpt>
      <trkpt lat="45.45366" lon="5.64922">
        <ele>510</ele>
        <time>2023-04-10T09:55:09Z</time>
      </trkpt>
      <trkpt lat="45.45367" lon="5.64916">
        <ele>508</ele>
        <time>2023-04-10T09:55:10Z</time>
      </trkpt>
      <trkpt lat="45.45366" lon="5.64908">
        <ele>507</ele>
        <time>2023-04-10T09:55:11Z</time>
      </trkpt>
      <trkpt lat="45.45362" lon="5.64901">
        <ele>506</ele>
        <time>2023-04-10T09:55:12Z</time>
      </trkpt>
      <trkpt lat="45.45357" lon="5.64893">
        <ele>505</ele>
        <time>2023-04-10T09:55:13Z</time>
      </trkpt>
      <trkpt lat="45.45354" lon="5.64885">
        <ele>504</ele>
        <time>2023-04-10T09:55:14Z</time>
      </trkpt>
      <trkpt lat="45.45355" lon="5.64877">
        <ele>504</ele>
        <time>2023-04-10T09:55:15Z</time>
      </trkpt>
      <trkpt lat="45.45358" lon="5.64871">
        <ele>504</ele>
        <time>2023-04-10T09:55:16Z</time>
      </trkpt>
      <trkpt lat="45.45362" lon="5.64867">
        <ele>502</ele>
        <time>2023-04-10T09:55:17Z</time>
      </trkpt>
      <trkpt lat="45.45365" lon="5.64862">
        <ele>500</ele>
        <time>2023-04-10T09:55:18Z</time>
      </trkpt>
      <trkpt lat="45.45365" lon="5.64856">
        <ele>498</ele>
        <time>2023-04-10T09:55:19Z</time>
      </trkpt>
      <trkpt lat="45.45363" lon="5.64848">
        <ele>498</ele>
        <time>2023-04-10T09:55:20Z</time>
      </trkpt>
      <trkpt lat="45.45359" lon="5.6484">
        <ele>498</ele>
        <time>2023-04-10T09:55:21Z</time>
      </trkpt>
      <trkpt lat="45.45356" lon="5.64831">
        <ele>498</ele>
        <time>2023-04-10T09:55:22Z</time>
      </trkpt>
      <trkpt lat="45.45352" lon="5.64821">
        <ele>497</ele>
        <time>2023-04-10T09:55:23Z</time>
      </trkpt>
      <trkpt lat="45.45348" lon="5.6481">
        <ele>497</ele>
        <time>2023-04-10T09:55:24Z</time>
      </trkpt>
      <trkpt lat="45.45344" lon="5.648">
        <ele>496</ele>
        <time>2023-04-10T09:55:25Z</time>
      </trkpt>
      <trkpt lat="45.45339" lon="5.6479">
        <ele>496</ele>
        <time>2023-04-10T09:55:26Z</time>
      </trkpt>
      <trkpt lat="45.45335" lon="5.6478">
        <ele>496</ele>
        <time>2023-04-10T09:55:27Z</time>
      </trkpt>
      <trkpt lat="45.4533" lon="5.64769">
        <ele>495</ele>
        <time>2023-04-10T09:55:28Z</time>
      </trkpt>
      <trkpt lat="45.45326" lon="5.64757">
        <ele>494</ele>
        <time>2023-04-10T09:55:29Z</time>
      </trkpt>
      <trkpt lat="45.45322" lon="5.64745">
        <ele>493</ele>
        <time>2023-04-10T09:55:30Z</time>
      </trkpt>
      <trkpt lat="45.45318" lon="5.64733">
        <ele>493</ele>
        <time>2023-04-10T09:55:31Z</time>
      </trkpt>
      <trkpt lat="45.45315" lon="5.64722">
        <ele>493</ele>
        <time>2023-04-10T09:55:32Z</time>
      </trkpt>
      <trkpt lat="45.45309" lon="5.64711">
        <ele>492</ele>
        <time>2023-04-10T09:55:33Z</time>
      </trkpt>
      <trkpt lat="45.45303" lon="5.647">
        <ele>491</ele>
        <time>2023-04-10T09:55:34Z</time>
      </trkpt>
      <trkpt lat="45.45297" lon="5.6469">
        <ele>491</ele>
        <time>2023-04-10T09:55:35Z</time>
      </trkpt>
      <trkpt lat="45.45291" lon="5.64681">
        <ele>491</ele>
        <time>2023-04-10T09:55:36Z</time>
      </trkpt>
      <trkpt lat="45.45283" lon="5.64673">
        <ele>491</ele>
        <time>2023-04-10T09:55:37Z</time>
      </trkpt>
      <trkpt lat="45.45275" lon="5.64667">
        <ele>490</ele>
        <time>2023-04-10T09:55:38Z</time>
      </trkpt>
      <trkpt lat="45.45265" lon="5.64663">
        <ele>490</ele>
        <time>2023-04-10T09:55:39Z</time>
      </trkpt>
      <trkpt lat="45.45256" lon="5.64659">
        <ele>489</ele>
        <time>2023-04-10T09:55:40Z</time>
      </trkpt>
      <trkpt lat="45.45246" lon="5.64656">
        <ele>489</ele>
        <time>2023-04-10T09:55:41Z</time>
      </trkpt>
      <trkpt lat="45.45237" lon="5.64654">
        <ele>488</ele>
        <time>2023-04-10T09:55:42Z</time>
      </trkpt>
      <trkpt lat="45.45228" lon="5.64652">
        <ele>487</ele>
        <time>2023-04-10T09:55:43Z</time>
      </trkpt>
      <trkpt lat="45.45219" lon="5.64652">
        <ele>487</ele>
        <time>2023-04-10T09:55:44Z</time>
      </trkpt>
      <trkpt lat="45.4521" lon="5.64653">
        <ele>487</ele>
        <time>2023-04-10T09:55:45Z</time>
      </trkpt>
      <trkpt lat="45.45203" lon="5.64656">
        <ele>487</ele>
        <time>2023-04-10T09:55:46Z</time>
      </trkpt>
      <trkpt lat="45.45197" lon="5.64661">
        <ele>487</ele>
        <time>2023-04-10T09:55:47Z</time>
      </trkpt>
      <trkpt lat="45.45191" lon="5.64665">
        <ele>487</ele>
        <time>2023-04-10T09:55:48Z</time>
      </trkpt>
      <trkpt lat="45.45186" lon="5.64668">
        <ele>486</ele>
        <time>2023-04-10T09:55:49Z</time>
      </trkpt>
      <trkpt lat="45.45181" lon="5.6467">
        <ele>485</ele>
        <time>2023-04-10T09:55:50Z</time>
      </trkpt>
      <trkpt lat="45.45174" lon="5.6467">
        <ele>486</ele>
        <time>2023-04-10T09:55:51Z</time>
      </trkpt>
      <trkpt lat="45.45166" lon="5.64668">
        <ele>488</ele>
        <time>2023-04-10T09:55:52Z</time>
      </trkpt>
      <trkpt lat="45.45159" lon="5.64665">
        <ele>488</ele>
        <time>2023-04-10T09:55:53Z</time>
      </trkpt>
      <trkpt lat="45.45152" lon="5.64662">
        <ele>487</ele>
        <time>2023-04-10T09:55:54Z</time>
      </trkpt>
      <trkpt lat="45.45145" lon="5.64659">
        <ele>486</ele>
        <time>2023-04-10T09:55:55Z</time>
      </trkpt>
      <trkpt lat="45.45138" lon="5.64656">
        <ele>486</ele>
        <time>2023-04-10T09:55:56Z</time>
      </trkpt>
      <trkpt lat="45.45131" lon="5.64652">
        <ele>485</ele>
        <time>2023-04-10T09:55:57Z</time>
      </trkpt>
      <trkpt lat="45.45124" lon="5.64648">
        <ele>485</ele>
        <time>2023-04-10T09:55:58Z</time>
      </trkpt>
      <trkpt lat="45.45116" lon="5.64643">
        <ele>485</ele>
        <time>2023-04-10T09:55:59Z</time>
      </trkpt>
      <trkpt lat="45.45109" lon="5.64639">
        <ele>485</ele>
        <time>2023-04-10T09:56:00Z</time>
      </trkpt>
      <trkpt lat="45.45103" lon="5.64635">
        <ele>485</ele>
        <time>2023-04-10T09:56:01Z</time>
      </trkpt>
      <trkpt lat="45.45096" lon="5.6463">
        <ele>485</ele>
        <time>2023-04-10T09:56:02Z</time>
      </trkpt>
      <trkpt lat="45.4509" lon="5.64627">
        <ele>485</ele>
        <time>2023-04-10T09:56:03Z</time>
      </trkpt>
      <trkpt lat="45.45084" lon="5.64623">
        <ele>485</ele>
        <time>2023-04-10T09:56:04Z</time>
      </trkpt>
      <trkpt lat="45.45078" lon="5.6462">
        <ele>485</ele>
        <time>2023-04-10T09:56:05Z</time>
      </trkpt>
      <trkpt lat="45.45073" lon="5.64617">
        <ele>485</ele>
        <time>2023-04-10T09:56:06Z</time>
      </trkpt>
      <trkpt lat="45.45067" lon="5.64614">
        <ele>485</ele>
        <time>2023-04-10T09:56:07Z</time>
      </trkpt>
      <trkpt lat="45.45062" lon="5.64611">
        <ele>485</ele>
        <time>2023-04-10T09:56:08Z</time>
      </trkpt>
      <trkpt lat="45.45057" lon="5.64608">
        <ele>485</ele>
        <time>2023-04-10T09:56:09Z</time>
      </trkpt>
      <trkpt lat="45.45052" lon="5.64604">
        <ele>485</ele>
        <time>2023-04-10T09:56:10Z</time>
      </trkpt>
      <trkpt lat="45.45046" lon="5.646">
        <ele>485</ele>
        <time>2023-04-10T09:56:11Z</time>
      </trkpt>
      <trkpt lat="45.45041" lon="5.64595">
        <ele>485</ele>
        <time>2023-04-10T09:56:12Z</time>
      </trkpt>
      <trkpt lat="45.45037" lon="5.6459">
        <ele>486</ele>
        <time>2023-04-10T09:56:13Z</time>
      </trkpt>
      <trkpt lat="45.45032" lon="5.64584">
        <ele>486</ele>
        <time>2023-04-10T09:56:14Z</time>
      </trkpt>
      <trkpt lat="45.45027" lon="5.64578">
        <ele>486</ele>
        <time>2023-04-10T09:56:15Z</time>
      </trkpt>
      <trkpt lat="45.45022" lon="5.64571">
        <ele>486</ele>
        <time>2023-04-10T09:56:16Z</time>
      </trkpt>
      <trkpt lat="45.45016" lon="5.64565">
        <ele>485</ele>
        <time>2023-04-10T09:56:17Z</time>
      </trkpt>
      <trkpt lat="45.45011" lon="5.64558">
        <ele>485</ele>
        <time>2023-04-10T09:56:18Z</time>
      </trkpt>
      <trkpt lat="45.45005" lon="5.64552">
        <ele>485</ele>
        <time>2023-04-10T09:56:19Z</time>
      </trkpt>
      <trkpt lat="45.45" lon="5.64547">
        <ele>485</ele>
        <time>2023-04-10T09:56:20Z</time>
      </trkpt>
      <trkpt lat="45.44994" lon="5.64541">
        <ele>485</ele>
        <time>2023-04-10T09:56:21Z</time>
      </trkpt>
      <trkpt lat="45.44989" lon="5.64537">
        <ele>485</ele>
        <time>2023-04-10T09:56:22Z</time>
      </trkpt>
      <trkpt lat="45.44984" lon="5.64532">
        <ele>485</ele>
        <time>2023-04-10T09:56:23Z</time>
      </trkpt>
      <trkpt lat="45.44978" lon="5.64528">
        <ele>484</ele>
        <time>2023-04-10T09:56:24Z</time>
      </trkpt>
      <trkpt lat="45.44973" lon="5.64525">
        <ele>484</ele>
        <time>2023-04-10T09:56:25Z</time>
      </trkpt>
      <trkpt lat="45.44968" lon="5.64522">
        <ele>484</ele>
        <time>2023-04-10T09:56:26Z</time>
      </trkpt>
      <trkpt lat="45.44963" lon="5.64518">
        <ele>484</ele>
        <time>2023-04-10T09:56:27Z</time>
      </trkpt>
      <trkpt lat="45.44957" lon="5.64515">
        <ele>485</ele>
        <time>2023-04-10T09:56:28Z</time>
      </trkpt>
      <trkpt lat="45.44952" lon="5.64511">
        <ele>485</ele>
        <time>2023-04-10T09:56:29Z</time>
      </trkpt>
      <trkpt lat="45.44947" lon="5.64507">
        <ele>485</ele>
        <time>2023-04-10T09:56:30Z</time>
      </trkpt>
      <trkpt lat="45.44941" lon="5.64503">
        <ele>485</ele>
        <time>2023-04-10T09:56:31Z</time>
      </trkpt>
      <trkpt lat="45.44936" lon="5.64498">
        <ele>485</ele>
        <time>2023-04-10T09:56:32Z</time>
      </trkpt>
      <trkpt lat="45.44931" lon="5.64494">
        <ele>485</ele>
        <time>2023-04-10T09:56:33Z</time>
      </trkpt>
      <trkpt lat="45.44927" lon="5.6449">
        <ele>485</ele>
        <time>2023-04-10T09:56:34Z</time>
      </trkpt>
      <trkpt lat="45.44922" lon="5.64485">
        <ele>485</ele>
        <time>2023-04-10T09:56:35Z</time>
      </trkpt>
      <trkpt lat="45.44916" lon="5.6448">
        <ele>485</ele>
        <time>2023-04-10T09:56:36Z</time>
      </trkpt>
      <trkpt lat="45.44911" lon="5.64473">
        <ele>484</ele>
        <time>2023-04-10T09:56:37Z</time>
      </trkpt>
      <trkpt lat="45.44907" lon="5.64464">
        <ele>484</ele>
        <time>2023-04-10T09:56:38Z</time>
      </trkpt>
      <trkpt lat="45.44904" lon="5.64453">
        <ele>484</ele>
        <time>2023-04-10T09:56:39Z</time>
      </trkpt>
      <trkpt lat="45.44903" lon="5.6444">
        <ele>484</ele>
        <time>2023-04-10T09:56:40Z</time>
      </trkpt>
      <trkpt lat="45.44904" lon="5.64428">
        <ele>482</ele>
        <time>2023-04-10T09:56:41Z</time>
      </trkpt>
      <trkpt lat="45.44906" lon="5.64417">
        <ele>481</ele>
        <time>2023-04-10T09:56:42Z</time>
      </trkpt>
      <trkpt lat="45.4491" lon="5.64407">
        <ele>481</ele>
        <time>2023-04-10T09:56:43Z</time>
      </trkpt>
      <trkpt lat="45.44916" lon="5.64398">
        <ele>480</ele>
        <time>2023-04-10T09:56:44Z</time>
      </trkpt>
      <trkpt lat="45.44922" lon="5.64388">
        <ele>479</ele>
        <time>2023-04-10T09:56:45Z</time>
      </trkpt>
      <trkpt lat="45.44928" lon="5.64377">
        <ele>479</ele>
        <time>2023-04-10T09:56:46Z</time>
      </trkpt>
      <trkpt lat="45.44933" lon="5.64366">
        <ele>478</ele>
        <time>2023-04-10T09:56:47Z</time>
      </trkpt>
      <trkpt lat="45.44938" lon="5.64355">
        <ele>477</ele>
        <time>2023-04-10T09:56:48Z</time>
      </trkpt>
      <trkpt lat="45.44942" lon="5.64344">
        <ele>476</ele>
        <time>2023-04-10T09:56:49Z</time>
      </trkpt>
      <trkpt lat="45.44946" lon="5.64334">
        <ele>476</ele>
        <time>2023-04-10T09:56:50Z</time>
      </trkpt>
      <trkpt lat="45.44951" lon="5.64325">
        <ele>475</ele>
        <time>2023-04-10T09:56:51Z</time>
      </trkpt>
      <trkpt lat="45.44957" lon="5.64318">
        <ele>474</ele>
        <time>2023-04-10T09:56:52Z</time>
      </trkpt>
      <trkpt lat="45.44963" lon="5.64313">
        <ele>474</ele>
        <time>2023-04-10T09:56:53Z</time>
      </trkpt>
      <trkpt lat="45.4497" lon="5.6431">
        <ele>474</ele>
        <time>2023-04-10T09:56:54Z</time>
      </trkpt>
      <trkpt lat="45.44977" lon="5.64307">
        <ele>474</ele>
        <time>2023-04-10T09:56:55Z</time>
      </trkpt>
      <trkpt lat="45.44984" lon="5.64304">
        <ele>474</ele>
        <time>2023-04-10T09:56:56Z</time>
      </trkpt>
      <trkpt lat="45.44992" lon="5.64299">
        <ele>474</ele>
        <time>2023-04-10T09:56:57Z</time>
      </trkpt>
      <trkpt lat="45.45002" lon="5.64294">
        <ele>473</ele>
        <time>2023-04-10T09:56:58Z</time>
      </trkpt>
      <trkpt lat="45.45012" lon="5.64289">
        <ele>473</ele>
        <time>2023-04-10T09:56:59Z</time>
      </trkpt>
      <trkpt lat="45.45023" lon="5.64283">
        <ele>473</ele>
        <time>2023-04-10T09:57:00Z</time>
      </trkpt>
      <trkpt lat="45.45034" lon="5.64276">
        <ele>473</ele>
        <time>2023-04-10T09:57:01Z</time>
      </trkpt>
      <trkpt lat="45.45046" lon="5.64269">
        <ele>469</ele>
        <time>2023-04-10T09:57:02Z</time>
      </trkpt>
      <trkpt lat="45.45057" lon="5.64261">
        <ele>467</ele>
        <time>2023-04-10T09:57:03Z</time>
      </trkpt>
      <trkpt lat="45.45069" lon="5.64254">
        <ele>467</ele>
        <time>2023-04-10T09:57:04Z</time>
      </trkpt>
      <trkpt lat="45.4508" lon="5.64247">
        <ele>464</ele>
        <time>2023-04-10T09:57:05Z</time>
      </trkpt>
      <trkpt lat="45.45089" lon="5.64238">
        <ele>463</ele>
        <time>2023-04-10T09:57:06Z</time>
      </trkpt>
      <trkpt lat="45.45098" lon="5.64226">
        <ele>461</ele>
        <time>2023-04-10T09:57:07Z</time>
      </trkpt>
      <trkpt lat="45.45106" lon="5.64213">
        <ele>459</ele>
        <time>2023-04-10T09:57:08Z</time>
      </trkpt>
      <trkpt lat="45.45113" lon="5.64197">
        <ele>457</ele>
        <time>2023-04-10T09:57:09Z</time>
      </trkpt>
      <trkpt lat="45.4512" lon="5.64181">
        <ele>456</ele>
        <time>2023-04-10T09:57:10Z</time>
      </trkpt>
      <trkpt lat="45.45127" lon="5.64163">
        <ele>455</ele>
        <time>2023-04-10T09:57:11Z</time>
      </trkpt>
      <trkpt lat="45.45134" lon="5.64145">
        <ele>454</ele>
        <time>2023-04-10T09:57:12Z</time>
      </trkpt>
      <trkpt lat="45.45142" lon="5.64127">
        <ele>451</ele>
        <time>2023-04-10T09:57:13Z</time>
      </trkpt>
      <trkpt lat="45.4515" lon="5.6411">
        <ele>448</ele>
        <time>2023-04-10T09:57:14Z</time>
      </trkpt>
      <trkpt lat="45.45158" lon="5.64094">
        <ele>445</ele>
        <time>2023-04-10T09:57:15Z</time>
      </trkpt>
      <trkpt lat="45.45167" lon="5.64078">
        <ele>442</ele>
        <time>2023-04-10T09:57:16Z</time>
      </trkpt>
      <trkpt lat="45.45177" lon="5.64064">
        <ele>438</ele>
        <time>2023-04-10T09:57:17Z</time>
      </trkpt>
      <trkpt lat="45.45188" lon="5.64052">
        <ele>436</ele>
        <time>2023-04-10T09:57:18Z</time>
      </trkpt>
      <trkpt lat="45.45198" lon="5.64041">
        <ele>434</ele>
        <time>2023-04-10T09:57:19Z</time>
      </trkpt>
      <trkpt lat="45.45208" lon="5.64032">
        <ele>431</ele>
        <time>2023-04-10T09:57:20Z</time>
      </trkpt>
      <trkpt lat="45.45216" lon="5.64025">
        <ele>430</ele>
        <time>2023-04-10T09:57:21Z</time>
      </trkpt>
      <trkpt lat="45.45223" lon="5.64019">
        <ele>427</ele>
        <time>2023-04-10T09:57:22Z</time>
      </trkpt>
      <trkpt lat="45.45228" lon="5.64015">
        <ele>425</ele>
        <time>2023-04-10T09:57:23Z</time>
      </trkpt>
      <trkpt lat="45.45234" lon="5.64013">
        <ele>423</ele>
        <time>2023-04-10T09:57:24Z</time>
      </trkpt>
      <trkpt lat="45.4524" lon="5.64014">
        <ele>422</ele>
        <time>2023-04-10T09:57:25Z</time>
      </trkpt>
      <trkpt lat="45.45245" lon="5.6402">
        <ele>421</ele>
        <time>2023-04-10T09:57:26Z</time>
      </trkpt>
      <trkpt lat="45.45251" lon="5.64026">
        <ele>420</ele>
        <time>2023-04-10T09:57:27Z</time>
      </trkpt>
      <trkpt lat="45.45259" lon="5.6403">
        <ele>419</ele>
        <time>2023-04-10T09:57:28Z</time>
      </trkpt>
      <trkpt lat="45.45267" lon="5.64029">
        <ele>418</ele>
        <time>2023-04-10T09:57:29Z</time>
      </trkpt>
      <trkpt lat="45.45276" lon="5.64024">
        <ele>418</ele>
        <time>2023-04-10T09:57:30Z</time>
      </trkpt>
      <trkpt lat="45.45284" lon="5.64019">
        <ele>417</ele>
        <time>2023-04-10T09:57:31Z</time>
      </trkpt>
      <trkpt lat="45.45293" lon="5.64013">
        <ele>416</ele>
        <time>2023-04-10T09:57:32Z</time>
      </trkpt>
      <trkpt lat="45.45302" lon="5.64006">
        <ele>415</ele>
        <time>2023-04-10T09:57:33Z</time>
      </trkpt>
      <trkpt lat="45.45311" lon="5.63999">
        <ele>414</ele>
        <time>2023-04-10T09:57:34Z</time>
      </trkpt>
      <trkpt lat="45.4532" lon="5.63992">
        <ele>413</ele>
        <time>2023-04-10T09:57:35Z</time>
      </trkpt>
      <trkpt lat="45.45329" lon="5.63984">
        <ele>412</ele>
        <time>2023-04-10T09:57:36Z</time>
      </trkpt>
      <trkpt lat="45.45339" lon="5.63978">
        <ele>412</ele>
        <time>2023-04-10T09:57:37Z</time>
      </trkpt>
      <trkpt lat="45.45349" lon="5.63972">
        <ele>411</ele>
        <time>2023-04-10T09:57:38Z</time>
      </trkpt>
      <trkpt lat="45.45359" lon="5.63966">
        <ele>411</ele>
        <time>2023-04-10T09:57:39Z</time>
      </trkpt>
      <trkpt lat="45.45369" lon="5.63961">
        <ele>410</ele>
        <time>2023-04-10T09:57:40Z</time>
      </trkpt>
      <trkpt lat="45.45379" lon="5.63956">
        <ele>410</ele>
        <time>2023-04-10T09:57:41Z</time>
      </trkpt>
      <trkpt lat="45.45387" lon="5.63948">
        <ele>410</ele>
        <time>2023-04-10T09:57:42Z</time>
      </trkpt>
      <trkpt lat="45.45395" lon="5.6394">
        <ele>409</ele>
        <time>2023-04-10T09:57:43Z</time>
      </trkpt>
      <trkpt lat="45.45401" lon="5.6393">
        <ele>409</ele>
        <time>2023-04-10T09:57:44Z</time>
      </trkpt>
      <trkpt lat="45.45406" lon="5.6392">
        <ele>409</ele>
        <time>2023-04-10T09:57:45Z</time>
      </trkpt>
      <trkpt lat="45.4541" lon="5.63909">
        <ele>408</ele>
        <time>2023-04-10T09:57:46Z</time>
      </trkpt>
      <trkpt lat="45.45414" lon="5.63898">
        <ele>408</ele>
        <time>2023-04-10T09:57:47Z</time>
      </trkpt>
      <trkpt lat="45.45417" lon="5.63887">
        <ele>408</ele>
        <time>2023-04-10T09:57:48Z</time>
      </trkpt>
      <trkpt lat="45.45421" lon="5.63877">
        <ele>408</ele>
        <time>2023-04-10T09:57:49Z</time>
      </trkpt>
      <trkpt lat="45.45424" lon="5.63869">
        <ele>408</ele>
        <time>2023-04-10T09:57:50Z</time>
      </trkpt>
      <trkpt lat="45.45428" lon="5.63861">
        <ele>408</ele>
        <time>2023-04-10T09:57:51Z</time>
      </trkpt>
      <trkpt lat="45.45431" lon="5.63854">
        <ele>409</ele>
        <time>2023-04-10T09:57:52Z</time>
      </trkpt>
      <trkpt lat="45.45434" lon="5.63848">
        <ele>410</ele>
        <time>2023-04-10T09:57:53Z</time>
      </trkpt>
      <trkpt lat="45.45437" lon="5.63844">
        <ele>410</ele>
        <time>2023-04-10T09:57:54Z</time>
      </trkpt>
      <trkpt lat="45.45438" lon="5.6384">
        <ele>410</ele>
        <time>2023-04-10T09:57:55Z</time>
      </trkpt>
      <trkpt lat="45.45439" lon="5.63837">
        <ele>410</ele>
        <time>2023-04-10T09:57:56Z</time>
      </trkpt>
      <trkpt lat="45.45441" lon="5.63835">
        <ele>410</ele>
        <time>2023-04-10T09:57:57Z</time>
      </trkpt>
      <trkpt lat="45.45442" lon="5.63831">
        <ele>410</ele>
        <time>2023-04-10T09:57:58Z</time>
      </trkpt>
      <trkpt lat="45.45444" lon="5.63827">
        <ele>410</ele>
        <time>2023-04-10T09:57:59Z</time>
      </trkpt>
      <trkpt lat="45.45445" lon="5.63823">
        <ele>410</ele>
        <time>2023-04-10T09:58:00Z</time>
      </trkpt>
      <trkpt lat="45.45446" lon="5.63818">
        <ele>411</ele>
        <time>2023-04-10T09:58:01Z</time>
      </trkpt>
      <trkpt lat="45.45447" lon="5.63813">
        <ele>411</ele>
        <time>2023-04-10T09:58:02Z</time>
      </trkpt>
      <trkpt lat="45.45449" lon="5.63808">
        <ele>411</ele>
        <time>2023-04-10T09:58:03Z</time>
      </trkpt>
      <trkpt lat="45.4545" lon="5.63803">
        <ele>411</ele>
        <time>2023-04-10T09:58:04Z</time>
      </trkpt>
      <trkpt lat="45.45452" lon="5.63798">
        <ele>411</ele>
        <time>2023-04-10T09:58:05Z</time>
      </trkpt>
      <trkpt lat="45.45454" lon="5.63793">
        <ele>411</ele>
        <time>2023-04-10T09:58:06Z</time>
      </trkpt>
      <trkpt lat="45.45455" lon="5.63788">
        <ele>411</ele>
        <time>2023-04-10T09:58:07Z</time>
      </trkpt>
      <trkpt lat="45.45457" lon="5.63784">
        <ele>412</ele>
        <time>2023-04-10T09:58:08Z</time>
      </trkpt>
      <trkpt lat="45.45458" lon="5.63779">
        <ele>412</ele>
        <time>2023-04-10T09:58:09Z</time>
      </trkpt>
      <trkpt lat="45.4546" lon="5.63775">
        <ele>412</ele>
        <time>2023-04-10T09:58:10Z</time>
      </trkpt>
      <trkpt lat="45.45461" lon="5.6377">
        <ele>412</ele>
        <time>2023-04-10T09:58:11Z</time>
      </trkpt>
      <trkpt lat="45.45462" lon="5.63766">
        <ele>412</ele>
        <time>2023-04-10T09:58:12Z</time>
      </trkpt>
      <trkpt lat="45.45463" lon="5.63762">
        <ele>413</ele>
        <time>2023-04-10T09:58:13Z</time>
      </trkpt>
      <trkpt lat="45.45464" lon="5.63757">
        <ele>413</ele>
        <time>2023-04-10T09:58:14Z</time>
      </trkpt>
      <trkpt lat="45.45464" lon="5.63753">
        <ele>413</ele>
        <time>2023-04-10T09:58:15Z</time>
      </trkpt>
      <trkpt lat="45.45465" lon="5.63749">
        <ele>413</ele>
        <time>2023-04-10T09:58:16Z</time>
      </trkpt>
      <trkpt lat="45.45465" lon="5.63744">
        <ele>413</ele>
        <time>2023-04-10T09:58:17Z</time>
      </trkpt>
      <trkpt lat="45.45465" lon="5.6374">
        <ele>414</ele>
        <time>2023-04-10T09:58:18Z</time>
      </trkpt>
      <trkpt lat="45.45465" lon="5.63736">
        <ele>414</ele>
        <time>2023-04-10T09:58:19Z</time>
      </trkpt>
      <trkpt lat="45.45465" lon="5.63731">
        <ele>414</ele>
        <time>2023-04-10T09:58:20Z</time>
      </trkpt>
      <trkpt lat="45.45465" lon="5.63727">
        <ele>414</ele>
        <time>2023-04-10T09:58:21Z</time>
      </trkpt>
      <trkpt lat="45.45464" lon="5.63724">
        <ele>414</ele>
        <time>2023-04-10T09:58:22Z</time>
      </trkpt>
      <trkpt lat="45.45463" lon="5.6372">
        <ele>414</ele>
        <time>2023-04-10T09:58:23Z</time>
      </trkpt>
      <trkpt lat="45.45461" lon="5.63718">
        <ele>415</ele>
        <time>2023-04-10T09:58:24Z</time>
      </trkpt>
      <trkpt lat="45.45458" lon="5.63715">
        <ele>415</ele>
        <time>2023-04-10T09:58:25Z</time>
      </trkpt>
      <trkpt lat="45.45455" lon="5.63714">
        <ele>415</ele>
        <time>2023-04-10T09:58:26Z</time>
      </trkpt>
      <trkpt lat="45.45451" lon="5.63712">
        <ele>415</ele>
        <time>2023-04-10T09:58:27Z</time>
      </trkpt>
      <trkpt lat="45.45447" lon="5.6371">
        <ele>416</ele>
        <time>2023-04-10T09:58:28Z</time>
      </trkpt>
      <trkpt lat="45.45443" lon="5.63708">
        <ele>416</ele>
        <time>2023-04-10T09:58:29Z</time>
      </trkpt>
      <trkpt lat="45.45439" lon="5.63706">
        <ele>416</ele>
        <time>2023-04-10T09:58:30Z</time>
      </trkpt>
      <trkpt lat="45.45434" lon="5.63704">
        <ele>416</ele>
        <time>2023-04-10T09:58:31Z</time>
      </trkpt>
      <trkpt lat="45.4543" lon="5.63702">
        <ele>416</ele>
        <time>2023-04-10T09:58:32Z</time>
      </trkpt>
      <trkpt lat="45.45425" lon="5.637">
        <ele>416</ele>
        <time>2023-04-10T09:58:33Z</time>
      </trkpt>
      <trkpt lat="45.4542" lon="5.63697">
        <ele>416</ele>
        <time>2023-04-10T09:58:34Z</time>
      </trkpt>
      <trkpt lat="45.45415" lon="5.63695">
        <ele>416</ele>
        <time>2023-04-10T09:58:35Z</time>
      </trkpt>
      <trkpt lat="45.4541" lon="5.63692">
        <ele>416</ele>
        <time>2023-04-10T09:58:36Z</time>
      </trkpt>
      <trkpt lat="45.45406" lon="5.63688">
        <ele>416</ele>
        <time>2023-04-10T09:58:37Z</time>
      </trkpt>
      <trkpt lat="45.45401" lon="5.63685">
        <ele>415</ele>
        <time>2023-04-10T09:58:38Z</time>
      </trkpt>
      <trkpt lat="45.45397" lon="5.63682">
        <ele>415</ele>
        <time>2023-04-10T09:58:39Z</time>
      </trkpt>
      <trkpt lat="45.45392" lon="5.63679">
        <ele>415</ele>
        <time>2023-04-10T09:58:40Z</time>
      </trkpt>
      <trkpt lat="45.45388" lon="5.63675">
        <ele>415</ele>
        <time>2023-04-10T09:58:41Z</time>
      </trkpt>
      <trkpt lat="45.45384" lon="5.63671">
        <ele>415</ele>
        <time>2023-04-10T09:58:42Z</time>
      </trkpt>
      <trkpt lat="45.45379" lon="5.63668">
        <ele>415</ele>
        <time>2023-04-10T09:58:43Z</time>
      </trkpt>
      <trkpt lat="45.45375" lon="5.63663">
        <ele>415</ele>
        <time>2023-04-10T09:58:44Z</time>
      </trkpt>
      <trkpt lat="45.45371" lon="5.6366">
        <ele>415</ele>
        <time>2023-04-10T09:58:45Z</time>
      </trkpt>
      <trkpt lat="45.45366" lon="5.63656">
        <ele>415</ele>
        <time>2023-04-10T09:58:46Z</time>
      </trkpt>
      <trkpt lat="45.45357" lon="5.6365">
        <ele>416</ele>
        <time>2023-04-10T09:58:48Z</time>
      </trkpt>
      <trkpt lat="45.45353" lon="5.63648">
        <ele>416</ele>
        <time>2023-04-10T09:58:49Z</time>
      </trkpt>
      <trkpt lat="45.45348" lon="5.63645">
        <ele>415</ele>
        <time>2023-04-10T09:58:50Z</time>
      </trkpt>
      <trkpt lat="45.45344" lon="5.63642">
        <ele>415</ele>
        <time>2023-04-10T09:58:51Z</time>
      </trkpt>
      <trkpt lat="45.45339" lon="5.63639">
        <ele>415</ele>
        <time>2023-04-10T09:58:52Z</time>
      </trkpt>
      <trkpt lat="45.45335" lon="5.63636">
        <ele>416</ele>
        <time>2023-04-10T09:58:53Z</time>
      </trkpt>
      <trkpt lat="45.45331" lon="5.63633">
        <ele>416</ele>
        <time>2023-04-10T09:58:54Z</time>
      </trkpt>
      <trkpt lat="45.45326" lon="5.63629">
        <ele>416</ele>
        <time>2023-04-10T09:58:55Z</time>
      </trkpt>
      <trkpt lat="45.45322" lon="5.63626">
        <ele>416</ele>
        <time>2023-04-10T09:58:56Z</time>
      </trkpt>
      <trkpt lat="45.45318" lon="5.63622">
        <ele>416</ele>
        <time>2023-04-10T09:58:57Z</time>
      </trkpt>
      <trkpt lat="45.45314" lon="5.63618">
        <ele>416</ele>
        <time>2023-04-10T09:58:58Z</time>
      </trkpt>
      <trkpt lat="45.4531" lon="5.63615">
        <ele>415</ele>
        <time>2023-04-10T09:58:59Z</time>
      </trkpt>
      <trkpt lat="45.45305" lon="5.63611">
        <ele>415</ele>
        <time>2023-04-10T09:59:00Z</time>
      </trkpt>
      <trkpt lat="45.45301" lon="5.63608">
        <ele>415</ele>
        <time>2023-04-10T09:59:01Z</time>
      </trkpt>
      <trkpt lat="45.45297" lon="5.63605">
        <ele>415</ele>
        <time>2023-04-10T09:59:02Z</time>
      </trkpt>
      <trkpt lat="45.45292" lon="5.63601">
        <ele>415</ele>
        <time>2023-04-10T09:59:03Z</time>
      </trkpt>
      <trkpt lat="45.45288" lon="5.63598">
        <ele>415</ele>
        <time>2023-04-10T09:59:04Z</time>
      </trkpt>
      <trkpt lat="45.45284" lon="5.63593">
        <ele>415</ele>
        <time>2023-04-10T09:59:05Z</time>
      </trkpt>
      <trkpt lat="45.45281" lon="5.63589">
        <ele>415</ele>
        <time>2023-04-10T09:59:06Z</time>
      </trkpt>
      <trkpt lat="45.45278" lon="5.63584">
        <ele>415</ele>
        <time>2023-04-10T09:59:07Z</time>
      </trkpt>
      <trkpt lat="45.45275" lon="5.63579">
        <ele>415</ele>
        <time>2023-04-10T09:59:08Z</time>
      </trkpt>
      <trkpt lat="45.45272" lon="5.63573">
        <ele>416</ele>
        <time>2023-04-10T09:59:09Z</time>
      </trkpt>
      <trkpt lat="45.4527" lon="5.63568">
        <ele>416</ele>
        <time>2023-04-10T09:59:10Z</time>
      </trkpt>
      <trkpt lat="45.45268" lon="5.63562">
        <ele>416</ele>
        <time>2023-04-10T09:59:11Z</time>
      </trkpt>
      <trkpt lat="45.45266" lon="5.63557">
        <ele>416</ele>
        <time>2023-04-10T09:59:12Z</time>
      </trkpt>
      <trkpt lat="45.45263" lon="5.6355">
        <ele>416</ele>
        <time>2023-04-10T09:59:13Z</time>
      </trkpt>
      <trkpt lat="45.45262" lon="5.63544">
        <ele>416</ele>
        <time>2023-04-10T09:59:14Z</time>
      </trkpt>
      <trkpt lat="45.4526" lon="5.63537">
        <ele>417</ele>
        <time>2023-04-10T09:59:15Z</time>
      </trkpt>
      <trkpt lat="45.45258" lon="5.63531">
        <ele>417</ele>
        <time>2023-04-10T09:59:16Z</time>
      </trkpt>
      <trkpt lat="45.45256" lon="5.63524">
        <ele>417</ele>
        <time>2023-04-10T09:59:17Z</time>
      </trkpt>
      <trkpt lat="45.45255" lon="5.63518">
        <ele>417</ele>
        <time>2023-04-10T09:59:18Z</time>
      </trkpt>
      <trkpt lat="45.45253" lon="5.63512">
        <ele>417</ele>
        <time>2023-04-10T09:59:19Z</time>
      </trkpt>
      <trkpt lat="45.45252" lon="5.63506">
        <ele>417</ele>
        <time>2023-04-10T09:59:20Z</time>
      </trkpt>
      <trkpt lat="45.4525" lon="5.635">
        <ele>417</ele>
        <time>2023-04-10T09:59:21Z</time>
      </trkpt>
      <trkpt lat="45.45249" lon="5.63494">
        <ele>417</ele>
        <time>2023-04-10T09:59:22Z</time>
      </trkpt>
      <trkpt lat="45.45248" lon="5.63489">
        <ele>417</ele>
        <time>2023-04-10T09:59:23Z</time>
      </trkpt>
      <trkpt lat="45.45247" lon="5.63484">
        <ele>418</ele>
        <time>2023-04-10T09:59:24Z</time>
      </trkpt>
      <trkpt lat="45.45247" lon="5.6348">
        <ele>418</ele>
        <time>2023-04-10T09:59:25Z</time>
      </trkpt>
      <trkpt lat="45.45246" lon="5.63477">
        <ele>418</ele>
        <time>2023-04-10T09:59:26Z</time>
      </trkpt>
      <trkpt lat="45.45246" lon="5.63474">
        <ele>418</ele>
        <time>2023-04-10T09:59:27Z</time>
      </trkpt>
      <trkpt lat="45.45246" lon="5.63471">
        <ele>418</ele>
        <time>2023-04-10T09:59:28Z</time>
      </trkpt>
      <trkpt lat="45.45246" lon="5.63468">
        <ele>418</ele>
        <time>2023-04-10T09:59:29Z</time>
      </trkpt>
      <trkpt lat="45.45246" lon="5.63464">
        <ele>419</ele>
        <time>2023-04-10T09:59:30Z</time>
      </trkpt>
      <trkpt lat="45.45247" lon="5.63461">
        <ele>420</ele>
        <time>2023-04-10T09:59:31Z</time>
      </trkpt>
      <trkpt lat="45.45249" lon="5.63457">
        <ele>420</ele>
        <time>2023-04-10T09:59:32Z</time>
      </trkpt>
      <trkpt lat="45.4525" lon="5.63452">
        <ele>420</ele>
        <time>2023-04-10T09:59:33Z</time>
      </trkpt>
      <trkpt lat="45.45252" lon="5.63448">
        <ele>420</ele>
        <time>2023-04-10T09:59:34Z</time>
      </trkpt>
      <trkpt lat="45.45253" lon="5.63444">
        <ele>420</ele>
        <time>2023-04-10T09:59:35Z</time>
      </trkpt>
      <trkpt lat="45.45254" lon="5.6344">
        <ele>420</ele>
        <time>2023-04-10T09:59:36Z</time>
      </trkpt>
      <trkpt lat="45.45255" lon="5.63436">
        <ele>420</ele>
        <time>2023-04-10T09:59:37Z</time>
      </trkpt>
      <trkpt lat="45.45256" lon="5.63433">
        <ele>421</ele>
        <time>2023-04-10T09:59:38Z</time>
      </trkpt>
      <trkpt lat="45.45257" lon="5.6343">
        <ele>421</ele>
        <time>2023-04-10T09:59:39Z</time>
      </trkpt>
      <trkpt lat="45.45258" lon="5.63427">
        <ele>421</ele>
        <time>2023-04-10T09:59:40Z</time>
      </trkpt>
      <trkpt lat="45.45259" lon="5.63424">
        <ele>422</ele>
        <time>2023-04-10T09:59:41Z</time>
      </trkpt>
      <trkpt lat="45.45261" lon="5.63421">
        <ele>422</ele>
        <time>2023-04-10T09:59:42Z</time>
      </trkpt>
      <trkpt lat="45.45262" lon="5.63419">
        <ele>422</ele>
        <time>2023-04-10T09:59:43Z</time>
      </trkpt>
      <trkpt lat="45.45263" lon="5.63416">
        <ele>422</ele>
        <time>2023-04-10T09:59:44Z</time>
      </trkpt>
      <trkpt lat="45.45264" lon="5.63414">
        <ele>423</ele>
        <time>2023-04-10T09:59:45Z</time>
      </trkpt>
      <trkpt lat="45.45264" lon="5.63411">
        <ele>423</ele>
        <time>2023-04-10T09:59:46Z</time>
      </trkpt>
      <trkpt lat="45.45265" lon="5.63408">
        <ele>423</ele>
        <time>2023-04-10T09:59:47Z</time>
      </trkpt>
      <trkpt lat="45.45266" lon="5.63406">
        <ele>423</ele>
        <time>2023-04-10T09:59:48Z</time>
      </trkpt>
      <trkpt lat="45.45267" lon="5.63403">
        <ele>424</ele>
        <time>2023-04-10T09:59:49Z</time>
      </trkpt>
      <trkpt lat="45.45268" lon="5.63401">
        <ele>424</ele>
        <time>2023-04-10T09:59:50Z</time>
      </trkpt>
      <trkpt lat="45.45269" lon="5.63398">
        <ele>424</ele>
        <time>2023-04-10T09:59:51Z</time>
      </trkpt>
      <trkpt lat="45.45269" lon="5.63396">
        <ele>424</ele>
        <time>2023-04-10T09:59:52Z</time>
      </trkpt>
      <trkpt lat="45.4527" lon="5.63394">
        <ele>424</ele>
        <time>2023-04-10T09:59:53Z</time>
      </trkpt>
      <trkpt lat="45.45271" lon="5.63392">
        <ele>424</ele>
        <time>2023-04-10T09:59:54Z</time>
      </trkpt>
      <trkpt lat="45.45272" lon="5.63387">
        <ele>425</ele>
        <time>2023-04-10T09:59:56Z</time>
      </trkpt>
      <trkpt lat="45.45273" lon="5.63382">
        <ele>426</ele>
        <time>2023-04-10T09:59:58Z</time>
      </trkpt>
      <trkpt lat="45.45274" lon="5.63379">
        <ele>426</ele>
        <time>2023-04-10T09:59:59Z</time>
      </trkpt>
      <trkpt lat="45.45274" lon="5.63377">
        <ele>426</ele>
        <time>2023-04-10T10:00:00Z</time>
      </trkpt>
      <trkpt lat="45.45275" lon="5.63374">
        <ele>426</ele>
        <time>2023-04-10T10:00:01Z</time>
      </trkpt>
      <trkpt lat="45.45276" lon="5.63372">
        <ele>426</ele>
        <time>2023-04-10T10:00:02Z</time>
      </trkpt>
      <trkpt lat="45.45277" lon="5.63369">
        <ele>426</ele>
        <time>2023-04-10T10:00:03Z</time>
      </trkpt>
      <trkpt lat="45.45277" lon="5.63367">
        <ele>427</ele>
        <time>2023-04-10T10:00:04Z</time>
      </trkpt>
      <trkpt lat="45.45278" lon="5.63364">
        <ele>428</ele>
        <time>2023-04-10T10:00:05Z</time>
      </trkpt>
      <trkpt lat="45.45279" lon="5.63362">
        <ele>428</ele>
        <time>2023-04-10T10:00:06Z</time>
      </trkpt>
      <trkpt lat="45.4528" lon="5.6336">
        <ele>428</ele>
        <time>2023-04-10T10:00:07Z</time>
      </trkpt>
      <trkpt lat="45.45281" lon="5.63357">
        <ele>428</ele>
        <time>2023-04-10T10:00:08Z</time>
      </trkpt>
      <trkpt lat="45.45282" lon="5.63355">
        <ele>428</ele>
        <time>2023-04-10T10:00:09Z</time>
      </trkpt>
      <trkpt lat="45.45283" lon="5.63353">
        <ele>429</ele>
        <time>2023-04-10T10:00:10Z</time>
      </trkpt>
      <trkpt lat="45.45284" lon="5.6335">
        <ele>430</ele>
        <time>2023-04-10T10:00:11Z</time>
      </trkpt>
      <trkpt lat="45.45284" lon="5.63348">
        <ele>430</ele>
        <time>2023-04-10T10:00:12Z</time>
      </trkpt>
      <trkpt lat="45.45285" lon="5.63345">
        <ele>430</ele>
        <time>2023-04-10T10:00:13Z</time>
      </trkpt>
      <trkpt lat="45.45286" lon="5.63343">
        <ele>430</ele>
        <time>2023-04-10T10:00:14Z</time>
      </trkpt>
      <trkpt lat="45.45287" lon="5.63341">
        <ele>430</ele>
        <time>2023-04-10T10:00:15Z</time>
      </trkpt>
      <trkpt lat="45.45287" lon="5.63338">
        <ele>430</ele>
        <time>2023-04-10T10:00:16Z</time>
      </trkpt>
      <trkpt lat="45.45288" lon="5.63335">
        <ele>430</ele>
        <time>2023-04-10T10:00:17Z</time>
      </trkpt>
      <trkpt lat="45.45289" lon="5.63333">
        <ele>430</ele>
        <time>2023-04-10T10:00:18Z</time>
      </trkpt>
      <trkpt lat="45.4529" lon="5.63331">
        <ele>430</ele>
        <time>2023-04-10T10:00:19Z</time>
      </trkpt>
      <trkpt lat="45.4529" lon="5.63328">
        <ele>430</ele>
        <time>2023-04-10T10:00:20Z</time>
      </trkpt>
      <trkpt lat="45.45291" lon="5.63324">
        <ele>431</ele>
        <time>2023-04-10T10:00:22Z</time>
      </trkpt>
      <trkpt lat="45.45292" lon="5.6332">
        <ele>432</ele>
        <time>2023-04-10T10:00:24Z</time>
      </trkpt>
      <trkpt lat="45.45293" lon="5.63316">
        <ele>432</ele>
        <time>2023-04-10T10:00:26Z</time>
      </trkpt>
      <trkpt lat="45.45294" lon="5.63312">
        <ele>433</ele>
        <time>2023-04-10T10:00:28Z</time>
      </trkpt>
      <trkpt lat="45.45296" lon="5.63309">
        <ele>433</ele>
        <time>2023-04-10T10:00:30Z</time>
      </trkpt>
      <trkpt lat="45.45297" lon="5.63306">
        <ele>433</ele>
        <time>2023-04-10T10:00:32Z</time>
      </trkpt>
      <trkpt lat="45.45298" lon="5.63303">
        <ele>435</ele>
        <time>2023-04-10T10:00:34Z</time>
      </trkpt>
      <trkpt lat="45.45299" lon="5.63299">
        <ele>436</ele>
        <time>2023-04-10T10:00:36Z</time>
      </trkpt>
      <trkpt lat="45.453" lon="5.63295">
        <ele>436</ele>
        <time>2023-04-10T10:00:38Z</time>
      </trkpt>
      <trkpt lat="45.45301" lon="5.63291">
        <ele>436</ele>
        <time>2023-04-10T10:00:40Z</time>
      </trkpt>
      <trkpt lat="45.45302" lon="5.63287">
        <ele>436</ele>
        <time>2023-04-10T10:00:42Z</time>
      </trkpt>
      <trkpt lat="45.45303" lon="5.63283">
        <ele>436</ele>
        <time>2023-04-10T10:00:44Z</time>
      </trkpt>
      <trkpt lat="45.45304" lon="5.6328">
        <ele>436</ele>
        <time>2023-04-10T10:00:46Z</time>
      </trkpt>
      <trkpt lat="45.45305" lon="5.63275">
        <ele>437</ele>
        <time>2023-04-10T10:00:48Z</time>
      </trkpt>
      <trkpt lat="45.45306" lon="5.63271">
        <ele>439</ele>
        <time>2023-04-10T10:00:50Z</time>
      </trkpt>
      <trkpt lat="45.45308" lon="5.63266">
        <ele>439</ele>
        <time>2023-04-10T10:00:52Z</time>
      </trkpt>
      <trkpt lat="45.45309" lon="5.63264">
        <ele>439</ele>
        <time>2023-04-10T10:00:53Z</time>
      </trkpt>
      <trkpt lat="45.4531" lon="5.63262">
        <ele>440</ele>
        <time>2023-04-10T10:00:54Z</time>
      </trkpt>
      <trkpt lat="45.45311" lon="5.6326">
        <ele>440</ele>
        <time>2023-04-10T10:00:55Z</time>
      </trkpt>
      <trkpt lat="45.45312" lon="5.63257">
        <ele>440</ele>
        <time>2023-04-10T10:00:56Z</time>
      </trkpt>
      <trkpt lat="45.45314" lon="5.63253">
        <ele>441</ele>
        <time>2023-04-10T10:00:58Z</time>
      </trkpt>
      <trkpt lat="45.45316" lon="5.63249">
        <ele>442</ele>
        <time>2023-04-10T10:01:00Z</time>
      </trkpt>
      <trkpt lat="45.45317" lon="5.63244">
        <ele>442</ele>
        <time>2023-04-10T10:01:02Z</time>
      </trkpt>
      <trkpt lat="45.45318" lon="5.63242">
        <ele>442</ele>
        <time>2023-04-10T10:01:03Z</time>
      </trkpt>
      <trkpt lat="45.45319" lon="5.63239">
        <ele>442</ele>
        <time>2023-04-10T10:01:04Z</time>
      </trkpt>
      <trkpt lat="45.4532" lon="5.63235">
        <ele>442</ele>
        <time>2023-04-10T10:01:06Z</time>
      </trkpt>
      <trkpt lat="45.45321" lon="5.63233">
        <ele>443</ele>
        <time>2023-04-10T10:01:07Z</time>
      </trkpt>
      <trkpt lat="45.45322" lon="5.6323">
        <ele>443</ele>
        <time>2023-04-10T10:01:08Z</time>
      </trkpt>
      <trkpt lat="45.45323" lon="5.63228">
        <ele>443</ele>
        <time>2023-04-10T10:01:09Z</time>
      </trkpt>
      <trkpt lat="45.45325" lon="5.63224">
        <ele>444</ele>
        <time>2023-04-10T10:01:11Z</time>
      </trkpt>
      <trkpt lat="45.45327" lon="5.63221">
        <ele>445</ele>
        <time>2023-04-10T10:01:13Z</time>
      </trkpt>
      <trkpt lat="45.45328" lon="5.63217">
        <ele>446</ele>
        <time>2023-04-10T10:01:15Z</time>
      </trkpt>
      <trkpt lat="45.4533" lon="5.63213">
        <ele>446</ele>
        <time>2023-04-10T10:01:17Z</time>
      </trkpt>
      <trkpt lat="45.45332" lon="5.63211">
        <ele>446</ele>
        <time>2023-04-10T10:01:18Z</time>
      </trkpt>
      <trkpt lat="45.45333" lon="5.63209">
        <ele>446</ele>
        <time>2023-04-10T10:01:19Z</time>
      </trkpt>
      <trkpt lat="45.45335" lon="5.63208">
        <ele>446</ele>
        <time>2023-04-10T10:01:20Z</time>
      </trkpt>
      <trkpt lat="45.45337" lon="5.63207">
        <ele>447</ele>
        <time>2023-04-10T10:01:21Z</time>
      </trkpt>
      <trkpt lat="45.45339" lon="5.63207">
        <ele>447</ele>
        <time>2023-04-10T10:01:22Z</time>
      </trkpt>
      <trkpt lat="45.45343" lon="5.63207">
        <ele>448</ele>
        <time>2023-04-10T10:01:24Z</time>
      </trkpt>
      <trkpt lat="45.45345" lon="5.63208">
        <ele>448</ele>
        <time>2023-04-10T10:01:25Z</time>
      </trkpt>
      <trkpt lat="45.45347" lon="5.63208">
        <ele>448</ele>
        <time>2023-04-10T10:01:26Z</time>
      </trkpt>
      <trkpt lat="45.45349" lon="5.63209">
        <ele>448</ele>
        <time>2023-04-10T10:01:27Z</time>
      </trkpt>
      <trkpt lat="45.45351" lon="5.63209">
        <ele>448</ele>
        <time>2023-04-10T10:01:28Z</time>
      </trkpt>
      <trkpt lat="45.45353" lon="5.63208">
        <ele>448</ele>
        <time>2023-04-10T10:01:29Z</time>
      </trkpt>
      <trkpt lat="45.45355" lon="5.63208">
        <ele>448</ele>
        <time>2023-04-10T10:01:30Z</time>
      </trkpt>
      <trkpt lat="45.45357" lon="5.63207">
        <ele>448</ele>
        <time>2023-04-10T10:01:31Z</time>
      </trkpt>
      <trkpt lat="45.45359" lon="5.63206">
        <ele>448</ele>
        <time>2023-04-10T10:01:32Z</time>
      </trkpt>
      <trkpt lat="45.45361" lon="5.63206">
        <ele>448</ele>
        <time>2023-04-10T10:01:33Z</time>
      </trkpt>
      <trkpt lat="45.45363" lon="5.63205">
        <ele>448</ele>
        <time>2023-04-10T10:01:34Z</time>
      </trkpt>
      <trkpt lat="45.45366" lon="5.63204">
        <ele>448</ele>
        <time>2023-04-10T10:01:35Z</time>
      </trkpt>
      <trkpt lat="45.45368" lon="5.63204">
        <ele>448</ele>
        <time>2023-04-10T10:01:36Z</time>
      </trkpt>
      <trkpt lat="45.45371" lon="5.63203">
        <ele>449</ele>
        <time>2023-04-10T10:01:37Z</time>
      </trkpt>
      <trkpt lat="45.45374" lon="5.63202">
        <ele>449</ele>
        <time>2023-04-10T10:01:38Z</time>
      </trkpt>
      <trkpt lat="45.45376" lon="5.63202">
        <ele>449</ele>
        <time>2023-04-10T10:01:39Z</time>
      </trkpt>
      <trkpt lat="45.45379" lon="5.63201">
        <ele>449</ele>
        <time>2023-04-10T10:01:40Z</time>
      </trkpt>
      <trkpt lat="45.45382" lon="5.63201">
        <ele>449</ele>
        <time>2023-04-10T10:01:41Z</time>
      </trkpt>
      <trkpt lat="45.45384" lon="5.632">
        <ele>449</ele>
        <time>2023-04-10T10:01:42Z</time>
      </trkpt>
      <trkpt lat="45.45387" lon="5.63199">
        <ele>449</ele>
        <time>2023-04-10T10:01:43Z</time>
      </trkpt>
      <trkpt lat="45.45389" lon="5.63198">
        <ele>450</ele>
        <time>2023-04-10T10:01:44Z</time>
      </trkpt>
      <trkpt lat="45.45392" lon="5.63197">
        <ele>450</ele>
        <time>2023-04-10T10:01:45Z</time>
      </trkpt>
      <trkpt lat="45.45394" lon="5.63196">
        <ele>450</ele>
        <time>2023-04-10T10:01:46Z</time>
      </trkpt>
      <trkpt lat="45.45397" lon="5.63195">
        <ele>450</ele>
        <time>2023-04-10T10:01:47Z</time>
      </trkpt>
      <trkpt lat="45.45399" lon="5.63194">
        <ele>450</ele>
        <time>2023-04-10T10:01:48Z</time>
      </trkpt>
      <trkpt lat="45.45402" lon="5.63193">
        <ele>450</ele>
        <time>2023-04-10T10:01:49Z</time>
      </trkpt>
      <trkpt lat="45.45404" lon="5.63193">
        <ele>451</ele>
        <time>2023-04-10T10:01:50Z</time>
      </trkpt>
      <trkpt lat="45.45406" lon="5.63192">
        <ele>452</ele>
        <time>2023-04-10T10:01:51Z</time>
      </trkpt>
      <trkpt lat="45.45409" lon="5.6319">
        <ele>452</ele>
        <time>2023-04-10T10:01:52Z</time>
      </trkpt>
      <trkpt lat="45.45411" lon="5.63189">
        <ele>451</ele>
        <time>2023-04-10T10:01:53Z</time>
      </trkpt>
      <trkpt lat="45.45413" lon="5.63187">
        <ele>452</ele>
        <time>2023-04-10T10:01:54Z</time>
      </trkpt>
      <trkpt lat="45.45415" lon="5.63185">
        <ele>452</ele>
        <time>2023-04-10T10:01:55Z</time>
      </trkpt>
      <trkpt lat="45.45418" lon="5.63183">
        <ele>452</ele>
        <time>2023-04-10T10:01:56Z</time>
      </trkpt>
      <trkpt lat="45.4542" lon="5.63181">
        <ele>452</ele>
        <time>2023-04-10T10:01:57Z</time>
      </trkpt>
      <trkpt lat="45.45422" lon="5.63179">
        <ele>452</ele>
        <time>2023-04-10T10:01:58Z</time>
      </trkpt>
      <trkpt lat="45.45425" lon="5.63176">
        <ele>452</ele>
        <time>2023-04-10T10:01:59Z</time>
      </trkpt>
      <trkpt lat="45.45427" lon="5.63173">
        <ele>452</ele>
        <time>2023-04-10T10:02:00Z</time>
      </trkpt>
      <trkpt lat="45.45429" lon="5.6317">
        <ele>453</ele>
        <time>2023-04-10T10:02:01Z</time>
      </trkpt>
      <trkpt lat="45.45431" lon="5.63166">
        <ele>453</ele>
        <time>2023-04-10T10:02:02Z</time>
      </trkpt>
      <trkpt lat="45.45433" lon="5.63163">
        <ele>453</ele>
        <time>2023-04-10T10:02:03Z</time>
      </trkpt>
      <trkpt lat="45.45435" lon="5.6316">
        <ele>453</ele>
        <time>2023-04-10T10:02:04Z</time>
      </trkpt>
      <trkpt lat="45.45437" lon="5.63157">
        <ele>453</ele>
        <time>2023-04-10T10:02:05Z</time>
      </trkpt>
      <trkpt lat="45.4544" lon="5.63154">
        <ele>454</ele>
        <time>2023-04-10T10:02:06Z</time>
      </trkpt>
      <trkpt lat="45.45442" lon="5.63151">
        <ele>454</ele>
        <time>2023-04-10T10:02:07Z</time>
      </trkpt>
      <trkpt lat="45.45443" lon="5.63147">
        <ele>454</ele>
        <time>2023-04-10T10:02:08Z</time>
      </trkpt>
      <trkpt lat="45.45444" lon="5.63143">
        <ele>453</ele>
        <time>2023-04-10T10:02:09Z</time>
      </trkpt>
      <trkpt lat="45.45444" lon="5.63139">
        <ele>453</ele>
        <time>2023-04-10T10:02:10Z</time>
      </trkpt>
      <trkpt lat="45.45444" lon="5.63135">
        <ele>453</ele>
        <time>2023-04-10T10:02:11Z</time>
      </trkpt>
      <trkpt lat="45.45442" lon="5.63132">
        <ele>453</ele>
        <time>2023-04-10T10:02:12Z</time>
      </trkpt>
      <trkpt lat="45.4544" lon="5.63129">
        <ele>453</ele>
        <time>2023-04-10T10:02:13Z</time>
      </trkpt>
      <trkpt lat="45.45437" lon="5.63127">
        <ele>453</ele>
        <time>2023-04-10T10:02:14Z</time>
      </trkpt>
      <trkpt lat="45.45435" lon="5.63125">
        <ele>453</ele>
        <time>2023-04-10T10:02:15Z</time>
      </trkpt>
      <trkpt lat="45.45432" lon="5.63123">
        <ele>453</ele>
        <time>2023-04-10T10:02:16Z</time>
      </trkpt>
      <trkpt lat="45.4543" lon="5.63121">
        <ele>454</ele>
        <time>2023-04-10T10:02:17Z</time>
      </trkpt>
      <trkpt lat="45.45428" lon="5.63119">
        <ele>454</ele>
        <time>2023-04-10T10:02:18Z</time>
      </trkpt>
      <trkpt lat="45.45425" lon="5.63118">
        <ele>454</ele>
        <time>2023-04-10T10:02:19Z</time>
      </trkpt>
      <trkpt lat="45.45423" lon="5.63116">
        <ele>454</ele>
        <time>2023-04-10T10:02:20Z</time>
      </trkpt>
      <trkpt lat="45.45421" lon="5.63114">
        <ele>454</ele>
        <time>2023-04-10T10:02:21Z</time>
      </trkpt>
      <trkpt lat="45.45418" lon="5.63112">
        <ele>455</ele>
        <time>2023-04-10T10:02:22Z</time>
      </trkpt>
      <trkpt lat="45.45415" lon="5.6311">
        <ele>455</ele>
        <time>2023-04-10T10:02:23Z</time>
      </trkpt>
      <trkpt lat="45.45412" lon="5.63108">
        <ele>455</ele>
        <time>2023-04-10T10:02:24Z</time>
      </trkpt>
      <trkpt lat="45.4541" lon="5.63106">
        <ele>456</ele>
        <time>2023-04-10T10:02:25Z</time>
      </trkpt>
      <trkpt lat="45.45407" lon="5.63104">
        <ele>456</ele>
        <time>2023-04-10T10:02:26Z</time>
      </trkpt>
      <trkpt lat="45.45404" lon="5.63102">
        <ele>456</ele>
        <time>2023-04-10T10:02:27Z</time>
      </trkpt>
      <trkpt lat="45.45402" lon="5.631">
        <ele>457</ele>
        <time>2023-04-10T10:02:28Z</time>
      </trkpt>
      <trkpt lat="45.45399" lon="5.63099">
        <ele>457</ele>
        <time>2023-04-10T10:02:29Z</time>
      </trkpt>
      <trkpt lat="45.45396" lon="5.63097">
        <ele>457</ele>
        <time>2023-04-10T10:02:30Z</time>
      </trkpt>
      <trkpt lat="45.45393" lon="5.63095">
        <ele>457</ele>
        <time>2023-04-10T10:02:31Z</time>
      </trkpt>
      <trkpt lat="45.4539" lon="5.63094">
        <ele>458</ele>
        <time>2023-04-10T10:02:32Z</time>
      </trkpt>
      <trkpt lat="45.45387" lon="5.63093">
        <ele>458</ele>
        <time>2023-04-10T10:02:33Z</time>
      </trkpt>
      <trkpt lat="45.45385" lon="5.63091">
        <ele>458</ele>
        <time>2023-04-10T10:02:34Z</time>
      </trkpt>
      <trkpt lat="45.45382" lon="5.6309">
        <ele>459</ele>
        <time>2023-04-10T10:02:35Z</time>
      </trkpt>
      <trkpt lat="45.4538" lon="5.63089">
        <ele>459</ele>
        <time>2023-04-10T10:02:36Z</time>
      </trkpt>
      <trkpt lat="45.45377" lon="5.63088">
        <ele>459</ele>
        <time>2023-04-10T10:02:37Z</time>
      </trkpt>
      <trkpt lat="45.45375" lon="5.63087">
        <ele>459</ele>
        <time>2023-04-10T10:02:38Z</time>
      </trkpt>
      <trkpt lat="45.45372" lon="5.63085">
        <ele>460</ele>
        <time>2023-04-10T10:02:39Z</time>
      </trkpt>
      <trkpt lat="45.4537" lon="5.63084">
        <ele>460</ele>
        <time>2023-04-10T10:02:40Z</time>
      </trkpt>
      <trkpt lat="45.45368" lon="5.63082">
        <ele>460</ele>
        <time>2023-04-10T10:02:41Z</time>
      </trkpt>
      <trkpt lat="45.45365" lon="5.6308">
        <ele>460</ele>
        <time>2023-04-10T10:02:42Z</time>
      </trkpt>
      <trkpt lat="45.45363" lon="5.63078">
        <ele>460</ele>
        <time>2023-04-10T10:02:43Z</time>
      </trkpt>
      <trkpt lat="45.45361" lon="5.63076">
        <ele>460</ele>
        <time>2023-04-10T10:02:44Z</time>
      </trkpt>
      <trkpt lat="45.45359" lon="5.63074">
        <ele>460</ele>
        <time>2023-04-10T10:02:45Z</time>
      </trkpt>
      <trkpt lat="45.45357" lon="5.63072">
        <ele>461</ele>
        <time>2023-04-10T10:02:46Z</time>
      </trkpt>
      <trkpt lat="45.45356" lon="5.6307">
        <ele>461</ele>
        <time>2023-04-10T10:02:47Z</time>
      </trkpt>
      <trkpt lat="45.45354" lon="5.63067">
        <ele>461</ele>
        <time>2023-04-10T10:02:48Z</time>
      </trkpt>
      <trkpt lat="45.45352" lon="5.63065">
        <ele>461</ele>
        <time>2023-04-10T10:02:49Z</time>
      </trkpt>
      <trkpt lat="45.4535" lon="5.63062">
        <ele>461</ele>
        <time>2023-04-10T10:02:50Z</time>
      </trkpt>
      <trkpt lat="45.45349" lon="5.63059">
        <ele>461</ele>
        <time>2023-04-10T10:02:51Z</time>
      </trkpt>
      <trkpt lat="45.45347" lon="5.63056">
        <ele>462</ele>
        <time>2023-04-10T10:02:52Z</time>
      </trkpt>
      <trkpt lat="45.45346" lon="5.63053">
        <ele>462</ele>
        <time>2023-04-10T10:02:53Z</time>
      </trkpt>
      <trkpt lat="45.45344" lon="5.63051">
        <ele>462</ele>
        <time>2023-04-10T10:02:54Z</time>
      </trkpt>
      <trkpt lat="45.45343" lon="5.63048">
        <ele>462</ele>
        <time>2023-04-10T10:02:55Z</time>
      </trkpt>
      <trkpt lat="45.45341" lon="5.63045">
        <ele>463</ele>
        <time>2023-04-10T10:02:56Z</time>
      </trkpt>
      <trkpt lat="45.45339" lon="5.63042">
        <ele>463</ele>
        <time>2023-04-10T10:02:57Z</time>
      </trkpt>
      <trkpt lat="45.45338" lon="5.63039">
        <ele>464</ele>
        <time>2023-04-10T10:02:58Z</time>
      </trkpt>
      <trkpt lat="45.45336" lon="5.63037">
        <ele>464</ele>
        <time>2023-04-10T10:02:59Z</time>
      </trkpt>
      <trkpt lat="45.45335" lon="5.63034">
        <ele>464</ele>
        <time>2023-04-10T10:03:00Z</time>
      </trkpt>
      <trkpt lat="45.45333" lon="5.63031">
        <ele>464</ele>
        <time>2023-04-10T10:03:01Z</time>
      </trkpt>
      <trkpt lat="45.45331" lon="5.63029">
        <ele>464</ele>
        <time>2023-04-10T10:03:02Z</time>
      </trkpt>
      <trkpt lat="45.4533" lon="5.63026">
        <ele>464</ele>
        <time>2023-04-10T10:03:03Z</time>
      </trkpt>
      <trkpt lat="45.45328" lon="5.63024">
        <ele>464</ele>
        <time>2023-04-10T10:03:04Z</time>
      </trkpt>
      <trkpt lat="45.45326" lon="5.63022">
        <ele>465</ele>
        <time>2023-04-10T10:03:05Z</time>
      </trkpt>
      <trkpt lat="45.45324" lon="5.6302">
        <ele>466</ele>
        <time>2023-04-10T10:03:06Z</time>
      </trkpt>
      <trkpt lat="45.45322" lon="5.63018">
        <ele>466</ele>
        <time>2023-04-10T10:03:07Z</time>
      </trkpt>
      <trkpt lat="45.4532" lon="5.63016">
        <ele>466</ele>
        <time>2023-04-10T10:03:08Z</time>
      </trkpt>
      <trkpt lat="45.45318" lon="5.63014">
        <ele>466</ele>
        <time>2023-04-10T10:03:09Z</time>
      </trkpt>
      <trkpt lat="45.45316" lon="5.63012">
        <ele>466</ele>
        <time>2023-04-10T10:03:10Z</time>
      </trkpt>
      <trkpt lat="45.45313" lon="5.63011">
        <ele>466</ele>
        <time>2023-04-10T10:03:11Z</time>
      </trkpt>
      <trkpt lat="45.45311" lon="5.63009">
        <ele>466</ele>
        <time>2023-04-10T10:03:12Z</time>
      </trkpt>
      <trkpt lat="45.45309" lon="5.63007">
        <ele>467</ele>
        <time>2023-04-10T10:03:13Z</time>
      </trkpt>
      <trkpt lat="45.45307" lon="5.63005">
        <ele>467</ele>
        <time>2023-04-10T10:03:14Z</time>
      </trkpt>
      <trkpt lat="45.45305" lon="5.63002">
        <ele>467</ele>
        <time>2023-04-10T10:03:15Z</time>
      </trkpt>
      <trkpt lat="45.45303" lon="5.62999">
        <ele>467</ele>
        <time>2023-04-10T10:03:16Z</time>
      </trkpt>
      <trkpt lat="45.45302" lon="5.62996">
        <ele>467</ele>
        <time>2023-04-10T10:03:17Z</time>
      </trkpt>
      <trkpt lat="45.45301" lon="5.62993">
        <ele>467</ele>
        <time>2023-04-10T10:03:18Z</time>
      </trkpt>
      <trkpt lat="45.453" lon="5.6299">
        <ele>467</ele>
        <time>2023-04-10T10:03:19Z</time>
      </trkpt>
      <trkpt lat="45.453" lon="5.62986">
        <ele>468</ele>
        <time>2023-04-10T10:03:20Z</time>
      </trkpt>
      <trkpt lat="45.453" lon="5.62982">
        <ele>468</ele>
        <time>2023-04-10T10:03:21Z</time>
      </trkpt>
      <trkpt lat="45.45301" lon="5.62979">
        <ele>468</ele>
        <time>2023-04-10T10:03:22Z</time>
      </trkpt>
      <trkpt lat="45.45302" lon="5.62976">
        <ele>469</ele>
        <time>2023-04-10T10:03:23Z</time>
      </trkpt>
      <trkpt lat="45.45304" lon="5.62973">
        <ele>469</ele>
        <time>2023-04-10T10:03:24Z</time>
      </trkpt>
      <trkpt lat="45.45306" lon="5.62971">
        <ele>469</ele>
        <time>2023-04-10T10:03:25Z</time>
      </trkpt>
      <trkpt lat="45.45308" lon="5.62969">
        <ele>469</ele>
        <time>2023-04-10T10:03:26Z</time>
      </trkpt>
      <trkpt lat="45.45311" lon="5.62968">
        <ele>470</ele>
        <time>2023-04-10T10:03:27Z</time>
      </trkpt>
      <trkpt lat="45.45314" lon="5.62968">
        <ele>470</ele>
        <time>2023-04-10T10:03:28Z</time>
      </trkpt>
      <trkpt lat="45.45316" lon="5.62968">
        <ele>471</ele>
        <time>2023-04-10T10:03:29Z</time>
      </trkpt>
      <trkpt lat="45.45319" lon="5.62969">
        <ele>471</ele>
        <time>2023-04-10T10:03:30Z</time>
      </trkpt>
      <trkpt lat="45.45321" lon="5.6297">
        <ele>471</ele>
        <time>2023-04-10T10:03:31Z</time>
      </trkpt>
      <trkpt lat="45.45324" lon="5.62971">
        <ele>471</ele>
        <time>2023-04-10T10:03:32Z</time>
      </trkpt>
      <trkpt lat="45.45326" lon="5.62972">
        <ele>471</ele>
        <time>2023-04-10T10:03:33Z</time>
      </trkpt>
      <trkpt lat="45.45329" lon="5.62973">
        <ele>471</ele>
        <time>2023-04-10T10:03:34Z</time>
      </trkpt>
      <trkpt lat="45.45331" lon="5.62975">
        <ele>471</ele>
        <time>2023-04-10T10:03:35Z</time>
      </trkpt>
      <trkpt lat="45.45333" lon="5.62976">
        <ele>471</ele>
        <time>2023-04-10T10:03:36Z</time>
      </trkpt>
      <trkpt lat="45.45336" lon="5.62978">
        <ele>471</ele>
        <time>2023-04-10T10:03:37Z</time>
      </trkpt>
      <trkpt lat="45.45338" lon="5.62979">
        <ele>471</ele>
        <time>2023-04-10T10:03:38Z</time>
      </trkpt>
      <trkpt lat="45.45341" lon="5.6298">
        <ele>471</ele>
        <time>2023-04-10T10:03:39Z</time>
      </trkpt>
      <trkpt lat="45.45343" lon="5.62981">
        <ele>472</ele>
        <time>2023-04-10T10:03:40Z</time>
      </trkpt>
      <trkpt lat="45.45346" lon="5.62982">
        <ele>472</ele>
        <time>2023-04-10T10:03:41Z</time>
      </trkpt>
      <trkpt lat="45.45348" lon="5.62984">
        <ele>472</ele>
        <time>2023-04-10T10:03:42Z</time>
      </trkpt>
      <trkpt lat="45.4535" lon="5.62986">
        <ele>472</ele>
        <time>2023-04-10T10:03:43Z</time>
      </trkpt>
      <trkpt lat="45.45353" lon="5.62987">
        <ele>472</ele>
        <time>2023-04-10T10:03:44Z</time>
      </trkpt>
      <trkpt lat="45.45355" lon="5.62989">
        <ele>472</ele>
        <time>2023-04-10T10:03:45Z</time>
      </trkpt>
      <trkpt lat="45.45358" lon="5.6299">
        <ele>473</ele>
        <time>2023-04-10T10:03:46Z</time>
      </trkpt>
      <trkpt lat="45.4536" lon="5.62991">
        <ele>473</ele>
        <time>2023-04-10T10:03:47Z</time>
      </trkpt>
      <trkpt lat="45.45363" lon="5.62993">
        <ele>473</ele>
        <time>2023-04-10T10:03:48Z</time>
      </trkpt>
      <trkpt lat="45.45365" lon="5.62994">
        <ele>473</ele>
        <time>2023-04-10T10:03:49Z</time>
      </trkpt>
      <trkpt lat="45.45368" lon="5.62995">
        <ele>473</ele>
        <time>2023-04-10T10:03:50Z</time>
      </trkpt>
      <trkpt lat="45.4537" lon="5.62996">
        <ele>474</ele>
        <time>2023-04-10T10:03:51Z</time>
      </trkpt>
      <trkpt lat="45.45372" lon="5.62997">
        <ele>475</ele>
        <time>2023-04-10T10:03:52Z</time>
      </trkpt>
      <trkpt lat="45.45375" lon="5.62997">
        <ele>475</ele>
        <time>2023-04-10T10:03:53Z</time>
      </trkpt>
      <trkpt lat="45.45377" lon="5.62997">
        <ele>475</ele>
        <time>2023-04-10T10:03:54Z</time>
      </trkpt>
      <trkpt lat="45.4538" lon="5.62997">
        <ele>476</ele>
        <time>2023-04-10T10:03:55Z</time>
      </trkpt>
      <trkpt lat="45.45382" lon="5.62997">
        <ele>476</ele>
        <time>2023-04-10T10:03:56Z</time>
      </trkpt>
      <trkpt lat="45.45385" lon="5.62996">
        <ele>477</ele>
        <time>2023-04-10T10:03:57Z</time>
      </trkpt>
      <trkpt lat="45.45387" lon="5.62995">
        <ele>477</ele>
        <time>2023-04-10T10:03:58Z</time>
      </trkpt>
      <trkpt lat="45.45389" lon="5.62994">
        <ele>477</ele>
        <time>2023-04-10T10:03:59Z</time>
      </trkpt>
      <trkpt lat="45.45391" lon="5.62993">
        <ele>477</ele>
        <time>2023-04-10T10:04:00Z</time>
      </trkpt>
      <trkpt lat="45.45393" lon="5.62991">
        <ele>477</ele>
        <time>2023-04-10T10:04:01Z</time>
      </trkpt>
      <trkpt lat="45.45395" lon="5.62989">
        <ele>477</ele>
        <time>2023-04-10T10:04:02Z</time>
      </trkpt>
      <trkpt lat="45.45397" lon="5.62987">
        <ele>477</ele>
        <time>2023-04-10T10:04:03Z</time>
      </trkpt>
      <trkpt lat="45.45399" lon="5.62985">
        <ele>477</ele>
        <time>2023-04-10T10:04:04Z</time>
      </trkpt>
      <trkpt lat="45.454" lon="5.62983">
        <ele>477</ele>
        <time>2023-04-10T10:04:05Z</time>
      </trkpt>
      <trkpt lat="45.45402" lon="5.6298">
        <ele>477</ele>
        <time>2023-04-10T10:04:06Z</time>
      </trkpt>
      <trkpt lat="45.45403" lon="5.62978">
        <ele>477</ele>
        <time>2023-04-10T10:04:07Z</time>
      </trkpt>
      <trkpt lat="45.45405" lon="5.62975">
        <ele>478</ele>
        <time>2023-04-10T10:04:08Z</time>
      </trkpt>
      <trkpt lat="45.45406" lon="5.62972">
        <ele>478</ele>
        <time>2023-04-10T10:04:09Z</time>
      </trkpt>
      <trkpt lat="45.45407" lon="5.6297">
        <ele>478</ele>
        <time>2023-04-10T10:04:10Z</time>
      </trkpt>
      <trkpt lat="45.45409" lon="5.62967">
        <ele>479</ele>
        <time>2023-04-10T10:04:11Z</time>
      </trkpt>
      <trkpt lat="45.4541" lon="5.62964">
        <ele>479</ele>
        <time>2023-04-10T10:04:12Z</time>
      </trkpt>
      <trkpt lat="45.45411" lon="5.62961">
        <ele>479</ele>
        <time>2023-04-10T10:04:13Z</time>
      </trkpt>
      <trkpt lat="45.45412" lon="5.62957">
        <ele>480</ele>
        <time>2023-04-10T10:04:14Z</time>
      </trkpt>
      <trkpt lat="45.45413" lon="5.62954">
        <ele>480</ele>
        <time>2023-04-10T10:04:15Z</time>
      </trkpt>
      <trkpt lat="45.45415" lon="5.62951">
        <ele>480</ele>
        <time>2023-04-10T10:04:16Z</time>
      </trkpt>
      <trkpt lat="45.45416" lon="5.62948">
        <ele>480</ele>
        <time>2023-04-10T10:04:17Z</time>
      </trkpt>
      <trkpt lat="45.45417" lon="5.62945">
        <ele>480</ele>
        <time>2023-04-10T10:04:18Z</time>
      </trkpt>
      <trkpt lat="45.45418" lon="5.62941">
        <ele>481</ele>
        <time>2023-04-10T10:04:19Z</time>
      </trkpt>
      <trkpt lat="45.45418" lon="5.62938">
        <ele>481</ele>
        <time>2023-04-10T10:04:20Z</time>
      </trkpt>
      <trkpt lat="45.45419" lon="5.62934">
        <ele>481</ele>
        <time>2023-04-10T10:04:21Z</time>
      </trkpt>
      <trkpt lat="45.45419" lon="5.62931">
        <ele>481</ele>
        <time>2023-04-10T10:04:22Z</time>
      </trkpt>
      <trkpt lat="45.4542" lon="5.62927">
        <ele>482</ele>
        <time>2023-04-10T10:04:23Z</time>
      </trkpt>
      <trkpt lat="45.4542" lon="5.62923">
        <ele>482</ele>
        <time>2023-04-10T10:04:24Z</time>
      </trkpt>
      <trkpt lat="45.4542" lon="5.62919">
        <ele>482</ele>
        <time>2023-04-10T10:04:25Z</time>
      </trkpt>
      <trkpt lat="45.4542" lon="5.62915">
        <ele>483</ele>
        <time>2023-04-10T10:04:26Z</time>
      </trkpt>
      <trkpt lat="45.4542" lon="5.62911">
        <ele>483</ele>
        <time>2023-04-10T10:04:27Z</time>
      </trkpt>
      <trkpt lat="45.4542" lon="5.62908">
        <ele>483</ele>
        <time>2023-04-10T10:04:28Z</time>
      </trkpt>
      <trkpt lat="45.45419" lon="5.62904">
        <ele>483</ele>
        <time>2023-04-10T10:04:29Z</time>
      </trkpt>
      <trkpt lat="45.45419" lon="5.62901">
        <ele>483</ele>
        <time>2023-04-10T10:04:30Z</time>
      </trkpt>
      <trkpt lat="45.45419" lon="5.62897">
        <ele>483</ele>
        <time>2023-04-10T10:04:31Z</time>
      </trkpt>
      <trkpt lat="45.4542" lon="5.62894">
        <ele>483</ele>
        <time>2023-04-10T10:04:32Z</time>
      </trkpt>
      <trkpt lat="45.4542" lon="5.6289">
        <ele>483</ele>
        <time>2023-04-10T10:04:33Z</time>
      </trkpt>
      <trkpt lat="45.4542" lon="5.62886">
        <ele>483</ele>
        <time>2023-04-10T10:04:34Z</time>
      </trkpt>
      <trkpt lat="45.4542" lon="5.62883">
        <ele>483</ele>
        <time>2023-04-10T10:04:35Z</time>
      </trkpt>
      <trkpt lat="45.45421" lon="5.62879">
        <ele>484</ele>
        <time>2023-04-10T10:04:36Z</time>
      </trkpt>
      <trkpt lat="45.45422" lon="5.62876">
        <ele>484</ele>
        <time>2023-04-10T10:04:37Z</time>
      </trkpt>
      <trkpt lat="45.45423" lon="5.62873">
        <ele>485</ele>
        <time>2023-04-10T10:04:38Z</time>
      </trkpt>
      <trkpt lat="45.45424" lon="5.6287">
        <ele>485</ele>
        <time>2023-04-10T10:04:39Z</time>
      </trkpt>
      <trkpt lat="45.45425" lon="5.62867">
        <ele>485</ele>
        <time>2023-04-10T10:04:40Z</time>
      </trkpt>
      <trkpt lat="45.45426" lon="5.62864">
        <ele>485</ele>
        <time>2023-04-10T10:04:41Z</time>
      </trkpt>
      <trkpt lat="45.45427" lon="5.62861">
        <ele>485</ele>
        <time>2023-04-10T10:04:42Z</time>
      </trkpt>
      <trkpt lat="45.45428" lon="5.62857">
        <ele>486</ele>
        <time>2023-04-10T10:04:43Z</time>
      </trkpt>
      <trkpt lat="45.45429" lon="5.62854">
        <ele>487</ele>
        <time>2023-04-10T10:04:44Z</time>
      </trkpt>
      <trkpt lat="45.4543" lon="5.62851">
        <ele>487</ele>
        <time>2023-04-10T10:04:45Z</time>
      </trkpt>
      <trkpt lat="45.4543" lon="5.62847">
        <ele>487</ele>
        <time>2023-04-10T10:04:46Z</time>
      </trkpt>
      <trkpt lat="45.45431" lon="5.62844">
        <ele>487</ele>
        <time>2023-04-10T10:04:47Z</time>
      </trkpt>
      <trkpt lat="45.45432" lon="5.62841">
        <ele>487</ele>
        <time>2023-04-10T10:04:48Z</time>
      </trkpt>
      <trkpt lat="45.45433" lon="5.62837">
        <ele>487</ele>
        <time>2023-04-10T10:04:49Z</time>
      </trkpt>
      <trkpt lat="45.45434" lon="5.62834">
        <ele>487</ele>
        <time>2023-04-10T10:04:50Z</time>
      </trkpt>
      <trkpt lat="45.45434" lon="5.6283">
        <ele>487</ele>
        <time>2023-04-10T10:04:51Z</time>
      </trkpt>
      <trkpt lat="45.45435" lon="5.62827">
        <ele>488</ele>
        <time>2023-04-10T10:04:52Z</time>
      </trkpt>
      <trkpt lat="45.45436" lon="5.62824">
        <ele>488</ele>
        <time>2023-04-10T10:04:53Z</time>
      </trkpt>
      <trkpt lat="45.45437" lon="5.6282">
        <ele>488</ele>
        <time>2023-04-10T10:04:54Z</time>
      </trkpt>
      <trkpt lat="45.45438" lon="5.62817">
        <ele>488</ele>
        <time>2023-04-10T10:04:55Z</time>
      </trkpt>
      <trkpt lat="45.45439" lon="5.62814">
        <ele>488</ele>
        <time>2023-04-10T10:04:56Z</time>
      </trkpt>
      <trkpt lat="45.4544" lon="5.6281">
        <ele>488</ele>
        <time>2023-04-10T10:04:57Z</time>
      </trkpt>
      <trkpt lat="45.45441" lon="5.62807">
        <ele>489</ele>
        <time>2023-04-10T10:04:58Z</time>
      </trkpt>
      <trkpt lat="45.45441" lon="5.62803">
        <ele>489</ele>
        <time>2023-04-10T10:04:59Z</time>
      </trkpt>
      <trkpt lat="45.45442" lon="5.628">
        <ele>489</ele>
        <time>2023-04-10T10:05:00Z</time>
      </trkpt>
      <trkpt lat="45.45443" lon="5.62796">
        <ele>489</ele>
        <time>2023-04-10T10:05:01Z</time>
      </trkpt>
      <trkpt lat="45.45444" lon="5.62793">
        <ele>489</ele>
        <time>2023-04-10T10:05:02Z</time>
      </trkpt>
      <trkpt lat="45.45444" lon="5.62789">
        <ele>489</ele>
        <time>2023-04-10T10:05:03Z</time>
      </trkpt>
      <trkpt lat="45.45445" lon="5.62786">
        <ele>489</ele>
        <time>2023-04-10T10:05:04Z</time>
      </trkpt>
      <trkpt lat="45.45446" lon="5.62782">
        <ele>489</ele>
        <time>2023-04-10T10:05:05Z</time>
      </trkpt>
      <trkpt lat="45.45447" lon="5.62779">
        <ele>489</ele>
        <time>2023-04-10T10:05:06Z</time>
      </trkpt>
      <trkpt lat="45.45448" lon="5.62775">
        <ele>490</ele>
        <time>2023-04-10T10:05:07Z</time>
      </trkpt>
      <trkpt lat="45.45449" lon="5.62772">
        <ele>490</ele>
        <time>2023-04-10T10:05:08Z</time>
      </trkpt>
      <trkpt lat="45.45449" lon="5.62768">
        <ele>490</ele>
        <time>2023-04-10T10:05:09Z</time>
      </trkpt>
      <trkpt lat="45.4545" lon="5.62765">
        <ele>490</ele>
        <time>2023-04-10T10:05:10Z</time>
      </trkpt>
      <trkpt lat="45.45451" lon="5.62762">
        <ele>491</ele>
        <time>2023-04-10T10:05:11Z</time>
      </trkpt>
      <trkpt lat="45.45451" lon="5.62758">
        <ele>491</ele>
        <time>2023-04-10T10:05:12Z</time>
      </trkpt>
      <trkpt lat="45.45452" lon="5.62755">
        <ele>491</ele>
        <time>2023-04-10T10:05:13Z</time>
      </trkpt>
      <trkpt lat="45.45452" lon="5.62751">
        <ele>491</ele>
        <time>2023-04-10T10:05:14Z</time>
      </trkpt>
      <trkpt lat="45.45452" lon="5.62747">
        <ele>491</ele>
        <time>2023-04-10T10:05:15Z</time>
      </trkpt>
      <trkpt lat="45.45453" lon="5.62744">
        <ele>492</ele>
        <time>2023-04-10T10:05:16Z</time>
      </trkpt>
      <trkpt lat="45.45453" lon="5.6274">
        <ele>492</ele>
        <time>2023-04-10T10:05:17Z</time>
      </trkpt>
      <trkpt lat="45.45453" lon="5.62736">
        <ele>492</ele>
        <time>2023-04-10T10:05:18Z</time>
      </trkpt>
      <trkpt lat="45.45453" lon="5.62732">
        <ele>492</ele>
        <time>2023-04-10T10:05:19Z</time>
      </trkpt>
      <trkpt lat="45.45453" lon="5.62729">
        <ele>493</ele>
        <time>2023-04-10T10:05:20Z</time>
      </trkpt>
      <trkpt lat="45.45452" lon="5.62725">
        <ele>494</ele>
        <time>2023-04-10T10:05:21Z</time>
      </trkpt>
      <trkpt lat="45.45452" lon="5.62722">
        <ele>494</ele>
        <time>2023-04-10T10:05:22Z</time>
      </trkpt>
      <trkpt lat="45.45451" lon="5.62718">
        <ele>494</ele>
        <time>2023-04-10T10:05:23Z</time>
      </trkpt>
      <trkpt lat="45.45451" lon="5.62714">
        <ele>494</ele>
        <time>2023-04-10T10:05:24Z</time>
      </trkpt>
      <trkpt lat="45.4545" lon="5.62711">
        <ele>494</ele>
        <time>2023-04-10T10:05:25Z</time>
      </trkpt>
      <trkpt lat="45.45449" lon="5.62708">
        <ele>495</ele>
        <time>2023-04-10T10:05:26Z</time>
      </trkpt>
      <trkpt lat="45.45449" lon="5.62704">
        <ele>495</ele>
        <time>2023-04-10T10:05:27Z</time>
      </trkpt>
      <trkpt lat="45.45448" lon="5.62701">
        <ele>495</ele>
        <time>2023-04-10T10:05:28Z</time>
      </trkpt>
      <trkpt lat="45.45447" lon="5.62698">
        <ele>495</ele>
        <time>2023-04-10T10:05:29Z</time>
      </trkpt>
      <trkpt lat="45.45446" lon="5.62694">
        <ele>495</ele>
        <time>2023-04-10T10:05:30Z</time>
      </trkpt>
      <trkpt lat="45.45445" lon="5.62691">
        <ele>495</ele>
        <time>2023-04-10T10:05:31Z</time>
      </trkpt>
      <trkpt lat="45.45444" lon="5.62687">
        <ele>495</ele>
        <time>2023-04-10T10:05:32Z</time>
      </trkpt>
      <trkpt lat="45.45443" lon="5.62684">
        <ele>495</ele>
        <time>2023-04-10T10:05:33Z</time>
      </trkpt>
      <trkpt lat="45.45442" lon="5.62681">
        <ele>495</ele>
        <time>2023-04-10T10:05:34Z</time>
      </trkpt>
      <trkpt lat="45.45442" lon="5.62677">
        <ele>496</ele>
        <time>2023-04-10T10:05:35Z</time>
      </trkpt>
      <trkpt lat="45.45441" lon="5.62674">
        <ele>496</ele>
        <time>2023-04-10T10:05:36Z</time>
      </trkpt>
      <trkpt lat="45.4544" lon="5.62671">
        <ele>496</ele>
        <time>2023-04-10T10:05:37Z</time>
      </trkpt>
      <trkpt lat="45.45439" lon="5.62668">
        <ele>497</ele>
        <time>2023-04-10T10:05:38Z</time>
      </trkpt>
      <trkpt lat="45.45439" lon="5.62664">
        <ele>497</ele>
        <time>2023-04-10T10:05:39Z</time>
      </trkpt>
      <trkpt lat="45.45438" lon="5.6266">
        <ele>497</ele>
        <time>2023-04-10T10:05:40Z</time>
      </trkpt>
      <trkpt lat="45.45437" lon="5.62657">
        <ele>498</ele>
        <time>2023-04-10T10:05:41Z</time>
      </trkpt>
      <trkpt lat="45.45436" lon="5.62653">
        <ele>498</ele>
        <time>2023-04-10T10:05:42Z</time>
      </trkpt>
      <trkpt lat="45.45436" lon="5.6265">
        <ele>498</ele>
        <time>2023-04-10T10:05:43Z</time>
      </trkpt>
      <trkpt lat="45.45435" lon="5.62646">
        <ele>498</ele>
        <time>2023-04-10T10:05:44Z</time>
      </trkpt>
      <trkpt lat="45.45434" lon="5.62642">
        <ele>498</ele>
        <time>2023-04-10T10:05:45Z</time>
      </trkpt>
      <trkpt lat="45.45433" lon="5.62638">
        <ele>499</ele>
        <time>2023-04-10T10:05:46Z</time>
      </trkpt>
      <trkpt lat="45.45433" lon="5.62634">
        <ele>499</ele>
        <time>2023-04-10T10:05:47Z</time>
      </trkpt>
      <trkpt lat="45.45432" lon="5.6263">
        <ele>499</ele>
        <time>2023-04-10T10:05:48Z</time>
      </trkpt>
      <trkpt lat="45.45431" lon="5.62626">
        <ele>499</ele>
        <time>2023-04-10T10:05:49Z</time>
      </trkpt>
      <trkpt lat="45.45431" lon="5.62622">
        <ele>498</ele>
        <time>2023-04-10T10:05:50Z</time>
      </trkpt>
      <trkpt lat="45.4543" lon="5.62618">
        <ele>498</ele>
        <time>2023-04-10T10:05:51Z</time>
      </trkpt>
      <trkpt lat="45.45429" lon="5.62614">
        <ele>498</ele>
        <time>2023-04-10T10:05:52Z</time>
      </trkpt>
      <trkpt lat="45.45427" lon="5.62611">
        <ele>499</ele>
        <time>2023-04-10T10:05:53Z</time>
      </trkpt>
      <trkpt lat="45.45424" lon="5.62609">
        <ele>499</ele>
        <time>2023-04-10T10:05:54Z</time>
      </trkpt>
      <trkpt lat="45.45421" lon="5.62607">
        <ele>499</ele>
        <time>2023-04-10T10:05:55Z</time>
      </trkpt>
      <trkpt lat="45.45419" lon="5.62607">
        <ele>499</ele>
        <time>2023-04-10T10:05:56Z</time>
      </trkpt>
      <trkpt lat="45.45416" lon="5.62607">
        <ele>499</ele>
        <time>2023-04-10T10:05:57Z</time>
      </trkpt>
      <trkpt lat="45.45413" lon="5.62607">
        <ele>500</ele>
        <time>2023-04-10T10:05:58Z</time>
      </trkpt>
      <trkpt lat="45.4541" lon="5.62607">
        <ele>500</ele>
        <time>2023-04-10T10:05:59Z</time>
      </trkpt>
      <trkpt lat="45.45407" lon="5.62607">
        <ele>500</ele>
        <time>2023-04-10T10:06:00Z</time>
      </trkpt>
      <trkpt lat="45.45404" lon="5.62607">
        <ele>500</ele>
        <time>2023-04-10T10:06:01Z</time>
      </trkpt>
      <trkpt lat="45.45401" lon="5.62606">
        <ele>500</ele>
        <time>2023-04-10T10:06:02Z</time>
      </trkpt>
      <trkpt lat="45.45398" lon="5.62606">
        <ele>500</ele>
        <time>2023-04-10T10:06:03Z</time>
      </trkpt>
      <trkpt lat="45.45395" lon="5.62606">
        <ele>500</ele>
        <time>2023-04-10T10:06:04Z</time>
      </trkpt>
      <trkpt lat="45.45392" lon="5.62607">
        <ele>500</ele>
        <time>2023-04-10T10:06:05Z</time>
      </trkpt>
      <trkpt lat="45.45389" lon="5.62607">
        <ele>500</ele>
        <time>2023-04-10T10:06:06Z</time>
      </trkpt>
      <trkpt lat="45.45386" lon="5.62608">
        <ele>500</ele>
        <time>2023-04-10T10:06:07Z</time>
      </trkpt>
      <trkpt lat="45.45384" lon="5.62608">
        <ele>500</ele>
        <time>2023-04-10T10:06:08Z</time>
      </trkpt>
      <trkpt lat="45.45382" lon="5.62608">
        <ele>500</ele>
        <time>2023-04-10T10:06:09Z</time>
      </trkpt>
      <trkpt lat="45.4538" lon="5.62605">
        <ele>500</ele>
        <time>2023-04-10T10:06:11Z</time>
      </trkpt>
      <trkpt lat="45.45379" lon="5.62603">
        <ele>500</ele>
        <time>2023-04-10T10:06:12Z</time>
      </trkpt>
    </trkseg>
  </trk>
</gpx>